<?xml version="1.0" encoding="UTF-8" standalone="no" ?>
<gpx xmlns="http://www.topografix.com/GPX/1/1" xmlns:xsi="http://www.w3.org/2001/XMLSchema-instance" xsi:schemaLocation="http://www.topografix.com/GPX/1/1 http://www.topografix.com/GPX/1/1/gpx.xsd" version="1.1" creator="VisuGPX - https://www.visugpx.com">
  <metadata>
    <name>Chaponost Yzeron Lac barrage</name>
    <desc><![CDATA[Une belle sortie depuis  Chaponost, faisable en musculaire comme en électrique. Le passage au lac de barrage est toujours amusant. 
Pas de grosse difficulté technique. ]]></desc>
  </metadata>
  <trk>
    <name><![CDATA[Chaponost Gravel_1]]></name>
    <extensions>
      <line xmlns="http://www.topografix.com/GPX/gpx_style/0/2">
        <color>0000FF</color>
        <width>4</width>
      </line>
    </extensions>
    <trkseg>
      <trkpt lat="45.71091" lon="4.75539">
        <ele>311.8</ele>
        <time>2025-12-15T12:25:39Z</time>
      </trkpt>
      <trkpt lat="45.71089" lon="4.75542">
        <ele>311.8</ele>
        <time>2025-12-15T12:25:40Z</time>
      </trkpt>
      <trkpt lat="45.7109" lon="4.75541">
        <ele>311.8</ele>
        <time>2025-12-15T12:25:41Z</time>
      </trkpt>
      <trkpt lat="45.7109" lon="4.75541">
        <ele>311.8</ele>
        <time>2025-12-15T12:25:42Z</time>
      </trkpt>
      <trkpt lat="45.71089" lon="4.75541">
        <ele>311.8</ele>
        <time>2025-12-15T12:25:43Z</time>
      </trkpt>
      <trkpt lat="45.7109" lon="4.7554">
        <ele>311.8</ele>
        <time>2025-12-15T12:25:44Z</time>
      </trkpt>
      <trkpt lat="45.7109" lon="4.75539">
        <ele>311.8</ele>
        <time>2025-12-15T12:25:45Z</time>
      </trkpt>
      <trkpt lat="45.7109" lon="4.75539">
        <ele>311.8</ele>
        <time>2025-12-15T12:25:46Z</time>
      </trkpt>
      <trkpt lat="45.7109" lon="4.75539">
        <ele>311.8</ele>
        <time>2025-12-15T12:25:47Z</time>
      </trkpt>
      <trkpt lat="45.7109" lon="4.7554">
        <ele>311.8</ele>
        <time>2025-12-15T12:25:48Z</time>
      </trkpt>
      <trkpt lat="45.71089" lon="4.7554">
        <ele>311.8</ele>
        <time>2025-12-15T12:25:49Z</time>
      </trkpt>
      <trkpt lat="45.71089" lon="4.7554">
        <ele>311.8</ele>
        <time>2025-12-15T12:25:50Z</time>
      </trkpt>
      <trkpt lat="45.71089" lon="4.75539">
        <ele>311.8</ele>
        <time>2025-12-15T12:25:51Z</time>
      </trkpt>
      <trkpt lat="45.71089" lon="4.75539">
        <ele>311.8</ele>
        <time>2025-12-15T12:25:52Z</time>
      </trkpt>
      <trkpt lat="45.71089" lon="4.7554">
        <ele>311.8</ele>
        <time>2025-12-15T12:25:53Z</time>
      </trkpt>
      <trkpt lat="45.7109" lon="4.7554">
        <ele>311.8</ele>
        <time>2025-12-15T12:25:54Z</time>
      </trkpt>
      <trkpt lat="45.71089" lon="4.7554">
        <ele>311.8</ele>
        <time>2025-12-15T12:25:55Z</time>
      </trkpt>
      <trkpt lat="45.71089" lon="4.7554">
        <ele>311.8</ele>
        <time>2025-12-15T12:25:56Z</time>
      </trkpt>
      <trkpt lat="45.71089" lon="4.7554">
        <ele>311.8</ele>
        <time>2025-12-15T12:25:57Z</time>
      </trkpt>
      <trkpt lat="45.7109" lon="4.7554">
        <ele>311.8</ele>
        <time>2025-12-15T12:25:58Z</time>
      </trkpt>
      <trkpt lat="45.7109" lon="4.7554">
        <ele>312</ele>
        <time>2025-12-15T12:25:59Z</time>
      </trkpt>
      <trkpt lat="45.7109" lon="4.7554">
        <ele>311.8</ele>
        <time>2025-12-15T12:26:00Z</time>
      </trkpt>
      <trkpt lat="45.7109" lon="4.7554">
        <ele>311.8</ele>
        <time>2025-12-15T12:26:01Z</time>
      </trkpt>
      <trkpt lat="45.7109" lon="4.75541">
        <ele>311.8</ele>
        <time>2025-12-15T12:26:02Z</time>
      </trkpt>
      <trkpt lat="45.7109" lon="4.75541">
        <ele>311.8</ele>
        <time>2025-12-15T12:26:03Z</time>
      </trkpt>
      <trkpt lat="45.7109" lon="4.75541">
        <ele>311.8</ele>
        <time>2025-12-15T12:26:04Z</time>
      </trkpt>
      <trkpt lat="45.7109" lon="4.75541">
        <ele>311.8</ele>
        <time>2025-12-15T12:26:05Z</time>
      </trkpt>
      <trkpt lat="45.7109" lon="4.75542">
        <ele>311.8</ele>
        <time>2025-12-15T12:26:06Z</time>
      </trkpt>
      <trkpt lat="45.7109" lon="4.75542">
        <ele>311.8</ele>
        <time>2025-12-15T12:26:07Z</time>
      </trkpt>
      <trkpt lat="45.7109" lon="4.75542">
        <ele>311.8</ele>
        <time>2025-12-15T12:26:08Z</time>
      </trkpt>
      <trkpt lat="45.7109" lon="4.75542">
        <ele>311.8</ele>
        <time>2025-12-15T12:26:09Z</time>
      </trkpt>
      <trkpt lat="45.7109" lon="4.75542">
        <ele>311.8</ele>
        <time>2025-12-15T12:26:10Z</time>
      </trkpt>
      <trkpt lat="45.7109" lon="4.75542">
        <ele>311.8</ele>
        <time>2025-12-15T12:26:11Z</time>
      </trkpt>
      <trkpt lat="45.7109" lon="4.75542">
        <ele>311.8</ele>
        <time>2025-12-15T12:26:12Z</time>
      </trkpt>
      <trkpt lat="45.7109" lon="4.75542">
        <ele>312</ele>
        <time>2025-12-15T12:26:13Z</time>
      </trkpt>
      <trkpt lat="45.7109" lon="4.75542">
        <ele>312</ele>
        <time>2025-12-15T12:26:14Z</time>
      </trkpt>
      <trkpt lat="45.7109" lon="4.75542">
        <ele>312</ele>
        <time>2025-12-15T12:26:15Z</time>
      </trkpt>
      <trkpt lat="45.7109" lon="4.75542">
        <ele>312</ele>
        <time>2025-12-15T12:26:16Z</time>
      </trkpt>
      <trkpt lat="45.7109" lon="4.75542">
        <ele>312</ele>
        <time>2025-12-15T12:26:17Z</time>
      </trkpt>
      <trkpt lat="45.7109" lon="4.75542">
        <ele>312</ele>
        <time>2025-12-15T12:26:18Z</time>
      </trkpt>
      <trkpt lat="45.7109" lon="4.75542">
        <ele>312</ele>
        <time>2025-12-15T12:26:19Z</time>
      </trkpt>
      <trkpt lat="45.7109" lon="4.75542">
        <ele>312</ele>
        <time>2025-12-15T12:26:20Z</time>
      </trkpt>
      <trkpt lat="45.7109" lon="4.75542">
        <ele>312</ele>
        <time>2025-12-15T12:26:21Z</time>
      </trkpt>
      <trkpt lat="45.7109" lon="4.75542">
        <ele>312</ele>
        <time>2025-12-15T12:26:22Z</time>
      </trkpt>
      <trkpt lat="45.7109" lon="4.75542">
        <ele>312</ele>
        <time>2025-12-15T12:26:23Z</time>
      </trkpt>
      <trkpt lat="45.7109" lon="4.75542">
        <ele>312</ele>
        <time>2025-12-15T12:26:24Z</time>
      </trkpt>
      <trkpt lat="45.7109" lon="4.75543">
        <ele>312</ele>
        <time>2025-12-15T12:26:25Z</time>
      </trkpt>
      <trkpt lat="45.7109" lon="4.75543">
        <ele>312</ele>
        <time>2025-12-15T12:26:26Z</time>
      </trkpt>
      <trkpt lat="45.7109" lon="4.75543">
        <ele>312</ele>
        <time>2025-12-15T12:26:27Z</time>
      </trkpt>
      <trkpt lat="45.7109" lon="4.75543">
        <ele>312</ele>
        <time>2025-12-15T12:26:28Z</time>
      </trkpt>
      <trkpt lat="45.7109" lon="4.75544">
        <ele>312</ele>
        <time>2025-12-15T12:26:29Z</time>
      </trkpt>
      <trkpt lat="45.7109" lon="4.75544">
        <ele>312</ele>
        <time>2025-12-15T12:26:30Z</time>
      </trkpt>
      <trkpt lat="45.7109" lon="4.75544">
        <ele>312</ele>
        <time>2025-12-15T12:26:31Z</time>
      </trkpt>
      <trkpt lat="45.7109" lon="4.75544">
        <ele>312</ele>
        <time>2025-12-15T12:26:32Z</time>
      </trkpt>
      <trkpt lat="45.7109" lon="4.75544">
        <ele>312</ele>
        <time>2025-12-15T12:26:33Z</time>
      </trkpt>
      <trkpt lat="45.7109" lon="4.75544">
        <ele>312</ele>
        <time>2025-12-15T12:26:34Z</time>
      </trkpt>
      <trkpt lat="45.7109" lon="4.75544">
        <ele>312</ele>
        <time>2025-12-15T12:26:35Z</time>
      </trkpt>
      <trkpt lat="45.7109" lon="4.75544">
        <ele>312</ele>
        <time>2025-12-15T12:26:36Z</time>
      </trkpt>
      <trkpt lat="45.7109" lon="4.75544">
        <ele>312</ele>
        <time>2025-12-15T12:26:37Z</time>
      </trkpt>
      <trkpt lat="45.7109" lon="4.75544">
        <ele>312</ele>
        <time>2025-12-15T12:26:38Z</time>
      </trkpt>
      <trkpt lat="45.7109" lon="4.75544">
        <ele>312</ele>
        <time>2025-12-15T12:26:39Z</time>
      </trkpt>
      <trkpt lat="45.7109" lon="4.75544">
        <ele>312</ele>
        <time>2025-12-15T12:26:40Z</time>
      </trkpt>
      <trkpt lat="45.7109" lon="4.75544">
        <ele>312</ele>
        <time>2025-12-15T12:26:41Z</time>
      </trkpt>
      <trkpt lat="45.7109" lon="4.75544">
        <ele>312</ele>
        <time>2025-12-15T12:26:42Z</time>
      </trkpt>
      <trkpt lat="45.71089" lon="4.75544">
        <ele>312</ele>
        <time>2025-12-15T12:26:43Z</time>
      </trkpt>
      <trkpt lat="45.71089" lon="4.75544">
        <ele>312</ele>
        <time>2025-12-15T12:26:44Z</time>
      </trkpt>
      <trkpt lat="45.71089" lon="4.75544">
        <ele>312</ele>
        <time>2025-12-15T12:26:45Z</time>
      </trkpt>
      <trkpt lat="45.71089" lon="4.75544">
        <ele>312</ele>
        <time>2025-12-15T12:26:46Z</time>
      </trkpt>
      <trkpt lat="45.71089" lon="4.75544">
        <ele>312</ele>
        <time>2025-12-15T12:26:47Z</time>
      </trkpt>
      <trkpt lat="45.71088" lon="4.75544">
        <ele>312</ele>
        <time>2025-12-15T12:26:48Z</time>
      </trkpt>
      <trkpt lat="45.71088" lon="4.75544">
        <ele>312</ele>
        <time>2025-12-15T12:26:49Z</time>
      </trkpt>
      <trkpt lat="45.71088" lon="4.75544">
        <ele>312</ele>
        <time>2025-12-15T12:26:50Z</time>
      </trkpt>
      <trkpt lat="45.71088" lon="4.75544">
        <ele>312</ele>
        <time>2025-12-15T12:26:51Z</time>
      </trkpt>
      <trkpt lat="45.71088" lon="4.75545">
        <ele>312</ele>
        <time>2025-12-15T12:26:52Z</time>
      </trkpt>
      <trkpt lat="45.71088" lon="4.75545">
        <ele>312</ele>
        <time>2025-12-15T12:26:53Z</time>
      </trkpt>
      <trkpt lat="45.71088" lon="4.75545">
        <ele>312</ele>
        <time>2025-12-15T12:26:54Z</time>
      </trkpt>
      <trkpt lat="45.71088" lon="4.75545">
        <ele>312</ele>
        <time>2025-12-15T12:26:55Z</time>
      </trkpt>
      <trkpt lat="45.71088" lon="4.75545">
        <ele>312</ele>
        <time>2025-12-15T12:26:56Z</time>
      </trkpt>
      <trkpt lat="45.71088" lon="4.75546">
        <ele>312</ele>
        <time>2025-12-15T12:26:57Z</time>
      </trkpt>
      <trkpt lat="45.71088" lon="4.75546">
        <ele>312</ele>
        <time>2025-12-15T12:26:58Z</time>
      </trkpt>
      <trkpt lat="45.71087" lon="4.75546">
        <ele>312</ele>
        <time>2025-12-15T12:26:59Z</time>
      </trkpt>
      <trkpt lat="45.71087" lon="4.75546">
        <ele>312</ele>
        <time>2025-12-15T12:27:00Z</time>
      </trkpt>
      <trkpt lat="45.71087" lon="4.75546">
        <ele>312</ele>
        <time>2025-12-15T12:27:01Z</time>
      </trkpt>
      <trkpt lat="45.71087" lon="4.75546">
        <ele>312</ele>
        <time>2025-12-15T12:27:02Z</time>
      </trkpt>
      <trkpt lat="45.71087" lon="4.75546">
        <ele>312</ele>
        <time>2025-12-15T12:27:03Z</time>
      </trkpt>
      <trkpt lat="45.71087" lon="4.75546">
        <ele>312</ele>
        <time>2025-12-15T12:27:04Z</time>
      </trkpt>
      <trkpt lat="45.71087" lon="4.75546">
        <ele>312</ele>
        <time>2025-12-15T12:27:05Z</time>
      </trkpt>
      <trkpt lat="45.71087" lon="4.75546">
        <ele>312</ele>
        <time>2025-12-15T12:27:06Z</time>
      </trkpt>
      <trkpt lat="45.71087" lon="4.75546">
        <ele>312</ele>
        <time>2025-12-15T12:27:07Z</time>
      </trkpt>
      <trkpt lat="45.71087" lon="4.75546">
        <ele>312</ele>
        <time>2025-12-15T12:27:08Z</time>
      </trkpt>
      <trkpt lat="45.71087" lon="4.75546">
        <ele>312</ele>
        <time>2025-12-15T12:27:09Z</time>
      </trkpt>
      <trkpt lat="45.71087" lon="4.75546">
        <ele>312</ele>
        <time>2025-12-15T12:27:10Z</time>
      </trkpt>
      <trkpt lat="45.71085" lon="4.75546">
        <ele>312</ele>
        <time>2025-12-15T12:27:11Z</time>
      </trkpt>
      <trkpt lat="45.71084" lon="4.75545">
        <ele>312</ele>
        <time>2025-12-15T12:27:12Z</time>
      </trkpt>
      <trkpt lat="45.71083" lon="4.75545">
        <ele>312</ele>
        <time>2025-12-15T12:27:13Z</time>
      </trkpt>
      <trkpt lat="45.7108" lon="4.75544">
        <ele>312</ele>
        <time>2025-12-15T12:27:14Z</time>
      </trkpt>
      <trkpt lat="45.71078" lon="4.75543">
        <ele>312</ele>
        <time>2025-12-15T12:27:15Z</time>
      </trkpt>
      <trkpt lat="45.71075" lon="4.75543">
        <ele>312</ele>
        <time>2025-12-15T12:27:16Z</time>
      </trkpt>
      <trkpt lat="45.71072" lon="4.75543">
        <ele>311.8</ele>
        <time>2025-12-15T12:27:17Z</time>
      </trkpt>
      <trkpt lat="45.71068" lon="4.75542">
        <ele>311.8</ele>
        <time>2025-12-15T12:27:18Z</time>
      </trkpt>
      <trkpt lat="45.71063" lon="4.75542">
        <ele>311.6</ele>
        <time>2025-12-15T12:27:19Z</time>
      </trkpt>
      <trkpt lat="45.71059" lon="4.75541">
        <ele>311.2</ele>
        <time>2025-12-15T12:27:20Z</time>
      </trkpt>
      <trkpt lat="45.71057" lon="4.75538">
        <ele>311</ele>
        <time>2025-12-15T12:27:21Z</time>
      </trkpt>
      <trkpt lat="45.71055" lon="4.75533">
        <ele>310.8</ele>
        <time>2025-12-15T12:27:22Z</time>
      </trkpt>
      <trkpt lat="45.71055" lon="4.75526">
        <ele>310.4</ele>
        <time>2025-12-15T12:27:23Z</time>
      </trkpt>
      <trkpt lat="45.71055" lon="4.7552">
        <ele>310.2</ele>
        <time>2025-12-15T12:27:24Z</time>
      </trkpt>
      <trkpt lat="45.71055" lon="4.75513">
        <ele>310</ele>
        <time>2025-12-15T12:27:25Z</time>
      </trkpt>
      <trkpt lat="45.71055" lon="4.75506">
        <ele>309.8</ele>
        <time>2025-12-15T12:27:26Z</time>
      </trkpt>
      <trkpt lat="45.71055" lon="4.75499">
        <ele>309.6</ele>
        <time>2025-12-15T12:27:27Z</time>
      </trkpt>
      <trkpt lat="45.71055" lon="4.75491">
        <ele>309.4</ele>
        <time>2025-12-15T12:27:28Z</time>
      </trkpt>
      <trkpt lat="45.71055" lon="4.75484">
        <ele>309.2</ele>
        <time>2025-12-15T12:27:29Z</time>
      </trkpt>
      <trkpt lat="45.71054" lon="4.75477">
        <ele>309</ele>
        <time>2025-12-15T12:27:30Z</time>
      </trkpt>
      <trkpt lat="45.71054" lon="4.75469">
        <ele>309</ele>
        <time>2025-12-15T12:27:31Z</time>
      </trkpt>
      <trkpt lat="45.71055" lon="4.75462">
        <ele>309</ele>
        <time>2025-12-15T12:27:32Z</time>
      </trkpt>
      <trkpt lat="45.71055" lon="4.75455">
        <ele>309</ele>
        <time>2025-12-15T12:27:33Z</time>
      </trkpt>
      <trkpt lat="45.71055" lon="4.75447">
        <ele>309</ele>
        <time>2025-12-15T12:27:34Z</time>
      </trkpt>
      <trkpt lat="45.71055" lon="4.7544">
        <ele>309.2</ele>
        <time>2025-12-15T12:27:35Z</time>
      </trkpt>
      <trkpt lat="45.71055" lon="4.75434">
        <ele>309.6</ele>
        <time>2025-12-15T12:27:36Z</time>
      </trkpt>
      <trkpt lat="45.71055" lon="4.75427">
        <ele>310</ele>
        <time>2025-12-15T12:27:37Z</time>
      </trkpt>
      <trkpt lat="45.71055" lon="4.7542">
        <ele>310.4</ele>
        <time>2025-12-15T12:27:38Z</time>
      </trkpt>
      <trkpt lat="45.71056" lon="4.75413">
        <ele>310.6</ele>
        <time>2025-12-15T12:27:39Z</time>
      </trkpt>
      <trkpt lat="45.71057" lon="4.75407">
        <ele>311</ele>
        <time>2025-12-15T12:27:40Z</time>
      </trkpt>
      <trkpt lat="45.71059" lon="4.754">
        <ele>311.2</ele>
        <time>2025-12-15T12:27:41Z</time>
      </trkpt>
      <trkpt lat="45.71061" lon="4.75393">
        <ele>311.2</ele>
        <time>2025-12-15T12:27:42Z</time>
      </trkpt>
      <trkpt lat="45.71063" lon="4.75386">
        <ele>311.2</ele>
        <time>2025-12-15T12:27:43Z</time>
      </trkpt>
      <trkpt lat="45.71066" lon="4.75378">
        <ele>310.8</ele>
        <time>2025-12-15T12:27:44Z</time>
      </trkpt>
      <trkpt lat="45.71069" lon="4.75369">
        <ele>310.6</ele>
        <time>2025-12-15T12:27:45Z</time>
      </trkpt>
      <trkpt lat="45.71072" lon="4.7536">
        <ele>310</ele>
        <time>2025-12-15T12:27:46Z</time>
      </trkpt>
      <trkpt lat="45.71074" lon="4.75349">
        <ele>309.2</ele>
        <time>2025-12-15T12:27:47Z</time>
      </trkpt>
      <trkpt lat="45.71077" lon="4.75338">
        <ele>308.2</ele>
        <time>2025-12-15T12:27:48Z</time>
      </trkpt>
      <trkpt lat="45.7108" lon="4.75327">
        <ele>306.8</ele>
        <time>2025-12-15T12:27:49Z</time>
      </trkpt>
      <trkpt lat="45.71083" lon="4.75314">
        <ele>305.2</ele>
        <time>2025-12-15T12:27:50Z</time>
      </trkpt>
      <trkpt lat="45.71088" lon="4.753">
        <ele>303.2</ele>
        <time>2025-12-15T12:27:51Z</time>
      </trkpt>
      <trkpt lat="45.71094" lon="4.75286">
        <ele>301</ele>
        <time>2025-12-15T12:27:52Z</time>
      </trkpt>
      <trkpt lat="45.71101" lon="4.75273">
        <ele>298.8</ele>
        <time>2025-12-15T12:27:53Z</time>
      </trkpt>
      <trkpt lat="45.71107" lon="4.75259">
        <ele>296.6</ele>
        <time>2025-12-15T12:27:54Z</time>
      </trkpt>
      <trkpt lat="45.71112" lon="4.75244">
        <ele>294.6</ele>
        <time>2025-12-15T12:27:55Z</time>
      </trkpt>
      <trkpt lat="45.71115" lon="4.75229">
        <ele>293.2</ele>
        <time>2025-12-15T12:27:56Z</time>
      </trkpt>
      <trkpt lat="45.71116" lon="4.75214">
        <ele>292</ele>
        <time>2025-12-15T12:27:57Z</time>
      </trkpt>
      <trkpt lat="45.71116" lon="4.752">
        <ele>291.4</ele>
        <time>2025-12-15T12:27:58Z</time>
      </trkpt>
      <trkpt lat="45.71115" lon="4.75187">
        <ele>291</ele>
        <time>2025-12-15T12:27:59Z</time>
      </trkpt>
      <trkpt lat="45.71113" lon="4.75175">
        <ele>291</ele>
        <time>2025-12-15T12:28:00Z</time>
      </trkpt>
      <trkpt lat="45.71111" lon="4.75163">
        <ele>291.4</ele>
        <time>2025-12-15T12:28:01Z</time>
      </trkpt>
      <trkpt lat="45.71108" lon="4.75153">
        <ele>292</ele>
        <time>2025-12-15T12:28:02Z</time>
      </trkpt>
      <trkpt lat="45.71106" lon="4.75144">
        <ele>293.2</ele>
        <time>2025-12-15T12:28:03Z</time>
      </trkpt>
      <trkpt lat="45.71105" lon="4.75135">
        <ele>294.4</ele>
        <time>2025-12-15T12:28:04Z</time>
      </trkpt>
      <trkpt lat="45.71104" lon="4.75127">
        <ele>296</ele>
        <time>2025-12-15T12:28:05Z</time>
      </trkpt>
      <trkpt lat="45.71104" lon="4.75119">
        <ele>297.4</ele>
        <time>2025-12-15T12:28:06Z</time>
      </trkpt>
      <trkpt lat="45.71104" lon="4.75111">
        <ele>298.8</ele>
        <time>2025-12-15T12:28:07Z</time>
      </trkpt>
      <trkpt lat="45.71106" lon="4.75104">
        <ele>300.2</ele>
        <time>2025-12-15T12:28:08Z</time>
      </trkpt>
      <trkpt lat="45.71107" lon="4.75097">
        <ele>301.2</ele>
        <time>2025-12-15T12:28:09Z</time>
      </trkpt>
      <trkpt lat="45.71109" lon="4.75091">
        <ele>302.2</ele>
        <time>2025-12-15T12:28:10Z</time>
      </trkpt>
      <trkpt lat="45.71111" lon="4.75085">
        <ele>303.2</ele>
        <time>2025-12-15T12:28:11Z</time>
      </trkpt>
      <trkpt lat="45.71112" lon="4.75079">
        <ele>304</ele>
        <time>2025-12-15T12:28:12Z</time>
      </trkpt>
      <trkpt lat="45.71115" lon="4.75074">
        <ele>304.8</ele>
        <time>2025-12-15T12:28:13Z</time>
      </trkpt>
      <trkpt lat="45.71117" lon="4.75069">
        <ele>305.6</ele>
        <time>2025-12-15T12:28:14Z</time>
      </trkpt>
      <trkpt lat="45.71119" lon="4.75064">
        <ele>306.2</ele>
        <time>2025-12-15T12:28:15Z</time>
      </trkpt>
      <trkpt lat="45.71121" lon="4.75059">
        <ele>306.6</ele>
        <time>2025-12-15T12:28:16Z</time>
      </trkpt>
      <trkpt lat="45.71123" lon="4.75054">
        <ele>307</ele>
        <time>2025-12-15T12:28:17Z</time>
      </trkpt>
      <trkpt lat="45.71125" lon="4.75048">
        <ele>307.4</ele>
        <time>2025-12-15T12:28:18Z</time>
      </trkpt>
      <trkpt lat="45.71127" lon="4.75043">
        <ele>307.6</ele>
        <time>2025-12-15T12:28:19Z</time>
      </trkpt>
      <trkpt lat="45.71129" lon="4.75037">
        <ele>307.8</ele>
        <time>2025-12-15T12:28:20Z</time>
      </trkpt>
      <trkpt lat="45.7113" lon="4.75031">
        <ele>308</ele>
        <time>2025-12-15T12:28:21Z</time>
      </trkpt>
      <trkpt lat="45.71132" lon="4.75024">
        <ele>308.4</ele>
        <time>2025-12-15T12:28:22Z</time>
      </trkpt>
      <trkpt lat="45.71133" lon="4.75018">
        <ele>308.6</ele>
        <time>2025-12-15T12:28:23Z</time>
      </trkpt>
      <trkpt lat="45.71134" lon="4.75012">
        <ele>309</ele>
        <time>2025-12-15T12:28:24Z</time>
      </trkpt>
      <trkpt lat="45.71136" lon="4.75006">
        <ele>309.2</ele>
        <time>2025-12-15T12:28:25Z</time>
      </trkpt>
      <trkpt lat="45.71136" lon="4.75">
        <ele>309.6</ele>
        <time>2025-12-15T12:28:26Z</time>
      </trkpt>
      <trkpt lat="45.71137" lon="4.74993">
        <ele>310</ele>
        <time>2025-12-15T12:28:27Z</time>
      </trkpt>
      <trkpt lat="45.71138" lon="4.74987">
        <ele>310.2</ele>
        <time>2025-12-15T12:28:28Z</time>
      </trkpt>
      <trkpt lat="45.71139" lon="4.7498">
        <ele>310.4</ele>
        <time>2025-12-15T12:28:29Z</time>
      </trkpt>
      <trkpt lat="45.71141" lon="4.74975">
        <ele>310.6</ele>
        <time>2025-12-15T12:28:30Z</time>
      </trkpt>
      <trkpt lat="45.71145" lon="4.74971">
        <ele>311</ele>
        <time>2025-12-15T12:28:31Z</time>
      </trkpt>
      <trkpt lat="45.71149" lon="4.74968">
        <ele>311.2</ele>
        <time>2025-12-15T12:28:32Z</time>
      </trkpt>
      <trkpt lat="45.71153" lon="4.74965">
        <ele>311.4</ele>
        <time>2025-12-15T12:28:33Z</time>
      </trkpt>
      <trkpt lat="45.71157" lon="4.74963">
        <ele>311.8</ele>
        <time>2025-12-15T12:28:34Z</time>
      </trkpt>
      <trkpt lat="45.71162" lon="4.74962">
        <ele>312</ele>
        <time>2025-12-15T12:28:35Z</time>
      </trkpt>
      <trkpt lat="45.71166" lon="4.74959">
        <ele>312.2</ele>
        <time>2025-12-15T12:28:36Z</time>
      </trkpt>
      <trkpt lat="45.71171" lon="4.74957">
        <ele>312.4</ele>
        <time>2025-12-15T12:28:37Z</time>
      </trkpt>
      <trkpt lat="45.71176" lon="4.74955">
        <ele>312.6</ele>
        <time>2025-12-15T12:28:38Z</time>
      </trkpt>
      <trkpt lat="45.7118" lon="4.74953">
        <ele>312.8</ele>
        <time>2025-12-15T12:28:39Z</time>
      </trkpt>
      <trkpt lat="45.71184" lon="4.74951">
        <ele>313</ele>
        <time>2025-12-15T12:28:40Z</time>
      </trkpt>
      <trkpt lat="45.71189" lon="4.74949">
        <ele>313.2</ele>
        <time>2025-12-15T12:28:41Z</time>
      </trkpt>
      <trkpt lat="45.71193" lon="4.74946">
        <ele>313.4</ele>
        <time>2025-12-15T12:28:42Z</time>
      </trkpt>
      <trkpt lat="45.71197" lon="4.74944">
        <ele>313.8</ele>
        <time>2025-12-15T12:28:43Z</time>
      </trkpt>
      <trkpt lat="45.71201" lon="4.74941">
        <ele>314</ele>
        <time>2025-12-15T12:28:44Z</time>
      </trkpt>
      <trkpt lat="45.71205" lon="4.74938">
        <ele>314.2</ele>
        <time>2025-12-15T12:28:45Z</time>
      </trkpt>
      <trkpt lat="45.71208" lon="4.74935">
        <ele>314.6</ele>
        <time>2025-12-15T12:28:46Z</time>
      </trkpt>
      <trkpt lat="45.71211" lon="4.74932">
        <ele>314.8</ele>
        <time>2025-12-15T12:28:47Z</time>
      </trkpt>
      <trkpt lat="45.71215" lon="4.74929">
        <ele>315.2</ele>
        <time>2025-12-15T12:28:48Z</time>
      </trkpt>
      <trkpt lat="45.71218" lon="4.74928">
        <ele>315.4</ele>
        <time>2025-12-15T12:28:49Z</time>
      </trkpt>
      <trkpt lat="45.71222" lon="4.74925">
        <ele>315.6</ele>
        <time>2025-12-15T12:28:50Z</time>
      </trkpt>
      <trkpt lat="45.71225" lon="4.74921">
        <ele>315.8</ele>
        <time>2025-12-15T12:28:51Z</time>
      </trkpt>
      <trkpt lat="45.71227" lon="4.74915">
        <ele>315.8</ele>
        <time>2025-12-15T12:28:52Z</time>
      </trkpt>
      <trkpt lat="45.71229" lon="4.74908">
        <ele>315.6</ele>
        <time>2025-12-15T12:28:53Z</time>
      </trkpt>
      <trkpt lat="45.71231" lon="4.74901">
        <ele>315.4</ele>
        <time>2025-12-15T12:28:54Z</time>
      </trkpt>
      <trkpt lat="45.71233" lon="4.74892">
        <ele>315</ele>
        <time>2025-12-15T12:28:55Z</time>
      </trkpt>
      <trkpt lat="45.71234" lon="4.74884">
        <ele>314.8</ele>
        <time>2025-12-15T12:28:56Z</time>
      </trkpt>
      <trkpt lat="45.71235" lon="4.74875">
        <ele>314.6</ele>
        <time>2025-12-15T12:28:57Z</time>
      </trkpt>
      <trkpt lat="45.71235" lon="4.74866">
        <ele>314.4</ele>
        <time>2025-12-15T12:28:58Z</time>
      </trkpt>
      <trkpt lat="45.71236" lon="4.74856">
        <ele>314.6</ele>
        <time>2025-12-15T12:28:59Z</time>
      </trkpt>
      <trkpt lat="45.71235" lon="4.74847">
        <ele>314.8</ele>
        <time>2025-12-15T12:29:00Z</time>
      </trkpt>
      <trkpt lat="45.71234" lon="4.74839">
        <ele>315</ele>
        <time>2025-12-15T12:29:01Z</time>
      </trkpt>
      <trkpt lat="45.71232" lon="4.74831">
        <ele>315.2</ele>
        <time>2025-12-15T12:29:02Z</time>
      </trkpt>
      <trkpt lat="45.71229" lon="4.74823">
        <ele>315</ele>
        <time>2025-12-15T12:29:03Z</time>
      </trkpt>
      <trkpt lat="45.71227" lon="4.74815">
        <ele>314.8</ele>
        <time>2025-12-15T12:29:04Z</time>
      </trkpt>
      <trkpt lat="45.71225" lon="4.74807">
        <ele>314.6</ele>
        <time>2025-12-15T12:29:05Z</time>
      </trkpt>
      <trkpt lat="45.71223" lon="4.74799">
        <ele>314</ele>
        <time>2025-12-15T12:29:06Z</time>
      </trkpt>
      <trkpt lat="45.71221" lon="4.74791">
        <ele>313.8</ele>
        <time>2025-12-15T12:29:07Z</time>
      </trkpt>
      <trkpt lat="45.71219" lon="4.74783">
        <ele>313.4</ele>
        <time>2025-12-15T12:29:08Z</time>
      </trkpt>
      <trkpt lat="45.71216" lon="4.74775">
        <ele>313.2</ele>
        <time>2025-12-15T12:29:09Z</time>
      </trkpt>
      <trkpt lat="45.71214" lon="4.74768">
        <ele>313.2</ele>
        <time>2025-12-15T12:29:10Z</time>
      </trkpt>
      <trkpt lat="45.71211" lon="4.7476">
        <ele>313.2</ele>
        <time>2025-12-15T12:29:11Z</time>
      </trkpt>
      <trkpt lat="45.71209" lon="4.74753">
        <ele>313.4</ele>
        <time>2025-12-15T12:29:12Z</time>
      </trkpt>
      <trkpt lat="45.71207" lon="4.74746">
        <ele>313.8</ele>
        <time>2025-12-15T12:29:13Z</time>
      </trkpt>
      <trkpt lat="45.71205" lon="4.74739">
        <ele>314.2</ele>
        <time>2025-12-15T12:29:14Z</time>
      </trkpt>
      <trkpt lat="45.71204" lon="4.74731">
        <ele>314.4</ele>
        <time>2025-12-15T12:29:15Z</time>
      </trkpt>
      <trkpt lat="45.71203" lon="4.74724">
        <ele>314.8</ele>
        <time>2025-12-15T12:29:16Z</time>
      </trkpt>
      <trkpt lat="45.71202" lon="4.74717">
        <ele>315</ele>
        <time>2025-12-15T12:29:17Z</time>
      </trkpt>
      <trkpt lat="45.71202" lon="4.74709">
        <ele>315.4</ele>
        <time>2025-12-15T12:29:18Z</time>
      </trkpt>
      <trkpt lat="45.71201" lon="4.74703">
        <ele>315.6</ele>
        <time>2025-12-15T12:29:19Z</time>
      </trkpt>
      <trkpt lat="45.71201" lon="4.74695">
        <ele>315.6</ele>
        <time>2025-12-15T12:29:20Z</time>
      </trkpt>
      <trkpt lat="45.71202" lon="4.74688">
        <ele>315.8</ele>
        <time>2025-12-15T12:29:21Z</time>
      </trkpt>
      <trkpt lat="45.71202" lon="4.74681">
        <ele>315.8</ele>
        <time>2025-12-15T12:29:22Z</time>
      </trkpt>
      <trkpt lat="45.71203" lon="4.74675">
        <ele>315.8</ele>
        <time>2025-12-15T12:29:23Z</time>
      </trkpt>
      <trkpt lat="45.71203" lon="4.74668">
        <ele>315.8</ele>
        <time>2025-12-15T12:29:24Z</time>
      </trkpt>
      <trkpt lat="45.71204" lon="4.74661">
        <ele>315.8</ele>
        <time>2025-12-15T12:29:25Z</time>
      </trkpt>
      <trkpt lat="45.71205" lon="4.74654">
        <ele>315.8</ele>
        <time>2025-12-15T12:29:26Z</time>
      </trkpt>
      <trkpt lat="45.71205" lon="4.74647">
        <ele>315.8</ele>
        <time>2025-12-15T12:29:27Z</time>
      </trkpt>
      <trkpt lat="45.71206" lon="4.7464">
        <ele>315.8</ele>
        <time>2025-12-15T12:29:28Z</time>
      </trkpt>
      <trkpt lat="45.71207" lon="4.74632">
        <ele>316</ele>
        <time>2025-12-15T12:29:29Z</time>
      </trkpt>
      <trkpt lat="45.71207" lon="4.74625">
        <ele>316</ele>
        <time>2025-12-15T12:29:30Z</time>
      </trkpt>
      <trkpt lat="45.71208" lon="4.74618">
        <ele>316</ele>
        <time>2025-12-15T12:29:31Z</time>
      </trkpt>
      <trkpt lat="45.71208" lon="4.74611">
        <ele>316</ele>
        <time>2025-12-15T12:29:32Z</time>
      </trkpt>
      <trkpt lat="45.71209" lon="4.74603">
        <ele>316</ele>
        <time>2025-12-15T12:29:33Z</time>
      </trkpt>
      <trkpt lat="45.7121" lon="4.74596">
        <ele>316</ele>
        <time>2025-12-15T12:29:34Z</time>
      </trkpt>
      <trkpt lat="45.7121" lon="4.7459">
        <ele>316</ele>
        <time>2025-12-15T12:29:35Z</time>
      </trkpt>
      <trkpt lat="45.71211" lon="4.74583">
        <ele>316</ele>
        <time>2025-12-15T12:29:36Z</time>
      </trkpt>
      <trkpt lat="45.71212" lon="4.74578">
        <ele>316.2</ele>
        <time>2025-12-15T12:29:37Z</time>
      </trkpt>
      <trkpt lat="45.71213" lon="4.74574">
        <ele>316.4</ele>
        <time>2025-12-15T12:29:38Z</time>
      </trkpt>
      <trkpt lat="45.71215" lon="4.7457">
        <ele>316.6</ele>
        <time>2025-12-15T12:29:39Z</time>
      </trkpt>
      <trkpt lat="45.71218" lon="4.74566">
        <ele>316.8</ele>
        <time>2025-12-15T12:29:40Z</time>
      </trkpt>
      <trkpt lat="45.71221" lon="4.74562">
        <ele>316.8</ele>
        <time>2025-12-15T12:29:41Z</time>
      </trkpt>
      <trkpt lat="45.71223" lon="4.74558">
        <ele>317</ele>
        <time>2025-12-15T12:29:42Z</time>
      </trkpt>
      <trkpt lat="45.71224" lon="4.74552">
        <ele>317</ele>
        <time>2025-12-15T12:29:43Z</time>
      </trkpt>
      <trkpt lat="45.71225" lon="4.74546">
        <ele>317.2</ele>
        <time>2025-12-15T12:29:44Z</time>
      </trkpt>
      <trkpt lat="45.71225" lon="4.74539">
        <ele>317.4</ele>
        <time>2025-12-15T12:29:45Z</time>
      </trkpt>
      <trkpt lat="45.71225" lon="4.74531">
        <ele>317.4</ele>
        <time>2025-12-15T12:29:46Z</time>
      </trkpt>
      <trkpt lat="45.71225" lon="4.74522">
        <ele>317.2</ele>
        <time>2025-12-15T12:29:47Z</time>
      </trkpt>
      <trkpt lat="45.71225" lon="4.74514">
        <ele>317</ele>
        <time>2025-12-15T12:29:48Z</time>
      </trkpt>
      <trkpt lat="45.71225" lon="4.74506">
        <ele>316.8</ele>
        <time>2025-12-15T12:29:49Z</time>
      </trkpt>
      <trkpt lat="45.71225" lon="4.74497">
        <ele>316.6</ele>
        <time>2025-12-15T12:29:50Z</time>
      </trkpt>
      <trkpt lat="45.71225" lon="4.74489">
        <ele>316.6</ele>
        <time>2025-12-15T12:29:51Z</time>
      </trkpt>
      <trkpt lat="45.71225" lon="4.74481">
        <ele>316.6</ele>
        <time>2025-12-15T12:29:52Z</time>
      </trkpt>
      <trkpt lat="45.71224" lon="4.74472">
        <ele>316.8</ele>
        <time>2025-12-15T12:29:53Z</time>
      </trkpt>
      <trkpt lat="45.71225" lon="4.74463">
        <ele>316.8</ele>
        <time>2025-12-15T12:29:54Z</time>
      </trkpt>
      <trkpt lat="45.71224" lon="4.74454">
        <ele>317</ele>
        <time>2025-12-15T12:29:55Z</time>
      </trkpt>
      <trkpt lat="45.71223" lon="4.74445">
        <ele>317</ele>
        <time>2025-12-15T12:29:56Z</time>
      </trkpt>
      <trkpt lat="45.71223" lon="4.74436">
        <ele>316.8</ele>
        <time>2025-12-15T12:29:57Z</time>
      </trkpt>
      <trkpt lat="45.71224" lon="4.74426">
        <ele>316.8</ele>
        <time>2025-12-15T12:29:58Z</time>
      </trkpt>
      <trkpt lat="45.71225" lon="4.74417">
        <ele>316.6</ele>
        <time>2025-12-15T12:29:59Z</time>
      </trkpt>
      <trkpt lat="45.71225" lon="4.74407">
        <ele>316.4</ele>
        <time>2025-12-15T12:30:00Z</time>
      </trkpt>
      <trkpt lat="45.71225" lon="4.74397">
        <ele>316</ele>
        <time>2025-12-15T12:30:01Z</time>
      </trkpt>
      <trkpt lat="45.71224" lon="4.74387">
        <ele>315.8</ele>
        <time>2025-12-15T12:30:02Z</time>
      </trkpt>
      <trkpt lat="45.71223" lon="4.74376">
        <ele>315.6</ele>
        <time>2025-12-15T12:30:03Z</time>
      </trkpt>
      <trkpt lat="45.71221" lon="4.74366">
        <ele>315.4</ele>
        <time>2025-12-15T12:30:04Z</time>
      </trkpt>
      <trkpt lat="45.71218" lon="4.74355">
        <ele>315.2</ele>
        <time>2025-12-15T12:30:05Z</time>
      </trkpt>
      <trkpt lat="45.71216" lon="4.74345">
        <ele>315</ele>
        <time>2025-12-15T12:30:06Z</time>
      </trkpt>
      <trkpt lat="45.71214" lon="4.74334">
        <ele>314.8</ele>
        <time>2025-12-15T12:30:07Z</time>
      </trkpt>
      <trkpt lat="45.71211" lon="4.74324">
        <ele>314.6</ele>
        <time>2025-12-15T12:30:08Z</time>
      </trkpt>
      <trkpt lat="45.71209" lon="4.74313">
        <ele>314.4</ele>
        <time>2025-12-15T12:30:09Z</time>
      </trkpt>
      <trkpt lat="45.71207" lon="4.74303">
        <ele>314</ele>
        <time>2025-12-15T12:30:10Z</time>
      </trkpt>
      <trkpt lat="45.71204" lon="4.74293">
        <ele>313.8</ele>
        <time>2025-12-15T12:30:11Z</time>
      </trkpt>
      <trkpt lat="45.71201" lon="4.74283">
        <ele>313.4</ele>
        <time>2025-12-15T12:30:12Z</time>
      </trkpt>
      <trkpt lat="45.71199" lon="4.74274">
        <ele>313.2</ele>
        <time>2025-12-15T12:30:13Z</time>
      </trkpt>
      <trkpt lat="45.71196" lon="4.74264">
        <ele>313</ele>
        <time>2025-12-15T12:30:14Z</time>
      </trkpt>
      <trkpt lat="45.71194" lon="4.74255">
        <ele>312.8</ele>
        <time>2025-12-15T12:30:15Z</time>
      </trkpt>
      <trkpt lat="45.71192" lon="4.74245">
        <ele>312.8</ele>
        <time>2025-12-15T12:30:16Z</time>
      </trkpt>
      <trkpt lat="45.7119" lon="4.74237">
        <ele>312.8</ele>
        <time>2025-12-15T12:30:17Z</time>
      </trkpt>
      <trkpt lat="45.71188" lon="4.74228">
        <ele>313</ele>
        <time>2025-12-15T12:30:18Z</time>
      </trkpt>
      <trkpt lat="45.71186" lon="4.74219">
        <ele>313.4</ele>
        <time>2025-12-15T12:30:19Z</time>
      </trkpt>
      <trkpt lat="45.71184" lon="4.74211">
        <ele>313.8</ele>
        <time>2025-12-15T12:30:20Z</time>
      </trkpt>
      <trkpt lat="45.71183" lon="4.74203">
        <ele>313.8</ele>
        <time>2025-12-15T12:30:21Z</time>
      </trkpt>
      <trkpt lat="45.71181" lon="4.74195">
        <ele>314</ele>
        <time>2025-12-15T12:30:22Z</time>
      </trkpt>
      <trkpt lat="45.7118" lon="4.74187">
        <ele>314</ele>
        <time>2025-12-15T12:30:23Z</time>
      </trkpt>
      <trkpt lat="45.71179" lon="4.74178">
        <ele>314</ele>
        <time>2025-12-15T12:30:24Z</time>
      </trkpt>
      <trkpt lat="45.71178" lon="4.7417">
        <ele>314</ele>
        <time>2025-12-15T12:30:25Z</time>
      </trkpt>
      <trkpt lat="45.71176" lon="4.74162">
        <ele>314</ele>
        <time>2025-12-15T12:30:26Z</time>
      </trkpt>
      <trkpt lat="45.71174" lon="4.74154">
        <ele>314</ele>
        <time>2025-12-15T12:30:27Z</time>
      </trkpt>
      <trkpt lat="45.71172" lon="4.74146">
        <ele>314</ele>
        <time>2025-12-15T12:30:28Z</time>
      </trkpt>
      <trkpt lat="45.7117" lon="4.74137">
        <ele>314.2</ele>
        <time>2025-12-15T12:30:29Z</time>
      </trkpt>
      <trkpt lat="45.71169" lon="4.74129">
        <ele>314.4</ele>
        <time>2025-12-15T12:30:30Z</time>
      </trkpt>
      <trkpt lat="45.71168" lon="4.74121">
        <ele>314.6</ele>
        <time>2025-12-15T12:30:31Z</time>
      </trkpt>
      <trkpt lat="45.71166" lon="4.74113">
        <ele>314.6</ele>
        <time>2025-12-15T12:30:32Z</time>
      </trkpt>
      <trkpt lat="45.71165" lon="4.74107">
        <ele>314.8</ele>
        <time>2025-12-15T12:30:33Z</time>
      </trkpt>
      <trkpt lat="45.71164" lon="4.74097">
        <ele>315</ele>
        <time>2025-12-15T12:30:34Z</time>
      </trkpt>
      <trkpt lat="45.71163" lon="4.74089">
        <ele>315.2</ele>
        <time>2025-12-15T12:30:35Z</time>
      </trkpt>
      <trkpt lat="45.71162" lon="4.74082">
        <ele>315.4</ele>
        <time>2025-12-15T12:30:36Z</time>
      </trkpt>
      <trkpt lat="45.71161" lon="4.74074">
        <ele>315.6</ele>
        <time>2025-12-15T12:30:37Z</time>
      </trkpt>
      <trkpt lat="45.71162" lon="4.74066">
        <ele>315.8</ele>
        <time>2025-12-15T12:30:38Z</time>
      </trkpt>
      <trkpt lat="45.71162" lon="4.74059">
        <ele>316</ele>
        <time>2025-12-15T12:30:39Z</time>
      </trkpt>
      <trkpt lat="45.71163" lon="4.74051">
        <ele>316.2</ele>
        <time>2025-12-15T12:30:40Z</time>
      </trkpt>
      <trkpt lat="45.71164" lon="4.74043">
        <ele>316.4</ele>
        <time>2025-12-15T12:30:41Z</time>
      </trkpt>
      <trkpt lat="45.71165" lon="4.74035">
        <ele>316.8</ele>
        <time>2025-12-15T12:30:42Z</time>
      </trkpt>
      <trkpt lat="45.71167" lon="4.74027">
        <ele>317.2</ele>
        <time>2025-12-15T12:30:43Z</time>
      </trkpt>
      <trkpt lat="45.71168" lon="4.74019">
        <ele>317.4</ele>
        <time>2025-12-15T12:30:44Z</time>
      </trkpt>
      <trkpt lat="45.71169" lon="4.7401">
        <ele>317.6</ele>
        <time>2025-12-15T12:30:45Z</time>
      </trkpt>
      <trkpt lat="45.7117" lon="4.74002">
        <ele>317.6</ele>
        <time>2025-12-15T12:30:46Z</time>
      </trkpt>
      <trkpt lat="45.71171" lon="4.73994">
        <ele>317.6</ele>
        <time>2025-12-15T12:30:47Z</time>
      </trkpt>
      <trkpt lat="45.71171" lon="4.73986">
        <ele>317.6</ele>
        <time>2025-12-15T12:30:48Z</time>
      </trkpt>
      <trkpt lat="45.71172" lon="4.73979">
        <ele>317.4</ele>
        <time>2025-12-15T12:30:49Z</time>
      </trkpt>
      <trkpt lat="45.71173" lon="4.73973">
        <ele>317.4</ele>
        <time>2025-12-15T12:30:50Z</time>
      </trkpt>
      <trkpt lat="45.71174" lon="4.73968">
        <ele>317.6</ele>
        <time>2025-12-15T12:30:51Z</time>
      </trkpt>
      <trkpt lat="45.71174" lon="4.73963">
        <ele>317.6</ele>
        <time>2025-12-15T12:30:52Z</time>
      </trkpt>
      <trkpt lat="45.71172" lon="4.73958">
        <ele>317.6</ele>
        <time>2025-12-15T12:30:53Z</time>
      </trkpt>
      <trkpt lat="45.71168" lon="4.73954">
        <ele>317.6</ele>
        <time>2025-12-15T12:30:54Z</time>
      </trkpt>
      <trkpt lat="45.71164" lon="4.7395">
        <ele>317.4</ele>
        <time>2025-12-15T12:30:55Z</time>
      </trkpt>
      <trkpt lat="45.71159" lon="4.73945">
        <ele>317.2</ele>
        <time>2025-12-15T12:30:56Z</time>
      </trkpt>
      <trkpt lat="45.71154" lon="4.73941">
        <ele>316.8</ele>
        <time>2025-12-15T12:30:57Z</time>
      </trkpt>
      <trkpt lat="45.71149" lon="4.73937">
        <ele>316.2</ele>
        <time>2025-12-15T12:30:58Z</time>
      </trkpt>
      <trkpt lat="45.71144" lon="4.73933">
        <ele>315.8</ele>
        <time>2025-12-15T12:30:59Z</time>
      </trkpt>
      <trkpt lat="45.71138" lon="4.73928">
        <ele>315.4</ele>
        <time>2025-12-15T12:31:00Z</time>
      </trkpt>
      <trkpt lat="45.71133" lon="4.73924">
        <ele>315</ele>
        <time>2025-12-15T12:31:01Z</time>
      </trkpt>
      <trkpt lat="45.71128" lon="4.7392">
        <ele>314.6</ele>
        <time>2025-12-15T12:31:02Z</time>
      </trkpt>
      <trkpt lat="45.71123" lon="4.73915">
        <ele>314.4</ele>
        <time>2025-12-15T12:31:03Z</time>
      </trkpt>
      <trkpt lat="45.71118" lon="4.73911">
        <ele>314.2</ele>
        <time>2025-12-15T12:31:04Z</time>
      </trkpt>
      <trkpt lat="45.71113" lon="4.73907">
        <ele>314</ele>
        <time>2025-12-15T12:31:05Z</time>
      </trkpt>
      <trkpt lat="45.71108" lon="4.73904">
        <ele>314</ele>
        <time>2025-12-15T12:31:06Z</time>
      </trkpt>
      <trkpt lat="45.71104" lon="4.73903">
        <ele>314.2</ele>
        <time>2025-12-15T12:31:07Z</time>
      </trkpt>
      <trkpt lat="45.71101" lon="4.73901">
        <ele>314.4</ele>
        <time>2025-12-15T12:31:08Z</time>
      </trkpt>
      <trkpt lat="45.71097" lon="4.739">
        <ele>314.8</ele>
        <time>2025-12-15T12:31:09Z</time>
      </trkpt>
      <trkpt lat="45.71094" lon="4.73897">
        <ele>315.2</ele>
        <time>2025-12-15T12:31:10Z</time>
      </trkpt>
      <trkpt lat="45.71091" lon="4.73893">
        <ele>315.8</ele>
        <time>2025-12-15T12:31:11Z</time>
      </trkpt>
      <trkpt lat="45.71088" lon="4.73888">
        <ele>316</ele>
        <time>2025-12-15T12:31:12Z</time>
      </trkpt>
      <trkpt lat="45.71086" lon="4.73881">
        <ele>316.2</ele>
        <time>2025-12-15T12:31:13Z</time>
      </trkpt>
      <trkpt lat="45.71084" lon="4.73875">
        <ele>316.2</ele>
        <time>2025-12-15T12:31:14Z</time>
      </trkpt>
      <trkpt lat="45.7108" lon="4.7387">
        <ele>316.2</ele>
        <time>2025-12-15T12:31:15Z</time>
      </trkpt>
      <trkpt lat="45.71076" lon="4.73867">
        <ele>316.2</ele>
        <time>2025-12-15T12:31:16Z</time>
      </trkpt>
      <trkpt lat="45.71071" lon="4.73864">
        <ele>316</ele>
        <time>2025-12-15T12:31:17Z</time>
      </trkpt>
      <trkpt lat="45.71065" lon="4.73861">
        <ele>315.8</ele>
        <time>2025-12-15T12:31:18Z</time>
      </trkpt>
      <trkpt lat="45.71059" lon="4.73858">
        <ele>315.4</ele>
        <time>2025-12-15T12:31:19Z</time>
      </trkpt>
      <trkpt lat="45.71054" lon="4.73853">
        <ele>314.8</ele>
        <time>2025-12-15T12:31:20Z</time>
      </trkpt>
      <trkpt lat="45.71049" lon="4.73848">
        <ele>314.2</ele>
        <time>2025-12-15T12:31:21Z</time>
      </trkpt>
      <trkpt lat="45.71044" lon="4.73843">
        <ele>314</ele>
        <time>2025-12-15T12:31:22Z</time>
      </trkpt>
      <trkpt lat="45.71039" lon="4.73837">
        <ele>313.8</ele>
        <time>2025-12-15T12:31:23Z</time>
      </trkpt>
      <trkpt lat="45.71034" lon="4.73831">
        <ele>313.6</ele>
        <time>2025-12-15T12:31:24Z</time>
      </trkpt>
      <trkpt lat="45.71029" lon="4.73825">
        <ele>313.6</ele>
        <time>2025-12-15T12:31:25Z</time>
      </trkpt>
      <trkpt lat="45.71024" lon="4.73819">
        <ele>313.6</ele>
        <time>2025-12-15T12:31:26Z</time>
      </trkpt>
      <trkpt lat="45.71019" lon="4.73814">
        <ele>313.6</ele>
        <time>2025-12-15T12:31:27Z</time>
      </trkpt>
      <trkpt lat="45.71014" lon="4.73808">
        <ele>313.6</ele>
        <time>2025-12-15T12:31:28Z</time>
      </trkpt>
      <trkpt lat="45.71008" lon="4.73803">
        <ele>313.8</ele>
        <time>2025-12-15T12:31:29Z</time>
      </trkpt>
      <trkpt lat="45.71003" lon="4.73797">
        <ele>314</ele>
        <time>2025-12-15T12:31:30Z</time>
      </trkpt>
      <trkpt lat="45.70998" lon="4.73791">
        <ele>314</ele>
        <time>2025-12-15T12:31:31Z</time>
      </trkpt>
      <trkpt lat="45.70992" lon="4.73785">
        <ele>314</ele>
        <time>2025-12-15T12:31:32Z</time>
      </trkpt>
      <trkpt lat="45.70987" lon="4.73779">
        <ele>314.2</ele>
        <time>2025-12-15T12:31:33Z</time>
      </trkpt>
      <trkpt lat="45.70981" lon="4.73773">
        <ele>314.2</ele>
        <time>2025-12-15T12:31:34Z</time>
      </trkpt>
      <trkpt lat="45.70976" lon="4.73767">
        <ele>314.2</ele>
        <time>2025-12-15T12:31:35Z</time>
      </trkpt>
      <trkpt lat="45.7097" lon="4.7376">
        <ele>314</ele>
        <time>2025-12-15T12:31:36Z</time>
      </trkpt>
      <trkpt lat="45.70965" lon="4.73753">
        <ele>313.8</ele>
        <time>2025-12-15T12:31:37Z</time>
      </trkpt>
      <trkpt lat="45.7096" lon="4.73745">
        <ele>313.6</ele>
        <time>2025-12-15T12:31:38Z</time>
      </trkpt>
      <trkpt lat="45.70955" lon="4.73738">
        <ele>313.2</ele>
        <time>2025-12-15T12:31:39Z</time>
      </trkpt>
      <trkpt lat="45.70949" lon="4.73731">
        <ele>313</ele>
        <time>2025-12-15T12:31:40Z</time>
      </trkpt>
      <trkpt lat="45.70944" lon="4.73724">
        <ele>312.6</ele>
        <time>2025-12-15T12:31:41Z</time>
      </trkpt>
      <trkpt lat="45.70938" lon="4.73718">
        <ele>312.6</ele>
        <time>2025-12-15T12:31:42Z</time>
      </trkpt>
      <trkpt lat="45.70932" lon="4.73711">
        <ele>312.4</ele>
        <time>2025-12-15T12:31:43Z</time>
      </trkpt>
      <trkpt lat="45.70927" lon="4.73704">
        <ele>312.4</ele>
        <time>2025-12-15T12:31:44Z</time>
      </trkpt>
      <trkpt lat="45.70921" lon="4.73698">
        <ele>312.2</ele>
        <time>2025-12-15T12:31:45Z</time>
      </trkpt>
      <trkpt lat="45.70916" lon="4.73692">
        <ele>312</ele>
        <time>2025-12-15T12:31:46Z</time>
      </trkpt>
      <trkpt lat="45.70912" lon="4.73687">
        <ele>311.8</ele>
        <time>2025-12-15T12:31:47Z</time>
      </trkpt>
      <trkpt lat="45.70908" lon="4.73681">
        <ele>311.8</ele>
        <time>2025-12-15T12:31:48Z</time>
      </trkpt>
      <trkpt lat="45.70906" lon="4.73677">
        <ele>311.6</ele>
        <time>2025-12-15T12:31:49Z</time>
      </trkpt>
      <trkpt lat="45.70903" lon="4.73675">
        <ele>311.8</ele>
        <time>2025-12-15T12:31:50Z</time>
      </trkpt>
      <trkpt lat="45.70903" lon="4.73675">
        <ele>312</ele>
        <time>2025-12-15T12:31:51Z</time>
      </trkpt>
      <trkpt lat="45.70903" lon="4.73675">
        <ele>312.2</ele>
        <time>2025-12-15T12:31:52Z</time>
      </trkpt>
      <trkpt lat="45.70903" lon="4.73675">
        <ele>312.4</ele>
        <time>2025-12-15T12:31:53Z</time>
      </trkpt>
      <trkpt lat="45.70903" lon="4.73675">
        <ele>312.8</ele>
        <time>2025-12-15T12:31:54Z</time>
      </trkpt>
      <trkpt lat="45.70903" lon="4.73675">
        <ele>313</ele>
        <time>2025-12-15T12:31:55Z</time>
      </trkpt>
      <trkpt lat="45.70903" lon="4.73675">
        <ele>313</ele>
        <time>2025-12-15T12:31:56Z</time>
      </trkpt>
      <trkpt lat="45.70903" lon="4.73675">
        <ele>313</ele>
        <time>2025-12-15T12:31:57Z</time>
      </trkpt>
      <trkpt lat="45.70903" lon="4.73675">
        <ele>313</ele>
        <time>2025-12-15T12:31:58Z</time>
      </trkpt>
      <trkpt lat="45.70903" lon="4.73675">
        <ele>313</ele>
        <time>2025-12-15T12:31:59Z</time>
      </trkpt>
      <trkpt lat="45.70903" lon="4.73675">
        <ele>313</ele>
        <time>2025-12-15T12:32:00Z</time>
      </trkpt>
      <trkpt lat="45.70903" lon="4.73675">
        <ele>313</ele>
        <time>2025-12-15T12:32:01Z</time>
      </trkpt>
      <trkpt lat="45.70903" lon="4.73675">
        <ele>313</ele>
        <time>2025-12-15T12:32:02Z</time>
      </trkpt>
      <trkpt lat="45.70903" lon="4.73675">
        <ele>313</ele>
        <time>2025-12-15T12:32:03Z</time>
      </trkpt>
      <trkpt lat="45.70903" lon="4.73675">
        <ele>313</ele>
        <time>2025-12-15T12:32:04Z</time>
      </trkpt>
      <trkpt lat="45.70903" lon="4.73675">
        <ele>312.8</ele>
        <time>2025-12-15T12:32:05Z</time>
      </trkpt>
      <trkpt lat="45.70903" lon="4.73675">
        <ele>312.8</ele>
        <time>2025-12-15T12:32:06Z</time>
      </trkpt>
      <trkpt lat="45.70903" lon="4.73675">
        <ele>312.8</ele>
        <time>2025-12-15T12:32:07Z</time>
      </trkpt>
      <trkpt lat="45.70903" lon="4.73675">
        <ele>312.8</ele>
        <time>2025-12-15T12:32:08Z</time>
      </trkpt>
      <trkpt lat="45.70903" lon="4.73675">
        <ele>312.8</ele>
        <time>2025-12-15T12:32:09Z</time>
      </trkpt>
      <trkpt lat="45.70903" lon="4.73675">
        <ele>312.8</ele>
        <time>2025-12-15T12:32:10Z</time>
      </trkpt>
      <trkpt lat="45.70903" lon="4.73675">
        <ele>312.8</ele>
        <time>2025-12-15T12:32:11Z</time>
      </trkpt>
      <trkpt lat="45.70903" lon="4.73675">
        <ele>312.8</ele>
        <time>2025-12-15T12:32:12Z</time>
      </trkpt>
      <trkpt lat="45.70903" lon="4.73674">
        <ele>313</ele>
        <time>2025-12-15T12:32:13Z</time>
      </trkpt>
      <trkpt lat="45.70903" lon="4.73674">
        <ele>313</ele>
        <time>2025-12-15T12:32:14Z</time>
      </trkpt>
      <trkpt lat="45.70903" lon="4.73674">
        <ele>313</ele>
        <time>2025-12-15T12:32:15Z</time>
      </trkpt>
      <trkpt lat="45.70903" lon="4.73674">
        <ele>313</ele>
        <time>2025-12-15T12:32:16Z</time>
      </trkpt>
      <trkpt lat="45.70903" lon="4.73674">
        <ele>313</ele>
        <time>2025-12-15T12:32:17Z</time>
      </trkpt>
      <trkpt lat="45.70903" lon="4.73674">
        <ele>313</ele>
        <time>2025-12-15T12:32:18Z</time>
      </trkpt>
      <trkpt lat="45.70903" lon="4.73674">
        <ele>313.2</ele>
        <time>2025-12-15T12:32:19Z</time>
      </trkpt>
      <trkpt lat="45.70903" lon="4.73674">
        <ele>313.2</ele>
        <time>2025-12-15T12:32:20Z</time>
      </trkpt>
      <trkpt lat="45.70903" lon="4.73674">
        <ele>313.2</ele>
        <time>2025-12-15T12:32:21Z</time>
      </trkpt>
      <trkpt lat="45.70903" lon="4.73674">
        <ele>313.4</ele>
        <time>2025-12-15T12:32:22Z</time>
      </trkpt>
      <trkpt lat="45.70903" lon="4.73674">
        <ele>313.4</ele>
        <time>2025-12-15T12:32:23Z</time>
      </trkpt>
      <trkpt lat="45.70903" lon="4.73674">
        <ele>313.4</ele>
        <time>2025-12-15T12:32:24Z</time>
      </trkpt>
      <trkpt lat="45.70903" lon="4.73674">
        <ele>313.4</ele>
        <time>2025-12-15T12:32:25Z</time>
      </trkpt>
      <trkpt lat="45.70903" lon="4.73674">
        <ele>313.4</ele>
        <time>2025-12-15T12:32:26Z</time>
      </trkpt>
      <trkpt lat="45.70903" lon="4.73674">
        <ele>313.4</ele>
        <time>2025-12-15T12:32:27Z</time>
      </trkpt>
      <trkpt lat="45.70903" lon="4.73674">
        <ele>313.6</ele>
        <time>2025-12-15T12:32:28Z</time>
      </trkpt>
      <trkpt lat="45.70903" lon="4.73674">
        <ele>313.4</ele>
        <time>2025-12-15T12:32:29Z</time>
      </trkpt>
      <trkpt lat="45.70903" lon="4.73674">
        <ele>313.4</ele>
        <time>2025-12-15T12:32:30Z</time>
      </trkpt>
      <trkpt lat="45.70903" lon="4.73674">
        <ele>313.4</ele>
        <time>2025-12-15T12:32:31Z</time>
      </trkpt>
      <trkpt lat="45.70903" lon="4.73674">
        <ele>313.2</ele>
        <time>2025-12-15T12:32:32Z</time>
      </trkpt>
      <trkpt lat="45.70903" lon="4.73674">
        <ele>313.2</ele>
        <time>2025-12-15T12:32:33Z</time>
      </trkpt>
      <trkpt lat="45.70903" lon="4.73674">
        <ele>313.2</ele>
        <time>2025-12-15T12:32:34Z</time>
      </trkpt>
      <trkpt lat="45.70903" lon="4.73674">
        <ele>313</ele>
        <time>2025-12-15T12:32:35Z</time>
      </trkpt>
      <trkpt lat="45.70903" lon="4.73674">
        <ele>313</ele>
        <time>2025-12-15T12:32:36Z</time>
      </trkpt>
      <trkpt lat="45.70903" lon="4.73674">
        <ele>313</ele>
        <time>2025-12-15T12:32:37Z</time>
      </trkpt>
      <trkpt lat="45.70903" lon="4.73674">
        <ele>313</ele>
        <time>2025-12-15T12:32:38Z</time>
      </trkpt>
      <trkpt lat="45.70903" lon="4.73674">
        <ele>312.8</ele>
        <time>2025-12-15T12:32:39Z</time>
      </trkpt>
      <trkpt lat="45.70903" lon="4.73674">
        <ele>312.8</ele>
        <time>2025-12-15T12:32:40Z</time>
      </trkpt>
      <trkpt lat="45.70903" lon="4.73674">
        <ele>312.8</ele>
        <time>2025-12-15T12:32:41Z</time>
      </trkpt>
      <trkpt lat="45.70903" lon="4.73674">
        <ele>312.8</ele>
        <time>2025-12-15T12:32:42Z</time>
      </trkpt>
      <trkpt lat="45.70903" lon="4.73674">
        <ele>312.8</ele>
        <time>2025-12-15T12:32:43Z</time>
      </trkpt>
      <trkpt lat="45.70903" lon="4.73674">
        <ele>312.8</ele>
        <time>2025-12-15T12:32:44Z</time>
      </trkpt>
      <trkpt lat="45.70903" lon="4.73674">
        <ele>312.8</ele>
        <time>2025-12-15T12:32:45Z</time>
      </trkpt>
      <trkpt lat="45.70903" lon="4.73674">
        <ele>312.6</ele>
        <time>2025-12-15T12:32:46Z</time>
      </trkpt>
      <trkpt lat="45.70903" lon="4.73674">
        <ele>312.6</ele>
        <time>2025-12-15T12:32:47Z</time>
      </trkpt>
      <trkpt lat="45.70903" lon="4.73674">
        <ele>312.6</ele>
        <time>2025-12-15T12:32:48Z</time>
      </trkpt>
      <trkpt lat="45.70903" lon="4.73674">
        <ele>312.6</ele>
        <time>2025-12-15T12:32:49Z</time>
      </trkpt>
      <trkpt lat="45.70903" lon="4.73674">
        <ele>312.8</ele>
        <time>2025-12-15T12:32:50Z</time>
      </trkpt>
      <trkpt lat="45.70903" lon="4.73674">
        <ele>312.8</ele>
        <time>2025-12-15T12:32:51Z</time>
      </trkpt>
      <trkpt lat="45.70903" lon="4.73674">
        <ele>312.8</ele>
        <time>2025-12-15T12:32:52Z</time>
      </trkpt>
      <trkpt lat="45.70903" lon="4.73674">
        <ele>312.8</ele>
        <time>2025-12-15T12:32:53Z</time>
      </trkpt>
      <trkpt lat="45.70903" lon="4.73674">
        <ele>313</ele>
        <time>2025-12-15T12:32:54Z</time>
      </trkpt>
      <trkpt lat="45.70903" lon="4.73674">
        <ele>313</ele>
        <time>2025-12-15T12:32:55Z</time>
      </trkpt>
      <trkpt lat="45.70903" lon="4.73674">
        <ele>313</ele>
        <time>2025-12-15T12:32:56Z</time>
      </trkpt>
      <trkpt lat="45.70903" lon="4.73674">
        <ele>313</ele>
        <time>2025-12-15T12:32:57Z</time>
      </trkpt>
      <trkpt lat="45.70903" lon="4.73674">
        <ele>313</ele>
        <time>2025-12-15T12:32:58Z</time>
      </trkpt>
      <trkpt lat="45.70903" lon="4.73674">
        <ele>313</ele>
        <time>2025-12-15T12:32:59Z</time>
      </trkpt>
      <trkpt lat="45.70903" lon="4.73674">
        <ele>313</ele>
        <time>2025-12-15T12:33:00Z</time>
      </trkpt>
      <trkpt lat="45.70903" lon="4.73674">
        <ele>313</ele>
        <time>2025-12-15T12:33:01Z</time>
      </trkpt>
      <trkpt lat="45.70903" lon="4.73674">
        <ele>313</ele>
        <time>2025-12-15T12:33:02Z</time>
      </trkpt>
      <trkpt lat="45.70903" lon="4.73674">
        <ele>313</ele>
        <time>2025-12-15T12:33:03Z</time>
      </trkpt>
      <trkpt lat="45.70903" lon="4.73674">
        <ele>313</ele>
        <time>2025-12-15T12:33:04Z</time>
      </trkpt>
      <trkpt lat="45.70903" lon="4.73674">
        <ele>313</ele>
        <time>2025-12-15T12:33:05Z</time>
      </trkpt>
      <trkpt lat="45.70903" lon="4.73674">
        <ele>313</ele>
        <time>2025-12-15T12:33:06Z</time>
      </trkpt>
      <trkpt lat="45.70903" lon="4.73674">
        <ele>313</ele>
        <time>2025-12-15T12:33:07Z</time>
      </trkpt>
      <trkpt lat="45.70903" lon="4.73674">
        <ele>313</ele>
        <time>2025-12-15T12:33:08Z</time>
      </trkpt>
      <trkpt lat="45.70903" lon="4.73674">
        <ele>313</ele>
        <time>2025-12-15T12:33:09Z</time>
      </trkpt>
      <trkpt lat="45.70903" lon="4.73674">
        <ele>313</ele>
        <time>2025-12-15T12:33:10Z</time>
      </trkpt>
      <trkpt lat="45.70903" lon="4.73674">
        <ele>313</ele>
        <time>2025-12-15T12:33:11Z</time>
      </trkpt>
      <trkpt lat="45.70901" lon="4.73673">
        <ele>313</ele>
        <time>2025-12-15T12:33:12Z</time>
      </trkpt>
      <trkpt lat="45.70899" lon="4.73671">
        <ele>313</ele>
        <time>2025-12-15T12:33:13Z</time>
      </trkpt>
      <trkpt lat="45.70897" lon="4.7367">
        <ele>314</ele>
        <time>2025-12-15T12:33:14Z</time>
      </trkpt>
      <trkpt lat="45.70894" lon="4.73668">
        <ele>313.6</ele>
        <time>2025-12-15T12:33:15Z</time>
      </trkpt>
      <trkpt lat="45.70892" lon="4.73664">
        <ele>313.2</ele>
        <time>2025-12-15T12:33:16Z</time>
      </trkpt>
      <trkpt lat="45.70889" lon="4.7366">
        <ele>312.8</ele>
        <time>2025-12-15T12:33:17Z</time>
      </trkpt>
      <trkpt lat="45.70885" lon="4.73656">
        <ele>312.4</ele>
        <time>2025-12-15T12:33:18Z</time>
      </trkpt>
      <trkpt lat="45.70882" lon="4.73653">
        <ele>312.2</ele>
        <time>2025-12-15T12:33:19Z</time>
      </trkpt>
      <trkpt lat="45.70879" lon="4.7365">
        <ele>311.8</ele>
        <time>2025-12-15T12:33:20Z</time>
      </trkpt>
      <trkpt lat="45.70875" lon="4.73647">
        <ele>311.6</ele>
        <time>2025-12-15T12:33:21Z</time>
      </trkpt>
      <trkpt lat="45.70871" lon="4.73645">
        <ele>311.4</ele>
        <time>2025-12-15T12:33:22Z</time>
      </trkpt>
      <trkpt lat="45.70868" lon="4.73642">
        <ele>311.2</ele>
        <time>2025-12-15T12:33:23Z</time>
      </trkpt>
      <trkpt lat="45.70865" lon="4.73638">
        <ele>311.2</ele>
        <time>2025-12-15T12:33:24Z</time>
      </trkpt>
      <trkpt lat="45.70861" lon="4.73634">
        <ele>311.2</ele>
        <time>2025-12-15T12:33:25Z</time>
      </trkpt>
      <trkpt lat="45.70858" lon="4.7363">
        <ele>311.2</ele>
        <time>2025-12-15T12:33:26Z</time>
      </trkpt>
      <trkpt lat="45.70854" lon="4.73626">
        <ele>311.2</ele>
        <time>2025-12-15T12:33:27Z</time>
      </trkpt>
      <trkpt lat="45.7085" lon="4.73622">
        <ele>311.2</ele>
        <time>2025-12-15T12:33:28Z</time>
      </trkpt>
      <trkpt lat="45.70847" lon="4.73617">
        <ele>311.2</ele>
        <time>2025-12-15T12:33:29Z</time>
      </trkpt>
      <trkpt lat="45.70843" lon="4.73613">
        <ele>311</ele>
        <time>2025-12-15T12:33:30Z</time>
      </trkpt>
      <trkpt lat="45.70839" lon="4.73609">
        <ele>311</ele>
        <time>2025-12-15T12:33:31Z</time>
      </trkpt>
      <trkpt lat="45.70835" lon="4.73605">
        <ele>310.8</ele>
        <time>2025-12-15T12:33:32Z</time>
      </trkpt>
      <trkpt lat="45.70831" lon="4.73601">
        <ele>310.8</ele>
        <time>2025-12-15T12:33:33Z</time>
      </trkpt>
      <trkpt lat="45.70827" lon="4.73597">
        <ele>310.8</ele>
        <time>2025-12-15T12:33:34Z</time>
      </trkpt>
      <trkpt lat="45.70823" lon="4.73593">
        <ele>310.6</ele>
        <time>2025-12-15T12:33:35Z</time>
      </trkpt>
      <trkpt lat="45.70819" lon="4.73589">
        <ele>310.6</ele>
        <time>2025-12-15T12:33:36Z</time>
      </trkpt>
      <trkpt lat="45.70815" lon="4.73585">
        <ele>310.4</ele>
        <time>2025-12-15T12:33:37Z</time>
      </trkpt>
      <trkpt lat="45.7081" lon="4.73581">
        <ele>310</ele>
        <time>2025-12-15T12:33:38Z</time>
      </trkpt>
      <trkpt lat="45.70806" lon="4.73578">
        <ele>310</ele>
        <time>2025-12-15T12:33:39Z</time>
      </trkpt>
      <trkpt lat="45.70802" lon="4.73574">
        <ele>309.8</ele>
        <time>2025-12-15T12:33:40Z</time>
      </trkpt>
      <trkpt lat="45.70798" lon="4.73571">
        <ele>309.8</ele>
        <time>2025-12-15T12:33:41Z</time>
      </trkpt>
      <trkpt lat="45.70794" lon="4.73567">
        <ele>309.8</ele>
        <time>2025-12-15T12:33:42Z</time>
      </trkpt>
      <trkpt lat="45.70791" lon="4.73564">
        <ele>309.8</ele>
        <time>2025-12-15T12:33:43Z</time>
      </trkpt>
      <trkpt lat="45.70787" lon="4.7356">
        <ele>310</ele>
        <time>2025-12-15T12:33:44Z</time>
      </trkpt>
      <trkpt lat="45.70783" lon="4.73556">
        <ele>310</ele>
        <time>2025-12-15T12:33:45Z</time>
      </trkpt>
      <trkpt lat="45.70779" lon="4.73552">
        <ele>310</ele>
        <time>2025-12-15T12:33:46Z</time>
      </trkpt>
      <trkpt lat="45.70775" lon="4.73548">
        <ele>310</ele>
        <time>2025-12-15T12:33:47Z</time>
      </trkpt>
      <trkpt lat="45.70771" lon="4.73545">
        <ele>310</ele>
        <time>2025-12-15T12:33:48Z</time>
      </trkpt>
      <trkpt lat="45.70767" lon="4.73541">
        <ele>310</ele>
        <time>2025-12-15T12:33:49Z</time>
      </trkpt>
      <trkpt lat="45.70763" lon="4.73536">
        <ele>310.2</ele>
        <time>2025-12-15T12:33:50Z</time>
      </trkpt>
      <trkpt lat="45.7076" lon="4.73532">
        <ele>310.2</ele>
        <time>2025-12-15T12:33:51Z</time>
      </trkpt>
      <trkpt lat="45.70756" lon="4.73528">
        <ele>310.2</ele>
        <time>2025-12-15T12:33:52Z</time>
      </trkpt>
      <trkpt lat="45.70752" lon="4.73524">
        <ele>310.4</ele>
        <time>2025-12-15T12:33:53Z</time>
      </trkpt>
      <trkpt lat="45.70747" lon="4.7352">
        <ele>310.2</ele>
        <time>2025-12-15T12:33:54Z</time>
      </trkpt>
      <trkpt lat="45.70743" lon="4.73516">
        <ele>310</ele>
        <time>2025-12-15T12:33:55Z</time>
      </trkpt>
      <trkpt lat="45.70738" lon="4.73511">
        <ele>310</ele>
        <time>2025-12-15T12:33:56Z</time>
      </trkpt>
      <trkpt lat="45.70734" lon="4.73507">
        <ele>309.8</ele>
        <time>2025-12-15T12:33:57Z</time>
      </trkpt>
      <trkpt lat="45.7073" lon="4.73502">
        <ele>309.8</ele>
        <time>2025-12-15T12:33:58Z</time>
      </trkpt>
      <trkpt lat="45.70726" lon="4.73498">
        <ele>309.8</ele>
        <time>2025-12-15T12:33:59Z</time>
      </trkpt>
      <trkpt lat="45.70721" lon="4.73494">
        <ele>310</ele>
        <time>2025-12-15T12:34:00Z</time>
      </trkpt>
      <trkpt lat="45.70717" lon="4.73489">
        <ele>310.2</ele>
        <time>2025-12-15T12:34:01Z</time>
      </trkpt>
      <trkpt lat="45.70713" lon="4.73485">
        <ele>310.2</ele>
        <time>2025-12-15T12:34:02Z</time>
      </trkpt>
      <trkpt lat="45.70709" lon="4.7348">
        <ele>310</ele>
        <time>2025-12-15T12:34:03Z</time>
      </trkpt>
      <trkpt lat="45.70705" lon="4.73476">
        <ele>309.8</ele>
        <time>2025-12-15T12:34:04Z</time>
      </trkpt>
      <trkpt lat="45.70701" lon="4.73472">
        <ele>309.4</ele>
        <time>2025-12-15T12:34:05Z</time>
      </trkpt>
      <trkpt lat="45.70697" lon="4.73468">
        <ele>309.2</ele>
        <time>2025-12-15T12:34:06Z</time>
      </trkpt>
      <trkpt lat="45.70693" lon="4.73463">
        <ele>309.2</ele>
        <time>2025-12-15T12:34:07Z</time>
      </trkpt>
      <trkpt lat="45.70689" lon="4.73458">
        <ele>309.6</ele>
        <time>2025-12-15T12:34:08Z</time>
      </trkpt>
      <trkpt lat="45.70685" lon="4.73453">
        <ele>309.8</ele>
        <time>2025-12-15T12:34:09Z</time>
      </trkpt>
      <trkpt lat="45.7068" lon="4.73448">
        <ele>310</ele>
        <time>2025-12-15T12:34:10Z</time>
      </trkpt>
      <trkpt lat="45.70676" lon="4.73442">
        <ele>310</ele>
        <time>2025-12-15T12:34:11Z</time>
      </trkpt>
      <trkpt lat="45.70672" lon="4.73437">
        <ele>309.8</ele>
        <time>2025-12-15T12:34:12Z</time>
      </trkpt>
      <trkpt lat="45.70668" lon="4.73431">
        <ele>309.6</ele>
        <time>2025-12-15T12:34:13Z</time>
      </trkpt>
      <trkpt lat="45.70663" lon="4.73425">
        <ele>309.4</ele>
        <time>2025-12-15T12:34:14Z</time>
      </trkpt>
      <trkpt lat="45.70659" lon="4.73419">
        <ele>309.4</ele>
        <time>2025-12-15T12:34:15Z</time>
      </trkpt>
      <trkpt lat="45.70655" lon="4.73413">
        <ele>309.2</ele>
        <time>2025-12-15T12:34:16Z</time>
      </trkpt>
      <trkpt lat="45.70651" lon="4.73407">
        <ele>309.2</ele>
        <time>2025-12-15T12:34:17Z</time>
      </trkpt>
      <trkpt lat="45.70646" lon="4.73402">
        <ele>309</ele>
        <time>2025-12-15T12:34:18Z</time>
      </trkpt>
      <trkpt lat="45.70642" lon="4.73395">
        <ele>308.8</ele>
        <time>2025-12-15T12:34:19Z</time>
      </trkpt>
      <trkpt lat="45.70638" lon="4.73389">
        <ele>308.8</ele>
        <time>2025-12-15T12:34:20Z</time>
      </trkpt>
      <trkpt lat="45.70634" lon="4.73383">
        <ele>308.6</ele>
        <time>2025-12-15T12:34:21Z</time>
      </trkpt>
      <trkpt lat="45.7063" lon="4.73377">
        <ele>308.4</ele>
        <time>2025-12-15T12:34:22Z</time>
      </trkpt>
      <trkpt lat="45.70627" lon="4.73372">
        <ele>308.4</ele>
        <time>2025-12-15T12:34:23Z</time>
      </trkpt>
      <trkpt lat="45.70623" lon="4.73366">
        <ele>308</ele>
        <time>2025-12-15T12:34:24Z</time>
      </trkpt>
      <trkpt lat="45.7062" lon="4.7336">
        <ele>307.6</ele>
        <time>2025-12-15T12:34:25Z</time>
      </trkpt>
      <trkpt lat="45.70616" lon="4.73355">
        <ele>307.4</ele>
        <time>2025-12-15T12:34:26Z</time>
      </trkpt>
      <trkpt lat="45.70612" lon="4.7335">
        <ele>307</ele>
        <time>2025-12-15T12:34:27Z</time>
      </trkpt>
      <trkpt lat="45.70609" lon="4.73345">
        <ele>306.8</ele>
        <time>2025-12-15T12:34:28Z</time>
      </trkpt>
      <trkpt lat="45.70605" lon="4.73339">
        <ele>306.6</ele>
        <time>2025-12-15T12:34:29Z</time>
      </trkpt>
      <trkpt lat="45.70601" lon="4.73333">
        <ele>306.6</ele>
        <time>2025-12-15T12:34:30Z</time>
      </trkpt>
      <trkpt lat="45.70597" lon="4.73328">
        <ele>306.4</ele>
        <time>2025-12-15T12:34:31Z</time>
      </trkpt>
      <trkpt lat="45.70593" lon="4.73322">
        <ele>306.2</ele>
        <time>2025-12-15T12:34:32Z</time>
      </trkpt>
      <trkpt lat="45.70589" lon="4.73317">
        <ele>306</ele>
        <time>2025-12-15T12:34:33Z</time>
      </trkpt>
      <trkpt lat="45.70585" lon="4.73312">
        <ele>306</ele>
        <time>2025-12-15T12:34:34Z</time>
      </trkpt>
      <trkpt lat="45.70581" lon="4.73307">
        <ele>305.8</ele>
        <time>2025-12-15T12:34:35Z</time>
      </trkpt>
      <trkpt lat="45.70578" lon="4.73302">
        <ele>305.6</ele>
        <time>2025-12-15T12:34:36Z</time>
      </trkpt>
      <trkpt lat="45.70573" lon="4.73297">
        <ele>305.6</ele>
        <time>2025-12-15T12:34:37Z</time>
      </trkpt>
      <trkpt lat="45.70569" lon="4.73293">
        <ele>305.6</ele>
        <time>2025-12-15T12:34:38Z</time>
      </trkpt>
      <trkpt lat="45.70564" lon="4.73288">
        <ele>305.6</ele>
        <time>2025-12-15T12:34:39Z</time>
      </trkpt>
      <trkpt lat="45.7056" lon="4.73284">
        <ele>305.8</ele>
        <time>2025-12-15T12:34:40Z</time>
      </trkpt>
      <trkpt lat="45.70556" lon="4.7328">
        <ele>305.8</ele>
        <time>2025-12-15T12:34:41Z</time>
      </trkpt>
      <trkpt lat="45.70552" lon="4.73276">
        <ele>306</ele>
        <time>2025-12-15T12:34:42Z</time>
      </trkpt>
      <trkpt lat="45.70548" lon="4.73273">
        <ele>306.2</ele>
        <time>2025-12-15T12:34:43Z</time>
      </trkpt>
      <trkpt lat="45.70543" lon="4.73269">
        <ele>306.2</ele>
        <time>2025-12-15T12:34:44Z</time>
      </trkpt>
      <trkpt lat="45.70538" lon="4.73265">
        <ele>306.4</ele>
        <time>2025-12-15T12:34:45Z</time>
      </trkpt>
      <trkpt lat="45.70534" lon="4.73262">
        <ele>306.6</ele>
        <time>2025-12-15T12:34:46Z</time>
      </trkpt>
      <trkpt lat="45.70529" lon="4.73258">
        <ele>306.6</ele>
        <time>2025-12-15T12:34:47Z</time>
      </trkpt>
      <trkpt lat="45.70525" lon="4.73255">
        <ele>306.8</ele>
        <time>2025-12-15T12:34:48Z</time>
      </trkpt>
      <trkpt lat="45.7052" lon="4.73252">
        <ele>306.8</ele>
        <time>2025-12-15T12:34:49Z</time>
      </trkpt>
      <trkpt lat="45.70515" lon="4.73248">
        <ele>306.8</ele>
        <time>2025-12-15T12:34:50Z</time>
      </trkpt>
      <trkpt lat="45.7051" lon="4.73245">
        <ele>306.8</ele>
        <time>2025-12-15T12:34:51Z</time>
      </trkpt>
      <trkpt lat="45.70505" lon="4.73241">
        <ele>306.8</ele>
        <time>2025-12-15T12:34:52Z</time>
      </trkpt>
      <trkpt lat="45.70501" lon="4.73238">
        <ele>307</ele>
        <time>2025-12-15T12:34:53Z</time>
      </trkpt>
      <trkpt lat="45.70497" lon="4.73235">
        <ele>307.2</ele>
        <time>2025-12-15T12:34:54Z</time>
      </trkpt>
      <trkpt lat="45.70492" lon="4.73232">
        <ele>307.2</ele>
        <time>2025-12-15T12:34:55Z</time>
      </trkpt>
      <trkpt lat="45.70487" lon="4.73229">
        <ele>307.2</ele>
        <time>2025-12-15T12:34:56Z</time>
      </trkpt>
      <trkpt lat="45.70483" lon="4.73226">
        <ele>307.2</ele>
        <time>2025-12-15T12:34:57Z</time>
      </trkpt>
      <trkpt lat="45.70478" lon="4.73223">
        <ele>307.2</ele>
        <time>2025-12-15T12:34:58Z</time>
      </trkpt>
      <trkpt lat="45.70474" lon="4.7322">
        <ele>307.2</ele>
        <time>2025-12-15T12:34:59Z</time>
      </trkpt>
      <trkpt lat="45.70469" lon="4.73217">
        <ele>307.2</ele>
        <time>2025-12-15T12:35:00Z</time>
      </trkpt>
      <trkpt lat="45.70465" lon="4.73214">
        <ele>307.4</ele>
        <time>2025-12-15T12:35:01Z</time>
      </trkpt>
      <trkpt lat="45.7046" lon="4.73211">
        <ele>307.6</ele>
        <time>2025-12-15T12:35:02Z</time>
      </trkpt>
      <trkpt lat="45.70456" lon="4.73208">
        <ele>307.8</ele>
        <time>2025-12-15T12:35:03Z</time>
      </trkpt>
      <trkpt lat="45.70451" lon="4.73204">
        <ele>308</ele>
        <time>2025-12-15T12:35:04Z</time>
      </trkpt>
      <trkpt lat="45.70446" lon="4.73201">
        <ele>308.2</ele>
        <time>2025-12-15T12:35:05Z</time>
      </trkpt>
      <trkpt lat="45.70441" lon="4.73198">
        <ele>308.4</ele>
        <time>2025-12-15T12:35:06Z</time>
      </trkpt>
      <trkpt lat="45.70437" lon="4.73195">
        <ele>308.6</ele>
        <time>2025-12-15T12:35:07Z</time>
      </trkpt>
      <trkpt lat="45.70432" lon="4.73192">
        <ele>308.6</ele>
        <time>2025-12-15T12:35:08Z</time>
      </trkpt>
      <trkpt lat="45.70427" lon="4.73188">
        <ele>308.6</ele>
        <time>2025-12-15T12:35:09Z</time>
      </trkpt>
      <trkpt lat="45.70422" lon="4.73185">
        <ele>308.6</ele>
        <time>2025-12-15T12:35:10Z</time>
      </trkpt>
      <trkpt lat="45.70418" lon="4.73181">
        <ele>308.4</ele>
        <time>2025-12-15T12:35:11Z</time>
      </trkpt>
      <trkpt lat="45.70413" lon="4.73178">
        <ele>308.2</ele>
        <time>2025-12-15T12:35:12Z</time>
      </trkpt>
      <trkpt lat="45.70408" lon="4.73175">
        <ele>307.8</ele>
        <time>2025-12-15T12:35:13Z</time>
      </trkpt>
      <trkpt lat="45.70404" lon="4.73171">
        <ele>307.4</ele>
        <time>2025-12-15T12:35:14Z</time>
      </trkpt>
      <trkpt lat="45.70399" lon="4.73169">
        <ele>307.2</ele>
        <time>2025-12-15T12:35:15Z</time>
      </trkpt>
      <trkpt lat="45.70395" lon="4.73165">
        <ele>307</ele>
        <time>2025-12-15T12:35:16Z</time>
      </trkpt>
      <trkpt lat="45.70391" lon="4.73162">
        <ele>306.8</ele>
        <time>2025-12-15T12:35:17Z</time>
      </trkpt>
      <trkpt lat="45.70387" lon="4.7316">
        <ele>306.8</ele>
        <time>2025-12-15T12:35:18Z</time>
      </trkpt>
      <trkpt lat="45.70384" lon="4.73156">
        <ele>306.6</ele>
        <time>2025-12-15T12:35:19Z</time>
      </trkpt>
      <trkpt lat="45.7038" lon="4.73153">
        <ele>306.6</ele>
        <time>2025-12-15T12:35:20Z</time>
      </trkpt>
      <trkpt lat="45.70376" lon="4.73149">
        <ele>306.4</ele>
        <time>2025-12-15T12:35:21Z</time>
      </trkpt>
      <trkpt lat="45.70372" lon="4.73145">
        <ele>306.2</ele>
        <time>2025-12-15T12:35:22Z</time>
      </trkpt>
      <trkpt lat="45.70369" lon="4.73141">
        <ele>306</ele>
        <time>2025-12-15T12:35:23Z</time>
      </trkpt>
      <trkpt lat="45.70365" lon="4.73137">
        <ele>305.8</ele>
        <time>2025-12-15T12:35:24Z</time>
      </trkpt>
      <trkpt lat="45.70361" lon="4.73133">
        <ele>305.8</ele>
        <time>2025-12-15T12:35:25Z</time>
      </trkpt>
      <trkpt lat="45.70358" lon="4.73129">
        <ele>305.8</ele>
        <time>2025-12-15T12:35:26Z</time>
      </trkpt>
      <trkpt lat="45.70354" lon="4.73125">
        <ele>305.8</ele>
        <time>2025-12-15T12:35:27Z</time>
      </trkpt>
      <trkpt lat="45.7035" lon="4.7312">
        <ele>306</ele>
        <time>2025-12-15T12:35:28Z</time>
      </trkpt>
      <trkpt lat="45.70347" lon="4.73115">
        <ele>306.2</ele>
        <time>2025-12-15T12:35:29Z</time>
      </trkpt>
      <trkpt lat="45.70343" lon="4.7311">
        <ele>306.4</ele>
        <time>2025-12-15T12:35:30Z</time>
      </trkpt>
      <trkpt lat="45.7034" lon="4.73106">
        <ele>306.6</ele>
        <time>2025-12-15T12:35:31Z</time>
      </trkpt>
      <trkpt lat="45.70336" lon="4.73101">
        <ele>306.8</ele>
        <time>2025-12-15T12:35:32Z</time>
      </trkpt>
      <trkpt lat="45.70334" lon="4.73096">
        <ele>307</ele>
        <time>2025-12-15T12:35:33Z</time>
      </trkpt>
      <trkpt lat="45.70331" lon="4.73091">
        <ele>307.2</ele>
        <time>2025-12-15T12:35:34Z</time>
      </trkpt>
      <trkpt lat="45.70329" lon="4.73085">
        <ele>307.2</ele>
        <time>2025-12-15T12:35:35Z</time>
      </trkpt>
      <trkpt lat="45.70329" lon="4.73079">
        <ele>307.4</ele>
        <time>2025-12-15T12:35:36Z</time>
      </trkpt>
      <trkpt lat="45.70329" lon="4.73073">
        <ele>307.6</ele>
        <time>2025-12-15T12:35:37Z</time>
      </trkpt>
      <trkpt lat="45.7033" lon="4.73067">
        <ele>307.8</ele>
        <time>2025-12-15T12:35:38Z</time>
      </trkpt>
      <trkpt lat="45.70332" lon="4.7306">
        <ele>308</ele>
        <time>2025-12-15T12:35:39Z</time>
      </trkpt>
      <trkpt lat="45.70334" lon="4.73054">
        <ele>308.2</ele>
        <time>2025-12-15T12:35:40Z</time>
      </trkpt>
      <trkpt lat="45.70336" lon="4.73047">
        <ele>308.2</ele>
        <time>2025-12-15T12:35:41Z</time>
      </trkpt>
      <trkpt lat="45.70338" lon="4.73041">
        <ele>308.2</ele>
        <time>2025-12-15T12:35:42Z</time>
      </trkpt>
      <trkpt lat="45.7034" lon="4.73034">
        <ele>308</ele>
        <time>2025-12-15T12:35:43Z</time>
      </trkpt>
      <trkpt lat="45.70342" lon="4.73027">
        <ele>308</ele>
        <time>2025-12-15T12:35:44Z</time>
      </trkpt>
      <trkpt lat="45.70345" lon="4.7302">
        <ele>308</ele>
        <time>2025-12-15T12:35:45Z</time>
      </trkpt>
      <trkpt lat="45.70348" lon="4.73014">
        <ele>308</ele>
        <time>2025-12-15T12:35:46Z</time>
      </trkpt>
      <trkpt lat="45.70351" lon="4.73007">
        <ele>308</ele>
        <time>2025-12-15T12:35:47Z</time>
      </trkpt>
      <trkpt lat="45.70353" lon="4.73001">
        <ele>308</ele>
        <time>2025-12-15T12:35:48Z</time>
      </trkpt>
      <trkpt lat="45.70356" lon="4.72994">
        <ele>308</ele>
        <time>2025-12-15T12:35:49Z</time>
      </trkpt>
      <trkpt lat="45.70359" lon="4.72987">
        <ele>308</ele>
        <time>2025-12-15T12:35:50Z</time>
      </trkpt>
      <trkpt lat="45.70362" lon="4.72981">
        <ele>307.8</ele>
        <time>2025-12-15T12:35:51Z</time>
      </trkpt>
      <trkpt lat="45.70365" lon="4.72975">
        <ele>307.6</ele>
        <time>2025-12-15T12:35:52Z</time>
      </trkpt>
      <trkpt lat="45.70368" lon="4.72968">
        <ele>307.4</ele>
        <time>2025-12-15T12:35:53Z</time>
      </trkpt>
      <trkpt lat="45.70371" lon="4.72961">
        <ele>307.4</ele>
        <time>2025-12-15T12:35:54Z</time>
      </trkpt>
      <trkpt lat="45.70374" lon="4.72954">
        <ele>307.4</ele>
        <time>2025-12-15T12:35:55Z</time>
      </trkpt>
      <trkpt lat="45.70377" lon="4.72947">
        <ele>307.4</ele>
        <time>2025-12-15T12:35:56Z</time>
      </trkpt>
      <trkpt lat="45.7038" lon="4.72941">
        <ele>307.6</ele>
        <time>2025-12-15T12:35:57Z</time>
      </trkpt>
      <trkpt lat="45.70383" lon="4.72934">
        <ele>307.6</ele>
        <time>2025-12-15T12:35:58Z</time>
      </trkpt>
      <trkpt lat="45.70386" lon="4.72927">
        <ele>307.6</ele>
        <time>2025-12-15T12:35:59Z</time>
      </trkpt>
      <trkpt lat="45.70389" lon="4.7292">
        <ele>307.6</ele>
        <time>2025-12-15T12:36:00Z</time>
      </trkpt>
      <trkpt lat="45.70393" lon="4.72913">
        <ele>307.6</ele>
        <time>2025-12-15T12:36:01Z</time>
      </trkpt>
      <trkpt lat="45.70396" lon="4.72906">
        <ele>307.6</ele>
        <time>2025-12-15T12:36:02Z</time>
      </trkpt>
      <trkpt lat="45.704" lon="4.729">
        <ele>307.6</ele>
        <time>2025-12-15T12:36:03Z</time>
      </trkpt>
      <trkpt lat="45.70403" lon="4.72893">
        <ele>307.6</ele>
        <time>2025-12-15T12:36:04Z</time>
      </trkpt>
      <trkpt lat="45.70407" lon="4.72886">
        <ele>307.6</ele>
        <time>2025-12-15T12:36:05Z</time>
      </trkpt>
      <trkpt lat="45.70411" lon="4.72879">
        <ele>307.6</ele>
        <time>2025-12-15T12:36:06Z</time>
      </trkpt>
      <trkpt lat="45.70414" lon="4.72873">
        <ele>307.6</ele>
        <time>2025-12-15T12:36:07Z</time>
      </trkpt>
      <trkpt lat="45.70418" lon="4.72866">
        <ele>307.8</ele>
        <time>2025-12-15T12:36:08Z</time>
      </trkpt>
      <trkpt lat="45.70421" lon="4.72859">
        <ele>307.8</ele>
        <time>2025-12-15T12:36:09Z</time>
      </trkpt>
      <trkpt lat="45.70424" lon="4.72851">
        <ele>307.8</ele>
        <time>2025-12-15T12:36:10Z</time>
      </trkpt>
      <trkpt lat="45.70427" lon="4.72844">
        <ele>307.8</ele>
        <time>2025-12-15T12:36:11Z</time>
      </trkpt>
      <trkpt lat="45.7043" lon="4.72836">
        <ele>308</ele>
        <time>2025-12-15T12:36:12Z</time>
      </trkpt>
      <trkpt lat="45.70433" lon="4.72829">
        <ele>308</ele>
        <time>2025-12-15T12:36:13Z</time>
      </trkpt>
      <trkpt lat="45.70436" lon="4.72821">
        <ele>307.8</ele>
        <time>2025-12-15T12:36:14Z</time>
      </trkpt>
      <trkpt lat="45.70438" lon="4.72814">
        <ele>307.8</ele>
        <time>2025-12-15T12:36:15Z</time>
      </trkpt>
      <trkpt lat="45.7044" lon="4.72806">
        <ele>307.8</ele>
        <time>2025-12-15T12:36:16Z</time>
      </trkpt>
      <trkpt lat="45.70441" lon="4.72798">
        <ele>307.8</ele>
        <time>2025-12-15T12:36:17Z</time>
      </trkpt>
      <trkpt lat="45.70441" lon="4.72789">
        <ele>307.8</ele>
        <time>2025-12-15T12:36:18Z</time>
      </trkpt>
      <trkpt lat="45.7044" lon="4.72781">
        <ele>307.8</ele>
        <time>2025-12-15T12:36:19Z</time>
      </trkpt>
      <trkpt lat="45.70439" lon="4.72773">
        <ele>307.8</ele>
        <time>2025-12-15T12:36:20Z</time>
      </trkpt>
      <trkpt lat="45.70439" lon="4.72765">
        <ele>307.6</ele>
        <time>2025-12-15T12:36:21Z</time>
      </trkpt>
      <trkpt lat="45.70438" lon="4.72757">
        <ele>307.6</ele>
        <time>2025-12-15T12:36:22Z</time>
      </trkpt>
      <trkpt lat="45.70436" lon="4.72749">
        <ele>307.6</ele>
        <time>2025-12-15T12:36:23Z</time>
      </trkpt>
      <trkpt lat="45.70435" lon="4.72741">
        <ele>307.8</ele>
        <time>2025-12-15T12:36:24Z</time>
      </trkpt>
      <trkpt lat="45.70433" lon="4.72733">
        <ele>307.8</ele>
        <time>2025-12-15T12:36:25Z</time>
      </trkpt>
      <trkpt lat="45.70432" lon="4.72725">
        <ele>307.8</ele>
        <time>2025-12-15T12:36:26Z</time>
      </trkpt>
      <trkpt lat="45.70431" lon="4.72717">
        <ele>307.8</ele>
        <time>2025-12-15T12:36:27Z</time>
      </trkpt>
      <trkpt lat="45.7043" lon="4.72709">
        <ele>307.6</ele>
        <time>2025-12-15T12:36:28Z</time>
      </trkpt>
      <trkpt lat="45.70429" lon="4.72701">
        <ele>307.6</ele>
        <time>2025-12-15T12:36:29Z</time>
      </trkpt>
      <trkpt lat="45.70427" lon="4.72694">
        <ele>307.6</ele>
        <time>2025-12-15T12:36:30Z</time>
      </trkpt>
      <trkpt lat="45.70426" lon="4.72687">
        <ele>307.6</ele>
        <time>2025-12-15T12:36:31Z</time>
      </trkpt>
      <trkpt lat="45.70425" lon="4.72679">
        <ele>307.8</ele>
        <time>2025-12-15T12:36:32Z</time>
      </trkpt>
      <trkpt lat="45.70424" lon="4.72672">
        <ele>308</ele>
        <time>2025-12-15T12:36:33Z</time>
      </trkpt>
      <trkpt lat="45.70422" lon="4.72665">
        <ele>308.4</ele>
        <time>2025-12-15T12:36:34Z</time>
      </trkpt>
      <trkpt lat="45.70421" lon="4.72658">
        <ele>308.8</ele>
        <time>2025-12-15T12:36:35Z</time>
      </trkpt>
      <trkpt lat="45.70421" lon="4.7265">
        <ele>309</ele>
        <time>2025-12-15T12:36:36Z</time>
      </trkpt>
      <trkpt lat="45.7042" lon="4.72643">
        <ele>309.2</ele>
        <time>2025-12-15T12:36:37Z</time>
      </trkpt>
      <trkpt lat="45.70418" lon="4.72635">
        <ele>309.4</ele>
        <time>2025-12-15T12:36:38Z</time>
      </trkpt>
      <trkpt lat="45.70417" lon="4.72628">
        <ele>309.4</ele>
        <time>2025-12-15T12:36:39Z</time>
      </trkpt>
      <trkpt lat="45.70416" lon="4.72621">
        <ele>309.4</ele>
        <time>2025-12-15T12:36:40Z</time>
      </trkpt>
      <trkpt lat="45.70415" lon="4.72613">
        <ele>309.4</ele>
        <time>2025-12-15T12:36:41Z</time>
      </trkpt>
      <trkpt lat="45.70414" lon="4.72606">
        <ele>309.4</ele>
        <time>2025-12-15T12:36:42Z</time>
      </trkpt>
      <trkpt lat="45.70412" lon="4.72598">
        <ele>309.4</ele>
        <time>2025-12-15T12:36:43Z</time>
      </trkpt>
      <trkpt lat="45.70411" lon="4.72591">
        <ele>309.6</ele>
        <time>2025-12-15T12:36:44Z</time>
      </trkpt>
      <trkpt lat="45.7041" lon="4.72583">
        <ele>309.6</ele>
        <time>2025-12-15T12:36:45Z</time>
      </trkpt>
      <trkpt lat="45.70408" lon="4.72576">
        <ele>309.8</ele>
        <time>2025-12-15T12:36:46Z</time>
      </trkpt>
      <trkpt lat="45.70407" lon="4.72569">
        <ele>309.6</ele>
        <time>2025-12-15T12:36:47Z</time>
      </trkpt>
      <trkpt lat="45.70406" lon="4.72562">
        <ele>309.6</ele>
        <time>2025-12-15T12:36:48Z</time>
      </trkpt>
      <trkpt lat="45.70405" lon="4.72555">
        <ele>309.4</ele>
        <time>2025-12-15T12:36:49Z</time>
      </trkpt>
      <trkpt lat="45.70404" lon="4.72549">
        <ele>309.4</ele>
        <time>2025-12-15T12:36:50Z</time>
      </trkpt>
      <trkpt lat="45.70403" lon="4.72542">
        <ele>309.4</ele>
        <time>2025-12-15T12:36:51Z</time>
      </trkpt>
      <trkpt lat="45.70402" lon="4.72535">
        <ele>309.4</ele>
        <time>2025-12-15T12:36:52Z</time>
      </trkpt>
      <trkpt lat="45.704" lon="4.72529">
        <ele>309.6</ele>
        <time>2025-12-15T12:36:53Z</time>
      </trkpt>
      <trkpt lat="45.70399" lon="4.72522">
        <ele>310</ele>
        <time>2025-12-15T12:36:54Z</time>
      </trkpt>
      <trkpt lat="45.70398" lon="4.72515">
        <ele>310.4</ele>
        <time>2025-12-15T12:36:55Z</time>
      </trkpt>
      <trkpt lat="45.70397" lon="4.72509">
        <ele>310.8</ele>
        <time>2025-12-15T12:36:56Z</time>
      </trkpt>
      <trkpt lat="45.70396" lon="4.72502">
        <ele>311.2</ele>
        <time>2025-12-15T12:36:57Z</time>
      </trkpt>
      <trkpt lat="45.70395" lon="4.72495">
        <ele>311.6</ele>
        <time>2025-12-15T12:36:58Z</time>
      </trkpt>
      <trkpt lat="45.70394" lon="4.72488">
        <ele>311.8</ele>
        <time>2025-12-15T12:36:59Z</time>
      </trkpt>
      <trkpt lat="45.70393" lon="4.72481">
        <ele>312</ele>
        <time>2025-12-15T12:37:00Z</time>
      </trkpt>
      <trkpt lat="45.70392" lon="4.72474">
        <ele>312</ele>
        <time>2025-12-15T12:37:01Z</time>
      </trkpt>
      <trkpt lat="45.70391" lon="4.72468">
        <ele>311.8</ele>
        <time>2025-12-15T12:37:02Z</time>
      </trkpt>
      <trkpt lat="45.70389" lon="4.72461">
        <ele>311.8</ele>
        <time>2025-12-15T12:37:03Z</time>
      </trkpt>
      <trkpt lat="45.70388" lon="4.72454">
        <ele>311.8</ele>
        <time>2025-12-15T12:37:04Z</time>
      </trkpt>
      <trkpt lat="45.70387" lon="4.72447">
        <ele>311.8</ele>
        <time>2025-12-15T12:37:05Z</time>
      </trkpt>
      <trkpt lat="45.70386" lon="4.7244">
        <ele>311.8</ele>
        <time>2025-12-15T12:37:06Z</time>
      </trkpt>
      <trkpt lat="45.70385" lon="4.72432">
        <ele>311.8</ele>
        <time>2025-12-15T12:37:07Z</time>
      </trkpt>
      <trkpt lat="45.70384" lon="4.72425">
        <ele>312</ele>
        <time>2025-12-15T12:37:08Z</time>
      </trkpt>
      <trkpt lat="45.70383" lon="4.72418">
        <ele>312</ele>
        <time>2025-12-15T12:37:09Z</time>
      </trkpt>
      <trkpt lat="45.70382" lon="4.72411">
        <ele>311.8</ele>
        <time>2025-12-15T12:37:10Z</time>
      </trkpt>
      <trkpt lat="45.70381" lon="4.72403">
        <ele>312</ele>
        <time>2025-12-15T12:37:11Z</time>
      </trkpt>
      <trkpt lat="45.7038" lon="4.72396">
        <ele>312</ele>
        <time>2025-12-15T12:37:12Z</time>
      </trkpt>
      <trkpt lat="45.70379" lon="4.72388">
        <ele>312</ele>
        <time>2025-12-15T12:37:13Z</time>
      </trkpt>
      <trkpt lat="45.70378" lon="4.72381">
        <ele>312</ele>
        <time>2025-12-15T12:37:14Z</time>
      </trkpt>
      <trkpt lat="45.70377" lon="4.72373">
        <ele>312</ele>
        <time>2025-12-15T12:37:15Z</time>
      </trkpt>
      <trkpt lat="45.70377" lon="4.72366">
        <ele>312</ele>
        <time>2025-12-15T12:37:16Z</time>
      </trkpt>
      <trkpt lat="45.70376" lon="4.72358">
        <ele>312</ele>
        <time>2025-12-15T12:37:17Z</time>
      </trkpt>
      <trkpt lat="45.70375" lon="4.7235">
        <ele>312</ele>
        <time>2025-12-15T12:37:18Z</time>
      </trkpt>
      <trkpt lat="45.70374" lon="4.72342">
        <ele>311.8</ele>
        <time>2025-12-15T12:37:19Z</time>
      </trkpt>
      <trkpt lat="45.70373" lon="4.72334">
        <ele>311.8</ele>
        <time>2025-12-15T12:37:20Z</time>
      </trkpt>
      <trkpt lat="45.70373" lon="4.72326">
        <ele>311.8</ele>
        <time>2025-12-15T12:37:21Z</time>
      </trkpt>
      <trkpt lat="45.70372" lon="4.72318">
        <ele>311.8</ele>
        <time>2025-12-15T12:37:22Z</time>
      </trkpt>
      <trkpt lat="45.70372" lon="4.7231">
        <ele>311.8</ele>
        <time>2025-12-15T12:37:23Z</time>
      </trkpt>
      <trkpt lat="45.70372" lon="4.72302">
        <ele>311.8</ele>
        <time>2025-12-15T12:37:24Z</time>
      </trkpt>
      <trkpt lat="45.70372" lon="4.72294">
        <ele>311.8</ele>
        <time>2025-12-15T12:37:25Z</time>
      </trkpt>
      <trkpt lat="45.70372" lon="4.72285">
        <ele>312</ele>
        <time>2025-12-15T12:37:26Z</time>
      </trkpt>
      <trkpt lat="45.70372" lon="4.72277">
        <ele>312</ele>
        <time>2025-12-15T12:37:27Z</time>
      </trkpt>
      <trkpt lat="45.70372" lon="4.72269">
        <ele>312</ele>
        <time>2025-12-15T12:37:28Z</time>
      </trkpt>
      <trkpt lat="45.70372" lon="4.72261">
        <ele>312</ele>
        <time>2025-12-15T12:37:29Z</time>
      </trkpt>
      <trkpt lat="45.70372" lon="4.72253">
        <ele>312</ele>
        <time>2025-12-15T12:37:30Z</time>
      </trkpt>
      <trkpt lat="45.70372" lon="4.72245">
        <ele>312</ele>
        <time>2025-12-15T12:37:31Z</time>
      </trkpt>
      <trkpt lat="45.70372" lon="4.72237">
        <ele>312.2</ele>
        <time>2025-12-15T12:37:32Z</time>
      </trkpt>
      <trkpt lat="45.70372" lon="4.7223">
        <ele>312.2</ele>
        <time>2025-12-15T12:37:33Z</time>
      </trkpt>
      <trkpt lat="45.70372" lon="4.72222">
        <ele>312.4</ele>
        <time>2025-12-15T12:37:34Z</time>
      </trkpt>
      <trkpt lat="45.70372" lon="4.72214">
        <ele>312.4</ele>
        <time>2025-12-15T12:37:35Z</time>
      </trkpt>
      <trkpt lat="45.70372" lon="4.72206">
        <ele>312.6</ele>
        <time>2025-12-15T12:37:36Z</time>
      </trkpt>
      <trkpt lat="45.70372" lon="4.72198">
        <ele>312.6</ele>
        <time>2025-12-15T12:37:37Z</time>
      </trkpt>
      <trkpt lat="45.70372" lon="4.7219">
        <ele>312.8</ele>
        <time>2025-12-15T12:37:38Z</time>
      </trkpt>
      <trkpt lat="45.70372" lon="4.72182">
        <ele>312.8</ele>
        <time>2025-12-15T12:37:39Z</time>
      </trkpt>
      <trkpt lat="45.70372" lon="4.72175">
        <ele>312.8</ele>
        <time>2025-12-15T12:37:40Z</time>
      </trkpt>
      <trkpt lat="45.70372" lon="4.72167">
        <ele>312.8</ele>
        <time>2025-12-15T12:37:41Z</time>
      </trkpt>
      <trkpt lat="45.70372" lon="4.72159">
        <ele>312.8</ele>
        <time>2025-12-15T12:37:42Z</time>
      </trkpt>
      <trkpt lat="45.70372" lon="4.72151">
        <ele>312.8</ele>
        <time>2025-12-15T12:37:43Z</time>
      </trkpt>
      <trkpt lat="45.70372" lon="4.72143">
        <ele>312.6</ele>
        <time>2025-12-15T12:37:44Z</time>
      </trkpt>
      <trkpt lat="45.70372" lon="4.72134">
        <ele>312.6</ele>
        <time>2025-12-15T12:37:45Z</time>
      </trkpt>
      <trkpt lat="45.70372" lon="4.72126">
        <ele>312.4</ele>
        <time>2025-12-15T12:37:46Z</time>
      </trkpt>
      <trkpt lat="45.70372" lon="4.72118">
        <ele>312.4</ele>
        <time>2025-12-15T12:37:47Z</time>
      </trkpt>
      <trkpt lat="45.70373" lon="4.7211">
        <ele>312.4</ele>
        <time>2025-12-15T12:37:48Z</time>
      </trkpt>
      <trkpt lat="45.70373" lon="4.72102">
        <ele>312.4</ele>
        <time>2025-12-15T12:37:49Z</time>
      </trkpt>
      <trkpt lat="45.70373" lon="4.72094">
        <ele>312.4</ele>
        <time>2025-12-15T12:37:50Z</time>
      </trkpt>
      <trkpt lat="45.70373" lon="4.72086">
        <ele>312.4</ele>
        <time>2025-12-15T12:37:51Z</time>
      </trkpt>
      <trkpt lat="45.70374" lon="4.72078">
        <ele>312.4</ele>
        <time>2025-12-15T12:37:52Z</time>
      </trkpt>
      <trkpt lat="45.70374" lon="4.7207">
        <ele>312.4</ele>
        <time>2025-12-15T12:37:53Z</time>
      </trkpt>
      <trkpt lat="45.70375" lon="4.72062">
        <ele>312.4</ele>
        <time>2025-12-15T12:37:54Z</time>
      </trkpt>
      <trkpt lat="45.70375" lon="4.72054">
        <ele>312.6</ele>
        <time>2025-12-15T12:37:55Z</time>
      </trkpt>
      <trkpt lat="45.70376" lon="4.72046">
        <ele>312.6</ele>
        <time>2025-12-15T12:37:56Z</time>
      </trkpt>
      <trkpt lat="45.70378" lon="4.72039">
        <ele>312.8</ele>
        <time>2025-12-15T12:37:57Z</time>
      </trkpt>
      <trkpt lat="45.70379" lon="4.72031">
        <ele>312.8</ele>
        <time>2025-12-15T12:37:58Z</time>
      </trkpt>
      <trkpt lat="45.70381" lon="4.72024">
        <ele>313</ele>
        <time>2025-12-15T12:37:59Z</time>
      </trkpt>
      <trkpt lat="45.70383" lon="4.72017">
        <ele>313</ele>
        <time>2025-12-15T12:38:00Z</time>
      </trkpt>
      <trkpt lat="45.70384" lon="4.7201">
        <ele>313.2</ele>
        <time>2025-12-15T12:38:01Z</time>
      </trkpt>
      <trkpt lat="45.70385" lon="4.72002">
        <ele>313.2</ele>
        <time>2025-12-15T12:38:02Z</time>
      </trkpt>
      <trkpt lat="45.70387" lon="4.71996">
        <ele>313.4</ele>
        <time>2025-12-15T12:38:03Z</time>
      </trkpt>
      <trkpt lat="45.70388" lon="4.71989">
        <ele>313.6</ele>
        <time>2025-12-15T12:38:04Z</time>
      </trkpt>
      <trkpt lat="45.7039" lon="4.71982">
        <ele>313.8</ele>
        <time>2025-12-15T12:38:05Z</time>
      </trkpt>
      <trkpt lat="45.70391" lon="4.71976">
        <ele>314</ele>
        <time>2025-12-15T12:38:06Z</time>
      </trkpt>
      <trkpt lat="45.70392" lon="4.71969">
        <ele>314</ele>
        <time>2025-12-15T12:38:07Z</time>
      </trkpt>
      <trkpt lat="45.70393" lon="4.71962">
        <ele>314.2</ele>
        <time>2025-12-15T12:38:08Z</time>
      </trkpt>
      <trkpt lat="45.70394" lon="4.71955">
        <ele>314.4</ele>
        <time>2025-12-15T12:38:09Z</time>
      </trkpt>
      <trkpt lat="45.70395" lon="4.71948">
        <ele>314.6</ele>
        <time>2025-12-15T12:38:10Z</time>
      </trkpt>
      <trkpt lat="45.70396" lon="4.71941">
        <ele>314.8</ele>
        <time>2025-12-15T12:38:11Z</time>
      </trkpt>
      <trkpt lat="45.70396" lon="4.71934">
        <ele>314.8</ele>
        <time>2025-12-15T12:38:12Z</time>
      </trkpt>
      <trkpt lat="45.70397" lon="4.71927">
        <ele>315</ele>
        <time>2025-12-15T12:38:13Z</time>
      </trkpt>
      <trkpt lat="45.70398" lon="4.7192">
        <ele>315.2</ele>
        <time>2025-12-15T12:38:14Z</time>
      </trkpt>
      <trkpt lat="45.70398" lon="4.71914">
        <ele>315.4</ele>
        <time>2025-12-15T12:38:15Z</time>
      </trkpt>
      <trkpt lat="45.70399" lon="4.71907">
        <ele>315.6</ele>
        <time>2025-12-15T12:38:16Z</time>
      </trkpt>
      <trkpt lat="45.70399" lon="4.719">
        <ele>315.8</ele>
        <time>2025-12-15T12:38:17Z</time>
      </trkpt>
      <trkpt lat="45.704" lon="4.71894">
        <ele>316</ele>
        <time>2025-12-15T12:38:18Z</time>
      </trkpt>
      <trkpt lat="45.704" lon="4.71887">
        <ele>316.2</ele>
        <time>2025-12-15T12:38:19Z</time>
      </trkpt>
      <trkpt lat="45.704" lon="4.7188">
        <ele>316.2</ele>
        <time>2025-12-15T12:38:20Z</time>
      </trkpt>
      <trkpt lat="45.70401" lon="4.71874">
        <ele>316.2</ele>
        <time>2025-12-15T12:38:21Z</time>
      </trkpt>
      <trkpt lat="45.70401" lon="4.71867">
        <ele>316.4</ele>
        <time>2025-12-15T12:38:22Z</time>
      </trkpt>
      <trkpt lat="45.70402" lon="4.71861">
        <ele>316.4</ele>
        <time>2025-12-15T12:38:23Z</time>
      </trkpt>
      <trkpt lat="45.70402" lon="4.71855">
        <ele>316.6</ele>
        <time>2025-12-15T12:38:24Z</time>
      </trkpt>
      <trkpt lat="45.70403" lon="4.71848">
        <ele>316.6</ele>
        <time>2025-12-15T12:38:25Z</time>
      </trkpt>
      <trkpt lat="45.70403" lon="4.71842">
        <ele>316.8</ele>
        <time>2025-12-15T12:38:26Z</time>
      </trkpt>
      <trkpt lat="45.70404" lon="4.71836">
        <ele>317</ele>
        <time>2025-12-15T12:38:27Z</time>
      </trkpt>
      <trkpt lat="45.70404" lon="4.7183">
        <ele>317.2</ele>
        <time>2025-12-15T12:38:28Z</time>
      </trkpt>
      <trkpt lat="45.70404" lon="4.71823">
        <ele>317.6</ele>
        <time>2025-12-15T12:38:29Z</time>
      </trkpt>
      <trkpt lat="45.70404" lon="4.71817">
        <ele>317.8</ele>
        <time>2025-12-15T12:38:30Z</time>
      </trkpt>
      <trkpt lat="45.70405" lon="4.71811">
        <ele>318.2</ele>
        <time>2025-12-15T12:38:31Z</time>
      </trkpt>
      <trkpt lat="45.70406" lon="4.71805">
        <ele>318.4</ele>
        <time>2025-12-15T12:38:32Z</time>
      </trkpt>
      <trkpt lat="45.70407" lon="4.718">
        <ele>318.8</ele>
        <time>2025-12-15T12:38:33Z</time>
      </trkpt>
      <trkpt lat="45.70407" lon="4.71794">
        <ele>319</ele>
        <time>2025-12-15T12:38:34Z</time>
      </trkpt>
      <trkpt lat="45.70408" lon="4.71788">
        <ele>319.2</ele>
        <time>2025-12-15T12:38:35Z</time>
      </trkpt>
      <trkpt lat="45.70408" lon="4.71783">
        <ele>319.2</ele>
        <time>2025-12-15T12:38:36Z</time>
      </trkpt>
      <trkpt lat="45.70409" lon="4.71777">
        <ele>319.4</ele>
        <time>2025-12-15T12:38:37Z</time>
      </trkpt>
      <trkpt lat="45.70409" lon="4.71771">
        <ele>319.6</ele>
        <time>2025-12-15T12:38:38Z</time>
      </trkpt>
      <trkpt lat="45.7041" lon="4.71766">
        <ele>319.8</ele>
        <time>2025-12-15T12:38:39Z</time>
      </trkpt>
      <trkpt lat="45.7041" lon="4.7176">
        <ele>320</ele>
        <time>2025-12-15T12:38:40Z</time>
      </trkpt>
      <trkpt lat="45.7041" lon="4.71754">
        <ele>320.2</ele>
        <time>2025-12-15T12:38:41Z</time>
      </trkpt>
      <trkpt lat="45.70411" lon="4.71748">
        <ele>320.4</ele>
        <time>2025-12-15T12:38:42Z</time>
      </trkpt>
      <trkpt lat="45.70411" lon="4.71743">
        <ele>320.4</ele>
        <time>2025-12-15T12:38:43Z</time>
      </trkpt>
      <trkpt lat="45.70412" lon="4.71737">
        <ele>320.6</ele>
        <time>2025-12-15T12:38:44Z</time>
      </trkpt>
      <trkpt lat="45.70412" lon="4.71731">
        <ele>320.8</ele>
        <time>2025-12-15T12:38:45Z</time>
      </trkpt>
      <trkpt lat="45.70413" lon="4.71725">
        <ele>320.8</ele>
        <time>2025-12-15T12:38:46Z</time>
      </trkpt>
      <trkpt lat="45.70414" lon="4.71719">
        <ele>321</ele>
        <time>2025-12-15T12:38:47Z</time>
      </trkpt>
      <trkpt lat="45.70414" lon="4.71713">
        <ele>321</ele>
        <time>2025-12-15T12:38:48Z</time>
      </trkpt>
      <trkpt lat="45.70415" lon="4.71707">
        <ele>321</ele>
        <time>2025-12-15T12:38:49Z</time>
      </trkpt>
      <trkpt lat="45.70415" lon="4.71701">
        <ele>321.2</ele>
        <time>2025-12-15T12:38:50Z</time>
      </trkpt>
      <trkpt lat="45.70416" lon="4.71695">
        <ele>321.2</ele>
        <time>2025-12-15T12:38:51Z</time>
      </trkpt>
      <trkpt lat="45.70416" lon="4.71688">
        <ele>321.2</ele>
        <time>2025-12-15T12:38:52Z</time>
      </trkpt>
      <trkpt lat="45.70417" lon="4.71681">
        <ele>321.2</ele>
        <time>2025-12-15T12:38:53Z</time>
      </trkpt>
      <trkpt lat="45.70417" lon="4.71674">
        <ele>321.4</ele>
        <time>2025-12-15T12:38:54Z</time>
      </trkpt>
      <trkpt lat="45.70418" lon="4.71668">
        <ele>321.4</ele>
        <time>2025-12-15T12:38:55Z</time>
      </trkpt>
      <trkpt lat="45.70419" lon="4.71661">
        <ele>321.4</ele>
        <time>2025-12-15T12:38:56Z</time>
      </trkpt>
      <trkpt lat="45.70419" lon="4.71654">
        <ele>321.4</ele>
        <time>2025-12-15T12:38:57Z</time>
      </trkpt>
      <trkpt lat="45.7042" lon="4.71647">
        <ele>321.4</ele>
        <time>2025-12-15T12:38:58Z</time>
      </trkpt>
      <trkpt lat="45.7042" lon="4.7164">
        <ele>321.4</ele>
        <time>2025-12-15T12:38:59Z</time>
      </trkpt>
      <trkpt lat="45.70421" lon="4.71633">
        <ele>321.4</ele>
        <time>2025-12-15T12:39:00Z</time>
      </trkpt>
      <trkpt lat="45.70422" lon="4.71626">
        <ele>321.4</ele>
        <time>2025-12-15T12:39:01Z</time>
      </trkpt>
      <trkpt lat="45.70422" lon="4.71619">
        <ele>321.4</ele>
        <time>2025-12-15T12:39:02Z</time>
      </trkpt>
      <trkpt lat="45.70423" lon="4.71612">
        <ele>321.4</ele>
        <time>2025-12-15T12:39:03Z</time>
      </trkpt>
      <trkpt lat="45.70424" lon="4.71606">
        <ele>321.4</ele>
        <time>2025-12-15T12:39:04Z</time>
      </trkpt>
      <trkpt lat="45.70425" lon="4.71599">
        <ele>321.2</ele>
        <time>2025-12-15T12:39:05Z</time>
      </trkpt>
      <trkpt lat="45.70426" lon="4.71592">
        <ele>321</ele>
        <time>2025-12-15T12:39:06Z</time>
      </trkpt>
      <trkpt lat="45.70427" lon="4.71585">
        <ele>320.8</ele>
        <time>2025-12-15T12:39:07Z</time>
      </trkpt>
      <trkpt lat="45.70428" lon="4.71577">
        <ele>320.6</ele>
        <time>2025-12-15T12:39:08Z</time>
      </trkpt>
      <trkpt lat="45.70429" lon="4.71569">
        <ele>320.4</ele>
        <time>2025-12-15T12:39:09Z</time>
      </trkpt>
      <trkpt lat="45.70431" lon="4.71562">
        <ele>320.2</ele>
        <time>2025-12-15T12:39:10Z</time>
      </trkpt>
      <trkpt lat="45.70433" lon="4.71554">
        <ele>320.2</ele>
        <time>2025-12-15T12:39:11Z</time>
      </trkpt>
      <trkpt lat="45.70435" lon="4.71547">
        <ele>320</ele>
        <time>2025-12-15T12:39:12Z</time>
      </trkpt>
      <trkpt lat="45.70437" lon="4.71539">
        <ele>319.8</ele>
        <time>2025-12-15T12:39:13Z</time>
      </trkpt>
      <trkpt lat="45.70439" lon="4.71531">
        <ele>319.4</ele>
        <time>2025-12-15T12:39:14Z</time>
      </trkpt>
      <trkpt lat="45.70442" lon="4.71523">
        <ele>319.2</ele>
        <time>2025-12-15T12:39:15Z</time>
      </trkpt>
      <trkpt lat="45.70443" lon="4.71515">
        <ele>319</ele>
        <time>2025-12-15T12:39:16Z</time>
      </trkpt>
      <trkpt lat="45.70445" lon="4.71507">
        <ele>318.8</ele>
        <time>2025-12-15T12:39:17Z</time>
      </trkpt>
      <trkpt lat="45.70447" lon="4.71499">
        <ele>318.6</ele>
        <time>2025-12-15T12:39:18Z</time>
      </trkpt>
      <trkpt lat="45.70449" lon="4.7149">
        <ele>318.2</ele>
        <time>2025-12-15T12:39:19Z</time>
      </trkpt>
      <trkpt lat="45.70451" lon="4.71482">
        <ele>318</ele>
        <time>2025-12-15T12:39:20Z</time>
      </trkpt>
      <trkpt lat="45.70454" lon="4.71473">
        <ele>317.8</ele>
        <time>2025-12-15T12:39:21Z</time>
      </trkpt>
      <trkpt lat="45.70456" lon="4.71465">
        <ele>317.4</ele>
        <time>2025-12-15T12:39:22Z</time>
      </trkpt>
      <trkpt lat="45.70458" lon="4.71456">
        <ele>317.2</ele>
        <time>2025-12-15T12:39:23Z</time>
      </trkpt>
      <trkpt lat="45.7046" lon="4.71448">
        <ele>317</ele>
        <time>2025-12-15T12:39:24Z</time>
      </trkpt>
      <trkpt lat="45.70463" lon="4.71439">
        <ele>316.8</ele>
        <time>2025-12-15T12:39:25Z</time>
      </trkpt>
      <trkpt lat="45.70465" lon="4.71431">
        <ele>316.6</ele>
        <time>2025-12-15T12:39:26Z</time>
      </trkpt>
      <trkpt lat="45.70468" lon="4.71423">
        <ele>316.4</ele>
        <time>2025-12-15T12:39:27Z</time>
      </trkpt>
      <trkpt lat="45.7047" lon="4.71414">
        <ele>316.2</ele>
        <time>2025-12-15T12:39:28Z</time>
      </trkpt>
      <trkpt lat="45.70473" lon="4.71406">
        <ele>316</ele>
        <time>2025-12-15T12:39:29Z</time>
      </trkpt>
      <trkpt lat="45.70476" lon="4.71399">
        <ele>315.6</ele>
        <time>2025-12-15T12:39:30Z</time>
      </trkpt>
      <trkpt lat="45.70479" lon="4.71391">
        <ele>315.4</ele>
        <time>2025-12-15T12:39:31Z</time>
      </trkpt>
      <trkpt lat="45.70482" lon="4.71382">
        <ele>315</ele>
        <time>2025-12-15T12:39:32Z</time>
      </trkpt>
      <trkpt lat="45.70486" lon="4.71374">
        <ele>314.8</ele>
        <time>2025-12-15T12:39:33Z</time>
      </trkpt>
      <trkpt lat="45.70489" lon="4.71365">
        <ele>314.4</ele>
        <time>2025-12-15T12:39:34Z</time>
      </trkpt>
      <trkpt lat="45.70493" lon="4.71356">
        <ele>314</ele>
        <time>2025-12-15T12:39:35Z</time>
      </trkpt>
      <trkpt lat="45.70497" lon="4.71346">
        <ele>313.6</ele>
        <time>2025-12-15T12:39:36Z</time>
      </trkpt>
      <trkpt lat="45.70501" lon="4.71337">
        <ele>313.2</ele>
        <time>2025-12-15T12:39:37Z</time>
      </trkpt>
      <trkpt lat="45.70505" lon="4.71327">
        <ele>312.6</ele>
        <time>2025-12-15T12:39:38Z</time>
      </trkpt>
      <trkpt lat="45.70508" lon="4.71316">
        <ele>312.2</ele>
        <time>2025-12-15T12:39:39Z</time>
      </trkpt>
      <trkpt lat="45.70511" lon="4.71306">
        <ele>311.8</ele>
        <time>2025-12-15T12:39:40Z</time>
      </trkpt>
      <trkpt lat="45.70514" lon="4.71295">
        <ele>311.4</ele>
        <time>2025-12-15T12:39:41Z</time>
      </trkpt>
      <trkpt lat="45.70517" lon="4.71284">
        <ele>311</ele>
        <time>2025-12-15T12:39:42Z</time>
      </trkpt>
      <trkpt lat="45.7052" lon="4.71274">
        <ele>310.4</ele>
        <time>2025-12-15T12:39:43Z</time>
      </trkpt>
      <trkpt lat="45.70523" lon="4.71263">
        <ele>310</ele>
        <time>2025-12-15T12:39:44Z</time>
      </trkpt>
      <trkpt lat="45.70526" lon="4.71253">
        <ele>309.4</ele>
        <time>2025-12-15T12:39:45Z</time>
      </trkpt>
      <trkpt lat="45.70529" lon="4.71242">
        <ele>309.2</ele>
        <time>2025-12-15T12:39:46Z</time>
      </trkpt>
      <trkpt lat="45.70532" lon="4.71231">
        <ele>309</ele>
        <time>2025-12-15T12:39:47Z</time>
      </trkpt>
      <trkpt lat="45.70535" lon="4.7122">
        <ele>308.8</ele>
        <time>2025-12-15T12:39:48Z</time>
      </trkpt>
      <trkpt lat="45.70537" lon="4.71209">
        <ele>308.4</ele>
        <time>2025-12-15T12:39:49Z</time>
      </trkpt>
      <trkpt lat="45.7054" lon="4.71198">
        <ele>308</ele>
        <time>2025-12-15T12:39:50Z</time>
      </trkpt>
      <trkpt lat="45.70542" lon="4.71187">
        <ele>307.6</ele>
        <time>2025-12-15T12:39:51Z</time>
      </trkpt>
      <trkpt lat="45.70544" lon="4.71176">
        <ele>307</ele>
        <time>2025-12-15T12:39:52Z</time>
      </trkpt>
      <trkpt lat="45.70546" lon="4.71165">
        <ele>306.4</ele>
        <time>2025-12-15T12:39:53Z</time>
      </trkpt>
      <trkpt lat="45.70548" lon="4.71155">
        <ele>306</ele>
        <time>2025-12-15T12:39:54Z</time>
      </trkpt>
      <trkpt lat="45.70549" lon="4.71145">
        <ele>305.8</ele>
        <time>2025-12-15T12:39:55Z</time>
      </trkpt>
      <trkpt lat="45.7055" lon="4.71135">
        <ele>305.6</ele>
        <time>2025-12-15T12:39:56Z</time>
      </trkpt>
      <trkpt lat="45.7055" lon="4.71125">
        <ele>305.6</ele>
        <time>2025-12-15T12:39:57Z</time>
      </trkpt>
      <trkpt lat="45.70551" lon="4.71114">
        <ele>305.6</ele>
        <time>2025-12-15T12:39:58Z</time>
      </trkpt>
      <trkpt lat="45.7055" lon="4.71105">
        <ele>305.6</ele>
        <time>2025-12-15T12:39:59Z</time>
      </trkpt>
      <trkpt lat="45.70549" lon="4.71096">
        <ele>305.4</ele>
        <time>2025-12-15T12:40:00Z</time>
      </trkpt>
      <trkpt lat="45.70548" lon="4.71087">
        <ele>305.2</ele>
        <time>2025-12-15T12:40:01Z</time>
      </trkpt>
      <trkpt lat="45.70546" lon="4.71079">
        <ele>305.2</ele>
        <time>2025-12-15T12:40:02Z</time>
      </trkpt>
      <trkpt lat="45.70544" lon="4.71071">
        <ele>305</ele>
        <time>2025-12-15T12:40:03Z</time>
      </trkpt>
      <trkpt lat="45.70543" lon="4.71063">
        <ele>305</ele>
        <time>2025-12-15T12:40:04Z</time>
      </trkpt>
      <trkpt lat="45.70542" lon="4.71055">
        <ele>304.8</ele>
        <time>2025-12-15T12:40:05Z</time>
      </trkpt>
      <trkpt lat="45.70541" lon="4.71047">
        <ele>304.8</ele>
        <time>2025-12-15T12:40:06Z</time>
      </trkpt>
      <trkpt lat="45.7054" lon="4.71039">
        <ele>305</ele>
        <time>2025-12-15T12:40:07Z</time>
      </trkpt>
      <trkpt lat="45.7054" lon="4.71031">
        <ele>305</ele>
        <time>2025-12-15T12:40:08Z</time>
      </trkpt>
      <trkpt lat="45.7054" lon="4.71023">
        <ele>305</ele>
        <time>2025-12-15T12:40:09Z</time>
      </trkpt>
      <trkpt lat="45.70541" lon="4.71015">
        <ele>305</ele>
        <time>2025-12-15T12:40:10Z</time>
      </trkpt>
      <trkpt lat="45.70542" lon="4.71006">
        <ele>305.2</ele>
        <time>2025-12-15T12:40:11Z</time>
      </trkpt>
      <trkpt lat="45.70543" lon="4.70998">
        <ele>305.2</ele>
        <time>2025-12-15T12:40:12Z</time>
      </trkpt>
      <trkpt lat="45.70544" lon="4.7099">
        <ele>305.4</ele>
        <time>2025-12-15T12:40:13Z</time>
      </trkpt>
      <trkpt lat="45.70545" lon="4.70982">
        <ele>305.4</ele>
        <time>2025-12-15T12:40:14Z</time>
      </trkpt>
      <trkpt lat="45.70546" lon="4.70974">
        <ele>305.4</ele>
        <time>2025-12-15T12:40:15Z</time>
      </trkpt>
      <trkpt lat="45.70547" lon="4.70966">
        <ele>305.2</ele>
        <time>2025-12-15T12:40:16Z</time>
      </trkpt>
      <trkpt lat="45.70548" lon="4.70958">
        <ele>305.2</ele>
        <time>2025-12-15T12:40:17Z</time>
      </trkpt>
      <trkpt lat="45.70549" lon="4.7095">
        <ele>305.2</ele>
        <time>2025-12-15T12:40:18Z</time>
      </trkpt>
      <trkpt lat="45.70549" lon="4.70943">
        <ele>305.4</ele>
        <time>2025-12-15T12:40:19Z</time>
      </trkpt>
      <trkpt lat="45.7055" lon="4.70935">
        <ele>305.4</ele>
        <time>2025-12-15T12:40:20Z</time>
      </trkpt>
      <trkpt lat="45.7055" lon="4.70928">
        <ele>305.6</ele>
        <time>2025-12-15T12:40:21Z</time>
      </trkpt>
      <trkpt lat="45.70551" lon="4.70922">
        <ele>305.8</ele>
        <time>2025-12-15T12:40:22Z</time>
      </trkpt>
      <trkpt lat="45.70553" lon="4.70915">
        <ele>306</ele>
        <time>2025-12-15T12:40:23Z</time>
      </trkpt>
      <trkpt lat="45.70555" lon="4.7091">
        <ele>306.2</ele>
        <time>2025-12-15T12:40:24Z</time>
      </trkpt>
      <trkpt lat="45.70558" lon="4.70904">
        <ele>306.2</ele>
        <time>2025-12-15T12:40:25Z</time>
      </trkpt>
      <trkpt lat="45.70561" lon="4.70898">
        <ele>306.2</ele>
        <time>2025-12-15T12:40:26Z</time>
      </trkpt>
      <trkpt lat="45.70564" lon="4.70892">
        <ele>306.2</ele>
        <time>2025-12-15T12:40:27Z</time>
      </trkpt>
      <trkpt lat="45.70567" lon="4.70887">
        <ele>306.2</ele>
        <time>2025-12-15T12:40:28Z</time>
      </trkpt>
      <trkpt lat="45.7057" lon="4.70881">
        <ele>306.2</ele>
        <time>2025-12-15T12:40:29Z</time>
      </trkpt>
      <trkpt lat="45.70574" lon="4.70876">
        <ele>306.4</ele>
        <time>2025-12-15T12:40:30Z</time>
      </trkpt>
      <trkpt lat="45.70577" lon="4.7087">
        <ele>306.6</ele>
        <time>2025-12-15T12:40:31Z</time>
      </trkpt>
      <trkpt lat="45.70581" lon="4.70864">
        <ele>306.8</ele>
        <time>2025-12-15T12:40:32Z</time>
      </trkpt>
      <trkpt lat="45.70585" lon="4.70859">
        <ele>307</ele>
        <time>2025-12-15T12:40:33Z</time>
      </trkpt>
      <trkpt lat="45.70589" lon="4.70853">
        <ele>307.2</ele>
        <time>2025-12-15T12:40:34Z</time>
      </trkpt>
      <trkpt lat="45.70593" lon="4.70847">
        <ele>307.2</ele>
        <time>2025-12-15T12:40:35Z</time>
      </trkpt>
      <trkpt lat="45.70597" lon="4.70841">
        <ele>307.4</ele>
        <time>2025-12-15T12:40:36Z</time>
      </trkpt>
      <trkpt lat="45.70601" lon="4.70836">
        <ele>307.4</ele>
        <time>2025-12-15T12:40:37Z</time>
      </trkpt>
      <trkpt lat="45.70605" lon="4.7083">
        <ele>307.4</ele>
        <time>2025-12-15T12:40:38Z</time>
      </trkpt>
      <trkpt lat="45.7061" lon="4.70824">
        <ele>307.6</ele>
        <time>2025-12-15T12:40:39Z</time>
      </trkpt>
      <trkpt lat="45.70614" lon="4.70819">
        <ele>307.6</ele>
        <time>2025-12-15T12:40:40Z</time>
      </trkpt>
      <trkpt lat="45.70618" lon="4.70813">
        <ele>307.4</ele>
        <time>2025-12-15T12:40:41Z</time>
      </trkpt>
      <trkpt lat="45.70622" lon="4.70807">
        <ele>307.4</ele>
        <time>2025-12-15T12:40:42Z</time>
      </trkpt>
      <trkpt lat="45.70626" lon="4.70802">
        <ele>307.6</ele>
        <time>2025-12-15T12:40:43Z</time>
      </trkpt>
      <trkpt lat="45.7063" lon="4.70796">
        <ele>307.6</ele>
        <time>2025-12-15T12:40:44Z</time>
      </trkpt>
      <trkpt lat="45.70634" lon="4.7079">
        <ele>307.8</ele>
        <time>2025-12-15T12:40:45Z</time>
      </trkpt>
      <trkpt lat="45.70638" lon="4.70785">
        <ele>307.8</ele>
        <time>2025-12-15T12:40:46Z</time>
      </trkpt>
      <trkpt lat="45.70642" lon="4.70779">
        <ele>308</ele>
        <time>2025-12-15T12:40:47Z</time>
      </trkpt>
      <trkpt lat="45.70646" lon="4.70774">
        <ele>308</ele>
        <time>2025-12-15T12:40:48Z</time>
      </trkpt>
      <trkpt lat="45.7065" lon="4.70769">
        <ele>308.2</ele>
        <time>2025-12-15T12:40:49Z</time>
      </trkpt>
      <trkpt lat="45.70653" lon="4.70763">
        <ele>308.2</ele>
        <time>2025-12-15T12:40:50Z</time>
      </trkpt>
      <trkpt lat="45.70657" lon="4.70758">
        <ele>308.4</ele>
        <time>2025-12-15T12:40:51Z</time>
      </trkpt>
      <trkpt lat="45.70661" lon="4.70752">
        <ele>308.6</ele>
        <time>2025-12-15T12:40:52Z</time>
      </trkpt>
      <trkpt lat="45.70665" lon="4.70747">
        <ele>308.8</ele>
        <time>2025-12-15T12:40:53Z</time>
      </trkpt>
      <trkpt lat="45.70669" lon="4.70742">
        <ele>309</ele>
        <time>2025-12-15T12:40:54Z</time>
      </trkpt>
      <trkpt lat="45.70673" lon="4.70737">
        <ele>309.2</ele>
        <time>2025-12-15T12:40:55Z</time>
      </trkpt>
      <trkpt lat="45.70677" lon="4.70732">
        <ele>309.6</ele>
        <time>2025-12-15T12:40:56Z</time>
      </trkpt>
      <trkpt lat="45.70681" lon="4.70727">
        <ele>309.8</ele>
        <time>2025-12-15T12:40:57Z</time>
      </trkpt>
      <trkpt lat="45.70685" lon="4.70722">
        <ele>310</ele>
        <time>2025-12-15T12:40:58Z</time>
      </trkpt>
      <trkpt lat="45.70689" lon="4.70716">
        <ele>310</ele>
        <time>2025-12-15T12:40:59Z</time>
      </trkpt>
      <trkpt lat="45.70693" lon="4.70711">
        <ele>310.2</ele>
        <time>2025-12-15T12:41:00Z</time>
      </trkpt>
      <trkpt lat="45.70696" lon="4.70706">
        <ele>310.4</ele>
        <time>2025-12-15T12:41:01Z</time>
      </trkpt>
      <trkpt lat="45.707" lon="4.707">
        <ele>310.6</ele>
        <time>2025-12-15T12:41:02Z</time>
      </trkpt>
      <trkpt lat="45.70703" lon="4.70695">
        <ele>310.8</ele>
        <time>2025-12-15T12:41:03Z</time>
      </trkpt>
      <trkpt lat="45.70707" lon="4.70689">
        <ele>311.2</ele>
        <time>2025-12-15T12:41:04Z</time>
      </trkpt>
      <trkpt lat="45.7071" lon="4.70684">
        <ele>311.4</ele>
        <time>2025-12-15T12:41:05Z</time>
      </trkpt>
      <trkpt lat="45.70714" lon="4.70678">
        <ele>311.8</ele>
        <time>2025-12-15T12:41:06Z</time>
      </trkpt>
      <trkpt lat="45.70717" lon="4.70673">
        <ele>312.2</ele>
        <time>2025-12-15T12:41:07Z</time>
      </trkpt>
      <trkpt lat="45.7072" lon="4.70668">
        <ele>312.4</ele>
        <time>2025-12-15T12:41:08Z</time>
      </trkpt>
      <trkpt lat="45.70723" lon="4.70663">
        <ele>312.8</ele>
        <time>2025-12-15T12:41:09Z</time>
      </trkpt>
      <trkpt lat="45.70726" lon="4.70658">
        <ele>313</ele>
        <time>2025-12-15T12:41:10Z</time>
      </trkpt>
      <trkpt lat="45.70729" lon="4.70653">
        <ele>313.4</ele>
        <time>2025-12-15T12:41:11Z</time>
      </trkpt>
      <trkpt lat="45.70731" lon="4.70647">
        <ele>313.6</ele>
        <time>2025-12-15T12:41:12Z</time>
      </trkpt>
      <trkpt lat="45.70735" lon="4.70642">
        <ele>314</ele>
        <time>2025-12-15T12:41:13Z</time>
      </trkpt>
      <trkpt lat="45.70737" lon="4.70637">
        <ele>314.2</ele>
        <time>2025-12-15T12:41:14Z</time>
      </trkpt>
      <trkpt lat="45.7074" lon="4.70632">
        <ele>314.4</ele>
        <time>2025-12-15T12:41:15Z</time>
      </trkpt>
      <trkpt lat="45.70743" lon="4.70627">
        <ele>314.6</ele>
        <time>2025-12-15T12:41:16Z</time>
      </trkpt>
      <trkpt lat="45.70746" lon="4.70622">
        <ele>314.8</ele>
        <time>2025-12-15T12:41:17Z</time>
      </trkpt>
      <trkpt lat="45.70749" lon="4.70616">
        <ele>315</ele>
        <time>2025-12-15T12:41:18Z</time>
      </trkpt>
      <trkpt lat="45.70752" lon="4.7061">
        <ele>315.2</ele>
        <time>2025-12-15T12:41:19Z</time>
      </trkpt>
      <trkpt lat="45.70755" lon="4.70604">
        <ele>315.2</ele>
        <time>2025-12-15T12:41:20Z</time>
      </trkpt>
      <trkpt lat="45.70758" lon="4.70599">
        <ele>315.4</ele>
        <time>2025-12-15T12:41:21Z</time>
      </trkpt>
      <trkpt lat="45.70761" lon="4.70593">
        <ele>315.6</ele>
        <time>2025-12-15T12:41:22Z</time>
      </trkpt>
      <trkpt lat="45.70765" lon="4.70588">
        <ele>315.6</ele>
        <time>2025-12-15T12:41:23Z</time>
      </trkpt>
      <trkpt lat="45.70768" lon="4.70582">
        <ele>315.8</ele>
        <time>2025-12-15T12:41:24Z</time>
      </trkpt>
      <trkpt lat="45.70771" lon="4.70577">
        <ele>316</ele>
        <time>2025-12-15T12:41:25Z</time>
      </trkpt>
      <trkpt lat="45.70774" lon="4.70571">
        <ele>316.2</ele>
        <time>2025-12-15T12:41:26Z</time>
      </trkpt>
      <trkpt lat="45.70777" lon="4.70565">
        <ele>316.4</ele>
        <time>2025-12-15T12:41:27Z</time>
      </trkpt>
      <trkpt lat="45.7078" lon="4.70558">
        <ele>316.6</ele>
        <time>2025-12-15T12:41:28Z</time>
      </trkpt>
      <trkpt lat="45.70782" lon="4.70552">
        <ele>316.6</ele>
        <time>2025-12-15T12:41:29Z</time>
      </trkpt>
      <trkpt lat="45.70785" lon="4.70545">
        <ele>316.8</ele>
        <time>2025-12-15T12:41:30Z</time>
      </trkpt>
      <trkpt lat="45.70787" lon="4.70539">
        <ele>316.8</ele>
        <time>2025-12-15T12:41:31Z</time>
      </trkpt>
      <trkpt lat="45.7079" lon="4.70532">
        <ele>316.6</ele>
        <time>2025-12-15T12:41:32Z</time>
      </trkpt>
      <trkpt lat="45.70792" lon="4.70526">
        <ele>316.6</ele>
        <time>2025-12-15T12:41:33Z</time>
      </trkpt>
      <trkpt lat="45.70794" lon="4.70518">
        <ele>316.4</ele>
        <time>2025-12-15T12:41:34Z</time>
      </trkpt>
      <trkpt lat="45.70796" lon="4.7051">
        <ele>316.4</ele>
        <time>2025-12-15T12:41:35Z</time>
      </trkpt>
      <trkpt lat="45.70798" lon="4.70502">
        <ele>316.6</ele>
        <time>2025-12-15T12:41:36Z</time>
      </trkpt>
      <trkpt lat="45.70799" lon="4.70494">
        <ele>316.6</ele>
        <time>2025-12-15T12:41:37Z</time>
      </trkpt>
      <trkpt lat="45.70801" lon="4.70487">
        <ele>316.4</ele>
        <time>2025-12-15T12:41:38Z</time>
      </trkpt>
      <trkpt lat="45.70802" lon="4.70479">
        <ele>316.2</ele>
        <time>2025-12-15T12:41:39Z</time>
      </trkpt>
      <trkpt lat="45.70804" lon="4.70472">
        <ele>316</ele>
        <time>2025-12-15T12:41:40Z</time>
      </trkpt>
      <trkpt lat="45.70805" lon="4.70464">
        <ele>316</ele>
        <time>2025-12-15T12:41:41Z</time>
      </trkpt>
      <trkpt lat="45.70807" lon="4.70456">
        <ele>315.8</ele>
        <time>2025-12-15T12:41:42Z</time>
      </trkpt>
      <trkpt lat="45.70808" lon="4.70449">
        <ele>315.8</ele>
        <time>2025-12-15T12:41:43Z</time>
      </trkpt>
      <trkpt lat="45.70809" lon="4.70441">
        <ele>316</ele>
        <time>2025-12-15T12:41:44Z</time>
      </trkpt>
      <trkpt lat="45.70811" lon="4.70435">
        <ele>315.8</ele>
        <time>2025-12-15T12:41:45Z</time>
      </trkpt>
      <trkpt lat="45.70812" lon="4.70428">
        <ele>315.8</ele>
        <time>2025-12-15T12:41:46Z</time>
      </trkpt>
      <trkpt lat="45.70814" lon="4.70423">
        <ele>315.8</ele>
        <time>2025-12-15T12:41:47Z</time>
      </trkpt>
      <trkpt lat="45.70816" lon="4.70419">
        <ele>315.8</ele>
        <time>2025-12-15T12:41:48Z</time>
      </trkpt>
      <trkpt lat="45.70818" lon="4.70416">
        <ele>315.8</ele>
        <time>2025-12-15T12:41:49Z</time>
      </trkpt>
      <trkpt lat="45.70821" lon="4.70417">
        <ele>316</ele>
        <time>2025-12-15T12:41:50Z</time>
      </trkpt>
      <trkpt lat="45.70825" lon="4.70419">
        <ele>316</ele>
        <time>2025-12-15T12:41:51Z</time>
      </trkpt>
      <trkpt lat="45.7083" lon="4.70422">
        <ele>316</ele>
        <time>2025-12-15T12:41:52Z</time>
      </trkpt>
      <trkpt lat="45.70834" lon="4.70426">
        <ele>315.8</ele>
        <time>2025-12-15T12:41:53Z</time>
      </trkpt>
      <trkpt lat="45.70838" lon="4.70431">
        <ele>315.8</ele>
        <time>2025-12-15T12:41:54Z</time>
      </trkpt>
      <trkpt lat="45.70842" lon="4.70436">
        <ele>315.6</ele>
        <time>2025-12-15T12:41:55Z</time>
      </trkpt>
      <trkpt lat="45.70847" lon="4.70441">
        <ele>315.4</ele>
        <time>2025-12-15T12:41:56Z</time>
      </trkpt>
      <trkpt lat="45.70851" lon="4.70445">
        <ele>315.2</ele>
        <time>2025-12-15T12:41:57Z</time>
      </trkpt>
      <trkpt lat="45.70856" lon="4.7045">
        <ele>315.2</ele>
        <time>2025-12-15T12:41:58Z</time>
      </trkpt>
      <trkpt lat="45.70861" lon="4.70455">
        <ele>315</ele>
        <time>2025-12-15T12:41:59Z</time>
      </trkpt>
      <trkpt lat="45.70866" lon="4.7046">
        <ele>315</ele>
        <time>2025-12-15T12:42:00Z</time>
      </trkpt>
      <trkpt lat="45.7087" lon="4.70465">
        <ele>315</ele>
        <time>2025-12-15T12:42:01Z</time>
      </trkpt>
      <trkpt lat="45.70875" lon="4.70468">
        <ele>315</ele>
        <time>2025-12-15T12:42:02Z</time>
      </trkpt>
      <trkpt lat="45.70881" lon="4.7047">
        <ele>315</ele>
        <time>2025-12-15T12:42:03Z</time>
      </trkpt>
      <trkpt lat="45.70886" lon="4.7047">
        <ele>314.8</ele>
        <time>2025-12-15T12:42:04Z</time>
      </trkpt>
      <trkpt lat="45.70891" lon="4.70467">
        <ele>314.8</ele>
        <time>2025-12-15T12:42:05Z</time>
      </trkpt>
      <trkpt lat="45.70895" lon="4.70462">
        <ele>314.6</ele>
        <time>2025-12-15T12:42:06Z</time>
      </trkpt>
      <trkpt lat="45.70899" lon="4.70457">
        <ele>314.6</ele>
        <time>2025-12-15T12:42:07Z</time>
      </trkpt>
      <trkpt lat="45.70902" lon="4.7045">
        <ele>314.6</ele>
        <time>2025-12-15T12:42:08Z</time>
      </trkpt>
      <trkpt lat="45.70906" lon="4.70445">
        <ele>314.6</ele>
        <time>2025-12-15T12:42:09Z</time>
      </trkpt>
      <trkpt lat="45.70909" lon="4.70439">
        <ele>314.4</ele>
        <time>2025-12-15T12:42:10Z</time>
      </trkpt>
      <trkpt lat="45.70913" lon="4.70433">
        <ele>314.4</ele>
        <time>2025-12-15T12:42:11Z</time>
      </trkpt>
      <trkpt lat="45.70916" lon="4.70428">
        <ele>314.4</ele>
        <time>2025-12-15T12:42:12Z</time>
      </trkpt>
      <trkpt lat="45.70919" lon="4.70424">
        <ele>314.6</ele>
        <time>2025-12-15T12:42:13Z</time>
      </trkpt>
      <trkpt lat="45.70921" lon="4.70422">
        <ele>314.6</ele>
        <time>2025-12-15T12:42:14Z</time>
      </trkpt>
      <trkpt lat="45.70923" lon="4.70418">
        <ele>314.6</ele>
        <time>2025-12-15T12:42:15Z</time>
      </trkpt>
      <trkpt lat="45.70923" lon="4.70413">
        <ele>314.6</ele>
        <time>2025-12-15T12:42:16Z</time>
      </trkpt>
      <trkpt lat="45.70923" lon="4.70408">
        <ele>314.6</ele>
        <time>2025-12-15T12:42:17Z</time>
      </trkpt>
      <trkpt lat="45.70923" lon="4.70402">
        <ele>314.4</ele>
        <time>2025-12-15T12:42:18Z</time>
      </trkpt>
      <trkpt lat="45.70923" lon="4.70396">
        <ele>314</ele>
        <time>2025-12-15T12:42:19Z</time>
      </trkpt>
      <trkpt lat="45.70925" lon="4.70391">
        <ele>313.8</ele>
        <time>2025-12-15T12:42:20Z</time>
      </trkpt>
      <trkpt lat="45.70928" lon="4.70385">
        <ele>313.6</ele>
        <time>2025-12-15T12:42:21Z</time>
      </trkpt>
      <trkpt lat="45.7093" lon="4.70379">
        <ele>313.6</ele>
        <time>2025-12-15T12:42:22Z</time>
      </trkpt>
      <trkpt lat="45.70934" lon="4.70372">
        <ele>313.4</ele>
        <time>2025-12-15T12:42:23Z</time>
      </trkpt>
      <trkpt lat="45.70937" lon="4.70365">
        <ele>313.2</ele>
        <time>2025-12-15T12:42:24Z</time>
      </trkpt>
      <trkpt lat="45.7094" lon="4.70358">
        <ele>313</ele>
        <time>2025-12-15T12:42:25Z</time>
      </trkpt>
      <trkpt lat="45.70944" lon="4.70351">
        <ele>312.8</ele>
        <time>2025-12-15T12:42:26Z</time>
      </trkpt>
      <trkpt lat="45.70948" lon="4.70343">
        <ele>312.6</ele>
        <time>2025-12-15T12:42:27Z</time>
      </trkpt>
      <trkpt lat="45.70951" lon="4.70336">
        <ele>312.2</ele>
        <time>2025-12-15T12:42:28Z</time>
      </trkpt>
      <trkpt lat="45.70955" lon="4.70329">
        <ele>312</ele>
        <time>2025-12-15T12:42:29Z</time>
      </trkpt>
      <trkpt lat="45.70958" lon="4.70321">
        <ele>311.8</ele>
        <time>2025-12-15T12:42:30Z</time>
      </trkpt>
      <trkpt lat="45.70962" lon="4.70314">
        <ele>311.8</ele>
        <time>2025-12-15T12:42:31Z</time>
      </trkpt>
      <trkpt lat="45.70965" lon="4.70307">
        <ele>311.6</ele>
        <time>2025-12-15T12:42:32Z</time>
      </trkpt>
      <trkpt lat="45.70968" lon="4.703">
        <ele>311.4</ele>
        <time>2025-12-15T12:42:33Z</time>
      </trkpt>
      <trkpt lat="45.70972" lon="4.70292">
        <ele>311.2</ele>
        <time>2025-12-15T12:42:34Z</time>
      </trkpt>
      <trkpt lat="45.70975" lon="4.70285">
        <ele>311.2</ele>
        <time>2025-12-15T12:42:35Z</time>
      </trkpt>
      <trkpt lat="45.70979" lon="4.70277">
        <ele>311</ele>
        <time>2025-12-15T12:42:36Z</time>
      </trkpt>
      <trkpt lat="45.70982" lon="4.7027">
        <ele>311</ele>
        <time>2025-12-15T12:42:37Z</time>
      </trkpt>
      <trkpt lat="45.70986" lon="4.70263">
        <ele>310.8</ele>
        <time>2025-12-15T12:42:38Z</time>
      </trkpt>
      <trkpt lat="45.70989" lon="4.70256">
        <ele>310.8</ele>
        <time>2025-12-15T12:42:39Z</time>
      </trkpt>
      <trkpt lat="45.70992" lon="4.70249">
        <ele>310.6</ele>
        <time>2025-12-15T12:42:40Z</time>
      </trkpt>
      <trkpt lat="45.70996" lon="4.70242">
        <ele>310.4</ele>
        <time>2025-12-15T12:42:41Z</time>
      </trkpt>
      <trkpt lat="45.70999" lon="4.70235">
        <ele>310.4</ele>
        <time>2025-12-15T12:42:42Z</time>
      </trkpt>
      <trkpt lat="45.71002" lon="4.70228">
        <ele>310.4</ele>
        <time>2025-12-15T12:42:43Z</time>
      </trkpt>
      <trkpt lat="45.71006" lon="4.70221">
        <ele>310.4</ele>
        <time>2025-12-15T12:42:44Z</time>
      </trkpt>
      <trkpt lat="45.71009" lon="4.70215">
        <ele>310.4</ele>
        <time>2025-12-15T12:42:45Z</time>
      </trkpt>
      <trkpt lat="45.71012" lon="4.70208">
        <ele>310.4</ele>
        <time>2025-12-15T12:42:46Z</time>
      </trkpt>
      <trkpt lat="45.71015" lon="4.70201">
        <ele>310.4</ele>
        <time>2025-12-15T12:42:47Z</time>
      </trkpt>
      <trkpt lat="45.71019" lon="4.70194">
        <ele>310.4</ele>
        <time>2025-12-15T12:42:48Z</time>
      </trkpt>
      <trkpt lat="45.71022" lon="4.70187">
        <ele>310.4</ele>
        <time>2025-12-15T12:42:49Z</time>
      </trkpt>
      <trkpt lat="45.71025" lon="4.70179">
        <ele>310.4</ele>
        <time>2025-12-15T12:42:50Z</time>
      </trkpt>
      <trkpt lat="45.71029" lon="4.70172">
        <ele>310.4</ele>
        <time>2025-12-15T12:42:51Z</time>
      </trkpt>
      <trkpt lat="45.71032" lon="4.70165">
        <ele>310.2</ele>
        <time>2025-12-15T12:42:52Z</time>
      </trkpt>
      <trkpt lat="45.71036" lon="4.70158">
        <ele>310.2</ele>
        <time>2025-12-15T12:42:53Z</time>
      </trkpt>
      <trkpt lat="45.71039" lon="4.70151">
        <ele>310.2</ele>
        <time>2025-12-15T12:42:54Z</time>
      </trkpt>
      <trkpt lat="45.71043" lon="4.70144">
        <ele>310</ele>
        <time>2025-12-15T12:42:55Z</time>
      </trkpt>
      <trkpt lat="45.71047" lon="4.70137">
        <ele>309.8</ele>
        <time>2025-12-15T12:42:56Z</time>
      </trkpt>
      <trkpt lat="45.7105" lon="4.70131">
        <ele>309.8</ele>
        <time>2025-12-15T12:42:57Z</time>
      </trkpt>
      <trkpt lat="45.71053" lon="4.70123">
        <ele>309.6</ele>
        <time>2025-12-15T12:42:58Z</time>
      </trkpt>
      <trkpt lat="45.71057" lon="4.70116">
        <ele>309.6</ele>
        <time>2025-12-15T12:42:59Z</time>
      </trkpt>
      <trkpt lat="45.7106" lon="4.70109">
        <ele>309.6</ele>
        <time>2025-12-15T12:43:00Z</time>
      </trkpt>
      <trkpt lat="45.71063" lon="4.70102">
        <ele>309.6</ele>
        <time>2025-12-15T12:43:01Z</time>
      </trkpt>
      <trkpt lat="45.71067" lon="4.70096">
        <ele>309.6</ele>
        <time>2025-12-15T12:43:02Z</time>
      </trkpt>
      <trkpt lat="45.7107" lon="4.7009">
        <ele>309.6</ele>
        <time>2025-12-15T12:43:03Z</time>
      </trkpt>
      <trkpt lat="45.71074" lon="4.70083">
        <ele>309.6</ele>
        <time>2025-12-15T12:43:04Z</time>
      </trkpt>
      <trkpt lat="45.71078" lon="4.70077">
        <ele>309.6</ele>
        <time>2025-12-15T12:43:05Z</time>
      </trkpt>
      <trkpt lat="45.71081" lon="4.70071">
        <ele>309.8</ele>
        <time>2025-12-15T12:43:06Z</time>
      </trkpt>
      <trkpt lat="45.71085" lon="4.70064">
        <ele>309.8</ele>
        <time>2025-12-15T12:43:07Z</time>
      </trkpt>
      <trkpt lat="45.71089" lon="4.70058">
        <ele>310</ele>
        <time>2025-12-15T12:43:08Z</time>
      </trkpt>
      <trkpt lat="45.71093" lon="4.70052">
        <ele>310</ele>
        <time>2025-12-15T12:43:09Z</time>
      </trkpt>
      <trkpt lat="45.71097" lon="4.70046">
        <ele>310</ele>
        <time>2025-12-15T12:43:10Z</time>
      </trkpt>
      <trkpt lat="45.71101" lon="4.7004">
        <ele>310</ele>
        <time>2025-12-15T12:43:11Z</time>
      </trkpt>
      <trkpt lat="45.71104" lon="4.70033">
        <ele>310</ele>
        <time>2025-12-15T12:43:12Z</time>
      </trkpt>
      <trkpt lat="45.71108" lon="4.70027">
        <ele>310</ele>
        <time>2025-12-15T12:43:13Z</time>
      </trkpt>
      <trkpt lat="45.71112" lon="4.70021">
        <ele>310</ele>
        <time>2025-12-15T12:43:14Z</time>
      </trkpt>
      <trkpt lat="45.71116" lon="4.70015">
        <ele>310</ele>
        <time>2025-12-15T12:43:15Z</time>
      </trkpt>
      <trkpt lat="45.7112" lon="4.7001">
        <ele>310.2</ele>
        <time>2025-12-15T12:43:16Z</time>
      </trkpt>
      <trkpt lat="45.71124" lon="4.70004">
        <ele>310.2</ele>
        <time>2025-12-15T12:43:17Z</time>
      </trkpt>
      <trkpt lat="45.71128" lon="4.69998">
        <ele>310.2</ele>
        <time>2025-12-15T12:43:18Z</time>
      </trkpt>
      <trkpt lat="45.71131" lon="4.69992">
        <ele>310.4</ele>
        <time>2025-12-15T12:43:19Z</time>
      </trkpt>
      <trkpt lat="45.71135" lon="4.69987">
        <ele>310.4</ele>
        <time>2025-12-15T12:43:20Z</time>
      </trkpt>
      <trkpt lat="45.71139" lon="4.69981">
        <ele>310.6</ele>
        <time>2025-12-15T12:43:21Z</time>
      </trkpt>
      <trkpt lat="45.71143" lon="4.69975">
        <ele>310.6</ele>
        <time>2025-12-15T12:43:22Z</time>
      </trkpt>
      <trkpt lat="45.71147" lon="4.69969">
        <ele>310.6</ele>
        <time>2025-12-15T12:43:23Z</time>
      </trkpt>
      <trkpt lat="45.71151" lon="4.69963">
        <ele>310.6</ele>
        <time>2025-12-15T12:43:24Z</time>
      </trkpt>
      <trkpt lat="45.71155" lon="4.69957">
        <ele>310.6</ele>
        <time>2025-12-15T12:43:25Z</time>
      </trkpt>
      <trkpt lat="45.71158" lon="4.69951">
        <ele>310.8</ele>
        <time>2025-12-15T12:43:26Z</time>
      </trkpt>
      <trkpt lat="45.71162" lon="4.69945">
        <ele>310.8</ele>
        <time>2025-12-15T12:43:27Z</time>
      </trkpt>
      <trkpt lat="45.71166" lon="4.69939">
        <ele>310.8</ele>
        <time>2025-12-15T12:43:28Z</time>
      </trkpt>
      <trkpt lat="45.7117" lon="4.69933">
        <ele>311</ele>
        <time>2025-12-15T12:43:29Z</time>
      </trkpt>
      <trkpt lat="45.71173" lon="4.69928">
        <ele>311</ele>
        <time>2025-12-15T12:43:30Z</time>
      </trkpt>
      <trkpt lat="45.71177" lon="4.69922">
        <ele>311.2</ele>
        <time>2025-12-15T12:43:31Z</time>
      </trkpt>
      <trkpt lat="45.71181" lon="4.69916">
        <ele>311.2</ele>
        <time>2025-12-15T12:43:32Z</time>
      </trkpt>
      <trkpt lat="45.71185" lon="4.6991">
        <ele>311.4</ele>
        <time>2025-12-15T12:43:33Z</time>
      </trkpt>
      <trkpt lat="45.71189" lon="4.69904">
        <ele>311.4</ele>
        <time>2025-12-15T12:43:34Z</time>
      </trkpt>
      <trkpt lat="45.71193" lon="4.69899">
        <ele>311.6</ele>
        <time>2025-12-15T12:43:35Z</time>
      </trkpt>
      <trkpt lat="45.71197" lon="4.69893">
        <ele>311.6</ele>
        <time>2025-12-15T12:43:36Z</time>
      </trkpt>
      <trkpt lat="45.712" lon="4.69887">
        <ele>311.6</ele>
        <time>2025-12-15T12:43:37Z</time>
      </trkpt>
      <trkpt lat="45.71204" lon="4.69881">
        <ele>311.6</ele>
        <time>2025-12-15T12:43:38Z</time>
      </trkpt>
      <trkpt lat="45.71207" lon="4.69874">
        <ele>311.6</ele>
        <time>2025-12-15T12:43:39Z</time>
      </trkpt>
      <trkpt lat="45.71211" lon="4.69868">
        <ele>311.8</ele>
        <time>2025-12-15T12:43:40Z</time>
      </trkpt>
      <trkpt lat="45.71214" lon="4.69862">
        <ele>311.8</ele>
        <time>2025-12-15T12:43:41Z</time>
      </trkpt>
      <trkpt lat="45.71218" lon="4.69855">
        <ele>311.8</ele>
        <time>2025-12-15T12:43:42Z</time>
      </trkpt>
      <trkpt lat="45.71221" lon="4.69848">
        <ele>312</ele>
        <time>2025-12-15T12:43:43Z</time>
      </trkpt>
      <trkpt lat="45.71224" lon="4.69841">
        <ele>312</ele>
        <time>2025-12-15T12:43:44Z</time>
      </trkpt>
      <trkpt lat="45.71227" lon="4.69835">
        <ele>312</ele>
        <time>2025-12-15T12:43:45Z</time>
      </trkpt>
      <trkpt lat="45.71231" lon="4.69827">
        <ele>312</ele>
        <time>2025-12-15T12:43:46Z</time>
      </trkpt>
      <trkpt lat="45.71234" lon="4.6982">
        <ele>312</ele>
        <time>2025-12-15T12:43:47Z</time>
      </trkpt>
      <trkpt lat="45.71237" lon="4.69813">
        <ele>312</ele>
        <time>2025-12-15T12:43:48Z</time>
      </trkpt>
      <trkpt lat="45.71241" lon="4.69806">
        <ele>311.8</ele>
        <time>2025-12-15T12:43:49Z</time>
      </trkpt>
      <trkpt lat="45.71244" lon="4.69799">
        <ele>312</ele>
        <time>2025-12-15T12:43:50Z</time>
      </trkpt>
      <trkpt lat="45.71247" lon="4.69792">
        <ele>312</ele>
        <time>2025-12-15T12:43:51Z</time>
      </trkpt>
      <trkpt lat="45.7125" lon="4.69786">
        <ele>312</ele>
        <time>2025-12-15T12:43:52Z</time>
      </trkpt>
      <trkpt lat="45.71254" lon="4.69779">
        <ele>312.2</ele>
        <time>2025-12-15T12:43:53Z</time>
      </trkpt>
      <trkpt lat="45.71257" lon="4.69772">
        <ele>312.2</ele>
        <time>2025-12-15T12:43:54Z</time>
      </trkpt>
      <trkpt lat="45.7126" lon="4.69765">
        <ele>312.4</ele>
        <time>2025-12-15T12:43:55Z</time>
      </trkpt>
      <trkpt lat="45.71262" lon="4.69759">
        <ele>312.6</ele>
        <time>2025-12-15T12:43:56Z</time>
      </trkpt>
      <trkpt lat="45.71265" lon="4.69752">
        <ele>312.8</ele>
        <time>2025-12-15T12:43:57Z</time>
      </trkpt>
      <trkpt lat="45.71268" lon="4.69745">
        <ele>312.8</ele>
        <time>2025-12-15T12:43:58Z</time>
      </trkpt>
      <trkpt lat="45.71271" lon="4.69739">
        <ele>313</ele>
        <time>2025-12-15T12:43:59Z</time>
      </trkpt>
      <trkpt lat="45.71275" lon="4.69733">
        <ele>313</ele>
        <time>2025-12-15T12:44:00Z</time>
      </trkpt>
      <trkpt lat="45.71277" lon="4.69728">
        <ele>313</ele>
        <time>2025-12-15T12:44:01Z</time>
      </trkpt>
      <trkpt lat="45.7128" lon="4.69722">
        <ele>313.2</ele>
        <time>2025-12-15T12:44:02Z</time>
      </trkpt>
      <trkpt lat="45.71283" lon="4.69716">
        <ele>313.2</ele>
        <time>2025-12-15T12:44:03Z</time>
      </trkpt>
      <trkpt lat="45.71286" lon="4.69709">
        <ele>313.2</ele>
        <time>2025-12-15T12:44:04Z</time>
      </trkpt>
      <trkpt lat="45.7129" lon="4.69703">
        <ele>313.4</ele>
        <time>2025-12-15T12:44:05Z</time>
      </trkpt>
      <trkpt lat="45.71293" lon="4.69697">
        <ele>313.4</ele>
        <time>2025-12-15T12:44:06Z</time>
      </trkpt>
      <trkpt lat="45.71295" lon="4.69691">
        <ele>313.4</ele>
        <time>2025-12-15T12:44:07Z</time>
      </trkpt>
      <trkpt lat="45.71298" lon="4.69684">
        <ele>313.4</ele>
        <time>2025-12-15T12:44:08Z</time>
      </trkpt>
      <trkpt lat="45.71301" lon="4.69678">
        <ele>313.6</ele>
        <time>2025-12-15T12:44:09Z</time>
      </trkpt>
      <trkpt lat="45.71304" lon="4.69672">
        <ele>313.6</ele>
        <time>2025-12-15T12:44:10Z</time>
      </trkpt>
      <trkpt lat="45.71308" lon="4.69666">
        <ele>313.8</ele>
        <time>2025-12-15T12:44:11Z</time>
      </trkpt>
      <trkpt lat="45.71311" lon="4.6966">
        <ele>313.8</ele>
        <time>2025-12-15T12:44:12Z</time>
      </trkpt>
      <trkpt lat="45.71314" lon="4.69653">
        <ele>313.8</ele>
        <time>2025-12-15T12:44:13Z</time>
      </trkpt>
      <trkpt lat="45.71317" lon="4.69647">
        <ele>313.8</ele>
        <time>2025-12-15T12:44:14Z</time>
      </trkpt>
      <trkpt lat="45.7132" lon="4.6964">
        <ele>314</ele>
        <time>2025-12-15T12:44:15Z</time>
      </trkpt>
      <trkpt lat="45.71323" lon="4.69634">
        <ele>314</ele>
        <time>2025-12-15T12:44:16Z</time>
      </trkpt>
      <trkpt lat="45.71326" lon="4.69627">
        <ele>314</ele>
        <time>2025-12-15T12:44:17Z</time>
      </trkpt>
      <trkpt lat="45.71329" lon="4.6962">
        <ele>314.2</ele>
        <time>2025-12-15T12:44:18Z</time>
      </trkpt>
      <trkpt lat="45.71333" lon="4.69613">
        <ele>314.2</ele>
        <time>2025-12-15T12:44:19Z</time>
      </trkpt>
      <trkpt lat="45.71336" lon="4.69606">
        <ele>314.4</ele>
        <time>2025-12-15T12:44:20Z</time>
      </trkpt>
      <trkpt lat="45.71339" lon="4.69599">
        <ele>314.4</ele>
        <time>2025-12-15T12:44:21Z</time>
      </trkpt>
      <trkpt lat="45.71342" lon="4.69593">
        <ele>314.2</ele>
        <time>2025-12-15T12:44:22Z</time>
      </trkpt>
      <trkpt lat="45.71346" lon="4.69586">
        <ele>314.2</ele>
        <time>2025-12-15T12:44:23Z</time>
      </trkpt>
      <trkpt lat="45.71349" lon="4.69579">
        <ele>314</ele>
        <time>2025-12-15T12:44:24Z</time>
      </trkpt>
      <trkpt lat="45.71352" lon="4.69572">
        <ele>314</ele>
        <time>2025-12-15T12:44:25Z</time>
      </trkpt>
      <trkpt lat="45.71355" lon="4.69565">
        <ele>314</ele>
        <time>2025-12-15T12:44:26Z</time>
      </trkpt>
      <trkpt lat="45.71358" lon="4.69558">
        <ele>314</ele>
        <time>2025-12-15T12:44:27Z</time>
      </trkpt>
      <trkpt lat="45.71361" lon="4.69551">
        <ele>314</ele>
        <time>2025-12-15T12:44:28Z</time>
      </trkpt>
      <trkpt lat="45.71364" lon="4.69544">
        <ele>314.2</ele>
        <time>2025-12-15T12:44:29Z</time>
      </trkpt>
      <trkpt lat="45.71368" lon="4.69537">
        <ele>314.4</ele>
        <time>2025-12-15T12:44:30Z</time>
      </trkpt>
      <trkpt lat="45.71371" lon="4.69531">
        <ele>314.4</ele>
        <time>2025-12-15T12:44:31Z</time>
      </trkpt>
      <trkpt lat="45.71374" lon="4.69525">
        <ele>314.6</ele>
        <time>2025-12-15T12:44:32Z</time>
      </trkpt>
      <trkpt lat="45.71377" lon="4.69518">
        <ele>314.8</ele>
        <time>2025-12-15T12:44:33Z</time>
      </trkpt>
      <trkpt lat="45.7138" lon="4.69512">
        <ele>314.8</ele>
        <time>2025-12-15T12:44:34Z</time>
      </trkpt>
      <trkpt lat="45.71383" lon="4.69506">
        <ele>314.8</ele>
        <time>2025-12-15T12:44:35Z</time>
      </trkpt>
      <trkpt lat="45.71385" lon="4.69499">
        <ele>315</ele>
        <time>2025-12-15T12:44:36Z</time>
      </trkpt>
      <trkpt lat="45.71388" lon="4.69493">
        <ele>315.2</ele>
        <time>2025-12-15T12:44:37Z</time>
      </trkpt>
      <trkpt lat="45.71391" lon="4.69488">
        <ele>315.4</ele>
        <time>2025-12-15T12:44:38Z</time>
      </trkpt>
      <trkpt lat="45.71394" lon="4.69482">
        <ele>315.4</ele>
        <time>2025-12-15T12:44:39Z</time>
      </trkpt>
      <trkpt lat="45.71397" lon="4.69476">
        <ele>315.6</ele>
        <time>2025-12-15T12:44:40Z</time>
      </trkpt>
      <trkpt lat="45.714" lon="4.6947">
        <ele>315.6</ele>
        <time>2025-12-15T12:44:41Z</time>
      </trkpt>
      <trkpt lat="45.71403" lon="4.69463">
        <ele>315.8</ele>
        <time>2025-12-15T12:44:42Z</time>
      </trkpt>
      <trkpt lat="45.71406" lon="4.69457">
        <ele>315.8</ele>
        <time>2025-12-15T12:44:43Z</time>
      </trkpt>
      <trkpt lat="45.71409" lon="4.69451">
        <ele>315.8</ele>
        <time>2025-12-15T12:44:44Z</time>
      </trkpt>
      <trkpt lat="45.71412" lon="4.69445">
        <ele>316</ele>
        <time>2025-12-15T12:44:45Z</time>
      </trkpt>
      <trkpt lat="45.71416" lon="4.69439">
        <ele>316</ele>
        <time>2025-12-15T12:44:46Z</time>
      </trkpt>
      <trkpt lat="45.71419" lon="4.69434">
        <ele>316</ele>
        <time>2025-12-15T12:44:47Z</time>
      </trkpt>
      <trkpt lat="45.71422" lon="4.69428">
        <ele>316</ele>
        <time>2025-12-15T12:44:48Z</time>
      </trkpt>
      <trkpt lat="45.71425" lon="4.69422">
        <ele>316</ele>
        <time>2025-12-15T12:44:49Z</time>
      </trkpt>
      <trkpt lat="45.71429" lon="4.69417">
        <ele>316</ele>
        <time>2025-12-15T12:44:50Z</time>
      </trkpt>
      <trkpt lat="45.71432" lon="4.69412">
        <ele>316.2</ele>
        <time>2025-12-15T12:44:51Z</time>
      </trkpt>
      <trkpt lat="45.71435" lon="4.69407">
        <ele>316.2</ele>
        <time>2025-12-15T12:44:52Z</time>
      </trkpt>
      <trkpt lat="45.71439" lon="4.69401">
        <ele>316.2</ele>
        <time>2025-12-15T12:44:53Z</time>
      </trkpt>
      <trkpt lat="45.71442" lon="4.69396">
        <ele>316.2</ele>
        <time>2025-12-15T12:44:54Z</time>
      </trkpt>
      <trkpt lat="45.71445" lon="4.69392">
        <ele>316.2</ele>
        <time>2025-12-15T12:44:55Z</time>
      </trkpt>
      <trkpt lat="45.71448" lon="4.69387">
        <ele>316.4</ele>
        <time>2025-12-15T12:44:56Z</time>
      </trkpt>
      <trkpt lat="45.71451" lon="4.69382">
        <ele>316.6</ele>
        <time>2025-12-15T12:44:57Z</time>
      </trkpt>
      <trkpt lat="45.71454" lon="4.69378">
        <ele>316.6</ele>
        <time>2025-12-15T12:44:58Z</time>
      </trkpt>
      <trkpt lat="45.71456" lon="4.69373">
        <ele>316.8</ele>
        <time>2025-12-15T12:44:59Z</time>
      </trkpt>
      <trkpt lat="45.71459" lon="4.69369">
        <ele>316.8</ele>
        <time>2025-12-15T12:45:00Z</time>
      </trkpt>
      <trkpt lat="45.71462" lon="4.69365">
        <ele>316.8</ele>
        <time>2025-12-15T12:45:01Z</time>
      </trkpt>
      <trkpt lat="45.71465" lon="4.69361">
        <ele>317</ele>
        <time>2025-12-15T12:45:02Z</time>
      </trkpt>
      <trkpt lat="45.71467" lon="4.69357">
        <ele>317</ele>
        <time>2025-12-15T12:45:03Z</time>
      </trkpt>
      <trkpt lat="45.7147" lon="4.69352">
        <ele>316.8</ele>
        <time>2025-12-15T12:45:04Z</time>
      </trkpt>
      <trkpt lat="45.71473" lon="4.69348">
        <ele>316.8</ele>
        <time>2025-12-15T12:45:05Z</time>
      </trkpt>
      <trkpt lat="45.71476" lon="4.69344">
        <ele>316.8</ele>
        <time>2025-12-15T12:45:06Z</time>
      </trkpt>
      <trkpt lat="45.7148" lon="4.6934">
        <ele>316.8</ele>
        <time>2025-12-15T12:45:07Z</time>
      </trkpt>
      <trkpt lat="45.71483" lon="4.69335">
        <ele>316.6</ele>
        <time>2025-12-15T12:45:08Z</time>
      </trkpt>
      <trkpt lat="45.71485" lon="4.69331">
        <ele>316.6</ele>
        <time>2025-12-15T12:45:09Z</time>
      </trkpt>
      <trkpt lat="45.71487" lon="4.69328">
        <ele>316.4</ele>
        <time>2025-12-15T12:45:10Z</time>
      </trkpt>
      <trkpt lat="45.71489" lon="4.69324">
        <ele>316.4</ele>
        <time>2025-12-15T12:45:11Z</time>
      </trkpt>
      <trkpt lat="45.71491" lon="4.6932">
        <ele>316.4</ele>
        <time>2025-12-15T12:45:12Z</time>
      </trkpt>
      <trkpt lat="45.71493" lon="4.69315">
        <ele>316.4</ele>
        <time>2025-12-15T12:45:13Z</time>
      </trkpt>
      <trkpt lat="45.71496" lon="4.69311">
        <ele>316.4</ele>
        <time>2025-12-15T12:45:14Z</time>
      </trkpt>
      <trkpt lat="45.71498" lon="4.69306">
        <ele>316.4</ele>
        <time>2025-12-15T12:45:15Z</time>
      </trkpt>
      <trkpt lat="45.71501" lon="4.693">
        <ele>316.4</ele>
        <time>2025-12-15T12:45:16Z</time>
      </trkpt>
      <trkpt lat="45.71503" lon="4.69295">
        <ele>316.4</ele>
        <time>2025-12-15T12:45:17Z</time>
      </trkpt>
      <trkpt lat="45.71506" lon="4.6929">
        <ele>316.4</ele>
        <time>2025-12-15T12:45:18Z</time>
      </trkpt>
      <trkpt lat="45.71508" lon="4.69285">
        <ele>316.4</ele>
        <time>2025-12-15T12:45:19Z</time>
      </trkpt>
      <trkpt lat="45.71511" lon="4.6928">
        <ele>316.6</ele>
        <time>2025-12-15T12:45:20Z</time>
      </trkpt>
      <trkpt lat="45.71513" lon="4.69275">
        <ele>316.6</ele>
        <time>2025-12-15T12:45:21Z</time>
      </trkpt>
      <trkpt lat="45.71515" lon="4.6927">
        <ele>316.8</ele>
        <time>2025-12-15T12:45:22Z</time>
      </trkpt>
      <trkpt lat="45.71517" lon="4.69265">
        <ele>316.8</ele>
        <time>2025-12-15T12:45:23Z</time>
      </trkpt>
      <trkpt lat="45.7152" lon="4.6926">
        <ele>316.8</ele>
        <time>2025-12-15T12:45:24Z</time>
      </trkpt>
      <trkpt lat="45.71522" lon="4.69255">
        <ele>316.8</ele>
        <time>2025-12-15T12:45:25Z</time>
      </trkpt>
      <trkpt lat="45.71525" lon="4.6925">
        <ele>317</ele>
        <time>2025-12-15T12:45:26Z</time>
      </trkpt>
      <trkpt lat="45.71527" lon="4.69245">
        <ele>317</ele>
        <time>2025-12-15T12:45:27Z</time>
      </trkpt>
      <trkpt lat="45.71529" lon="4.69239">
        <ele>317.2</ele>
        <time>2025-12-15T12:45:28Z</time>
      </trkpt>
      <trkpt lat="45.71532" lon="4.69234">
        <ele>317.4</ele>
        <time>2025-12-15T12:45:29Z</time>
      </trkpt>
      <trkpt lat="45.71534" lon="4.69228">
        <ele>317.4</ele>
        <time>2025-12-15T12:45:30Z</time>
      </trkpt>
      <trkpt lat="45.71537" lon="4.69223">
        <ele>317.6</ele>
        <time>2025-12-15T12:45:31Z</time>
      </trkpt>
      <trkpt lat="45.7154" lon="4.69218">
        <ele>317.6</ele>
        <time>2025-12-15T12:45:32Z</time>
      </trkpt>
      <trkpt lat="45.71542" lon="4.69212">
        <ele>317.8</ele>
        <time>2025-12-15T12:45:33Z</time>
      </trkpt>
      <trkpt lat="45.71545" lon="4.69207">
        <ele>317.8</ele>
        <time>2025-12-15T12:45:34Z</time>
      </trkpt>
      <trkpt lat="45.71548" lon="4.69201">
        <ele>318</ele>
        <time>2025-12-15T12:45:35Z</time>
      </trkpt>
      <trkpt lat="45.71551" lon="4.69196">
        <ele>318.2</ele>
        <time>2025-12-15T12:45:36Z</time>
      </trkpt>
      <trkpt lat="45.71553" lon="4.6919">
        <ele>318.4</ele>
        <time>2025-12-15T12:45:37Z</time>
      </trkpt>
      <trkpt lat="45.71556" lon="4.69185">
        <ele>318.4</ele>
        <time>2025-12-15T12:45:38Z</time>
      </trkpt>
      <trkpt lat="45.71559" lon="4.69179">
        <ele>318.4</ele>
        <time>2025-12-15T12:45:39Z</time>
      </trkpt>
      <trkpt lat="45.71562" lon="4.69174">
        <ele>318.6</ele>
        <time>2025-12-15T12:45:40Z</time>
      </trkpt>
      <trkpt lat="45.71565" lon="4.69168">
        <ele>318.6</ele>
        <time>2025-12-15T12:45:41Z</time>
      </trkpt>
      <trkpt lat="45.71567" lon="4.69163">
        <ele>318.6</ele>
        <time>2025-12-15T12:45:42Z</time>
      </trkpt>
      <trkpt lat="45.7157" lon="4.69158">
        <ele>318.8</ele>
        <time>2025-12-15T12:45:43Z</time>
      </trkpt>
      <trkpt lat="45.71572" lon="4.69153">
        <ele>319</ele>
        <time>2025-12-15T12:45:44Z</time>
      </trkpt>
      <trkpt lat="45.71575" lon="4.69148">
        <ele>319</ele>
        <time>2025-12-15T12:45:45Z</time>
      </trkpt>
      <trkpt lat="45.71578" lon="4.69143">
        <ele>319.2</ele>
        <time>2025-12-15T12:45:46Z</time>
      </trkpt>
      <trkpt lat="45.7158" lon="4.69138">
        <ele>319.2</ele>
        <time>2025-12-15T12:45:47Z</time>
      </trkpt>
      <trkpt lat="45.71583" lon="4.69133">
        <ele>319.4</ele>
        <time>2025-12-15T12:45:48Z</time>
      </trkpt>
      <trkpt lat="45.71585" lon="4.69128">
        <ele>319.4</ele>
        <time>2025-12-15T12:45:49Z</time>
      </trkpt>
      <trkpt lat="45.71588" lon="4.69124">
        <ele>319.6</ele>
        <time>2025-12-15T12:45:50Z</time>
      </trkpt>
      <trkpt lat="45.7159" lon="4.6912">
        <ele>319.6</ele>
        <time>2025-12-15T12:45:51Z</time>
      </trkpt>
      <trkpt lat="45.71592" lon="4.69116">
        <ele>320</ele>
        <time>2025-12-15T12:45:52Z</time>
      </trkpt>
      <trkpt lat="45.71594" lon="4.69112">
        <ele>320.2</ele>
        <time>2025-12-15T12:45:53Z</time>
      </trkpt>
      <trkpt lat="45.71596" lon="4.69109">
        <ele>320.4</ele>
        <time>2025-12-15T12:45:54Z</time>
      </trkpt>
      <trkpt lat="45.71597" lon="4.69106">
        <ele>320.6</ele>
        <time>2025-12-15T12:45:55Z</time>
      </trkpt>
      <trkpt lat="45.71598" lon="4.69102">
        <ele>320.8</ele>
        <time>2025-12-15T12:45:56Z</time>
      </trkpt>
      <trkpt lat="45.71599" lon="4.69098">
        <ele>321</ele>
        <time>2025-12-15T12:45:57Z</time>
      </trkpt>
      <trkpt lat="45.716" lon="4.69093">
        <ele>321</ele>
        <time>2025-12-15T12:45:58Z</time>
      </trkpt>
      <trkpt lat="45.71602" lon="4.69088">
        <ele>321</ele>
        <time>2025-12-15T12:45:59Z</time>
      </trkpt>
      <trkpt lat="45.71603" lon="4.69083">
        <ele>321</ele>
        <time>2025-12-15T12:46:00Z</time>
      </trkpt>
      <trkpt lat="45.71605" lon="4.69078">
        <ele>321</ele>
        <time>2025-12-15T12:46:01Z</time>
      </trkpt>
      <trkpt lat="45.71607" lon="4.69073">
        <ele>321</ele>
        <time>2025-12-15T12:46:02Z</time>
      </trkpt>
      <trkpt lat="45.7161" lon="4.69069">
        <ele>321</ele>
        <time>2025-12-15T12:46:03Z</time>
      </trkpt>
      <trkpt lat="45.71612" lon="4.69064">
        <ele>321</ele>
        <time>2025-12-15T12:46:04Z</time>
      </trkpt>
      <trkpt lat="45.71614" lon="4.69059">
        <ele>321.2</ele>
        <time>2025-12-15T12:46:05Z</time>
      </trkpt>
      <trkpt lat="45.71616" lon="4.69054">
        <ele>321.2</ele>
        <time>2025-12-15T12:46:06Z</time>
      </trkpt>
      <trkpt lat="45.71618" lon="4.6905">
        <ele>321.2</ele>
        <time>2025-12-15T12:46:07Z</time>
      </trkpt>
      <trkpt lat="45.71621" lon="4.69045">
        <ele>321.4</ele>
        <time>2025-12-15T12:46:08Z</time>
      </trkpt>
      <trkpt lat="45.71623" lon="4.6904">
        <ele>321.4</ele>
        <time>2025-12-15T12:46:09Z</time>
      </trkpt>
      <trkpt lat="45.71625" lon="4.69035">
        <ele>321.6</ele>
        <time>2025-12-15T12:46:10Z</time>
      </trkpt>
      <trkpt lat="45.71628" lon="4.69029">
        <ele>321.6</ele>
        <time>2025-12-15T12:46:11Z</time>
      </trkpt>
      <trkpt lat="45.71631" lon="4.69024">
        <ele>321.6</ele>
        <time>2025-12-15T12:46:12Z</time>
      </trkpt>
      <trkpt lat="45.71633" lon="4.69018">
        <ele>321.6</ele>
        <time>2025-12-15T12:46:13Z</time>
      </trkpt>
      <trkpt lat="45.71635" lon="4.69012">
        <ele>321.6</ele>
        <time>2025-12-15T12:46:14Z</time>
      </trkpt>
      <trkpt lat="45.71638" lon="4.69007">
        <ele>321.6</ele>
        <time>2025-12-15T12:46:15Z</time>
      </trkpt>
      <trkpt lat="45.71641" lon="4.69001">
        <ele>321.6</ele>
        <time>2025-12-15T12:46:16Z</time>
      </trkpt>
      <trkpt lat="45.71644" lon="4.68995">
        <ele>321.6</ele>
        <time>2025-12-15T12:46:17Z</time>
      </trkpt>
      <trkpt lat="45.71647" lon="4.6899">
        <ele>321.6</ele>
        <time>2025-12-15T12:46:18Z</time>
      </trkpt>
      <trkpt lat="45.71649" lon="4.68984">
        <ele>321.6</ele>
        <time>2025-12-15T12:46:19Z</time>
      </trkpt>
      <trkpt lat="45.71652" lon="4.68978">
        <ele>321.8</ele>
        <time>2025-12-15T12:46:20Z</time>
      </trkpt>
      <trkpt lat="45.71655" lon="4.68972">
        <ele>321.8</ele>
        <time>2025-12-15T12:46:21Z</time>
      </trkpt>
      <trkpt lat="45.71658" lon="4.68967">
        <ele>321.8</ele>
        <time>2025-12-15T12:46:22Z</time>
      </trkpt>
      <trkpt lat="45.71661" lon="4.68961">
        <ele>321.8</ele>
        <time>2025-12-15T12:46:23Z</time>
      </trkpt>
      <trkpt lat="45.71664" lon="4.68955">
        <ele>321.8</ele>
        <time>2025-12-15T12:46:24Z</time>
      </trkpt>
      <trkpt lat="45.71668" lon="4.68948">
        <ele>321.8</ele>
        <time>2025-12-15T12:46:25Z</time>
      </trkpt>
      <trkpt lat="45.71671" lon="4.68942">
        <ele>321.8</ele>
        <time>2025-12-15T12:46:26Z</time>
      </trkpt>
      <trkpt lat="45.71674" lon="4.68935">
        <ele>321.8</ele>
        <time>2025-12-15T12:46:27Z</time>
      </trkpt>
      <trkpt lat="45.71677" lon="4.68928">
        <ele>321.6</ele>
        <time>2025-12-15T12:46:28Z</time>
      </trkpt>
      <trkpt lat="45.71681" lon="4.68921">
        <ele>321.4</ele>
        <time>2025-12-15T12:46:29Z</time>
      </trkpt>
      <trkpt lat="45.71684" lon="4.68914">
        <ele>321.2</ele>
        <time>2025-12-15T12:46:30Z</time>
      </trkpt>
      <trkpt lat="45.71688" lon="4.68907">
        <ele>320.8</ele>
        <time>2025-12-15T12:46:31Z</time>
      </trkpt>
      <trkpt lat="45.71692" lon="4.689">
        <ele>320.4</ele>
        <time>2025-12-15T12:46:32Z</time>
      </trkpt>
      <trkpt lat="45.71695" lon="4.68893">
        <ele>320.2</ele>
        <time>2025-12-15T12:46:33Z</time>
      </trkpt>
      <trkpt lat="45.71699" lon="4.68886">
        <ele>320</ele>
        <time>2025-12-15T12:46:34Z</time>
      </trkpt>
      <trkpt lat="45.71703" lon="4.6888">
        <ele>319.8</ele>
        <time>2025-12-15T12:46:35Z</time>
      </trkpt>
      <trkpt lat="45.71707" lon="4.68874">
        <ele>319.6</ele>
        <time>2025-12-15T12:46:36Z</time>
      </trkpt>
      <trkpt lat="45.71711" lon="4.68867">
        <ele>319.6</ele>
        <time>2025-12-15T12:46:37Z</time>
      </trkpt>
      <trkpt lat="45.71714" lon="4.68861">
        <ele>319.4</ele>
        <time>2025-12-15T12:46:38Z</time>
      </trkpt>
      <trkpt lat="45.71718" lon="4.68855">
        <ele>319.2</ele>
        <time>2025-12-15T12:46:39Z</time>
      </trkpt>
      <trkpt lat="45.71721" lon="4.68848">
        <ele>319.2</ele>
        <time>2025-12-15T12:46:40Z</time>
      </trkpt>
      <trkpt lat="45.71725" lon="4.68843">
        <ele>319</ele>
        <time>2025-12-15T12:46:41Z</time>
      </trkpt>
      <trkpt lat="45.71728" lon="4.68837">
        <ele>319</ele>
        <time>2025-12-15T12:46:42Z</time>
      </trkpt>
      <trkpt lat="45.71732" lon="4.68832">
        <ele>319</ele>
        <time>2025-12-15T12:46:43Z</time>
      </trkpt>
      <trkpt lat="45.71736" lon="4.68826">
        <ele>319.2</ele>
        <time>2025-12-15T12:46:44Z</time>
      </trkpt>
      <trkpt lat="45.71739" lon="4.68819">
        <ele>319.2</ele>
        <time>2025-12-15T12:46:45Z</time>
      </trkpt>
      <trkpt lat="45.71742" lon="4.68813">
        <ele>319.4</ele>
        <time>2025-12-15T12:46:46Z</time>
      </trkpt>
      <trkpt lat="45.71746" lon="4.68806">
        <ele>319.6</ele>
        <time>2025-12-15T12:46:47Z</time>
      </trkpt>
      <trkpt lat="45.71749" lon="4.688">
        <ele>319.6</ele>
        <time>2025-12-15T12:46:48Z</time>
      </trkpt>
      <trkpt lat="45.71752" lon="4.68793">
        <ele>319.8</ele>
        <time>2025-12-15T12:46:49Z</time>
      </trkpt>
      <trkpt lat="45.71755" lon="4.68787">
        <ele>319.8</ele>
        <time>2025-12-15T12:46:50Z</time>
      </trkpt>
      <trkpt lat="45.71759" lon="4.68781">
        <ele>320</ele>
        <time>2025-12-15T12:46:51Z</time>
      </trkpt>
      <trkpt lat="45.71762" lon="4.68776">
        <ele>320</ele>
        <time>2025-12-15T12:46:52Z</time>
      </trkpt>
      <trkpt lat="45.71765" lon="4.6877">
        <ele>320</ele>
        <time>2025-12-15T12:46:53Z</time>
      </trkpt>
      <trkpt lat="45.71767" lon="4.68765">
        <ele>320.2</ele>
        <time>2025-12-15T12:46:54Z</time>
      </trkpt>
      <trkpt lat="45.7177" lon="4.6876">
        <ele>320.4</ele>
        <time>2025-12-15T12:46:55Z</time>
      </trkpt>
      <trkpt lat="45.71773" lon="4.68754">
        <ele>320.6</ele>
        <time>2025-12-15T12:46:56Z</time>
      </trkpt>
      <trkpt lat="45.71775" lon="4.68749">
        <ele>321</ele>
        <time>2025-12-15T12:46:57Z</time>
      </trkpt>
      <trkpt lat="45.71778" lon="4.68743">
        <ele>321.4</ele>
        <time>2025-12-15T12:46:58Z</time>
      </trkpt>
      <trkpt lat="45.7178" lon="4.68739">
        <ele>321.6</ele>
        <time>2025-12-15T12:46:59Z</time>
      </trkpt>
      <trkpt lat="45.71782" lon="4.68734">
        <ele>322</ele>
        <time>2025-12-15T12:47:00Z</time>
      </trkpt>
      <trkpt lat="45.71784" lon="4.6873">
        <ele>322.4</ele>
        <time>2025-12-15T12:47:01Z</time>
      </trkpt>
      <trkpt lat="45.71786" lon="4.68727">
        <ele>323</ele>
        <time>2025-12-15T12:47:02Z</time>
      </trkpt>
      <trkpt lat="45.71788" lon="4.68723">
        <ele>323.4</ele>
        <time>2025-12-15T12:47:03Z</time>
      </trkpt>
      <trkpt lat="45.71789" lon="4.68719">
        <ele>323.8</ele>
        <time>2025-12-15T12:47:04Z</time>
      </trkpt>
      <trkpt lat="45.71791" lon="4.68716">
        <ele>324.2</ele>
        <time>2025-12-15T12:47:05Z</time>
      </trkpt>
      <trkpt lat="45.71793" lon="4.68714">
        <ele>324.8</ele>
        <time>2025-12-15T12:47:06Z</time>
      </trkpt>
      <trkpt lat="45.71795" lon="4.68713">
        <ele>325.2</ele>
        <time>2025-12-15T12:47:07Z</time>
      </trkpt>
      <trkpt lat="45.71797" lon="4.68712">
        <ele>325.6</ele>
        <time>2025-12-15T12:47:08Z</time>
      </trkpt>
      <trkpt lat="45.71799" lon="4.68711">
        <ele>326</ele>
        <time>2025-12-15T12:47:09Z</time>
      </trkpt>
      <trkpt lat="45.718" lon="4.68711">
        <ele>326.2</ele>
        <time>2025-12-15T12:47:10Z</time>
      </trkpt>
      <trkpt lat="45.71802" lon="4.68709">
        <ele>326.4</ele>
        <time>2025-12-15T12:47:11Z</time>
      </trkpt>
      <trkpt lat="45.71803" lon="4.68706">
        <ele>326.4</ele>
        <time>2025-12-15T12:47:12Z</time>
      </trkpt>
      <trkpt lat="45.71804" lon="4.687">
        <ele>326.4</ele>
        <time>2025-12-15T12:47:13Z</time>
      </trkpt>
      <trkpt lat="45.71805" lon="4.68695">
        <ele>326.2</ele>
        <time>2025-12-15T12:47:14Z</time>
      </trkpt>
      <trkpt lat="45.71805" lon="4.68688">
        <ele>326</ele>
        <time>2025-12-15T12:47:15Z</time>
      </trkpt>
      <trkpt lat="45.71807" lon="4.68682">
        <ele>325.6</ele>
        <time>2025-12-15T12:47:16Z</time>
      </trkpt>
      <trkpt lat="45.71809" lon="4.68675">
        <ele>325.4</ele>
        <time>2025-12-15T12:47:17Z</time>
      </trkpt>
      <trkpt lat="45.71811" lon="4.68669">
        <ele>325.2</ele>
        <time>2025-12-15T12:47:18Z</time>
      </trkpt>
      <trkpt lat="45.71813" lon="4.68662">
        <ele>325</ele>
        <time>2025-12-15T12:47:19Z</time>
      </trkpt>
      <trkpt lat="45.71815" lon="4.68656">
        <ele>324.8</ele>
        <time>2025-12-15T12:47:20Z</time>
      </trkpt>
      <trkpt lat="45.71818" lon="4.68651">
        <ele>324.8</ele>
        <time>2025-12-15T12:47:21Z</time>
      </trkpt>
      <trkpt lat="45.7182" lon="4.68646">
        <ele>324.6</ele>
        <time>2025-12-15T12:47:22Z</time>
      </trkpt>
      <trkpt lat="45.71822" lon="4.68641">
        <ele>324.8</ele>
        <time>2025-12-15T12:47:23Z</time>
      </trkpt>
      <trkpt lat="45.71823" lon="4.68637">
        <ele>324.8</ele>
        <time>2025-12-15T12:47:24Z</time>
      </trkpt>
      <trkpt lat="45.71824" lon="4.68634">
        <ele>325</ele>
        <time>2025-12-15T12:47:25Z</time>
      </trkpt>
      <trkpt lat="45.71826" lon="4.68629">
        <ele>325.2</ele>
        <time>2025-12-15T12:47:26Z</time>
      </trkpt>
      <trkpt lat="45.71827" lon="4.68624">
        <ele>325.2</ele>
        <time>2025-12-15T12:47:27Z</time>
      </trkpt>
      <trkpt lat="45.71829" lon="4.68619">
        <ele>325.2</ele>
        <time>2025-12-15T12:47:28Z</time>
      </trkpt>
      <trkpt lat="45.71832" lon="4.68613">
        <ele>325</ele>
        <time>2025-12-15T12:47:29Z</time>
      </trkpt>
      <trkpt lat="45.71834" lon="4.68607">
        <ele>324.8</ele>
        <time>2025-12-15T12:47:30Z</time>
      </trkpt>
      <trkpt lat="45.71837" lon="4.68602">
        <ele>324.8</ele>
        <time>2025-12-15T12:47:31Z</time>
      </trkpt>
      <trkpt lat="45.7184" lon="4.68597">
        <ele>324.6</ele>
        <time>2025-12-15T12:47:32Z</time>
      </trkpt>
      <trkpt lat="45.71843" lon="4.68591">
        <ele>324.8</ele>
        <time>2025-12-15T12:47:33Z</time>
      </trkpt>
      <trkpt lat="45.71846" lon="4.68586">
        <ele>325</ele>
        <time>2025-12-15T12:47:34Z</time>
      </trkpt>
      <trkpt lat="45.71849" lon="4.6858">
        <ele>325.2</ele>
        <time>2025-12-15T12:47:35Z</time>
      </trkpt>
      <trkpt lat="45.71852" lon="4.68575">
        <ele>325.4</ele>
        <time>2025-12-15T12:47:36Z</time>
      </trkpt>
      <trkpt lat="45.71855" lon="4.68569">
        <ele>325.6</ele>
        <time>2025-12-15T12:47:37Z</time>
      </trkpt>
      <trkpt lat="45.71857" lon="4.68563">
        <ele>325.8</ele>
        <time>2025-12-15T12:47:38Z</time>
      </trkpt>
      <trkpt lat="45.7186" lon="4.68558">
        <ele>325.8</ele>
        <time>2025-12-15T12:47:39Z</time>
      </trkpt>
      <trkpt lat="45.71863" lon="4.68552">
        <ele>325.8</ele>
        <time>2025-12-15T12:47:40Z</time>
      </trkpt>
      <trkpt lat="45.71866" lon="4.68546">
        <ele>325.6</ele>
        <time>2025-12-15T12:47:41Z</time>
      </trkpt>
      <trkpt lat="45.71869" lon="4.6854">
        <ele>325.6</ele>
        <time>2025-12-15T12:47:42Z</time>
      </trkpt>
      <trkpt lat="45.71872" lon="4.68534">
        <ele>325.6</ele>
        <time>2025-12-15T12:47:43Z</time>
      </trkpt>
      <trkpt lat="45.71875" lon="4.68528">
        <ele>325.6</ele>
        <time>2025-12-15T12:47:44Z</time>
      </trkpt>
      <trkpt lat="45.71878" lon="4.68522">
        <ele>325.6</ele>
        <time>2025-12-15T12:47:45Z</time>
      </trkpt>
      <trkpt lat="45.71881" lon="4.68516">
        <ele>325.6</ele>
        <time>2025-12-15T12:47:46Z</time>
      </trkpt>
      <trkpt lat="45.71884" lon="4.6851">
        <ele>325.8</ele>
        <time>2025-12-15T12:47:47Z</time>
      </trkpt>
      <trkpt lat="45.71887" lon="4.68504">
        <ele>326</ele>
        <time>2025-12-15T12:47:48Z</time>
      </trkpt>
      <trkpt lat="45.7189" lon="4.68498">
        <ele>326.2</ele>
        <time>2025-12-15T12:47:49Z</time>
      </trkpt>
      <trkpt lat="45.71893" lon="4.68491">
        <ele>326.4</ele>
        <time>2025-12-15T12:47:50Z</time>
      </trkpt>
      <trkpt lat="45.71896" lon="4.68485">
        <ele>326.6</ele>
        <time>2025-12-15T12:47:51Z</time>
      </trkpt>
      <trkpt lat="45.71899" lon="4.68478">
        <ele>326.8</ele>
        <time>2025-12-15T12:47:52Z</time>
      </trkpt>
      <trkpt lat="45.71902" lon="4.68471">
        <ele>327</ele>
        <time>2025-12-15T12:47:53Z</time>
      </trkpt>
      <trkpt lat="45.71905" lon="4.68464">
        <ele>327</ele>
        <time>2025-12-15T12:47:54Z</time>
      </trkpt>
      <trkpt lat="45.71908" lon="4.68457">
        <ele>326.8</ele>
        <time>2025-12-15T12:47:55Z</time>
      </trkpt>
      <trkpt lat="45.71911" lon="4.68451">
        <ele>326.8</ele>
        <time>2025-12-15T12:47:56Z</time>
      </trkpt>
      <trkpt lat="45.71913" lon="4.68444">
        <ele>326.8</ele>
        <time>2025-12-15T12:47:57Z</time>
      </trkpt>
      <trkpt lat="45.71916" lon="4.68438">
        <ele>326.8</ele>
        <time>2025-12-15T12:47:58Z</time>
      </trkpt>
      <trkpt lat="45.71919" lon="4.68431">
        <ele>326.8</ele>
        <time>2025-12-15T12:47:59Z</time>
      </trkpt>
      <trkpt lat="45.71921" lon="4.68425">
        <ele>326.8</ele>
        <time>2025-12-15T12:48:00Z</time>
      </trkpt>
      <trkpt lat="45.71924" lon="4.68418">
        <ele>327</ele>
        <time>2025-12-15T12:48:01Z</time>
      </trkpt>
      <trkpt lat="45.71926" lon="4.68411">
        <ele>327.2</ele>
        <time>2025-12-15T12:48:02Z</time>
      </trkpt>
      <trkpt lat="45.71929" lon="4.68405">
        <ele>327.4</ele>
        <time>2025-12-15T12:48:03Z</time>
      </trkpt>
      <trkpt lat="45.71931" lon="4.68398">
        <ele>327.6</ele>
        <time>2025-12-15T12:48:04Z</time>
      </trkpt>
      <trkpt lat="45.71933" lon="4.68391">
        <ele>327.6</ele>
        <time>2025-12-15T12:48:05Z</time>
      </trkpt>
      <trkpt lat="45.71936" lon="4.68384">
        <ele>327.8</ele>
        <time>2025-12-15T12:48:06Z</time>
      </trkpt>
      <trkpt lat="45.71938" lon="4.68377">
        <ele>327.8</ele>
        <time>2025-12-15T12:48:07Z</time>
      </trkpt>
      <trkpt lat="45.7194" lon="4.68371">
        <ele>328</ele>
        <time>2025-12-15T12:48:08Z</time>
      </trkpt>
      <trkpt lat="45.71943" lon="4.68364">
        <ele>328</ele>
        <time>2025-12-15T12:48:09Z</time>
      </trkpt>
      <trkpt lat="45.71945" lon="4.68357">
        <ele>328</ele>
        <time>2025-12-15T12:48:10Z</time>
      </trkpt>
      <trkpt lat="45.71948" lon="4.6835">
        <ele>328</ele>
        <time>2025-12-15T12:48:11Z</time>
      </trkpt>
      <trkpt lat="45.7195" lon="4.68344">
        <ele>328</ele>
        <time>2025-12-15T12:48:12Z</time>
      </trkpt>
      <trkpt lat="45.71953" lon="4.68337">
        <ele>328.2</ele>
        <time>2025-12-15T12:48:13Z</time>
      </trkpt>
      <trkpt lat="45.71955" lon="4.6833">
        <ele>328.4</ele>
        <time>2025-12-15T12:48:14Z</time>
      </trkpt>
      <trkpt lat="45.71957" lon="4.68324">
        <ele>328.6</ele>
        <time>2025-12-15T12:48:15Z</time>
      </trkpt>
      <trkpt lat="45.71959" lon="4.68317">
        <ele>329</ele>
        <time>2025-12-15T12:48:16Z</time>
      </trkpt>
      <trkpt lat="45.71962" lon="4.6831">
        <ele>329.2</ele>
        <time>2025-12-15T12:48:17Z</time>
      </trkpt>
      <trkpt lat="45.71965" lon="4.68304">
        <ele>329.2</ele>
        <time>2025-12-15T12:48:18Z</time>
      </trkpt>
      <trkpt lat="45.71967" lon="4.68297">
        <ele>329.2</ele>
        <time>2025-12-15T12:48:19Z</time>
      </trkpt>
      <trkpt lat="45.7197" lon="4.6829">
        <ele>329.2</ele>
        <time>2025-12-15T12:48:20Z</time>
      </trkpt>
      <trkpt lat="45.71972" lon="4.68283">
        <ele>329.2</ele>
        <time>2025-12-15T12:48:21Z</time>
      </trkpt>
      <trkpt lat="45.71974" lon="4.68276">
        <ele>329</ele>
        <time>2025-12-15T12:48:22Z</time>
      </trkpt>
      <trkpt lat="45.71977" lon="4.68269">
        <ele>329</ele>
        <time>2025-12-15T12:48:23Z</time>
      </trkpt>
      <trkpt lat="45.71979" lon="4.68262">
        <ele>329</ele>
        <time>2025-12-15T12:48:24Z</time>
      </trkpt>
      <trkpt lat="45.71981" lon="4.68255">
        <ele>329</ele>
        <time>2025-12-15T12:48:25Z</time>
      </trkpt>
      <trkpt lat="45.71983" lon="4.68247">
        <ele>329</ele>
        <time>2025-12-15T12:48:26Z</time>
      </trkpt>
      <trkpt lat="45.71985" lon="4.6824">
        <ele>329.2</ele>
        <time>2025-12-15T12:48:27Z</time>
      </trkpt>
      <trkpt lat="45.71987" lon="4.68233">
        <ele>329.2</ele>
        <time>2025-12-15T12:48:28Z</time>
      </trkpt>
      <trkpt lat="45.71989" lon="4.68226">
        <ele>329.4</ele>
        <time>2025-12-15T12:48:29Z</time>
      </trkpt>
      <trkpt lat="45.71991" lon="4.68219">
        <ele>329.4</ele>
        <time>2025-12-15T12:48:30Z</time>
      </trkpt>
      <trkpt lat="45.71994" lon="4.68212">
        <ele>329.6</ele>
        <time>2025-12-15T12:48:31Z</time>
      </trkpt>
      <trkpt lat="45.71996" lon="4.68205">
        <ele>329.8</ele>
        <time>2025-12-15T12:48:32Z</time>
      </trkpt>
      <trkpt lat="45.71998" lon="4.68198">
        <ele>330</ele>
        <time>2025-12-15T12:48:33Z</time>
      </trkpt>
      <trkpt lat="45.72" lon="4.68191">
        <ele>330.2</ele>
        <time>2025-12-15T12:48:34Z</time>
      </trkpt>
      <trkpt lat="45.72002" lon="4.68184">
        <ele>330.4</ele>
        <time>2025-12-15T12:48:35Z</time>
      </trkpt>
      <trkpt lat="45.72004" lon="4.68177">
        <ele>330.4</ele>
        <time>2025-12-15T12:48:36Z</time>
      </trkpt>
      <trkpt lat="45.72006" lon="4.68171">
        <ele>330.4</ele>
        <time>2025-12-15T12:48:37Z</time>
      </trkpt>
      <trkpt lat="45.72008" lon="4.68163">
        <ele>330.6</ele>
        <time>2025-12-15T12:48:38Z</time>
      </trkpt>
      <trkpt lat="45.72009" lon="4.68156">
        <ele>330.6</ele>
        <time>2025-12-15T12:48:39Z</time>
      </trkpt>
      <trkpt lat="45.72011" lon="4.68149">
        <ele>330.8</ele>
        <time>2025-12-15T12:48:40Z</time>
      </trkpt>
      <trkpt lat="45.72013" lon="4.68142">
        <ele>331</ele>
        <time>2025-12-15T12:48:41Z</time>
      </trkpt>
      <trkpt lat="45.72015" lon="4.68135">
        <ele>331.2</ele>
        <time>2025-12-15T12:48:42Z</time>
      </trkpt>
      <trkpt lat="45.72017" lon="4.68128">
        <ele>331.4</ele>
        <time>2025-12-15T12:48:43Z</time>
      </trkpt>
      <trkpt lat="45.72019" lon="4.68121">
        <ele>331.6</ele>
        <time>2025-12-15T12:48:44Z</time>
      </trkpt>
      <trkpt lat="45.72021" lon="4.68114">
        <ele>331.6</ele>
        <time>2025-12-15T12:48:45Z</time>
      </trkpt>
      <trkpt lat="45.72023" lon="4.68107">
        <ele>331.8</ele>
        <time>2025-12-15T12:48:46Z</time>
      </trkpt>
      <trkpt lat="45.72024" lon="4.68099">
        <ele>331.8</ele>
        <time>2025-12-15T12:48:47Z</time>
      </trkpt>
      <trkpt lat="45.72026" lon="4.68092">
        <ele>331.8</ele>
        <time>2025-12-15T12:48:48Z</time>
      </trkpt>
      <trkpt lat="45.72028" lon="4.68085">
        <ele>332</ele>
        <time>2025-12-15T12:48:49Z</time>
      </trkpt>
      <trkpt lat="45.7203" lon="4.68078">
        <ele>332</ele>
        <time>2025-12-15T12:48:50Z</time>
      </trkpt>
      <trkpt lat="45.72031" lon="4.68071">
        <ele>332</ele>
        <time>2025-12-15T12:48:51Z</time>
      </trkpt>
      <trkpt lat="45.72033" lon="4.68064">
        <ele>332</ele>
        <time>2025-12-15T12:48:52Z</time>
      </trkpt>
      <trkpt lat="45.72034" lon="4.68057">
        <ele>332</ele>
        <time>2025-12-15T12:48:53Z</time>
      </trkpt>
      <trkpt lat="45.72036" lon="4.6805">
        <ele>332</ele>
        <time>2025-12-15T12:48:54Z</time>
      </trkpt>
      <trkpt lat="45.72038" lon="4.68043">
        <ele>332.2</ele>
        <time>2025-12-15T12:48:55Z</time>
      </trkpt>
      <trkpt lat="45.7204" lon="4.68036">
        <ele>332.4</ele>
        <time>2025-12-15T12:48:56Z</time>
      </trkpt>
      <trkpt lat="45.72042" lon="4.68029">
        <ele>332.6</ele>
        <time>2025-12-15T12:48:57Z</time>
      </trkpt>
      <trkpt lat="45.72043" lon="4.68022">
        <ele>332.6</ele>
        <time>2025-12-15T12:48:58Z</time>
      </trkpt>
      <trkpt lat="45.72045" lon="4.68015">
        <ele>332.8</ele>
        <time>2025-12-15T12:48:59Z</time>
      </trkpt>
      <trkpt lat="45.72047" lon="4.68009">
        <ele>332.8</ele>
        <time>2025-12-15T12:49:00Z</time>
      </trkpt>
      <trkpt lat="45.72049" lon="4.68002">
        <ele>332.8</ele>
        <time>2025-12-15T12:49:01Z</time>
      </trkpt>
      <trkpt lat="45.72051" lon="4.67995">
        <ele>332.8</ele>
        <time>2025-12-15T12:49:02Z</time>
      </trkpt>
      <trkpt lat="45.72053" lon="4.67989">
        <ele>332.8</ele>
        <time>2025-12-15T12:49:03Z</time>
      </trkpt>
      <trkpt lat="45.72055" lon="4.67982">
        <ele>332.8</ele>
        <time>2025-12-15T12:49:04Z</time>
      </trkpt>
      <trkpt lat="45.72057" lon="4.67975">
        <ele>333</ele>
        <time>2025-12-15T12:49:05Z</time>
      </trkpt>
      <trkpt lat="45.72059" lon="4.67968">
        <ele>333.2</ele>
        <time>2025-12-15T12:49:06Z</time>
      </trkpt>
      <trkpt lat="45.72061" lon="4.67961">
        <ele>333.4</ele>
        <time>2025-12-15T12:49:07Z</time>
      </trkpt>
      <trkpt lat="45.72064" lon="4.67954">
        <ele>333.4</ele>
        <time>2025-12-15T12:49:08Z</time>
      </trkpt>
      <trkpt lat="45.72066" lon="4.67946">
        <ele>333.4</ele>
        <time>2025-12-15T12:49:09Z</time>
      </trkpt>
      <trkpt lat="45.72069" lon="4.67938">
        <ele>333.4</ele>
        <time>2025-12-15T12:49:10Z</time>
      </trkpt>
      <trkpt lat="45.72072" lon="4.6793">
        <ele>333.2</ele>
        <time>2025-12-15T12:49:11Z</time>
      </trkpt>
      <trkpt lat="45.72075" lon="4.67922">
        <ele>333</ele>
        <time>2025-12-15T12:49:12Z</time>
      </trkpt>
      <trkpt lat="45.72078" lon="4.67914">
        <ele>332.8</ele>
        <time>2025-12-15T12:49:13Z</time>
      </trkpt>
      <trkpt lat="45.72082" lon="4.67906">
        <ele>332.4</ele>
        <time>2025-12-15T12:49:14Z</time>
      </trkpt>
      <trkpt lat="45.72085" lon="4.67898">
        <ele>332</ele>
        <time>2025-12-15T12:49:15Z</time>
      </trkpt>
      <trkpt lat="45.72088" lon="4.6789">
        <ele>331.6</ele>
        <time>2025-12-15T12:49:16Z</time>
      </trkpt>
      <trkpt lat="45.72091" lon="4.67881">
        <ele>331.4</ele>
        <time>2025-12-15T12:49:17Z</time>
      </trkpt>
      <trkpt lat="45.72095" lon="4.67873">
        <ele>331</ele>
        <time>2025-12-15T12:49:18Z</time>
      </trkpt>
      <trkpt lat="45.72099" lon="4.67865">
        <ele>330.6</ele>
        <time>2025-12-15T12:49:19Z</time>
      </trkpt>
      <trkpt lat="45.72102" lon="4.67857">
        <ele>330.2</ele>
        <time>2025-12-15T12:49:20Z</time>
      </trkpt>
      <trkpt lat="45.72106" lon="4.67849">
        <ele>330</ele>
        <time>2025-12-15T12:49:21Z</time>
      </trkpt>
      <trkpt lat="45.7211" lon="4.67841">
        <ele>329.8</ele>
        <time>2025-12-15T12:49:22Z</time>
      </trkpt>
      <trkpt lat="45.72114" lon="4.67833">
        <ele>329.8</ele>
        <time>2025-12-15T12:49:23Z</time>
      </trkpt>
      <trkpt lat="45.72118" lon="4.67824">
        <ele>329.6</ele>
        <time>2025-12-15T12:49:24Z</time>
      </trkpt>
      <trkpt lat="45.72123" lon="4.67816">
        <ele>329.6</ele>
        <time>2025-12-15T12:49:25Z</time>
      </trkpt>
      <trkpt lat="45.72128" lon="4.67808">
        <ele>329.4</ele>
        <time>2025-12-15T12:49:26Z</time>
      </trkpt>
      <trkpt lat="45.72133" lon="4.678">
        <ele>329.2</ele>
        <time>2025-12-15T12:49:27Z</time>
      </trkpt>
      <trkpt lat="45.72138" lon="4.67792">
        <ele>329</ele>
        <time>2025-12-15T12:49:28Z</time>
      </trkpt>
      <trkpt lat="45.72143" lon="4.67784">
        <ele>328.6</ele>
        <time>2025-12-15T12:49:29Z</time>
      </trkpt>
      <trkpt lat="45.72149" lon="4.67776">
        <ele>328.4</ele>
        <time>2025-12-15T12:49:30Z</time>
      </trkpt>
      <trkpt lat="45.72155" lon="4.67768">
        <ele>328</ele>
        <time>2025-12-15T12:49:31Z</time>
      </trkpt>
      <trkpt lat="45.7216" lon="4.67758">
        <ele>327.6</ele>
        <time>2025-12-15T12:49:32Z</time>
      </trkpt>
      <trkpt lat="45.72166" lon="4.67749">
        <ele>327.2</ele>
        <time>2025-12-15T12:49:33Z</time>
      </trkpt>
      <trkpt lat="45.72171" lon="4.67739">
        <ele>326.8</ele>
        <time>2025-12-15T12:49:34Z</time>
      </trkpt>
      <trkpt lat="45.72177" lon="4.67728">
        <ele>326.2</ele>
        <time>2025-12-15T12:49:35Z</time>
      </trkpt>
      <trkpt lat="45.72182" lon="4.67717">
        <ele>325.6</ele>
        <time>2025-12-15T12:49:36Z</time>
      </trkpt>
      <trkpt lat="45.72187" lon="4.67706">
        <ele>325.2</ele>
        <time>2025-12-15T12:49:37Z</time>
      </trkpt>
      <trkpt lat="45.72192" lon="4.67695">
        <ele>324.6</ele>
        <time>2025-12-15T12:49:38Z</time>
      </trkpt>
      <trkpt lat="45.72197" lon="4.67685">
        <ele>324.2</ele>
        <time>2025-12-15T12:49:39Z</time>
      </trkpt>
      <trkpt lat="45.72201" lon="4.67674">
        <ele>323.8</ele>
        <time>2025-12-15T12:49:40Z</time>
      </trkpt>
      <trkpt lat="45.72205" lon="4.67663">
        <ele>323.4</ele>
        <time>2025-12-15T12:49:41Z</time>
      </trkpt>
      <trkpt lat="45.72209" lon="4.67652">
        <ele>323</ele>
        <time>2025-12-15T12:49:42Z</time>
      </trkpt>
      <trkpt lat="45.72212" lon="4.67641">
        <ele>322.8</ele>
        <time>2025-12-15T12:49:43Z</time>
      </trkpt>
      <trkpt lat="45.72216" lon="4.67631">
        <ele>322.6</ele>
        <time>2025-12-15T12:49:44Z</time>
      </trkpt>
      <trkpt lat="45.72219" lon="4.67622">
        <ele>322.4</ele>
        <time>2025-12-15T12:49:45Z</time>
      </trkpt>
      <trkpt lat="45.72222" lon="4.67612">
        <ele>322.2</ele>
        <time>2025-12-15T12:49:46Z</time>
      </trkpt>
      <trkpt lat="45.72226" lon="4.67603">
        <ele>322</ele>
        <time>2025-12-15T12:49:47Z</time>
      </trkpt>
      <trkpt lat="45.72229" lon="4.67593">
        <ele>322</ele>
        <time>2025-12-15T12:49:48Z</time>
      </trkpt>
      <trkpt lat="45.72232" lon="4.67583">
        <ele>321.8</ele>
        <time>2025-12-15T12:49:49Z</time>
      </trkpt>
      <trkpt lat="45.72235" lon="4.67574">
        <ele>321.8</ele>
        <time>2025-12-15T12:49:50Z</time>
      </trkpt>
      <trkpt lat="45.72238" lon="4.67564">
        <ele>321.8</ele>
        <time>2025-12-15T12:49:51Z</time>
      </trkpt>
      <trkpt lat="45.72242" lon="4.67555">
        <ele>321.8</ele>
        <time>2025-12-15T12:49:52Z</time>
      </trkpt>
      <trkpt lat="45.72245" lon="4.67545">
        <ele>321.8</ele>
        <time>2025-12-15T12:49:53Z</time>
      </trkpt>
      <trkpt lat="45.72249" lon="4.67536">
        <ele>322</ele>
        <time>2025-12-15T12:49:54Z</time>
      </trkpt>
      <trkpt lat="45.72254" lon="4.67526">
        <ele>321.8</ele>
        <time>2025-12-15T12:49:55Z</time>
      </trkpt>
      <trkpt lat="45.72258" lon="4.67516">
        <ele>321.6</ele>
        <time>2025-12-15T12:49:56Z</time>
      </trkpt>
      <trkpt lat="45.72263" lon="4.67507">
        <ele>321.4</ele>
        <time>2025-12-15T12:49:57Z</time>
      </trkpt>
      <trkpt lat="45.72268" lon="4.67497">
        <ele>321</ele>
        <time>2025-12-15T12:49:58Z</time>
      </trkpt>
      <trkpt lat="45.72273" lon="4.67486">
        <ele>320.8</ele>
        <time>2025-12-15T12:49:59Z</time>
      </trkpt>
      <trkpt lat="45.72278" lon="4.67476">
        <ele>320.4</ele>
        <time>2025-12-15T12:50:00Z</time>
      </trkpt>
      <trkpt lat="45.72283" lon="4.67464">
        <ele>320</ele>
        <time>2025-12-15T12:50:01Z</time>
      </trkpt>
      <trkpt lat="45.72287" lon="4.67453">
        <ele>319.6</ele>
        <time>2025-12-15T12:50:02Z</time>
      </trkpt>
      <trkpt lat="45.72292" lon="4.67443">
        <ele>319.4</ele>
        <time>2025-12-15T12:50:03Z</time>
      </trkpt>
      <trkpt lat="45.72297" lon="4.67432">
        <ele>319</ele>
        <time>2025-12-15T12:50:04Z</time>
      </trkpt>
      <trkpt lat="45.72302" lon="4.67421">
        <ele>318.6</ele>
        <time>2025-12-15T12:50:05Z</time>
      </trkpt>
      <trkpt lat="45.72307" lon="4.6741">
        <ele>318.4</ele>
        <time>2025-12-15T12:50:06Z</time>
      </trkpt>
      <trkpt lat="45.72312" lon="4.67399">
        <ele>318.2</ele>
        <time>2025-12-15T12:50:07Z</time>
      </trkpt>
      <trkpt lat="45.72317" lon="4.67387">
        <ele>318</ele>
        <time>2025-12-15T12:50:08Z</time>
      </trkpt>
      <trkpt lat="45.72322" lon="4.67376">
        <ele>317.8</ele>
        <time>2025-12-15T12:50:09Z</time>
      </trkpt>
      <trkpt lat="45.72327" lon="4.67365">
        <ele>317.6</ele>
        <time>2025-12-15T12:50:10Z</time>
      </trkpt>
      <trkpt lat="45.72332" lon="4.67354">
        <ele>317.2</ele>
        <time>2025-12-15T12:50:11Z</time>
      </trkpt>
      <trkpt lat="45.72338" lon="4.67343">
        <ele>317</ele>
        <time>2025-12-15T12:50:12Z</time>
      </trkpt>
      <trkpt lat="45.72343" lon="4.67332">
        <ele>316.8</ele>
        <time>2025-12-15T12:50:13Z</time>
      </trkpt>
      <trkpt lat="45.72348" lon="4.67321">
        <ele>316.6</ele>
        <time>2025-12-15T12:50:14Z</time>
      </trkpt>
      <trkpt lat="45.72353" lon="4.6731">
        <ele>316.4</ele>
        <time>2025-12-15T12:50:15Z</time>
      </trkpt>
      <trkpt lat="45.72359" lon="4.673">
        <ele>316</ele>
        <time>2025-12-15T12:50:16Z</time>
      </trkpt>
      <trkpt lat="45.72364" lon="4.6729">
        <ele>315.8</ele>
        <time>2025-12-15T12:50:17Z</time>
      </trkpt>
      <trkpt lat="45.72369" lon="4.67279">
        <ele>315.4</ele>
        <time>2025-12-15T12:50:18Z</time>
      </trkpt>
      <trkpt lat="45.72374" lon="4.67268">
        <ele>315</ele>
        <time>2025-12-15T12:50:19Z</time>
      </trkpt>
      <trkpt lat="45.7238" lon="4.67258">
        <ele>314.8</ele>
        <time>2025-12-15T12:50:20Z</time>
      </trkpt>
      <trkpt lat="45.72385" lon="4.67248">
        <ele>314.6</ele>
        <time>2025-12-15T12:50:21Z</time>
      </trkpt>
      <trkpt lat="45.72392" lon="4.6724">
        <ele>314.4</ele>
        <time>2025-12-15T12:50:22Z</time>
      </trkpt>
      <trkpt lat="45.72398" lon="4.67231">
        <ele>314</ele>
        <time>2025-12-15T12:50:23Z</time>
      </trkpt>
      <trkpt lat="45.72406" lon="4.67223">
        <ele>313.8</ele>
        <time>2025-12-15T12:50:24Z</time>
      </trkpt>
      <trkpt lat="45.72413" lon="4.67216">
        <ele>313.4</ele>
        <time>2025-12-15T12:50:25Z</time>
      </trkpt>
      <trkpt lat="45.72421" lon="4.67208">
        <ele>313</ele>
        <time>2025-12-15T12:50:26Z</time>
      </trkpt>
      <trkpt lat="45.7243" lon="4.67199">
        <ele>312.4</ele>
        <time>2025-12-15T12:50:27Z</time>
      </trkpt>
      <trkpt lat="45.72438" lon="4.67192">
        <ele>311.8</ele>
        <time>2025-12-15T12:50:28Z</time>
      </trkpt>
      <trkpt lat="45.72446" lon="4.67184">
        <ele>311.2</ele>
        <time>2025-12-15T12:50:29Z</time>
      </trkpt>
      <trkpt lat="45.72455" lon="4.67177">
        <ele>310.4</ele>
        <time>2025-12-15T12:50:30Z</time>
      </trkpt>
      <trkpt lat="45.72463" lon="4.67171">
        <ele>309.8</ele>
        <time>2025-12-15T12:50:31Z</time>
      </trkpt>
      <trkpt lat="45.72471" lon="4.67165">
        <ele>309.4</ele>
        <time>2025-12-15T12:50:32Z</time>
      </trkpt>
      <trkpt lat="45.72476" lon="4.6716">
        <ele>309.2</ele>
        <time>2025-12-15T12:50:33Z</time>
      </trkpt>
      <trkpt lat="45.7248" lon="4.67154">
        <ele>309</ele>
        <time>2025-12-15T12:50:34Z</time>
      </trkpt>
      <trkpt lat="45.72482" lon="4.67149">
        <ele>309.2</ele>
        <time>2025-12-15T12:50:35Z</time>
      </trkpt>
      <trkpt lat="45.72484" lon="4.67145">
        <ele>309.4</ele>
        <time>2025-12-15T12:50:36Z</time>
      </trkpt>
      <trkpt lat="45.72487" lon="4.67141">
        <ele>309.4</ele>
        <time>2025-12-15T12:50:37Z</time>
      </trkpt>
      <trkpt lat="45.72488" lon="4.67137">
        <ele>309.2</ele>
        <time>2025-12-15T12:50:38Z</time>
      </trkpt>
      <trkpt lat="45.7249" lon="4.67133">
        <ele>309</ele>
        <time>2025-12-15T12:50:39Z</time>
      </trkpt>
      <trkpt lat="45.72491" lon="4.67129">
        <ele>308.6</ele>
        <time>2025-12-15T12:50:40Z</time>
      </trkpt>
      <trkpt lat="45.72494" lon="4.67124">
        <ele>308.4</ele>
        <time>2025-12-15T12:50:41Z</time>
      </trkpt>
      <trkpt lat="45.72496" lon="4.67119">
        <ele>308.2</ele>
        <time>2025-12-15T12:50:42Z</time>
      </trkpt>
      <trkpt lat="45.72498" lon="4.67114">
        <ele>308</ele>
        <time>2025-12-15T12:50:43Z</time>
      </trkpt>
      <trkpt lat="45.725" lon="4.67109">
        <ele>307.8</ele>
        <time>2025-12-15T12:50:44Z</time>
      </trkpt>
      <trkpt lat="45.72501" lon="4.67105">
        <ele>307.8</ele>
        <time>2025-12-15T12:50:45Z</time>
      </trkpt>
      <trkpt lat="45.72502" lon="4.671">
        <ele>308</ele>
        <time>2025-12-15T12:50:46Z</time>
      </trkpt>
      <trkpt lat="45.72501" lon="4.67096">
        <ele>308</ele>
        <time>2025-12-15T12:50:47Z</time>
      </trkpt>
      <trkpt lat="45.72501" lon="4.67091">
        <ele>308</ele>
        <time>2025-12-15T12:50:48Z</time>
      </trkpt>
      <trkpt lat="45.72501" lon="4.67088">
        <ele>308</ele>
        <time>2025-12-15T12:50:49Z</time>
      </trkpt>
      <trkpt lat="45.725" lon="4.67086">
        <ele>308.2</ele>
        <time>2025-12-15T12:50:50Z</time>
      </trkpt>
      <trkpt lat="45.725" lon="4.67086">
        <ele>308.2</ele>
        <time>2025-12-15T12:50:51Z</time>
      </trkpt>
      <trkpt lat="45.725" lon="4.67086">
        <ele>308.2</ele>
        <time>2025-12-15T12:50:52Z</time>
      </trkpt>
      <trkpt lat="45.725" lon="4.67086">
        <ele>308.4</ele>
        <time>2025-12-15T12:50:53Z</time>
      </trkpt>
      <trkpt lat="45.725" lon="4.67086">
        <ele>308.4</ele>
        <time>2025-12-15T12:50:54Z</time>
      </trkpt>
      <trkpt lat="45.725" lon="4.67086">
        <ele>308.4</ele>
        <time>2025-12-15T12:50:55Z</time>
      </trkpt>
      <trkpt lat="45.725" lon="4.67086">
        <ele>308.4</ele>
        <time>2025-12-15T12:50:56Z</time>
      </trkpt>
      <trkpt lat="45.72501" lon="4.67086">
        <ele>308.4</ele>
        <time>2025-12-15T12:50:57Z</time>
      </trkpt>
      <trkpt lat="45.72501" lon="4.67085">
        <ele>308.4</ele>
        <time>2025-12-15T12:50:58Z</time>
      </trkpt>
      <trkpt lat="45.72502" lon="4.67083">
        <ele>308.4</ele>
        <time>2025-12-15T12:50:59Z</time>
      </trkpt>
      <trkpt lat="45.72502" lon="4.67083">
        <ele>308.4</ele>
        <time>2025-12-15T12:51:00Z</time>
      </trkpt>
      <trkpt lat="45.72502" lon="4.67082">
        <ele>308.6</ele>
        <time>2025-12-15T12:51:01Z</time>
      </trkpt>
      <trkpt lat="45.72502" lon="4.67081">
        <ele>308.6</ele>
        <time>2025-12-15T12:51:02Z</time>
      </trkpt>
      <trkpt lat="45.72502" lon="4.67079">
        <ele>308.6</ele>
        <time>2025-12-15T12:51:03Z</time>
      </trkpt>
      <trkpt lat="45.72501" lon="4.67079">
        <ele>308.8</ele>
        <time>2025-12-15T12:51:04Z</time>
      </trkpt>
      <trkpt lat="45.72501" lon="4.67079">
        <ele>308.8</ele>
        <time>2025-12-15T12:51:05Z</time>
      </trkpt>
      <trkpt lat="45.72501" lon="4.67079">
        <ele>308.8</ele>
        <time>2025-12-15T12:51:06Z</time>
      </trkpt>
      <trkpt lat="45.72501" lon="4.67079">
        <ele>309</ele>
        <time>2025-12-15T12:51:07Z</time>
      </trkpt>
      <trkpt lat="45.72501" lon="4.67079">
        <ele>309</ele>
        <time>2025-12-15T12:51:08Z</time>
      </trkpt>
      <trkpt lat="45.72501" lon="4.67079">
        <ele>309</ele>
        <time>2025-12-15T12:51:09Z</time>
      </trkpt>
      <trkpt lat="45.72501" lon="4.67079">
        <ele>309</ele>
        <time>2025-12-15T12:51:10Z</time>
      </trkpt>
      <trkpt lat="45.72501" lon="4.67079">
        <ele>309</ele>
        <time>2025-12-15T12:51:11Z</time>
      </trkpt>
      <trkpt lat="45.72501" lon="4.67078">
        <ele>309</ele>
        <time>2025-12-15T12:51:12Z</time>
      </trkpt>
      <trkpt lat="45.72501" lon="4.67078">
        <ele>309</ele>
        <time>2025-12-15T12:51:13Z</time>
      </trkpt>
      <trkpt lat="45.72501" lon="4.67077">
        <ele>309</ele>
        <time>2025-12-15T12:51:14Z</time>
      </trkpt>
      <trkpt lat="45.72501" lon="4.67076">
        <ele>309</ele>
        <time>2025-12-15T12:51:15Z</time>
      </trkpt>
      <trkpt lat="45.72501" lon="4.67076">
        <ele>309</ele>
        <time>2025-12-15T12:51:16Z</time>
      </trkpt>
      <trkpt lat="45.72502" lon="4.67075">
        <ele>309</ele>
        <time>2025-12-15T12:51:17Z</time>
      </trkpt>
      <trkpt lat="45.72502" lon="4.67074">
        <ele>309.2</ele>
        <time>2025-12-15T12:51:18Z</time>
      </trkpt>
      <trkpt lat="45.72501" lon="4.67073">
        <ele>309.2</ele>
        <time>2025-12-15T12:51:19Z</time>
      </trkpt>
      <trkpt lat="45.72501" lon="4.67071">
        <ele>309.2</ele>
        <time>2025-12-15T12:51:20Z</time>
      </trkpt>
      <trkpt lat="45.72501" lon="4.6707">
        <ele>309.2</ele>
        <time>2025-12-15T12:51:21Z</time>
      </trkpt>
      <trkpt lat="45.72502" lon="4.67069">
        <ele>309.2</ele>
        <time>2025-12-15T12:51:22Z</time>
      </trkpt>
      <trkpt lat="45.72502" lon="4.67067">
        <ele>309</ele>
        <time>2025-12-15T12:51:23Z</time>
      </trkpt>
      <trkpt lat="45.72503" lon="4.67066">
        <ele>309</ele>
        <time>2025-12-15T12:51:24Z</time>
      </trkpt>
      <trkpt lat="45.72504" lon="4.67064">
        <ele>308.8</ele>
        <time>2025-12-15T12:51:25Z</time>
      </trkpt>
      <trkpt lat="45.72506" lon="4.67062">
        <ele>308.6</ele>
        <time>2025-12-15T12:51:26Z</time>
      </trkpt>
      <trkpt lat="45.72506" lon="4.67059">
        <ele>308.6</ele>
        <time>2025-12-15T12:51:27Z</time>
      </trkpt>
      <trkpt lat="45.72506" lon="4.67056">
        <ele>308.6</ele>
        <time>2025-12-15T12:51:28Z</time>
      </trkpt>
      <trkpt lat="45.72506" lon="4.67053">
        <ele>308.6</ele>
        <time>2025-12-15T12:51:29Z</time>
      </trkpt>
      <trkpt lat="45.72506" lon="4.6705">
        <ele>308.6</ele>
        <time>2025-12-15T12:51:30Z</time>
      </trkpt>
      <trkpt lat="45.72507" lon="4.67048">
        <ele>308.6</ele>
        <time>2025-12-15T12:51:31Z</time>
      </trkpt>
      <trkpt lat="45.72508" lon="4.67045">
        <ele>308.6</ele>
        <time>2025-12-15T12:51:32Z</time>
      </trkpt>
      <trkpt lat="45.72508" lon="4.67043">
        <ele>308.6</ele>
        <time>2025-12-15T12:51:33Z</time>
      </trkpt>
      <trkpt lat="45.72509" lon="4.67039">
        <ele>308.8</ele>
        <time>2025-12-15T12:51:34Z</time>
      </trkpt>
      <trkpt lat="45.72509" lon="4.67036">
        <ele>308.8</ele>
        <time>2025-12-15T12:51:35Z</time>
      </trkpt>
      <trkpt lat="45.7251" lon="4.67033">
        <ele>308.8</ele>
        <time>2025-12-15T12:51:36Z</time>
      </trkpt>
      <trkpt lat="45.72511" lon="4.6703">
        <ele>308.8</ele>
        <time>2025-12-15T12:51:37Z</time>
      </trkpt>
      <trkpt lat="45.72512" lon="4.67027">
        <ele>308.8</ele>
        <time>2025-12-15T12:51:38Z</time>
      </trkpt>
      <trkpt lat="45.72512" lon="4.67025">
        <ele>309</ele>
        <time>2025-12-15T12:51:39Z</time>
      </trkpt>
      <trkpt lat="45.72513" lon="4.67022">
        <ele>309</ele>
        <time>2025-12-15T12:51:40Z</time>
      </trkpt>
      <trkpt lat="45.72514" lon="4.67019">
        <ele>309</ele>
        <time>2025-12-15T12:51:41Z</time>
      </trkpt>
      <trkpt lat="45.72514" lon="4.67016">
        <ele>309</ele>
        <time>2025-12-15T12:51:42Z</time>
      </trkpt>
      <trkpt lat="45.72515" lon="4.67013">
        <ele>309.2</ele>
        <time>2025-12-15T12:51:43Z</time>
      </trkpt>
      <trkpt lat="45.72516" lon="4.6701">
        <ele>309.2</ele>
        <time>2025-12-15T12:51:44Z</time>
      </trkpt>
      <trkpt lat="45.72516" lon="4.67007">
        <ele>309.4</ele>
        <time>2025-12-15T12:51:45Z</time>
      </trkpt>
      <trkpt lat="45.72517" lon="4.67004">
        <ele>309.4</ele>
        <time>2025-12-15T12:51:46Z</time>
      </trkpt>
      <trkpt lat="45.72518" lon="4.67001">
        <ele>309.6</ele>
        <time>2025-12-15T12:51:47Z</time>
      </trkpt>
      <trkpt lat="45.72519" lon="4.66998">
        <ele>309.8</ele>
        <time>2025-12-15T12:51:48Z</time>
      </trkpt>
      <trkpt lat="45.7252" lon="4.66994">
        <ele>310</ele>
        <time>2025-12-15T12:51:49Z</time>
      </trkpt>
      <trkpt lat="45.72522" lon="4.66991">
        <ele>310.2</ele>
        <time>2025-12-15T12:51:50Z</time>
      </trkpt>
      <trkpt lat="45.72522" lon="4.66988">
        <ele>310.4</ele>
        <time>2025-12-15T12:51:51Z</time>
      </trkpt>
      <trkpt lat="45.72523" lon="4.66984">
        <ele>310.4</ele>
        <time>2025-12-15T12:51:52Z</time>
      </trkpt>
      <trkpt lat="45.72524" lon="4.6698">
        <ele>310.6</ele>
        <time>2025-12-15T12:51:53Z</time>
      </trkpt>
      <trkpt lat="45.72525" lon="4.66976">
        <ele>310.6</ele>
        <time>2025-12-15T12:51:54Z</time>
      </trkpt>
      <trkpt lat="45.72527" lon="4.66971">
        <ele>310.8</ele>
        <time>2025-12-15T12:51:55Z</time>
      </trkpt>
      <trkpt lat="45.72529" lon="4.66966">
        <ele>310.8</ele>
        <time>2025-12-15T12:51:56Z</time>
      </trkpt>
      <trkpt lat="45.7253" lon="4.66961">
        <ele>310.8</ele>
        <time>2025-12-15T12:51:57Z</time>
      </trkpt>
      <trkpt lat="45.72531" lon="4.66955">
        <ele>310.8</ele>
        <time>2025-12-15T12:51:58Z</time>
      </trkpt>
      <trkpt lat="45.72532" lon="4.66949">
        <ele>310.8</ele>
        <time>2025-12-15T12:51:59Z</time>
      </trkpt>
      <trkpt lat="45.72532" lon="4.66943">
        <ele>310.8</ele>
        <time>2025-12-15T12:52:00Z</time>
      </trkpt>
      <trkpt lat="45.72533" lon="4.66937">
        <ele>310.8</ele>
        <time>2025-12-15T12:52:01Z</time>
      </trkpt>
      <trkpt lat="45.72533" lon="4.66932">
        <ele>311</ele>
        <time>2025-12-15T12:52:02Z</time>
      </trkpt>
      <trkpt lat="45.72534" lon="4.66926">
        <ele>311</ele>
        <time>2025-12-15T12:52:03Z</time>
      </trkpt>
      <trkpt lat="45.72534" lon="4.66921">
        <ele>311.2</ele>
        <time>2025-12-15T12:52:04Z</time>
      </trkpt>
      <trkpt lat="45.72535" lon="4.66915">
        <ele>311.2</ele>
        <time>2025-12-15T12:52:05Z</time>
      </trkpt>
      <trkpt lat="45.72535" lon="4.6691">
        <ele>311.4</ele>
        <time>2025-12-15T12:52:06Z</time>
      </trkpt>
      <trkpt lat="45.72535" lon="4.66904">
        <ele>311.6</ele>
        <time>2025-12-15T12:52:07Z</time>
      </trkpt>
      <trkpt lat="45.72535" lon="4.66899">
        <ele>311.8</ele>
        <time>2025-12-15T12:52:08Z</time>
      </trkpt>
      <trkpt lat="45.72534" lon="4.66894">
        <ele>311.8</ele>
        <time>2025-12-15T12:52:09Z</time>
      </trkpt>
      <trkpt lat="45.72531" lon="4.66888">
        <ele>312</ele>
        <time>2025-12-15T12:52:10Z</time>
      </trkpt>
      <trkpt lat="45.72531" lon="4.66884">
        <ele>312.2</ele>
        <time>2025-12-15T12:52:11Z</time>
      </trkpt>
      <trkpt lat="45.72529" lon="4.66879">
        <ele>312.4</ele>
        <time>2025-12-15T12:52:12Z</time>
      </trkpt>
      <trkpt lat="45.7253" lon="4.66875">
        <ele>312.6</ele>
        <time>2025-12-15T12:52:13Z</time>
      </trkpt>
      <trkpt lat="45.72528" lon="4.6687">
        <ele>313</ele>
        <time>2025-12-15T12:52:14Z</time>
      </trkpt>
      <trkpt lat="45.72527" lon="4.66865">
        <ele>313.2</ele>
        <time>2025-12-15T12:52:15Z</time>
      </trkpt>
      <trkpt lat="45.72527" lon="4.66859">
        <ele>313.6</ele>
        <time>2025-12-15T12:52:16Z</time>
      </trkpt>
      <trkpt lat="45.72526" lon="4.66852">
        <ele>313.8</ele>
        <time>2025-12-15T12:52:17Z</time>
      </trkpt>
      <trkpt lat="45.72527" lon="4.66845">
        <ele>314</ele>
        <time>2025-12-15T12:52:18Z</time>
      </trkpt>
      <trkpt lat="45.72529" lon="4.66839">
        <ele>314.2</ele>
        <time>2025-12-15T12:52:19Z</time>
      </trkpt>
      <trkpt lat="45.72531" lon="4.66834">
        <ele>314.2</ele>
        <time>2025-12-15T12:52:20Z</time>
      </trkpt>
      <trkpt lat="45.72532" lon="4.66828">
        <ele>314.4</ele>
        <time>2025-12-15T12:52:21Z</time>
      </trkpt>
      <trkpt lat="45.72534" lon="4.66822">
        <ele>314.4</ele>
        <time>2025-12-15T12:52:22Z</time>
      </trkpt>
      <trkpt lat="45.72537" lon="4.66816">
        <ele>314.6</ele>
        <time>2025-12-15T12:52:23Z</time>
      </trkpt>
      <trkpt lat="45.72539" lon="4.66811">
        <ele>314.6</ele>
        <time>2025-12-15T12:52:24Z</time>
      </trkpt>
      <trkpt lat="45.7254" lon="4.66806">
        <ele>314.8</ele>
        <time>2025-12-15T12:52:25Z</time>
      </trkpt>
      <trkpt lat="45.72541" lon="4.66802">
        <ele>315</ele>
        <time>2025-12-15T12:52:26Z</time>
      </trkpt>
      <trkpt lat="45.72543" lon="4.66797">
        <ele>315.2</ele>
        <time>2025-12-15T12:52:27Z</time>
      </trkpt>
      <trkpt lat="45.72544" lon="4.66793">
        <ele>315.6</ele>
        <time>2025-12-15T12:52:28Z</time>
      </trkpt>
      <trkpt lat="45.72545" lon="4.66788">
        <ele>315.8</ele>
        <time>2025-12-15T12:52:29Z</time>
      </trkpt>
      <trkpt lat="45.72547" lon="4.66784">
        <ele>316.2</ele>
        <time>2025-12-15T12:52:30Z</time>
      </trkpt>
      <trkpt lat="45.72548" lon="4.6678">
        <ele>316.6</ele>
        <time>2025-12-15T12:52:31Z</time>
      </trkpt>
      <trkpt lat="45.72549" lon="4.66775">
        <ele>316.8</ele>
        <time>2025-12-15T12:52:32Z</time>
      </trkpt>
      <trkpt lat="45.7255" lon="4.6677">
        <ele>317.2</ele>
        <time>2025-12-15T12:52:33Z</time>
      </trkpt>
      <trkpt lat="45.72552" lon="4.66766">
        <ele>317.4</ele>
        <time>2025-12-15T12:52:34Z</time>
      </trkpt>
      <trkpt lat="45.72553" lon="4.66761">
        <ele>317.6</ele>
        <time>2025-12-15T12:52:35Z</time>
      </trkpt>
      <trkpt lat="45.72553" lon="4.66756">
        <ele>317.8</ele>
        <time>2025-12-15T12:52:36Z</time>
      </trkpt>
      <trkpt lat="45.72554" lon="4.66751">
        <ele>318</ele>
        <time>2025-12-15T12:52:37Z</time>
      </trkpt>
      <trkpt lat="45.72555" lon="4.66746">
        <ele>318.2</ele>
        <time>2025-12-15T12:52:38Z</time>
      </trkpt>
      <trkpt lat="45.72556" lon="4.66741">
        <ele>318.4</ele>
        <time>2025-12-15T12:52:39Z</time>
      </trkpt>
      <trkpt lat="45.72558" lon="4.66738">
        <ele>318.6</ele>
        <time>2025-12-15T12:52:40Z</time>
      </trkpt>
      <trkpt lat="45.7256" lon="4.66733">
        <ele>318.8</ele>
        <time>2025-12-15T12:52:41Z</time>
      </trkpt>
      <trkpt lat="45.72561" lon="4.66729">
        <ele>319</ele>
        <time>2025-12-15T12:52:42Z</time>
      </trkpt>
      <trkpt lat="45.72562" lon="4.66724">
        <ele>319.4</ele>
        <time>2025-12-15T12:52:43Z</time>
      </trkpt>
      <trkpt lat="45.72563" lon="4.6672">
        <ele>319.6</ele>
        <time>2025-12-15T12:52:44Z</time>
      </trkpt>
      <trkpt lat="45.72564" lon="4.66715">
        <ele>320</ele>
        <time>2025-12-15T12:52:45Z</time>
      </trkpt>
      <trkpt lat="45.72566" lon="4.66711">
        <ele>320.4</ele>
        <time>2025-12-15T12:52:46Z</time>
      </trkpt>
      <trkpt lat="45.72567" lon="4.66707">
        <ele>320.6</ele>
        <time>2025-12-15T12:52:47Z</time>
      </trkpt>
      <trkpt lat="45.72568" lon="4.66703">
        <ele>321</ele>
        <time>2025-12-15T12:52:48Z</time>
      </trkpt>
      <trkpt lat="45.72569" lon="4.66698">
        <ele>321.4</ele>
        <time>2025-12-15T12:52:49Z</time>
      </trkpt>
      <trkpt lat="45.72571" lon="4.66693">
        <ele>321.8</ele>
        <time>2025-12-15T12:52:50Z</time>
      </trkpt>
      <trkpt lat="45.72572" lon="4.66688">
        <ele>322</ele>
        <time>2025-12-15T12:52:51Z</time>
      </trkpt>
      <trkpt lat="45.72574" lon="4.66683">
        <ele>322.4</ele>
        <time>2025-12-15T12:52:52Z</time>
      </trkpt>
      <trkpt lat="45.72575" lon="4.66677">
        <ele>322.6</ele>
        <time>2025-12-15T12:52:53Z</time>
      </trkpt>
      <trkpt lat="45.72576" lon="4.66673">
        <ele>322.8</ele>
        <time>2025-12-15T12:52:54Z</time>
      </trkpt>
      <trkpt lat="45.72578" lon="4.66668">
        <ele>323</ele>
        <time>2025-12-15T12:52:55Z</time>
      </trkpt>
      <trkpt lat="45.7258" lon="4.66662">
        <ele>323</ele>
        <time>2025-12-15T12:52:56Z</time>
      </trkpt>
      <trkpt lat="45.72582" lon="4.66657">
        <ele>323.2</ele>
        <time>2025-12-15T12:52:57Z</time>
      </trkpt>
      <trkpt lat="45.72584" lon="4.66652">
        <ele>323.2</ele>
        <time>2025-12-15T12:52:58Z</time>
      </trkpt>
      <trkpt lat="45.72586" lon="4.66647">
        <ele>323.4</ele>
        <time>2025-12-15T12:52:59Z</time>
      </trkpt>
      <trkpt lat="45.72588" lon="4.66642">
        <ele>323.4</ele>
        <time>2025-12-15T12:53:00Z</time>
      </trkpt>
      <trkpt lat="45.72589" lon="4.66636">
        <ele>323.6</ele>
        <time>2025-12-15T12:53:01Z</time>
      </trkpt>
      <trkpt lat="45.72591" lon="4.6663">
        <ele>323.6</ele>
        <time>2025-12-15T12:53:02Z</time>
      </trkpt>
      <trkpt lat="45.72593" lon="4.66624">
        <ele>323.6</ele>
        <time>2025-12-15T12:53:03Z</time>
      </trkpt>
      <trkpt lat="45.72594" lon="4.66618">
        <ele>323.6</ele>
        <time>2025-12-15T12:53:04Z</time>
      </trkpt>
      <trkpt lat="45.72596" lon="4.66612">
        <ele>323.6</ele>
        <time>2025-12-15T12:53:05Z</time>
      </trkpt>
      <trkpt lat="45.72597" lon="4.66605">
        <ele>323.4</ele>
        <time>2025-12-15T12:53:06Z</time>
      </trkpt>
      <trkpt lat="45.72599" lon="4.66599">
        <ele>323.4</ele>
        <time>2025-12-15T12:53:07Z</time>
      </trkpt>
      <trkpt lat="45.72601" lon="4.66592">
        <ele>323.4</ele>
        <time>2025-12-15T12:53:08Z</time>
      </trkpt>
      <trkpt lat="45.72603" lon="4.66586">
        <ele>323.4</ele>
        <time>2025-12-15T12:53:09Z</time>
      </trkpt>
      <trkpt lat="45.72605" lon="4.6658">
        <ele>323.4</ele>
        <time>2025-12-15T12:53:10Z</time>
      </trkpt>
      <trkpt lat="45.72606" lon="4.66573">
        <ele>323.6</ele>
        <time>2025-12-15T12:53:11Z</time>
      </trkpt>
      <trkpt lat="45.72608" lon="4.66567">
        <ele>323.8</ele>
        <time>2025-12-15T12:53:12Z</time>
      </trkpt>
      <trkpt lat="45.7261" lon="4.66561">
        <ele>324</ele>
        <time>2025-12-15T12:53:13Z</time>
      </trkpt>
      <trkpt lat="45.72612" lon="4.66555">
        <ele>324.4</ele>
        <time>2025-12-15T12:53:14Z</time>
      </trkpt>
      <trkpt lat="45.72614" lon="4.66549">
        <ele>324.6</ele>
        <time>2025-12-15T12:53:15Z</time>
      </trkpt>
      <trkpt lat="45.72616" lon="4.66543">
        <ele>325</ele>
        <time>2025-12-15T12:53:16Z</time>
      </trkpt>
      <trkpt lat="45.72618" lon="4.66537">
        <ele>325.4</ele>
        <time>2025-12-15T12:53:17Z</time>
      </trkpt>
      <trkpt lat="45.7262" lon="4.66531">
        <ele>325.6</ele>
        <time>2025-12-15T12:53:18Z</time>
      </trkpt>
      <trkpt lat="45.72622" lon="4.66525">
        <ele>326</ele>
        <time>2025-12-15T12:53:19Z</time>
      </trkpt>
      <trkpt lat="45.72624" lon="4.66519">
        <ele>326.2</ele>
        <time>2025-12-15T12:53:20Z</time>
      </trkpt>
      <trkpt lat="45.72626" lon="4.66513">
        <ele>326.6</ele>
        <time>2025-12-15T12:53:21Z</time>
      </trkpt>
      <trkpt lat="45.72629" lon="4.66507">
        <ele>326.8</ele>
        <time>2025-12-15T12:53:22Z</time>
      </trkpt>
      <trkpt lat="45.72631" lon="4.66501">
        <ele>327</ele>
        <time>2025-12-15T12:53:23Z</time>
      </trkpt>
      <trkpt lat="45.72634" lon="4.66495">
        <ele>327.4</ele>
        <time>2025-12-15T12:53:24Z</time>
      </trkpt>
      <trkpt lat="45.72636" lon="4.66489">
        <ele>327.6</ele>
        <time>2025-12-15T12:53:25Z</time>
      </trkpt>
      <trkpt lat="45.72639" lon="4.66483">
        <ele>327.6</ele>
        <time>2025-12-15T12:53:26Z</time>
      </trkpt>
      <trkpt lat="45.72641" lon="4.66476">
        <ele>327.8</ele>
        <time>2025-12-15T12:53:27Z</time>
      </trkpt>
      <trkpt lat="45.72644" lon="4.6647">
        <ele>328.2</ele>
        <time>2025-12-15T12:53:28Z</time>
      </trkpt>
      <trkpt lat="45.72646" lon="4.66464">
        <ele>328.4</ele>
        <time>2025-12-15T12:53:29Z</time>
      </trkpt>
      <trkpt lat="45.72649" lon="4.66458">
        <ele>328.6</ele>
        <time>2025-12-15T12:53:30Z</time>
      </trkpt>
      <trkpt lat="45.72651" lon="4.66452">
        <ele>328.8</ele>
        <time>2025-12-15T12:53:31Z</time>
      </trkpt>
      <trkpt lat="45.72653" lon="4.66446">
        <ele>329</ele>
        <time>2025-12-15T12:53:32Z</time>
      </trkpt>
      <trkpt lat="45.72656" lon="4.6644">
        <ele>329.2</ele>
        <time>2025-12-15T12:53:33Z</time>
      </trkpt>
      <trkpt lat="45.72659" lon="4.66434">
        <ele>329.4</ele>
        <time>2025-12-15T12:53:34Z</time>
      </trkpt>
      <trkpt lat="45.72661" lon="4.66428">
        <ele>329.6</ele>
        <time>2025-12-15T12:53:35Z</time>
      </trkpt>
      <trkpt lat="45.72663" lon="4.66422">
        <ele>329.8</ele>
        <time>2025-12-15T12:53:36Z</time>
      </trkpt>
      <trkpt lat="45.72665" lon="4.66417">
        <ele>330.2</ele>
        <time>2025-12-15T12:53:37Z</time>
      </trkpt>
      <trkpt lat="45.72668" lon="4.66411">
        <ele>330.4</ele>
        <time>2025-12-15T12:53:38Z</time>
      </trkpt>
      <trkpt lat="45.72671" lon="4.66405">
        <ele>330.6</ele>
        <time>2025-12-15T12:53:39Z</time>
      </trkpt>
      <trkpt lat="45.72673" lon="4.66399">
        <ele>330.8</ele>
        <time>2025-12-15T12:53:40Z</time>
      </trkpt>
      <trkpt lat="45.72676" lon="4.66394">
        <ele>331</ele>
        <time>2025-12-15T12:53:41Z</time>
      </trkpt>
      <trkpt lat="45.72678" lon="4.66388">
        <ele>331.2</ele>
        <time>2025-12-15T12:53:42Z</time>
      </trkpt>
      <trkpt lat="45.7268" lon="4.66382">
        <ele>331.2</ele>
        <time>2025-12-15T12:53:43Z</time>
      </trkpt>
      <trkpt lat="45.72682" lon="4.66375">
        <ele>331.4</ele>
        <time>2025-12-15T12:53:44Z</time>
      </trkpt>
      <trkpt lat="45.72684" lon="4.66369">
        <ele>331.4</ele>
        <time>2025-12-15T12:53:45Z</time>
      </trkpt>
      <trkpt lat="45.72686" lon="4.66363">
        <ele>331.6</ele>
        <time>2025-12-15T12:53:46Z</time>
      </trkpt>
      <trkpt lat="45.72688" lon="4.66357">
        <ele>331.6</ele>
        <time>2025-12-15T12:53:47Z</time>
      </trkpt>
      <trkpt lat="45.7269" lon="4.6635">
        <ele>331.8</ele>
        <time>2025-12-15T12:53:48Z</time>
      </trkpt>
      <trkpt lat="45.72692" lon="4.66344">
        <ele>332</ele>
        <time>2025-12-15T12:53:49Z</time>
      </trkpt>
      <trkpt lat="45.72695" lon="4.66338">
        <ele>332.4</ele>
        <time>2025-12-15T12:53:50Z</time>
      </trkpt>
      <trkpt lat="45.72697" lon="4.66332">
        <ele>332.4</ele>
        <time>2025-12-15T12:53:51Z</time>
      </trkpt>
      <trkpt lat="45.72699" lon="4.66326">
        <ele>332.6</ele>
        <time>2025-12-15T12:53:52Z</time>
      </trkpt>
      <trkpt lat="45.72701" lon="4.6632">
        <ele>332.8</ele>
        <time>2025-12-15T12:53:53Z</time>
      </trkpt>
      <trkpt lat="45.72703" lon="4.66314">
        <ele>333</ele>
        <time>2025-12-15T12:53:54Z</time>
      </trkpt>
      <trkpt lat="45.72706" lon="4.66309">
        <ele>333.2</ele>
        <time>2025-12-15T12:53:55Z</time>
      </trkpt>
      <trkpt lat="45.72707" lon="4.66303">
        <ele>333.4</ele>
        <time>2025-12-15T12:53:56Z</time>
      </trkpt>
      <trkpt lat="45.72709" lon="4.66297">
        <ele>333.8</ele>
        <time>2025-12-15T12:53:57Z</time>
      </trkpt>
      <trkpt lat="45.72711" lon="4.66291">
        <ele>334.2</ele>
        <time>2025-12-15T12:53:58Z</time>
      </trkpt>
      <trkpt lat="45.72713" lon="4.66286">
        <ele>334.6</ele>
        <time>2025-12-15T12:53:59Z</time>
      </trkpt>
      <trkpt lat="45.72715" lon="4.66281">
        <ele>335</ele>
        <time>2025-12-15T12:54:00Z</time>
      </trkpt>
      <trkpt lat="45.72717" lon="4.66275">
        <ele>335.4</ele>
        <time>2025-12-15T12:54:01Z</time>
      </trkpt>
      <trkpt lat="45.72718" lon="4.6627">
        <ele>335.8</ele>
        <time>2025-12-15T12:54:02Z</time>
      </trkpt>
      <trkpt lat="45.7272" lon="4.66264">
        <ele>336.2</ele>
        <time>2025-12-15T12:54:03Z</time>
      </trkpt>
      <trkpt lat="45.72722" lon="4.66259">
        <ele>336.6</ele>
        <time>2025-12-15T12:54:04Z</time>
      </trkpt>
      <trkpt lat="45.72724" lon="4.66254">
        <ele>337</ele>
        <time>2025-12-15T12:54:05Z</time>
      </trkpt>
      <trkpt lat="45.72726" lon="4.66248">
        <ele>337.2</ele>
        <time>2025-12-15T12:54:06Z</time>
      </trkpt>
      <trkpt lat="45.72728" lon="4.66243">
        <ele>337.6</ele>
        <time>2025-12-15T12:54:07Z</time>
      </trkpt>
      <trkpt lat="45.72729" lon="4.66238">
        <ele>337.8</ele>
        <time>2025-12-15T12:54:08Z</time>
      </trkpt>
      <trkpt lat="45.72731" lon="4.66232">
        <ele>338.2</ele>
        <time>2025-12-15T12:54:09Z</time>
      </trkpt>
      <trkpt lat="45.72733" lon="4.66227">
        <ele>338.4</ele>
        <time>2025-12-15T12:54:10Z</time>
      </trkpt>
      <trkpt lat="45.72735" lon="4.66222">
        <ele>338.8</ele>
        <time>2025-12-15T12:54:11Z</time>
      </trkpt>
      <trkpt lat="45.72737" lon="4.66217">
        <ele>339</ele>
        <time>2025-12-15T12:54:12Z</time>
      </trkpt>
      <trkpt lat="45.72738" lon="4.66212">
        <ele>339.4</ele>
        <time>2025-12-15T12:54:13Z</time>
      </trkpt>
      <trkpt lat="45.72741" lon="4.66207">
        <ele>339.6</ele>
        <time>2025-12-15T12:54:14Z</time>
      </trkpt>
      <trkpt lat="45.72742" lon="4.66202">
        <ele>340</ele>
        <time>2025-12-15T12:54:15Z</time>
      </trkpt>
      <trkpt lat="45.72744" lon="4.66197">
        <ele>340.2</ele>
        <time>2025-12-15T12:54:16Z</time>
      </trkpt>
      <trkpt lat="45.72746" lon="4.66192">
        <ele>340.4</ele>
        <time>2025-12-15T12:54:17Z</time>
      </trkpt>
      <trkpt lat="45.72748" lon="4.66187">
        <ele>340.8</ele>
        <time>2025-12-15T12:54:18Z</time>
      </trkpt>
      <trkpt lat="45.7275" lon="4.66181">
        <ele>341</ele>
        <time>2025-12-15T12:54:19Z</time>
      </trkpt>
      <trkpt lat="45.72752" lon="4.66176">
        <ele>341.2</ele>
        <time>2025-12-15T12:54:20Z</time>
      </trkpt>
      <trkpt lat="45.72753" lon="4.6617">
        <ele>341.4</ele>
        <time>2025-12-15T12:54:21Z</time>
      </trkpt>
      <trkpt lat="45.72755" lon="4.66165">
        <ele>341.6</ele>
        <time>2025-12-15T12:54:22Z</time>
      </trkpt>
      <trkpt lat="45.72757" lon="4.66159">
        <ele>341.6</ele>
        <time>2025-12-15T12:54:23Z</time>
      </trkpt>
      <trkpt lat="45.72759" lon="4.66154">
        <ele>341.8</ele>
        <time>2025-12-15T12:54:24Z</time>
      </trkpt>
      <trkpt lat="45.72761" lon="4.66148">
        <ele>342</ele>
        <time>2025-12-15T12:54:25Z</time>
      </trkpt>
      <trkpt lat="45.72762" lon="4.66142">
        <ele>342.2</ele>
        <time>2025-12-15T12:54:26Z</time>
      </trkpt>
      <trkpt lat="45.72764" lon="4.66137">
        <ele>342.4</ele>
        <time>2025-12-15T12:54:27Z</time>
      </trkpt>
      <trkpt lat="45.72766" lon="4.66131">
        <ele>342.6</ele>
        <time>2025-12-15T12:54:28Z</time>
      </trkpt>
      <trkpt lat="45.72768" lon="4.66126">
        <ele>342.6</ele>
        <time>2025-12-15T12:54:29Z</time>
      </trkpt>
      <trkpt lat="45.72769" lon="4.6612">
        <ele>342.8</ele>
        <time>2025-12-15T12:54:30Z</time>
      </trkpt>
      <trkpt lat="45.72771" lon="4.66114">
        <ele>343</ele>
        <time>2025-12-15T12:54:31Z</time>
      </trkpt>
      <trkpt lat="45.72773" lon="4.66108">
        <ele>343.2</ele>
        <time>2025-12-15T12:54:32Z</time>
      </trkpt>
      <trkpt lat="45.72775" lon="4.66103">
        <ele>343.4</ele>
        <time>2025-12-15T12:54:33Z</time>
      </trkpt>
      <trkpt lat="45.72777" lon="4.66097">
        <ele>343.6</ele>
        <time>2025-12-15T12:54:34Z</time>
      </trkpt>
      <trkpt lat="45.72779" lon="4.66091">
        <ele>343.8</ele>
        <time>2025-12-15T12:54:35Z</time>
      </trkpt>
      <trkpt lat="45.7278" lon="4.66085">
        <ele>344</ele>
        <time>2025-12-15T12:54:36Z</time>
      </trkpt>
      <trkpt lat="45.72782" lon="4.6608">
        <ele>344.2</ele>
        <time>2025-12-15T12:54:37Z</time>
      </trkpt>
      <trkpt lat="45.72784" lon="4.66073">
        <ele>344.4</ele>
        <time>2025-12-15T12:54:38Z</time>
      </trkpt>
      <trkpt lat="45.72786" lon="4.66068">
        <ele>344.6</ele>
        <time>2025-12-15T12:54:39Z</time>
      </trkpt>
      <trkpt lat="45.72788" lon="4.66062">
        <ele>344.8</ele>
        <time>2025-12-15T12:54:40Z</time>
      </trkpt>
      <trkpt lat="45.7279" lon="4.66056">
        <ele>345</ele>
        <time>2025-12-15T12:54:41Z</time>
      </trkpt>
      <trkpt lat="45.72793" lon="4.6605">
        <ele>345.2</ele>
        <time>2025-12-15T12:54:42Z</time>
      </trkpt>
      <trkpt lat="45.72795" lon="4.66044">
        <ele>345.4</ele>
        <time>2025-12-15T12:54:43Z</time>
      </trkpt>
      <trkpt lat="45.72797" lon="4.66038">
        <ele>345.6</ele>
        <time>2025-12-15T12:54:44Z</time>
      </trkpt>
      <trkpt lat="45.72798" lon="4.66031">
        <ele>345.8</ele>
        <time>2025-12-15T12:54:45Z</time>
      </trkpt>
      <trkpt lat="45.728" lon="4.66025">
        <ele>346</ele>
        <time>2025-12-15T12:54:46Z</time>
      </trkpt>
      <trkpt lat="45.72802" lon="4.66018">
        <ele>346</ele>
        <time>2025-12-15T12:54:47Z</time>
      </trkpt>
      <trkpt lat="45.72804" lon="4.66012">
        <ele>346</ele>
        <time>2025-12-15T12:54:48Z</time>
      </trkpt>
      <trkpt lat="45.72806" lon="4.66006">
        <ele>346</ele>
        <time>2025-12-15T12:54:49Z</time>
      </trkpt>
      <trkpt lat="45.72807" lon="4.66">
        <ele>346</ele>
        <time>2025-12-15T12:54:50Z</time>
      </trkpt>
      <trkpt lat="45.72809" lon="4.65994">
        <ele>346</ele>
        <time>2025-12-15T12:54:51Z</time>
      </trkpt>
      <trkpt lat="45.72811" lon="4.65987">
        <ele>346.2</ele>
        <time>2025-12-15T12:54:52Z</time>
      </trkpt>
      <trkpt lat="45.72813" lon="4.65982">
        <ele>346.4</ele>
        <time>2025-12-15T12:54:53Z</time>
      </trkpt>
      <trkpt lat="45.72815" lon="4.65975">
        <ele>346.6</ele>
        <time>2025-12-15T12:54:54Z</time>
      </trkpt>
      <trkpt lat="45.72817" lon="4.65969">
        <ele>347</ele>
        <time>2025-12-15T12:54:55Z</time>
      </trkpt>
      <trkpt lat="45.72818" lon="4.65963">
        <ele>347.2</ele>
        <time>2025-12-15T12:54:56Z</time>
      </trkpt>
      <trkpt lat="45.7282" lon="4.65957">
        <ele>347.6</ele>
        <time>2025-12-15T12:54:57Z</time>
      </trkpt>
      <trkpt lat="45.72821" lon="4.65952">
        <ele>348</ele>
        <time>2025-12-15T12:54:58Z</time>
      </trkpt>
      <trkpt lat="45.72822" lon="4.65946">
        <ele>348.2</ele>
        <time>2025-12-15T12:54:59Z</time>
      </trkpt>
      <trkpt lat="45.72823" lon="4.65942">
        <ele>348.6</ele>
        <time>2025-12-15T12:55:00Z</time>
      </trkpt>
      <trkpt lat="45.72824" lon="4.65938">
        <ele>349</ele>
        <time>2025-12-15T12:55:01Z</time>
      </trkpt>
      <trkpt lat="45.72826" lon="4.65933">
        <ele>349.6</ele>
        <time>2025-12-15T12:55:02Z</time>
      </trkpt>
      <trkpt lat="45.72827" lon="4.65929">
        <ele>350</ele>
        <time>2025-12-15T12:55:03Z</time>
      </trkpt>
      <trkpt lat="45.72828" lon="4.65925">
        <ele>350.4</ele>
        <time>2025-12-15T12:55:04Z</time>
      </trkpt>
      <trkpt lat="45.72829" lon="4.65921">
        <ele>350.8</ele>
        <time>2025-12-15T12:55:05Z</time>
      </trkpt>
      <trkpt lat="45.72829" lon="4.65916">
        <ele>351.2</ele>
        <time>2025-12-15T12:55:06Z</time>
      </trkpt>
      <trkpt lat="45.7283" lon="4.65911">
        <ele>351.6</ele>
        <time>2025-12-15T12:55:07Z</time>
      </trkpt>
      <trkpt lat="45.72831" lon="4.65907">
        <ele>352</ele>
        <time>2025-12-15T12:55:08Z</time>
      </trkpt>
      <trkpt lat="45.72832" lon="4.65902">
        <ele>352.4</ele>
        <time>2025-12-15T12:55:09Z</time>
      </trkpt>
      <trkpt lat="45.72833" lon="4.65897">
        <ele>353</ele>
        <time>2025-12-15T12:55:10Z</time>
      </trkpt>
      <trkpt lat="45.72834" lon="4.65893">
        <ele>353.4</ele>
        <time>2025-12-15T12:55:11Z</time>
      </trkpt>
      <trkpt lat="45.72835" lon="4.65888">
        <ele>353.8</ele>
        <time>2025-12-15T12:55:12Z</time>
      </trkpt>
      <trkpt lat="45.72836" lon="4.65883">
        <ele>354.2</ele>
        <time>2025-12-15T12:55:13Z</time>
      </trkpt>
      <trkpt lat="45.72837" lon="4.65879">
        <ele>354.6</ele>
        <time>2025-12-15T12:55:14Z</time>
      </trkpt>
      <trkpt lat="45.72838" lon="4.65874">
        <ele>354.8</ele>
        <time>2025-12-15T12:55:15Z</time>
      </trkpt>
      <trkpt lat="45.72839" lon="4.65869">
        <ele>355</ele>
        <time>2025-12-15T12:55:16Z</time>
      </trkpt>
      <trkpt lat="45.7284" lon="4.65865">
        <ele>355.4</ele>
        <time>2025-12-15T12:55:17Z</time>
      </trkpt>
      <trkpt lat="45.72841" lon="4.6586">
        <ele>355.6</ele>
        <time>2025-12-15T12:55:18Z</time>
      </trkpt>
      <trkpt lat="45.72842" lon="4.65856">
        <ele>355.8</ele>
        <time>2025-12-15T12:55:19Z</time>
      </trkpt>
      <trkpt lat="45.72843" lon="4.65852">
        <ele>356.2</ele>
        <time>2025-12-15T12:55:20Z</time>
      </trkpt>
      <trkpt lat="45.72844" lon="4.65848">
        <ele>356.4</ele>
        <time>2025-12-15T12:55:21Z</time>
      </trkpt>
      <trkpt lat="45.72845" lon="4.65844">
        <ele>356.8</ele>
        <time>2025-12-15T12:55:22Z</time>
      </trkpt>
      <trkpt lat="45.72846" lon="4.6584">
        <ele>357.2</ele>
        <time>2025-12-15T12:55:23Z</time>
      </trkpt>
      <trkpt lat="45.72847" lon="4.65835">
        <ele>357.6</ele>
        <time>2025-12-15T12:55:24Z</time>
      </trkpt>
      <trkpt lat="45.72848" lon="4.65831">
        <ele>357.8</ele>
        <time>2025-12-15T12:55:25Z</time>
      </trkpt>
      <trkpt lat="45.72849" lon="4.65827">
        <ele>358</ele>
        <time>2025-12-15T12:55:26Z</time>
      </trkpt>
      <trkpt lat="45.7285" lon="4.65823">
        <ele>358.2</ele>
        <time>2025-12-15T12:55:27Z</time>
      </trkpt>
      <trkpt lat="45.7285" lon="4.65819">
        <ele>358.4</ele>
        <time>2025-12-15T12:55:28Z</time>
      </trkpt>
      <trkpt lat="45.72851" lon="4.65815">
        <ele>358.8</ele>
        <time>2025-12-15T12:55:29Z</time>
      </trkpt>
      <trkpt lat="45.72852" lon="4.65811">
        <ele>359.2</ele>
        <time>2025-12-15T12:55:30Z</time>
      </trkpt>
      <trkpt lat="45.72853" lon="4.65807">
        <ele>359.6</ele>
        <time>2025-12-15T12:55:31Z</time>
      </trkpt>
      <trkpt lat="45.72853" lon="4.65802">
        <ele>359.8</ele>
        <time>2025-12-15T12:55:32Z</time>
      </trkpt>
      <trkpt lat="45.72853" lon="4.65798">
        <ele>360.2</ele>
        <time>2025-12-15T12:55:33Z</time>
      </trkpt>
      <trkpt lat="45.72854" lon="4.65794">
        <ele>360.6</ele>
        <time>2025-12-15T12:55:34Z</time>
      </trkpt>
      <trkpt lat="45.72854" lon="4.6579">
        <ele>360.8</ele>
        <time>2025-12-15T12:55:35Z</time>
      </trkpt>
      <trkpt lat="45.72855" lon="4.65786">
        <ele>361.2</ele>
        <time>2025-12-15T12:55:36Z</time>
      </trkpt>
      <trkpt lat="45.72855" lon="4.65782">
        <ele>361.6</ele>
        <time>2025-12-15T12:55:37Z</time>
      </trkpt>
      <trkpt lat="45.72856" lon="4.65778">
        <ele>361.8</ele>
        <time>2025-12-15T12:55:38Z</time>
      </trkpt>
      <trkpt lat="45.72856" lon="4.65774">
        <ele>362.4</ele>
        <time>2025-12-15T12:55:39Z</time>
      </trkpt>
      <trkpt lat="45.72857" lon="4.6577">
        <ele>362.8</ele>
        <time>2025-12-15T12:55:40Z</time>
      </trkpt>
      <trkpt lat="45.72857" lon="4.65766">
        <ele>363.2</ele>
        <time>2025-12-15T12:55:41Z</time>
      </trkpt>
      <trkpt lat="45.72857" lon="4.65763">
        <ele>363.6</ele>
        <time>2025-12-15T12:55:42Z</time>
      </trkpt>
      <trkpt lat="45.72858" lon="4.6576">
        <ele>364.2</ele>
        <time>2025-12-15T12:55:43Z</time>
      </trkpt>
      <trkpt lat="45.72859" lon="4.65756">
        <ele>364.6</ele>
        <time>2025-12-15T12:55:44Z</time>
      </trkpt>
      <trkpt lat="45.7286" lon="4.65753">
        <ele>364.8</ele>
        <time>2025-12-15T12:55:45Z</time>
      </trkpt>
      <trkpt lat="45.72861" lon="4.65751">
        <ele>365.2</ele>
        <time>2025-12-15T12:55:46Z</time>
      </trkpt>
      <trkpt lat="45.72861" lon="4.65748">
        <ele>365.6</ele>
        <time>2025-12-15T12:55:47Z</time>
      </trkpt>
      <trkpt lat="45.72862" lon="4.65744">
        <ele>366</ele>
        <time>2025-12-15T12:55:48Z</time>
      </trkpt>
      <trkpt lat="45.72863" lon="4.65741">
        <ele>366.6</ele>
        <time>2025-12-15T12:55:49Z</time>
      </trkpt>
      <trkpt lat="45.72863" lon="4.65738">
        <ele>367</ele>
        <time>2025-12-15T12:55:50Z</time>
      </trkpt>
      <trkpt lat="45.72864" lon="4.65735">
        <ele>367.4</ele>
        <time>2025-12-15T12:55:51Z</time>
      </trkpt>
      <trkpt lat="45.72865" lon="4.65732">
        <ele>367.8</ele>
        <time>2025-12-15T12:55:52Z</time>
      </trkpt>
      <trkpt lat="45.72865" lon="4.65729">
        <ele>368.2</ele>
        <time>2025-12-15T12:55:53Z</time>
      </trkpt>
      <trkpt lat="45.72865" lon="4.65726">
        <ele>368.6</ele>
        <time>2025-12-15T12:55:54Z</time>
      </trkpt>
      <trkpt lat="45.72866" lon="4.65723">
        <ele>368.8</ele>
        <time>2025-12-15T12:55:55Z</time>
      </trkpt>
      <trkpt lat="45.72866" lon="4.6572">
        <ele>369.2</ele>
        <time>2025-12-15T12:55:56Z</time>
      </trkpt>
      <trkpt lat="45.72868" lon="4.65717">
        <ele>369.6</ele>
        <time>2025-12-15T12:55:57Z</time>
      </trkpt>
      <trkpt lat="45.72869" lon="4.65714">
        <ele>369.8</ele>
        <time>2025-12-15T12:55:58Z</time>
      </trkpt>
      <trkpt lat="45.72871" lon="4.65711">
        <ele>370</ele>
        <time>2025-12-15T12:55:59Z</time>
      </trkpt>
      <trkpt lat="45.72872" lon="4.65708">
        <ele>370.2</ele>
        <time>2025-12-15T12:56:00Z</time>
      </trkpt>
      <trkpt lat="45.72874" lon="4.65706">
        <ele>370.4</ele>
        <time>2025-12-15T12:56:01Z</time>
      </trkpt>
      <trkpt lat="45.72875" lon="4.65703">
        <ele>370.8</ele>
        <time>2025-12-15T12:56:02Z</time>
      </trkpt>
      <trkpt lat="45.72876" lon="4.65701">
        <ele>371</ele>
        <time>2025-12-15T12:56:03Z</time>
      </trkpt>
      <trkpt lat="45.72877" lon="4.65699">
        <ele>371.4</ele>
        <time>2025-12-15T12:56:04Z</time>
      </trkpt>
      <trkpt lat="45.72879" lon="4.65697">
        <ele>371.6</ele>
        <time>2025-12-15T12:56:05Z</time>
      </trkpt>
      <trkpt lat="45.72881" lon="4.65694">
        <ele>371.8</ele>
        <time>2025-12-15T12:56:06Z</time>
      </trkpt>
      <trkpt lat="45.72883" lon="4.65692">
        <ele>371.8</ele>
        <time>2025-12-15T12:56:07Z</time>
      </trkpt>
      <trkpt lat="45.72886" lon="4.65689">
        <ele>371.8</ele>
        <time>2025-12-15T12:56:08Z</time>
      </trkpt>
      <trkpt lat="45.72888" lon="4.65686">
        <ele>371.6</ele>
        <time>2025-12-15T12:56:09Z</time>
      </trkpt>
      <trkpt lat="45.72891" lon="4.65683">
        <ele>371.8</ele>
        <time>2025-12-15T12:56:10Z</time>
      </trkpt>
      <trkpt lat="45.72893" lon="4.6568">
        <ele>371.8</ele>
        <time>2025-12-15T12:56:11Z</time>
      </trkpt>
      <trkpt lat="45.72895" lon="4.65678">
        <ele>372</ele>
        <time>2025-12-15T12:56:12Z</time>
      </trkpt>
      <trkpt lat="45.72898" lon="4.65675">
        <ele>372.2</ele>
        <time>2025-12-15T12:56:13Z</time>
      </trkpt>
      <trkpt lat="45.729" lon="4.65673">
        <ele>372.6</ele>
        <time>2025-12-15T12:56:14Z</time>
      </trkpt>
      <trkpt lat="45.72903" lon="4.6567">
        <ele>372.8</ele>
        <time>2025-12-15T12:56:15Z</time>
      </trkpt>
      <trkpt lat="45.72906" lon="4.65668">
        <ele>373</ele>
        <time>2025-12-15T12:56:16Z</time>
      </trkpt>
      <trkpt lat="45.72909" lon="4.65666">
        <ele>373.2</ele>
        <time>2025-12-15T12:56:17Z</time>
      </trkpt>
      <trkpt lat="45.72911" lon="4.65663">
        <ele>373.2</ele>
        <time>2025-12-15T12:56:18Z</time>
      </trkpt>
      <trkpt lat="45.72914" lon="4.65662">
        <ele>373.4</ele>
        <time>2025-12-15T12:56:19Z</time>
      </trkpt>
      <trkpt lat="45.72917" lon="4.6566">
        <ele>373.6</ele>
        <time>2025-12-15T12:56:20Z</time>
      </trkpt>
      <trkpt lat="45.72919" lon="4.65657">
        <ele>374</ele>
        <time>2025-12-15T12:56:21Z</time>
      </trkpt>
      <trkpt lat="45.72922" lon="4.65655">
        <ele>374.2</ele>
        <time>2025-12-15T12:56:22Z</time>
      </trkpt>
      <trkpt lat="45.72925" lon="4.65652">
        <ele>374.4</ele>
        <time>2025-12-15T12:56:23Z</time>
      </trkpt>
      <trkpt lat="45.72928" lon="4.6565">
        <ele>374.6</ele>
        <time>2025-12-15T12:56:24Z</time>
      </trkpt>
      <trkpt lat="45.7293" lon="4.65647">
        <ele>374.8</ele>
        <time>2025-12-15T12:56:25Z</time>
      </trkpt>
      <trkpt lat="45.72934" lon="4.65645">
        <ele>375</ele>
        <time>2025-12-15T12:56:26Z</time>
      </trkpt>
      <trkpt lat="45.72937" lon="4.65643">
        <ele>375</ele>
        <time>2025-12-15T12:56:27Z</time>
      </trkpt>
      <trkpt lat="45.7294" lon="4.6564">
        <ele>375.2</ele>
        <time>2025-12-15T12:56:28Z</time>
      </trkpt>
      <trkpt lat="45.72943" lon="4.65638">
        <ele>375.2</ele>
        <time>2025-12-15T12:56:29Z</time>
      </trkpt>
      <trkpt lat="45.72946" lon="4.65636">
        <ele>375.4</ele>
        <time>2025-12-15T12:56:30Z</time>
      </trkpt>
      <trkpt lat="45.72949" lon="4.65633">
        <ele>375.4</ele>
        <time>2025-12-15T12:56:31Z</time>
      </trkpt>
      <trkpt lat="45.72952" lon="4.65631">
        <ele>375.6</ele>
        <time>2025-12-15T12:56:32Z</time>
      </trkpt>
      <trkpt lat="45.72955" lon="4.65629">
        <ele>375.6</ele>
        <time>2025-12-15T12:56:33Z</time>
      </trkpt>
      <trkpt lat="45.72958" lon="4.65626">
        <ele>375.8</ele>
        <time>2025-12-15T12:56:34Z</time>
      </trkpt>
      <trkpt lat="45.72961" lon="4.65624">
        <ele>375.8</ele>
        <time>2025-12-15T12:56:35Z</time>
      </trkpt>
      <trkpt lat="45.72964" lon="4.65622">
        <ele>376</ele>
        <time>2025-12-15T12:56:36Z</time>
      </trkpt>
      <trkpt lat="45.72967" lon="4.6562">
        <ele>376.2</ele>
        <time>2025-12-15T12:56:37Z</time>
      </trkpt>
      <trkpt lat="45.7297" lon="4.65617">
        <ele>376.2</ele>
        <time>2025-12-15T12:56:38Z</time>
      </trkpt>
      <trkpt lat="45.72972" lon="4.65615">
        <ele>376.4</ele>
        <time>2025-12-15T12:56:39Z</time>
      </trkpt>
      <trkpt lat="45.72975" lon="4.65613">
        <ele>376.6</ele>
        <time>2025-12-15T12:56:40Z</time>
      </trkpt>
      <trkpt lat="45.72978" lon="4.6561">
        <ele>376.8</ele>
        <time>2025-12-15T12:56:41Z</time>
      </trkpt>
      <trkpt lat="45.72981" lon="4.65608">
        <ele>377</ele>
        <time>2025-12-15T12:56:42Z</time>
      </trkpt>
      <trkpt lat="45.72984" lon="4.65605">
        <ele>377.2</ele>
        <time>2025-12-15T12:56:43Z</time>
      </trkpt>
      <trkpt lat="45.72987" lon="4.65603">
        <ele>377.4</ele>
        <time>2025-12-15T12:56:44Z</time>
      </trkpt>
      <trkpt lat="45.7299" lon="4.65601">
        <ele>377.6</ele>
        <time>2025-12-15T12:56:45Z</time>
      </trkpt>
      <trkpt lat="45.72993" lon="4.65598">
        <ele>377.8</ele>
        <time>2025-12-15T12:56:46Z</time>
      </trkpt>
      <trkpt lat="45.72995" lon="4.65597">
        <ele>378</ele>
        <time>2025-12-15T12:56:47Z</time>
      </trkpt>
      <trkpt lat="45.72998" lon="4.65595">
        <ele>378.2</ele>
        <time>2025-12-15T12:56:48Z</time>
      </trkpt>
      <trkpt lat="45.73" lon="4.65593">
        <ele>378.4</ele>
        <time>2025-12-15T12:56:49Z</time>
      </trkpt>
      <trkpt lat="45.73003" lon="4.65591">
        <ele>378.8</ele>
        <time>2025-12-15T12:56:50Z</time>
      </trkpt>
      <trkpt lat="45.73005" lon="4.6559">
        <ele>379</ele>
        <time>2025-12-15T12:56:51Z</time>
      </trkpt>
      <trkpt lat="45.73008" lon="4.65588">
        <ele>379.4</ele>
        <time>2025-12-15T12:56:52Z</time>
      </trkpt>
      <trkpt lat="45.73011" lon="4.65587">
        <ele>379.6</ele>
        <time>2025-12-15T12:56:53Z</time>
      </trkpt>
      <trkpt lat="45.73014" lon="4.65585">
        <ele>379.8</ele>
        <time>2025-12-15T12:56:54Z</time>
      </trkpt>
      <trkpt lat="45.73016" lon="4.65583">
        <ele>380</ele>
        <time>2025-12-15T12:56:55Z</time>
      </trkpt>
      <trkpt lat="45.73019" lon="4.65581">
        <ele>380.2</ele>
        <time>2025-12-15T12:56:56Z</time>
      </trkpt>
      <trkpt lat="45.73022" lon="4.65579">
        <ele>380.6</ele>
        <time>2025-12-15T12:56:57Z</time>
      </trkpt>
      <trkpt lat="45.73024" lon="4.65576">
        <ele>380.8</ele>
        <time>2025-12-15T12:56:58Z</time>
      </trkpt>
      <trkpt lat="45.73027" lon="4.65574">
        <ele>381</ele>
        <time>2025-12-15T12:56:59Z</time>
      </trkpt>
      <trkpt lat="45.73029" lon="4.6557">
        <ele>381.2</ele>
        <time>2025-12-15T12:57:00Z</time>
      </trkpt>
      <trkpt lat="45.73031" lon="4.65567">
        <ele>381.4</ele>
        <time>2025-12-15T12:57:01Z</time>
      </trkpt>
      <trkpt lat="45.73033" lon="4.65564">
        <ele>381.6</ele>
        <time>2025-12-15T12:57:02Z</time>
      </trkpt>
      <trkpt lat="45.73035" lon="4.6556">
        <ele>381.6</ele>
        <time>2025-12-15T12:57:03Z</time>
      </trkpt>
      <trkpt lat="45.73037" lon="4.65555">
        <ele>381.8</ele>
        <time>2025-12-15T12:57:04Z</time>
      </trkpt>
      <trkpt lat="45.73038" lon="4.65551">
        <ele>381.8</ele>
        <time>2025-12-15T12:57:05Z</time>
      </trkpt>
      <trkpt lat="45.7304" lon="4.65547">
        <ele>382</ele>
        <time>2025-12-15T12:57:06Z</time>
      </trkpt>
      <trkpt lat="45.73042" lon="4.65544">
        <ele>382.2</ele>
        <time>2025-12-15T12:57:07Z</time>
      </trkpt>
      <trkpt lat="45.73044" lon="4.6554">
        <ele>382.4</ele>
        <time>2025-12-15T12:57:08Z</time>
      </trkpt>
      <trkpt lat="45.73046" lon="4.65536">
        <ele>382.6</ele>
        <time>2025-12-15T12:57:09Z</time>
      </trkpt>
      <trkpt lat="45.73047" lon="4.65532">
        <ele>382.8</ele>
        <time>2025-12-15T12:57:10Z</time>
      </trkpt>
      <trkpt lat="45.73049" lon="4.65528">
        <ele>383</ele>
        <time>2025-12-15T12:57:11Z</time>
      </trkpt>
      <trkpt lat="45.7305" lon="4.65525">
        <ele>383.2</ele>
        <time>2025-12-15T12:57:12Z</time>
      </trkpt>
      <trkpt lat="45.73052" lon="4.65521">
        <ele>383.4</ele>
        <time>2025-12-15T12:57:13Z</time>
      </trkpt>
      <trkpt lat="45.73052" lon="4.65517">
        <ele>383.8</ele>
        <time>2025-12-15T12:57:14Z</time>
      </trkpt>
      <trkpt lat="45.73053" lon="4.65513">
        <ele>384.2</ele>
        <time>2025-12-15T12:57:15Z</time>
      </trkpt>
      <trkpt lat="45.73054" lon="4.65509">
        <ele>384.6</ele>
        <time>2025-12-15T12:57:16Z</time>
      </trkpt>
      <trkpt lat="45.73055" lon="4.65505">
        <ele>385.2</ele>
        <time>2025-12-15T12:57:17Z</time>
      </trkpt>
      <trkpt lat="45.73056" lon="4.65501">
        <ele>385.6</ele>
        <time>2025-12-15T12:57:18Z</time>
      </trkpt>
      <trkpt lat="45.73057" lon="4.65497">
        <ele>385.8</ele>
        <time>2025-12-15T12:57:19Z</time>
      </trkpt>
      <trkpt lat="45.73058" lon="4.65492">
        <ele>386</ele>
        <time>2025-12-15T12:57:20Z</time>
      </trkpt>
      <trkpt lat="45.73059" lon="4.65488">
        <ele>386.2</ele>
        <time>2025-12-15T12:57:21Z</time>
      </trkpt>
      <trkpt lat="45.7306" lon="4.65484">
        <ele>386.4</ele>
        <time>2025-12-15T12:57:22Z</time>
      </trkpt>
      <trkpt lat="45.73061" lon="4.65479">
        <ele>386.4</ele>
        <time>2025-12-15T12:57:23Z</time>
      </trkpt>
      <trkpt lat="45.73062" lon="4.65475">
        <ele>386.6</ele>
        <time>2025-12-15T12:57:24Z</time>
      </trkpt>
      <trkpt lat="45.73062" lon="4.6547">
        <ele>386.6</ele>
        <time>2025-12-15T12:57:25Z</time>
      </trkpt>
      <trkpt lat="45.73062" lon="4.65466">
        <ele>386.6</ele>
        <time>2025-12-15T12:57:26Z</time>
      </trkpt>
      <trkpt lat="45.73062" lon="4.65461">
        <ele>386.6</ele>
        <time>2025-12-15T12:57:27Z</time>
      </trkpt>
      <trkpt lat="45.73062" lon="4.65456">
        <ele>386.6</ele>
        <time>2025-12-15T12:57:28Z</time>
      </trkpt>
      <trkpt lat="45.73061" lon="4.65451">
        <ele>386.4</ele>
        <time>2025-12-15T12:57:29Z</time>
      </trkpt>
      <trkpt lat="45.73061" lon="4.65447">
        <ele>386.4</ele>
        <time>2025-12-15T12:57:30Z</time>
      </trkpt>
      <trkpt lat="45.7306" lon="4.65442">
        <ele>386.4</ele>
        <time>2025-12-15T12:57:31Z</time>
      </trkpt>
      <trkpt lat="45.73059" lon="4.65438">
        <ele>386.4</ele>
        <time>2025-12-15T12:57:32Z</time>
      </trkpt>
      <trkpt lat="45.73059" lon="4.65433">
        <ele>386.4</ele>
        <time>2025-12-15T12:57:33Z</time>
      </trkpt>
      <trkpt lat="45.73058" lon="4.65429">
        <ele>386.6</ele>
        <time>2025-12-15T12:57:34Z</time>
      </trkpt>
      <trkpt lat="45.73057" lon="4.65425">
        <ele>386.8</ele>
        <time>2025-12-15T12:57:35Z</time>
      </trkpt>
      <trkpt lat="45.73056" lon="4.6542">
        <ele>387</ele>
        <time>2025-12-15T12:57:36Z</time>
      </trkpt>
      <trkpt lat="45.73055" lon="4.65416">
        <ele>387.4</ele>
        <time>2025-12-15T12:57:37Z</time>
      </trkpt>
      <trkpt lat="45.73054" lon="4.65411">
        <ele>387.6</ele>
        <time>2025-12-15T12:57:38Z</time>
      </trkpt>
      <trkpt lat="45.73053" lon="4.65407">
        <ele>387.8</ele>
        <time>2025-12-15T12:57:39Z</time>
      </trkpt>
      <trkpt lat="45.73052" lon="4.65403">
        <ele>388</ele>
        <time>2025-12-15T12:57:40Z</time>
      </trkpt>
      <trkpt lat="45.73052" lon="4.65398">
        <ele>388.2</ele>
        <time>2025-12-15T12:57:41Z</time>
      </trkpt>
      <trkpt lat="45.73051" lon="4.65394">
        <ele>388.4</ele>
        <time>2025-12-15T12:57:42Z</time>
      </trkpt>
      <trkpt lat="45.73051" lon="4.65389">
        <ele>388.6</ele>
        <time>2025-12-15T12:57:43Z</time>
      </trkpt>
      <trkpt lat="45.7305" lon="4.65385">
        <ele>388.8</ele>
        <time>2025-12-15T12:57:44Z</time>
      </trkpt>
      <trkpt lat="45.73049" lon="4.6538">
        <ele>389</ele>
        <time>2025-12-15T12:57:45Z</time>
      </trkpt>
      <trkpt lat="45.73049" lon="4.65376">
        <ele>389.2</ele>
        <time>2025-12-15T12:57:46Z</time>
      </trkpt>
      <trkpt lat="45.73048" lon="4.65371">
        <ele>389.4</ele>
        <time>2025-12-15T12:57:47Z</time>
      </trkpt>
      <trkpt lat="45.73048" lon="4.65366">
        <ele>389.6</ele>
        <time>2025-12-15T12:57:48Z</time>
      </trkpt>
      <trkpt lat="45.73047" lon="4.65361">
        <ele>389.6</ele>
        <time>2025-12-15T12:57:49Z</time>
      </trkpt>
      <trkpt lat="45.73047" lon="4.65356">
        <ele>389.8</ele>
        <time>2025-12-15T12:57:50Z</time>
      </trkpt>
      <trkpt lat="45.73046" lon="4.6535">
        <ele>389.8</ele>
        <time>2025-12-15T12:57:51Z</time>
      </trkpt>
      <trkpt lat="45.73046" lon="4.65345">
        <ele>389.8</ele>
        <time>2025-12-15T12:57:52Z</time>
      </trkpt>
      <trkpt lat="45.73046" lon="4.65339">
        <ele>389.8</ele>
        <time>2025-12-15T12:57:53Z</time>
      </trkpt>
      <trkpt lat="45.73046" lon="4.65334">
        <ele>389.8</ele>
        <time>2025-12-15T12:57:54Z</time>
      </trkpt>
      <trkpt lat="45.73045" lon="4.65329">
        <ele>390</ele>
        <time>2025-12-15T12:57:55Z</time>
      </trkpt>
      <trkpt lat="45.73045" lon="4.65324">
        <ele>390</ele>
        <time>2025-12-15T12:57:56Z</time>
      </trkpt>
      <trkpt lat="45.73045" lon="4.65319">
        <ele>390</ele>
        <time>2025-12-15T12:57:57Z</time>
      </trkpt>
      <trkpt lat="45.73044" lon="4.65314">
        <ele>390</ele>
        <time>2025-12-15T12:57:58Z</time>
      </trkpt>
      <trkpt lat="45.73044" lon="4.65309">
        <ele>390</ele>
        <time>2025-12-15T12:57:59Z</time>
      </trkpt>
      <trkpt lat="45.73044" lon="4.65303">
        <ele>389.8</ele>
        <time>2025-12-15T12:58:00Z</time>
      </trkpt>
      <trkpt lat="45.73044" lon="4.65298">
        <ele>389.6</ele>
        <time>2025-12-15T12:58:01Z</time>
      </trkpt>
      <trkpt lat="45.73043" lon="4.65292">
        <ele>389.6</ele>
        <time>2025-12-15T12:58:02Z</time>
      </trkpt>
      <trkpt lat="45.73043" lon="4.65287">
        <ele>389.4</ele>
        <time>2025-12-15T12:58:03Z</time>
      </trkpt>
      <trkpt lat="45.73044" lon="4.65281">
        <ele>389.4</ele>
        <time>2025-12-15T12:58:04Z</time>
      </trkpt>
      <trkpt lat="45.73045" lon="4.65276">
        <ele>389.4</ele>
        <time>2025-12-15T12:58:05Z</time>
      </trkpt>
      <trkpt lat="45.73046" lon="4.65271">
        <ele>389.4</ele>
        <time>2025-12-15T12:58:06Z</time>
      </trkpt>
      <trkpt lat="45.73047" lon="4.65266">
        <ele>389.4</ele>
        <time>2025-12-15T12:58:07Z</time>
      </trkpt>
      <trkpt lat="45.73048" lon="4.65261">
        <ele>389.4</ele>
        <time>2025-12-15T12:58:08Z</time>
      </trkpt>
      <trkpt lat="45.73049" lon="4.65256">
        <ele>389.6</ele>
        <time>2025-12-15T12:58:09Z</time>
      </trkpt>
      <trkpt lat="45.7305" lon="4.65251">
        <ele>389.6</ele>
        <time>2025-12-15T12:58:10Z</time>
      </trkpt>
      <trkpt lat="45.73051" lon="4.65245">
        <ele>389.6</ele>
        <time>2025-12-15T12:58:11Z</time>
      </trkpt>
      <trkpt lat="45.73053" lon="4.6524">
        <ele>389.8</ele>
        <time>2025-12-15T12:58:12Z</time>
      </trkpt>
      <trkpt lat="45.73054" lon="4.65235">
        <ele>390</ele>
        <time>2025-12-15T12:58:13Z</time>
      </trkpt>
      <trkpt lat="45.73056" lon="4.6523">
        <ele>390.2</ele>
        <time>2025-12-15T12:58:14Z</time>
      </trkpt>
      <trkpt lat="45.73058" lon="4.65225">
        <ele>390.2</ele>
        <time>2025-12-15T12:58:15Z</time>
      </trkpt>
      <trkpt lat="45.7306" lon="4.65221">
        <ele>390.4</ele>
        <time>2025-12-15T12:58:16Z</time>
      </trkpt>
      <trkpt lat="45.73061" lon="4.65216">
        <ele>390.4</ele>
        <time>2025-12-15T12:58:17Z</time>
      </trkpt>
      <trkpt lat="45.73063" lon="4.65212">
        <ele>390.4</ele>
        <time>2025-12-15T12:58:18Z</time>
      </trkpt>
      <trkpt lat="45.73065" lon="4.65207">
        <ele>390.4</ele>
        <time>2025-12-15T12:58:19Z</time>
      </trkpt>
      <trkpt lat="45.73067" lon="4.65203">
        <ele>390.2</ele>
        <time>2025-12-15T12:58:20Z</time>
      </trkpt>
      <trkpt lat="45.73069" lon="4.65199">
        <ele>390.2</ele>
        <time>2025-12-15T12:58:21Z</time>
      </trkpt>
      <trkpt lat="45.73071" lon="4.65195">
        <ele>390.2</ele>
        <time>2025-12-15T12:58:22Z</time>
      </trkpt>
      <trkpt lat="45.73074" lon="4.65191">
        <ele>390.4</ele>
        <time>2025-12-15T12:58:23Z</time>
      </trkpt>
      <trkpt lat="45.73076" lon="4.65187">
        <ele>390.4</ele>
        <time>2025-12-15T12:58:24Z</time>
      </trkpt>
      <trkpt lat="45.73078" lon="4.65184">
        <ele>390.6</ele>
        <time>2025-12-15T12:58:25Z</time>
      </trkpt>
      <trkpt lat="45.73081" lon="4.6518">
        <ele>390.8</ele>
        <time>2025-12-15T12:58:26Z</time>
      </trkpt>
      <trkpt lat="45.73083" lon="4.65177">
        <ele>390.8</ele>
        <time>2025-12-15T12:58:27Z</time>
      </trkpt>
      <trkpt lat="45.73086" lon="4.65174">
        <ele>391</ele>
        <time>2025-12-15T12:58:28Z</time>
      </trkpt>
      <trkpt lat="45.73088" lon="4.65171">
        <ele>391</ele>
        <time>2025-12-15T12:58:29Z</time>
      </trkpt>
      <trkpt lat="45.73091" lon="4.65168">
        <ele>391.2</ele>
        <time>2025-12-15T12:58:30Z</time>
      </trkpt>
      <trkpt lat="45.73094" lon="4.65166">
        <ele>391.4</ele>
        <time>2025-12-15T12:58:31Z</time>
      </trkpt>
      <trkpt lat="45.73097" lon="4.65164">
        <ele>391.6</ele>
        <time>2025-12-15T12:58:32Z</time>
      </trkpt>
      <trkpt lat="45.731" lon="4.65162">
        <ele>391.8</ele>
        <time>2025-12-15T12:58:33Z</time>
      </trkpt>
      <trkpt lat="45.73103" lon="4.65161">
        <ele>392</ele>
        <time>2025-12-15T12:58:34Z</time>
      </trkpt>
      <trkpt lat="45.73106" lon="4.6516">
        <ele>392.2</ele>
        <time>2025-12-15T12:58:35Z</time>
      </trkpt>
      <trkpt lat="45.73109" lon="4.65158">
        <ele>392.4</ele>
        <time>2025-12-15T12:58:36Z</time>
      </trkpt>
      <trkpt lat="45.73112" lon="4.65157">
        <ele>392.6</ele>
        <time>2025-12-15T12:58:37Z</time>
      </trkpt>
      <trkpt lat="45.73115" lon="4.65156">
        <ele>392.8</ele>
        <time>2025-12-15T12:58:38Z</time>
      </trkpt>
      <trkpt lat="45.73118" lon="4.65156">
        <ele>393.2</ele>
        <time>2025-12-15T12:58:39Z</time>
      </trkpt>
      <trkpt lat="45.7312" lon="4.65155">
        <ele>393.6</ele>
        <time>2025-12-15T12:58:40Z</time>
      </trkpt>
      <trkpt lat="45.73123" lon="4.65154">
        <ele>394</ele>
        <time>2025-12-15T12:58:41Z</time>
      </trkpt>
      <trkpt lat="45.73126" lon="4.65153">
        <ele>394.4</ele>
        <time>2025-12-15T12:58:42Z</time>
      </trkpt>
      <trkpt lat="45.73128" lon="4.65152">
        <ele>394.8</ele>
        <time>2025-12-15T12:58:43Z</time>
      </trkpt>
      <trkpt lat="45.73131" lon="4.65151">
        <ele>395.2</ele>
        <time>2025-12-15T12:58:44Z</time>
      </trkpt>
      <trkpt lat="45.73133" lon="4.6515">
        <ele>395.8</ele>
        <time>2025-12-15T12:58:45Z</time>
      </trkpt>
      <trkpt lat="45.73135" lon="4.65149">
        <ele>396.2</ele>
        <time>2025-12-15T12:58:46Z</time>
      </trkpt>
      <trkpt lat="45.73137" lon="4.65149">
        <ele>396.8</ele>
        <time>2025-12-15T12:58:47Z</time>
      </trkpt>
      <trkpt lat="45.73139" lon="4.65149">
        <ele>397.2</ele>
        <time>2025-12-15T12:58:48Z</time>
      </trkpt>
      <trkpt lat="45.73141" lon="4.65149">
        <ele>397.4</ele>
        <time>2025-12-15T12:58:49Z</time>
      </trkpt>
      <trkpt lat="45.73143" lon="4.65149">
        <ele>397.8</ele>
        <time>2025-12-15T12:58:50Z</time>
      </trkpt>
      <trkpt lat="45.73144" lon="4.65148">
        <ele>398</ele>
        <time>2025-12-15T12:58:51Z</time>
      </trkpt>
      <trkpt lat="45.73145" lon="4.65147">
        <ele>398.2</ele>
        <time>2025-12-15T12:58:52Z</time>
      </trkpt>
      <trkpt lat="45.73148" lon="4.65147">
        <ele>398.4</ele>
        <time>2025-12-15T12:58:53Z</time>
      </trkpt>
      <trkpt lat="45.73149" lon="4.65146">
        <ele>398.6</ele>
        <time>2025-12-15T12:58:54Z</time>
      </trkpt>
      <trkpt lat="45.73151" lon="4.65146">
        <ele>398.8</ele>
        <time>2025-12-15T12:58:55Z</time>
      </trkpt>
      <trkpt lat="45.73153" lon="4.65147">
        <ele>398.8</ele>
        <time>2025-12-15T12:58:56Z</time>
      </trkpt>
      <trkpt lat="45.73155" lon="4.65147">
        <ele>399</ele>
        <time>2025-12-15T12:58:57Z</time>
      </trkpt>
      <trkpt lat="45.73157" lon="4.65147">
        <ele>399</ele>
        <time>2025-12-15T12:58:58Z</time>
      </trkpt>
      <trkpt lat="45.73159" lon="4.65146">
        <ele>399.2</ele>
        <time>2025-12-15T12:58:59Z</time>
      </trkpt>
      <trkpt lat="45.73161" lon="4.65146">
        <ele>399.2</ele>
        <time>2025-12-15T12:59:00Z</time>
      </trkpt>
      <trkpt lat="45.73163" lon="4.65145">
        <ele>399.2</ele>
        <time>2025-12-15T12:59:01Z</time>
      </trkpt>
      <trkpt lat="45.73166" lon="4.65145">
        <ele>399.2</ele>
        <time>2025-12-15T12:59:02Z</time>
      </trkpt>
      <trkpt lat="45.73168" lon="4.65145">
        <ele>399.2</ele>
        <time>2025-12-15T12:59:03Z</time>
      </trkpt>
      <trkpt lat="45.73171" lon="4.65144">
        <ele>399.4</ele>
        <time>2025-12-15T12:59:04Z</time>
      </trkpt>
      <trkpt lat="45.73174" lon="4.65144">
        <ele>399.4</ele>
        <time>2025-12-15T12:59:05Z</time>
      </trkpt>
      <trkpt lat="45.73177" lon="4.65144">
        <ele>399.4</ele>
        <time>2025-12-15T12:59:06Z</time>
      </trkpt>
      <trkpt lat="45.7318" lon="4.65144">
        <ele>399.4</ele>
        <time>2025-12-15T12:59:07Z</time>
      </trkpt>
      <trkpt lat="45.73184" lon="4.65143">
        <ele>399.4</ele>
        <time>2025-12-15T12:59:08Z</time>
      </trkpt>
      <trkpt lat="45.73187" lon="4.65143">
        <ele>399.4</ele>
        <time>2025-12-15T12:59:09Z</time>
      </trkpt>
      <trkpt lat="45.7319" lon="4.65143">
        <ele>399.4</ele>
        <time>2025-12-15T12:59:10Z</time>
      </trkpt>
      <trkpt lat="45.73194" lon="4.65142">
        <ele>399.4</ele>
        <time>2025-12-15T12:59:11Z</time>
      </trkpt>
      <trkpt lat="45.73198" lon="4.6514">
        <ele>399.4</ele>
        <time>2025-12-15T12:59:12Z</time>
      </trkpt>
      <trkpt lat="45.73202" lon="4.65139">
        <ele>399.4</ele>
        <time>2025-12-15T12:59:13Z</time>
      </trkpt>
      <trkpt lat="45.73205" lon="4.65138">
        <ele>399.4</ele>
        <time>2025-12-15T12:59:14Z</time>
      </trkpt>
      <trkpt lat="45.7321" lon="4.65137">
        <ele>399.6</ele>
        <time>2025-12-15T12:59:15Z</time>
      </trkpt>
      <trkpt lat="45.73213" lon="4.65135">
        <ele>399.6</ele>
        <time>2025-12-15T12:59:16Z</time>
      </trkpt>
      <trkpt lat="45.73217" lon="4.65133">
        <ele>399.8</ele>
        <time>2025-12-15T12:59:17Z</time>
      </trkpt>
      <trkpt lat="45.73221" lon="4.65131">
        <ele>399.8</ele>
        <time>2025-12-15T12:59:18Z</time>
      </trkpt>
      <trkpt lat="45.73225" lon="4.6513">
        <ele>399.8</ele>
        <time>2025-12-15T12:59:19Z</time>
      </trkpt>
      <trkpt lat="45.73228" lon="4.65127">
        <ele>400</ele>
        <time>2025-12-15T12:59:20Z</time>
      </trkpt>
      <trkpt lat="45.73232" lon="4.65125">
        <ele>400</ele>
        <time>2025-12-15T12:59:21Z</time>
      </trkpt>
      <trkpt lat="45.73236" lon="4.65123">
        <ele>400</ele>
        <time>2025-12-15T12:59:22Z</time>
      </trkpt>
      <trkpt lat="45.7324" lon="4.65121">
        <ele>400</ele>
        <time>2025-12-15T12:59:23Z</time>
      </trkpt>
      <trkpt lat="45.73243" lon="4.65118">
        <ele>400</ele>
        <time>2025-12-15T12:59:24Z</time>
      </trkpt>
      <trkpt lat="45.73247" lon="4.65116">
        <ele>400</ele>
        <time>2025-12-15T12:59:25Z</time>
      </trkpt>
      <trkpt lat="45.7325" lon="4.65114">
        <ele>400</ele>
        <time>2025-12-15T12:59:26Z</time>
      </trkpt>
      <trkpt lat="45.73254" lon="4.65113">
        <ele>400</ele>
        <time>2025-12-15T12:59:27Z</time>
      </trkpt>
      <trkpt lat="45.73258" lon="4.65111">
        <ele>400.2</ele>
        <time>2025-12-15T12:59:28Z</time>
      </trkpt>
      <trkpt lat="45.73262" lon="4.65109">
        <ele>400.2</ele>
        <time>2025-12-15T12:59:29Z</time>
      </trkpt>
      <trkpt lat="45.73265" lon="4.65107">
        <ele>400.2</ele>
        <time>2025-12-15T12:59:30Z</time>
      </trkpt>
      <trkpt lat="45.73268" lon="4.65105">
        <ele>400.2</ele>
        <time>2025-12-15T12:59:31Z</time>
      </trkpt>
      <trkpt lat="45.73272" lon="4.65103">
        <ele>400.2</ele>
        <time>2025-12-15T12:59:32Z</time>
      </trkpt>
      <trkpt lat="45.73275" lon="4.65101">
        <ele>400.4</ele>
        <time>2025-12-15T12:59:33Z</time>
      </trkpt>
      <trkpt lat="45.73278" lon="4.65098">
        <ele>400.4</ele>
        <time>2025-12-15T12:59:34Z</time>
      </trkpt>
      <trkpt lat="45.73281" lon="4.65096">
        <ele>400.4</ele>
        <time>2025-12-15T12:59:35Z</time>
      </trkpt>
      <trkpt lat="45.73284" lon="4.65093">
        <ele>400.6</ele>
        <time>2025-12-15T12:59:36Z</time>
      </trkpt>
      <trkpt lat="45.73287" lon="4.6509">
        <ele>400.6</ele>
        <time>2025-12-15T12:59:37Z</time>
      </trkpt>
      <trkpt lat="45.7329" lon="4.65086">
        <ele>400.6</ele>
        <time>2025-12-15T12:59:38Z</time>
      </trkpt>
      <trkpt lat="45.73294" lon="4.65083">
        <ele>400.6</ele>
        <time>2025-12-15T12:59:39Z</time>
      </trkpt>
      <trkpt lat="45.73297" lon="4.6508">
        <ele>400.6</ele>
        <time>2025-12-15T12:59:40Z</time>
      </trkpt>
      <trkpt lat="45.733" lon="4.65077">
        <ele>400.8</ele>
        <time>2025-12-15T12:59:41Z</time>
      </trkpt>
      <trkpt lat="45.73303" lon="4.65073">
        <ele>400.8</ele>
        <time>2025-12-15T12:59:42Z</time>
      </trkpt>
      <trkpt lat="45.73306" lon="4.6507">
        <ele>401</ele>
        <time>2025-12-15T12:59:43Z</time>
      </trkpt>
      <trkpt lat="45.73308" lon="4.65066">
        <ele>401</ele>
        <time>2025-12-15T12:59:44Z</time>
      </trkpt>
      <trkpt lat="45.73311" lon="4.65062">
        <ele>401</ele>
        <time>2025-12-15T12:59:45Z</time>
      </trkpt>
      <trkpt lat="45.73313" lon="4.65058">
        <ele>401.2</ele>
        <time>2025-12-15T12:59:46Z</time>
      </trkpt>
      <trkpt lat="45.73315" lon="4.65055">
        <ele>401.2</ele>
        <time>2025-12-15T12:59:47Z</time>
      </trkpt>
      <trkpt lat="45.73317" lon="4.6505">
        <ele>401.2</ele>
        <time>2025-12-15T12:59:48Z</time>
      </trkpt>
      <trkpt lat="45.73319" lon="4.65045">
        <ele>401.2</ele>
        <time>2025-12-15T12:59:49Z</time>
      </trkpt>
      <trkpt lat="45.73321" lon="4.65039">
        <ele>401</ele>
        <time>2025-12-15T12:59:50Z</time>
      </trkpt>
      <trkpt lat="45.73323" lon="4.65032">
        <ele>400.8</ele>
        <time>2025-12-15T12:59:51Z</time>
      </trkpt>
      <trkpt lat="45.73324" lon="4.65025">
        <ele>400.6</ele>
        <time>2025-12-15T12:59:52Z</time>
      </trkpt>
      <trkpt lat="45.73325" lon="4.65018">
        <ele>400.2</ele>
        <time>2025-12-15T12:59:53Z</time>
      </trkpt>
      <trkpt lat="45.73326" lon="4.6501">
        <ele>400</ele>
        <time>2025-12-15T12:59:54Z</time>
      </trkpt>
      <trkpt lat="45.73327" lon="4.65003">
        <ele>399.6</ele>
        <time>2025-12-15T12:59:55Z</time>
      </trkpt>
      <trkpt lat="45.73328" lon="4.64995">
        <ele>399.4</ele>
        <time>2025-12-15T12:59:56Z</time>
      </trkpt>
      <trkpt lat="45.73329" lon="4.64988">
        <ele>399.4</ele>
        <time>2025-12-15T12:59:57Z</time>
      </trkpt>
      <trkpt lat="45.73331" lon="4.64981">
        <ele>399.2</ele>
        <time>2025-12-15T12:59:58Z</time>
      </trkpt>
      <trkpt lat="45.73332" lon="4.64975">
        <ele>399.2</ele>
        <time>2025-12-15T12:59:59Z</time>
      </trkpt>
      <trkpt lat="45.73334" lon="4.64968">
        <ele>399.2</ele>
        <time>2025-12-15T13:00:00Z</time>
      </trkpt>
      <trkpt lat="45.73337" lon="4.64962">
        <ele>399</ele>
        <time>2025-12-15T13:00:01Z</time>
      </trkpt>
      <trkpt lat="45.7334" lon="4.64957">
        <ele>399.2</ele>
        <time>2025-12-15T13:00:02Z</time>
      </trkpt>
      <trkpt lat="45.73343" lon="4.64953">
        <ele>399.2</ele>
        <time>2025-12-15T13:00:03Z</time>
      </trkpt>
      <trkpt lat="45.73346" lon="4.6495">
        <ele>399.2</ele>
        <time>2025-12-15T13:00:04Z</time>
      </trkpt>
      <trkpt lat="45.7335" lon="4.64947">
        <ele>399.4</ele>
        <time>2025-12-15T13:00:05Z</time>
      </trkpt>
      <trkpt lat="45.73353" lon="4.64946">
        <ele>399.6</ele>
        <time>2025-12-15T13:00:06Z</time>
      </trkpt>
      <trkpt lat="45.73356" lon="4.64944">
        <ele>399.8</ele>
        <time>2025-12-15T13:00:07Z</time>
      </trkpt>
      <trkpt lat="45.7336" lon="4.64943">
        <ele>400</ele>
        <time>2025-12-15T13:00:08Z</time>
      </trkpt>
      <trkpt lat="45.73364" lon="4.64943">
        <ele>400.2</ele>
        <time>2025-12-15T13:00:09Z</time>
      </trkpt>
      <trkpt lat="45.73367" lon="4.64943">
        <ele>400.4</ele>
        <time>2025-12-15T13:00:10Z</time>
      </trkpt>
      <trkpt lat="45.73372" lon="4.64942">
        <ele>400.4</ele>
        <time>2025-12-15T13:00:11Z</time>
      </trkpt>
      <trkpt lat="45.73376" lon="4.64942">
        <ele>400.4</ele>
        <time>2025-12-15T13:00:12Z</time>
      </trkpt>
      <trkpt lat="45.7338" lon="4.64941">
        <ele>400.4</ele>
        <time>2025-12-15T13:00:13Z</time>
      </trkpt>
      <trkpt lat="45.73384" lon="4.64941">
        <ele>400.4</ele>
        <time>2025-12-15T13:00:14Z</time>
      </trkpt>
      <trkpt lat="45.73388" lon="4.6494">
        <ele>400.4</ele>
        <time>2025-12-15T13:00:15Z</time>
      </trkpt>
      <trkpt lat="45.73392" lon="4.6494">
        <ele>400.6</ele>
        <time>2025-12-15T13:00:16Z</time>
      </trkpt>
      <trkpt lat="45.73397" lon="4.6494">
        <ele>400.6</ele>
        <time>2025-12-15T13:00:17Z</time>
      </trkpt>
      <trkpt lat="45.73401" lon="4.6494">
        <ele>400.6</ele>
        <time>2025-12-15T13:00:18Z</time>
      </trkpt>
      <trkpt lat="45.73405" lon="4.6494">
        <ele>400.6</ele>
        <time>2025-12-15T13:00:19Z</time>
      </trkpt>
      <trkpt lat="45.7341" lon="4.6494">
        <ele>400.6</ele>
        <time>2025-12-15T13:00:20Z</time>
      </trkpt>
      <trkpt lat="45.73414" lon="4.6494">
        <ele>400.6</ele>
        <time>2025-12-15T13:00:21Z</time>
      </trkpt>
      <trkpt lat="45.73418" lon="4.64941">
        <ele>400.6</ele>
        <time>2025-12-15T13:00:22Z</time>
      </trkpt>
      <trkpt lat="45.73421" lon="4.64941">
        <ele>400.6</ele>
        <time>2025-12-15T13:00:23Z</time>
      </trkpt>
      <trkpt lat="45.73425" lon="4.64941">
        <ele>400.8</ele>
        <time>2025-12-15T13:00:24Z</time>
      </trkpt>
      <trkpt lat="45.73429" lon="4.64941">
        <ele>401</ele>
        <time>2025-12-15T13:00:25Z</time>
      </trkpt>
      <trkpt lat="45.73433" lon="4.64942">
        <ele>401.2</ele>
        <time>2025-12-15T13:00:26Z</time>
      </trkpt>
      <trkpt lat="45.73437" lon="4.64942">
        <ele>401.4</ele>
        <time>2025-12-15T13:00:27Z</time>
      </trkpt>
      <trkpt lat="45.73441" lon="4.64943">
        <ele>401.4</ele>
        <time>2025-12-15T13:00:28Z</time>
      </trkpt>
      <trkpt lat="45.73445" lon="4.64943">
        <ele>401.6</ele>
        <time>2025-12-15T13:00:29Z</time>
      </trkpt>
      <trkpt lat="45.73449" lon="4.64943">
        <ele>401.8</ele>
        <time>2025-12-15T13:00:30Z</time>
      </trkpt>
      <trkpt lat="45.73453" lon="4.64942">
        <ele>402</ele>
        <time>2025-12-15T13:00:31Z</time>
      </trkpt>
      <trkpt lat="45.73458" lon="4.64942">
        <ele>402.2</ele>
        <time>2025-12-15T13:00:32Z</time>
      </trkpt>
      <trkpt lat="45.73462" lon="4.64941">
        <ele>402.4</ele>
        <time>2025-12-15T13:00:33Z</time>
      </trkpt>
      <trkpt lat="45.73466" lon="4.64941">
        <ele>402.6</ele>
        <time>2025-12-15T13:00:34Z</time>
      </trkpt>
      <trkpt lat="45.7347" lon="4.6494">
        <ele>402.8</ele>
        <time>2025-12-15T13:00:35Z</time>
      </trkpt>
      <trkpt lat="45.73475" lon="4.6494">
        <ele>403</ele>
        <time>2025-12-15T13:00:36Z</time>
      </trkpt>
      <trkpt lat="45.73479" lon="4.64939">
        <ele>403.4</ele>
        <time>2025-12-15T13:00:37Z</time>
      </trkpt>
      <trkpt lat="45.73483" lon="4.64938">
        <ele>403.4</ele>
        <time>2025-12-15T13:00:38Z</time>
      </trkpt>
      <trkpt lat="45.73487" lon="4.64937">
        <ele>403.6</ele>
        <time>2025-12-15T13:00:39Z</time>
      </trkpt>
      <trkpt lat="45.73491" lon="4.64935">
        <ele>403.8</ele>
        <time>2025-12-15T13:00:40Z</time>
      </trkpt>
      <trkpt lat="45.73494" lon="4.64933">
        <ele>404.2</ele>
        <time>2025-12-15T13:00:41Z</time>
      </trkpt>
      <trkpt lat="45.73498" lon="4.64931">
        <ele>404.4</ele>
        <time>2025-12-15T13:00:42Z</time>
      </trkpt>
      <trkpt lat="45.73501" lon="4.64929">
        <ele>404.6</ele>
        <time>2025-12-15T13:00:43Z</time>
      </trkpt>
      <trkpt lat="45.73504" lon="4.64928">
        <ele>405</ele>
        <time>2025-12-15T13:00:44Z</time>
      </trkpt>
      <trkpt lat="45.73507" lon="4.64926">
        <ele>405.2</ele>
        <time>2025-12-15T13:00:45Z</time>
      </trkpt>
      <trkpt lat="45.7351" lon="4.64924">
        <ele>405.6</ele>
        <time>2025-12-15T13:00:46Z</time>
      </trkpt>
      <trkpt lat="45.73512" lon="4.64922">
        <ele>405.8</ele>
        <time>2025-12-15T13:00:47Z</time>
      </trkpt>
      <trkpt lat="45.73515" lon="4.6492">
        <ele>406.2</ele>
        <time>2025-12-15T13:00:48Z</time>
      </trkpt>
      <trkpt lat="45.73518" lon="4.64918">
        <ele>406.4</ele>
        <time>2025-12-15T13:00:49Z</time>
      </trkpt>
      <trkpt lat="45.7352" lon="4.64915">
        <ele>406.8</ele>
        <time>2025-12-15T13:00:50Z</time>
      </trkpt>
      <trkpt lat="45.73523" lon="4.64913">
        <ele>407</ele>
        <time>2025-12-15T13:00:51Z</time>
      </trkpt>
      <trkpt lat="45.73526" lon="4.64911">
        <ele>407.2</ele>
        <time>2025-12-15T13:00:52Z</time>
      </trkpt>
      <trkpt lat="45.73529" lon="4.64908">
        <ele>407.6</ele>
        <time>2025-12-15T13:00:53Z</time>
      </trkpt>
      <trkpt lat="45.73531" lon="4.64905">
        <ele>407.8</ele>
        <time>2025-12-15T13:00:54Z</time>
      </trkpt>
      <trkpt lat="45.73534" lon="4.64902">
        <ele>408</ele>
        <time>2025-12-15T13:00:55Z</time>
      </trkpt>
      <trkpt lat="45.73536" lon="4.649">
        <ele>408.4</ele>
        <time>2025-12-15T13:00:56Z</time>
      </trkpt>
      <trkpt lat="45.73539" lon="4.64897">
        <ele>408.6</ele>
        <time>2025-12-15T13:00:57Z</time>
      </trkpt>
      <trkpt lat="45.73541" lon="4.64894">
        <ele>409</ele>
        <time>2025-12-15T13:00:58Z</time>
      </trkpt>
      <trkpt lat="45.73543" lon="4.64891">
        <ele>409.2</ele>
        <time>2025-12-15T13:00:59Z</time>
      </trkpt>
      <trkpt lat="45.73545" lon="4.64888">
        <ele>409.6</ele>
        <time>2025-12-15T13:01:00Z</time>
      </trkpt>
      <trkpt lat="45.73547" lon="4.64886">
        <ele>410</ele>
        <time>2025-12-15T13:01:01Z</time>
      </trkpt>
      <trkpt lat="45.73549" lon="4.64883">
        <ele>410.2</ele>
        <time>2025-12-15T13:01:02Z</time>
      </trkpt>
      <trkpt lat="45.73551" lon="4.6488">
        <ele>410.6</ele>
        <time>2025-12-15T13:01:03Z</time>
      </trkpt>
      <trkpt lat="45.73554" lon="4.64877">
        <ele>410.8</ele>
        <time>2025-12-15T13:01:04Z</time>
      </trkpt>
      <trkpt lat="45.73556" lon="4.64874">
        <ele>411.2</ele>
        <time>2025-12-15T13:01:05Z</time>
      </trkpt>
      <trkpt lat="45.73558" lon="4.6487">
        <ele>411.4</ele>
        <time>2025-12-15T13:01:06Z</time>
      </trkpt>
      <trkpt lat="45.7356" lon="4.64867">
        <ele>411.6</ele>
        <time>2025-12-15T13:01:07Z</time>
      </trkpt>
      <trkpt lat="45.73562" lon="4.64865">
        <ele>411.8</ele>
        <time>2025-12-15T13:01:08Z</time>
      </trkpt>
      <trkpt lat="45.73564" lon="4.64862">
        <ele>412.2</ele>
        <time>2025-12-15T13:01:09Z</time>
      </trkpt>
      <trkpt lat="45.73566" lon="4.64859">
        <ele>412.4</ele>
        <time>2025-12-15T13:01:10Z</time>
      </trkpt>
      <trkpt lat="45.73568" lon="4.64856">
        <ele>412.6</ele>
        <time>2025-12-15T13:01:11Z</time>
      </trkpt>
      <trkpt lat="45.73571" lon="4.64853">
        <ele>413</ele>
        <time>2025-12-15T13:01:12Z</time>
      </trkpt>
      <trkpt lat="45.73572" lon="4.6485">
        <ele>413.2</ele>
        <time>2025-12-15T13:01:13Z</time>
      </trkpt>
      <trkpt lat="45.73574" lon="4.64847">
        <ele>413.4</ele>
        <time>2025-12-15T13:01:14Z</time>
      </trkpt>
      <trkpt lat="45.73576" lon="4.64844">
        <ele>413.8</ele>
        <time>2025-12-15T13:01:15Z</time>
      </trkpt>
      <trkpt lat="45.73578" lon="4.64841">
        <ele>414</ele>
        <time>2025-12-15T13:01:16Z</time>
      </trkpt>
      <trkpt lat="45.7358" lon="4.64838">
        <ele>414.4</ele>
        <time>2025-12-15T13:01:17Z</time>
      </trkpt>
      <trkpt lat="45.73583" lon="4.64835">
        <ele>414.6</ele>
        <time>2025-12-15T13:01:18Z</time>
      </trkpt>
      <trkpt lat="45.73585" lon="4.64832">
        <ele>414.8</ele>
        <time>2025-12-15T13:01:19Z</time>
      </trkpt>
      <trkpt lat="45.73587" lon="4.64829">
        <ele>415</ele>
        <time>2025-12-15T13:01:20Z</time>
      </trkpt>
      <trkpt lat="45.7359" lon="4.64825">
        <ele>415.2</ele>
        <time>2025-12-15T13:01:21Z</time>
      </trkpt>
      <trkpt lat="45.73592" lon="4.64821">
        <ele>415.4</ele>
        <time>2025-12-15T13:01:22Z</time>
      </trkpt>
      <trkpt lat="45.73594" lon="4.64818">
        <ele>415.6</ele>
        <time>2025-12-15T13:01:23Z</time>
      </trkpt>
      <trkpt lat="45.73596" lon="4.64814">
        <ele>415.6</ele>
        <time>2025-12-15T13:01:24Z</time>
      </trkpt>
      <trkpt lat="45.73599" lon="4.6481">
        <ele>415.6</ele>
        <time>2025-12-15T13:01:25Z</time>
      </trkpt>
      <trkpt lat="45.73601" lon="4.64805">
        <ele>415.6</ele>
        <time>2025-12-15T13:01:26Z</time>
      </trkpt>
      <trkpt lat="45.73603" lon="4.648">
        <ele>415.6</ele>
        <time>2025-12-15T13:01:27Z</time>
      </trkpt>
      <trkpt lat="45.73606" lon="4.64795">
        <ele>415.4</ele>
        <time>2025-12-15T13:01:28Z</time>
      </trkpt>
      <trkpt lat="45.73609" lon="4.64789">
        <ele>415.2</ele>
        <time>2025-12-15T13:01:29Z</time>
      </trkpt>
      <trkpt lat="45.73611" lon="4.64784">
        <ele>415</ele>
        <time>2025-12-15T13:01:30Z</time>
      </trkpt>
      <trkpt lat="45.73614" lon="4.64778">
        <ele>414.8</ele>
        <time>2025-12-15T13:01:31Z</time>
      </trkpt>
      <trkpt lat="45.73616" lon="4.64771">
        <ele>414.6</ele>
        <time>2025-12-15T13:01:32Z</time>
      </trkpt>
      <trkpt lat="45.73619" lon="4.64765">
        <ele>414.2</ele>
        <time>2025-12-15T13:01:33Z</time>
      </trkpt>
      <trkpt lat="45.73621" lon="4.64758">
        <ele>414</ele>
        <time>2025-12-15T13:01:34Z</time>
      </trkpt>
      <trkpt lat="45.73624" lon="4.64751">
        <ele>413.6</ele>
        <time>2025-12-15T13:01:35Z</time>
      </trkpt>
      <trkpt lat="45.73625" lon="4.64743">
        <ele>413.4</ele>
        <time>2025-12-15T13:01:36Z</time>
      </trkpt>
      <trkpt lat="45.73627" lon="4.64736">
        <ele>413</ele>
        <time>2025-12-15T13:01:37Z</time>
      </trkpt>
      <trkpt lat="45.73627" lon="4.64729">
        <ele>412.6</ele>
        <time>2025-12-15T13:01:38Z</time>
      </trkpt>
      <trkpt lat="45.73627" lon="4.64721">
        <ele>412.4</ele>
        <time>2025-12-15T13:01:39Z</time>
      </trkpt>
      <trkpt lat="45.73627" lon="4.64714">
        <ele>412.2</ele>
        <time>2025-12-15T13:01:40Z</time>
      </trkpt>
      <trkpt lat="45.73627" lon="4.64707">
        <ele>412</ele>
        <time>2025-12-15T13:01:41Z</time>
      </trkpt>
      <trkpt lat="45.73627" lon="4.647">
        <ele>412</ele>
        <time>2025-12-15T13:01:42Z</time>
      </trkpt>
      <trkpt lat="45.73626" lon="4.64693">
        <ele>411.8</ele>
        <time>2025-12-15T13:01:43Z</time>
      </trkpt>
      <trkpt lat="45.73625" lon="4.64686">
        <ele>411.8</ele>
        <time>2025-12-15T13:01:44Z</time>
      </trkpt>
      <trkpt lat="45.73624" lon="4.64679">
        <ele>411.8</ele>
        <time>2025-12-15T13:01:45Z</time>
      </trkpt>
      <trkpt lat="45.73623" lon="4.64671">
        <ele>411.8</ele>
        <time>2025-12-15T13:01:46Z</time>
      </trkpt>
      <trkpt lat="45.73622" lon="4.64664">
        <ele>411.6</ele>
        <time>2025-12-15T13:01:47Z</time>
      </trkpt>
      <trkpt lat="45.73621" lon="4.64657">
        <ele>411.4</ele>
        <time>2025-12-15T13:01:48Z</time>
      </trkpt>
      <trkpt lat="45.73621" lon="4.6465">
        <ele>411.4</ele>
        <time>2025-12-15T13:01:49Z</time>
      </trkpt>
      <trkpt lat="45.7362" lon="4.64643">
        <ele>411.4</ele>
        <time>2025-12-15T13:01:50Z</time>
      </trkpt>
      <trkpt lat="45.7362" lon="4.64636">
        <ele>411.6</ele>
        <time>2025-12-15T13:01:51Z</time>
      </trkpt>
      <trkpt lat="45.73619" lon="4.6463">
        <ele>411.8</ele>
        <time>2025-12-15T13:01:52Z</time>
      </trkpt>
      <trkpt lat="45.73618" lon="4.64623">
        <ele>412</ele>
        <time>2025-12-15T13:01:53Z</time>
      </trkpt>
      <trkpt lat="45.73618" lon="4.64617">
        <ele>412.2</ele>
        <time>2025-12-15T13:01:54Z</time>
      </trkpt>
      <trkpt lat="45.73617" lon="4.64611">
        <ele>412.4</ele>
        <time>2025-12-15T13:01:55Z</time>
      </trkpt>
      <trkpt lat="45.73617" lon="4.64606">
        <ele>412.4</ele>
        <time>2025-12-15T13:01:56Z</time>
      </trkpt>
      <trkpt lat="45.73616" lon="4.646">
        <ele>412.6</ele>
        <time>2025-12-15T13:01:57Z</time>
      </trkpt>
      <trkpt lat="45.73616" lon="4.64594">
        <ele>412.6</ele>
        <time>2025-12-15T13:01:58Z</time>
      </trkpt>
      <trkpt lat="45.73615" lon="4.64589">
        <ele>412.8</ele>
        <time>2025-12-15T13:01:59Z</time>
      </trkpt>
      <trkpt lat="45.73615" lon="4.64583">
        <ele>413</ele>
        <time>2025-12-15T13:02:00Z</time>
      </trkpt>
      <trkpt lat="45.73614" lon="4.64577">
        <ele>413</ele>
        <time>2025-12-15T13:02:01Z</time>
      </trkpt>
      <trkpt lat="45.73614" lon="4.64571">
        <ele>413</ele>
        <time>2025-12-15T13:02:02Z</time>
      </trkpt>
      <trkpt lat="45.73613" lon="4.64565">
        <ele>413</ele>
        <time>2025-12-15T13:02:03Z</time>
      </trkpt>
      <trkpt lat="45.73614" lon="4.64559">
        <ele>413</ele>
        <time>2025-12-15T13:02:04Z</time>
      </trkpt>
      <trkpt lat="45.73616" lon="4.64553">
        <ele>413</ele>
        <time>2025-12-15T13:02:05Z</time>
      </trkpt>
      <trkpt lat="45.73618" lon="4.64547">
        <ele>412.8</ele>
        <time>2025-12-15T13:02:06Z</time>
      </trkpt>
      <trkpt lat="45.7362" lon="4.64542">
        <ele>413</ele>
        <time>2025-12-15T13:02:07Z</time>
      </trkpt>
      <trkpt lat="45.73622" lon="4.64537">
        <ele>413</ele>
        <time>2025-12-15T13:02:08Z</time>
      </trkpt>
      <trkpt lat="45.73625" lon="4.64533">
        <ele>413.4</ele>
        <time>2025-12-15T13:02:09Z</time>
      </trkpt>
      <trkpt lat="45.73627" lon="4.64528">
        <ele>413.6</ele>
        <time>2025-12-15T13:02:10Z</time>
      </trkpt>
      <trkpt lat="45.73629" lon="4.64523">
        <ele>413.8</ele>
        <time>2025-12-15T13:02:11Z</time>
      </trkpt>
      <trkpt lat="45.73631" lon="4.64519">
        <ele>414</ele>
        <time>2025-12-15T13:02:12Z</time>
      </trkpt>
      <trkpt lat="45.73634" lon="4.64514">
        <ele>414.2</ele>
        <time>2025-12-15T13:02:13Z</time>
      </trkpt>
      <trkpt lat="45.73636" lon="4.64509">
        <ele>414.4</ele>
        <time>2025-12-15T13:02:14Z</time>
      </trkpt>
      <trkpt lat="45.73638" lon="4.64504">
        <ele>414.6</ele>
        <time>2025-12-15T13:02:15Z</time>
      </trkpt>
      <trkpt lat="45.7364" lon="4.64499">
        <ele>414.8</ele>
        <time>2025-12-15T13:02:16Z</time>
      </trkpt>
      <trkpt lat="45.73643" lon="4.64494">
        <ele>415.2</ele>
        <time>2025-12-15T13:02:17Z</time>
      </trkpt>
      <trkpt lat="45.73645" lon="4.64489">
        <ele>415.4</ele>
        <time>2025-12-15T13:02:18Z</time>
      </trkpt>
      <trkpt lat="45.73647" lon="4.64484">
        <ele>415.6</ele>
        <time>2025-12-15T13:02:19Z</time>
      </trkpt>
      <trkpt lat="45.73649" lon="4.6448">
        <ele>416</ele>
        <time>2025-12-15T13:02:20Z</time>
      </trkpt>
      <trkpt lat="45.73651" lon="4.64476">
        <ele>416.2</ele>
        <time>2025-12-15T13:02:21Z</time>
      </trkpt>
      <trkpt lat="45.73654" lon="4.64472">
        <ele>416.4</ele>
        <time>2025-12-15T13:02:22Z</time>
      </trkpt>
      <trkpt lat="45.73656" lon="4.64468">
        <ele>416.6</ele>
        <time>2025-12-15T13:02:23Z</time>
      </trkpt>
      <trkpt lat="45.73658" lon="4.64464">
        <ele>417</ele>
        <time>2025-12-15T13:02:24Z</time>
      </trkpt>
      <trkpt lat="45.73661" lon="4.64461">
        <ele>417.2</ele>
        <time>2025-12-15T13:02:25Z</time>
      </trkpt>
      <trkpt lat="45.73663" lon="4.64457">
        <ele>417.4</ele>
        <time>2025-12-15T13:02:26Z</time>
      </trkpt>
      <trkpt lat="45.73665" lon="4.64454">
        <ele>417.6</ele>
        <time>2025-12-15T13:02:27Z</time>
      </trkpt>
      <trkpt lat="45.73666" lon="4.64452">
        <ele>417.6</ele>
        <time>2025-12-15T13:02:28Z</time>
      </trkpt>
      <trkpt lat="45.73668" lon="4.6445">
        <ele>417.8</ele>
        <time>2025-12-15T13:02:29Z</time>
      </trkpt>
      <trkpt lat="45.73669" lon="4.64448">
        <ele>418</ele>
        <time>2025-12-15T13:02:30Z</time>
      </trkpt>
      <trkpt lat="45.7367" lon="4.64445">
        <ele>418.2</ele>
        <time>2025-12-15T13:02:31Z</time>
      </trkpt>
      <trkpt lat="45.73672" lon="4.64443">
        <ele>418.2</ele>
        <time>2025-12-15T13:02:32Z</time>
      </trkpt>
      <trkpt lat="45.73673" lon="4.6444">
        <ele>418.2</ele>
        <time>2025-12-15T13:02:33Z</time>
      </trkpt>
      <trkpt lat="45.73674" lon="4.64437">
        <ele>418</ele>
        <time>2025-12-15T13:02:34Z</time>
      </trkpt>
      <trkpt lat="45.73674" lon="4.64435">
        <ele>418</ele>
        <time>2025-12-15T13:02:35Z</time>
      </trkpt>
      <trkpt lat="45.73674" lon="4.64433">
        <ele>418</ele>
        <time>2025-12-15T13:02:36Z</time>
      </trkpt>
      <trkpt lat="45.73674" lon="4.64432">
        <ele>418</ele>
        <time>2025-12-15T13:02:37Z</time>
      </trkpt>
      <trkpt lat="45.73674" lon="4.64432">
        <ele>418.2</ele>
        <time>2025-12-15T13:02:38Z</time>
      </trkpt>
      <trkpt lat="45.73674" lon="4.64432">
        <ele>418.2</ele>
        <time>2025-12-15T13:02:39Z</time>
      </trkpt>
      <trkpt lat="45.73674" lon="4.64432">
        <ele>418.4</ele>
        <time>2025-12-15T13:02:40Z</time>
      </trkpt>
      <trkpt lat="45.73674" lon="4.64432">
        <ele>418.4</ele>
        <time>2025-12-15T13:02:41Z</time>
      </trkpt>
      <trkpt lat="45.73674" lon="4.64432">
        <ele>418.6</ele>
        <time>2025-12-15T13:02:42Z</time>
      </trkpt>
      <trkpt lat="45.73674" lon="4.64432">
        <ele>418.6</ele>
        <time>2025-12-15T13:02:43Z</time>
      </trkpt>
      <trkpt lat="45.73674" lon="4.64432">
        <ele>418.6</ele>
        <time>2025-12-15T13:02:44Z</time>
      </trkpt>
      <trkpt lat="45.73674" lon="4.64432">
        <ele>418.6</ele>
        <time>2025-12-15T13:02:45Z</time>
      </trkpt>
      <trkpt lat="45.73674" lon="4.64432">
        <ele>418.6</ele>
        <time>2025-12-15T13:02:46Z</time>
      </trkpt>
      <trkpt lat="45.73674" lon="4.64432">
        <ele>418.6</ele>
        <time>2025-12-15T13:02:47Z</time>
      </trkpt>
      <trkpt lat="45.73674" lon="4.64432">
        <ele>418.6</ele>
        <time>2025-12-15T13:02:48Z</time>
      </trkpt>
      <trkpt lat="45.73674" lon="4.64432">
        <ele>418.6</ele>
        <time>2025-12-15T13:02:49Z</time>
      </trkpt>
      <trkpt lat="45.73674" lon="4.64432">
        <ele>418.6</ele>
        <time>2025-12-15T13:02:50Z</time>
      </trkpt>
      <trkpt lat="45.73674" lon="4.64432">
        <ele>418.6</ele>
        <time>2025-12-15T13:02:51Z</time>
      </trkpt>
      <trkpt lat="45.73674" lon="4.64432">
        <ele>418.6</ele>
        <time>2025-12-15T13:02:52Z</time>
      </trkpt>
      <trkpt lat="45.73674" lon="4.64432">
        <ele>418.6</ele>
        <time>2025-12-15T13:02:53Z</time>
      </trkpt>
      <trkpt lat="45.73674" lon="4.64431">
        <ele>418.6</ele>
        <time>2025-12-15T13:02:54Z</time>
      </trkpt>
      <trkpt lat="45.73674" lon="4.64431">
        <ele>418.8</ele>
        <time>2025-12-15T13:02:55Z</time>
      </trkpt>
      <trkpt lat="45.73674" lon="4.64431">
        <ele>418.6</ele>
        <time>2025-12-15T13:02:56Z</time>
      </trkpt>
      <trkpt lat="45.73674" lon="4.64431">
        <ele>418.6</ele>
        <time>2025-12-15T13:02:57Z</time>
      </trkpt>
      <trkpt lat="45.73674" lon="4.64431">
        <ele>418.4</ele>
        <time>2025-12-15T13:02:58Z</time>
      </trkpt>
      <trkpt lat="45.73674" lon="4.64431">
        <ele>418.4</ele>
        <time>2025-12-15T13:02:59Z</time>
      </trkpt>
      <trkpt lat="45.73674" lon="4.64431">
        <ele>418.2</ele>
        <time>2025-12-15T13:03:00Z</time>
      </trkpt>
      <trkpt lat="45.73674" lon="4.64431">
        <ele>418</ele>
        <time>2025-12-15T13:03:01Z</time>
      </trkpt>
      <trkpt lat="45.73674" lon="4.64431">
        <ele>418</ele>
        <time>2025-12-15T13:03:02Z</time>
      </trkpt>
      <trkpt lat="45.73674" lon="4.64431">
        <ele>418</ele>
        <time>2025-12-15T13:03:03Z</time>
      </trkpt>
      <trkpt lat="45.73674" lon="4.64431">
        <ele>418</ele>
        <time>2025-12-15T13:03:04Z</time>
      </trkpt>
      <trkpt lat="45.73674" lon="4.64431">
        <ele>418</ele>
        <time>2025-12-15T13:03:05Z</time>
      </trkpt>
      <trkpt lat="45.73674" lon="4.64431">
        <ele>418</ele>
        <time>2025-12-15T13:03:06Z</time>
      </trkpt>
      <trkpt lat="45.73674" lon="4.64431">
        <ele>418</ele>
        <time>2025-12-15T13:03:07Z</time>
      </trkpt>
      <trkpt lat="45.73674" lon="4.64431">
        <ele>418</ele>
        <time>2025-12-15T13:03:08Z</time>
      </trkpt>
      <trkpt lat="45.73674" lon="4.64431">
        <ele>418</ele>
        <time>2025-12-15T13:03:09Z</time>
      </trkpt>
      <trkpt lat="45.73674" lon="4.64431">
        <ele>418</ele>
        <time>2025-12-15T13:03:10Z</time>
      </trkpt>
      <trkpt lat="45.73674" lon="4.64431">
        <ele>418</ele>
        <time>2025-12-15T13:03:11Z</time>
      </trkpt>
      <trkpt lat="45.73674" lon="4.64431">
        <ele>418</ele>
        <time>2025-12-15T13:03:12Z</time>
      </trkpt>
      <trkpt lat="45.73674" lon="4.64431">
        <ele>418</ele>
        <time>2025-12-15T13:03:13Z</time>
      </trkpt>
      <trkpt lat="45.73674" lon="4.64431">
        <ele>418</ele>
        <time>2025-12-15T13:03:14Z</time>
      </trkpt>
      <trkpt lat="45.73674" lon="4.64431">
        <ele>418</ele>
        <time>2025-12-15T13:03:15Z</time>
      </trkpt>
      <trkpt lat="45.73674" lon="4.64431">
        <ele>417.8</ele>
        <time>2025-12-15T13:03:16Z</time>
      </trkpt>
      <trkpt lat="45.73674" lon="4.64431">
        <ele>417.8</ele>
        <time>2025-12-15T13:03:17Z</time>
      </trkpt>
      <trkpt lat="45.73674" lon="4.64431">
        <ele>417.8</ele>
        <time>2025-12-15T13:03:18Z</time>
      </trkpt>
      <trkpt lat="45.73674" lon="4.64431">
        <ele>417.8</ele>
        <time>2025-12-15T13:03:19Z</time>
      </trkpt>
      <trkpt lat="45.73674" lon="4.64431">
        <ele>417.8</ele>
        <time>2025-12-15T13:03:20Z</time>
      </trkpt>
      <trkpt lat="45.73674" lon="4.64431">
        <ele>417.8</ele>
        <time>2025-12-15T13:03:21Z</time>
      </trkpt>
      <trkpt lat="45.73674" lon="4.64431">
        <ele>417.8</ele>
        <time>2025-12-15T13:03:22Z</time>
      </trkpt>
      <trkpt lat="45.73674" lon="4.64431">
        <ele>417.8</ele>
        <time>2025-12-15T13:03:23Z</time>
      </trkpt>
      <trkpt lat="45.73674" lon="4.64431">
        <ele>417.8</ele>
        <time>2025-12-15T13:03:24Z</time>
      </trkpt>
      <trkpt lat="45.73674" lon="4.64431">
        <ele>417.8</ele>
        <time>2025-12-15T13:03:25Z</time>
      </trkpt>
      <trkpt lat="45.73674" lon="4.64431">
        <ele>417.8</ele>
        <time>2025-12-15T13:03:26Z</time>
      </trkpt>
      <trkpt lat="45.73674" lon="4.64431">
        <ele>417.8</ele>
        <time>2025-12-15T13:03:27Z</time>
      </trkpt>
      <trkpt lat="45.73674" lon="4.64431">
        <ele>417.8</ele>
        <time>2025-12-15T13:03:28Z</time>
      </trkpt>
      <trkpt lat="45.73674" lon="4.64431">
        <ele>417.8</ele>
        <time>2025-12-15T13:03:29Z</time>
      </trkpt>
      <trkpt lat="45.73674" lon="4.64431">
        <ele>417.8</ele>
        <time>2025-12-15T13:03:30Z</time>
      </trkpt>
      <trkpt lat="45.73674" lon="4.64431">
        <ele>417.8</ele>
        <time>2025-12-15T13:03:31Z</time>
      </trkpt>
      <trkpt lat="45.73674" lon="4.64431">
        <ele>417.8</ele>
        <time>2025-12-15T13:03:32Z</time>
      </trkpt>
      <trkpt lat="45.73674" lon="4.64431">
        <ele>417.8</ele>
        <time>2025-12-15T13:03:33Z</time>
      </trkpt>
      <trkpt lat="45.73674" lon="4.64431">
        <ele>418</ele>
        <time>2025-12-15T13:03:34Z</time>
      </trkpt>
      <trkpt lat="45.73674" lon="4.64431">
        <ele>418</ele>
        <time>2025-12-15T13:03:35Z</time>
      </trkpt>
      <trkpt lat="45.73674" lon="4.64431">
        <ele>417.8</ele>
        <time>2025-12-15T13:03:36Z</time>
      </trkpt>
      <trkpt lat="45.73674" lon="4.64431">
        <ele>417.8</ele>
        <time>2025-12-15T13:03:37Z</time>
      </trkpt>
      <trkpt lat="45.73674" lon="4.64431">
        <ele>417.8</ele>
        <time>2025-12-15T13:03:38Z</time>
      </trkpt>
      <trkpt lat="45.73674" lon="4.64431">
        <ele>417.8</ele>
        <time>2025-12-15T13:03:39Z</time>
      </trkpt>
      <trkpt lat="45.73674" lon="4.64431">
        <ele>417.8</ele>
        <time>2025-12-15T13:03:40Z</time>
      </trkpt>
      <trkpt lat="45.73674" lon="4.64431">
        <ele>417.8</ele>
        <time>2025-12-15T13:03:41Z</time>
      </trkpt>
      <trkpt lat="45.73674" lon="4.64431">
        <ele>417.8</ele>
        <time>2025-12-15T13:03:42Z</time>
      </trkpt>
      <trkpt lat="45.73674" lon="4.64431">
        <ele>417.8</ele>
        <time>2025-12-15T13:03:43Z</time>
      </trkpt>
      <trkpt lat="45.73674" lon="4.64431">
        <ele>417.8</ele>
        <time>2025-12-15T13:03:44Z</time>
      </trkpt>
      <trkpt lat="45.73674" lon="4.64431">
        <ele>417.8</ele>
        <time>2025-12-15T13:03:45Z</time>
      </trkpt>
      <trkpt lat="45.73674" lon="4.64431">
        <ele>417.8</ele>
        <time>2025-12-15T13:03:46Z</time>
      </trkpt>
      <trkpt lat="45.73674" lon="4.64431">
        <ele>417.8</ele>
        <time>2025-12-15T13:03:47Z</time>
      </trkpt>
      <trkpt lat="45.73674" lon="4.64431">
        <ele>417.8</ele>
        <time>2025-12-15T13:03:48Z</time>
      </trkpt>
      <trkpt lat="45.73674" lon="4.64431">
        <ele>417.6</ele>
        <time>2025-12-15T13:03:49Z</time>
      </trkpt>
      <trkpt lat="45.73674" lon="4.64431">
        <ele>417.6</ele>
        <time>2025-12-15T13:03:50Z</time>
      </trkpt>
      <trkpt lat="45.73674" lon="4.64431">
        <ele>417.6</ele>
        <time>2025-12-15T13:03:51Z</time>
      </trkpt>
      <trkpt lat="45.73674" lon="4.64431">
        <ele>417.6</ele>
        <time>2025-12-15T13:03:52Z</time>
      </trkpt>
      <trkpt lat="45.73674" lon="4.64431">
        <ele>417.6</ele>
        <time>2025-12-15T13:03:53Z</time>
      </trkpt>
      <trkpt lat="45.73674" lon="4.64431">
        <ele>417.6</ele>
        <time>2025-12-15T13:03:54Z</time>
      </trkpt>
      <trkpt lat="45.73674" lon="4.64431">
        <ele>417.6</ele>
        <time>2025-12-15T13:03:55Z</time>
      </trkpt>
      <trkpt lat="45.73674" lon="4.64431">
        <ele>417.6</ele>
        <time>2025-12-15T13:03:56Z</time>
      </trkpt>
      <trkpt lat="45.73674" lon="4.64431">
        <ele>417.4</ele>
        <time>2025-12-15T13:03:57Z</time>
      </trkpt>
      <trkpt lat="45.73674" lon="4.64431">
        <ele>417.4</ele>
        <time>2025-12-15T13:03:58Z</time>
      </trkpt>
      <trkpt lat="45.73674" lon="4.64431">
        <ele>417.4</ele>
        <time>2025-12-15T13:03:59Z</time>
      </trkpt>
      <trkpt lat="45.73674" lon="4.64431">
        <ele>417.4</ele>
        <time>2025-12-15T13:04:00Z</time>
      </trkpt>
      <trkpt lat="45.73674" lon="4.64431">
        <ele>417.4</ele>
        <time>2025-12-15T13:04:01Z</time>
      </trkpt>
      <trkpt lat="45.73674" lon="4.64431">
        <ele>417.6</ele>
        <time>2025-12-15T13:04:02Z</time>
      </trkpt>
      <trkpt lat="45.73674" lon="4.64431">
        <ele>417.6</ele>
        <time>2025-12-15T13:04:03Z</time>
      </trkpt>
      <trkpt lat="45.73674" lon="4.64431">
        <ele>417.6</ele>
        <time>2025-12-15T13:04:04Z</time>
      </trkpt>
      <trkpt lat="45.73674" lon="4.64431">
        <ele>417.6</ele>
        <time>2025-12-15T13:04:05Z</time>
      </trkpt>
      <trkpt lat="45.73674" lon="4.64431">
        <ele>417.6</ele>
        <time>2025-12-15T13:04:06Z</time>
      </trkpt>
      <trkpt lat="45.73674" lon="4.64431">
        <ele>417.6</ele>
        <time>2025-12-15T13:04:07Z</time>
      </trkpt>
      <trkpt lat="45.73674" lon="4.64431">
        <ele>417.6</ele>
        <time>2025-12-15T13:04:08Z</time>
      </trkpt>
      <trkpt lat="45.73674" lon="4.64431">
        <ele>417.6</ele>
        <time>2025-12-15T13:04:09Z</time>
      </trkpt>
      <trkpt lat="45.73674" lon="4.64431">
        <ele>417.6</ele>
        <time>2025-12-15T13:04:10Z</time>
      </trkpt>
      <trkpt lat="45.73674" lon="4.64431">
        <ele>417.6</ele>
        <time>2025-12-15T13:04:11Z</time>
      </trkpt>
      <trkpt lat="45.73674" lon="4.64431">
        <ele>417.6</ele>
        <time>2025-12-15T13:04:12Z</time>
      </trkpt>
      <trkpt lat="45.73674" lon="4.64431">
        <ele>417.6</ele>
        <time>2025-12-15T13:04:13Z</time>
      </trkpt>
      <trkpt lat="45.73674" lon="4.64431">
        <ele>417.6</ele>
        <time>2025-12-15T13:04:14Z</time>
      </trkpt>
      <trkpt lat="45.73674" lon="4.64431">
        <ele>417.6</ele>
        <time>2025-12-15T13:04:15Z</time>
      </trkpt>
      <trkpt lat="45.73674" lon="4.64431">
        <ele>417.4</ele>
        <time>2025-12-15T13:04:16Z</time>
      </trkpt>
      <trkpt lat="45.73674" lon="4.64431">
        <ele>417.4</ele>
        <time>2025-12-15T13:04:17Z</time>
      </trkpt>
      <trkpt lat="45.73674" lon="4.64431">
        <ele>417.4</ele>
        <time>2025-12-15T13:04:18Z</time>
      </trkpt>
      <trkpt lat="45.73674" lon="4.64431">
        <ele>417.4</ele>
        <time>2025-12-15T13:04:19Z</time>
      </trkpt>
      <trkpt lat="45.73674" lon="4.64431">
        <ele>417.4</ele>
        <time>2025-12-15T13:04:20Z</time>
      </trkpt>
      <trkpt lat="45.73674" lon="4.64431">
        <ele>417.6</ele>
        <time>2025-12-15T13:04:21Z</time>
      </trkpt>
      <trkpt lat="45.73674" lon="4.64431">
        <ele>417.6</ele>
        <time>2025-12-15T13:04:22Z</time>
      </trkpt>
      <trkpt lat="45.73674" lon="4.64431">
        <ele>417.8</ele>
        <time>2025-12-15T13:04:23Z</time>
      </trkpt>
      <trkpt lat="45.73674" lon="4.64431">
        <ele>418</ele>
        <time>2025-12-15T13:04:24Z</time>
      </trkpt>
      <trkpt lat="45.73674" lon="4.64431">
        <ele>417.8</ele>
        <time>2025-12-15T13:04:25Z</time>
      </trkpt>
      <trkpt lat="45.73674" lon="4.64431">
        <ele>417.8</ele>
        <time>2025-12-15T13:04:26Z</time>
      </trkpt>
      <trkpt lat="45.73674" lon="4.64431">
        <ele>417.8</ele>
        <time>2025-12-15T13:04:27Z</time>
      </trkpt>
      <trkpt lat="45.73674" lon="4.64431">
        <ele>417.6</ele>
        <time>2025-12-15T13:04:28Z</time>
      </trkpt>
      <trkpt lat="45.73674" lon="4.64431">
        <ele>417.6</ele>
        <time>2025-12-15T13:04:29Z</time>
      </trkpt>
      <trkpt lat="45.73674" lon="4.64431">
        <ele>417.6</ele>
        <time>2025-12-15T13:04:30Z</time>
      </trkpt>
      <trkpt lat="45.73674" lon="4.64431">
        <ele>417.4</ele>
        <time>2025-12-15T13:04:31Z</time>
      </trkpt>
      <trkpt lat="45.73674" lon="4.64431">
        <ele>417.4</ele>
        <time>2025-12-15T13:04:32Z</time>
      </trkpt>
      <trkpt lat="45.73674" lon="4.64431">
        <ele>417.4</ele>
        <time>2025-12-15T13:04:33Z</time>
      </trkpt>
      <trkpt lat="45.73674" lon="4.64431">
        <ele>417.4</ele>
        <time>2025-12-15T13:04:34Z</time>
      </trkpt>
      <trkpt lat="45.73674" lon="4.64431">
        <ele>417.4</ele>
        <time>2025-12-15T13:04:35Z</time>
      </trkpt>
      <trkpt lat="45.73674" lon="4.64431">
        <ele>417.4</ele>
        <time>2025-12-15T13:04:36Z</time>
      </trkpt>
      <trkpt lat="45.73674" lon="4.64431">
        <ele>417.4</ele>
        <time>2025-12-15T13:04:37Z</time>
      </trkpt>
      <trkpt lat="45.73674" lon="4.64431">
        <ele>417.4</ele>
        <time>2025-12-15T13:04:38Z</time>
      </trkpt>
      <trkpt lat="45.73674" lon="4.64431">
        <ele>417.4</ele>
        <time>2025-12-15T13:04:39Z</time>
      </trkpt>
      <trkpt lat="45.73674" lon="4.64431">
        <ele>417.4</ele>
        <time>2025-12-15T13:04:40Z</time>
      </trkpt>
      <trkpt lat="45.73674" lon="4.64431">
        <ele>417.4</ele>
        <time>2025-12-15T13:04:41Z</time>
      </trkpt>
      <trkpt lat="45.73674" lon="4.64431">
        <ele>417.4</ele>
        <time>2025-12-15T13:04:42Z</time>
      </trkpt>
      <trkpt lat="45.73674" lon="4.64431">
        <ele>417.4</ele>
        <time>2025-12-15T13:04:43Z</time>
      </trkpt>
      <trkpt lat="45.73674" lon="4.64431">
        <ele>417.4</ele>
        <time>2025-12-15T13:04:44Z</time>
      </trkpt>
      <trkpt lat="45.73674" lon="4.64431">
        <ele>417.4</ele>
        <time>2025-12-15T13:04:45Z</time>
      </trkpt>
      <trkpt lat="45.73674" lon="4.64431">
        <ele>417.4</ele>
        <time>2025-12-15T13:04:46Z</time>
      </trkpt>
      <trkpt lat="45.73674" lon="4.64431">
        <ele>417.4</ele>
        <time>2025-12-15T13:04:47Z</time>
      </trkpt>
      <trkpt lat="45.73674" lon="4.64431">
        <ele>417.4</ele>
        <time>2025-12-15T13:04:48Z</time>
      </trkpt>
      <trkpt lat="45.73674" lon="4.64431">
        <ele>417.4</ele>
        <time>2025-12-15T13:04:49Z</time>
      </trkpt>
      <trkpt lat="45.73674" lon="4.64431">
        <ele>417.4</ele>
        <time>2025-12-15T13:04:50Z</time>
      </trkpt>
      <trkpt lat="45.73674" lon="4.64431">
        <ele>417.4</ele>
        <time>2025-12-15T13:04:51Z</time>
      </trkpt>
      <trkpt lat="45.73674" lon="4.64431">
        <ele>417.4</ele>
        <time>2025-12-15T13:04:52Z</time>
      </trkpt>
      <trkpt lat="45.73674" lon="4.64431">
        <ele>417.4</ele>
        <time>2025-12-15T13:04:53Z</time>
      </trkpt>
      <trkpt lat="45.73674" lon="4.64431">
        <ele>417.4</ele>
        <time>2025-12-15T13:04:54Z</time>
      </trkpt>
      <trkpt lat="45.73674" lon="4.64431">
        <ele>417.4</ele>
        <time>2025-12-15T13:04:55Z</time>
      </trkpt>
      <trkpt lat="45.73674" lon="4.64431">
        <ele>417.4</ele>
        <time>2025-12-15T13:04:56Z</time>
      </trkpt>
      <trkpt lat="45.73674" lon="4.64431">
        <ele>417.4</ele>
        <time>2025-12-15T13:04:57Z</time>
      </trkpt>
      <trkpt lat="45.73674" lon="4.64431">
        <ele>417.4</ele>
        <time>2025-12-15T13:04:58Z</time>
      </trkpt>
      <trkpt lat="45.73674" lon="4.64431">
        <ele>417.4</ele>
        <time>2025-12-15T13:04:59Z</time>
      </trkpt>
      <trkpt lat="45.73674" lon="4.64431">
        <ele>417.4</ele>
        <time>2025-12-15T13:05:00Z</time>
      </trkpt>
      <trkpt lat="45.73674" lon="4.64431">
        <ele>417.4</ele>
        <time>2025-12-15T13:05:01Z</time>
      </trkpt>
      <trkpt lat="45.73674" lon="4.64431">
        <ele>417.4</ele>
        <time>2025-12-15T13:05:02Z</time>
      </trkpt>
      <trkpt lat="45.73674" lon="4.64431">
        <ele>417.4</ele>
        <time>2025-12-15T13:05:03Z</time>
      </trkpt>
      <trkpt lat="45.73674" lon="4.64431">
        <ele>417.4</ele>
        <time>2025-12-15T13:05:04Z</time>
      </trkpt>
      <trkpt lat="45.73674" lon="4.64431">
        <ele>417.4</ele>
        <time>2025-12-15T13:05:05Z</time>
      </trkpt>
      <trkpt lat="45.73674" lon="4.64431">
        <ele>417.4</ele>
        <time>2025-12-15T13:05:06Z</time>
      </trkpt>
      <trkpt lat="45.73674" lon="4.64431">
        <ele>417.4</ele>
        <time>2025-12-15T13:05:07Z</time>
      </trkpt>
      <trkpt lat="45.73674" lon="4.64431">
        <ele>417.4</ele>
        <time>2025-12-15T13:05:08Z</time>
      </trkpt>
      <trkpt lat="45.73674" lon="4.64431">
        <ele>417.4</ele>
        <time>2025-12-15T13:05:09Z</time>
      </trkpt>
      <trkpt lat="45.73674" lon="4.64431">
        <ele>417.4</ele>
        <time>2025-12-15T13:05:10Z</time>
      </trkpt>
      <trkpt lat="45.73674" lon="4.64431">
        <ele>417.4</ele>
        <time>2025-12-15T13:05:11Z</time>
      </trkpt>
      <trkpt lat="45.73674" lon="4.64431">
        <ele>417.4</ele>
        <time>2025-12-15T13:05:12Z</time>
      </trkpt>
      <trkpt lat="45.73674" lon="4.64431">
        <ele>417.4</ele>
        <time>2025-12-15T13:05:13Z</time>
      </trkpt>
      <trkpt lat="45.73674" lon="4.64431">
        <ele>417.4</ele>
        <time>2025-12-15T13:05:14Z</time>
      </trkpt>
      <trkpt lat="45.73674" lon="4.64431">
        <ele>417.4</ele>
        <time>2025-12-15T13:05:15Z</time>
      </trkpt>
      <trkpt lat="45.73674" lon="4.64431">
        <ele>417.4</ele>
        <time>2025-12-15T13:05:16Z</time>
      </trkpt>
      <trkpt lat="45.73674" lon="4.64431">
        <ele>417.4</ele>
        <time>2025-12-15T13:05:17Z</time>
      </trkpt>
      <trkpt lat="45.73674" lon="4.64431">
        <ele>417.4</ele>
        <time>2025-12-15T13:05:18Z</time>
      </trkpt>
      <trkpt lat="45.73674" lon="4.64431">
        <ele>417.4</ele>
        <time>2025-12-15T13:05:19Z</time>
      </trkpt>
      <trkpt lat="45.73674" lon="4.64431">
        <ele>417.4</ele>
        <time>2025-12-15T13:05:20Z</time>
      </trkpt>
      <trkpt lat="45.73674" lon="4.64431">
        <ele>417.4</ele>
        <time>2025-12-15T13:05:21Z</time>
      </trkpt>
      <trkpt lat="45.73674" lon="4.64431">
        <ele>417.4</ele>
        <time>2025-12-15T13:05:22Z</time>
      </trkpt>
      <trkpt lat="45.73674" lon="4.64431">
        <ele>417.4</ele>
        <time>2025-12-15T13:05:23Z</time>
      </trkpt>
      <trkpt lat="45.73674" lon="4.64431">
        <ele>417.4</ele>
        <time>2025-12-15T13:05:24Z</time>
      </trkpt>
      <trkpt lat="45.73674" lon="4.64431">
        <ele>417.4</ele>
        <time>2025-12-15T13:05:25Z</time>
      </trkpt>
      <trkpt lat="45.73674" lon="4.64431">
        <ele>417.4</ele>
        <time>2025-12-15T13:05:26Z</time>
      </trkpt>
      <trkpt lat="45.73674" lon="4.64431">
        <ele>417.4</ele>
        <time>2025-12-15T13:05:27Z</time>
      </trkpt>
      <trkpt lat="45.73674" lon="4.64431">
        <ele>417.4</ele>
        <time>2025-12-15T13:05:28Z</time>
      </trkpt>
      <trkpt lat="45.73674" lon="4.64431">
        <ele>417.4</ele>
        <time>2025-12-15T13:05:29Z</time>
      </trkpt>
      <trkpt lat="45.73674" lon="4.64431">
        <ele>417.4</ele>
        <time>2025-12-15T13:05:30Z</time>
      </trkpt>
      <trkpt lat="45.73674" lon="4.64431">
        <ele>417.4</ele>
        <time>2025-12-15T13:05:31Z</time>
      </trkpt>
      <trkpt lat="45.73674" lon="4.64431">
        <ele>417.4</ele>
        <time>2025-12-15T13:05:32Z</time>
      </trkpt>
      <trkpt lat="45.73674" lon="4.64431">
        <ele>417.4</ele>
        <time>2025-12-15T13:05:33Z</time>
      </trkpt>
      <trkpt lat="45.73674" lon="4.64431">
        <ele>417.4</ele>
        <time>2025-12-15T13:05:34Z</time>
      </trkpt>
      <trkpt lat="45.73674" lon="4.64431">
        <ele>417.4</ele>
        <time>2025-12-15T13:05:35Z</time>
      </trkpt>
      <trkpt lat="45.73674" lon="4.64431">
        <ele>417.4</ele>
        <time>2025-12-15T13:05:36Z</time>
      </trkpt>
      <trkpt lat="45.73674" lon="4.64431">
        <ele>417.4</ele>
        <time>2025-12-15T13:05:37Z</time>
      </trkpt>
      <trkpt lat="45.73675" lon="4.64431">
        <ele>417.4</ele>
        <time>2025-12-15T13:05:38Z</time>
      </trkpt>
      <trkpt lat="45.73675" lon="4.64431">
        <ele>417.4</ele>
        <time>2025-12-15T13:05:39Z</time>
      </trkpt>
      <trkpt lat="45.73675" lon="4.64431">
        <ele>417.4</ele>
        <time>2025-12-15T13:05:40Z</time>
      </trkpt>
      <trkpt lat="45.73675" lon="4.64431">
        <ele>417.4</ele>
        <time>2025-12-15T13:05:41Z</time>
      </trkpt>
      <trkpt lat="45.73675" lon="4.64431">
        <ele>417.4</ele>
        <time>2025-12-15T13:05:42Z</time>
      </trkpt>
      <trkpt lat="45.73675" lon="4.64431">
        <ele>417.4</ele>
        <time>2025-12-15T13:05:43Z</time>
      </trkpt>
      <trkpt lat="45.73675" lon="4.64431">
        <ele>417.4</ele>
        <time>2025-12-15T13:05:44Z</time>
      </trkpt>
      <trkpt lat="45.73675" lon="4.64431">
        <ele>417.4</ele>
        <time>2025-12-15T13:05:45Z</time>
      </trkpt>
      <trkpt lat="45.73675" lon="4.64431">
        <ele>417.4</ele>
        <time>2025-12-15T13:05:46Z</time>
      </trkpt>
      <trkpt lat="45.73675" lon="4.64431">
        <ele>417.4</ele>
        <time>2025-12-15T13:05:47Z</time>
      </trkpt>
      <trkpt lat="45.73675" lon="4.64431">
        <ele>417.4</ele>
        <time>2025-12-15T13:05:48Z</time>
      </trkpt>
      <trkpt lat="45.73675" lon="4.64431">
        <ele>417.4</ele>
        <time>2025-12-15T13:05:49Z</time>
      </trkpt>
      <trkpt lat="45.73675" lon="4.64431">
        <ele>417.4</ele>
        <time>2025-12-15T13:05:50Z</time>
      </trkpt>
      <trkpt lat="45.73675" lon="4.64431">
        <ele>417.4</ele>
        <time>2025-12-15T13:05:51Z</time>
      </trkpt>
      <trkpt lat="45.73675" lon="4.64431">
        <ele>417.4</ele>
        <time>2025-12-15T13:05:52Z</time>
      </trkpt>
      <trkpt lat="45.73675" lon="4.64431">
        <ele>417.4</ele>
        <time>2025-12-15T13:05:53Z</time>
      </trkpt>
      <trkpt lat="45.73675" lon="4.64431">
        <ele>417.4</ele>
        <time>2025-12-15T13:05:54Z</time>
      </trkpt>
      <trkpt lat="45.73675" lon="4.64431">
        <ele>417.4</ele>
        <time>2025-12-15T13:05:55Z</time>
      </trkpt>
      <trkpt lat="45.73675" lon="4.64431">
        <ele>417.4</ele>
        <time>2025-12-15T13:05:56Z</time>
      </trkpt>
      <trkpt lat="45.73675" lon="4.64431">
        <ele>417.4</ele>
        <time>2025-12-15T13:05:57Z</time>
      </trkpt>
      <trkpt lat="45.73675" lon="4.64431">
        <ele>417.4</ele>
        <time>2025-12-15T13:05:58Z</time>
      </trkpt>
      <trkpt lat="45.73675" lon="4.64431">
        <ele>417.4</ele>
        <time>2025-12-15T13:05:59Z</time>
      </trkpt>
      <trkpt lat="45.73675" lon="4.64431">
        <ele>417.4</ele>
        <time>2025-12-15T13:06:00Z</time>
      </trkpt>
      <trkpt lat="45.73675" lon="4.64431">
        <ele>417.4</ele>
        <time>2025-12-15T13:06:01Z</time>
      </trkpt>
      <trkpt lat="45.73675" lon="4.64431">
        <ele>417.4</ele>
        <time>2025-12-15T13:06:02Z</time>
      </trkpt>
      <trkpt lat="45.73675" lon="4.64431">
        <ele>417.4</ele>
        <time>2025-12-15T13:06:03Z</time>
      </trkpt>
      <trkpt lat="45.73675" lon="4.64431">
        <ele>417.4</ele>
        <time>2025-12-15T13:06:04Z</time>
      </trkpt>
      <trkpt lat="45.73675" lon="4.64431">
        <ele>417.4</ele>
        <time>2025-12-15T13:06:05Z</time>
      </trkpt>
      <trkpt lat="45.73675" lon="4.64431">
        <ele>417.4</ele>
        <time>2025-12-15T13:06:06Z</time>
      </trkpt>
      <trkpt lat="45.73675" lon="4.64431">
        <ele>417.4</ele>
        <time>2025-12-15T13:06:07Z</time>
      </trkpt>
      <trkpt lat="45.73675" lon="4.64431">
        <ele>417.4</ele>
        <time>2025-12-15T13:06:08Z</time>
      </trkpt>
      <trkpt lat="45.73675" lon="4.64431">
        <ele>417.4</ele>
        <time>2025-12-15T13:06:09Z</time>
      </trkpt>
      <trkpt lat="45.73675" lon="4.64431">
        <ele>417.4</ele>
        <time>2025-12-15T13:06:10Z</time>
      </trkpt>
      <trkpt lat="45.73675" lon="4.64431">
        <ele>417.4</ele>
        <time>2025-12-15T13:06:11Z</time>
      </trkpt>
      <trkpt lat="45.73675" lon="4.64431">
        <ele>417.4</ele>
        <time>2025-12-15T13:06:12Z</time>
      </trkpt>
      <trkpt lat="45.73675" lon="4.64431">
        <ele>417.4</ele>
        <time>2025-12-15T13:06:13Z</time>
      </trkpt>
      <trkpt lat="45.73675" lon="4.64431">
        <ele>417.4</ele>
        <time>2025-12-15T13:06:14Z</time>
      </trkpt>
      <trkpt lat="45.73675" lon="4.64431">
        <ele>417.4</ele>
        <time>2025-12-15T13:06:15Z</time>
      </trkpt>
      <trkpt lat="45.73675" lon="4.64431">
        <ele>417.4</ele>
        <time>2025-12-15T13:06:16Z</time>
      </trkpt>
      <trkpt lat="45.73675" lon="4.64431">
        <ele>417.4</ele>
        <time>2025-12-15T13:06:17Z</time>
      </trkpt>
      <trkpt lat="45.73675" lon="4.64431">
        <ele>417.4</ele>
        <time>2025-12-15T13:06:18Z</time>
      </trkpt>
      <trkpt lat="45.73675" lon="4.64431">
        <ele>417.4</ele>
        <time>2025-12-15T13:06:19Z</time>
      </trkpt>
      <trkpt lat="45.73675" lon="4.64431">
        <ele>417.4</ele>
        <time>2025-12-15T13:06:20Z</time>
      </trkpt>
      <trkpt lat="45.73675" lon="4.6443">
        <ele>417.4</ele>
        <time>2025-12-15T13:06:21Z</time>
      </trkpt>
      <trkpt lat="45.73676" lon="4.64428">
        <ele>417.4</ele>
        <time>2025-12-15T13:06:22Z</time>
      </trkpt>
      <trkpt lat="45.73677" lon="4.64427">
        <ele>417.4</ele>
        <time>2025-12-15T13:06:23Z</time>
      </trkpt>
      <trkpt lat="45.73679" lon="4.64428">
        <ele>417.4</ele>
        <time>2025-12-15T13:06:24Z</time>
      </trkpt>
      <trkpt lat="45.7368" lon="4.64431">
        <ele>417.6</ele>
        <time>2025-12-15T13:06:25Z</time>
      </trkpt>
      <trkpt lat="45.7368" lon="4.64433">
        <ele>417.6</ele>
        <time>2025-12-15T13:06:26Z</time>
      </trkpt>
      <trkpt lat="45.73678" lon="4.64434">
        <ele>417.4</ele>
        <time>2025-12-15T13:06:27Z</time>
      </trkpt>
      <trkpt lat="45.73677" lon="4.64433">
        <ele>417.2</ele>
        <time>2025-12-15T13:06:28Z</time>
      </trkpt>
      <trkpt lat="45.73675" lon="4.64431">
        <ele>417.2</ele>
        <time>2025-12-15T13:06:29Z</time>
      </trkpt>
      <trkpt lat="45.73674" lon="4.64428">
        <ele>417.2</ele>
        <time>2025-12-15T13:06:30Z</time>
      </trkpt>
      <trkpt lat="45.73673" lon="4.64425">
        <ele>417.2</ele>
        <time>2025-12-15T13:06:31Z</time>
      </trkpt>
      <trkpt lat="45.73672" lon="4.64422">
        <ele>417.4</ele>
        <time>2025-12-15T13:06:32Z</time>
      </trkpt>
      <trkpt lat="45.73671" lon="4.6442">
        <ele>417.8</ele>
        <time>2025-12-15T13:06:33Z</time>
      </trkpt>
      <trkpt lat="45.7367" lon="4.64419">
        <ele>418.2</ele>
        <time>2025-12-15T13:06:34Z</time>
      </trkpt>
      <trkpt lat="45.73669" lon="4.64417">
        <ele>418.8</ele>
        <time>2025-12-15T13:06:35Z</time>
      </trkpt>
      <trkpt lat="45.73667" lon="4.64414">
        <ele>419.2</ele>
        <time>2025-12-15T13:06:36Z</time>
      </trkpt>
      <trkpt lat="45.73666" lon="4.64412">
        <ele>419.4</ele>
        <time>2025-12-15T13:06:37Z</time>
      </trkpt>
      <trkpt lat="45.73665" lon="4.6441">
        <ele>419.8</ele>
        <time>2025-12-15T13:06:38Z</time>
      </trkpt>
      <trkpt lat="45.73664" lon="4.64408">
        <ele>420</ele>
        <time>2025-12-15T13:06:39Z</time>
      </trkpt>
      <trkpt lat="45.73662" lon="4.64405">
        <ele>420.4</ele>
        <time>2025-12-15T13:06:40Z</time>
      </trkpt>
      <trkpt lat="45.73661" lon="4.64403">
        <ele>420.6</ele>
        <time>2025-12-15T13:06:41Z</time>
      </trkpt>
      <trkpt lat="45.73659" lon="4.64402">
        <ele>421</ele>
        <time>2025-12-15T13:06:42Z</time>
      </trkpt>
      <trkpt lat="45.73658" lon="4.644">
        <ele>421.2</ele>
        <time>2025-12-15T13:06:43Z</time>
      </trkpt>
      <trkpt lat="45.73656" lon="4.64398">
        <ele>421.6</ele>
        <time>2025-12-15T13:06:44Z</time>
      </trkpt>
      <trkpt lat="45.73655" lon="4.64396">
        <ele>421.8</ele>
        <time>2025-12-15T13:06:45Z</time>
      </trkpt>
      <trkpt lat="45.73653" lon="4.64393">
        <ele>422</ele>
        <time>2025-12-15T13:06:46Z</time>
      </trkpt>
      <trkpt lat="45.73652" lon="4.64391">
        <ele>422.4</ele>
        <time>2025-12-15T13:06:47Z</time>
      </trkpt>
      <trkpt lat="45.7365" lon="4.64388">
        <ele>422.8</ele>
        <time>2025-12-15T13:06:48Z</time>
      </trkpt>
      <trkpt lat="45.73649" lon="4.64386">
        <ele>423.2</ele>
        <time>2025-12-15T13:06:49Z</time>
      </trkpt>
      <trkpt lat="45.73647" lon="4.64384">
        <ele>423.6</ele>
        <time>2025-12-15T13:06:50Z</time>
      </trkpt>
      <trkpt lat="45.73646" lon="4.64382">
        <ele>423.8</ele>
        <time>2025-12-15T13:06:51Z</time>
      </trkpt>
      <trkpt lat="45.73644" lon="4.64379">
        <ele>424</ele>
        <time>2025-12-15T13:06:52Z</time>
      </trkpt>
      <trkpt lat="45.73642" lon="4.64377">
        <ele>424.4</ele>
        <time>2025-12-15T13:06:53Z</time>
      </trkpt>
      <trkpt lat="45.73641" lon="4.64375">
        <ele>424.6</ele>
        <time>2025-12-15T13:06:54Z</time>
      </trkpt>
      <trkpt lat="45.73639" lon="4.64372">
        <ele>424.8</ele>
        <time>2025-12-15T13:06:55Z</time>
      </trkpt>
      <trkpt lat="45.73637" lon="4.64369">
        <ele>425</ele>
        <time>2025-12-15T13:06:56Z</time>
      </trkpt>
      <trkpt lat="45.73636" lon="4.64366">
        <ele>425.4</ele>
        <time>2025-12-15T13:06:57Z</time>
      </trkpt>
      <trkpt lat="45.73634" lon="4.64364">
        <ele>425.6</ele>
        <time>2025-12-15T13:06:58Z</time>
      </trkpt>
      <trkpt lat="45.73632" lon="4.64361">
        <ele>426</ele>
        <time>2025-12-15T13:06:59Z</time>
      </trkpt>
      <trkpt lat="45.73631" lon="4.64359">
        <ele>426.4</ele>
        <time>2025-12-15T13:07:00Z</time>
      </trkpt>
      <trkpt lat="45.7363" lon="4.64357">
        <ele>426.8</ele>
        <time>2025-12-15T13:07:01Z</time>
      </trkpt>
      <trkpt lat="45.73628" lon="4.64355">
        <ele>427.2</ele>
        <time>2025-12-15T13:07:02Z</time>
      </trkpt>
      <trkpt lat="45.73626" lon="4.64353">
        <ele>427.6</ele>
        <time>2025-12-15T13:07:03Z</time>
      </trkpt>
      <trkpt lat="45.73625" lon="4.64351">
        <ele>428.2</ele>
        <time>2025-12-15T13:07:04Z</time>
      </trkpt>
      <trkpt lat="45.73624" lon="4.64348">
        <ele>428.4</ele>
        <time>2025-12-15T13:07:05Z</time>
      </trkpt>
      <trkpt lat="45.73624" lon="4.64346">
        <ele>428.8</ele>
        <time>2025-12-15T13:07:06Z</time>
      </trkpt>
      <trkpt lat="45.73623" lon="4.64344">
        <ele>429.2</ele>
        <time>2025-12-15T13:07:07Z</time>
      </trkpt>
      <trkpt lat="45.73621" lon="4.64341">
        <ele>429.6</ele>
        <time>2025-12-15T13:07:08Z</time>
      </trkpt>
      <trkpt lat="45.7362" lon="4.64339">
        <ele>430</ele>
        <time>2025-12-15T13:07:09Z</time>
      </trkpt>
      <trkpt lat="45.73618" lon="4.64337">
        <ele>430.4</ele>
        <time>2025-12-15T13:07:10Z</time>
      </trkpt>
      <trkpt lat="45.73617" lon="4.64336">
        <ele>431</ele>
        <time>2025-12-15T13:07:11Z</time>
      </trkpt>
      <trkpt lat="45.73616" lon="4.64333">
        <ele>431.4</ele>
        <time>2025-12-15T13:07:12Z</time>
      </trkpt>
      <trkpt lat="45.73615" lon="4.64331">
        <ele>431.8</ele>
        <time>2025-12-15T13:07:13Z</time>
      </trkpt>
      <trkpt lat="45.73613" lon="4.64328">
        <ele>432</ele>
        <time>2025-12-15T13:07:14Z</time>
      </trkpt>
      <trkpt lat="45.73612" lon="4.64326">
        <ele>432.4</ele>
        <time>2025-12-15T13:07:15Z</time>
      </trkpt>
      <trkpt lat="45.73611" lon="4.64325">
        <ele>432.8</ele>
        <time>2025-12-15T13:07:16Z</time>
      </trkpt>
      <trkpt lat="45.73609" lon="4.64323">
        <ele>433</ele>
        <time>2025-12-15T13:07:17Z</time>
      </trkpt>
      <trkpt lat="45.73607" lon="4.64321">
        <ele>433.4</ele>
        <time>2025-12-15T13:07:18Z</time>
      </trkpt>
      <trkpt lat="45.73606" lon="4.64319">
        <ele>433.6</ele>
        <time>2025-12-15T13:07:19Z</time>
      </trkpt>
      <trkpt lat="45.73605" lon="4.64317">
        <ele>433.8</ele>
        <time>2025-12-15T13:07:20Z</time>
      </trkpt>
      <trkpt lat="45.73604" lon="4.64315">
        <ele>434.2</ele>
        <time>2025-12-15T13:07:21Z</time>
      </trkpt>
      <trkpt lat="45.73603" lon="4.64312">
        <ele>434.4</ele>
        <time>2025-12-15T13:07:22Z</time>
      </trkpt>
      <trkpt lat="45.73601" lon="4.6431">
        <ele>434.8</ele>
        <time>2025-12-15T13:07:23Z</time>
      </trkpt>
      <trkpt lat="45.73599" lon="4.64307">
        <ele>435.2</ele>
        <time>2025-12-15T13:07:24Z</time>
      </trkpt>
      <trkpt lat="45.73597" lon="4.64305">
        <ele>435.4</ele>
        <time>2025-12-15T13:07:25Z</time>
      </trkpt>
      <trkpt lat="45.73595" lon="4.64303">
        <ele>435.8</ele>
        <time>2025-12-15T13:07:26Z</time>
      </trkpt>
      <trkpt lat="45.73594" lon="4.643">
        <ele>436</ele>
        <time>2025-12-15T13:07:27Z</time>
      </trkpt>
      <trkpt lat="45.73593" lon="4.64298">
        <ele>436.2</ele>
        <time>2025-12-15T13:07:28Z</time>
      </trkpt>
      <trkpt lat="45.73591" lon="4.64295">
        <ele>436.6</ele>
        <time>2025-12-15T13:07:29Z</time>
      </trkpt>
      <trkpt lat="45.7359" lon="4.64293">
        <ele>437</ele>
        <time>2025-12-15T13:07:30Z</time>
      </trkpt>
      <trkpt lat="45.73589" lon="4.64291">
        <ele>437.2</ele>
        <time>2025-12-15T13:07:31Z</time>
      </trkpt>
      <trkpt lat="45.73587" lon="4.64288">
        <ele>437.6</ele>
        <time>2025-12-15T13:07:32Z</time>
      </trkpt>
      <trkpt lat="45.73586" lon="4.64286">
        <ele>437.8</ele>
        <time>2025-12-15T13:07:33Z</time>
      </trkpt>
      <trkpt lat="45.73585" lon="4.64284">
        <ele>438.2</ele>
        <time>2025-12-15T13:07:34Z</time>
      </trkpt>
      <trkpt lat="45.73584" lon="4.64283">
        <ele>438.6</ele>
        <time>2025-12-15T13:07:35Z</time>
      </trkpt>
      <trkpt lat="45.73583" lon="4.64281">
        <ele>439</ele>
        <time>2025-12-15T13:07:36Z</time>
      </trkpt>
      <trkpt lat="45.73581" lon="4.64279">
        <ele>439.4</ele>
        <time>2025-12-15T13:07:37Z</time>
      </trkpt>
      <trkpt lat="45.7358" lon="4.64276">
        <ele>439.6</ele>
        <time>2025-12-15T13:07:38Z</time>
      </trkpt>
      <trkpt lat="45.73579" lon="4.64274">
        <ele>440</ele>
        <time>2025-12-15T13:07:39Z</time>
      </trkpt>
      <trkpt lat="45.73577" lon="4.64272">
        <ele>440.2</ele>
        <time>2025-12-15T13:07:40Z</time>
      </trkpt>
      <trkpt lat="45.73576" lon="4.64271">
        <ele>440.6</ele>
        <time>2025-12-15T13:07:41Z</time>
      </trkpt>
      <trkpt lat="45.73575" lon="4.64269">
        <ele>440.8</ele>
        <time>2025-12-15T13:07:42Z</time>
      </trkpt>
      <trkpt lat="45.73573" lon="4.64267">
        <ele>441.2</ele>
        <time>2025-12-15T13:07:43Z</time>
      </trkpt>
      <trkpt lat="45.73573" lon="4.64265">
        <ele>441.6</ele>
        <time>2025-12-15T13:07:44Z</time>
      </trkpt>
      <trkpt lat="45.73571" lon="4.64263">
        <ele>441.8</ele>
        <time>2025-12-15T13:07:45Z</time>
      </trkpt>
      <trkpt lat="45.7357" lon="4.64261">
        <ele>442.2</ele>
        <time>2025-12-15T13:07:46Z</time>
      </trkpt>
      <trkpt lat="45.73569" lon="4.6426">
        <ele>442.4</ele>
        <time>2025-12-15T13:07:47Z</time>
      </trkpt>
      <trkpt lat="45.73567" lon="4.64258">
        <ele>442.8</ele>
        <time>2025-12-15T13:07:48Z</time>
      </trkpt>
      <trkpt lat="45.73566" lon="4.64257">
        <ele>443.2</ele>
        <time>2025-12-15T13:07:49Z</time>
      </trkpt>
      <trkpt lat="45.73564" lon="4.64255">
        <ele>443.6</ele>
        <time>2025-12-15T13:07:50Z</time>
      </trkpt>
      <trkpt lat="45.73563" lon="4.64253">
        <ele>443.8</ele>
        <time>2025-12-15T13:07:51Z</time>
      </trkpt>
      <trkpt lat="45.73562" lon="4.64251">
        <ele>444.2</ele>
        <time>2025-12-15T13:07:52Z</time>
      </trkpt>
      <trkpt lat="45.73561" lon="4.64249">
        <ele>444.4</ele>
        <time>2025-12-15T13:07:53Z</time>
      </trkpt>
      <trkpt lat="45.7356" lon="4.64246">
        <ele>444.6</ele>
        <time>2025-12-15T13:07:54Z</time>
      </trkpt>
      <trkpt lat="45.73559" lon="4.64244">
        <ele>444.8</ele>
        <time>2025-12-15T13:07:55Z</time>
      </trkpt>
      <trkpt lat="45.73558" lon="4.64242">
        <ele>445</ele>
        <time>2025-12-15T13:07:56Z</time>
      </trkpt>
      <trkpt lat="45.73557" lon="4.6424">
        <ele>445.4</ele>
        <time>2025-12-15T13:07:57Z</time>
      </trkpt>
      <trkpt lat="45.73556" lon="4.64238">
        <ele>445.6</ele>
        <time>2025-12-15T13:07:58Z</time>
      </trkpt>
      <trkpt lat="45.73555" lon="4.64236">
        <ele>445.8</ele>
        <time>2025-12-15T13:07:59Z</time>
      </trkpt>
      <trkpt lat="45.73553" lon="4.64235">
        <ele>446.2</ele>
        <time>2025-12-15T13:08:00Z</time>
      </trkpt>
      <trkpt lat="45.73552" lon="4.64233">
        <ele>446.4</ele>
        <time>2025-12-15T13:08:01Z</time>
      </trkpt>
      <trkpt lat="45.73551" lon="4.64231">
        <ele>446.6</ele>
        <time>2025-12-15T13:08:02Z</time>
      </trkpt>
      <trkpt lat="45.7355" lon="4.64229">
        <ele>447</ele>
        <time>2025-12-15T13:08:03Z</time>
      </trkpt>
      <trkpt lat="45.73549" lon="4.64227">
        <ele>447.4</ele>
        <time>2025-12-15T13:08:04Z</time>
      </trkpt>
      <trkpt lat="45.73548" lon="4.64225">
        <ele>447.8</ele>
        <time>2025-12-15T13:08:05Z</time>
      </trkpt>
      <trkpt lat="45.73547" lon="4.64223">
        <ele>448.2</ele>
        <time>2025-12-15T13:08:06Z</time>
      </trkpt>
      <trkpt lat="45.73546" lon="4.64222">
        <ele>448.4</ele>
        <time>2025-12-15T13:08:07Z</time>
      </trkpt>
      <trkpt lat="45.73545" lon="4.6422">
        <ele>449</ele>
        <time>2025-12-15T13:08:08Z</time>
      </trkpt>
      <trkpt lat="45.73543" lon="4.64219">
        <ele>449.4</ele>
        <time>2025-12-15T13:08:09Z</time>
      </trkpt>
      <trkpt lat="45.73542" lon="4.64217">
        <ele>449.8</ele>
        <time>2025-12-15T13:08:10Z</time>
      </trkpt>
      <trkpt lat="45.7354" lon="4.64215">
        <ele>450.2</ele>
        <time>2025-12-15T13:08:11Z</time>
      </trkpt>
      <trkpt lat="45.73539" lon="4.64213">
        <ele>450.4</ele>
        <time>2025-12-15T13:08:12Z</time>
      </trkpt>
      <trkpt lat="45.73537" lon="4.64211">
        <ele>450.8</ele>
        <time>2025-12-15T13:08:13Z</time>
      </trkpt>
      <trkpt lat="45.73536" lon="4.64209">
        <ele>451</ele>
        <time>2025-12-15T13:08:14Z</time>
      </trkpt>
      <trkpt lat="45.73535" lon="4.64207">
        <ele>451.4</ele>
        <time>2025-12-15T13:08:15Z</time>
      </trkpt>
      <trkpt lat="45.73534" lon="4.64205">
        <ele>451.8</ele>
        <time>2025-12-15T13:08:16Z</time>
      </trkpt>
      <trkpt lat="45.73532" lon="4.64204">
        <ele>452</ele>
        <time>2025-12-15T13:08:17Z</time>
      </trkpt>
      <trkpt lat="45.73531" lon="4.64202">
        <ele>452.4</ele>
        <time>2025-12-15T13:08:18Z</time>
      </trkpt>
      <trkpt lat="45.7353" lon="4.642">
        <ele>452.8</ele>
        <time>2025-12-15T13:08:19Z</time>
      </trkpt>
      <trkpt lat="45.73529" lon="4.64197">
        <ele>453.2</ele>
        <time>2025-12-15T13:08:20Z</time>
      </trkpt>
      <trkpt lat="45.73527" lon="4.64195">
        <ele>453.6</ele>
        <time>2025-12-15T13:08:21Z</time>
      </trkpt>
      <trkpt lat="45.73526" lon="4.64194">
        <ele>454</ele>
        <time>2025-12-15T13:08:22Z</time>
      </trkpt>
      <trkpt lat="45.73525" lon="4.64192">
        <ele>454.4</ele>
        <time>2025-12-15T13:08:23Z</time>
      </trkpt>
      <trkpt lat="45.73524" lon="4.64191">
        <ele>454.8</ele>
        <time>2025-12-15T13:08:24Z</time>
      </trkpt>
      <trkpt lat="45.73523" lon="4.6419">
        <ele>455.2</ele>
        <time>2025-12-15T13:08:25Z</time>
      </trkpt>
      <trkpt lat="45.73522" lon="4.64188">
        <ele>455.6</ele>
        <time>2025-12-15T13:08:26Z</time>
      </trkpt>
      <trkpt lat="45.73521" lon="4.64186">
        <ele>456</ele>
        <time>2025-12-15T13:08:27Z</time>
      </trkpt>
      <trkpt lat="45.7352" lon="4.64184">
        <ele>456.4</ele>
        <time>2025-12-15T13:08:28Z</time>
      </trkpt>
      <trkpt lat="45.73519" lon="4.64182">
        <ele>456.8</ele>
        <time>2025-12-15T13:08:29Z</time>
      </trkpt>
      <trkpt lat="45.73518" lon="4.6418">
        <ele>457.2</ele>
        <time>2025-12-15T13:08:30Z</time>
      </trkpt>
      <trkpt lat="45.73517" lon="4.64178">
        <ele>457.6</ele>
        <time>2025-12-15T13:08:31Z</time>
      </trkpt>
      <trkpt lat="45.73516" lon="4.64176">
        <ele>458</ele>
        <time>2025-12-15T13:08:32Z</time>
      </trkpt>
      <trkpt lat="45.73515" lon="4.64175">
        <ele>458.4</ele>
        <time>2025-12-15T13:08:33Z</time>
      </trkpt>
      <trkpt lat="45.73514" lon="4.64173">
        <ele>458.8</ele>
        <time>2025-12-15T13:08:34Z</time>
      </trkpt>
      <trkpt lat="45.73512" lon="4.64171">
        <ele>459.2</ele>
        <time>2025-12-15T13:08:35Z</time>
      </trkpt>
      <trkpt lat="45.73511" lon="4.64169">
        <ele>459.6</ele>
        <time>2025-12-15T13:08:36Z</time>
      </trkpt>
      <trkpt lat="45.7351" lon="4.64167">
        <ele>460</ele>
        <time>2025-12-15T13:08:37Z</time>
      </trkpt>
      <trkpt lat="45.73508" lon="4.64165">
        <ele>460.4</ele>
        <time>2025-12-15T13:08:38Z</time>
      </trkpt>
      <trkpt lat="45.73507" lon="4.64163">
        <ele>460.8</ele>
        <time>2025-12-15T13:08:39Z</time>
      </trkpt>
      <trkpt lat="45.73506" lon="4.64161">
        <ele>461.2</ele>
        <time>2025-12-15T13:08:40Z</time>
      </trkpt>
      <trkpt lat="45.73504" lon="4.64158">
        <ele>461.6</ele>
        <time>2025-12-15T13:08:41Z</time>
      </trkpt>
      <trkpt lat="45.73503" lon="4.64156">
        <ele>462</ele>
        <time>2025-12-15T13:08:42Z</time>
      </trkpt>
      <trkpt lat="45.73502" lon="4.64154">
        <ele>462.2</ele>
        <time>2025-12-15T13:08:43Z</time>
      </trkpt>
      <trkpt lat="45.73501" lon="4.64153">
        <ele>462.6</ele>
        <time>2025-12-15T13:08:44Z</time>
      </trkpt>
      <trkpt lat="45.73499" lon="4.64151">
        <ele>462.8</ele>
        <time>2025-12-15T13:08:45Z</time>
      </trkpt>
      <trkpt lat="45.73498" lon="4.64149">
        <ele>463.2</ele>
        <time>2025-12-15T13:08:46Z</time>
      </trkpt>
      <trkpt lat="45.73497" lon="4.64147">
        <ele>463.6</ele>
        <time>2025-12-15T13:08:47Z</time>
      </trkpt>
      <trkpt lat="45.73496" lon="4.64145">
        <ele>464</ele>
        <time>2025-12-15T13:08:48Z</time>
      </trkpt>
      <trkpt lat="45.73495" lon="4.64143">
        <ele>464.4</ele>
        <time>2025-12-15T13:08:49Z</time>
      </trkpt>
      <trkpt lat="45.73494" lon="4.64141">
        <ele>464.8</ele>
        <time>2025-12-15T13:08:50Z</time>
      </trkpt>
      <trkpt lat="45.73493" lon="4.64139">
        <ele>465</ele>
        <time>2025-12-15T13:08:51Z</time>
      </trkpt>
      <trkpt lat="45.73492" lon="4.64137">
        <ele>465.4</ele>
        <time>2025-12-15T13:08:52Z</time>
      </trkpt>
      <trkpt lat="45.73491" lon="4.64136">
        <ele>465.8</ele>
        <time>2025-12-15T13:08:53Z</time>
      </trkpt>
      <trkpt lat="45.73489" lon="4.64135">
        <ele>466</ele>
        <time>2025-12-15T13:08:54Z</time>
      </trkpt>
      <trkpt lat="45.73488" lon="4.64133">
        <ele>466.4</ele>
        <time>2025-12-15T13:08:55Z</time>
      </trkpt>
      <trkpt lat="45.73487" lon="4.64132">
        <ele>466.6</ele>
        <time>2025-12-15T13:08:56Z</time>
      </trkpt>
      <trkpt lat="45.73486" lon="4.6413">
        <ele>466.8</ele>
        <time>2025-12-15T13:08:57Z</time>
      </trkpt>
      <trkpt lat="45.73484" lon="4.64128">
        <ele>467</ele>
        <time>2025-12-15T13:08:58Z</time>
      </trkpt>
      <trkpt lat="45.73483" lon="4.64125">
        <ele>467.2</ele>
        <time>2025-12-15T13:08:59Z</time>
      </trkpt>
      <trkpt lat="45.73481" lon="4.64123">
        <ele>467.4</ele>
        <time>2025-12-15T13:09:00Z</time>
      </trkpt>
      <trkpt lat="45.7348" lon="4.64121">
        <ele>467.8</ele>
        <time>2025-12-15T13:09:01Z</time>
      </trkpt>
      <trkpt lat="45.73479" lon="4.6412">
        <ele>468</ele>
        <time>2025-12-15T13:09:02Z</time>
      </trkpt>
      <trkpt lat="45.73477" lon="4.64118">
        <ele>468.4</ele>
        <time>2025-12-15T13:09:03Z</time>
      </trkpt>
      <trkpt lat="45.73476" lon="4.64116">
        <ele>468.6</ele>
        <time>2025-12-15T13:09:04Z</time>
      </trkpt>
      <trkpt lat="45.73474" lon="4.64114">
        <ele>469</ele>
        <time>2025-12-15T13:09:05Z</time>
      </trkpt>
      <trkpt lat="45.73473" lon="4.64112">
        <ele>469.2</ele>
        <time>2025-12-15T13:09:06Z</time>
      </trkpt>
      <trkpt lat="45.73472" lon="4.6411">
        <ele>469.6</ele>
        <time>2025-12-15T13:09:07Z</time>
      </trkpt>
      <trkpt lat="45.7347" lon="4.64108">
        <ele>470</ele>
        <time>2025-12-15T13:09:08Z</time>
      </trkpt>
      <trkpt lat="45.73469" lon="4.64106">
        <ele>470.6</ele>
        <time>2025-12-15T13:09:09Z</time>
      </trkpt>
      <trkpt lat="45.73467" lon="4.64104">
        <ele>471</ele>
        <time>2025-12-15T13:09:10Z</time>
      </trkpt>
      <trkpt lat="45.73466" lon="4.64102">
        <ele>471.4</ele>
        <time>2025-12-15T13:09:11Z</time>
      </trkpt>
      <trkpt lat="45.73464" lon="4.641">
        <ele>471.8</ele>
        <time>2025-12-15T13:09:12Z</time>
      </trkpt>
      <trkpt lat="45.73463" lon="4.64098">
        <ele>472</ele>
        <time>2025-12-15T13:09:13Z</time>
      </trkpt>
      <trkpt lat="45.73461" lon="4.64096">
        <ele>472.4</ele>
        <time>2025-12-15T13:09:14Z</time>
      </trkpt>
      <trkpt lat="45.7346" lon="4.64094">
        <ele>472.6</ele>
        <time>2025-12-15T13:09:15Z</time>
      </trkpt>
      <trkpt lat="45.73458" lon="4.64093">
        <ele>473</ele>
        <time>2025-12-15T13:09:16Z</time>
      </trkpt>
      <trkpt lat="45.73457" lon="4.64091">
        <ele>473.4</ele>
        <time>2025-12-15T13:09:17Z</time>
      </trkpt>
      <trkpt lat="45.73456" lon="4.6409">
        <ele>473.6</ele>
        <time>2025-12-15T13:09:18Z</time>
      </trkpt>
      <trkpt lat="45.73454" lon="4.64087">
        <ele>474</ele>
        <time>2025-12-15T13:09:19Z</time>
      </trkpt>
      <trkpt lat="45.73453" lon="4.64085">
        <ele>474.2</ele>
        <time>2025-12-15T13:09:20Z</time>
      </trkpt>
      <trkpt lat="45.73453" lon="4.64082">
        <ele>474.4</ele>
        <time>2025-12-15T13:09:21Z</time>
      </trkpt>
      <trkpt lat="45.73451" lon="4.6408">
        <ele>474.8</ele>
        <time>2025-12-15T13:09:22Z</time>
      </trkpt>
      <trkpt lat="45.7345" lon="4.64078">
        <ele>475</ele>
        <time>2025-12-15T13:09:23Z</time>
      </trkpt>
      <trkpt lat="45.73449" lon="4.64076">
        <ele>475.2</ele>
        <time>2025-12-15T13:09:24Z</time>
      </trkpt>
      <trkpt lat="45.73448" lon="4.64073">
        <ele>475.4</ele>
        <time>2025-12-15T13:09:25Z</time>
      </trkpt>
      <trkpt lat="45.73447" lon="4.64071">
        <ele>475.6</ele>
        <time>2025-12-15T13:09:26Z</time>
      </trkpt>
      <trkpt lat="45.73446" lon="4.64069">
        <ele>475.8</ele>
        <time>2025-12-15T13:09:27Z</time>
      </trkpt>
      <trkpt lat="45.73444" lon="4.64067">
        <ele>476</ele>
        <time>2025-12-15T13:09:28Z</time>
      </trkpt>
      <trkpt lat="45.73443" lon="4.64065">
        <ele>476.2</ele>
        <time>2025-12-15T13:09:29Z</time>
      </trkpt>
      <trkpt lat="45.73442" lon="4.64063">
        <ele>476.4</ele>
        <time>2025-12-15T13:09:30Z</time>
      </trkpt>
      <trkpt lat="45.73441" lon="4.6406">
        <ele>476.6</ele>
        <time>2025-12-15T13:09:31Z</time>
      </trkpt>
      <trkpt lat="45.73439" lon="4.64058">
        <ele>477</ele>
        <time>2025-12-15T13:09:32Z</time>
      </trkpt>
      <trkpt lat="45.73438" lon="4.64056">
        <ele>477.2</ele>
        <time>2025-12-15T13:09:33Z</time>
      </trkpt>
      <trkpt lat="45.73436" lon="4.64055">
        <ele>477.6</ele>
        <time>2025-12-15T13:09:34Z</time>
      </trkpt>
      <trkpt lat="45.73435" lon="4.64053">
        <ele>477.8</ele>
        <time>2025-12-15T13:09:35Z</time>
      </trkpt>
      <trkpt lat="45.73433" lon="4.64052">
        <ele>478</ele>
        <time>2025-12-15T13:09:36Z</time>
      </trkpt>
      <trkpt lat="45.73432" lon="4.6405">
        <ele>478.2</ele>
        <time>2025-12-15T13:09:37Z</time>
      </trkpt>
      <trkpt lat="45.73431" lon="4.64048">
        <ele>478.6</ele>
        <time>2025-12-15T13:09:38Z</time>
      </trkpt>
      <trkpt lat="45.7343" lon="4.64047">
        <ele>478.8</ele>
        <time>2025-12-15T13:09:39Z</time>
      </trkpt>
      <trkpt lat="45.73428" lon="4.64045">
        <ele>479</ele>
        <time>2025-12-15T13:09:40Z</time>
      </trkpt>
      <trkpt lat="45.73426" lon="4.64043">
        <ele>479.4</ele>
        <time>2025-12-15T13:09:41Z</time>
      </trkpt>
      <trkpt lat="45.73424" lon="4.64041">
        <ele>479.6</ele>
        <time>2025-12-15T13:09:42Z</time>
      </trkpt>
      <trkpt lat="45.73423" lon="4.6404">
        <ele>479.8</ele>
        <time>2025-12-15T13:09:43Z</time>
      </trkpt>
      <trkpt lat="45.73423" lon="4.64038">
        <ele>480.2</ele>
        <time>2025-12-15T13:09:44Z</time>
      </trkpt>
      <trkpt lat="45.73422" lon="4.64036">
        <ele>480.4</ele>
        <time>2025-12-15T13:09:45Z</time>
      </trkpt>
      <trkpt lat="45.7342" lon="4.64034">
        <ele>480.8</ele>
        <time>2025-12-15T13:09:46Z</time>
      </trkpt>
      <trkpt lat="45.73419" lon="4.64032">
        <ele>481.2</ele>
        <time>2025-12-15T13:09:47Z</time>
      </trkpt>
      <trkpt lat="45.73418" lon="4.64031">
        <ele>481.4</ele>
        <time>2025-12-15T13:09:48Z</time>
      </trkpt>
      <trkpt lat="45.73417" lon="4.64029">
        <ele>481.8</ele>
        <time>2025-12-15T13:09:49Z</time>
      </trkpt>
      <trkpt lat="45.73416" lon="4.64026">
        <ele>482.2</ele>
        <time>2025-12-15T13:09:50Z</time>
      </trkpt>
      <trkpt lat="45.73415" lon="4.64024">
        <ele>482.6</ele>
        <time>2025-12-15T13:09:51Z</time>
      </trkpt>
      <trkpt lat="45.73414" lon="4.64021">
        <ele>483</ele>
        <time>2025-12-15T13:09:52Z</time>
      </trkpt>
      <trkpt lat="45.73413" lon="4.64018">
        <ele>483.4</ele>
        <time>2025-12-15T13:09:53Z</time>
      </trkpt>
      <trkpt lat="45.73414" lon="4.64016">
        <ele>483.6</ele>
        <time>2025-12-15T13:09:54Z</time>
      </trkpt>
      <trkpt lat="45.73413" lon="4.64014">
        <ele>484</ele>
        <time>2025-12-15T13:09:55Z</time>
      </trkpt>
      <trkpt lat="45.73413" lon="4.64011">
        <ele>484.4</ele>
        <time>2025-12-15T13:09:56Z</time>
      </trkpt>
      <trkpt lat="45.73412" lon="4.64009">
        <ele>484.8</ele>
        <time>2025-12-15T13:09:57Z</time>
      </trkpt>
      <trkpt lat="45.73412" lon="4.64006">
        <ele>485</ele>
        <time>2025-12-15T13:09:58Z</time>
      </trkpt>
      <trkpt lat="45.73411" lon="4.64003">
        <ele>485.4</ele>
        <time>2025-12-15T13:09:59Z</time>
      </trkpt>
      <trkpt lat="45.7341" lon="4.64">
        <ele>485.6</ele>
        <time>2025-12-15T13:10:00Z</time>
      </trkpt>
      <trkpt lat="45.7341" lon="4.63997">
        <ele>485.8</ele>
        <time>2025-12-15T13:10:01Z</time>
      </trkpt>
      <trkpt lat="45.73409" lon="4.63994">
        <ele>486</ele>
        <time>2025-12-15T13:10:02Z</time>
      </trkpt>
      <trkpt lat="45.73408" lon="4.63991">
        <ele>486.2</ele>
        <time>2025-12-15T13:10:03Z</time>
      </trkpt>
      <trkpt lat="45.73406" lon="4.63989">
        <ele>486.4</ele>
        <time>2025-12-15T13:10:04Z</time>
      </trkpt>
      <trkpt lat="45.73405" lon="4.63987">
        <ele>486.6</ele>
        <time>2025-12-15T13:10:05Z</time>
      </trkpt>
      <trkpt lat="45.73404" lon="4.63985">
        <ele>486.8</ele>
        <time>2025-12-15T13:10:06Z</time>
      </trkpt>
      <trkpt lat="45.73403" lon="4.63983">
        <ele>487</ele>
        <time>2025-12-15T13:10:07Z</time>
      </trkpt>
      <trkpt lat="45.73402" lon="4.63981">
        <ele>487.2</ele>
        <time>2025-12-15T13:10:08Z</time>
      </trkpt>
      <trkpt lat="45.73401" lon="4.63979">
        <ele>487.4</ele>
        <time>2025-12-15T13:10:09Z</time>
      </trkpt>
      <trkpt lat="45.734" lon="4.63977">
        <ele>487.4</ele>
        <time>2025-12-15T13:10:10Z</time>
      </trkpt>
      <trkpt lat="45.73399" lon="4.63975">
        <ele>487.6</ele>
        <time>2025-12-15T13:10:11Z</time>
      </trkpt>
      <trkpt lat="45.73398" lon="4.63973">
        <ele>487.8</ele>
        <time>2025-12-15T13:10:12Z</time>
      </trkpt>
      <trkpt lat="45.73397" lon="4.63971">
        <ele>488</ele>
        <time>2025-12-15T13:10:13Z</time>
      </trkpt>
      <trkpt lat="45.73395" lon="4.63969">
        <ele>488.4</ele>
        <time>2025-12-15T13:10:14Z</time>
      </trkpt>
      <trkpt lat="45.73394" lon="4.63967">
        <ele>488.6</ele>
        <time>2025-12-15T13:10:15Z</time>
      </trkpt>
      <trkpt lat="45.73393" lon="4.63965">
        <ele>488.8</ele>
        <time>2025-12-15T13:10:16Z</time>
      </trkpt>
      <trkpt lat="45.73392" lon="4.63963">
        <ele>489</ele>
        <time>2025-12-15T13:10:17Z</time>
      </trkpt>
      <trkpt lat="45.73391" lon="4.63961">
        <ele>489.2</ele>
        <time>2025-12-15T13:10:18Z</time>
      </trkpt>
      <trkpt lat="45.73389" lon="4.63959">
        <ele>489.6</ele>
        <time>2025-12-15T13:10:19Z</time>
      </trkpt>
      <trkpt lat="45.73388" lon="4.63957">
        <ele>489.8</ele>
        <time>2025-12-15T13:10:20Z</time>
      </trkpt>
      <trkpt lat="45.73387" lon="4.63955">
        <ele>490</ele>
        <time>2025-12-15T13:10:21Z</time>
      </trkpt>
      <trkpt lat="45.73386" lon="4.63953">
        <ele>490.4</ele>
        <time>2025-12-15T13:10:22Z</time>
      </trkpt>
      <trkpt lat="45.73385" lon="4.63951">
        <ele>490.6</ele>
        <time>2025-12-15T13:10:23Z</time>
      </trkpt>
      <trkpt lat="45.73384" lon="4.63949">
        <ele>491</ele>
        <time>2025-12-15T13:10:24Z</time>
      </trkpt>
      <trkpt lat="45.73383" lon="4.63947">
        <ele>491.2</ele>
        <time>2025-12-15T13:10:25Z</time>
      </trkpt>
      <trkpt lat="45.73382" lon="4.63945">
        <ele>491.4</ele>
        <time>2025-12-15T13:10:26Z</time>
      </trkpt>
      <trkpt lat="45.73382" lon="4.63942">
        <ele>491.8</ele>
        <time>2025-12-15T13:10:27Z</time>
      </trkpt>
      <trkpt lat="45.73381" lon="4.6394">
        <ele>492.2</ele>
        <time>2025-12-15T13:10:28Z</time>
      </trkpt>
      <trkpt lat="45.7338" lon="4.63938">
        <ele>492.4</ele>
        <time>2025-12-15T13:10:29Z</time>
      </trkpt>
      <trkpt lat="45.73379" lon="4.63936">
        <ele>492.8</ele>
        <time>2025-12-15T13:10:30Z</time>
      </trkpt>
      <trkpt lat="45.73378" lon="4.63934">
        <ele>493</ele>
        <time>2025-12-15T13:10:31Z</time>
      </trkpt>
      <trkpt lat="45.73376" lon="4.63931">
        <ele>493.4</ele>
        <time>2025-12-15T13:10:32Z</time>
      </trkpt>
      <trkpt lat="45.73376" lon="4.63929">
        <ele>493.6</ele>
        <time>2025-12-15T13:10:33Z</time>
      </trkpt>
      <trkpt lat="45.73375" lon="4.63926">
        <ele>493.8</ele>
        <time>2025-12-15T13:10:34Z</time>
      </trkpt>
      <trkpt lat="45.73374" lon="4.63924">
        <ele>494.2</ele>
        <time>2025-12-15T13:10:35Z</time>
      </trkpt>
      <trkpt lat="45.73374" lon="4.63922">
        <ele>494.4</ele>
        <time>2025-12-15T13:10:36Z</time>
      </trkpt>
      <trkpt lat="45.73373" lon="4.63919">
        <ele>494.6</ele>
        <time>2025-12-15T13:10:37Z</time>
      </trkpt>
      <trkpt lat="45.73372" lon="4.63917">
        <ele>495</ele>
        <time>2025-12-15T13:10:38Z</time>
      </trkpt>
      <trkpt lat="45.73371" lon="4.63914">
        <ele>495.2</ele>
        <time>2025-12-15T13:10:39Z</time>
      </trkpt>
      <trkpt lat="45.73371" lon="4.63912">
        <ele>495.4</ele>
        <time>2025-12-15T13:10:40Z</time>
      </trkpt>
      <trkpt lat="45.73371" lon="4.6391">
        <ele>495.8</ele>
        <time>2025-12-15T13:10:41Z</time>
      </trkpt>
      <trkpt lat="45.7337" lon="4.63907">
        <ele>496</ele>
        <time>2025-12-15T13:10:42Z</time>
      </trkpt>
      <trkpt lat="45.73369" lon="4.63904">
        <ele>496.4</ele>
        <time>2025-12-15T13:10:43Z</time>
      </trkpt>
      <trkpt lat="45.73369" lon="4.63902">
        <ele>496.6</ele>
        <time>2025-12-15T13:10:44Z</time>
      </trkpt>
      <trkpt lat="45.73369" lon="4.63899">
        <ele>497</ele>
        <time>2025-12-15T13:10:45Z</time>
      </trkpt>
      <trkpt lat="45.73368" lon="4.63896">
        <ele>497.2</ele>
        <time>2025-12-15T13:10:46Z</time>
      </trkpt>
      <trkpt lat="45.73368" lon="4.63894">
        <ele>497.4</ele>
        <time>2025-12-15T13:10:47Z</time>
      </trkpt>
      <trkpt lat="45.73367" lon="4.63891">
        <ele>497.8</ele>
        <time>2025-12-15T13:10:48Z</time>
      </trkpt>
      <trkpt lat="45.73366" lon="4.63888">
        <ele>498</ele>
        <time>2025-12-15T13:10:49Z</time>
      </trkpt>
      <trkpt lat="45.73366" lon="4.63886">
        <ele>498.2</ele>
        <time>2025-12-15T13:10:50Z</time>
      </trkpt>
      <trkpt lat="45.73366" lon="4.63884">
        <ele>498.6</ele>
        <time>2025-12-15T13:10:51Z</time>
      </trkpt>
      <trkpt lat="45.73366" lon="4.63882">
        <ele>498.8</ele>
        <time>2025-12-15T13:10:52Z</time>
      </trkpt>
      <trkpt lat="45.73365" lon="4.6388">
        <ele>499</ele>
        <time>2025-12-15T13:10:53Z</time>
      </trkpt>
      <trkpt lat="45.73364" lon="4.63878">
        <ele>499.4</ele>
        <time>2025-12-15T13:10:54Z</time>
      </trkpt>
      <trkpt lat="45.73363" lon="4.63876">
        <ele>499.6</ele>
        <time>2025-12-15T13:10:55Z</time>
      </trkpt>
      <trkpt lat="45.73362" lon="4.63873">
        <ele>500</ele>
        <time>2025-12-15T13:10:56Z</time>
      </trkpt>
      <trkpt lat="45.73361" lon="4.63871">
        <ele>500.2</ele>
        <time>2025-12-15T13:10:57Z</time>
      </trkpt>
      <trkpt lat="45.7336" lon="4.63868">
        <ele>500.4</ele>
        <time>2025-12-15T13:10:58Z</time>
      </trkpt>
      <trkpt lat="45.7336" lon="4.63867">
        <ele>500.6</ele>
        <time>2025-12-15T13:10:59Z</time>
      </trkpt>
      <trkpt lat="45.73359" lon="4.63865">
        <ele>500.8</ele>
        <time>2025-12-15T13:11:00Z</time>
      </trkpt>
      <trkpt lat="45.73359" lon="4.63863">
        <ele>501.2</ele>
        <time>2025-12-15T13:11:01Z</time>
      </trkpt>
      <trkpt lat="45.73358" lon="4.6386">
        <ele>501.4</ele>
        <time>2025-12-15T13:11:02Z</time>
      </trkpt>
      <trkpt lat="45.73358" lon="4.63858">
        <ele>501.6</ele>
        <time>2025-12-15T13:11:03Z</time>
      </trkpt>
      <trkpt lat="45.73357" lon="4.63856">
        <ele>502</ele>
        <time>2025-12-15T13:11:04Z</time>
      </trkpt>
      <trkpt lat="45.73357" lon="4.63854">
        <ele>502.2</ele>
        <time>2025-12-15T13:11:05Z</time>
      </trkpt>
      <trkpt lat="45.73357" lon="4.63851">
        <ele>502.6</ele>
        <time>2025-12-15T13:11:06Z</time>
      </trkpt>
      <trkpt lat="45.73357" lon="4.63849">
        <ele>502.8</ele>
        <time>2025-12-15T13:11:07Z</time>
      </trkpt>
      <trkpt lat="45.73356" lon="4.63847">
        <ele>503</ele>
        <time>2025-12-15T13:11:08Z</time>
      </trkpt>
      <trkpt lat="45.73355" lon="4.63845">
        <ele>503.4</ele>
        <time>2025-12-15T13:11:09Z</time>
      </trkpt>
      <trkpt lat="45.73354" lon="4.63843">
        <ele>503.6</ele>
        <time>2025-12-15T13:11:10Z</time>
      </trkpt>
      <trkpt lat="45.73353" lon="4.63841">
        <ele>504</ele>
        <time>2025-12-15T13:11:11Z</time>
      </trkpt>
      <trkpt lat="45.73351" lon="4.63838">
        <ele>504.2</ele>
        <time>2025-12-15T13:11:12Z</time>
      </trkpt>
      <trkpt lat="45.7335" lon="4.63836">
        <ele>504.4</ele>
        <time>2025-12-15T13:11:13Z</time>
      </trkpt>
      <trkpt lat="45.73349" lon="4.63833">
        <ele>504.6</ele>
        <time>2025-12-15T13:11:14Z</time>
      </trkpt>
      <trkpt lat="45.73348" lon="4.6383">
        <ele>504.8</ele>
        <time>2025-12-15T13:11:15Z</time>
      </trkpt>
      <trkpt lat="45.73347" lon="4.63828">
        <ele>505</ele>
        <time>2025-12-15T13:11:16Z</time>
      </trkpt>
      <trkpt lat="45.73346" lon="4.63826">
        <ele>505.2</ele>
        <time>2025-12-15T13:11:17Z</time>
      </trkpt>
      <trkpt lat="45.73348" lon="4.63823">
        <ele>505.6</ele>
        <time>2025-12-15T13:11:18Z</time>
      </trkpt>
      <trkpt lat="45.73347" lon="4.6382">
        <ele>505.8</ele>
        <time>2025-12-15T13:11:19Z</time>
      </trkpt>
      <trkpt lat="45.73345" lon="4.63817">
        <ele>506</ele>
        <time>2025-12-15T13:11:20Z</time>
      </trkpt>
      <trkpt lat="45.73345" lon="4.63813">
        <ele>506.4</ele>
        <time>2025-12-15T13:11:21Z</time>
      </trkpt>
      <trkpt lat="45.73345" lon="4.6381">
        <ele>506.8</ele>
        <time>2025-12-15T13:11:22Z</time>
      </trkpt>
      <trkpt lat="45.73345" lon="4.63808">
        <ele>507</ele>
        <time>2025-12-15T13:11:23Z</time>
      </trkpt>
      <trkpt lat="45.73345" lon="4.63806">
        <ele>507.4</ele>
        <time>2025-12-15T13:11:24Z</time>
      </trkpt>
      <trkpt lat="45.73344" lon="4.63803">
        <ele>507.6</ele>
        <time>2025-12-15T13:11:25Z</time>
      </trkpt>
      <trkpt lat="45.73344" lon="4.63801">
        <ele>508</ele>
        <time>2025-12-15T13:11:26Z</time>
      </trkpt>
      <trkpt lat="45.73343" lon="4.63799">
        <ele>508.2</ele>
        <time>2025-12-15T13:11:27Z</time>
      </trkpt>
      <trkpt lat="45.73341" lon="4.63796">
        <ele>508.4</ele>
        <time>2025-12-15T13:11:28Z</time>
      </trkpt>
      <trkpt lat="45.73339" lon="4.63794">
        <ele>508.6</ele>
        <time>2025-12-15T13:11:29Z</time>
      </trkpt>
      <trkpt lat="45.73338" lon="4.63791">
        <ele>508.8</ele>
        <time>2025-12-15T13:11:30Z</time>
      </trkpt>
      <trkpt lat="45.73336" lon="4.63789">
        <ele>509</ele>
        <time>2025-12-15T13:11:31Z</time>
      </trkpt>
      <trkpt lat="45.73336" lon="4.63786">
        <ele>509.2</ele>
        <time>2025-12-15T13:11:32Z</time>
      </trkpt>
      <trkpt lat="45.73335" lon="4.63783">
        <ele>509.4</ele>
        <time>2025-12-15T13:11:33Z</time>
      </trkpt>
      <trkpt lat="45.73335" lon="4.63781">
        <ele>509.8</ele>
        <time>2025-12-15T13:11:34Z</time>
      </trkpt>
      <trkpt lat="45.73336" lon="4.63778">
        <ele>510</ele>
        <time>2025-12-15T13:11:35Z</time>
      </trkpt>
      <trkpt lat="45.73335" lon="4.63777">
        <ele>510.2</ele>
        <time>2025-12-15T13:11:36Z</time>
      </trkpt>
      <trkpt lat="45.73335" lon="4.63776">
        <ele>510.6</ele>
        <time>2025-12-15T13:11:37Z</time>
      </trkpt>
      <trkpt lat="45.73333" lon="4.63774">
        <ele>510.8</ele>
        <time>2025-12-15T13:11:38Z</time>
      </trkpt>
      <trkpt lat="45.73333" lon="4.63772">
        <ele>511</ele>
        <time>2025-12-15T13:11:39Z</time>
      </trkpt>
      <trkpt lat="45.73332" lon="4.63769">
        <ele>511.2</ele>
        <time>2025-12-15T13:11:40Z</time>
      </trkpt>
      <trkpt lat="45.73333" lon="4.63768">
        <ele>511.4</ele>
        <time>2025-12-15T13:11:41Z</time>
      </trkpt>
      <trkpt lat="45.73333" lon="4.63766">
        <ele>511.6</ele>
        <time>2025-12-15T13:11:42Z</time>
      </trkpt>
      <trkpt lat="45.73333" lon="4.63764">
        <ele>512</ele>
        <time>2025-12-15T13:11:43Z</time>
      </trkpt>
      <trkpt lat="45.73333" lon="4.63762">
        <ele>512.2</ele>
        <time>2025-12-15T13:11:44Z</time>
      </trkpt>
      <trkpt lat="45.73332" lon="4.6376">
        <ele>512.6</ele>
        <time>2025-12-15T13:11:45Z</time>
      </trkpt>
      <trkpt lat="45.73332" lon="4.63757">
        <ele>512.8</ele>
        <time>2025-12-15T13:11:46Z</time>
      </trkpt>
      <trkpt lat="45.73333" lon="4.63755">
        <ele>513.2</ele>
        <time>2025-12-15T13:11:47Z</time>
      </trkpt>
      <trkpt lat="45.73333" lon="4.63753">
        <ele>513.4</ele>
        <time>2025-12-15T13:11:48Z</time>
      </trkpt>
      <trkpt lat="45.73332" lon="4.63751">
        <ele>513.8</ele>
        <time>2025-12-15T13:11:49Z</time>
      </trkpt>
      <trkpt lat="45.73332" lon="4.63749">
        <ele>514</ele>
        <time>2025-12-15T13:11:50Z</time>
      </trkpt>
      <trkpt lat="45.73332" lon="4.63747">
        <ele>514.4</ele>
        <time>2025-12-15T13:11:51Z</time>
      </trkpt>
      <trkpt lat="45.73331" lon="4.63745">
        <ele>514.6</ele>
        <time>2025-12-15T13:11:52Z</time>
      </trkpt>
      <trkpt lat="45.7333" lon="4.63744">
        <ele>515</ele>
        <time>2025-12-15T13:11:53Z</time>
      </trkpt>
      <trkpt lat="45.73331" lon="4.63741">
        <ele>515.2</ele>
        <time>2025-12-15T13:11:54Z</time>
      </trkpt>
      <trkpt lat="45.73331" lon="4.63739">
        <ele>515.6</ele>
        <time>2025-12-15T13:11:55Z</time>
      </trkpt>
      <trkpt lat="45.7333" lon="4.63737">
        <ele>516</ele>
        <time>2025-12-15T13:11:56Z</time>
      </trkpt>
      <trkpt lat="45.73329" lon="4.63735">
        <ele>516.4</ele>
        <time>2025-12-15T13:11:57Z</time>
      </trkpt>
      <trkpt lat="45.73328" lon="4.63732">
        <ele>516.6</ele>
        <time>2025-12-15T13:11:58Z</time>
      </trkpt>
      <trkpt lat="45.73328" lon="4.63729">
        <ele>517</ele>
        <time>2025-12-15T13:11:59Z</time>
      </trkpt>
      <trkpt lat="45.73327" lon="4.63727">
        <ele>517.2</ele>
        <time>2025-12-15T13:12:00Z</time>
      </trkpt>
      <trkpt lat="45.73326" lon="4.63724">
        <ele>517.6</ele>
        <time>2025-12-15T13:12:01Z</time>
      </trkpt>
      <trkpt lat="45.73325" lon="4.63721">
        <ele>517.8</ele>
        <time>2025-12-15T13:12:02Z</time>
      </trkpt>
      <trkpt lat="45.73325" lon="4.63718">
        <ele>518</ele>
        <time>2025-12-15T13:12:03Z</time>
      </trkpt>
      <trkpt lat="45.73324" lon="4.63714">
        <ele>518</ele>
        <time>2025-12-15T13:12:04Z</time>
      </trkpt>
      <trkpt lat="45.73324" lon="4.63712">
        <ele>518.2</ele>
        <time>2025-12-15T13:12:05Z</time>
      </trkpt>
      <trkpt lat="45.73323" lon="4.63709">
        <ele>518.4</ele>
        <time>2025-12-15T13:12:06Z</time>
      </trkpt>
      <trkpt lat="45.73322" lon="4.63707">
        <ele>518.6</ele>
        <time>2025-12-15T13:12:07Z</time>
      </trkpt>
      <trkpt lat="45.73322" lon="4.63704">
        <ele>518.8</ele>
        <time>2025-12-15T13:12:08Z</time>
      </trkpt>
      <trkpt lat="45.73321" lon="4.63702">
        <ele>519</ele>
        <time>2025-12-15T13:12:09Z</time>
      </trkpt>
      <trkpt lat="45.73319" lon="4.637">
        <ele>519.2</ele>
        <time>2025-12-15T13:12:10Z</time>
      </trkpt>
      <trkpt lat="45.73318" lon="4.63697">
        <ele>519.6</ele>
        <time>2025-12-15T13:12:11Z</time>
      </trkpt>
      <trkpt lat="45.73316" lon="4.63694">
        <ele>519.8</ele>
        <time>2025-12-15T13:12:12Z</time>
      </trkpt>
      <trkpt lat="45.73315" lon="4.63692">
        <ele>520.2</ele>
        <time>2025-12-15T13:12:13Z</time>
      </trkpt>
      <trkpt lat="45.73315" lon="4.63689">
        <ele>520.4</ele>
        <time>2025-12-15T13:12:14Z</time>
      </trkpt>
      <trkpt lat="45.73314" lon="4.63686">
        <ele>520.8</ele>
        <time>2025-12-15T13:12:15Z</time>
      </trkpt>
      <trkpt lat="45.73314" lon="4.63682">
        <ele>521.2</ele>
        <time>2025-12-15T13:12:16Z</time>
      </trkpt>
      <trkpt lat="45.73313" lon="4.63679">
        <ele>521.4</ele>
        <time>2025-12-15T13:12:17Z</time>
      </trkpt>
      <trkpt lat="45.73312" lon="4.63676">
        <ele>521.8</ele>
        <time>2025-12-15T13:12:18Z</time>
      </trkpt>
      <trkpt lat="45.73312" lon="4.63673">
        <ele>522</ele>
        <time>2025-12-15T13:12:19Z</time>
      </trkpt>
      <trkpt lat="45.73312" lon="4.6367">
        <ele>522.2</ele>
        <time>2025-12-15T13:12:20Z</time>
      </trkpt>
      <trkpt lat="45.73311" lon="4.63668">
        <ele>522.6</ele>
        <time>2025-12-15T13:12:21Z</time>
      </trkpt>
      <trkpt lat="45.73311" lon="4.63665">
        <ele>522.8</ele>
        <time>2025-12-15T13:12:22Z</time>
      </trkpt>
      <trkpt lat="45.7331" lon="4.63662">
        <ele>523.2</ele>
        <time>2025-12-15T13:12:23Z</time>
      </trkpt>
      <trkpt lat="45.73309" lon="4.63659">
        <ele>523.4</ele>
        <time>2025-12-15T13:12:24Z</time>
      </trkpt>
      <trkpt lat="45.73308" lon="4.63655">
        <ele>523.6</ele>
        <time>2025-12-15T13:12:25Z</time>
      </trkpt>
      <trkpt lat="45.73309" lon="4.63652">
        <ele>523.8</ele>
        <time>2025-12-15T13:12:26Z</time>
      </trkpt>
      <trkpt lat="45.73311" lon="4.63647">
        <ele>524</ele>
        <time>2025-12-15T13:12:27Z</time>
      </trkpt>
      <trkpt lat="45.73313" lon="4.63643">
        <ele>524.2</ele>
        <time>2025-12-15T13:12:28Z</time>
      </trkpt>
      <trkpt lat="45.73313" lon="4.63639">
        <ele>524.4</ele>
        <time>2025-12-15T13:12:29Z</time>
      </trkpt>
      <trkpt lat="45.73313" lon="4.63635">
        <ele>524.6</ele>
        <time>2025-12-15T13:12:30Z</time>
      </trkpt>
      <trkpt lat="45.73313" lon="4.63631">
        <ele>524.8</ele>
        <time>2025-12-15T13:12:31Z</time>
      </trkpt>
      <trkpt lat="45.73312" lon="4.63627">
        <ele>525</ele>
        <time>2025-12-15T13:12:32Z</time>
      </trkpt>
      <trkpt lat="45.73311" lon="4.63624">
        <ele>525</ele>
        <time>2025-12-15T13:12:33Z</time>
      </trkpt>
      <trkpt lat="45.73311" lon="4.6362">
        <ele>525.2</ele>
        <time>2025-12-15T13:12:34Z</time>
      </trkpt>
      <trkpt lat="45.73311" lon="4.63615">
        <ele>525.2</ele>
        <time>2025-12-15T13:12:35Z</time>
      </trkpt>
      <trkpt lat="45.73311" lon="4.63611">
        <ele>525.2</ele>
        <time>2025-12-15T13:12:36Z</time>
      </trkpt>
      <trkpt lat="45.73309" lon="4.63608">
        <ele>525.4</ele>
        <time>2025-12-15T13:12:37Z</time>
      </trkpt>
      <trkpt lat="45.73309" lon="4.63604">
        <ele>525.4</ele>
        <time>2025-12-15T13:12:38Z</time>
      </trkpt>
      <trkpt lat="45.73308" lon="4.63601">
        <ele>525.6</ele>
        <time>2025-12-15T13:12:39Z</time>
      </trkpt>
      <trkpt lat="45.73308" lon="4.63598">
        <ele>525.8</ele>
        <time>2025-12-15T13:12:40Z</time>
      </trkpt>
      <trkpt lat="45.73307" lon="4.63595">
        <ele>525.8</ele>
        <time>2025-12-15T13:12:41Z</time>
      </trkpt>
      <trkpt lat="45.73306" lon="4.63592">
        <ele>526</ele>
        <time>2025-12-15T13:12:42Z</time>
      </trkpt>
      <trkpt lat="45.73305" lon="4.63589">
        <ele>526</ele>
        <time>2025-12-15T13:12:43Z</time>
      </trkpt>
      <trkpt lat="45.73305" lon="4.63585">
        <ele>526.2</ele>
        <time>2025-12-15T13:12:44Z</time>
      </trkpt>
      <trkpt lat="45.73305" lon="4.63581">
        <ele>526.2</ele>
        <time>2025-12-15T13:12:45Z</time>
      </trkpt>
      <trkpt lat="45.73305" lon="4.63578">
        <ele>526.4</ele>
        <time>2025-12-15T13:12:46Z</time>
      </trkpt>
      <trkpt lat="45.73305" lon="4.63574">
        <ele>526.6</ele>
        <time>2025-12-15T13:12:47Z</time>
      </trkpt>
      <trkpt lat="45.73305" lon="4.63571">
        <ele>526.6</ele>
        <time>2025-12-15T13:12:48Z</time>
      </trkpt>
      <trkpt lat="45.73305" lon="4.63568">
        <ele>526.8</ele>
        <time>2025-12-15T13:12:49Z</time>
      </trkpt>
      <trkpt lat="45.73305" lon="4.63564">
        <ele>527.2</ele>
        <time>2025-12-15T13:12:50Z</time>
      </trkpt>
      <trkpt lat="45.73304" lon="4.63561">
        <ele>527.4</ele>
        <time>2025-12-15T13:12:51Z</time>
      </trkpt>
      <trkpt lat="45.73302" lon="4.63559">
        <ele>527.6</ele>
        <time>2025-12-15T13:12:52Z</time>
      </trkpt>
      <trkpt lat="45.733" lon="4.63556">
        <ele>527.8</ele>
        <time>2025-12-15T13:12:53Z</time>
      </trkpt>
      <trkpt lat="45.73299" lon="4.63552">
        <ele>528</ele>
        <time>2025-12-15T13:12:54Z</time>
      </trkpt>
      <trkpt lat="45.73299" lon="4.63549">
        <ele>528.2</ele>
        <time>2025-12-15T13:12:55Z</time>
      </trkpt>
      <trkpt lat="45.73299" lon="4.63545">
        <ele>528.4</ele>
        <time>2025-12-15T13:12:56Z</time>
      </trkpt>
      <trkpt lat="45.73298" lon="4.63542">
        <ele>528.8</ele>
        <time>2025-12-15T13:12:57Z</time>
      </trkpt>
      <trkpt lat="45.73298" lon="4.63538">
        <ele>529</ele>
        <time>2025-12-15T13:12:58Z</time>
      </trkpt>
      <trkpt lat="45.73297" lon="4.63535">
        <ele>529.2</ele>
        <time>2025-12-15T13:12:59Z</time>
      </trkpt>
      <trkpt lat="45.73298" lon="4.63532">
        <ele>529.6</ele>
        <time>2025-12-15T13:13:00Z</time>
      </trkpt>
      <trkpt lat="45.73298" lon="4.63528">
        <ele>529.8</ele>
        <time>2025-12-15T13:13:01Z</time>
      </trkpt>
      <trkpt lat="45.73298" lon="4.63525">
        <ele>530</ele>
        <time>2025-12-15T13:13:02Z</time>
      </trkpt>
      <trkpt lat="45.73297" lon="4.63521">
        <ele>530.2</ele>
        <time>2025-12-15T13:13:03Z</time>
      </trkpt>
      <trkpt lat="45.73297" lon="4.63519">
        <ele>530.6</ele>
        <time>2025-12-15T13:13:04Z</time>
      </trkpt>
      <trkpt lat="45.73296" lon="4.63516">
        <ele>530.8</ele>
        <time>2025-12-15T13:13:05Z</time>
      </trkpt>
      <trkpt lat="45.73295" lon="4.63512">
        <ele>531.2</ele>
        <time>2025-12-15T13:13:06Z</time>
      </trkpt>
      <trkpt lat="45.73294" lon="4.6351">
        <ele>531.6</ele>
        <time>2025-12-15T13:13:07Z</time>
      </trkpt>
      <trkpt lat="45.73293" lon="4.63506">
        <ele>532</ele>
        <time>2025-12-15T13:13:08Z</time>
      </trkpt>
      <trkpt lat="45.73291" lon="4.63502">
        <ele>532.2</ele>
        <time>2025-12-15T13:13:09Z</time>
      </trkpt>
      <trkpt lat="45.73291" lon="4.63498">
        <ele>532.6</ele>
        <time>2025-12-15T13:13:10Z</time>
      </trkpt>
      <trkpt lat="45.73292" lon="4.63494">
        <ele>533</ele>
        <time>2025-12-15T13:13:11Z</time>
      </trkpt>
      <trkpt lat="45.73294" lon="4.63491">
        <ele>533.4</ele>
        <time>2025-12-15T13:13:12Z</time>
      </trkpt>
      <trkpt lat="45.73295" lon="4.63488">
        <ele>534</ele>
        <time>2025-12-15T13:13:13Z</time>
      </trkpt>
      <trkpt lat="45.73296" lon="4.63484">
        <ele>534.4</ele>
        <time>2025-12-15T13:13:14Z</time>
      </trkpt>
      <trkpt lat="45.73296" lon="4.63481">
        <ele>534.8</ele>
        <time>2025-12-15T13:13:15Z</time>
      </trkpt>
      <trkpt lat="45.73296" lon="4.63478">
        <ele>535.2</ele>
        <time>2025-12-15T13:13:16Z</time>
      </trkpt>
      <trkpt lat="45.73296" lon="4.63475">
        <ele>535.4</ele>
        <time>2025-12-15T13:13:17Z</time>
      </trkpt>
      <trkpt lat="45.73296" lon="4.63472">
        <ele>535.8</ele>
        <time>2025-12-15T13:13:18Z</time>
      </trkpt>
      <trkpt lat="45.73295" lon="4.63469">
        <ele>536</ele>
        <time>2025-12-15T13:13:19Z</time>
      </trkpt>
      <trkpt lat="45.73294" lon="4.63465">
        <ele>536.4</ele>
        <time>2025-12-15T13:13:20Z</time>
      </trkpt>
      <trkpt lat="45.73294" lon="4.63462">
        <ele>536.8</ele>
        <time>2025-12-15T13:13:21Z</time>
      </trkpt>
      <trkpt lat="45.73294" lon="4.63459">
        <ele>537</ele>
        <time>2025-12-15T13:13:22Z</time>
      </trkpt>
      <trkpt lat="45.73294" lon="4.63456">
        <ele>537.4</ele>
        <time>2025-12-15T13:13:23Z</time>
      </trkpt>
      <trkpt lat="45.73293" lon="4.63453">
        <ele>537.6</ele>
        <time>2025-12-15T13:13:24Z</time>
      </trkpt>
      <trkpt lat="45.73292" lon="4.6345">
        <ele>537.8</ele>
        <time>2025-12-15T13:13:25Z</time>
      </trkpt>
      <trkpt lat="45.73292" lon="4.63446">
        <ele>538.2</ele>
        <time>2025-12-15T13:13:26Z</time>
      </trkpt>
      <trkpt lat="45.73292" lon="4.63443">
        <ele>538.4</ele>
        <time>2025-12-15T13:13:27Z</time>
      </trkpt>
      <trkpt lat="45.73293" lon="4.6344">
        <ele>538.6</ele>
        <time>2025-12-15T13:13:28Z</time>
      </trkpt>
      <trkpt lat="45.73293" lon="4.63436">
        <ele>538.8</ele>
        <time>2025-12-15T13:13:29Z</time>
      </trkpt>
      <trkpt lat="45.73293" lon="4.63433">
        <ele>539</ele>
        <time>2025-12-15T13:13:30Z</time>
      </trkpt>
      <trkpt lat="45.73293" lon="4.63429">
        <ele>539.2</ele>
        <time>2025-12-15T13:13:31Z</time>
      </trkpt>
      <trkpt lat="45.73293" lon="4.63426">
        <ele>539.2</ele>
        <time>2025-12-15T13:13:32Z</time>
      </trkpt>
      <trkpt lat="45.73293" lon="4.63422">
        <ele>539.4</ele>
        <time>2025-12-15T13:13:33Z</time>
      </trkpt>
      <trkpt lat="45.73293" lon="4.63418">
        <ele>539.6</ele>
        <time>2025-12-15T13:13:34Z</time>
      </trkpt>
      <trkpt lat="45.73293" lon="4.63415">
        <ele>539.6</ele>
        <time>2025-12-15T13:13:35Z</time>
      </trkpt>
      <trkpt lat="45.73292" lon="4.63411">
        <ele>539.8</ele>
        <time>2025-12-15T13:13:36Z</time>
      </trkpt>
      <trkpt lat="45.73291" lon="4.63407">
        <ele>540</ele>
        <time>2025-12-15T13:13:37Z</time>
      </trkpt>
      <trkpt lat="45.7329" lon="4.63403">
        <ele>540</ele>
        <time>2025-12-15T13:13:38Z</time>
      </trkpt>
      <trkpt lat="45.73288" lon="4.634">
        <ele>540.2</ele>
        <time>2025-12-15T13:13:39Z</time>
      </trkpt>
      <trkpt lat="45.73287" lon="4.63398">
        <ele>540.4</ele>
        <time>2025-12-15T13:13:40Z</time>
      </trkpt>
      <trkpt lat="45.73286" lon="4.63395">
        <ele>540.6</ele>
        <time>2025-12-15T13:13:41Z</time>
      </trkpt>
      <trkpt lat="45.73285" lon="4.63391">
        <ele>540.8</ele>
        <time>2025-12-15T13:13:42Z</time>
      </trkpt>
      <trkpt lat="45.73285" lon="4.63387">
        <ele>541</ele>
        <time>2025-12-15T13:13:43Z</time>
      </trkpt>
      <trkpt lat="45.73284" lon="4.63384">
        <ele>541</ele>
        <time>2025-12-15T13:13:44Z</time>
      </trkpt>
      <trkpt lat="45.73282" lon="4.63382">
        <ele>541.2</ele>
        <time>2025-12-15T13:13:45Z</time>
      </trkpt>
      <trkpt lat="45.73281" lon="4.63379">
        <ele>541.4</ele>
        <time>2025-12-15T13:13:46Z</time>
      </trkpt>
      <trkpt lat="45.7328" lon="4.63376">
        <ele>541.6</ele>
        <time>2025-12-15T13:13:47Z</time>
      </trkpt>
      <trkpt lat="45.7328" lon="4.63374">
        <ele>541.8</ele>
        <time>2025-12-15T13:13:48Z</time>
      </trkpt>
      <trkpt lat="45.7328" lon="4.63371">
        <ele>542.2</ele>
        <time>2025-12-15T13:13:49Z</time>
      </trkpt>
      <trkpt lat="45.7328" lon="4.63368">
        <ele>542.4</ele>
        <time>2025-12-15T13:13:50Z</time>
      </trkpt>
      <trkpt lat="45.73279" lon="4.63364">
        <ele>542.8</ele>
        <time>2025-12-15T13:13:51Z</time>
      </trkpt>
      <trkpt lat="45.73279" lon="4.63361">
        <ele>543.2</ele>
        <time>2025-12-15T13:13:52Z</time>
      </trkpt>
      <trkpt lat="45.73278" lon="4.63358">
        <ele>543.4</ele>
        <time>2025-12-15T13:13:53Z</time>
      </trkpt>
      <trkpt lat="45.73277" lon="4.63355">
        <ele>543.6</ele>
        <time>2025-12-15T13:13:54Z</time>
      </trkpt>
      <trkpt lat="45.7328" lon="4.63352">
        <ele>544</ele>
        <time>2025-12-15T13:13:55Z</time>
      </trkpt>
      <trkpt lat="45.73281" lon="4.63349">
        <ele>544.2</ele>
        <time>2025-12-15T13:13:56Z</time>
      </trkpt>
      <trkpt lat="45.7328" lon="4.63347">
        <ele>544.6</ele>
        <time>2025-12-15T13:13:57Z</time>
      </trkpt>
      <trkpt lat="45.7328" lon="4.63343">
        <ele>544.8</ele>
        <time>2025-12-15T13:13:58Z</time>
      </trkpt>
      <trkpt lat="45.7328" lon="4.6334">
        <ele>545.2</ele>
        <time>2025-12-15T13:13:59Z</time>
      </trkpt>
      <trkpt lat="45.73279" lon="4.63337">
        <ele>545.6</ele>
        <time>2025-12-15T13:14:00Z</time>
      </trkpt>
      <trkpt lat="45.73278" lon="4.63334">
        <ele>546</ele>
        <time>2025-12-15T13:14:01Z</time>
      </trkpt>
      <trkpt lat="45.73277" lon="4.63331">
        <ele>546.4</ele>
        <time>2025-12-15T13:14:02Z</time>
      </trkpt>
      <trkpt lat="45.73277" lon="4.63328">
        <ele>546.8</ele>
        <time>2025-12-15T13:14:03Z</time>
      </trkpt>
      <trkpt lat="45.73277" lon="4.63325">
        <ele>547</ele>
        <time>2025-12-15T13:14:04Z</time>
      </trkpt>
      <trkpt lat="45.73277" lon="4.63323">
        <ele>547.4</ele>
        <time>2025-12-15T13:14:05Z</time>
      </trkpt>
      <trkpt lat="45.73277" lon="4.6332">
        <ele>547.8</ele>
        <time>2025-12-15T13:14:06Z</time>
      </trkpt>
      <trkpt lat="45.73277" lon="4.63317">
        <ele>548.2</ele>
        <time>2025-12-15T13:14:07Z</time>
      </trkpt>
      <trkpt lat="45.73276" lon="4.63315">
        <ele>548.6</ele>
        <time>2025-12-15T13:14:08Z</time>
      </trkpt>
      <trkpt lat="45.73275" lon="4.63312">
        <ele>548.8</ele>
        <time>2025-12-15T13:14:09Z</time>
      </trkpt>
      <trkpt lat="45.73274" lon="4.63309">
        <ele>549.2</ele>
        <time>2025-12-15T13:14:10Z</time>
      </trkpt>
      <trkpt lat="45.73275" lon="4.63307">
        <ele>549.6</ele>
        <time>2025-12-15T13:14:11Z</time>
      </trkpt>
      <trkpt lat="45.73275" lon="4.63304">
        <ele>550</ele>
        <time>2025-12-15T13:14:12Z</time>
      </trkpt>
      <trkpt lat="45.73276" lon="4.63299">
        <ele>550.2</ele>
        <time>2025-12-15T13:14:13Z</time>
      </trkpt>
      <trkpt lat="45.73278" lon="4.63295">
        <ele>550.6</ele>
        <time>2025-12-15T13:14:14Z</time>
      </trkpt>
      <trkpt lat="45.73278" lon="4.63291">
        <ele>550.8</ele>
        <time>2025-12-15T13:14:15Z</time>
      </trkpt>
      <trkpt lat="45.73278" lon="4.63288">
        <ele>551.2</ele>
        <time>2025-12-15T13:14:16Z</time>
      </trkpt>
      <trkpt lat="45.73279" lon="4.63283">
        <ele>551.6</ele>
        <time>2025-12-15T13:14:17Z</time>
      </trkpt>
      <trkpt lat="45.73279" lon="4.63281">
        <ele>551.8</ele>
        <time>2025-12-15T13:14:18Z</time>
      </trkpt>
      <trkpt lat="45.73279" lon="4.6328">
        <ele>552</ele>
        <time>2025-12-15T13:14:19Z</time>
      </trkpt>
      <trkpt lat="45.73278" lon="4.6328">
        <ele>552.4</ele>
        <time>2025-12-15T13:14:20Z</time>
      </trkpt>
      <trkpt lat="45.73279" lon="4.63277">
        <ele>552.6</ele>
        <time>2025-12-15T13:14:21Z</time>
      </trkpt>
      <trkpt lat="45.73279" lon="4.63275">
        <ele>552.8</ele>
        <time>2025-12-15T13:14:22Z</time>
      </trkpt>
      <trkpt lat="45.7328" lon="4.63272">
        <ele>553</ele>
        <time>2025-12-15T13:14:23Z</time>
      </trkpt>
      <trkpt lat="45.73281" lon="4.6327">
        <ele>553</ele>
        <time>2025-12-15T13:14:24Z</time>
      </trkpt>
      <trkpt lat="45.73282" lon="4.63269">
        <ele>553.2</ele>
        <time>2025-12-15T13:14:25Z</time>
      </trkpt>
      <trkpt lat="45.73283" lon="4.63268">
        <ele>553.4</ele>
        <time>2025-12-15T13:14:26Z</time>
      </trkpt>
      <trkpt lat="45.73284" lon="4.63266">
        <ele>553.6</ele>
        <time>2025-12-15T13:14:27Z</time>
      </trkpt>
      <trkpt lat="45.73285" lon="4.63265">
        <ele>553.8</ele>
        <time>2025-12-15T13:14:28Z</time>
      </trkpt>
      <trkpt lat="45.73286" lon="4.63264">
        <ele>554</ele>
        <time>2025-12-15T13:14:29Z</time>
      </trkpt>
      <trkpt lat="45.73288" lon="4.63263">
        <ele>554.2</ele>
        <time>2025-12-15T13:14:30Z</time>
      </trkpt>
      <trkpt lat="45.7329" lon="4.63262">
        <ele>554.6</ele>
        <time>2025-12-15T13:14:31Z</time>
      </trkpt>
      <trkpt lat="45.73292" lon="4.63261">
        <ele>554.8</ele>
        <time>2025-12-15T13:14:32Z</time>
      </trkpt>
      <trkpt lat="45.73294" lon="4.6326">
        <ele>555</ele>
        <time>2025-12-15T13:14:33Z</time>
      </trkpt>
      <trkpt lat="45.73296" lon="4.63259">
        <ele>555.2</ele>
        <time>2025-12-15T13:14:34Z</time>
      </trkpt>
      <trkpt lat="45.73298" lon="4.63258">
        <ele>555.6</ele>
        <time>2025-12-15T13:14:35Z</time>
      </trkpt>
      <trkpt lat="45.73299" lon="4.63258">
        <ele>555.8</ele>
        <time>2025-12-15T13:14:36Z</time>
      </trkpt>
      <trkpt lat="45.73301" lon="4.63257">
        <ele>556</ele>
        <time>2025-12-15T13:14:37Z</time>
      </trkpt>
      <trkpt lat="45.73302" lon="4.63256">
        <ele>556.4</ele>
        <time>2025-12-15T13:14:38Z</time>
      </trkpt>
      <trkpt lat="45.73304" lon="4.63255">
        <ele>556.8</ele>
        <time>2025-12-15T13:14:39Z</time>
      </trkpt>
      <trkpt lat="45.73306" lon="4.63255">
        <ele>557</ele>
        <time>2025-12-15T13:14:40Z</time>
      </trkpt>
      <trkpt lat="45.73308" lon="4.63255">
        <ele>557.4</ele>
        <time>2025-12-15T13:14:41Z</time>
      </trkpt>
      <trkpt lat="45.7331" lon="4.63255">
        <ele>557.8</ele>
        <time>2025-12-15T13:14:42Z</time>
      </trkpt>
      <trkpt lat="45.73312" lon="4.63255">
        <ele>558.2</ele>
        <time>2025-12-15T13:14:43Z</time>
      </trkpt>
      <trkpt lat="45.73313" lon="4.63255">
        <ele>558.4</ele>
        <time>2025-12-15T13:14:44Z</time>
      </trkpt>
      <trkpt lat="45.73315" lon="4.63255">
        <ele>558.8</ele>
        <time>2025-12-15T13:14:45Z</time>
      </trkpt>
      <trkpt lat="45.73316" lon="4.63255">
        <ele>559.2</ele>
        <time>2025-12-15T13:14:46Z</time>
      </trkpt>
      <trkpt lat="45.73318" lon="4.63255">
        <ele>559.6</ele>
        <time>2025-12-15T13:14:47Z</time>
      </trkpt>
      <trkpt lat="45.7332" lon="4.63255">
        <ele>559.8</ele>
        <time>2025-12-15T13:14:48Z</time>
      </trkpt>
      <trkpt lat="45.73321" lon="4.63256">
        <ele>560.2</ele>
        <time>2025-12-15T13:14:49Z</time>
      </trkpt>
      <trkpt lat="45.73323" lon="4.63256">
        <ele>560.6</ele>
        <time>2025-12-15T13:14:50Z</time>
      </trkpt>
      <trkpt lat="45.73325" lon="4.63257">
        <ele>561</ele>
        <time>2025-12-15T13:14:51Z</time>
      </trkpt>
      <trkpt lat="45.73326" lon="4.63258">
        <ele>561.4</ele>
        <time>2025-12-15T13:14:52Z</time>
      </trkpt>
      <trkpt lat="45.73328" lon="4.63259">
        <ele>561.8</ele>
        <time>2025-12-15T13:14:53Z</time>
      </trkpt>
      <trkpt lat="45.7333" lon="4.6326">
        <ele>562.2</ele>
        <time>2025-12-15T13:14:54Z</time>
      </trkpt>
      <trkpt lat="45.73333" lon="4.6326">
        <ele>562.4</ele>
        <time>2025-12-15T13:14:55Z</time>
      </trkpt>
      <trkpt lat="45.73335" lon="4.63259">
        <ele>562.8</ele>
        <time>2025-12-15T13:14:56Z</time>
      </trkpt>
      <trkpt lat="45.73337" lon="4.63257">
        <ele>563</ele>
        <time>2025-12-15T13:14:57Z</time>
      </trkpt>
      <trkpt lat="45.73338" lon="4.63257">
        <ele>563.4</ele>
        <time>2025-12-15T13:14:58Z</time>
      </trkpt>
      <trkpt lat="45.73339" lon="4.63257">
        <ele>563.8</ele>
        <time>2025-12-15T13:14:59Z</time>
      </trkpt>
      <trkpt lat="45.73341" lon="4.63257">
        <ele>564</ele>
        <time>2025-12-15T13:15:00Z</time>
      </trkpt>
      <trkpt lat="45.73342" lon="4.63256">
        <ele>564.2</ele>
        <time>2025-12-15T13:15:01Z</time>
      </trkpt>
      <trkpt lat="45.73344" lon="4.63254">
        <ele>564.6</ele>
        <time>2025-12-15T13:15:02Z</time>
      </trkpt>
      <trkpt lat="45.73345" lon="4.63253">
        <ele>564.8</ele>
        <time>2025-12-15T13:15:03Z</time>
      </trkpt>
      <trkpt lat="45.73346" lon="4.63251">
        <ele>565</ele>
        <time>2025-12-15T13:15:04Z</time>
      </trkpt>
      <trkpt lat="45.73347" lon="4.63249">
        <ele>565.4</ele>
        <time>2025-12-15T13:15:05Z</time>
      </trkpt>
      <trkpt lat="45.73349" lon="4.63246">
        <ele>565.6</ele>
        <time>2025-12-15T13:15:06Z</time>
      </trkpt>
      <trkpt lat="45.7335" lon="4.63244">
        <ele>565.8</ele>
        <time>2025-12-15T13:15:07Z</time>
      </trkpt>
      <trkpt lat="45.73351" lon="4.63242">
        <ele>566.2</ele>
        <time>2025-12-15T13:15:08Z</time>
      </trkpt>
      <trkpt lat="45.73352" lon="4.6324">
        <ele>566.6</ele>
        <time>2025-12-15T13:15:09Z</time>
      </trkpt>
      <trkpt lat="45.73353" lon="4.63237">
        <ele>566.8</ele>
        <time>2025-12-15T13:15:10Z</time>
      </trkpt>
      <trkpt lat="45.73353" lon="4.63235">
        <ele>567.2</ele>
        <time>2025-12-15T13:15:11Z</time>
      </trkpt>
      <trkpt lat="45.73354" lon="4.63232">
        <ele>567.6</ele>
        <time>2025-12-15T13:15:12Z</time>
      </trkpt>
      <trkpt lat="45.73354" lon="4.6323">
        <ele>568</ele>
        <time>2025-12-15T13:15:13Z</time>
      </trkpt>
      <trkpt lat="45.73354" lon="4.63228">
        <ele>568.4</ele>
        <time>2025-12-15T13:15:14Z</time>
      </trkpt>
      <trkpt lat="45.73353" lon="4.63225">
        <ele>568.8</ele>
        <time>2025-12-15T13:15:15Z</time>
      </trkpt>
      <trkpt lat="45.73353" lon="4.63223">
        <ele>569.2</ele>
        <time>2025-12-15T13:15:16Z</time>
      </trkpt>
      <trkpt lat="45.73352" lon="4.63222">
        <ele>569.6</ele>
        <time>2025-12-15T13:15:17Z</time>
      </trkpt>
      <trkpt lat="45.73351" lon="4.6322">
        <ele>569.8</ele>
        <time>2025-12-15T13:15:18Z</time>
      </trkpt>
      <trkpt lat="45.7335" lon="4.63219">
        <ele>570.2</ele>
        <time>2025-12-15T13:15:19Z</time>
      </trkpt>
      <trkpt lat="45.73349" lon="4.63217">
        <ele>570.6</ele>
        <time>2025-12-15T13:15:20Z</time>
      </trkpt>
      <trkpt lat="45.73348" lon="4.63216">
        <ele>570.8</ele>
        <time>2025-12-15T13:15:21Z</time>
      </trkpt>
      <trkpt lat="45.73347" lon="4.63214">
        <ele>571.2</ele>
        <time>2025-12-15T13:15:22Z</time>
      </trkpt>
      <trkpt lat="45.73345" lon="4.63212">
        <ele>571.6</ele>
        <time>2025-12-15T13:15:23Z</time>
      </trkpt>
      <trkpt lat="45.73344" lon="4.6321">
        <ele>571.8</ele>
        <time>2025-12-15T13:15:24Z</time>
      </trkpt>
      <trkpt lat="45.73343" lon="4.63208">
        <ele>572.2</ele>
        <time>2025-12-15T13:15:25Z</time>
      </trkpt>
      <trkpt lat="45.73342" lon="4.63206">
        <ele>572.4</ele>
        <time>2025-12-15T13:15:26Z</time>
      </trkpt>
      <trkpt lat="45.73341" lon="4.63205">
        <ele>572.8</ele>
        <time>2025-12-15T13:15:27Z</time>
      </trkpt>
      <trkpt lat="45.7334" lon="4.63204">
        <ele>573</ele>
        <time>2025-12-15T13:15:28Z</time>
      </trkpt>
      <trkpt lat="45.7334" lon="4.63202">
        <ele>573.2</ele>
        <time>2025-12-15T13:15:29Z</time>
      </trkpt>
      <trkpt lat="45.73339" lon="4.632">
        <ele>573.4</ele>
        <time>2025-12-15T13:15:30Z</time>
      </trkpt>
      <trkpt lat="45.73338" lon="4.63198">
        <ele>573.6</ele>
        <time>2025-12-15T13:15:31Z</time>
      </trkpt>
      <trkpt lat="45.73337" lon="4.63196">
        <ele>573.8</ele>
        <time>2025-12-15T13:15:32Z</time>
      </trkpt>
      <trkpt lat="45.73336" lon="4.63194">
        <ele>574</ele>
        <time>2025-12-15T13:15:33Z</time>
      </trkpt>
      <trkpt lat="45.73335" lon="4.63192">
        <ele>574.4</ele>
        <time>2025-12-15T13:15:34Z</time>
      </trkpt>
      <trkpt lat="45.73334" lon="4.6319">
        <ele>574.6</ele>
        <time>2025-12-15T13:15:35Z</time>
      </trkpt>
      <trkpt lat="45.73333" lon="4.63188">
        <ele>574.8</ele>
        <time>2025-12-15T13:15:36Z</time>
      </trkpt>
      <trkpt lat="45.73332" lon="4.63185">
        <ele>575.2</ele>
        <time>2025-12-15T13:15:37Z</time>
      </trkpt>
      <trkpt lat="45.73332" lon="4.63183">
        <ele>575.4</ele>
        <time>2025-12-15T13:15:38Z</time>
      </trkpt>
      <trkpt lat="45.73332" lon="4.63182">
        <ele>575.6</ele>
        <time>2025-12-15T13:15:39Z</time>
      </trkpt>
      <trkpt lat="45.73331" lon="4.63181">
        <ele>575.8</ele>
        <time>2025-12-15T13:15:40Z</time>
      </trkpt>
      <trkpt lat="45.73331" lon="4.63179">
        <ele>576.2</ele>
        <time>2025-12-15T13:15:41Z</time>
      </trkpt>
      <trkpt lat="45.73329" lon="4.63178">
        <ele>576.4</ele>
        <time>2025-12-15T13:15:42Z</time>
      </trkpt>
      <trkpt lat="45.73328" lon="4.63176">
        <ele>576.6</ele>
        <time>2025-12-15T13:15:43Z</time>
      </trkpt>
      <trkpt lat="45.73327" lon="4.63174">
        <ele>577</ele>
        <time>2025-12-15T13:15:44Z</time>
      </trkpt>
      <trkpt lat="45.73326" lon="4.63172">
        <ele>577.2</ele>
        <time>2025-12-15T13:15:45Z</time>
      </trkpt>
      <trkpt lat="45.73324" lon="4.63171">
        <ele>577.4</ele>
        <time>2025-12-15T13:15:46Z</time>
      </trkpt>
      <trkpt lat="45.73322" lon="4.63169">
        <ele>577.8</ele>
        <time>2025-12-15T13:15:47Z</time>
      </trkpt>
      <trkpt lat="45.73321" lon="4.63167">
        <ele>578</ele>
        <time>2025-12-15T13:15:48Z</time>
      </trkpt>
      <trkpt lat="45.7332" lon="4.63165">
        <ele>578.4</ele>
        <time>2025-12-15T13:15:49Z</time>
      </trkpt>
      <trkpt lat="45.73319" lon="4.63164">
        <ele>578.6</ele>
        <time>2025-12-15T13:15:50Z</time>
      </trkpt>
      <trkpt lat="45.73318" lon="4.63163">
        <ele>579</ele>
        <time>2025-12-15T13:15:51Z</time>
      </trkpt>
      <trkpt lat="45.73317" lon="4.63162">
        <ele>579.2</ele>
        <time>2025-12-15T13:15:52Z</time>
      </trkpt>
      <trkpt lat="45.73315" lon="4.63161">
        <ele>579.6</ele>
        <time>2025-12-15T13:15:53Z</time>
      </trkpt>
      <trkpt lat="45.73314" lon="4.63161">
        <ele>579.8</ele>
        <time>2025-12-15T13:15:54Z</time>
      </trkpt>
      <trkpt lat="45.73312" lon="4.6316">
        <ele>580</ele>
        <time>2025-12-15T13:15:55Z</time>
      </trkpt>
      <trkpt lat="45.73311" lon="4.63159">
        <ele>580</ele>
        <time>2025-12-15T13:15:56Z</time>
      </trkpt>
      <trkpt lat="45.73309" lon="4.63158">
        <ele>580.2</ele>
        <time>2025-12-15T13:15:57Z</time>
      </trkpt>
      <trkpt lat="45.73308" lon="4.63157">
        <ele>580.4</ele>
        <time>2025-12-15T13:15:58Z</time>
      </trkpt>
      <trkpt lat="45.73306" lon="4.63157">
        <ele>580.6</ele>
        <time>2025-12-15T13:15:59Z</time>
      </trkpt>
      <trkpt lat="45.73304" lon="4.63157">
        <ele>580.6</ele>
        <time>2025-12-15T13:16:00Z</time>
      </trkpt>
      <trkpt lat="45.73303" lon="4.63156">
        <ele>580.8</ele>
        <time>2025-12-15T13:16:01Z</time>
      </trkpt>
      <trkpt lat="45.73301" lon="4.63156">
        <ele>581</ele>
        <time>2025-12-15T13:16:02Z</time>
      </trkpt>
      <trkpt lat="45.73299" lon="4.63156">
        <ele>581.2</ele>
        <time>2025-12-15T13:16:03Z</time>
      </trkpt>
      <trkpt lat="45.73296" lon="4.63155">
        <ele>581.2</ele>
        <time>2025-12-15T13:16:04Z</time>
      </trkpt>
      <trkpt lat="45.73294" lon="4.63154">
        <ele>581.4</ele>
        <time>2025-12-15T13:16:05Z</time>
      </trkpt>
      <trkpt lat="45.73292" lon="4.63153">
        <ele>581.6</ele>
        <time>2025-12-15T13:16:06Z</time>
      </trkpt>
      <trkpt lat="45.73291" lon="4.63153">
        <ele>581.8</ele>
        <time>2025-12-15T13:16:07Z</time>
      </trkpt>
      <trkpt lat="45.73289" lon="4.63153">
        <ele>581.8</ele>
        <time>2025-12-15T13:16:08Z</time>
      </trkpt>
      <trkpt lat="45.73288" lon="4.63152">
        <ele>582</ele>
        <time>2025-12-15T13:16:09Z</time>
      </trkpt>
      <trkpt lat="45.73286" lon="4.63151">
        <ele>582.2</ele>
        <time>2025-12-15T13:16:10Z</time>
      </trkpt>
      <trkpt lat="45.73284" lon="4.6315">
        <ele>582.2</ele>
        <time>2025-12-15T13:16:11Z</time>
      </trkpt>
      <trkpt lat="45.73282" lon="4.63149">
        <ele>582.4</ele>
        <time>2025-12-15T13:16:12Z</time>
      </trkpt>
      <trkpt lat="45.7328" lon="4.63148">
        <ele>582.4</ele>
        <time>2025-12-15T13:16:13Z</time>
      </trkpt>
      <trkpt lat="45.73278" lon="4.63147">
        <ele>582.6</ele>
        <time>2025-12-15T13:16:14Z</time>
      </trkpt>
      <trkpt lat="45.73276" lon="4.63146">
        <ele>582.8</ele>
        <time>2025-12-15T13:16:15Z</time>
      </trkpt>
      <trkpt lat="45.73274" lon="4.63144">
        <ele>583</ele>
        <time>2025-12-15T13:16:16Z</time>
      </trkpt>
      <trkpt lat="45.73272" lon="4.63142">
        <ele>583.2</ele>
        <time>2025-12-15T13:16:17Z</time>
      </trkpt>
      <trkpt lat="45.73272" lon="4.63142">
        <ele>583.6</ele>
        <time>2025-12-15T13:16:18Z</time>
      </trkpt>
      <trkpt lat="45.73271" lon="4.63141">
        <ele>583.8</ele>
        <time>2025-12-15T13:16:19Z</time>
      </trkpt>
      <trkpt lat="45.7327" lon="4.6314">
        <ele>584</ele>
        <time>2025-12-15T13:16:20Z</time>
      </trkpt>
      <trkpt lat="45.73267" lon="4.63138">
        <ele>584.4</ele>
        <time>2025-12-15T13:16:21Z</time>
      </trkpt>
      <trkpt lat="45.73266" lon="4.63137">
        <ele>584.6</ele>
        <time>2025-12-15T13:16:22Z</time>
      </trkpt>
      <trkpt lat="45.73263" lon="4.63135">
        <ele>584.8</ele>
        <time>2025-12-15T13:16:23Z</time>
      </trkpt>
      <trkpt lat="45.7326" lon="4.63133">
        <ele>585.2</ele>
        <time>2025-12-15T13:16:24Z</time>
      </trkpt>
      <trkpt lat="45.73257" lon="4.63132">
        <ele>585.6</ele>
        <time>2025-12-15T13:16:25Z</time>
      </trkpt>
      <trkpt lat="45.73255" lon="4.6313">
        <ele>585.8</ele>
        <time>2025-12-15T13:16:26Z</time>
      </trkpt>
      <trkpt lat="45.73253" lon="4.63129">
        <ele>586.2</ele>
        <time>2025-12-15T13:16:27Z</time>
      </trkpt>
      <trkpt lat="45.73252" lon="4.63127">
        <ele>586.4</ele>
        <time>2025-12-15T13:16:28Z</time>
      </trkpt>
      <trkpt lat="45.73249" lon="4.63126">
        <ele>586.8</ele>
        <time>2025-12-15T13:16:29Z</time>
      </trkpt>
      <trkpt lat="45.73245" lon="4.63125">
        <ele>587.2</ele>
        <time>2025-12-15T13:16:30Z</time>
      </trkpt>
      <trkpt lat="45.73241" lon="4.63124">
        <ele>587.4</ele>
        <time>2025-12-15T13:16:31Z</time>
      </trkpt>
      <trkpt lat="45.73239" lon="4.63122">
        <ele>587.6</ele>
        <time>2025-12-15T13:16:32Z</time>
      </trkpt>
      <trkpt lat="45.73238" lon="4.63121">
        <ele>588</ele>
        <time>2025-12-15T13:16:33Z</time>
      </trkpt>
      <trkpt lat="45.73236" lon="4.6312">
        <ele>588.2</ele>
        <time>2025-12-15T13:16:34Z</time>
      </trkpt>
      <trkpt lat="45.73234" lon="4.63119">
        <ele>588.4</ele>
        <time>2025-12-15T13:16:35Z</time>
      </trkpt>
      <trkpt lat="45.73231" lon="4.63118">
        <ele>588.8</ele>
        <time>2025-12-15T13:16:36Z</time>
      </trkpt>
      <trkpt lat="45.73229" lon="4.63117">
        <ele>589.2</ele>
        <time>2025-12-15T13:16:37Z</time>
      </trkpt>
      <trkpt lat="45.73227" lon="4.63117">
        <ele>589.6</ele>
        <time>2025-12-15T13:16:38Z</time>
      </trkpt>
      <trkpt lat="45.73224" lon="4.63116">
        <ele>589.8</ele>
        <time>2025-12-15T13:16:39Z</time>
      </trkpt>
      <trkpt lat="45.73221" lon="4.63115">
        <ele>590.2</ele>
        <time>2025-12-15T13:16:40Z</time>
      </trkpt>
      <trkpt lat="45.7322" lon="4.63113">
        <ele>590.6</ele>
        <time>2025-12-15T13:16:41Z</time>
      </trkpt>
      <trkpt lat="45.73218" lon="4.63113">
        <ele>590.8</ele>
        <time>2025-12-15T13:16:42Z</time>
      </trkpt>
      <trkpt lat="45.73216" lon="4.63112">
        <ele>591.2</ele>
        <time>2025-12-15T13:16:43Z</time>
      </trkpt>
      <trkpt lat="45.73214" lon="4.63111">
        <ele>591.6</ele>
        <time>2025-12-15T13:16:44Z</time>
      </trkpt>
      <trkpt lat="45.73212" lon="4.63109">
        <ele>592</ele>
        <time>2025-12-15T13:16:45Z</time>
      </trkpt>
      <trkpt lat="45.73211" lon="4.63107">
        <ele>592.4</ele>
        <time>2025-12-15T13:16:46Z</time>
      </trkpt>
      <trkpt lat="45.7321" lon="4.63106">
        <ele>592.8</ele>
        <time>2025-12-15T13:16:47Z</time>
      </trkpt>
      <trkpt lat="45.73209" lon="4.63105">
        <ele>593.2</ele>
        <time>2025-12-15T13:16:48Z</time>
      </trkpt>
      <trkpt lat="45.73208" lon="4.63104">
        <ele>593.6</ele>
        <time>2025-12-15T13:16:49Z</time>
      </trkpt>
      <trkpt lat="45.73206" lon="4.63102">
        <ele>594</ele>
        <time>2025-12-15T13:16:50Z</time>
      </trkpt>
      <trkpt lat="45.73205" lon="4.631">
        <ele>594.4</ele>
        <time>2025-12-15T13:16:51Z</time>
      </trkpt>
      <trkpt lat="45.73204" lon="4.63098">
        <ele>594.8</ele>
        <time>2025-12-15T13:16:52Z</time>
      </trkpt>
      <trkpt lat="45.73203" lon="4.63097">
        <ele>595</ele>
        <time>2025-12-15T13:16:53Z</time>
      </trkpt>
      <trkpt lat="45.73202" lon="4.63095">
        <ele>595.4</ele>
        <time>2025-12-15T13:16:54Z</time>
      </trkpt>
      <trkpt lat="45.732" lon="4.63094">
        <ele>595.6</ele>
        <time>2025-12-15T13:16:55Z</time>
      </trkpt>
      <trkpt lat="45.73199" lon="4.63092">
        <ele>595.8</ele>
        <time>2025-12-15T13:16:56Z</time>
      </trkpt>
      <trkpt lat="45.73197" lon="4.6309">
        <ele>596</ele>
        <time>2025-12-15T13:16:57Z</time>
      </trkpt>
      <trkpt lat="45.73196" lon="4.63089">
        <ele>596.4</ele>
        <time>2025-12-15T13:16:58Z</time>
      </trkpt>
      <trkpt lat="45.73195" lon="4.63087">
        <ele>596.6</ele>
        <time>2025-12-15T13:16:59Z</time>
      </trkpt>
      <trkpt lat="45.73194" lon="4.63086">
        <ele>597</ele>
        <time>2025-12-15T13:17:00Z</time>
      </trkpt>
      <trkpt lat="45.73193" lon="4.63084">
        <ele>597.2</ele>
        <time>2025-12-15T13:17:01Z</time>
      </trkpt>
      <trkpt lat="45.73192" lon="4.63082">
        <ele>597.4</ele>
        <time>2025-12-15T13:17:02Z</time>
      </trkpt>
      <trkpt lat="45.73191" lon="4.6308">
        <ele>597.6</ele>
        <time>2025-12-15T13:17:03Z</time>
      </trkpt>
      <trkpt lat="45.73189" lon="4.6308">
        <ele>597.8</ele>
        <time>2025-12-15T13:17:04Z</time>
      </trkpt>
      <trkpt lat="45.73188" lon="4.63079">
        <ele>597.8</ele>
        <time>2025-12-15T13:17:05Z</time>
      </trkpt>
      <trkpt lat="45.73187" lon="4.63077">
        <ele>598</ele>
        <time>2025-12-15T13:17:06Z</time>
      </trkpt>
      <trkpt lat="45.73185" lon="4.63075">
        <ele>598.2</ele>
        <time>2025-12-15T13:17:07Z</time>
      </trkpt>
      <trkpt lat="45.73184" lon="4.63073">
        <ele>598.4</ele>
        <time>2025-12-15T13:17:08Z</time>
      </trkpt>
      <trkpt lat="45.73183" lon="4.63071">
        <ele>598.6</ele>
        <time>2025-12-15T13:17:09Z</time>
      </trkpt>
      <trkpt lat="45.73182" lon="4.6307">
        <ele>599</ele>
        <time>2025-12-15T13:17:10Z</time>
      </trkpt>
      <trkpt lat="45.73181" lon="4.63067">
        <ele>599.4</ele>
        <time>2025-12-15T13:17:11Z</time>
      </trkpt>
      <trkpt lat="45.73179" lon="4.63066">
        <ele>599.8</ele>
        <time>2025-12-15T13:17:12Z</time>
      </trkpt>
      <trkpt lat="45.73178" lon="4.63064">
        <ele>600.2</ele>
        <time>2025-12-15T13:17:13Z</time>
      </trkpt>
      <trkpt lat="45.73177" lon="4.63062">
        <ele>600.4</ele>
        <time>2025-12-15T13:17:14Z</time>
      </trkpt>
      <trkpt lat="45.73175" lon="4.63059">
        <ele>600.6</ele>
        <time>2025-12-15T13:17:15Z</time>
      </trkpt>
      <trkpt lat="45.73174" lon="4.63057">
        <ele>601</ele>
        <time>2025-12-15T13:17:16Z</time>
      </trkpt>
      <trkpt lat="45.73173" lon="4.63055">
        <ele>601.2</ele>
        <time>2025-12-15T13:17:17Z</time>
      </trkpt>
      <trkpt lat="45.73172" lon="4.63053">
        <ele>601.4</ele>
        <time>2025-12-15T13:17:18Z</time>
      </trkpt>
      <trkpt lat="45.73171" lon="4.63052">
        <ele>601.6</ele>
        <time>2025-12-15T13:17:19Z</time>
      </trkpt>
      <trkpt lat="45.7317" lon="4.6305">
        <ele>601.8</ele>
        <time>2025-12-15T13:17:20Z</time>
      </trkpt>
      <trkpt lat="45.73169" lon="4.63048">
        <ele>602</ele>
        <time>2025-12-15T13:17:21Z</time>
      </trkpt>
      <trkpt lat="45.73168" lon="4.63045">
        <ele>602.2</ele>
        <time>2025-12-15T13:17:22Z</time>
      </trkpt>
      <trkpt lat="45.73166" lon="4.63043">
        <ele>602.2</ele>
        <time>2025-12-15T13:17:23Z</time>
      </trkpt>
      <trkpt lat="45.73165" lon="4.63041">
        <ele>602.4</ele>
        <time>2025-12-15T13:17:24Z</time>
      </trkpt>
      <trkpt lat="45.73164" lon="4.63039">
        <ele>602.6</ele>
        <time>2025-12-15T13:17:25Z</time>
      </trkpt>
      <trkpt lat="45.73163" lon="4.63037">
        <ele>602.8</ele>
        <time>2025-12-15T13:17:26Z</time>
      </trkpt>
      <trkpt lat="45.73161" lon="4.63035">
        <ele>602.8</ele>
        <time>2025-12-15T13:17:27Z</time>
      </trkpt>
      <trkpt lat="45.7316" lon="4.63032">
        <ele>603</ele>
        <time>2025-12-15T13:17:28Z</time>
      </trkpt>
      <trkpt lat="45.73159" lon="4.63029">
        <ele>603</ele>
        <time>2025-12-15T13:17:29Z</time>
      </trkpt>
      <trkpt lat="45.73158" lon="4.63026">
        <ele>602.8</ele>
        <time>2025-12-15T13:17:30Z</time>
      </trkpt>
      <trkpt lat="45.73158" lon="4.63023">
        <ele>602.6</ele>
        <time>2025-12-15T13:17:31Z</time>
      </trkpt>
      <trkpt lat="45.73157" lon="4.63019">
        <ele>602.4</ele>
        <time>2025-12-15T13:17:32Z</time>
      </trkpt>
      <trkpt lat="45.73157" lon="4.63016">
        <ele>602.2</ele>
        <time>2025-12-15T13:17:33Z</time>
      </trkpt>
      <trkpt lat="45.73157" lon="4.63012">
        <ele>602.2</ele>
        <time>2025-12-15T13:17:34Z</time>
      </trkpt>
      <trkpt lat="45.73156" lon="4.63008">
        <ele>602.2</ele>
        <time>2025-12-15T13:17:35Z</time>
      </trkpt>
      <trkpt lat="45.73156" lon="4.63005">
        <ele>602.2</ele>
        <time>2025-12-15T13:17:36Z</time>
      </trkpt>
      <trkpt lat="45.73156" lon="4.63001">
        <ele>602.4</ele>
        <time>2025-12-15T13:17:37Z</time>
      </trkpt>
      <trkpt lat="45.73155" lon="4.62998">
        <ele>602.6</ele>
        <time>2025-12-15T13:17:38Z</time>
      </trkpt>
      <trkpt lat="45.73155" lon="4.62995">
        <ele>602.6</ele>
        <time>2025-12-15T13:17:39Z</time>
      </trkpt>
      <trkpt lat="45.73155" lon="4.62992">
        <ele>602.6</ele>
        <time>2025-12-15T13:17:40Z</time>
      </trkpt>
      <trkpt lat="45.73154" lon="4.62988">
        <ele>602.6</ele>
        <time>2025-12-15T13:17:41Z</time>
      </trkpt>
      <trkpt lat="45.73154" lon="4.62985">
        <ele>602.6</ele>
        <time>2025-12-15T13:17:42Z</time>
      </trkpt>
      <trkpt lat="45.73154" lon="4.62981">
        <ele>602.8</ele>
        <time>2025-12-15T13:17:43Z</time>
      </trkpt>
      <trkpt lat="45.73154" lon="4.62978">
        <ele>602.8</ele>
        <time>2025-12-15T13:17:44Z</time>
      </trkpt>
      <trkpt lat="45.73154" lon="4.62974">
        <ele>603</ele>
        <time>2025-12-15T13:17:45Z</time>
      </trkpt>
      <trkpt lat="45.73154" lon="4.6297">
        <ele>603</ele>
        <time>2025-12-15T13:17:46Z</time>
      </trkpt>
      <trkpt lat="45.73154" lon="4.62965">
        <ele>602.8</ele>
        <time>2025-12-15T13:17:47Z</time>
      </trkpt>
      <trkpt lat="45.73154" lon="4.62961">
        <ele>602.6</ele>
        <time>2025-12-15T13:17:48Z</time>
      </trkpt>
      <trkpt lat="45.73155" lon="4.62958">
        <ele>602.6</ele>
        <time>2025-12-15T13:17:49Z</time>
      </trkpt>
      <trkpt lat="45.73155" lon="4.62954">
        <ele>602.6</ele>
        <time>2025-12-15T13:17:50Z</time>
      </trkpt>
      <trkpt lat="45.73155" lon="4.6295">
        <ele>602.8</ele>
        <time>2025-12-15T13:17:51Z</time>
      </trkpt>
      <trkpt lat="45.73156" lon="4.62946">
        <ele>603</ele>
        <time>2025-12-15T13:17:52Z</time>
      </trkpt>
      <trkpt lat="45.73156" lon="4.62942">
        <ele>603.4</ele>
        <time>2025-12-15T13:17:53Z</time>
      </trkpt>
      <trkpt lat="45.73156" lon="4.62938">
        <ele>603.8</ele>
        <time>2025-12-15T13:17:54Z</time>
      </trkpt>
      <trkpt lat="45.73156" lon="4.62934">
        <ele>604.2</ele>
        <time>2025-12-15T13:17:55Z</time>
      </trkpt>
      <trkpt lat="45.73156" lon="4.6293">
        <ele>604.4</ele>
        <time>2025-12-15T13:17:56Z</time>
      </trkpt>
      <trkpt lat="45.73156" lon="4.62926">
        <ele>604.6</ele>
        <time>2025-12-15T13:17:57Z</time>
      </trkpt>
      <trkpt lat="45.73156" lon="4.62923">
        <ele>605</ele>
        <time>2025-12-15T13:17:58Z</time>
      </trkpt>
      <trkpt lat="45.73157" lon="4.62919">
        <ele>605.2</ele>
        <time>2025-12-15T13:17:59Z</time>
      </trkpt>
      <trkpt lat="45.73157" lon="4.62916">
        <ele>605.4</ele>
        <time>2025-12-15T13:18:00Z</time>
      </trkpt>
      <trkpt lat="45.73158" lon="4.62913">
        <ele>605.8</ele>
        <time>2025-12-15T13:18:01Z</time>
      </trkpt>
      <trkpt lat="45.73158" lon="4.62909">
        <ele>606</ele>
        <time>2025-12-15T13:18:02Z</time>
      </trkpt>
      <trkpt lat="45.73158" lon="4.62906">
        <ele>606.2</ele>
        <time>2025-12-15T13:18:03Z</time>
      </trkpt>
      <trkpt lat="45.73159" lon="4.62902">
        <ele>606.4</ele>
        <time>2025-12-15T13:18:04Z</time>
      </trkpt>
      <trkpt lat="45.73158" lon="4.62898">
        <ele>606.6</ele>
        <time>2025-12-15T13:18:05Z</time>
      </trkpt>
      <trkpt lat="45.73158" lon="4.62895">
        <ele>606.6</ele>
        <time>2025-12-15T13:18:06Z</time>
      </trkpt>
      <trkpt lat="45.73158" lon="4.62891">
        <ele>606.8</ele>
        <time>2025-12-15T13:18:07Z</time>
      </trkpt>
      <trkpt lat="45.73158" lon="4.62888">
        <ele>606.8</ele>
        <time>2025-12-15T13:18:08Z</time>
      </trkpt>
      <trkpt lat="45.73158" lon="4.62884">
        <ele>606.8</ele>
        <time>2025-12-15T13:18:09Z</time>
      </trkpt>
      <trkpt lat="45.73159" lon="4.62881">
        <ele>607</ele>
        <time>2025-12-15T13:18:10Z</time>
      </trkpt>
      <trkpt lat="45.73159" lon="4.62877">
        <ele>607</ele>
        <time>2025-12-15T13:18:11Z</time>
      </trkpt>
      <trkpt lat="45.7316" lon="4.62874">
        <ele>607.2</ele>
        <time>2025-12-15T13:18:12Z</time>
      </trkpt>
      <trkpt lat="45.7316" lon="4.6287">
        <ele>607.4</ele>
        <time>2025-12-15T13:18:13Z</time>
      </trkpt>
      <trkpt lat="45.73161" lon="4.62867">
        <ele>607.4</ele>
        <time>2025-12-15T13:18:14Z</time>
      </trkpt>
      <trkpt lat="45.73162" lon="4.62863">
        <ele>607.6</ele>
        <time>2025-12-15T13:18:15Z</time>
      </trkpt>
      <trkpt lat="45.73162" lon="4.6286">
        <ele>607.6</ele>
        <time>2025-12-15T13:18:16Z</time>
      </trkpt>
      <trkpt lat="45.73163" lon="4.62857">
        <ele>607.8</ele>
        <time>2025-12-15T13:18:17Z</time>
      </trkpt>
      <trkpt lat="45.73164" lon="4.62853">
        <ele>607.8</ele>
        <time>2025-12-15T13:18:18Z</time>
      </trkpt>
      <trkpt lat="45.73164" lon="4.62849">
        <ele>608</ele>
        <time>2025-12-15T13:18:19Z</time>
      </trkpt>
      <trkpt lat="45.73164" lon="4.62845">
        <ele>608</ele>
        <time>2025-12-15T13:18:20Z</time>
      </trkpt>
      <trkpt lat="45.73165" lon="4.62842">
        <ele>608.2</ele>
        <time>2025-12-15T13:18:21Z</time>
      </trkpt>
      <trkpt lat="45.73166" lon="4.62838">
        <ele>608.4</ele>
        <time>2025-12-15T13:18:22Z</time>
      </trkpt>
      <trkpt lat="45.73167" lon="4.62835">
        <ele>608.4</ele>
        <time>2025-12-15T13:18:23Z</time>
      </trkpt>
      <trkpt lat="45.73167" lon="4.62831">
        <ele>608.6</ele>
        <time>2025-12-15T13:18:24Z</time>
      </trkpt>
      <trkpt lat="45.73168" lon="4.62828">
        <ele>608.8</ele>
        <time>2025-12-15T13:18:25Z</time>
      </trkpt>
      <trkpt lat="45.73169" lon="4.62824">
        <ele>609</ele>
        <time>2025-12-15T13:18:26Z</time>
      </trkpt>
      <trkpt lat="45.73171" lon="4.62821">
        <ele>609.4</ele>
        <time>2025-12-15T13:18:27Z</time>
      </trkpt>
      <trkpt lat="45.73172" lon="4.62817">
        <ele>609.6</ele>
        <time>2025-12-15T13:18:28Z</time>
      </trkpt>
      <trkpt lat="45.73173" lon="4.62814">
        <ele>609.8</ele>
        <time>2025-12-15T13:18:29Z</time>
      </trkpt>
      <trkpt lat="45.73174" lon="4.6281">
        <ele>609.8</ele>
        <time>2025-12-15T13:18:30Z</time>
      </trkpt>
      <trkpt lat="45.73176" lon="4.62807">
        <ele>610</ele>
        <time>2025-12-15T13:18:31Z</time>
      </trkpt>
      <trkpt lat="45.73177" lon="4.62804">
        <ele>610.2</ele>
        <time>2025-12-15T13:18:32Z</time>
      </trkpt>
      <trkpt lat="45.73179" lon="4.62801">
        <ele>610.4</ele>
        <time>2025-12-15T13:18:33Z</time>
      </trkpt>
      <trkpt lat="45.73181" lon="4.62799">
        <ele>610.6</ele>
        <time>2025-12-15T13:18:34Z</time>
      </trkpt>
      <trkpt lat="45.73182" lon="4.62796">
        <ele>610.8</ele>
        <time>2025-12-15T13:18:35Z</time>
      </trkpt>
      <trkpt lat="45.73183" lon="4.62793">
        <ele>611</ele>
        <time>2025-12-15T13:18:36Z</time>
      </trkpt>
      <trkpt lat="45.73184" lon="4.6279">
        <ele>611.2</ele>
        <time>2025-12-15T13:18:37Z</time>
      </trkpt>
      <trkpt lat="45.73185" lon="4.62788">
        <ele>611.4</ele>
        <time>2025-12-15T13:18:38Z</time>
      </trkpt>
      <trkpt lat="45.73185" lon="4.62785">
        <ele>611.6</ele>
        <time>2025-12-15T13:18:39Z</time>
      </trkpt>
      <trkpt lat="45.73186" lon="4.62782">
        <ele>611.8</ele>
        <time>2025-12-15T13:18:40Z</time>
      </trkpt>
      <trkpt lat="45.73187" lon="4.62779">
        <ele>611.8</ele>
        <time>2025-12-15T13:18:41Z</time>
      </trkpt>
      <trkpt lat="45.73188" lon="4.62776">
        <ele>612</ele>
        <time>2025-12-15T13:18:42Z</time>
      </trkpt>
      <trkpt lat="45.73188" lon="4.62773">
        <ele>612.2</ele>
        <time>2025-12-15T13:18:43Z</time>
      </trkpt>
      <trkpt lat="45.73188" lon="4.6277">
        <ele>612.4</ele>
        <time>2025-12-15T13:18:44Z</time>
      </trkpt>
      <trkpt lat="45.73189" lon="4.62767">
        <ele>612.6</ele>
        <time>2025-12-15T13:18:45Z</time>
      </trkpt>
      <trkpt lat="45.7319" lon="4.62765">
        <ele>612.8</ele>
        <time>2025-12-15T13:18:46Z</time>
      </trkpt>
      <trkpt lat="45.7319" lon="4.62761">
        <ele>613</ele>
        <time>2025-12-15T13:18:47Z</time>
      </trkpt>
      <trkpt lat="45.7319" lon="4.62758">
        <ele>613.2</ele>
        <time>2025-12-15T13:18:48Z</time>
      </trkpt>
      <trkpt lat="45.73191" lon="4.62755">
        <ele>613.2</ele>
        <time>2025-12-15T13:18:49Z</time>
      </trkpt>
      <trkpt lat="45.73191" lon="4.62752">
        <ele>613.4</ele>
        <time>2025-12-15T13:18:50Z</time>
      </trkpt>
      <trkpt lat="45.73192" lon="4.62748">
        <ele>613.6</ele>
        <time>2025-12-15T13:18:51Z</time>
      </trkpt>
      <trkpt lat="45.73193" lon="4.62745">
        <ele>613.8</ele>
        <time>2025-12-15T13:18:52Z</time>
      </trkpt>
      <trkpt lat="45.73193" lon="4.62742">
        <ele>614</ele>
        <time>2025-12-15T13:18:53Z</time>
      </trkpt>
      <trkpt lat="45.73194" lon="4.62738">
        <ele>614.2</ele>
        <time>2025-12-15T13:18:54Z</time>
      </trkpt>
      <trkpt lat="45.73194" lon="4.62734">
        <ele>614.4</ele>
        <time>2025-12-15T13:18:55Z</time>
      </trkpt>
      <trkpt lat="45.73195" lon="4.6273">
        <ele>614.4</ele>
        <time>2025-12-15T13:18:56Z</time>
      </trkpt>
      <trkpt lat="45.73196" lon="4.62727">
        <ele>614.6</ele>
        <time>2025-12-15T13:18:57Z</time>
      </trkpt>
      <trkpt lat="45.73196" lon="4.62723">
        <ele>614.6</ele>
        <time>2025-12-15T13:18:58Z</time>
      </trkpt>
      <trkpt lat="45.73198" lon="4.6272">
        <ele>614.6</ele>
        <time>2025-12-15T13:18:59Z</time>
      </trkpt>
      <trkpt lat="45.73199" lon="4.62715">
        <ele>614.6</ele>
        <time>2025-12-15T13:19:00Z</time>
      </trkpt>
      <trkpt lat="45.73201" lon="4.62711">
        <ele>614.6</ele>
        <time>2025-12-15T13:19:01Z</time>
      </trkpt>
      <trkpt lat="45.73204" lon="4.62706">
        <ele>614.4</ele>
        <time>2025-12-15T13:19:02Z</time>
      </trkpt>
      <trkpt lat="45.73206" lon="4.62702">
        <ele>614.2</ele>
        <time>2025-12-15T13:19:03Z</time>
      </trkpt>
      <trkpt lat="45.73208" lon="4.62697">
        <ele>613.8</ele>
        <time>2025-12-15T13:19:04Z</time>
      </trkpt>
      <trkpt lat="45.73211" lon="4.62692">
        <ele>613.6</ele>
        <time>2025-12-15T13:19:05Z</time>
      </trkpt>
      <trkpt lat="45.73213" lon="4.62686">
        <ele>613.2</ele>
        <time>2025-12-15T13:19:06Z</time>
      </trkpt>
      <trkpt lat="45.73216" lon="4.6268">
        <ele>612.8</ele>
        <time>2025-12-15T13:19:07Z</time>
      </trkpt>
      <trkpt lat="45.73219" lon="4.62675">
        <ele>612.4</ele>
        <time>2025-12-15T13:19:08Z</time>
      </trkpt>
      <trkpt lat="45.73221" lon="4.62669">
        <ele>612</ele>
        <time>2025-12-15T13:19:09Z</time>
      </trkpt>
      <trkpt lat="45.73224" lon="4.62663">
        <ele>611.4</ele>
        <time>2025-12-15T13:19:10Z</time>
      </trkpt>
      <trkpt lat="45.73227" lon="4.62657">
        <ele>611</ele>
        <time>2025-12-15T13:19:11Z</time>
      </trkpt>
      <trkpt lat="45.7323" lon="4.62651">
        <ele>610.6</ele>
        <time>2025-12-15T13:19:12Z</time>
      </trkpt>
      <trkpt lat="45.73233" lon="4.62645">
        <ele>610.4</ele>
        <time>2025-12-15T13:19:13Z</time>
      </trkpt>
      <trkpt lat="45.73236" lon="4.62639">
        <ele>610.2</ele>
        <time>2025-12-15T13:19:14Z</time>
      </trkpt>
      <trkpt lat="45.73238" lon="4.62633">
        <ele>610</ele>
        <time>2025-12-15T13:19:15Z</time>
      </trkpt>
      <trkpt lat="45.73241" lon="4.62628">
        <ele>610</ele>
        <time>2025-12-15T13:19:16Z</time>
      </trkpt>
      <trkpt lat="45.73244" lon="4.62622">
        <ele>610</ele>
        <time>2025-12-15T13:19:17Z</time>
      </trkpt>
      <trkpt lat="45.73247" lon="4.62616">
        <ele>610</ele>
        <time>2025-12-15T13:19:18Z</time>
      </trkpt>
      <trkpt lat="45.7325" lon="4.6261">
        <ele>610</ele>
        <time>2025-12-15T13:19:19Z</time>
      </trkpt>
      <trkpt lat="45.73252" lon="4.62604">
        <ele>610</ele>
        <time>2025-12-15T13:19:20Z</time>
      </trkpt>
      <trkpt lat="45.73255" lon="4.62598">
        <ele>609.8</ele>
        <time>2025-12-15T13:19:21Z</time>
      </trkpt>
      <trkpt lat="45.73258" lon="4.62593">
        <ele>609.8</ele>
        <time>2025-12-15T13:19:22Z</time>
      </trkpt>
      <trkpt lat="45.73261" lon="4.62588">
        <ele>609.8</ele>
        <time>2025-12-15T13:19:23Z</time>
      </trkpt>
      <trkpt lat="45.73264" lon="4.62582">
        <ele>609.6</ele>
        <time>2025-12-15T13:19:24Z</time>
      </trkpt>
      <trkpt lat="45.73266" lon="4.62577">
        <ele>609.6</ele>
        <time>2025-12-15T13:19:25Z</time>
      </trkpt>
      <trkpt lat="45.73269" lon="4.62572">
        <ele>609.6</ele>
        <time>2025-12-15T13:19:26Z</time>
      </trkpt>
      <trkpt lat="45.73272" lon="4.62567">
        <ele>609.6</ele>
        <time>2025-12-15T13:19:27Z</time>
      </trkpt>
      <trkpt lat="45.73274" lon="4.62562">
        <ele>609.8</ele>
        <time>2025-12-15T13:19:28Z</time>
      </trkpt>
      <trkpt lat="45.73277" lon="4.62558">
        <ele>609.8</ele>
        <time>2025-12-15T13:19:29Z</time>
      </trkpt>
      <trkpt lat="45.73279" lon="4.62553">
        <ele>609.8</ele>
        <time>2025-12-15T13:19:30Z</time>
      </trkpt>
      <trkpt lat="45.73282" lon="4.62549">
        <ele>609.6</ele>
        <time>2025-12-15T13:19:31Z</time>
      </trkpt>
      <trkpt lat="45.73285" lon="4.62544">
        <ele>609.8</ele>
        <time>2025-12-15T13:19:32Z</time>
      </trkpt>
      <trkpt lat="45.73288" lon="4.6254">
        <ele>609.6</ele>
        <time>2025-12-15T13:19:33Z</time>
      </trkpt>
      <trkpt lat="45.73291" lon="4.62536">
        <ele>609.6</ele>
        <time>2025-12-15T13:19:34Z</time>
      </trkpt>
      <trkpt lat="45.73295" lon="4.62532">
        <ele>609.6</ele>
        <time>2025-12-15T13:19:35Z</time>
      </trkpt>
      <trkpt lat="45.73299" lon="4.62529">
        <ele>609.6</ele>
        <time>2025-12-15T13:19:36Z</time>
      </trkpt>
      <trkpt lat="45.73302" lon="4.62527">
        <ele>609.8</ele>
        <time>2025-12-15T13:19:37Z</time>
      </trkpt>
      <trkpt lat="45.73306" lon="4.62525">
        <ele>609.8</ele>
        <time>2025-12-15T13:19:38Z</time>
      </trkpt>
      <trkpt lat="45.73309" lon="4.62524">
        <ele>610</ele>
        <time>2025-12-15T13:19:39Z</time>
      </trkpt>
      <trkpt lat="45.73313" lon="4.62522">
        <ele>610.2</ele>
        <time>2025-12-15T13:19:40Z</time>
      </trkpt>
      <trkpt lat="45.73316" lon="4.6252">
        <ele>610.4</ele>
        <time>2025-12-15T13:19:41Z</time>
      </trkpt>
      <trkpt lat="45.73319" lon="4.62519">
        <ele>610.6</ele>
        <time>2025-12-15T13:19:42Z</time>
      </trkpt>
      <trkpt lat="45.73323" lon="4.62519">
        <ele>610.8</ele>
        <time>2025-12-15T13:19:43Z</time>
      </trkpt>
      <trkpt lat="45.73326" lon="4.62518">
        <ele>611.2</ele>
        <time>2025-12-15T13:19:44Z</time>
      </trkpt>
      <trkpt lat="45.73329" lon="4.62516">
        <ele>611.4</ele>
        <time>2025-12-15T13:19:45Z</time>
      </trkpt>
      <trkpt lat="45.73332" lon="4.62514">
        <ele>611.8</ele>
        <time>2025-12-15T13:19:46Z</time>
      </trkpt>
      <trkpt lat="45.73335" lon="4.62512">
        <ele>612.2</ele>
        <time>2025-12-15T13:19:47Z</time>
      </trkpt>
      <trkpt lat="45.73338" lon="4.62511">
        <ele>612.6</ele>
        <time>2025-12-15T13:19:48Z</time>
      </trkpt>
      <trkpt lat="45.7334" lon="4.62508">
        <ele>613.2</ele>
        <time>2025-12-15T13:19:49Z</time>
      </trkpt>
      <trkpt lat="45.73342" lon="4.62506">
        <ele>613.6</ele>
        <time>2025-12-15T13:19:50Z</time>
      </trkpt>
      <trkpt lat="45.73344" lon="4.62503">
        <ele>614.2</ele>
        <time>2025-12-15T13:19:51Z</time>
      </trkpt>
      <trkpt lat="45.73346" lon="4.625">
        <ele>614.8</ele>
        <time>2025-12-15T13:19:52Z</time>
      </trkpt>
      <trkpt lat="45.73347" lon="4.62496">
        <ele>615.4</ele>
        <time>2025-12-15T13:19:53Z</time>
      </trkpt>
      <trkpt lat="45.73347" lon="4.62492">
        <ele>616</ele>
        <time>2025-12-15T13:19:54Z</time>
      </trkpt>
      <trkpt lat="45.73348" lon="4.62489">
        <ele>616.6</ele>
        <time>2025-12-15T13:19:55Z</time>
      </trkpt>
      <trkpt lat="45.73348" lon="4.62484">
        <ele>617.2</ele>
        <time>2025-12-15T13:19:56Z</time>
      </trkpt>
      <trkpt lat="45.73348" lon="4.6248">
        <ele>617.6</ele>
        <time>2025-12-15T13:19:57Z</time>
      </trkpt>
      <trkpt lat="45.73348" lon="4.62476">
        <ele>618.2</ele>
        <time>2025-12-15T13:19:58Z</time>
      </trkpt>
      <trkpt lat="45.73347" lon="4.62472">
        <ele>618.6</ele>
        <time>2025-12-15T13:19:59Z</time>
      </trkpt>
      <trkpt lat="45.73346" lon="4.62468">
        <ele>619.2</ele>
        <time>2025-12-15T13:20:00Z</time>
      </trkpt>
      <trkpt lat="45.73346" lon="4.62464">
        <ele>619.8</ele>
        <time>2025-12-15T13:20:01Z</time>
      </trkpt>
      <trkpt lat="45.73345" lon="4.6246">
        <ele>620.4</ele>
        <time>2025-12-15T13:20:02Z</time>
      </trkpt>
      <trkpt lat="45.73344" lon="4.62456">
        <ele>621</ele>
        <time>2025-12-15T13:20:03Z</time>
      </trkpt>
      <trkpt lat="45.73343" lon="4.62452">
        <ele>621.4</ele>
        <time>2025-12-15T13:20:04Z</time>
      </trkpt>
      <trkpt lat="45.73342" lon="4.62448">
        <ele>622</ele>
        <time>2025-12-15T13:20:05Z</time>
      </trkpt>
      <trkpt lat="45.73341" lon="4.62445">
        <ele>622.6</ele>
        <time>2025-12-15T13:20:06Z</time>
      </trkpt>
      <trkpt lat="45.7334" lon="4.62441">
        <ele>623</ele>
        <time>2025-12-15T13:20:07Z</time>
      </trkpt>
      <trkpt lat="45.73339" lon="4.62438">
        <ele>623.6</ele>
        <time>2025-12-15T13:20:08Z</time>
      </trkpt>
      <trkpt lat="45.73338" lon="4.62435">
        <ele>624</ele>
        <time>2025-12-15T13:20:09Z</time>
      </trkpt>
      <trkpt lat="45.73337" lon="4.62432">
        <ele>624.6</ele>
        <time>2025-12-15T13:20:10Z</time>
      </trkpt>
      <trkpt lat="45.73336" lon="4.62429">
        <ele>625.2</ele>
        <time>2025-12-15T13:20:11Z</time>
      </trkpt>
      <trkpt lat="45.73335" lon="4.62425">
        <ele>625.6</ele>
        <time>2025-12-15T13:20:12Z</time>
      </trkpt>
      <trkpt lat="45.73335" lon="4.62422">
        <ele>626.2</ele>
        <time>2025-12-15T13:20:13Z</time>
      </trkpt>
      <trkpt lat="45.73334" lon="4.62418">
        <ele>626.8</ele>
        <time>2025-12-15T13:20:14Z</time>
      </trkpt>
      <trkpt lat="45.73333" lon="4.62414">
        <ele>627.2</ele>
        <time>2025-12-15T13:20:15Z</time>
      </trkpt>
      <trkpt lat="45.73333" lon="4.62411">
        <ele>627.8</ele>
        <time>2025-12-15T13:20:16Z</time>
      </trkpt>
      <trkpt lat="45.73334" lon="4.62407">
        <ele>628.2</ele>
        <time>2025-12-15T13:20:17Z</time>
      </trkpt>
      <trkpt lat="45.73334" lon="4.62403">
        <ele>628.8</ele>
        <time>2025-12-15T13:20:18Z</time>
      </trkpt>
      <trkpt lat="45.73334" lon="4.624">
        <ele>629.2</ele>
        <time>2025-12-15T13:20:19Z</time>
      </trkpt>
      <trkpt lat="45.73334" lon="4.62396">
        <ele>629.6</ele>
        <time>2025-12-15T13:20:20Z</time>
      </trkpt>
      <trkpt lat="45.73335" lon="4.62392">
        <ele>630</ele>
        <time>2025-12-15T13:20:21Z</time>
      </trkpt>
      <trkpt lat="45.73335" lon="4.62389">
        <ele>630.2</ele>
        <time>2025-12-15T13:20:22Z</time>
      </trkpt>
      <trkpt lat="45.73335" lon="4.62385">
        <ele>630.6</ele>
        <time>2025-12-15T13:20:23Z</time>
      </trkpt>
      <trkpt lat="45.73336" lon="4.62381">
        <ele>631</ele>
        <time>2025-12-15T13:20:24Z</time>
      </trkpt>
      <trkpt lat="45.73336" lon="4.62378">
        <ele>631.4</ele>
        <time>2025-12-15T13:20:25Z</time>
      </trkpt>
      <trkpt lat="45.73336" lon="4.62374">
        <ele>631.8</ele>
        <time>2025-12-15T13:20:26Z</time>
      </trkpt>
      <trkpt lat="45.73336" lon="4.62371">
        <ele>632.2</ele>
        <time>2025-12-15T13:20:27Z</time>
      </trkpt>
      <trkpt lat="45.73337" lon="4.62368">
        <ele>632.8</ele>
        <time>2025-12-15T13:20:28Z</time>
      </trkpt>
      <trkpt lat="45.73338" lon="4.62364">
        <ele>633.4</ele>
        <time>2025-12-15T13:20:29Z</time>
      </trkpt>
      <trkpt lat="45.73339" lon="4.62361">
        <ele>633.8</ele>
        <time>2025-12-15T13:20:30Z</time>
      </trkpt>
      <trkpt lat="45.7334" lon="4.62357">
        <ele>634.4</ele>
        <time>2025-12-15T13:20:31Z</time>
      </trkpt>
      <trkpt lat="45.73341" lon="4.62354">
        <ele>634.8</ele>
        <time>2025-12-15T13:20:32Z</time>
      </trkpt>
      <trkpt lat="45.73342" lon="4.62351">
        <ele>635.4</ele>
        <time>2025-12-15T13:20:33Z</time>
      </trkpt>
      <trkpt lat="45.73343" lon="4.62348">
        <ele>636</ele>
        <time>2025-12-15T13:20:34Z</time>
      </trkpt>
      <trkpt lat="45.73344" lon="4.62345">
        <ele>636.4</ele>
        <time>2025-12-15T13:20:35Z</time>
      </trkpt>
      <trkpt lat="45.73346" lon="4.62343">
        <ele>637</ele>
        <time>2025-12-15T13:20:36Z</time>
      </trkpt>
      <trkpt lat="45.73348" lon="4.62341">
        <ele>637.6</ele>
        <time>2025-12-15T13:20:37Z</time>
      </trkpt>
      <trkpt lat="45.73349" lon="4.62339">
        <ele>638.2</ele>
        <time>2025-12-15T13:20:38Z</time>
      </trkpt>
      <trkpt lat="45.7335" lon="4.62336">
        <ele>638.8</ele>
        <time>2025-12-15T13:20:39Z</time>
      </trkpt>
      <trkpt lat="45.7335" lon="4.62332">
        <ele>639.4</ele>
        <time>2025-12-15T13:20:40Z</time>
      </trkpt>
      <trkpt lat="45.73351" lon="4.6233">
        <ele>639.8</ele>
        <time>2025-12-15T13:20:41Z</time>
      </trkpt>
      <trkpt lat="45.73353" lon="4.62327">
        <ele>640.4</ele>
        <time>2025-12-15T13:20:42Z</time>
      </trkpt>
      <trkpt lat="45.73354" lon="4.62324">
        <ele>640.8</ele>
        <time>2025-12-15T13:20:43Z</time>
      </trkpt>
      <trkpt lat="45.73356" lon="4.62322">
        <ele>641.4</ele>
        <time>2025-12-15T13:20:44Z</time>
      </trkpt>
      <trkpt lat="45.73357" lon="4.62319">
        <ele>641.8</ele>
        <time>2025-12-15T13:20:45Z</time>
      </trkpt>
      <trkpt lat="45.73358" lon="4.62317">
        <ele>642.4</ele>
        <time>2025-12-15T13:20:46Z</time>
      </trkpt>
      <trkpt lat="45.73359" lon="4.62314">
        <ele>643</ele>
        <time>2025-12-15T13:20:47Z</time>
      </trkpt>
      <trkpt lat="45.7336" lon="4.62312">
        <ele>643.4</ele>
        <time>2025-12-15T13:20:48Z</time>
      </trkpt>
      <trkpt lat="45.73361" lon="4.6231">
        <ele>644</ele>
        <time>2025-12-15T13:20:49Z</time>
      </trkpt>
      <trkpt lat="45.73361" lon="4.62308">
        <ele>644.6</ele>
        <time>2025-12-15T13:20:50Z</time>
      </trkpt>
      <trkpt lat="45.73361" lon="4.62306">
        <ele>645</ele>
        <time>2025-12-15T13:20:51Z</time>
      </trkpt>
      <trkpt lat="45.73362" lon="4.62303">
        <ele>645.4</ele>
        <time>2025-12-15T13:20:52Z</time>
      </trkpt>
      <trkpt lat="45.73362" lon="4.62301">
        <ele>645.8</ele>
        <time>2025-12-15T13:20:53Z</time>
      </trkpt>
      <trkpt lat="45.73363" lon="4.62299">
        <ele>646.2</ele>
        <time>2025-12-15T13:20:54Z</time>
      </trkpt>
      <trkpt lat="45.73363" lon="4.62296">
        <ele>646.6</ele>
        <time>2025-12-15T13:20:55Z</time>
      </trkpt>
      <trkpt lat="45.73363" lon="4.62294">
        <ele>647</ele>
        <time>2025-12-15T13:20:56Z</time>
      </trkpt>
      <trkpt lat="45.73363" lon="4.62292">
        <ele>647.2</ele>
        <time>2025-12-15T13:20:57Z</time>
      </trkpt>
      <trkpt lat="45.73363" lon="4.62289">
        <ele>647.6</ele>
        <time>2025-12-15T13:20:58Z</time>
      </trkpt>
      <trkpt lat="45.73362" lon="4.62286">
        <ele>648</ele>
        <time>2025-12-15T13:20:59Z</time>
      </trkpt>
      <trkpt lat="45.73363" lon="4.62283">
        <ele>648.4</ele>
        <time>2025-12-15T13:21:00Z</time>
      </trkpt>
      <trkpt lat="45.73363" lon="4.6228">
        <ele>648.6</ele>
        <time>2025-12-15T13:21:01Z</time>
      </trkpt>
      <trkpt lat="45.73363" lon="4.62278">
        <ele>649</ele>
        <time>2025-12-15T13:21:02Z</time>
      </trkpt>
      <trkpt lat="45.73363" lon="4.62276">
        <ele>649.4</ele>
        <time>2025-12-15T13:21:03Z</time>
      </trkpt>
      <trkpt lat="45.73363" lon="4.62273">
        <ele>649.6</ele>
        <time>2025-12-15T13:21:04Z</time>
      </trkpt>
      <trkpt lat="45.73363" lon="4.62269">
        <ele>650</ele>
        <time>2025-12-15T13:21:05Z</time>
      </trkpt>
      <trkpt lat="45.73363" lon="4.62266">
        <ele>650.2</ele>
        <time>2025-12-15T13:21:06Z</time>
      </trkpt>
      <trkpt lat="45.73364" lon="4.62263">
        <ele>650.4</ele>
        <time>2025-12-15T13:21:07Z</time>
      </trkpt>
      <trkpt lat="45.73363" lon="4.6226">
        <ele>650.8</ele>
        <time>2025-12-15T13:21:08Z</time>
      </trkpt>
      <trkpt lat="45.73363" lon="4.62257">
        <ele>651.2</ele>
        <time>2025-12-15T13:21:09Z</time>
      </trkpt>
      <trkpt lat="45.73363" lon="4.62254">
        <ele>651.4</ele>
        <time>2025-12-15T13:21:10Z</time>
      </trkpt>
      <trkpt lat="45.73364" lon="4.62252">
        <ele>651.8</ele>
        <time>2025-12-15T13:21:11Z</time>
      </trkpt>
      <trkpt lat="45.73364" lon="4.62249">
        <ele>652</ele>
        <time>2025-12-15T13:21:12Z</time>
      </trkpt>
      <trkpt lat="45.73364" lon="4.62246">
        <ele>652.2</ele>
        <time>2025-12-15T13:21:13Z</time>
      </trkpt>
      <trkpt lat="45.73365" lon="4.62242">
        <ele>652.4</ele>
        <time>2025-12-15T13:21:14Z</time>
      </trkpt>
      <trkpt lat="45.73365" lon="4.62239">
        <ele>652.4</ele>
        <time>2025-12-15T13:21:15Z</time>
      </trkpt>
      <trkpt lat="45.73366" lon="4.62236">
        <ele>652.6</ele>
        <time>2025-12-15T13:21:16Z</time>
      </trkpt>
      <trkpt lat="45.73367" lon="4.62233">
        <ele>652.8</ele>
        <time>2025-12-15T13:21:17Z</time>
      </trkpt>
      <trkpt lat="45.73368" lon="4.6223">
        <ele>652.8</ele>
        <time>2025-12-15T13:21:18Z</time>
      </trkpt>
      <trkpt lat="45.73368" lon="4.62227">
        <ele>653</ele>
        <time>2025-12-15T13:21:19Z</time>
      </trkpt>
      <trkpt lat="45.73369" lon="4.62223">
        <ele>653.2</ele>
        <time>2025-12-15T13:21:20Z</time>
      </trkpt>
      <trkpt lat="45.7337" lon="4.6222">
        <ele>653.2</ele>
        <time>2025-12-15T13:21:21Z</time>
      </trkpt>
      <trkpt lat="45.73371" lon="4.62216">
        <ele>653.4</ele>
        <time>2025-12-15T13:21:22Z</time>
      </trkpt>
      <trkpt lat="45.73372" lon="4.62212">
        <ele>653.4</ele>
        <time>2025-12-15T13:21:23Z</time>
      </trkpt>
      <trkpt lat="45.73372" lon="4.62207">
        <ele>653.4</ele>
        <time>2025-12-15T13:21:24Z</time>
      </trkpt>
      <trkpt lat="45.73373" lon="4.62203">
        <ele>653.4</ele>
        <time>2025-12-15T13:21:25Z</time>
      </trkpt>
      <trkpt lat="45.73374" lon="4.62199">
        <ele>653.4</ele>
        <time>2025-12-15T13:21:26Z</time>
      </trkpt>
      <trkpt lat="45.73375" lon="4.62195">
        <ele>653.2</ele>
        <time>2025-12-15T13:21:27Z</time>
      </trkpt>
      <trkpt lat="45.73376" lon="4.62192">
        <ele>653.2</ele>
        <time>2025-12-15T13:21:28Z</time>
      </trkpt>
      <trkpt lat="45.73377" lon="4.62187">
        <ele>653.2</ele>
        <time>2025-12-15T13:21:29Z</time>
      </trkpt>
      <trkpt lat="45.73378" lon="4.62183">
        <ele>653.2</ele>
        <time>2025-12-15T13:21:30Z</time>
      </trkpt>
      <trkpt lat="45.7338" lon="4.62179">
        <ele>653.2</ele>
        <time>2025-12-15T13:21:31Z</time>
      </trkpt>
      <trkpt lat="45.73381" lon="4.62175">
        <ele>653.2</ele>
        <time>2025-12-15T13:21:32Z</time>
      </trkpt>
      <trkpt lat="45.73381" lon="4.62171">
        <ele>653.2</ele>
        <time>2025-12-15T13:21:33Z</time>
      </trkpt>
      <trkpt lat="45.73382" lon="4.62168">
        <ele>653.4</ele>
        <time>2025-12-15T13:21:34Z</time>
      </trkpt>
      <trkpt lat="45.73383" lon="4.62164">
        <ele>653.4</ele>
        <time>2025-12-15T13:21:35Z</time>
      </trkpt>
      <trkpt lat="45.73385" lon="4.6216">
        <ele>653.6</ele>
        <time>2025-12-15T13:21:36Z</time>
      </trkpt>
      <trkpt lat="45.73386" lon="4.62156">
        <ele>653.6</ele>
        <time>2025-12-15T13:21:37Z</time>
      </trkpt>
      <trkpt lat="45.73388" lon="4.62152">
        <ele>653.6</ele>
        <time>2025-12-15T13:21:38Z</time>
      </trkpt>
      <trkpt lat="45.73389" lon="4.62148">
        <ele>653.8</ele>
        <time>2025-12-15T13:21:39Z</time>
      </trkpt>
      <trkpt lat="45.7339" lon="4.62144">
        <ele>653.8</ele>
        <time>2025-12-15T13:21:40Z</time>
      </trkpt>
      <trkpt lat="45.73391" lon="4.6214">
        <ele>654</ele>
        <time>2025-12-15T13:21:41Z</time>
      </trkpt>
      <trkpt lat="45.73392" lon="4.62136">
        <ele>654.4</ele>
        <time>2025-12-15T13:21:42Z</time>
      </trkpt>
      <trkpt lat="45.73392" lon="4.62132">
        <ele>654.6</ele>
        <time>2025-12-15T13:21:43Z</time>
      </trkpt>
      <trkpt lat="45.73393" lon="4.62128">
        <ele>655</ele>
        <time>2025-12-15T13:21:44Z</time>
      </trkpt>
      <trkpt lat="45.73393" lon="4.62125">
        <ele>655.2</ele>
        <time>2025-12-15T13:21:45Z</time>
      </trkpt>
      <trkpt lat="45.73394" lon="4.62121">
        <ele>655.4</ele>
        <time>2025-12-15T13:21:46Z</time>
      </trkpt>
      <trkpt lat="45.73394" lon="4.62118">
        <ele>655.8</ele>
        <time>2025-12-15T13:21:47Z</time>
      </trkpt>
      <trkpt lat="45.73395" lon="4.62114">
        <ele>656</ele>
        <time>2025-12-15T13:21:48Z</time>
      </trkpt>
      <trkpt lat="45.73396" lon="4.6211">
        <ele>656.4</ele>
        <time>2025-12-15T13:21:49Z</time>
      </trkpt>
      <trkpt lat="45.73396" lon="4.62106">
        <ele>656.6</ele>
        <time>2025-12-15T13:21:50Z</time>
      </trkpt>
      <trkpt lat="45.73397" lon="4.62102">
        <ele>657</ele>
        <time>2025-12-15T13:21:51Z</time>
      </trkpt>
      <trkpt lat="45.73397" lon="4.62098">
        <ele>657.2</ele>
        <time>2025-12-15T13:21:52Z</time>
      </trkpt>
      <trkpt lat="45.73398" lon="4.62094">
        <ele>657.6</ele>
        <time>2025-12-15T13:21:53Z</time>
      </trkpt>
      <trkpt lat="45.73399" lon="4.62089">
        <ele>657.8</ele>
        <time>2025-12-15T13:21:54Z</time>
      </trkpt>
      <trkpt lat="45.73399" lon="4.62085">
        <ele>658</ele>
        <time>2025-12-15T13:21:55Z</time>
      </trkpt>
      <trkpt lat="45.73399" lon="4.62081">
        <ele>658.2</ele>
        <time>2025-12-15T13:21:56Z</time>
      </trkpt>
      <trkpt lat="45.73399" lon="4.62077">
        <ele>658.4</ele>
        <time>2025-12-15T13:21:57Z</time>
      </trkpt>
      <trkpt lat="45.73399" lon="4.62073">
        <ele>658.6</ele>
        <time>2025-12-15T13:21:58Z</time>
      </trkpt>
      <trkpt lat="45.73399" lon="4.62069">
        <ele>658.8</ele>
        <time>2025-12-15T13:21:59Z</time>
      </trkpt>
      <trkpt lat="45.73399" lon="4.62065">
        <ele>659</ele>
        <time>2025-12-15T13:22:00Z</time>
      </trkpt>
      <trkpt lat="45.73399" lon="4.62061">
        <ele>659.2</ele>
        <time>2025-12-15T13:22:01Z</time>
      </trkpt>
      <trkpt lat="45.734" lon="4.62057">
        <ele>659.4</ele>
        <time>2025-12-15T13:22:02Z</time>
      </trkpt>
      <trkpt lat="45.734" lon="4.62053">
        <ele>659.6</ele>
        <time>2025-12-15T13:22:03Z</time>
      </trkpt>
      <trkpt lat="45.734" lon="4.62049">
        <ele>659.8</ele>
        <time>2025-12-15T13:22:04Z</time>
      </trkpt>
      <trkpt lat="45.734" lon="4.62044">
        <ele>660</ele>
        <time>2025-12-15T13:22:05Z</time>
      </trkpt>
      <trkpt lat="45.73399" lon="4.6204">
        <ele>660.2</ele>
        <time>2025-12-15T13:22:06Z</time>
      </trkpt>
      <trkpt lat="45.73399" lon="4.62036">
        <ele>660.2</ele>
        <time>2025-12-15T13:22:07Z</time>
      </trkpt>
      <trkpt lat="45.73399" lon="4.62032">
        <ele>660.4</ele>
        <time>2025-12-15T13:22:08Z</time>
      </trkpt>
      <trkpt lat="45.73398" lon="4.62028">
        <ele>660.6</ele>
        <time>2025-12-15T13:22:09Z</time>
      </trkpt>
      <trkpt lat="45.73398" lon="4.62024">
        <ele>660.8</ele>
        <time>2025-12-15T13:22:10Z</time>
      </trkpt>
      <trkpt lat="45.73398" lon="4.6202">
        <ele>661</ele>
        <time>2025-12-15T13:22:11Z</time>
      </trkpt>
      <trkpt lat="45.73398" lon="4.62016">
        <ele>661.2</ele>
        <time>2025-12-15T13:22:12Z</time>
      </trkpt>
      <trkpt lat="45.73397" lon="4.62012">
        <ele>661.4</ele>
        <time>2025-12-15T13:22:13Z</time>
      </trkpt>
      <trkpt lat="45.73397" lon="4.62008">
        <ele>661.6</ele>
        <time>2025-12-15T13:22:14Z</time>
      </trkpt>
      <trkpt lat="45.73397" lon="4.62004">
        <ele>661.8</ele>
        <time>2025-12-15T13:22:15Z</time>
      </trkpt>
      <trkpt lat="45.73397" lon="4.62">
        <ele>662</ele>
        <time>2025-12-15T13:22:16Z</time>
      </trkpt>
      <trkpt lat="45.73396" lon="4.61996">
        <ele>662.2</ele>
        <time>2025-12-15T13:22:17Z</time>
      </trkpt>
      <trkpt lat="45.73396" lon="4.61992">
        <ele>662.4</ele>
        <time>2025-12-15T13:22:18Z</time>
      </trkpt>
      <trkpt lat="45.73396" lon="4.61988">
        <ele>662.8</ele>
        <time>2025-12-15T13:22:19Z</time>
      </trkpt>
      <trkpt lat="45.73396" lon="4.61984">
        <ele>662.8</ele>
        <time>2025-12-15T13:22:20Z</time>
      </trkpt>
      <trkpt lat="45.73396" lon="4.6198">
        <ele>663</ele>
        <time>2025-12-15T13:22:21Z</time>
      </trkpt>
      <trkpt lat="45.73395" lon="4.61976">
        <ele>663.2</ele>
        <time>2025-12-15T13:22:22Z</time>
      </trkpt>
      <trkpt lat="45.73395" lon="4.61972">
        <ele>663.4</ele>
        <time>2025-12-15T13:22:23Z</time>
      </trkpt>
      <trkpt lat="45.73394" lon="4.61969">
        <ele>663.6</ele>
        <time>2025-12-15T13:22:24Z</time>
      </trkpt>
      <trkpt lat="45.73393" lon="4.61965">
        <ele>663.8</ele>
        <time>2025-12-15T13:22:25Z</time>
      </trkpt>
      <trkpt lat="45.73392" lon="4.61961">
        <ele>664</ele>
        <time>2025-12-15T13:22:26Z</time>
      </trkpt>
      <trkpt lat="45.73391" lon="4.61959">
        <ele>664.2</ele>
        <time>2025-12-15T13:22:27Z</time>
      </trkpt>
      <trkpt lat="45.7339" lon="4.61957">
        <ele>664.4</ele>
        <time>2025-12-15T13:22:28Z</time>
      </trkpt>
      <trkpt lat="45.73389" lon="4.61955">
        <ele>664.6</ele>
        <time>2025-12-15T13:22:29Z</time>
      </trkpt>
      <trkpt lat="45.73388" lon="4.61952">
        <ele>664.6</ele>
        <time>2025-12-15T13:22:30Z</time>
      </trkpt>
      <trkpt lat="45.73386" lon="4.61949">
        <ele>664.6</ele>
        <time>2025-12-15T13:22:31Z</time>
      </trkpt>
      <trkpt lat="45.73385" lon="4.61945">
        <ele>664.4</ele>
        <time>2025-12-15T13:22:32Z</time>
      </trkpt>
      <trkpt lat="45.73383" lon="4.61941">
        <ele>664.2</ele>
        <time>2025-12-15T13:22:33Z</time>
      </trkpt>
      <trkpt lat="45.73382" lon="4.61938">
        <ele>663.8</ele>
        <time>2025-12-15T13:22:34Z</time>
      </trkpt>
      <trkpt lat="45.7338" lon="4.61934">
        <ele>663.4</ele>
        <time>2025-12-15T13:22:35Z</time>
      </trkpt>
      <trkpt lat="45.73377" lon="4.61931">
        <ele>663.2</ele>
        <time>2025-12-15T13:22:36Z</time>
      </trkpt>
      <trkpt lat="45.73375" lon="4.61928">
        <ele>662.8</ele>
        <time>2025-12-15T13:22:37Z</time>
      </trkpt>
      <trkpt lat="45.73372" lon="4.61924">
        <ele>662.6</ele>
        <time>2025-12-15T13:22:38Z</time>
      </trkpt>
      <trkpt lat="45.73369" lon="4.61922">
        <ele>662.4</ele>
        <time>2025-12-15T13:22:39Z</time>
      </trkpt>
      <trkpt lat="45.73366" lon="4.61919">
        <ele>662.2</ele>
        <time>2025-12-15T13:22:40Z</time>
      </trkpt>
      <trkpt lat="45.73363" lon="4.61916">
        <ele>662.2</ele>
        <time>2025-12-15T13:22:41Z</time>
      </trkpt>
      <trkpt lat="45.7336" lon="4.61913">
        <ele>662</ele>
        <time>2025-12-15T13:22:42Z</time>
      </trkpt>
      <trkpt lat="45.73358" lon="4.6191">
        <ele>662</ele>
        <time>2025-12-15T13:22:43Z</time>
      </trkpt>
      <trkpt lat="45.73356" lon="4.61906">
        <ele>662</ele>
        <time>2025-12-15T13:22:44Z</time>
      </trkpt>
      <trkpt lat="45.73352" lon="4.61901">
        <ele>662</ele>
        <time>2025-12-15T13:22:45Z</time>
      </trkpt>
      <trkpt lat="45.73349" lon="4.61896">
        <ele>661.8</ele>
        <time>2025-12-15T13:22:46Z</time>
      </trkpt>
      <trkpt lat="45.73346" lon="4.6189">
        <ele>661.4</ele>
        <time>2025-12-15T13:22:47Z</time>
      </trkpt>
      <trkpt lat="45.73342" lon="4.61883">
        <ele>661.2</ele>
        <time>2025-12-15T13:22:48Z</time>
      </trkpt>
      <trkpt lat="45.73338" lon="4.61876">
        <ele>660.8</ele>
        <time>2025-12-15T13:22:49Z</time>
      </trkpt>
      <trkpt lat="45.73335" lon="4.61869">
        <ele>660.4</ele>
        <time>2025-12-15T13:22:50Z</time>
      </trkpt>
      <trkpt lat="45.73332" lon="4.61862">
        <ele>660</ele>
        <time>2025-12-15T13:22:51Z</time>
      </trkpt>
      <trkpt lat="45.73329" lon="4.61854">
        <ele>659.8</ele>
        <time>2025-12-15T13:22:52Z</time>
      </trkpt>
      <trkpt lat="45.73326" lon="4.61847">
        <ele>659.6</ele>
        <time>2025-12-15T13:22:53Z</time>
      </trkpt>
      <trkpt lat="45.73324" lon="4.6184">
        <ele>659.4</ele>
        <time>2025-12-15T13:22:54Z</time>
      </trkpt>
      <trkpt lat="45.73322" lon="4.61833">
        <ele>659.4</ele>
        <time>2025-12-15T13:22:55Z</time>
      </trkpt>
      <trkpt lat="45.7332" lon="4.61827">
        <ele>659.6</ele>
        <time>2025-12-15T13:22:56Z</time>
      </trkpt>
      <trkpt lat="45.73318" lon="4.61821">
        <ele>659.6</ele>
        <time>2025-12-15T13:22:57Z</time>
      </trkpt>
      <trkpt lat="45.73317" lon="4.61816">
        <ele>659.8</ele>
        <time>2025-12-15T13:22:58Z</time>
      </trkpt>
      <trkpt lat="45.73316" lon="4.61811">
        <ele>660.2</ele>
        <time>2025-12-15T13:22:59Z</time>
      </trkpt>
      <trkpt lat="45.73315" lon="4.61806">
        <ele>660.4</ele>
        <time>2025-12-15T13:23:00Z</time>
      </trkpt>
      <trkpt lat="45.73314" lon="4.61801">
        <ele>660.6</ele>
        <time>2025-12-15T13:23:01Z</time>
      </trkpt>
      <trkpt lat="45.73313" lon="4.61796">
        <ele>660.8</ele>
        <time>2025-12-15T13:23:02Z</time>
      </trkpt>
      <trkpt lat="45.73312" lon="4.61791">
        <ele>660.8</ele>
        <time>2025-12-15T13:23:03Z</time>
      </trkpt>
      <trkpt lat="45.73311" lon="4.61787">
        <ele>660.8</ele>
        <time>2025-12-15T13:23:04Z</time>
      </trkpt>
      <trkpt lat="45.7331" lon="4.61782">
        <ele>660.8</ele>
        <time>2025-12-15T13:23:05Z</time>
      </trkpt>
      <trkpt lat="45.73309" lon="4.61777">
        <ele>660.6</ele>
        <time>2025-12-15T13:23:06Z</time>
      </trkpt>
      <trkpt lat="45.73307" lon="4.61772">
        <ele>660.6</ele>
        <time>2025-12-15T13:23:07Z</time>
      </trkpt>
      <trkpt lat="45.73306" lon="4.61768">
        <ele>660.6</ele>
        <time>2025-12-15T13:23:08Z</time>
      </trkpt>
      <trkpt lat="45.73305" lon="4.61763">
        <ele>660.6</ele>
        <time>2025-12-15T13:23:09Z</time>
      </trkpt>
      <trkpt lat="45.73304" lon="4.61757">
        <ele>660.4</ele>
        <time>2025-12-15T13:23:10Z</time>
      </trkpt>
      <trkpt lat="45.73303" lon="4.61751">
        <ele>660</ele>
        <time>2025-12-15T13:23:11Z</time>
      </trkpt>
      <trkpt lat="45.73302" lon="4.61744">
        <ele>659.8</ele>
        <time>2025-12-15T13:23:12Z</time>
      </trkpt>
      <trkpt lat="45.733" lon="4.61736">
        <ele>659.2</ele>
        <time>2025-12-15T13:23:13Z</time>
      </trkpt>
      <trkpt lat="45.73299" lon="4.61726">
        <ele>658.4</ele>
        <time>2025-12-15T13:23:14Z</time>
      </trkpt>
      <trkpt lat="45.73297" lon="4.61717">
        <ele>657.4</ele>
        <time>2025-12-15T13:23:15Z</time>
      </trkpt>
      <trkpt lat="45.73296" lon="4.6171">
        <ele>656.4</ele>
        <time>2025-12-15T13:23:16Z</time>
      </trkpt>
      <trkpt lat="45.73295" lon="4.61704">
        <ele>655.8</ele>
        <time>2025-12-15T13:23:17Z</time>
      </trkpt>
      <trkpt lat="45.73295" lon="4.61701">
        <ele>655.2</ele>
        <time>2025-12-15T13:23:18Z</time>
      </trkpt>
      <trkpt lat="45.73295" lon="4.61698">
        <ele>654.8</ele>
        <time>2025-12-15T13:23:19Z</time>
      </trkpt>
      <trkpt lat="45.73295" lon="4.61697">
        <ele>654.4</ele>
        <time>2025-12-15T13:23:20Z</time>
      </trkpt>
      <trkpt lat="45.73295" lon="4.61697">
        <ele>654.4</ele>
        <time>2025-12-15T13:23:21Z</time>
      </trkpt>
      <trkpt lat="45.73295" lon="4.61697">
        <ele>654.4</ele>
        <time>2025-12-15T13:23:22Z</time>
      </trkpt>
      <trkpt lat="45.73295" lon="4.61697">
        <ele>654.4</ele>
        <time>2025-12-15T13:23:23Z</time>
      </trkpt>
      <trkpt lat="45.73295" lon="4.61697">
        <ele>654.4</ele>
        <time>2025-12-15T13:23:24Z</time>
      </trkpt>
      <trkpt lat="45.73295" lon="4.61697">
        <ele>654.4</ele>
        <time>2025-12-15T13:23:25Z</time>
      </trkpt>
      <trkpt lat="45.73295" lon="4.61697">
        <ele>654.4</ele>
        <time>2025-12-15T13:23:26Z</time>
      </trkpt>
      <trkpt lat="45.73295" lon="4.61697">
        <ele>654.4</ele>
        <time>2025-12-15T13:23:27Z</time>
      </trkpt>
      <trkpt lat="45.73295" lon="4.61697">
        <ele>654.4</ele>
        <time>2025-12-15T13:23:28Z</time>
      </trkpt>
      <trkpt lat="45.73295" lon="4.61697">
        <ele>654.4</ele>
        <time>2025-12-15T13:23:29Z</time>
      </trkpt>
      <trkpt lat="45.73295" lon="4.61697">
        <ele>654.4</ele>
        <time>2025-12-15T13:23:30Z</time>
      </trkpt>
      <trkpt lat="45.73295" lon="4.61697">
        <ele>654.4</ele>
        <time>2025-12-15T13:23:31Z</time>
      </trkpt>
      <trkpt lat="45.73295" lon="4.61697">
        <ele>654.4</ele>
        <time>2025-12-15T13:23:32Z</time>
      </trkpt>
      <trkpt lat="45.73294" lon="4.61698">
        <ele>654.4</ele>
        <time>2025-12-15T13:23:33Z</time>
      </trkpt>
      <trkpt lat="45.73294" lon="4.61699">
        <ele>654.4</ele>
        <time>2025-12-15T13:23:34Z</time>
      </trkpt>
      <trkpt lat="45.73294" lon="4.617">
        <ele>654.4</ele>
        <time>2025-12-15T13:23:35Z</time>
      </trkpt>
      <trkpt lat="45.73294" lon="4.617">
        <ele>654.4</ele>
        <time>2025-12-15T13:23:36Z</time>
      </trkpt>
      <trkpt lat="45.73294" lon="4.617">
        <ele>654.4</ele>
        <time>2025-12-15T13:23:37Z</time>
      </trkpt>
      <trkpt lat="45.73294" lon="4.61701">
        <ele>654.4</ele>
        <time>2025-12-15T13:23:38Z</time>
      </trkpt>
      <trkpt lat="45.73294" lon="4.61701">
        <ele>654.4</ele>
        <time>2025-12-15T13:23:39Z</time>
      </trkpt>
      <trkpt lat="45.73294" lon="4.61703">
        <ele>654.4</ele>
        <time>2025-12-15T13:23:40Z</time>
      </trkpt>
      <trkpt lat="45.73295" lon="4.61705">
        <ele>654.6</ele>
        <time>2025-12-15T13:23:41Z</time>
      </trkpt>
      <trkpt lat="45.73295" lon="4.61708">
        <ele>654.6</ele>
        <time>2025-12-15T13:23:42Z</time>
      </trkpt>
      <trkpt lat="45.73296" lon="4.6171">
        <ele>654.6</ele>
        <time>2025-12-15T13:23:43Z</time>
      </trkpt>
      <trkpt lat="45.73296" lon="4.61713">
        <ele>654.8</ele>
        <time>2025-12-15T13:23:44Z</time>
      </trkpt>
      <trkpt lat="45.73296" lon="4.61716">
        <ele>655</ele>
        <time>2025-12-15T13:23:45Z</time>
      </trkpt>
      <trkpt lat="45.73297" lon="4.61719">
        <ele>655</ele>
        <time>2025-12-15T13:23:46Z</time>
      </trkpt>
      <trkpt lat="45.73297" lon="4.61722">
        <ele>655.2</ele>
        <time>2025-12-15T13:23:47Z</time>
      </trkpt>
      <trkpt lat="45.73299" lon="4.61724">
        <ele>655.6</ele>
        <time>2025-12-15T13:23:48Z</time>
      </trkpt>
      <trkpt lat="45.733" lon="4.61724">
        <ele>655.8</ele>
        <time>2025-12-15T13:23:49Z</time>
      </trkpt>
      <trkpt lat="45.733" lon="4.61723">
        <ele>656.2</ele>
        <time>2025-12-15T13:23:50Z</time>
      </trkpt>
      <trkpt lat="45.733" lon="4.61721">
        <ele>656.6</ele>
        <time>2025-12-15T13:23:51Z</time>
      </trkpt>
      <trkpt lat="45.733" lon="4.6172">
        <ele>657</ele>
        <time>2025-12-15T13:23:52Z</time>
      </trkpt>
      <trkpt lat="45.733" lon="4.6172">
        <ele>657.4</ele>
        <time>2025-12-15T13:23:53Z</time>
      </trkpt>
      <trkpt lat="45.733" lon="4.61718">
        <ele>657.8</ele>
        <time>2025-12-15T13:23:54Z</time>
      </trkpt>
      <trkpt lat="45.73301" lon="4.61716">
        <ele>658</ele>
        <time>2025-12-15T13:23:55Z</time>
      </trkpt>
      <trkpt lat="45.73302" lon="4.61711">
        <ele>658</ele>
        <time>2025-12-15T13:23:56Z</time>
      </trkpt>
      <trkpt lat="45.73303" lon="4.61706">
        <ele>658</ele>
        <time>2025-12-15T13:23:57Z</time>
      </trkpt>
      <trkpt lat="45.73304" lon="4.61701">
        <ele>658</ele>
        <time>2025-12-15T13:23:58Z</time>
      </trkpt>
      <trkpt lat="45.73305" lon="4.61696">
        <ele>658</ele>
        <time>2025-12-15T13:23:59Z</time>
      </trkpt>
      <trkpt lat="45.73307" lon="4.61691">
        <ele>657.8</ele>
        <time>2025-12-15T13:24:00Z</time>
      </trkpt>
      <trkpt lat="45.73308" lon="4.61685">
        <ele>657.8</ele>
        <time>2025-12-15T13:24:01Z</time>
      </trkpt>
      <trkpt lat="45.73309" lon="4.61681">
        <ele>657.8</ele>
        <time>2025-12-15T13:24:02Z</time>
      </trkpt>
      <trkpt lat="45.7331" lon="4.61676">
        <ele>658</ele>
        <time>2025-12-15T13:24:03Z</time>
      </trkpt>
      <trkpt lat="45.73312" lon="4.61672">
        <ele>658</ele>
        <time>2025-12-15T13:24:04Z</time>
      </trkpt>
      <trkpt lat="45.73313" lon="4.61667">
        <ele>658.2</ele>
        <time>2025-12-15T13:24:05Z</time>
      </trkpt>
      <trkpt lat="45.73315" lon="4.61661">
        <ele>658.2</ele>
        <time>2025-12-15T13:24:06Z</time>
      </trkpt>
      <trkpt lat="45.73317" lon="4.61657">
        <ele>658.2</ele>
        <time>2025-12-15T13:24:07Z</time>
      </trkpt>
      <trkpt lat="45.73318" lon="4.61652">
        <ele>658.2</ele>
        <time>2025-12-15T13:24:08Z</time>
      </trkpt>
      <trkpt lat="45.7332" lon="4.61648">
        <ele>658.2</ele>
        <time>2025-12-15T13:24:09Z</time>
      </trkpt>
      <trkpt lat="45.73321" lon="4.61644">
        <ele>658.4</ele>
        <time>2025-12-15T13:24:10Z</time>
      </trkpt>
      <trkpt lat="45.73324" lon="4.61639">
        <ele>658.4</ele>
        <time>2025-12-15T13:24:11Z</time>
      </trkpt>
      <trkpt lat="45.73326" lon="4.61634">
        <ele>658.4</ele>
        <time>2025-12-15T13:24:12Z</time>
      </trkpt>
      <trkpt lat="45.7333" lon="4.61631">
        <ele>658.4</ele>
        <time>2025-12-15T13:24:13Z</time>
      </trkpt>
      <trkpt lat="45.73332" lon="4.61629">
        <ele>658.6</ele>
        <time>2025-12-15T13:24:14Z</time>
      </trkpt>
      <trkpt lat="45.73334" lon="4.61625">
        <ele>658.6</ele>
        <time>2025-12-15T13:24:15Z</time>
      </trkpt>
      <trkpt lat="45.73336" lon="4.61621">
        <ele>659</ele>
        <time>2025-12-15T13:24:16Z</time>
      </trkpt>
      <trkpt lat="45.73337" lon="4.61617">
        <ele>659.2</ele>
        <time>2025-12-15T13:24:17Z</time>
      </trkpt>
      <trkpt lat="45.73338" lon="4.61614">
        <ele>659.6</ele>
        <time>2025-12-15T13:24:18Z</time>
      </trkpt>
      <trkpt lat="45.73339" lon="4.61609">
        <ele>659.8</ele>
        <time>2025-12-15T13:24:19Z</time>
      </trkpt>
      <trkpt lat="45.7334" lon="4.61605">
        <ele>660</ele>
        <time>2025-12-15T13:24:20Z</time>
      </trkpt>
      <trkpt lat="45.73342" lon="4.61602">
        <ele>660</ele>
        <time>2025-12-15T13:24:21Z</time>
      </trkpt>
      <trkpt lat="45.73344" lon="4.61599">
        <ele>660.2</ele>
        <time>2025-12-15T13:24:22Z</time>
      </trkpt>
      <trkpt lat="45.73346" lon="4.61597">
        <ele>660.4</ele>
        <time>2025-12-15T13:24:23Z</time>
      </trkpt>
      <trkpt lat="45.73349" lon="4.61594">
        <ele>660.6</ele>
        <time>2025-12-15T13:24:24Z</time>
      </trkpt>
      <trkpt lat="45.73351" lon="4.6159">
        <ele>660.8</ele>
        <time>2025-12-15T13:24:25Z</time>
      </trkpt>
      <trkpt lat="45.73353" lon="4.61586">
        <ele>661</ele>
        <time>2025-12-15T13:24:26Z</time>
      </trkpt>
      <trkpt lat="45.73356" lon="4.61582">
        <ele>661.2</ele>
        <time>2025-12-15T13:24:27Z</time>
      </trkpt>
      <trkpt lat="45.73357" lon="4.61577">
        <ele>661.2</ele>
        <time>2025-12-15T13:24:28Z</time>
      </trkpt>
      <trkpt lat="45.73358" lon="4.61573">
        <ele>661.2</ele>
        <time>2025-12-15T13:24:29Z</time>
      </trkpt>
      <trkpt lat="45.73358" lon="4.61569">
        <ele>661.2</ele>
        <time>2025-12-15T13:24:30Z</time>
      </trkpt>
      <trkpt lat="45.7336" lon="4.61566">
        <ele>661.2</ele>
        <time>2025-12-15T13:24:31Z</time>
      </trkpt>
      <trkpt lat="45.73361" lon="4.61563">
        <ele>661.2</ele>
        <time>2025-12-15T13:24:32Z</time>
      </trkpt>
      <trkpt lat="45.73363" lon="4.6156">
        <ele>661.2</ele>
        <time>2025-12-15T13:24:33Z</time>
      </trkpt>
      <trkpt lat="45.73364" lon="4.61557">
        <ele>661.2</ele>
        <time>2025-12-15T13:24:34Z</time>
      </trkpt>
      <trkpt lat="45.73365" lon="4.61554">
        <ele>661.2</ele>
        <time>2025-12-15T13:24:35Z</time>
      </trkpt>
      <trkpt lat="45.73366" lon="4.61551">
        <ele>661.2</ele>
        <time>2025-12-15T13:24:36Z</time>
      </trkpt>
      <trkpt lat="45.73367" lon="4.61549">
        <ele>661.4</ele>
        <time>2025-12-15T13:24:37Z</time>
      </trkpt>
      <trkpt lat="45.73368" lon="4.61547">
        <ele>661.6</ele>
        <time>2025-12-15T13:24:38Z</time>
      </trkpt>
      <trkpt lat="45.73369" lon="4.61544">
        <ele>661.6</ele>
        <time>2025-12-15T13:24:39Z</time>
      </trkpt>
      <trkpt lat="45.7337" lon="4.61542">
        <ele>661.8</ele>
        <time>2025-12-15T13:24:40Z</time>
      </trkpt>
      <trkpt lat="45.73371" lon="4.61539">
        <ele>661.8</ele>
        <time>2025-12-15T13:24:41Z</time>
      </trkpt>
      <trkpt lat="45.73372" lon="4.61537">
        <ele>661.8</ele>
        <time>2025-12-15T13:24:42Z</time>
      </trkpt>
      <trkpt lat="45.73373" lon="4.61534">
        <ele>661.8</ele>
        <time>2025-12-15T13:24:43Z</time>
      </trkpt>
      <trkpt lat="45.73374" lon="4.61531">
        <ele>661.8</ele>
        <time>2025-12-15T13:24:44Z</time>
      </trkpt>
      <trkpt lat="45.73375" lon="4.61528">
        <ele>661.6</ele>
        <time>2025-12-15T13:24:45Z</time>
      </trkpt>
      <trkpt lat="45.73376" lon="4.61524">
        <ele>661.4</ele>
        <time>2025-12-15T13:24:46Z</time>
      </trkpt>
      <trkpt lat="45.73377" lon="4.61521">
        <ele>661.2</ele>
        <time>2025-12-15T13:24:47Z</time>
      </trkpt>
      <trkpt lat="45.73378" lon="4.61517">
        <ele>661.2</ele>
        <time>2025-12-15T13:24:48Z</time>
      </trkpt>
      <trkpt lat="45.73378" lon="4.61514">
        <ele>661</ele>
        <time>2025-12-15T13:24:49Z</time>
      </trkpt>
      <trkpt lat="45.73378" lon="4.6151">
        <ele>661</ele>
        <time>2025-12-15T13:24:50Z</time>
      </trkpt>
      <trkpt lat="45.73379" lon="4.61505">
        <ele>660.8</ele>
        <time>2025-12-15T13:24:51Z</time>
      </trkpt>
      <trkpt lat="45.73379" lon="4.615">
        <ele>660.8</ele>
        <time>2025-12-15T13:24:52Z</time>
      </trkpt>
      <trkpt lat="45.73381" lon="4.61494">
        <ele>660.8</ele>
        <time>2025-12-15T13:24:53Z</time>
      </trkpt>
      <trkpt lat="45.73382" lon="4.61489">
        <ele>660.6</ele>
        <time>2025-12-15T13:24:54Z</time>
      </trkpt>
      <trkpt lat="45.73382" lon="4.61483">
        <ele>660.6</ele>
        <time>2025-12-15T13:24:55Z</time>
      </trkpt>
      <trkpt lat="45.73384" lon="4.61477">
        <ele>660.4</ele>
        <time>2025-12-15T13:24:56Z</time>
      </trkpt>
      <trkpt lat="45.73385" lon="4.61472">
        <ele>660.2</ele>
        <time>2025-12-15T13:24:57Z</time>
      </trkpt>
      <trkpt lat="45.73386" lon="4.61469">
        <ele>660.2</ele>
        <time>2025-12-15T13:24:58Z</time>
      </trkpt>
      <trkpt lat="45.73388" lon="4.61465">
        <ele>660.2</ele>
        <time>2025-12-15T13:24:59Z</time>
      </trkpt>
      <trkpt lat="45.73389" lon="4.61461">
        <ele>660.2</ele>
        <time>2025-12-15T13:25:00Z</time>
      </trkpt>
      <trkpt lat="45.7339" lon="4.61457">
        <ele>660.4</ele>
        <time>2025-12-15T13:25:01Z</time>
      </trkpt>
      <trkpt lat="45.73392" lon="4.61453">
        <ele>660.4</ele>
        <time>2025-12-15T13:25:02Z</time>
      </trkpt>
      <trkpt lat="45.73392" lon="4.6145">
        <ele>660.4</ele>
        <time>2025-12-15T13:25:03Z</time>
      </trkpt>
      <trkpt lat="45.73392" lon="4.61446">
        <ele>660.4</ele>
        <time>2025-12-15T13:25:04Z</time>
      </trkpt>
      <trkpt lat="45.73393" lon="4.61442">
        <ele>660.4</ele>
        <time>2025-12-15T13:25:05Z</time>
      </trkpt>
      <trkpt lat="45.73392" lon="4.61439">
        <ele>660.2</ele>
        <time>2025-12-15T13:25:06Z</time>
      </trkpt>
      <trkpt lat="45.73392" lon="4.61435">
        <ele>660.2</ele>
        <time>2025-12-15T13:25:07Z</time>
      </trkpt>
      <trkpt lat="45.73393" lon="4.61431">
        <ele>660</ele>
        <time>2025-12-15T13:25:08Z</time>
      </trkpt>
      <trkpt lat="45.73394" lon="4.61427">
        <ele>660</ele>
        <time>2025-12-15T13:25:09Z</time>
      </trkpt>
      <trkpt lat="45.73394" lon="4.61422">
        <ele>660.2</ele>
        <time>2025-12-15T13:25:10Z</time>
      </trkpt>
      <trkpt lat="45.73394" lon="4.61418">
        <ele>660.2</ele>
        <time>2025-12-15T13:25:11Z</time>
      </trkpt>
      <trkpt lat="45.73394" lon="4.61415">
        <ele>660.4</ele>
        <time>2025-12-15T13:25:12Z</time>
      </trkpt>
      <trkpt lat="45.73395" lon="4.61412">
        <ele>660.4</ele>
        <time>2025-12-15T13:25:13Z</time>
      </trkpt>
      <trkpt lat="45.73394" lon="4.61409">
        <ele>660.6</ele>
        <time>2025-12-15T13:25:14Z</time>
      </trkpt>
      <trkpt lat="45.73393" lon="4.61407">
        <ele>660.6</ele>
        <time>2025-12-15T13:25:15Z</time>
      </trkpt>
      <trkpt lat="45.73391" lon="4.61406">
        <ele>660.6</ele>
        <time>2025-12-15T13:25:16Z</time>
      </trkpt>
      <trkpt lat="45.7339" lon="4.61406">
        <ele>660.4</ele>
        <time>2025-12-15T13:25:17Z</time>
      </trkpt>
      <trkpt lat="45.73389" lon="4.61406">
        <ele>660.2</ele>
        <time>2025-12-15T13:25:18Z</time>
      </trkpt>
      <trkpt lat="45.73388" lon="4.61406">
        <ele>660.2</ele>
        <time>2025-12-15T13:25:19Z</time>
      </trkpt>
      <trkpt lat="45.73386" lon="4.61406">
        <ele>660</ele>
        <time>2025-12-15T13:25:20Z</time>
      </trkpt>
      <trkpt lat="45.73385" lon="4.61406">
        <ele>660</ele>
        <time>2025-12-15T13:25:21Z</time>
      </trkpt>
      <trkpt lat="45.73382" lon="4.61406">
        <ele>660</ele>
        <time>2025-12-15T13:25:22Z</time>
      </trkpt>
      <trkpt lat="45.73379" lon="4.61406">
        <ele>659.8</ele>
        <time>2025-12-15T13:25:23Z</time>
      </trkpt>
      <trkpt lat="45.73376" lon="4.61405">
        <ele>659.8</ele>
        <time>2025-12-15T13:25:24Z</time>
      </trkpt>
      <trkpt lat="45.73371" lon="4.61405">
        <ele>659.6</ele>
        <time>2025-12-15T13:25:25Z</time>
      </trkpt>
      <trkpt lat="45.73367" lon="4.61404">
        <ele>659.4</ele>
        <time>2025-12-15T13:25:26Z</time>
      </trkpt>
      <trkpt lat="45.73362" lon="4.61403">
        <ele>659.2</ele>
        <time>2025-12-15T13:25:27Z</time>
      </trkpt>
      <trkpt lat="45.73358" lon="4.61401">
        <ele>659.2</ele>
        <time>2025-12-15T13:25:28Z</time>
      </trkpt>
      <trkpt lat="45.73354" lon="4.614">
        <ele>659</ele>
        <time>2025-12-15T13:25:29Z</time>
      </trkpt>
      <trkpt lat="45.7335" lon="4.61398">
        <ele>659</ele>
        <time>2025-12-15T13:25:30Z</time>
      </trkpt>
      <trkpt lat="45.73347" lon="4.61397">
        <ele>659</ele>
        <time>2025-12-15T13:25:31Z</time>
      </trkpt>
      <trkpt lat="45.73343" lon="4.61397">
        <ele>659.2</ele>
        <time>2025-12-15T13:25:32Z</time>
      </trkpt>
      <trkpt lat="45.73337" lon="4.61397">
        <ele>659.2</ele>
        <time>2025-12-15T13:25:33Z</time>
      </trkpt>
      <trkpt lat="45.73332" lon="4.61397">
        <ele>659.2</ele>
        <time>2025-12-15T13:25:34Z</time>
      </trkpt>
      <trkpt lat="45.73329" lon="4.61397">
        <ele>659</ele>
        <time>2025-12-15T13:25:35Z</time>
      </trkpt>
      <trkpt lat="45.73324" lon="4.61397">
        <ele>659</ele>
        <time>2025-12-15T13:25:36Z</time>
      </trkpt>
      <trkpt lat="45.73318" lon="4.61397">
        <ele>659.2</ele>
        <time>2025-12-15T13:25:37Z</time>
      </trkpt>
      <trkpt lat="45.73314" lon="4.61397">
        <ele>659.2</ele>
        <time>2025-12-15T13:25:38Z</time>
      </trkpt>
      <trkpt lat="45.73311" lon="4.61396">
        <ele>659.4</ele>
        <time>2025-12-15T13:25:39Z</time>
      </trkpt>
      <trkpt lat="45.73308" lon="4.61395">
        <ele>659.6</ele>
        <time>2025-12-15T13:25:40Z</time>
      </trkpt>
      <trkpt lat="45.73306" lon="4.61396">
        <ele>660</ele>
        <time>2025-12-15T13:25:41Z</time>
      </trkpt>
      <trkpt lat="45.73303" lon="4.61395">
        <ele>660.4</ele>
        <time>2025-12-15T13:25:42Z</time>
      </trkpt>
      <trkpt lat="45.733" lon="4.61394">
        <ele>660.8</ele>
        <time>2025-12-15T13:25:43Z</time>
      </trkpt>
      <trkpt lat="45.73298" lon="4.61392">
        <ele>661.2</ele>
        <time>2025-12-15T13:25:44Z</time>
      </trkpt>
      <trkpt lat="45.73296" lon="4.61391">
        <ele>661.6</ele>
        <time>2025-12-15T13:25:45Z</time>
      </trkpt>
      <trkpt lat="45.73294" lon="4.6139">
        <ele>662</ele>
        <time>2025-12-15T13:25:46Z</time>
      </trkpt>
      <trkpt lat="45.73292" lon="4.61389">
        <ele>662.4</ele>
        <time>2025-12-15T13:25:47Z</time>
      </trkpt>
      <trkpt lat="45.7329" lon="4.61387">
        <ele>662.8</ele>
        <time>2025-12-15T13:25:48Z</time>
      </trkpt>
      <trkpt lat="45.73288" lon="4.61386">
        <ele>663.2</ele>
        <time>2025-12-15T13:25:49Z</time>
      </trkpt>
      <trkpt lat="45.73286" lon="4.61384">
        <ele>663.4</ele>
        <time>2025-12-15T13:25:50Z</time>
      </trkpt>
      <trkpt lat="45.73284" lon="4.61383">
        <ele>663.8</ele>
        <time>2025-12-15T13:25:51Z</time>
      </trkpt>
      <trkpt lat="45.73282" lon="4.61381">
        <ele>664.2</ele>
        <time>2025-12-15T13:25:52Z</time>
      </trkpt>
      <trkpt lat="45.7328" lon="4.61379">
        <ele>664.4</ele>
        <time>2025-12-15T13:25:53Z</time>
      </trkpt>
      <trkpt lat="45.73278" lon="4.61377">
        <ele>664.6</ele>
        <time>2025-12-15T13:25:54Z</time>
      </trkpt>
      <trkpt lat="45.73276" lon="4.61375">
        <ele>665</ele>
        <time>2025-12-15T13:25:55Z</time>
      </trkpt>
      <trkpt lat="45.73274" lon="4.61373">
        <ele>665.2</ele>
        <time>2025-12-15T13:25:56Z</time>
      </trkpt>
      <trkpt lat="45.73272" lon="4.61371">
        <ele>665.4</ele>
        <time>2025-12-15T13:25:57Z</time>
      </trkpt>
      <trkpt lat="45.7327" lon="4.61369">
        <ele>665.6</ele>
        <time>2025-12-15T13:25:58Z</time>
      </trkpt>
      <trkpt lat="45.73268" lon="4.61366">
        <ele>665.6</ele>
        <time>2025-12-15T13:25:59Z</time>
      </trkpt>
      <trkpt lat="45.73266" lon="4.61363">
        <ele>665.8</ele>
        <time>2025-12-15T13:26:00Z</time>
      </trkpt>
      <trkpt lat="45.73264" lon="4.61361">
        <ele>665.8</ele>
        <time>2025-12-15T13:26:01Z</time>
      </trkpt>
      <trkpt lat="45.73261" lon="4.61358">
        <ele>665.8</ele>
        <time>2025-12-15T13:26:02Z</time>
      </trkpt>
      <trkpt lat="45.73259" lon="4.61355">
        <ele>665.8</ele>
        <time>2025-12-15T13:26:03Z</time>
      </trkpt>
      <trkpt lat="45.73258" lon="4.61352">
        <ele>665.6</ele>
        <time>2025-12-15T13:26:04Z</time>
      </trkpt>
      <trkpt lat="45.73255" lon="4.61348">
        <ele>665.4</ele>
        <time>2025-12-15T13:26:05Z</time>
      </trkpt>
      <trkpt lat="45.73252" lon="4.61343">
        <ele>665.2</ele>
        <time>2025-12-15T13:26:06Z</time>
      </trkpt>
      <trkpt lat="45.73249" lon="4.61338">
        <ele>664.8</ele>
        <time>2025-12-15T13:26:07Z</time>
      </trkpt>
      <trkpt lat="45.73246" lon="4.61333">
        <ele>664.4</ele>
        <time>2025-12-15T13:26:08Z</time>
      </trkpt>
      <trkpt lat="45.73244" lon="4.61327">
        <ele>664.2</ele>
        <time>2025-12-15T13:26:09Z</time>
      </trkpt>
      <trkpt lat="45.73242" lon="4.61322">
        <ele>664</ele>
        <time>2025-12-15T13:26:10Z</time>
      </trkpt>
      <trkpt lat="45.73241" lon="4.61318">
        <ele>664</ele>
        <time>2025-12-15T13:26:11Z</time>
      </trkpt>
      <trkpt lat="45.73239" lon="4.61314">
        <ele>664</ele>
        <time>2025-12-15T13:26:12Z</time>
      </trkpt>
      <trkpt lat="45.73238" lon="4.6131">
        <ele>664.2</ele>
        <time>2025-12-15T13:26:13Z</time>
      </trkpt>
      <trkpt lat="45.73237" lon="4.61307">
        <ele>664.4</ele>
        <time>2025-12-15T13:26:14Z</time>
      </trkpt>
      <trkpt lat="45.73235" lon="4.61303">
        <ele>664.4</ele>
        <time>2025-12-15T13:26:15Z</time>
      </trkpt>
      <trkpt lat="45.73234" lon="4.61299">
        <ele>664.4</ele>
        <time>2025-12-15T13:26:16Z</time>
      </trkpt>
      <trkpt lat="45.73233" lon="4.61294">
        <ele>664.6</ele>
        <time>2025-12-15T13:26:17Z</time>
      </trkpt>
      <trkpt lat="45.73232" lon="4.6129">
        <ele>664.6</ele>
        <time>2025-12-15T13:26:18Z</time>
      </trkpt>
      <trkpt lat="45.73232" lon="4.61285">
        <ele>664.6</ele>
        <time>2025-12-15T13:26:19Z</time>
      </trkpt>
      <trkpt lat="45.73232" lon="4.61281">
        <ele>664.6</ele>
        <time>2025-12-15T13:26:20Z</time>
      </trkpt>
      <trkpt lat="45.73232" lon="4.61277">
        <ele>664.6</ele>
        <time>2025-12-15T13:26:21Z</time>
      </trkpt>
      <trkpt lat="45.73231" lon="4.61273">
        <ele>664.6</ele>
        <time>2025-12-15T13:26:22Z</time>
      </trkpt>
      <trkpt lat="45.73231" lon="4.61268">
        <ele>664.6</ele>
        <time>2025-12-15T13:26:23Z</time>
      </trkpt>
      <trkpt lat="45.73231" lon="4.61263">
        <ele>664.6</ele>
        <time>2025-12-15T13:26:24Z</time>
      </trkpt>
      <trkpt lat="45.73231" lon="4.61258">
        <ele>664.6</ele>
        <time>2025-12-15T13:26:25Z</time>
      </trkpt>
      <trkpt lat="45.73231" lon="4.61254">
        <ele>664.6</ele>
        <time>2025-12-15T13:26:26Z</time>
      </trkpt>
      <trkpt lat="45.73232" lon="4.6125">
        <ele>664.6</ele>
        <time>2025-12-15T13:26:27Z</time>
      </trkpt>
      <trkpt lat="45.73232" lon="4.61246">
        <ele>664.6</ele>
        <time>2025-12-15T13:26:28Z</time>
      </trkpt>
      <trkpt lat="45.73233" lon="4.61241">
        <ele>664.8</ele>
        <time>2025-12-15T13:26:29Z</time>
      </trkpt>
      <trkpt lat="45.73233" lon="4.61236">
        <ele>665</ele>
        <time>2025-12-15T13:26:30Z</time>
      </trkpt>
      <trkpt lat="45.73234" lon="4.61231">
        <ele>665</ele>
        <time>2025-12-15T13:26:31Z</time>
      </trkpt>
      <trkpt lat="45.73234" lon="4.61226">
        <ele>665.2</ele>
        <time>2025-12-15T13:26:32Z</time>
      </trkpt>
      <trkpt lat="45.73234" lon="4.6122">
        <ele>665.2</ele>
        <time>2025-12-15T13:26:33Z</time>
      </trkpt>
      <trkpt lat="45.73233" lon="4.61215">
        <ele>665.2</ele>
        <time>2025-12-15T13:26:34Z</time>
      </trkpt>
      <trkpt lat="45.73232" lon="4.6121">
        <ele>665.4</ele>
        <time>2025-12-15T13:26:35Z</time>
      </trkpt>
      <trkpt lat="45.73232" lon="4.61204">
        <ele>665.4</ele>
        <time>2025-12-15T13:26:36Z</time>
      </trkpt>
      <trkpt lat="45.73232" lon="4.61198">
        <ele>665.4</ele>
        <time>2025-12-15T13:26:37Z</time>
      </trkpt>
      <trkpt lat="45.73231" lon="4.61192">
        <ele>665.4</ele>
        <time>2025-12-15T13:26:38Z</time>
      </trkpt>
      <trkpt lat="45.7323" lon="4.61186">
        <ele>665.4</ele>
        <time>2025-12-15T13:26:39Z</time>
      </trkpt>
      <trkpt lat="45.7323" lon="4.6118">
        <ele>665.4</ele>
        <time>2025-12-15T13:26:40Z</time>
      </trkpt>
      <trkpt lat="45.73229" lon="4.61175">
        <ele>665.4</ele>
        <time>2025-12-15T13:26:41Z</time>
      </trkpt>
      <trkpt lat="45.73228" lon="4.61169">
        <ele>665.4</ele>
        <time>2025-12-15T13:26:42Z</time>
      </trkpt>
      <trkpt lat="45.73227" lon="4.61164">
        <ele>665.4</ele>
        <time>2025-12-15T13:26:43Z</time>
      </trkpt>
      <trkpt lat="45.73226" lon="4.61158">
        <ele>665.4</ele>
        <time>2025-12-15T13:26:44Z</time>
      </trkpt>
      <trkpt lat="45.73225" lon="4.61151">
        <ele>665.2</ele>
        <time>2025-12-15T13:26:45Z</time>
      </trkpt>
      <trkpt lat="45.73223" lon="4.61145">
        <ele>665.2</ele>
        <time>2025-12-15T13:26:46Z</time>
      </trkpt>
      <trkpt lat="45.73221" lon="4.61139">
        <ele>665.2</ele>
        <time>2025-12-15T13:26:47Z</time>
      </trkpt>
      <trkpt lat="45.7322" lon="4.61133">
        <ele>665.2</ele>
        <time>2025-12-15T13:26:48Z</time>
      </trkpt>
      <trkpt lat="45.73218" lon="4.61127">
        <ele>665.2</ele>
        <time>2025-12-15T13:26:49Z</time>
      </trkpt>
      <trkpt lat="45.73216" lon="4.61121">
        <ele>665.4</ele>
        <time>2025-12-15T13:26:50Z</time>
      </trkpt>
      <trkpt lat="45.73214" lon="4.61116">
        <ele>665.6</ele>
        <time>2025-12-15T13:26:51Z</time>
      </trkpt>
      <trkpt lat="45.73213" lon="4.61111">
        <ele>665.8</ele>
        <time>2025-12-15T13:26:52Z</time>
      </trkpt>
      <trkpt lat="45.73211" lon="4.61107">
        <ele>666</ele>
        <time>2025-12-15T13:26:53Z</time>
      </trkpt>
      <trkpt lat="45.73209" lon="4.61103">
        <ele>666.2</ele>
        <time>2025-12-15T13:26:54Z</time>
      </trkpt>
      <trkpt lat="45.73208" lon="4.61099">
        <ele>666.2</ele>
        <time>2025-12-15T13:26:55Z</time>
      </trkpt>
      <trkpt lat="45.73207" lon="4.61095">
        <ele>666.4</ele>
        <time>2025-12-15T13:26:56Z</time>
      </trkpt>
      <trkpt lat="45.73205" lon="4.61091">
        <ele>666.4</ele>
        <time>2025-12-15T13:26:57Z</time>
      </trkpt>
      <trkpt lat="45.73202" lon="4.61088">
        <ele>666.6</ele>
        <time>2025-12-15T13:26:58Z</time>
      </trkpt>
      <trkpt lat="45.73197" lon="4.61085">
        <ele>666.6</ele>
        <time>2025-12-15T13:26:59Z</time>
      </trkpt>
      <trkpt lat="45.73192" lon="4.61082">
        <ele>666.4</ele>
        <time>2025-12-15T13:27:00Z</time>
      </trkpt>
      <trkpt lat="45.73187" lon="4.6108">
        <ele>666</ele>
        <time>2025-12-15T13:27:01Z</time>
      </trkpt>
      <trkpt lat="45.73182" lon="4.6108">
        <ele>665.6</ele>
        <time>2025-12-15T13:27:02Z</time>
      </trkpt>
      <trkpt lat="45.73178" lon="4.61082">
        <ele>665.2</ele>
        <time>2025-12-15T13:27:03Z</time>
      </trkpt>
      <trkpt lat="45.73175" lon="4.61085">
        <ele>664.8</ele>
        <time>2025-12-15T13:27:04Z</time>
      </trkpt>
      <trkpt lat="45.73172" lon="4.61089">
        <ele>664.6</ele>
        <time>2025-12-15T13:27:05Z</time>
      </trkpt>
      <trkpt lat="45.7317" lon="4.61092">
        <ele>664.6</ele>
        <time>2025-12-15T13:27:06Z</time>
      </trkpt>
      <trkpt lat="45.73167" lon="4.61095">
        <ele>664.6</ele>
        <time>2025-12-15T13:27:07Z</time>
      </trkpt>
      <trkpt lat="45.73164" lon="4.61099">
        <ele>664.6</ele>
        <time>2025-12-15T13:27:08Z</time>
      </trkpt>
      <trkpt lat="45.73161" lon="4.61102">
        <ele>664.4</ele>
        <time>2025-12-15T13:27:09Z</time>
      </trkpt>
      <trkpt lat="45.73159" lon="4.61106">
        <ele>664.4</ele>
        <time>2025-12-15T13:27:10Z</time>
      </trkpt>
      <trkpt lat="45.73156" lon="4.61109">
        <ele>664.4</ele>
        <time>2025-12-15T13:27:11Z</time>
      </trkpt>
      <trkpt lat="45.73153" lon="4.61113">
        <ele>664.4</ele>
        <time>2025-12-15T13:27:12Z</time>
      </trkpt>
      <trkpt lat="45.73149" lon="4.61116">
        <ele>664.4</ele>
        <time>2025-12-15T13:27:13Z</time>
      </trkpt>
      <trkpt lat="45.73146" lon="4.6112">
        <ele>664.4</ele>
        <time>2025-12-15T13:27:14Z</time>
      </trkpt>
      <trkpt lat="45.73143" lon="4.61123">
        <ele>664.4</ele>
        <time>2025-12-15T13:27:15Z</time>
      </trkpt>
      <trkpt lat="45.73139" lon="4.61126">
        <ele>664.4</ele>
        <time>2025-12-15T13:27:16Z</time>
      </trkpt>
      <trkpt lat="45.73135" lon="4.61129">
        <ele>664.6</ele>
        <time>2025-12-15T13:27:17Z</time>
      </trkpt>
      <trkpt lat="45.73132" lon="4.61132">
        <ele>664.6</ele>
        <time>2025-12-15T13:27:18Z</time>
      </trkpt>
      <trkpt lat="45.73129" lon="4.61134">
        <ele>664.6</ele>
        <time>2025-12-15T13:27:19Z</time>
      </trkpt>
      <trkpt lat="45.73125" lon="4.61137">
        <ele>664.6</ele>
        <time>2025-12-15T13:27:20Z</time>
      </trkpt>
      <trkpt lat="45.73122" lon="4.61139">
        <ele>664.6</ele>
        <time>2025-12-15T13:27:21Z</time>
      </trkpt>
      <trkpt lat="45.73119" lon="4.61141">
        <ele>664.6</ele>
        <time>2025-12-15T13:27:22Z</time>
      </trkpt>
      <trkpt lat="45.73115" lon="4.61142">
        <ele>664.6</ele>
        <time>2025-12-15T13:27:23Z</time>
      </trkpt>
      <trkpt lat="45.73112" lon="4.61143">
        <ele>664.8</ele>
        <time>2025-12-15T13:27:24Z</time>
      </trkpt>
      <trkpt lat="45.73109" lon="4.61144">
        <ele>665</ele>
        <time>2025-12-15T13:27:25Z</time>
      </trkpt>
      <trkpt lat="45.73106" lon="4.61145">
        <ele>665.2</ele>
        <time>2025-12-15T13:27:26Z</time>
      </trkpt>
      <trkpt lat="45.73103" lon="4.61146">
        <ele>665.2</ele>
        <time>2025-12-15T13:27:27Z</time>
      </trkpt>
      <trkpt lat="45.731" lon="4.61147">
        <ele>665.4</ele>
        <time>2025-12-15T13:27:28Z</time>
      </trkpt>
      <trkpt lat="45.73097" lon="4.61148">
        <ele>665.4</ele>
        <time>2025-12-15T13:27:29Z</time>
      </trkpt>
      <trkpt lat="45.73093" lon="4.6115">
        <ele>665.4</ele>
        <time>2025-12-15T13:27:30Z</time>
      </trkpt>
      <trkpt lat="45.73089" lon="4.61153">
        <ele>665.2</ele>
        <time>2025-12-15T13:27:31Z</time>
      </trkpt>
      <trkpt lat="45.73084" lon="4.61155">
        <ele>665.2</ele>
        <time>2025-12-15T13:27:32Z</time>
      </trkpt>
      <trkpt lat="45.7308" lon="4.61158">
        <ele>665</ele>
        <time>2025-12-15T13:27:33Z</time>
      </trkpt>
      <trkpt lat="45.73076" lon="4.61162">
        <ele>665</ele>
        <time>2025-12-15T13:27:34Z</time>
      </trkpt>
      <trkpt lat="45.73072" lon="4.61167">
        <ele>664.8</ele>
        <time>2025-12-15T13:27:35Z</time>
      </trkpt>
      <trkpt lat="45.73068" lon="4.6117">
        <ele>664.6</ele>
        <time>2025-12-15T13:27:36Z</time>
      </trkpt>
      <trkpt lat="45.73065" lon="4.61175">
        <ele>664.6</ele>
        <time>2025-12-15T13:27:37Z</time>
      </trkpt>
      <trkpt lat="45.73062" lon="4.6118">
        <ele>664.4</ele>
        <time>2025-12-15T13:27:38Z</time>
      </trkpt>
      <trkpt lat="45.73059" lon="4.61184">
        <ele>664.4</ele>
        <time>2025-12-15T13:27:39Z</time>
      </trkpt>
      <trkpt lat="45.73056" lon="4.61188">
        <ele>664.2</ele>
        <time>2025-12-15T13:27:40Z</time>
      </trkpt>
      <trkpt lat="45.73053" lon="4.61192">
        <ele>664.2</ele>
        <time>2025-12-15T13:27:41Z</time>
      </trkpt>
      <trkpt lat="45.7305" lon="4.61195">
        <ele>664</ele>
        <time>2025-12-15T13:27:42Z</time>
      </trkpt>
      <trkpt lat="45.73047" lon="4.61199">
        <ele>663.8</ele>
        <time>2025-12-15T13:27:43Z</time>
      </trkpt>
      <trkpt lat="45.73044" lon="4.61203">
        <ele>663.6</ele>
        <time>2025-12-15T13:27:44Z</time>
      </trkpt>
      <trkpt lat="45.7304" lon="4.61208">
        <ele>663.4</ele>
        <time>2025-12-15T13:27:45Z</time>
      </trkpt>
      <trkpt lat="45.73037" lon="4.61213">
        <ele>663</ele>
        <time>2025-12-15T13:27:46Z</time>
      </trkpt>
      <trkpt lat="45.73033" lon="4.61217">
        <ele>662.8</ele>
        <time>2025-12-15T13:27:47Z</time>
      </trkpt>
      <trkpt lat="45.73029" lon="4.61222">
        <ele>662.6</ele>
        <time>2025-12-15T13:27:48Z</time>
      </trkpt>
      <trkpt lat="45.73025" lon="4.61227">
        <ele>662.4</ele>
        <time>2025-12-15T13:27:49Z</time>
      </trkpt>
      <trkpt lat="45.73021" lon="4.61231">
        <ele>662.2</ele>
        <time>2025-12-15T13:27:50Z</time>
      </trkpt>
      <trkpt lat="45.73017" lon="4.61236">
        <ele>661.8</ele>
        <time>2025-12-15T13:27:51Z</time>
      </trkpt>
      <trkpt lat="45.73013" lon="4.6124">
        <ele>661.6</ele>
        <time>2025-12-15T13:27:52Z</time>
      </trkpt>
      <trkpt lat="45.73009" lon="4.61244">
        <ele>661.2</ele>
        <time>2025-12-15T13:27:53Z</time>
      </trkpt>
      <trkpt lat="45.73005" lon="4.61247">
        <ele>661.2</ele>
        <time>2025-12-15T13:27:54Z</time>
      </trkpt>
      <trkpt lat="45.73001" lon="4.61249">
        <ele>661.2</ele>
        <time>2025-12-15T13:27:55Z</time>
      </trkpt>
      <trkpt lat="45.72998" lon="4.6125">
        <ele>661.2</ele>
        <time>2025-12-15T13:27:56Z</time>
      </trkpt>
      <trkpt lat="45.72994" lon="4.61249">
        <ele>661.4</ele>
        <time>2025-12-15T13:27:57Z</time>
      </trkpt>
      <trkpt lat="45.7299" lon="4.61248">
        <ele>661.8</ele>
        <time>2025-12-15T13:27:58Z</time>
      </trkpt>
      <trkpt lat="45.72987" lon="4.61248">
        <ele>662.2</ele>
        <time>2025-12-15T13:27:59Z</time>
      </trkpt>
      <trkpt lat="45.72985" lon="4.61248">
        <ele>662.6</ele>
        <time>2025-12-15T13:28:00Z</time>
      </trkpt>
      <trkpt lat="45.72983" lon="4.61248">
        <ele>663.2</ele>
        <time>2025-12-15T13:28:01Z</time>
      </trkpt>
      <trkpt lat="45.72982" lon="4.61247">
        <ele>663.8</ele>
        <time>2025-12-15T13:28:02Z</time>
      </trkpt>
      <trkpt lat="45.7298" lon="4.61247">
        <ele>664.2</ele>
        <time>2025-12-15T13:28:03Z</time>
      </trkpt>
      <trkpt lat="45.72977" lon="4.61246">
        <ele>664.6</ele>
        <time>2025-12-15T13:28:04Z</time>
      </trkpt>
      <trkpt lat="45.72974" lon="4.61246">
        <ele>665</ele>
        <time>2025-12-15T13:28:05Z</time>
      </trkpt>
      <trkpt lat="45.72972" lon="4.61245">
        <ele>665.2</ele>
        <time>2025-12-15T13:28:06Z</time>
      </trkpt>
      <trkpt lat="45.72969" lon="4.61245">
        <ele>665.4</ele>
        <time>2025-12-15T13:28:07Z</time>
      </trkpt>
      <trkpt lat="45.72966" lon="4.61245">
        <ele>665.8</ele>
        <time>2025-12-15T13:28:08Z</time>
      </trkpt>
      <trkpt lat="45.72963" lon="4.61245">
        <ele>666</ele>
        <time>2025-12-15T13:28:09Z</time>
      </trkpt>
      <trkpt lat="45.7296" lon="4.61245">
        <ele>666.2</ele>
        <time>2025-12-15T13:28:10Z</time>
      </trkpt>
      <trkpt lat="45.72957" lon="4.61245">
        <ele>666.4</ele>
        <time>2025-12-15T13:28:11Z</time>
      </trkpt>
      <trkpt lat="45.72954" lon="4.61245">
        <ele>666.6</ele>
        <time>2025-12-15T13:28:12Z</time>
      </trkpt>
      <trkpt lat="45.72952" lon="4.61244">
        <ele>666.8</ele>
        <time>2025-12-15T13:28:13Z</time>
      </trkpt>
      <trkpt lat="45.72949" lon="4.61244">
        <ele>667</ele>
        <time>2025-12-15T13:28:14Z</time>
      </trkpt>
      <trkpt lat="45.72946" lon="4.61242">
        <ele>667.2</ele>
        <time>2025-12-15T13:28:15Z</time>
      </trkpt>
      <trkpt lat="45.72943" lon="4.61241">
        <ele>667.2</ele>
        <time>2025-12-15T13:28:16Z</time>
      </trkpt>
      <trkpt lat="45.72941" lon="4.61239">
        <ele>667.2</ele>
        <time>2025-12-15T13:28:17Z</time>
      </trkpt>
      <trkpt lat="45.72938" lon="4.61238">
        <ele>667.4</ele>
        <time>2025-12-15T13:28:18Z</time>
      </trkpt>
      <trkpt lat="45.72936" lon="4.61237">
        <ele>667.4</ele>
        <time>2025-12-15T13:28:19Z</time>
      </trkpt>
      <trkpt lat="45.72932" lon="4.61235">
        <ele>667.4</ele>
        <time>2025-12-15T13:28:20Z</time>
      </trkpt>
      <trkpt lat="45.72928" lon="4.61234">
        <ele>667.4</ele>
        <time>2025-12-15T13:28:21Z</time>
      </trkpt>
      <trkpt lat="45.72924" lon="4.61232">
        <ele>667.4</ele>
        <time>2025-12-15T13:28:22Z</time>
      </trkpt>
      <trkpt lat="45.72922" lon="4.6123">
        <ele>667.4</ele>
        <time>2025-12-15T13:28:23Z</time>
      </trkpt>
      <trkpt lat="45.72919" lon="4.61229">
        <ele>667.4</ele>
        <time>2025-12-15T13:28:24Z</time>
      </trkpt>
      <trkpt lat="45.72915" lon="4.61227">
        <ele>667.4</ele>
        <time>2025-12-15T13:28:25Z</time>
      </trkpt>
      <trkpt lat="45.72911" lon="4.61225">
        <ele>667.6</ele>
        <time>2025-12-15T13:28:26Z</time>
      </trkpt>
      <trkpt lat="45.72908" lon="4.61222">
        <ele>667.6</ele>
        <time>2025-12-15T13:28:27Z</time>
      </trkpt>
      <trkpt lat="45.72905" lon="4.6122">
        <ele>667.6</ele>
        <time>2025-12-15T13:28:28Z</time>
      </trkpt>
      <trkpt lat="45.72902" lon="4.61219">
        <ele>667.6</ele>
        <time>2025-12-15T13:28:29Z</time>
      </trkpt>
      <trkpt lat="45.72898" lon="4.61216">
        <ele>667.6</ele>
        <time>2025-12-15T13:28:30Z</time>
      </trkpt>
      <trkpt lat="45.72896" lon="4.61214">
        <ele>667.8</ele>
        <time>2025-12-15T13:28:31Z</time>
      </trkpt>
      <trkpt lat="45.72893" lon="4.61213">
        <ele>667.8</ele>
        <time>2025-12-15T13:28:32Z</time>
      </trkpt>
      <trkpt lat="45.7289" lon="4.61211">
        <ele>667.8</ele>
        <time>2025-12-15T13:28:33Z</time>
      </trkpt>
      <trkpt lat="45.72886" lon="4.61209">
        <ele>667.8</ele>
        <time>2025-12-15T13:28:34Z</time>
      </trkpt>
      <trkpt lat="45.72884" lon="4.61206">
        <ele>668</ele>
        <time>2025-12-15T13:28:35Z</time>
      </trkpt>
      <trkpt lat="45.72881" lon="4.61204">
        <ele>668</ele>
        <time>2025-12-15T13:28:36Z</time>
      </trkpt>
      <trkpt lat="45.72878" lon="4.61202">
        <ele>668</ele>
        <time>2025-12-15T13:28:37Z</time>
      </trkpt>
      <trkpt lat="45.72875" lon="4.612">
        <ele>668.2</ele>
        <time>2025-12-15T13:28:38Z</time>
      </trkpt>
      <trkpt lat="45.72872" lon="4.61198">
        <ele>668.4</ele>
        <time>2025-12-15T13:28:39Z</time>
      </trkpt>
      <trkpt lat="45.72868" lon="4.61195">
        <ele>668.4</ele>
        <time>2025-12-15T13:28:40Z</time>
      </trkpt>
      <trkpt lat="45.72864" lon="4.61192">
        <ele>668.6</ele>
        <time>2025-12-15T13:28:41Z</time>
      </trkpt>
      <trkpt lat="45.72861" lon="4.61191">
        <ele>668.6</ele>
        <time>2025-12-15T13:28:42Z</time>
      </trkpt>
      <trkpt lat="45.72859" lon="4.61189">
        <ele>668.8</ele>
        <time>2025-12-15T13:28:43Z</time>
      </trkpt>
      <trkpt lat="45.72857" lon="4.61187">
        <ele>668.8</ele>
        <time>2025-12-15T13:28:44Z</time>
      </trkpt>
      <trkpt lat="45.72854" lon="4.61185">
        <ele>668.8</ele>
        <time>2025-12-15T13:28:45Z</time>
      </trkpt>
      <trkpt lat="45.72852" lon="4.61182">
        <ele>668.8</ele>
        <time>2025-12-15T13:28:46Z</time>
      </trkpt>
      <trkpt lat="45.72849" lon="4.61181">
        <ele>668.8</ele>
        <time>2025-12-15T13:28:47Z</time>
      </trkpt>
      <trkpt lat="45.72846" lon="4.6118">
        <ele>668.8</ele>
        <time>2025-12-15T13:28:48Z</time>
      </trkpt>
      <trkpt lat="45.72844" lon="4.61179">
        <ele>668.6</ele>
        <time>2025-12-15T13:28:49Z</time>
      </trkpt>
      <trkpt lat="45.72841" lon="4.61177">
        <ele>668.6</ele>
        <time>2025-12-15T13:28:50Z</time>
      </trkpt>
      <trkpt lat="45.72839" lon="4.61175">
        <ele>668.6</ele>
        <time>2025-12-15T13:28:51Z</time>
      </trkpt>
      <trkpt lat="45.72836" lon="4.61174">
        <ele>668.6</ele>
        <time>2025-12-15T13:28:52Z</time>
      </trkpt>
      <trkpt lat="45.72832" lon="4.61173">
        <ele>668.4</ele>
        <time>2025-12-15T13:28:53Z</time>
      </trkpt>
      <trkpt lat="45.72829" lon="4.61172">
        <ele>668.4</ele>
        <time>2025-12-15T13:28:54Z</time>
      </trkpt>
      <trkpt lat="45.72825" lon="4.61171">
        <ele>668.4</ele>
        <time>2025-12-15T13:28:55Z</time>
      </trkpt>
      <trkpt lat="45.7282" lon="4.61169">
        <ele>668.2</ele>
        <time>2025-12-15T13:28:56Z</time>
      </trkpt>
      <trkpt lat="45.72815" lon="4.61168">
        <ele>668.2</ele>
        <time>2025-12-15T13:28:57Z</time>
      </trkpt>
      <trkpt lat="45.72809" lon="4.61168">
        <ele>668</ele>
        <time>2025-12-15T13:28:58Z</time>
      </trkpt>
      <trkpt lat="45.72804" lon="4.61167">
        <ele>667.6</ele>
        <time>2025-12-15T13:28:59Z</time>
      </trkpt>
      <trkpt lat="45.728" lon="4.61168">
        <ele>667.2</ele>
        <time>2025-12-15T13:29:00Z</time>
      </trkpt>
      <trkpt lat="45.72794" lon="4.61168">
        <ele>666.6</ele>
        <time>2025-12-15T13:29:01Z</time>
      </trkpt>
      <trkpt lat="45.7279" lon="4.6117">
        <ele>666.4</ele>
        <time>2025-12-15T13:29:02Z</time>
      </trkpt>
      <trkpt lat="45.72786" lon="4.61172">
        <ele>666.2</ele>
        <time>2025-12-15T13:29:03Z</time>
      </trkpt>
      <trkpt lat="45.72782" lon="4.61174">
        <ele>666.4</ele>
        <time>2025-12-15T13:29:04Z</time>
      </trkpt>
      <trkpt lat="45.72779" lon="4.61175">
        <ele>666.6</ele>
        <time>2025-12-15T13:29:05Z</time>
      </trkpt>
      <trkpt lat="45.72776" lon="4.61176">
        <ele>667</ele>
        <time>2025-12-15T13:29:06Z</time>
      </trkpt>
      <trkpt lat="45.72773" lon="4.61177">
        <ele>667.2</ele>
        <time>2025-12-15T13:29:07Z</time>
      </trkpt>
      <trkpt lat="45.7277" lon="4.61179">
        <ele>667.4</ele>
        <time>2025-12-15T13:29:08Z</time>
      </trkpt>
      <trkpt lat="45.72768" lon="4.61181">
        <ele>667.4</ele>
        <time>2025-12-15T13:29:09Z</time>
      </trkpt>
      <trkpt lat="45.72764" lon="4.61184">
        <ele>667.4</ele>
        <time>2025-12-15T13:29:10Z</time>
      </trkpt>
      <trkpt lat="45.72761" lon="4.61186">
        <ele>667.4</ele>
        <time>2025-12-15T13:29:11Z</time>
      </trkpt>
      <trkpt lat="45.72757" lon="4.61188">
        <ele>667.4</ele>
        <time>2025-12-15T13:29:12Z</time>
      </trkpt>
      <trkpt lat="45.72753" lon="4.61189">
        <ele>667.6</ele>
        <time>2025-12-15T13:29:13Z</time>
      </trkpt>
      <trkpt lat="45.72751" lon="4.61189">
        <ele>667.8</ele>
        <time>2025-12-15T13:29:14Z</time>
      </trkpt>
      <trkpt lat="45.72748" lon="4.61191">
        <ele>668</ele>
        <time>2025-12-15T13:29:15Z</time>
      </trkpt>
      <trkpt lat="45.72747" lon="4.61193">
        <ele>668.4</ele>
        <time>2025-12-15T13:29:16Z</time>
      </trkpt>
      <trkpt lat="45.72745" lon="4.61196">
        <ele>668.6</ele>
        <time>2025-12-15T13:29:17Z</time>
      </trkpt>
      <trkpt lat="45.72742" lon="4.61199">
        <ele>668.8</ele>
        <time>2025-12-15T13:29:18Z</time>
      </trkpt>
      <trkpt lat="45.72739" lon="4.61202">
        <ele>668.8</ele>
        <time>2025-12-15T13:29:19Z</time>
      </trkpt>
      <trkpt lat="45.72735" lon="4.61204">
        <ele>668.6</ele>
        <time>2025-12-15T13:29:20Z</time>
      </trkpt>
      <trkpt lat="45.7273" lon="4.61206">
        <ele>668.6</ele>
        <time>2025-12-15T13:29:21Z</time>
      </trkpt>
      <trkpt lat="45.72727" lon="4.61209">
        <ele>668.4</ele>
        <time>2025-12-15T13:29:22Z</time>
      </trkpt>
      <trkpt lat="45.72724" lon="4.6121">
        <ele>668.4</ele>
        <time>2025-12-15T13:29:23Z</time>
      </trkpt>
      <trkpt lat="45.72718" lon="4.61213">
        <ele>668.4</ele>
        <time>2025-12-15T13:29:24Z</time>
      </trkpt>
      <trkpt lat="45.72714" lon="4.61215">
        <ele>668.4</ele>
        <time>2025-12-15T13:29:25Z</time>
      </trkpt>
      <trkpt lat="45.72709" lon="4.61217">
        <ele>668.4</ele>
        <time>2025-12-15T13:29:26Z</time>
      </trkpt>
      <trkpt lat="45.72704" lon="4.61219">
        <ele>668.4</ele>
        <time>2025-12-15T13:29:27Z</time>
      </trkpt>
      <trkpt lat="45.727" lon="4.61221">
        <ele>668.2</ele>
        <time>2025-12-15T13:29:28Z</time>
      </trkpt>
      <trkpt lat="45.72694" lon="4.61224">
        <ele>668</ele>
        <time>2025-12-15T13:29:29Z</time>
      </trkpt>
      <trkpt lat="45.72689" lon="4.61224">
        <ele>667.8</ele>
        <time>2025-12-15T13:29:30Z</time>
      </trkpt>
      <trkpt lat="45.72685" lon="4.61225">
        <ele>667.8</ele>
        <time>2025-12-15T13:29:31Z</time>
      </trkpt>
      <trkpt lat="45.72682" lon="4.61228">
        <ele>667.8</ele>
        <time>2025-12-15T13:29:32Z</time>
      </trkpt>
      <trkpt lat="45.72679" lon="4.6123">
        <ele>667.8</ele>
        <time>2025-12-15T13:29:33Z</time>
      </trkpt>
      <trkpt lat="45.72676" lon="4.61232">
        <ele>668</ele>
        <time>2025-12-15T13:29:34Z</time>
      </trkpt>
      <trkpt lat="45.72671" lon="4.61233">
        <ele>667.8</ele>
        <time>2025-12-15T13:29:35Z</time>
      </trkpt>
      <trkpt lat="45.72667" lon="4.61234">
        <ele>667.6</ele>
        <time>2025-12-15T13:29:36Z</time>
      </trkpt>
      <trkpt lat="45.72661" lon="4.61235">
        <ele>667.2</ele>
        <time>2025-12-15T13:29:37Z</time>
      </trkpt>
      <trkpt lat="45.72655" lon="4.61235">
        <ele>666.8</ele>
        <time>2025-12-15T13:29:38Z</time>
      </trkpt>
      <trkpt lat="45.7265" lon="4.61236">
        <ele>666.4</ele>
        <time>2025-12-15T13:29:39Z</time>
      </trkpt>
      <trkpt lat="45.72644" lon="4.61235">
        <ele>666</ele>
        <time>2025-12-15T13:29:40Z</time>
      </trkpt>
      <trkpt lat="45.7264" lon="4.61232">
        <ele>665.8</ele>
        <time>2025-12-15T13:29:41Z</time>
      </trkpt>
      <trkpt lat="45.72635" lon="4.6123">
        <ele>665.6</ele>
        <time>2025-12-15T13:29:42Z</time>
      </trkpt>
      <trkpt lat="45.72631" lon="4.61227">
        <ele>665.4</ele>
        <time>2025-12-15T13:29:43Z</time>
      </trkpt>
      <trkpt lat="45.72626" lon="4.61223">
        <ele>665.4</ele>
        <time>2025-12-15T13:29:44Z</time>
      </trkpt>
      <trkpt lat="45.72623" lon="4.61221">
        <ele>665.4</ele>
        <time>2025-12-15T13:29:45Z</time>
      </trkpt>
      <trkpt lat="45.7262" lon="4.6122">
        <ele>665.6</ele>
        <time>2025-12-15T13:29:46Z</time>
      </trkpt>
      <trkpt lat="45.72616" lon="4.61218">
        <ele>665.6</ele>
        <time>2025-12-15T13:29:47Z</time>
      </trkpt>
      <trkpt lat="45.72613" lon="4.61215">
        <ele>665.8</ele>
        <time>2025-12-15T13:29:48Z</time>
      </trkpt>
      <trkpt lat="45.7261" lon="4.61213">
        <ele>666.2</ele>
        <time>2025-12-15T13:29:49Z</time>
      </trkpt>
      <trkpt lat="45.72609" lon="4.61212">
        <ele>666.6</ele>
        <time>2025-12-15T13:29:50Z</time>
      </trkpt>
      <trkpt lat="45.72606" lon="4.61211">
        <ele>667</ele>
        <time>2025-12-15T13:29:51Z</time>
      </trkpt>
      <trkpt lat="45.72603" lon="4.61211">
        <ele>667.4</ele>
        <time>2025-12-15T13:29:52Z</time>
      </trkpt>
      <trkpt lat="45.72599" lon="4.6121">
        <ele>667.6</ele>
        <time>2025-12-15T13:29:53Z</time>
      </trkpt>
      <trkpt lat="45.72594" lon="4.61211">
        <ele>667.8</ele>
        <time>2025-12-15T13:29:54Z</time>
      </trkpt>
      <trkpt lat="45.7259" lon="4.61212">
        <ele>668</ele>
        <time>2025-12-15T13:29:55Z</time>
      </trkpt>
      <trkpt lat="45.72587" lon="4.61214">
        <ele>668</ele>
        <time>2025-12-15T13:29:56Z</time>
      </trkpt>
      <trkpt lat="45.72584" lon="4.61215">
        <ele>668.2</ele>
        <time>2025-12-15T13:29:57Z</time>
      </trkpt>
      <trkpt lat="45.7258" lon="4.61217">
        <ele>668.2</ele>
        <time>2025-12-15T13:29:58Z</time>
      </trkpt>
      <trkpt lat="45.72575" lon="4.61219">
        <ele>668.4</ele>
        <time>2025-12-15T13:29:59Z</time>
      </trkpt>
      <trkpt lat="45.72573" lon="4.6122">
        <ele>668.6</ele>
        <time>2025-12-15T13:30:00Z</time>
      </trkpt>
      <trkpt lat="45.7257" lon="4.61222">
        <ele>668.8</ele>
        <time>2025-12-15T13:30:01Z</time>
      </trkpt>
      <trkpt lat="45.72567" lon="4.61223">
        <ele>669</ele>
        <time>2025-12-15T13:30:02Z</time>
      </trkpt>
      <trkpt lat="45.72565" lon="4.61224">
        <ele>669.4</ele>
        <time>2025-12-15T13:30:03Z</time>
      </trkpt>
      <trkpt lat="45.72563" lon="4.61226">
        <ele>669.8</ele>
        <time>2025-12-15T13:30:04Z</time>
      </trkpt>
      <trkpt lat="45.72561" lon="4.61228">
        <ele>670.2</ele>
        <time>2025-12-15T13:30:05Z</time>
      </trkpt>
      <trkpt lat="45.72558" lon="4.61231">
        <ele>670.4</ele>
        <time>2025-12-15T13:30:06Z</time>
      </trkpt>
      <trkpt lat="45.72555" lon="4.61235">
        <ele>670.8</ele>
        <time>2025-12-15T13:30:07Z</time>
      </trkpt>
      <trkpt lat="45.72553" lon="4.61239">
        <ele>671.2</ele>
        <time>2025-12-15T13:30:08Z</time>
      </trkpt>
      <trkpt lat="45.7255" lon="4.61244">
        <ele>671.2</ele>
        <time>2025-12-15T13:30:09Z</time>
      </trkpt>
      <trkpt lat="45.72547" lon="4.61249">
        <ele>671.4</ele>
        <time>2025-12-15T13:30:10Z</time>
      </trkpt>
      <trkpt lat="45.72545" lon="4.61254">
        <ele>671.2</ele>
        <time>2025-12-15T13:30:11Z</time>
      </trkpt>
      <trkpt lat="45.72542" lon="4.61259">
        <ele>671</ele>
        <time>2025-12-15T13:30:12Z</time>
      </trkpt>
      <trkpt lat="45.72538" lon="4.61264">
        <ele>670.8</ele>
        <time>2025-12-15T13:30:13Z</time>
      </trkpt>
      <trkpt lat="45.72533" lon="4.6127">
        <ele>670.4</ele>
        <time>2025-12-15T13:30:14Z</time>
      </trkpt>
      <trkpt lat="45.72529" lon="4.61275">
        <ele>670</ele>
        <time>2025-12-15T13:30:15Z</time>
      </trkpt>
      <trkpt lat="45.72524" lon="4.6128">
        <ele>669.6</ele>
        <time>2025-12-15T13:30:16Z</time>
      </trkpt>
      <trkpt lat="45.72519" lon="4.61284">
        <ele>669.4</ele>
        <time>2025-12-15T13:30:17Z</time>
      </trkpt>
      <trkpt lat="45.72515" lon="4.61287">
        <ele>669.2</ele>
        <time>2025-12-15T13:30:18Z</time>
      </trkpt>
      <trkpt lat="45.72511" lon="4.6129">
        <ele>669.2</ele>
        <time>2025-12-15T13:30:19Z</time>
      </trkpt>
      <trkpt lat="45.72507" lon="4.61291">
        <ele>669.2</ele>
        <time>2025-12-15T13:30:20Z</time>
      </trkpt>
      <trkpt lat="45.72505" lon="4.61293">
        <ele>669.2</ele>
        <time>2025-12-15T13:30:21Z</time>
      </trkpt>
      <trkpt lat="45.72502" lon="4.61295">
        <ele>669.2</ele>
        <time>2025-12-15T13:30:22Z</time>
      </trkpt>
      <trkpt lat="45.72499" lon="4.61296">
        <ele>669.4</ele>
        <time>2025-12-15T13:30:23Z</time>
      </trkpt>
      <trkpt lat="45.72496" lon="4.61297">
        <ele>669.4</ele>
        <time>2025-12-15T13:30:24Z</time>
      </trkpt>
      <trkpt lat="45.72493" lon="4.61298">
        <ele>669.6</ele>
        <time>2025-12-15T13:30:25Z</time>
      </trkpt>
      <trkpt lat="45.72489" lon="4.61299">
        <ele>669.6</ele>
        <time>2025-12-15T13:30:26Z</time>
      </trkpt>
      <trkpt lat="45.72486" lon="4.61299">
        <ele>669.8</ele>
        <time>2025-12-15T13:30:27Z</time>
      </trkpt>
      <trkpt lat="45.72483" lon="4.61299">
        <ele>670</ele>
        <time>2025-12-15T13:30:28Z</time>
      </trkpt>
      <trkpt lat="45.72481" lon="4.613">
        <ele>670</ele>
        <time>2025-12-15T13:30:29Z</time>
      </trkpt>
      <trkpt lat="45.72479" lon="4.613">
        <ele>670.2</ele>
        <time>2025-12-15T13:30:30Z</time>
      </trkpt>
      <trkpt lat="45.72479" lon="4.613">
        <ele>670.4</ele>
        <time>2025-12-15T13:30:31Z</time>
      </trkpt>
      <trkpt lat="45.72479" lon="4.613">
        <ele>670.4</ele>
        <time>2025-12-15T13:30:32Z</time>
      </trkpt>
      <trkpt lat="45.72479" lon="4.613">
        <ele>670.6</ele>
        <time>2025-12-15T13:30:33Z</time>
      </trkpt>
      <trkpt lat="45.72479" lon="4.613">
        <ele>670.8</ele>
        <time>2025-12-15T13:30:34Z</time>
      </trkpt>
      <trkpt lat="45.72479" lon="4.613">
        <ele>670.8</ele>
        <time>2025-12-15T13:30:35Z</time>
      </trkpt>
      <trkpt lat="45.72479" lon="4.613">
        <ele>671</ele>
        <time>2025-12-15T13:30:36Z</time>
      </trkpt>
      <trkpt lat="45.72479" lon="4.613">
        <ele>671</ele>
        <time>2025-12-15T13:30:37Z</time>
      </trkpt>
      <trkpt lat="45.72479" lon="4.613">
        <ele>671</ele>
        <time>2025-12-15T13:30:38Z</time>
      </trkpt>
      <trkpt lat="45.72479" lon="4.613">
        <ele>671</ele>
        <time>2025-12-15T13:30:39Z</time>
      </trkpt>
      <trkpt lat="45.72479" lon="4.613">
        <ele>671</ele>
        <time>2025-12-15T13:30:40Z</time>
      </trkpt>
      <trkpt lat="45.72478" lon="4.613">
        <ele>671</ele>
        <time>2025-12-15T13:30:41Z</time>
      </trkpt>
      <trkpt lat="45.72476" lon="4.61301">
        <ele>671</ele>
        <time>2025-12-15T13:30:42Z</time>
      </trkpt>
      <trkpt lat="45.72474" lon="4.61302">
        <ele>670.8</ele>
        <time>2025-12-15T13:30:43Z</time>
      </trkpt>
      <trkpt lat="45.7247" lon="4.61303">
        <ele>670.8</ele>
        <time>2025-12-15T13:30:44Z</time>
      </trkpt>
      <trkpt lat="45.72467" lon="4.61304">
        <ele>670.8</ele>
        <time>2025-12-15T13:30:45Z</time>
      </trkpt>
      <trkpt lat="45.72462" lon="4.61305">
        <ele>670.6</ele>
        <time>2025-12-15T13:30:46Z</time>
      </trkpt>
      <trkpt lat="45.72458" lon="4.61307">
        <ele>670.6</ele>
        <time>2025-12-15T13:30:47Z</time>
      </trkpt>
      <trkpt lat="45.72453" lon="4.61308">
        <ele>670.6</ele>
        <time>2025-12-15T13:30:48Z</time>
      </trkpt>
      <trkpt lat="45.72449" lon="4.61308">
        <ele>670.6</ele>
        <time>2025-12-15T13:30:49Z</time>
      </trkpt>
      <trkpt lat="45.72445" lon="4.61308">
        <ele>670.6</ele>
        <time>2025-12-15T13:30:50Z</time>
      </trkpt>
      <trkpt lat="45.72441" lon="4.61307">
        <ele>670.6</ele>
        <time>2025-12-15T13:30:51Z</time>
      </trkpt>
      <trkpt lat="45.72439" lon="4.61304">
        <ele>670.8</ele>
        <time>2025-12-15T13:30:52Z</time>
      </trkpt>
      <trkpt lat="45.72438" lon="4.613">
        <ele>671</ele>
        <time>2025-12-15T13:30:53Z</time>
      </trkpt>
      <trkpt lat="45.72437" lon="4.61295">
        <ele>671.2</ele>
        <time>2025-12-15T13:30:54Z</time>
      </trkpt>
      <trkpt lat="45.72438" lon="4.61291">
        <ele>671.4</ele>
        <time>2025-12-15T13:30:55Z</time>
      </trkpt>
      <trkpt lat="45.72438" lon="4.61287">
        <ele>671.8</ele>
        <time>2025-12-15T13:30:56Z</time>
      </trkpt>
      <trkpt lat="45.72439" lon="4.61284">
        <ele>672.2</ele>
        <time>2025-12-15T13:30:57Z</time>
      </trkpt>
      <trkpt lat="45.7244" lon="4.6128">
        <ele>672.8</ele>
        <time>2025-12-15T13:30:58Z</time>
      </trkpt>
      <trkpt lat="45.72441" lon="4.61277">
        <ele>673.2</ele>
        <time>2025-12-15T13:30:59Z</time>
      </trkpt>
      <trkpt lat="45.72442" lon="4.61274">
        <ele>673.6</ele>
        <time>2025-12-15T13:31:00Z</time>
      </trkpt>
      <trkpt lat="45.72442" lon="4.61271">
        <ele>674</ele>
        <time>2025-12-15T13:31:01Z</time>
      </trkpt>
      <trkpt lat="45.72443" lon="4.61268">
        <ele>674.2</ele>
        <time>2025-12-15T13:31:02Z</time>
      </trkpt>
      <trkpt lat="45.72443" lon="4.61264">
        <ele>674.6</ele>
        <time>2025-12-15T13:31:03Z</time>
      </trkpt>
      <trkpt lat="45.72442" lon="4.61261">
        <ele>674.8</ele>
        <time>2025-12-15T13:31:04Z</time>
      </trkpt>
      <trkpt lat="45.72442" lon="4.61259">
        <ele>675.2</ele>
        <time>2025-12-15T13:31:05Z</time>
      </trkpt>
      <trkpt lat="45.72442" lon="4.61259">
        <ele>675.4</ele>
        <time>2025-12-15T13:31:06Z</time>
      </trkpt>
      <trkpt lat="45.72442" lon="4.61259">
        <ele>675.6</ele>
        <time>2025-12-15T13:31:07Z</time>
      </trkpt>
      <trkpt lat="45.72442" lon="4.61259">
        <ele>675.8</ele>
        <time>2025-12-15T13:31:08Z</time>
      </trkpt>
      <trkpt lat="45.72442" lon="4.61259">
        <ele>676</ele>
        <time>2025-12-15T13:31:09Z</time>
      </trkpt>
      <trkpt lat="45.72442" lon="4.61259">
        <ele>676.2</ele>
        <time>2025-12-15T13:31:10Z</time>
      </trkpt>
      <trkpt lat="45.72442" lon="4.61259">
        <ele>676.2</ele>
        <time>2025-12-15T13:31:11Z</time>
      </trkpt>
      <trkpt lat="45.72442" lon="4.61259">
        <ele>676.2</ele>
        <time>2025-12-15T13:31:12Z</time>
      </trkpt>
      <trkpt lat="45.72442" lon="4.61259">
        <ele>676.2</ele>
        <time>2025-12-15T13:31:13Z</time>
      </trkpt>
      <trkpt lat="45.72442" lon="4.61259">
        <ele>676.2</ele>
        <time>2025-12-15T13:31:14Z</time>
      </trkpt>
      <trkpt lat="45.72442" lon="4.61259">
        <ele>676</ele>
        <time>2025-12-15T13:31:15Z</time>
      </trkpt>
      <trkpt lat="45.72442" lon="4.61259">
        <ele>676</ele>
        <time>2025-12-15T13:31:16Z</time>
      </trkpt>
      <trkpt lat="45.72442" lon="4.61259">
        <ele>676</ele>
        <time>2025-12-15T13:31:17Z</time>
      </trkpt>
      <trkpt lat="45.72442" lon="4.61259">
        <ele>676</ele>
        <time>2025-12-15T13:31:18Z</time>
      </trkpt>
      <trkpt lat="45.72442" lon="4.61259">
        <ele>676</ele>
        <time>2025-12-15T13:31:19Z</time>
      </trkpt>
      <trkpt lat="45.72442" lon="4.61259">
        <ele>676</ele>
        <time>2025-12-15T13:31:20Z</time>
      </trkpt>
      <trkpt lat="45.72442" lon="4.61259">
        <ele>676</ele>
        <time>2025-12-15T13:31:21Z</time>
      </trkpt>
      <trkpt lat="45.72442" lon="4.61259">
        <ele>676</ele>
        <time>2025-12-15T13:31:22Z</time>
      </trkpt>
      <trkpt lat="45.72442" lon="4.61259">
        <ele>676</ele>
        <time>2025-12-15T13:31:23Z</time>
      </trkpt>
      <trkpt lat="45.72442" lon="4.61259">
        <ele>676</ele>
        <time>2025-12-15T13:31:24Z</time>
      </trkpt>
      <trkpt lat="45.72442" lon="4.61259">
        <ele>675.8</ele>
        <time>2025-12-15T13:31:25Z</time>
      </trkpt>
      <trkpt lat="45.72442" lon="4.61259">
        <ele>675.8</ele>
        <time>2025-12-15T13:31:26Z</time>
      </trkpt>
      <trkpt lat="45.72442" lon="4.61259">
        <ele>675.8</ele>
        <time>2025-12-15T13:31:27Z</time>
      </trkpt>
      <trkpt lat="45.72442" lon="4.61259">
        <ele>675.8</ele>
        <time>2025-12-15T13:31:28Z</time>
      </trkpt>
      <trkpt lat="45.72442" lon="4.61259">
        <ele>675.8</ele>
        <time>2025-12-15T13:31:29Z</time>
      </trkpt>
      <trkpt lat="45.72442" lon="4.61259">
        <ele>675.8</ele>
        <time>2025-12-15T13:31:30Z</time>
      </trkpt>
      <trkpt lat="45.72442" lon="4.61259">
        <ele>675.8</ele>
        <time>2025-12-15T13:31:31Z</time>
      </trkpt>
      <trkpt lat="45.72442" lon="4.61259">
        <ele>675.8</ele>
        <time>2025-12-15T13:31:32Z</time>
      </trkpt>
      <trkpt lat="45.72442" lon="4.61259">
        <ele>675.8</ele>
        <time>2025-12-15T13:31:33Z</time>
      </trkpt>
      <trkpt lat="45.72442" lon="4.61259">
        <ele>675.8</ele>
        <time>2025-12-15T13:31:34Z</time>
      </trkpt>
      <trkpt lat="45.72442" lon="4.61259">
        <ele>675.8</ele>
        <time>2025-12-15T13:31:35Z</time>
      </trkpt>
      <trkpt lat="45.72442" lon="4.61259">
        <ele>675.8</ele>
        <time>2025-12-15T13:31:36Z</time>
      </trkpt>
      <trkpt lat="45.72442" lon="4.61259">
        <ele>675.8</ele>
        <time>2025-12-15T13:31:37Z</time>
      </trkpt>
      <trkpt lat="45.72442" lon="4.61259">
        <ele>675.6</ele>
        <time>2025-12-15T13:31:38Z</time>
      </trkpt>
      <trkpt lat="45.72442" lon="4.61259">
        <ele>675.6</ele>
        <time>2025-12-15T13:31:39Z</time>
      </trkpt>
      <trkpt lat="45.72442" lon="4.61259">
        <ele>675.6</ele>
        <time>2025-12-15T13:31:40Z</time>
      </trkpt>
      <trkpt lat="45.72442" lon="4.61259">
        <ele>675.6</ele>
        <time>2025-12-15T13:31:41Z</time>
      </trkpt>
      <trkpt lat="45.72442" lon="4.61259">
        <ele>675.6</ele>
        <time>2025-12-15T13:31:42Z</time>
      </trkpt>
      <trkpt lat="45.72442" lon="4.61259">
        <ele>675.6</ele>
        <time>2025-12-15T13:31:43Z</time>
      </trkpt>
      <trkpt lat="45.72442" lon="4.61259">
        <ele>675.6</ele>
        <time>2025-12-15T13:31:44Z</time>
      </trkpt>
      <trkpt lat="45.72442" lon="4.61259">
        <ele>675.6</ele>
        <time>2025-12-15T13:31:45Z</time>
      </trkpt>
      <trkpt lat="45.72442" lon="4.61259">
        <ele>675.6</ele>
        <time>2025-12-15T13:31:46Z</time>
      </trkpt>
      <trkpt lat="45.72442" lon="4.61259">
        <ele>675.6</ele>
        <time>2025-12-15T13:31:47Z</time>
      </trkpt>
      <trkpt lat="45.72442" lon="4.61259">
        <ele>675.6</ele>
        <time>2025-12-15T13:31:48Z</time>
      </trkpt>
      <trkpt lat="45.72442" lon="4.61259">
        <ele>675.6</ele>
        <time>2025-12-15T13:31:49Z</time>
      </trkpt>
      <trkpt lat="45.72442" lon="4.61259">
        <ele>675.6</ele>
        <time>2025-12-15T13:31:50Z</time>
      </trkpt>
      <trkpt lat="45.72442" lon="4.61259">
        <ele>675.4</ele>
        <time>2025-12-15T13:31:51Z</time>
      </trkpt>
      <trkpt lat="45.72442" lon="4.61259">
        <ele>675.4</ele>
        <time>2025-12-15T13:31:52Z</time>
      </trkpt>
      <trkpt lat="45.72442" lon="4.61259">
        <ele>675.4</ele>
        <time>2025-12-15T13:31:53Z</time>
      </trkpt>
      <trkpt lat="45.72442" lon="4.61259">
        <ele>675.4</ele>
        <time>2025-12-15T13:31:54Z</time>
      </trkpt>
      <trkpt lat="45.72442" lon="4.61259">
        <ele>675.4</ele>
        <time>2025-12-15T13:31:55Z</time>
      </trkpt>
      <trkpt lat="45.72442" lon="4.61259">
        <ele>675.4</ele>
        <time>2025-12-15T13:31:56Z</time>
      </trkpt>
      <trkpt lat="45.72442" lon="4.61259">
        <ele>675.4</ele>
        <time>2025-12-15T13:31:57Z</time>
      </trkpt>
      <trkpt lat="45.72442" lon="4.61259">
        <ele>675.4</ele>
        <time>2025-12-15T13:31:58Z</time>
      </trkpt>
      <trkpt lat="45.72442" lon="4.61259">
        <ele>675.2</ele>
        <time>2025-12-15T13:31:59Z</time>
      </trkpt>
      <trkpt lat="45.72442" lon="4.61259">
        <ele>675.2</ele>
        <time>2025-12-15T13:32:00Z</time>
      </trkpt>
      <trkpt lat="45.72442" lon="4.61259">
        <ele>675.2</ele>
        <time>2025-12-15T13:32:01Z</time>
      </trkpt>
      <trkpt lat="45.72442" lon="4.61259">
        <ele>675.2</ele>
        <time>2025-12-15T13:32:02Z</time>
      </trkpt>
      <trkpt lat="45.72442" lon="4.61259">
        <ele>675.2</ele>
        <time>2025-12-15T13:32:03Z</time>
      </trkpt>
      <trkpt lat="45.72442" lon="4.61259">
        <ele>675.2</ele>
        <time>2025-12-15T13:32:04Z</time>
      </trkpt>
      <trkpt lat="45.72442" lon="4.61259">
        <ele>675.2</ele>
        <time>2025-12-15T13:32:05Z</time>
      </trkpt>
      <trkpt lat="45.72442" lon="4.61259">
        <ele>675.2</ele>
        <time>2025-12-15T13:32:06Z</time>
      </trkpt>
      <trkpt lat="45.72442" lon="4.61259">
        <ele>675.2</ele>
        <time>2025-12-15T13:32:07Z</time>
      </trkpt>
      <trkpt lat="45.72442" lon="4.61259">
        <ele>675.2</ele>
        <time>2025-12-15T13:32:08Z</time>
      </trkpt>
      <trkpt lat="45.72442" lon="4.61259">
        <ele>675.2</ele>
        <time>2025-12-15T13:32:09Z</time>
      </trkpt>
      <trkpt lat="45.72442" lon="4.61259">
        <ele>675.2</ele>
        <time>2025-12-15T13:32:10Z</time>
      </trkpt>
      <trkpt lat="45.72442" lon="4.61259">
        <ele>675</ele>
        <time>2025-12-15T13:32:11Z</time>
      </trkpt>
      <trkpt lat="45.72442" lon="4.61259">
        <ele>675</ele>
        <time>2025-12-15T13:32:12Z</time>
      </trkpt>
      <trkpt lat="45.72442" lon="4.61259">
        <ele>675</ele>
        <time>2025-12-15T13:32:13Z</time>
      </trkpt>
      <trkpt lat="45.72442" lon="4.61259">
        <ele>675</ele>
        <time>2025-12-15T13:32:14Z</time>
      </trkpt>
      <trkpt lat="45.72442" lon="4.61258">
        <ele>675</ele>
        <time>2025-12-15T13:32:15Z</time>
      </trkpt>
      <trkpt lat="45.72441" lon="4.61257">
        <ele>675</ele>
        <time>2025-12-15T13:32:16Z</time>
      </trkpt>
      <trkpt lat="45.7244" lon="4.61254">
        <ele>675</ele>
        <time>2025-12-15T13:32:17Z</time>
      </trkpt>
      <trkpt lat="45.72439" lon="4.6125">
        <ele>674.8</ele>
        <time>2025-12-15T13:32:18Z</time>
      </trkpt>
      <trkpt lat="45.72438" lon="4.61246">
        <ele>674.8</ele>
        <time>2025-12-15T13:32:19Z</time>
      </trkpt>
      <trkpt lat="45.72437" lon="4.61242">
        <ele>674.6</ele>
        <time>2025-12-15T13:32:20Z</time>
      </trkpt>
      <trkpt lat="45.72436" lon="4.61237">
        <ele>674.6</ele>
        <time>2025-12-15T13:32:21Z</time>
      </trkpt>
      <trkpt lat="45.72435" lon="4.61232">
        <ele>674.8</ele>
        <time>2025-12-15T13:32:22Z</time>
      </trkpt>
      <trkpt lat="45.72434" lon="4.61226">
        <ele>674.8</ele>
        <time>2025-12-15T13:32:23Z</time>
      </trkpt>
      <trkpt lat="45.72433" lon="4.61221">
        <ele>674.8</ele>
        <time>2025-12-15T13:32:24Z</time>
      </trkpt>
      <trkpt lat="45.72433" lon="4.61215">
        <ele>674.6</ele>
        <time>2025-12-15T13:32:25Z</time>
      </trkpt>
      <trkpt lat="45.72433" lon="4.61208">
        <ele>674.4</ele>
        <time>2025-12-15T13:32:26Z</time>
      </trkpt>
      <trkpt lat="45.72434" lon="4.612">
        <ele>673.8</ele>
        <time>2025-12-15T13:32:27Z</time>
      </trkpt>
      <trkpt lat="45.72435" lon="4.61192">
        <ele>673.4</ele>
        <time>2025-12-15T13:32:28Z</time>
      </trkpt>
      <trkpt lat="45.72437" lon="4.61184">
        <ele>672.8</ele>
        <time>2025-12-15T13:32:29Z</time>
      </trkpt>
      <trkpt lat="45.72438" lon="4.61176">
        <ele>672.4</ele>
        <time>2025-12-15T13:32:30Z</time>
      </trkpt>
      <trkpt lat="45.7244" lon="4.61168">
        <ele>672</ele>
        <time>2025-12-15T13:32:31Z</time>
      </trkpt>
      <trkpt lat="45.72441" lon="4.6116">
        <ele>671.6</ele>
        <time>2025-12-15T13:32:32Z</time>
      </trkpt>
      <trkpt lat="45.72442" lon="4.61151">
        <ele>671.4</ele>
        <time>2025-12-15T13:32:33Z</time>
      </trkpt>
      <trkpt lat="45.72443" lon="4.61143">
        <ele>671</ele>
        <time>2025-12-15T13:32:34Z</time>
      </trkpt>
      <trkpt lat="45.72445" lon="4.61134">
        <ele>670.8</ele>
        <time>2025-12-15T13:32:35Z</time>
      </trkpt>
      <trkpt lat="45.72446" lon="4.61126">
        <ele>670.6</ele>
        <time>2025-12-15T13:32:36Z</time>
      </trkpt>
      <trkpt lat="45.72447" lon="4.61118">
        <ele>670.6</ele>
        <time>2025-12-15T13:32:37Z</time>
      </trkpt>
      <trkpt lat="45.72448" lon="4.6111">
        <ele>670.6</ele>
        <time>2025-12-15T13:32:38Z</time>
      </trkpt>
      <trkpt lat="45.72448" lon="4.61101">
        <ele>670.6</ele>
        <time>2025-12-15T13:32:39Z</time>
      </trkpt>
      <trkpt lat="45.72448" lon="4.61093">
        <ele>670.6</ele>
        <time>2025-12-15T13:32:40Z</time>
      </trkpt>
      <trkpt lat="45.72448" lon="4.61085">
        <ele>670.8</ele>
        <time>2025-12-15T13:32:41Z</time>
      </trkpt>
      <trkpt lat="45.72447" lon="4.61076">
        <ele>670.8</ele>
        <time>2025-12-15T13:32:42Z</time>
      </trkpt>
      <trkpt lat="45.72447" lon="4.61068">
        <ele>670.8</ele>
        <time>2025-12-15T13:32:43Z</time>
      </trkpt>
      <trkpt lat="45.72448" lon="4.6106">
        <ele>670.8</ele>
        <time>2025-12-15T13:32:44Z</time>
      </trkpt>
      <trkpt lat="45.72448" lon="4.61051">
        <ele>670.8</ele>
        <time>2025-12-15T13:32:45Z</time>
      </trkpt>
      <trkpt lat="45.72448" lon="4.61044">
        <ele>670.8</ele>
        <time>2025-12-15T13:32:46Z</time>
      </trkpt>
      <trkpt lat="45.72449" lon="4.61036">
        <ele>670.8</ele>
        <time>2025-12-15T13:32:47Z</time>
      </trkpt>
      <trkpt lat="45.72449" lon="4.61029">
        <ele>671</ele>
        <time>2025-12-15T13:32:48Z</time>
      </trkpt>
      <trkpt lat="45.7245" lon="4.61021">
        <ele>671</ele>
        <time>2025-12-15T13:32:49Z</time>
      </trkpt>
      <trkpt lat="45.72451" lon="4.61014">
        <ele>671.2</ele>
        <time>2025-12-15T13:32:50Z</time>
      </trkpt>
      <trkpt lat="45.72451" lon="4.61006">
        <ele>671.4</ele>
        <time>2025-12-15T13:32:51Z</time>
      </trkpt>
      <trkpt lat="45.72451" lon="4.60999">
        <ele>671.6</ele>
        <time>2025-12-15T13:32:52Z</time>
      </trkpt>
      <trkpt lat="45.72451" lon="4.60992">
        <ele>671.6</ele>
        <time>2025-12-15T13:32:53Z</time>
      </trkpt>
      <trkpt lat="45.72451" lon="4.60984">
        <ele>671.6</ele>
        <time>2025-12-15T13:32:54Z</time>
      </trkpt>
      <trkpt lat="45.72452" lon="4.60975">
        <ele>671.6</ele>
        <time>2025-12-15T13:32:55Z</time>
      </trkpt>
      <trkpt lat="45.72453" lon="4.60967">
        <ele>671.6</ele>
        <time>2025-12-15T13:32:56Z</time>
      </trkpt>
      <trkpt lat="45.72454" lon="4.60959">
        <ele>671.6</ele>
        <time>2025-12-15T13:32:57Z</time>
      </trkpt>
      <trkpt lat="45.72455" lon="4.60952">
        <ele>671.8</ele>
        <time>2025-12-15T13:32:58Z</time>
      </trkpt>
      <trkpt lat="45.72456" lon="4.60944">
        <ele>672</ele>
        <time>2025-12-15T13:32:59Z</time>
      </trkpt>
      <trkpt lat="45.72456" lon="4.60937">
        <ele>672.2</ele>
        <time>2025-12-15T13:33:00Z</time>
      </trkpt>
      <trkpt lat="45.72456" lon="4.60929">
        <ele>672.4</ele>
        <time>2025-12-15T13:33:01Z</time>
      </trkpt>
      <trkpt lat="45.72457" lon="4.6092">
        <ele>672.4</ele>
        <time>2025-12-15T13:33:02Z</time>
      </trkpt>
      <trkpt lat="45.72457" lon="4.60912">
        <ele>672.4</ele>
        <time>2025-12-15T13:33:03Z</time>
      </trkpt>
      <trkpt lat="45.72458" lon="4.60904">
        <ele>672.2</ele>
        <time>2025-12-15T13:33:04Z</time>
      </trkpt>
      <trkpt lat="45.72459" lon="4.60896">
        <ele>672.2</ele>
        <time>2025-12-15T13:33:05Z</time>
      </trkpt>
      <trkpt lat="45.7246" lon="4.60888">
        <ele>672.2</ele>
        <time>2025-12-15T13:33:06Z</time>
      </trkpt>
      <trkpt lat="45.72461" lon="4.60881">
        <ele>672.4</ele>
        <time>2025-12-15T13:33:07Z</time>
      </trkpt>
      <trkpt lat="45.72462" lon="4.60873">
        <ele>672.4</ele>
        <time>2025-12-15T13:33:08Z</time>
      </trkpt>
      <trkpt lat="45.72463" lon="4.60864">
        <ele>672.6</ele>
        <time>2025-12-15T13:33:09Z</time>
      </trkpt>
      <trkpt lat="45.72465" lon="4.60856">
        <ele>672.6</ele>
        <time>2025-12-15T13:33:10Z</time>
      </trkpt>
      <trkpt lat="45.72466" lon="4.60849">
        <ele>672.6</ele>
        <time>2025-12-15T13:33:11Z</time>
      </trkpt>
      <trkpt lat="45.72467" lon="4.6084">
        <ele>672.4</ele>
        <time>2025-12-15T13:33:12Z</time>
      </trkpt>
      <trkpt lat="45.72468" lon="4.60832">
        <ele>672.4</ele>
        <time>2025-12-15T13:33:13Z</time>
      </trkpt>
      <trkpt lat="45.7247" lon="4.60824">
        <ele>672.4</ele>
        <time>2025-12-15T13:33:14Z</time>
      </trkpt>
      <trkpt lat="45.72471" lon="4.60817">
        <ele>672.6</ele>
        <time>2025-12-15T13:33:15Z</time>
      </trkpt>
      <trkpt lat="45.72472" lon="4.6081">
        <ele>672.6</ele>
        <time>2025-12-15T13:33:16Z</time>
      </trkpt>
      <trkpt lat="45.72473" lon="4.60803">
        <ele>672.8</ele>
        <time>2025-12-15T13:33:17Z</time>
      </trkpt>
      <trkpt lat="45.72475" lon="4.60796">
        <ele>673</ele>
        <time>2025-12-15T13:33:18Z</time>
      </trkpt>
      <trkpt lat="45.72476" lon="4.6079">
        <ele>673.2</ele>
        <time>2025-12-15T13:33:19Z</time>
      </trkpt>
      <trkpt lat="45.72477" lon="4.60782">
        <ele>673.4</ele>
        <time>2025-12-15T13:33:20Z</time>
      </trkpt>
      <trkpt lat="45.72478" lon="4.60775">
        <ele>673.6</ele>
        <time>2025-12-15T13:33:21Z</time>
      </trkpt>
      <trkpt lat="45.72478" lon="4.60767">
        <ele>673.6</ele>
        <time>2025-12-15T13:33:22Z</time>
      </trkpt>
      <trkpt lat="45.72478" lon="4.60759">
        <ele>673.6</ele>
        <time>2025-12-15T13:33:23Z</time>
      </trkpt>
      <trkpt lat="45.72477" lon="4.60751">
        <ele>673.6</ele>
        <time>2025-12-15T13:33:24Z</time>
      </trkpt>
      <trkpt lat="45.72477" lon="4.60744">
        <ele>673.6</ele>
        <time>2025-12-15T13:33:25Z</time>
      </trkpt>
      <trkpt lat="45.72476" lon="4.60737">
        <ele>673.6</ele>
        <time>2025-12-15T13:33:26Z</time>
      </trkpt>
      <trkpt lat="45.72475" lon="4.6073">
        <ele>673.6</ele>
        <time>2025-12-15T13:33:27Z</time>
      </trkpt>
      <trkpt lat="45.72474" lon="4.60724">
        <ele>673.8</ele>
        <time>2025-12-15T13:33:28Z</time>
      </trkpt>
      <trkpt lat="45.72472" lon="4.60719">
        <ele>674</ele>
        <time>2025-12-15T13:33:29Z</time>
      </trkpt>
      <trkpt lat="45.72469" lon="4.60716">
        <ele>674</ele>
        <time>2025-12-15T13:33:30Z</time>
      </trkpt>
      <trkpt lat="45.72466" lon="4.60713">
        <ele>674.2</ele>
        <time>2025-12-15T13:33:31Z</time>
      </trkpt>
      <trkpt lat="45.72462" lon="4.60713">
        <ele>674.2</ele>
        <time>2025-12-15T13:33:32Z</time>
      </trkpt>
      <trkpt lat="45.72458" lon="4.60713">
        <ele>674.2</ele>
        <time>2025-12-15T13:33:33Z</time>
      </trkpt>
      <trkpt lat="45.72454" lon="4.60713">
        <ele>674.2</ele>
        <time>2025-12-15T13:33:34Z</time>
      </trkpt>
      <trkpt lat="45.72449" lon="4.60713">
        <ele>674.2</ele>
        <time>2025-12-15T13:33:35Z</time>
      </trkpt>
      <trkpt lat="45.72444" lon="4.60714">
        <ele>674.2</ele>
        <time>2025-12-15T13:33:36Z</time>
      </trkpt>
      <trkpt lat="45.7244" lon="4.60714">
        <ele>674.2</ele>
        <time>2025-12-15T13:33:37Z</time>
      </trkpt>
      <trkpt lat="45.72435" lon="4.60714">
        <ele>674.2</ele>
        <time>2025-12-15T13:33:38Z</time>
      </trkpt>
      <trkpt lat="45.72429" lon="4.60715">
        <ele>674.2</ele>
        <time>2025-12-15T13:33:39Z</time>
      </trkpt>
      <trkpt lat="45.72425" lon="4.60715">
        <ele>674.2</ele>
        <time>2025-12-15T13:33:40Z</time>
      </trkpt>
      <trkpt lat="45.72421" lon="4.60715">
        <ele>674.4</ele>
        <time>2025-12-15T13:33:41Z</time>
      </trkpt>
      <trkpt lat="45.72415" lon="4.60716">
        <ele>674.4</ele>
        <time>2025-12-15T13:33:42Z</time>
      </trkpt>
      <trkpt lat="45.7241" lon="4.60716">
        <ele>674.4</ele>
        <time>2025-12-15T13:33:43Z</time>
      </trkpt>
      <trkpt lat="45.72404" lon="4.60717">
        <ele>674.2</ele>
        <time>2025-12-15T13:33:44Z</time>
      </trkpt>
      <trkpt lat="45.72398" lon="4.60718">
        <ele>673.8</ele>
        <time>2025-12-15T13:33:45Z</time>
      </trkpt>
      <trkpt lat="45.72391" lon="4.60717">
        <ele>673.4</ele>
        <time>2025-12-15T13:33:46Z</time>
      </trkpt>
      <trkpt lat="45.72384" lon="4.60717">
        <ele>672.8</ele>
        <time>2025-12-15T13:33:47Z</time>
      </trkpt>
      <trkpt lat="45.72378" lon="4.60719">
        <ele>672.2</ele>
        <time>2025-12-15T13:33:48Z</time>
      </trkpt>
      <trkpt lat="45.72371" lon="4.60721">
        <ele>671.8</ele>
        <time>2025-12-15T13:33:49Z</time>
      </trkpt>
      <trkpt lat="45.72362" lon="4.60723">
        <ele>671.6</ele>
        <time>2025-12-15T13:33:50Z</time>
      </trkpt>
      <trkpt lat="45.72356" lon="4.60725">
        <ele>671.4</ele>
        <time>2025-12-15T13:33:51Z</time>
      </trkpt>
      <trkpt lat="45.72349" lon="4.60726">
        <ele>671.2</ele>
        <time>2025-12-15T13:33:52Z</time>
      </trkpt>
      <trkpt lat="45.72345" lon="4.60726">
        <ele>671.4</ele>
        <time>2025-12-15T13:33:53Z</time>
      </trkpt>
      <trkpt lat="45.72339" lon="4.60727">
        <ele>671.6</ele>
        <time>2025-12-15T13:33:54Z</time>
      </trkpt>
      <trkpt lat="45.72334" lon="4.60726">
        <ele>671.8</ele>
        <time>2025-12-15T13:33:55Z</time>
      </trkpt>
      <trkpt lat="45.72329" lon="4.60725">
        <ele>671.8</ele>
        <time>2025-12-15T13:33:56Z</time>
      </trkpt>
      <trkpt lat="45.72324" lon="4.60724">
        <ele>672</ele>
        <time>2025-12-15T13:33:57Z</time>
      </trkpt>
      <trkpt lat="45.7232" lon="4.60722">
        <ele>672</ele>
        <time>2025-12-15T13:33:58Z</time>
      </trkpt>
      <trkpt lat="45.72315" lon="4.60721">
        <ele>672</ele>
        <time>2025-12-15T13:33:59Z</time>
      </trkpt>
      <trkpt lat="45.72309" lon="4.60718">
        <ele>672</ele>
        <time>2025-12-15T13:34:00Z</time>
      </trkpt>
      <trkpt lat="45.72303" lon="4.60715">
        <ele>671.8</ele>
        <time>2025-12-15T13:34:01Z</time>
      </trkpt>
      <trkpt lat="45.72298" lon="4.60712">
        <ele>671.8</ele>
        <time>2025-12-15T13:34:02Z</time>
      </trkpt>
      <trkpt lat="45.72292" lon="4.60709">
        <ele>671.6</ele>
        <time>2025-12-15T13:34:03Z</time>
      </trkpt>
      <trkpt lat="45.72287" lon="4.60705">
        <ele>671.6</ele>
        <time>2025-12-15T13:34:04Z</time>
      </trkpt>
      <trkpt lat="45.72283" lon="4.60702">
        <ele>671.8</ele>
        <time>2025-12-15T13:34:05Z</time>
      </trkpt>
      <trkpt lat="45.72279" lon="4.60698">
        <ele>671.8</ele>
        <time>2025-12-15T13:34:06Z</time>
      </trkpt>
      <trkpt lat="45.72275" lon="4.60695">
        <ele>672</ele>
        <time>2025-12-15T13:34:07Z</time>
      </trkpt>
      <trkpt lat="45.7227" lon="4.60691">
        <ele>672</ele>
        <time>2025-12-15T13:34:08Z</time>
      </trkpt>
      <trkpt lat="45.72265" lon="4.60687">
        <ele>672.2</ele>
        <time>2025-12-15T13:34:09Z</time>
      </trkpt>
      <trkpt lat="45.72261" lon="4.60684">
        <ele>672.4</ele>
        <time>2025-12-15T13:34:10Z</time>
      </trkpt>
      <trkpt lat="45.72256" lon="4.6068">
        <ele>672.4</ele>
        <time>2025-12-15T13:34:11Z</time>
      </trkpt>
      <trkpt lat="45.7225" lon="4.60677">
        <ele>672.6</ele>
        <time>2025-12-15T13:34:12Z</time>
      </trkpt>
      <trkpt lat="45.72245" lon="4.60673">
        <ele>672.4</ele>
        <time>2025-12-15T13:34:13Z</time>
      </trkpt>
      <trkpt lat="45.72241" lon="4.60669">
        <ele>672.4</ele>
        <time>2025-12-15T13:34:14Z</time>
      </trkpt>
      <trkpt lat="45.72237" lon="4.60666">
        <ele>672.2</ele>
        <time>2025-12-15T13:34:15Z</time>
      </trkpt>
      <trkpt lat="45.72232" lon="4.60664">
        <ele>672.2</ele>
        <time>2025-12-15T13:34:16Z</time>
      </trkpt>
      <trkpt lat="45.72228" lon="4.6066">
        <ele>672</ele>
        <time>2025-12-15T13:34:17Z</time>
      </trkpt>
      <trkpt lat="45.72222" lon="4.60657">
        <ele>672</ele>
        <time>2025-12-15T13:34:18Z</time>
      </trkpt>
      <trkpt lat="45.72218" lon="4.60653">
        <ele>672.2</ele>
        <time>2025-12-15T13:34:19Z</time>
      </trkpt>
      <trkpt lat="45.72214" lon="4.60648">
        <ele>672.2</ele>
        <time>2025-12-15T13:34:20Z</time>
      </trkpt>
      <trkpt lat="45.72209" lon="4.60644">
        <ele>672.4</ele>
        <time>2025-12-15T13:34:21Z</time>
      </trkpt>
      <trkpt lat="45.72204" lon="4.6064">
        <ele>672.6</ele>
        <time>2025-12-15T13:34:22Z</time>
      </trkpt>
      <trkpt lat="45.72199" lon="4.60636">
        <ele>672.6</ele>
        <time>2025-12-15T13:34:23Z</time>
      </trkpt>
      <trkpt lat="45.72194" lon="4.60632">
        <ele>672.8</ele>
        <time>2025-12-15T13:34:24Z</time>
      </trkpt>
      <trkpt lat="45.72188" lon="4.60628">
        <ele>673</ele>
        <time>2025-12-15T13:34:25Z</time>
      </trkpt>
      <trkpt lat="45.72183" lon="4.60623">
        <ele>673</ele>
        <time>2025-12-15T13:34:26Z</time>
      </trkpt>
      <trkpt lat="45.7218" lon="4.60619">
        <ele>673.2</ele>
        <time>2025-12-15T13:34:27Z</time>
      </trkpt>
      <trkpt lat="45.72176" lon="4.60614">
        <ele>673.6</ele>
        <time>2025-12-15T13:34:28Z</time>
      </trkpt>
      <trkpt lat="45.72173" lon="4.60609">
        <ele>673.8</ele>
        <time>2025-12-15T13:34:29Z</time>
      </trkpt>
      <trkpt lat="45.72171" lon="4.60604">
        <ele>674</ele>
        <time>2025-12-15T13:34:30Z</time>
      </trkpt>
      <trkpt lat="45.72169" lon="4.606">
        <ele>674.4</ele>
        <time>2025-12-15T13:34:31Z</time>
      </trkpt>
      <trkpt lat="45.72167" lon="4.60596">
        <ele>674.8</ele>
        <time>2025-12-15T13:34:32Z</time>
      </trkpt>
      <trkpt lat="45.72165" lon="4.60591">
        <ele>675</ele>
        <time>2025-12-15T13:34:33Z</time>
      </trkpt>
      <trkpt lat="45.72162" lon="4.60585">
        <ele>675.2</ele>
        <time>2025-12-15T13:34:34Z</time>
      </trkpt>
      <trkpt lat="45.72161" lon="4.6058">
        <ele>675.4</ele>
        <time>2025-12-15T13:34:35Z</time>
      </trkpt>
      <trkpt lat="45.72158" lon="4.60574">
        <ele>675.4</ele>
        <time>2025-12-15T13:34:36Z</time>
      </trkpt>
      <trkpt lat="45.72157" lon="4.60567">
        <ele>675.4</ele>
        <time>2025-12-15T13:34:37Z</time>
      </trkpt>
      <trkpt lat="45.72156" lon="4.60561">
        <ele>675.4</ele>
        <time>2025-12-15T13:34:38Z</time>
      </trkpt>
      <trkpt lat="45.72154" lon="4.60554">
        <ele>675.4</ele>
        <time>2025-12-15T13:34:39Z</time>
      </trkpt>
      <trkpt lat="45.72152" lon="4.60548">
        <ele>675.4</ele>
        <time>2025-12-15T13:34:40Z</time>
      </trkpt>
      <trkpt lat="45.72151" lon="4.60542">
        <ele>675.6</ele>
        <time>2025-12-15T13:34:41Z</time>
      </trkpt>
      <trkpt lat="45.7215" lon="4.60535">
        <ele>675.6</ele>
        <time>2025-12-15T13:34:42Z</time>
      </trkpt>
      <trkpt lat="45.72149" lon="4.60528">
        <ele>675.8</ele>
        <time>2025-12-15T13:34:43Z</time>
      </trkpt>
      <trkpt lat="45.72148" lon="4.60522">
        <ele>675.8</ele>
        <time>2025-12-15T13:34:44Z</time>
      </trkpt>
      <trkpt lat="45.72147" lon="4.60514">
        <ele>675.8</ele>
        <time>2025-12-15T13:34:45Z</time>
      </trkpt>
      <trkpt lat="45.72145" lon="4.60507">
        <ele>675.8</ele>
        <time>2025-12-15T13:34:46Z</time>
      </trkpt>
      <trkpt lat="45.72144" lon="4.605">
        <ele>676</ele>
        <time>2025-12-15T13:34:47Z</time>
      </trkpt>
      <trkpt lat="45.72142" lon="4.60495">
        <ele>676.2</ele>
        <time>2025-12-15T13:34:48Z</time>
      </trkpt>
      <trkpt lat="45.72141" lon="4.60488">
        <ele>676.2</ele>
        <time>2025-12-15T13:34:49Z</time>
      </trkpt>
      <trkpt lat="45.72139" lon="4.60483">
        <ele>676.4</ele>
        <time>2025-12-15T13:34:50Z</time>
      </trkpt>
      <trkpt lat="45.72137" lon="4.60477">
        <ele>676.8</ele>
        <time>2025-12-15T13:34:51Z</time>
      </trkpt>
      <trkpt lat="45.72135" lon="4.60471">
        <ele>677.2</ele>
        <time>2025-12-15T13:34:52Z</time>
      </trkpt>
      <trkpt lat="45.72134" lon="4.60466">
        <ele>677.6</ele>
        <time>2025-12-15T13:34:53Z</time>
      </trkpt>
      <trkpt lat="45.72133" lon="4.60461">
        <ele>678</ele>
        <time>2025-12-15T13:34:54Z</time>
      </trkpt>
      <trkpt lat="45.72132" lon="4.60457">
        <ele>678.6</ele>
        <time>2025-12-15T13:34:55Z</time>
      </trkpt>
      <trkpt lat="45.72131" lon="4.60454">
        <ele>679</ele>
        <time>2025-12-15T13:34:56Z</time>
      </trkpt>
      <trkpt lat="45.7213" lon="4.60451">
        <ele>679.4</ele>
        <time>2025-12-15T13:34:57Z</time>
      </trkpt>
      <trkpt lat="45.7213" lon="4.60448">
        <ele>679.8</ele>
        <time>2025-12-15T13:34:58Z</time>
      </trkpt>
      <trkpt lat="45.72129" lon="4.60446">
        <ele>680</ele>
        <time>2025-12-15T13:34:59Z</time>
      </trkpt>
      <trkpt lat="45.72129" lon="4.60445">
        <ele>680.2</ele>
        <time>2025-12-15T13:35:00Z</time>
      </trkpt>
      <trkpt lat="45.72129" lon="4.60445">
        <ele>680.2</ele>
        <time>2025-12-15T13:35:01Z</time>
      </trkpt>
      <trkpt lat="45.72129" lon="4.60445">
        <ele>680.2</ele>
        <time>2025-12-15T13:35:02Z</time>
      </trkpt>
      <trkpt lat="45.72129" lon="4.60445">
        <ele>680.2</ele>
        <time>2025-12-15T13:35:03Z</time>
      </trkpt>
      <trkpt lat="45.72129" lon="4.60445">
        <ele>680.2</ele>
        <time>2025-12-15T13:35:04Z</time>
      </trkpt>
      <trkpt lat="45.72129" lon="4.60445">
        <ele>680.2</ele>
        <time>2025-12-15T13:35:05Z</time>
      </trkpt>
      <trkpt lat="45.72129" lon="4.60445">
        <ele>680.2</ele>
        <time>2025-12-15T13:35:06Z</time>
      </trkpt>
      <trkpt lat="45.72129" lon="4.60445">
        <ele>680.4</ele>
        <time>2025-12-15T13:35:07Z</time>
      </trkpt>
      <trkpt lat="45.72128" lon="4.60445">
        <ele>680.4</ele>
        <time>2025-12-15T13:35:08Z</time>
      </trkpt>
      <trkpt lat="45.72127" lon="4.60444">
        <ele>680.4</ele>
        <time>2025-12-15T13:35:09Z</time>
      </trkpt>
      <trkpt lat="45.72127" lon="4.60443">
        <ele>680.2</ele>
        <time>2025-12-15T13:35:10Z</time>
      </trkpt>
      <trkpt lat="45.72127" lon="4.60441">
        <ele>680.2</ele>
        <time>2025-12-15T13:35:11Z</time>
      </trkpt>
      <trkpt lat="45.72127" lon="4.60441">
        <ele>680</ele>
        <time>2025-12-15T13:35:12Z</time>
      </trkpt>
      <trkpt lat="45.72127" lon="4.60441">
        <ele>679.8</ele>
        <time>2025-12-15T13:35:13Z</time>
      </trkpt>
      <trkpt lat="45.72127" lon="4.60441">
        <ele>679.8</ele>
        <time>2025-12-15T13:35:14Z</time>
      </trkpt>
      <trkpt lat="45.72127" lon="4.60441">
        <ele>679.8</ele>
        <time>2025-12-15T13:35:15Z</time>
      </trkpt>
      <trkpt lat="45.72127" lon="4.60441">
        <ele>679.6</ele>
        <time>2025-12-15T13:35:16Z</time>
      </trkpt>
      <trkpt lat="45.72127" lon="4.60441">
        <ele>679.6</ele>
        <time>2025-12-15T13:35:17Z</time>
      </trkpt>
      <trkpt lat="45.72127" lon="4.60441">
        <ele>679.6</ele>
        <time>2025-12-15T13:35:18Z</time>
      </trkpt>
      <trkpt lat="45.72127" lon="4.6044">
        <ele>679.6</ele>
        <time>2025-12-15T13:35:19Z</time>
      </trkpt>
      <trkpt lat="45.72126" lon="4.6044">
        <ele>679.4</ele>
        <time>2025-12-15T13:35:20Z</time>
      </trkpt>
      <trkpt lat="45.72125" lon="4.60438">
        <ele>679.4</ele>
        <time>2025-12-15T13:35:21Z</time>
      </trkpt>
      <trkpt lat="45.72125" lon="4.60434">
        <ele>679.4</ele>
        <time>2025-12-15T13:35:22Z</time>
      </trkpt>
      <trkpt lat="45.72123" lon="4.60431">
        <ele>679</ele>
        <time>2025-12-15T13:35:23Z</time>
      </trkpt>
      <trkpt lat="45.72121" lon="4.60427">
        <ele>678.8</ele>
        <time>2025-12-15T13:35:24Z</time>
      </trkpt>
      <trkpt lat="45.72119" lon="4.60423">
        <ele>678.4</ele>
        <time>2025-12-15T13:35:25Z</time>
      </trkpt>
      <trkpt lat="45.72116" lon="4.60418">
        <ele>678.2</ele>
        <time>2025-12-15T13:35:26Z</time>
      </trkpt>
      <trkpt lat="45.72113" lon="4.60414">
        <ele>678</ele>
        <time>2025-12-15T13:35:27Z</time>
      </trkpt>
      <trkpt lat="45.72111" lon="4.60408">
        <ele>677.8</ele>
        <time>2025-12-15T13:35:28Z</time>
      </trkpt>
      <trkpt lat="45.7211" lon="4.60402">
        <ele>677.6</ele>
        <time>2025-12-15T13:35:29Z</time>
      </trkpt>
      <trkpt lat="45.72109" lon="4.60396">
        <ele>677.6</ele>
        <time>2025-12-15T13:35:30Z</time>
      </trkpt>
      <trkpt lat="45.72109" lon="4.6039">
        <ele>677.4</ele>
        <time>2025-12-15T13:35:31Z</time>
      </trkpt>
      <trkpt lat="45.7211" lon="4.60384">
        <ele>677.6</ele>
        <time>2025-12-15T13:35:32Z</time>
      </trkpt>
      <trkpt lat="45.72111" lon="4.60378">
        <ele>677.6</ele>
        <time>2025-12-15T13:35:33Z</time>
      </trkpt>
      <trkpt lat="45.72112" lon="4.60375">
        <ele>677.8</ele>
        <time>2025-12-15T13:35:34Z</time>
      </trkpt>
      <trkpt lat="45.72112" lon="4.60372">
        <ele>678</ele>
        <time>2025-12-15T13:35:35Z</time>
      </trkpt>
      <trkpt lat="45.72112" lon="4.60368">
        <ele>678.2</ele>
        <time>2025-12-15T13:35:36Z</time>
      </trkpt>
      <trkpt lat="45.72112" lon="4.60364">
        <ele>678.2</ele>
        <time>2025-12-15T13:35:37Z</time>
      </trkpt>
      <trkpt lat="45.72113" lon="4.6036">
        <ele>678.4</ele>
        <time>2025-12-15T13:35:38Z</time>
      </trkpt>
      <trkpt lat="45.72114" lon="4.60354">
        <ele>678.2</ele>
        <time>2025-12-15T13:35:39Z</time>
      </trkpt>
      <trkpt lat="45.72115" lon="4.60348">
        <ele>678</ele>
        <time>2025-12-15T13:35:40Z</time>
      </trkpt>
      <trkpt lat="45.72116" lon="4.60341">
        <ele>677.8</ele>
        <time>2025-12-15T13:35:41Z</time>
      </trkpt>
      <trkpt lat="45.72118" lon="4.60334">
        <ele>677.6</ele>
        <time>2025-12-15T13:35:42Z</time>
      </trkpt>
      <trkpt lat="45.7212" lon="4.60327">
        <ele>677.4</ele>
        <time>2025-12-15T13:35:43Z</time>
      </trkpt>
      <trkpt lat="45.72121" lon="4.60319">
        <ele>677</ele>
        <time>2025-12-15T13:35:44Z</time>
      </trkpt>
      <trkpt lat="45.72122" lon="4.60313">
        <ele>676.6</ele>
        <time>2025-12-15T13:35:45Z</time>
      </trkpt>
      <trkpt lat="45.72123" lon="4.60308">
        <ele>676.4</ele>
        <time>2025-12-15T13:35:46Z</time>
      </trkpt>
      <trkpt lat="45.72124" lon="4.60299">
        <ele>676.2</ele>
        <time>2025-12-15T13:35:47Z</time>
      </trkpt>
      <trkpt lat="45.72125" lon="4.6029">
        <ele>676</ele>
        <time>2025-12-15T13:35:48Z</time>
      </trkpt>
      <trkpt lat="45.72125" lon="4.60281">
        <ele>675.8</ele>
        <time>2025-12-15T13:35:49Z</time>
      </trkpt>
      <trkpt lat="45.72125" lon="4.60273">
        <ele>675.8</ele>
        <time>2025-12-15T13:35:50Z</time>
      </trkpt>
      <trkpt lat="45.72124" lon="4.60266">
        <ele>675.8</ele>
        <time>2025-12-15T13:35:51Z</time>
      </trkpt>
      <trkpt lat="45.72122" lon="4.60261">
        <ele>676</ele>
        <time>2025-12-15T13:35:52Z</time>
      </trkpt>
      <trkpt lat="45.72119" lon="4.60255">
        <ele>676</ele>
        <time>2025-12-15T13:35:53Z</time>
      </trkpt>
      <trkpt lat="45.72116" lon="4.60248">
        <ele>676</ele>
        <time>2025-12-15T13:35:54Z</time>
      </trkpt>
      <trkpt lat="45.72114" lon="4.60241">
        <ele>675.8</ele>
        <time>2025-12-15T13:35:55Z</time>
      </trkpt>
      <trkpt lat="45.7211" lon="4.60235">
        <ele>675.8</ele>
        <time>2025-12-15T13:35:56Z</time>
      </trkpt>
      <trkpt lat="45.72107" lon="4.60227">
        <ele>675.8</ele>
        <time>2025-12-15T13:35:57Z</time>
      </trkpt>
      <trkpt lat="45.72105" lon="4.60219">
        <ele>675.6</ele>
        <time>2025-12-15T13:35:58Z</time>
      </trkpt>
      <trkpt lat="45.72102" lon="4.60211">
        <ele>675.6</ele>
        <time>2025-12-15T13:35:59Z</time>
      </trkpt>
      <trkpt lat="45.721" lon="4.60204">
        <ele>675.4</ele>
        <time>2025-12-15T13:36:00Z</time>
      </trkpt>
      <trkpt lat="45.72097" lon="4.60195">
        <ele>675.2</ele>
        <time>2025-12-15T13:36:01Z</time>
      </trkpt>
      <trkpt lat="45.72094" lon="4.60187">
        <ele>675.2</ele>
        <time>2025-12-15T13:36:02Z</time>
      </trkpt>
      <trkpt lat="45.72092" lon="4.6018">
        <ele>675</ele>
        <time>2025-12-15T13:36:03Z</time>
      </trkpt>
      <trkpt lat="45.72091" lon="4.60172">
        <ele>675</ele>
        <time>2025-12-15T13:36:04Z</time>
      </trkpt>
      <trkpt lat="45.72091" lon="4.60164">
        <ele>674.8</ele>
        <time>2025-12-15T13:36:05Z</time>
      </trkpt>
      <trkpt lat="45.72089" lon="4.60156">
        <ele>674.8</ele>
        <time>2025-12-15T13:36:06Z</time>
      </trkpt>
      <trkpt lat="45.72088" lon="4.60148">
        <ele>675</ele>
        <time>2025-12-15T13:36:07Z</time>
      </trkpt>
      <trkpt lat="45.72088" lon="4.60141">
        <ele>675</ele>
        <time>2025-12-15T13:36:08Z</time>
      </trkpt>
      <trkpt lat="45.72086" lon="4.60134">
        <ele>675</ele>
        <time>2025-12-15T13:36:09Z</time>
      </trkpt>
      <trkpt lat="45.72081" lon="4.60129">
        <ele>675.2</ele>
        <time>2025-12-15T13:36:10Z</time>
      </trkpt>
      <trkpt lat="45.72076" lon="4.60126">
        <ele>675.2</ele>
        <time>2025-12-15T13:36:11Z</time>
      </trkpt>
      <trkpt lat="45.72073" lon="4.60124">
        <ele>675.2</ele>
        <time>2025-12-15T13:36:12Z</time>
      </trkpt>
      <trkpt lat="45.72069" lon="4.60121">
        <ele>675.4</ele>
        <time>2025-12-15T13:36:13Z</time>
      </trkpt>
      <trkpt lat="45.72064" lon="4.60121">
        <ele>675.4</ele>
        <time>2025-12-15T13:36:14Z</time>
      </trkpt>
      <trkpt lat="45.72058" lon="4.60121">
        <ele>675.4</ele>
        <time>2025-12-15T13:36:15Z</time>
      </trkpt>
      <trkpt lat="45.72052" lon="4.6012">
        <ele>675.4</ele>
        <time>2025-12-15T13:36:16Z</time>
      </trkpt>
      <trkpt lat="45.72046" lon="4.6012">
        <ele>675.4</ele>
        <time>2025-12-15T13:36:17Z</time>
      </trkpt>
      <trkpt lat="45.72039" lon="4.60119">
        <ele>675.4</ele>
        <time>2025-12-15T13:36:18Z</time>
      </trkpt>
      <trkpt lat="45.72033" lon="4.6012">
        <ele>675.2</ele>
        <time>2025-12-15T13:36:19Z</time>
      </trkpt>
      <trkpt lat="45.72027" lon="4.60121">
        <ele>675.2</ele>
        <time>2025-12-15T13:36:20Z</time>
      </trkpt>
      <trkpt lat="45.72022" lon="4.60121">
        <ele>675</ele>
        <time>2025-12-15T13:36:21Z</time>
      </trkpt>
      <trkpt lat="45.72016" lon="4.60122">
        <ele>675</ele>
        <time>2025-12-15T13:36:22Z</time>
      </trkpt>
      <trkpt lat="45.7201" lon="4.60123">
        <ele>675</ele>
        <time>2025-12-15T13:36:23Z</time>
      </trkpt>
      <trkpt lat="45.72004" lon="4.60124">
        <ele>675</ele>
        <time>2025-12-15T13:36:24Z</time>
      </trkpt>
      <trkpt lat="45.71998" lon="4.60124">
        <ele>675.2</ele>
        <time>2025-12-15T13:36:25Z</time>
      </trkpt>
      <trkpt lat="45.71994" lon="4.60123">
        <ele>675.4</ele>
        <time>2025-12-15T13:36:26Z</time>
      </trkpt>
      <trkpt lat="45.71989" lon="4.60123">
        <ele>676</ele>
        <time>2025-12-15T13:36:27Z</time>
      </trkpt>
      <trkpt lat="45.71985" lon="4.60122">
        <ele>676.6</ele>
        <time>2025-12-15T13:36:28Z</time>
      </trkpt>
      <trkpt lat="45.71982" lon="4.60122">
        <ele>677.2</ele>
        <time>2025-12-15T13:36:29Z</time>
      </trkpt>
      <trkpt lat="45.71979" lon="4.60122">
        <ele>678</ele>
        <time>2025-12-15T13:36:30Z</time>
      </trkpt>
      <trkpt lat="45.71976" lon="4.60123">
        <ele>678.6</ele>
        <time>2025-12-15T13:36:31Z</time>
      </trkpt>
      <trkpt lat="45.71972" lon="4.60123">
        <ele>679</ele>
        <time>2025-12-15T13:36:32Z</time>
      </trkpt>
      <trkpt lat="45.71967" lon="4.60124">
        <ele>679.4</ele>
        <time>2025-12-15T13:36:33Z</time>
      </trkpt>
      <trkpt lat="45.71962" lon="4.60123">
        <ele>679.4</ele>
        <time>2025-12-15T13:36:34Z</time>
      </trkpt>
      <trkpt lat="45.71957" lon="4.60121">
        <ele>679.4</ele>
        <time>2025-12-15T13:36:35Z</time>
      </trkpt>
      <trkpt lat="45.71951" lon="4.60121">
        <ele>679.2</ele>
        <time>2025-12-15T13:36:36Z</time>
      </trkpt>
      <trkpt lat="45.71947" lon="4.6012">
        <ele>679</ele>
        <time>2025-12-15T13:36:37Z</time>
      </trkpt>
      <trkpt lat="45.71942" lon="4.6012">
        <ele>678.8</ele>
        <time>2025-12-15T13:36:38Z</time>
      </trkpt>
      <trkpt lat="45.71938" lon="4.60118">
        <ele>678.6</ele>
        <time>2025-12-15T13:36:39Z</time>
      </trkpt>
      <trkpt lat="45.71934" lon="4.60117">
        <ele>678.4</ele>
        <time>2025-12-15T13:36:40Z</time>
      </trkpt>
      <trkpt lat="45.7193" lon="4.60115">
        <ele>678.4</ele>
        <time>2025-12-15T13:36:41Z</time>
      </trkpt>
      <trkpt lat="45.71925" lon="4.60112">
        <ele>678.2</ele>
        <time>2025-12-15T13:36:42Z</time>
      </trkpt>
      <trkpt lat="45.71921" lon="4.60109">
        <ele>678.2</ele>
        <time>2025-12-15T13:36:43Z</time>
      </trkpt>
      <trkpt lat="45.71918" lon="4.60104">
        <ele>678</ele>
        <time>2025-12-15T13:36:44Z</time>
      </trkpt>
      <trkpt lat="45.71915" lon="4.601">
        <ele>678</ele>
        <time>2025-12-15T13:36:45Z</time>
      </trkpt>
      <trkpt lat="45.71912" lon="4.60094">
        <ele>677.8</ele>
        <time>2025-12-15T13:36:46Z</time>
      </trkpt>
      <trkpt lat="45.71909" lon="4.60089">
        <ele>677.6</ele>
        <time>2025-12-15T13:36:47Z</time>
      </trkpt>
      <trkpt lat="45.71907" lon="4.60083">
        <ele>677.8</ele>
        <time>2025-12-15T13:36:48Z</time>
      </trkpt>
      <trkpt lat="45.71906" lon="4.60077">
        <ele>677.8</ele>
        <time>2025-12-15T13:36:49Z</time>
      </trkpt>
      <trkpt lat="45.71904" lon="4.60071">
        <ele>677.8</ele>
        <time>2025-12-15T13:36:50Z</time>
      </trkpt>
      <trkpt lat="45.71902" lon="4.60065">
        <ele>677.6</ele>
        <time>2025-12-15T13:36:51Z</time>
      </trkpt>
      <trkpt lat="45.719" lon="4.60059">
        <ele>677.6</ele>
        <time>2025-12-15T13:36:52Z</time>
      </trkpt>
      <trkpt lat="45.71899" lon="4.60052">
        <ele>677.4</ele>
        <time>2025-12-15T13:36:53Z</time>
      </trkpt>
      <trkpt lat="45.71898" lon="4.60046">
        <ele>677.2</ele>
        <time>2025-12-15T13:36:54Z</time>
      </trkpt>
      <trkpt lat="45.71898" lon="4.6004">
        <ele>677</ele>
        <time>2025-12-15T13:36:55Z</time>
      </trkpt>
      <trkpt lat="45.71897" lon="4.60033">
        <ele>676.8</ele>
        <time>2025-12-15T13:36:56Z</time>
      </trkpt>
      <trkpt lat="45.71896" lon="4.60027">
        <ele>676.6</ele>
        <time>2025-12-15T13:36:57Z</time>
      </trkpt>
      <trkpt lat="45.71895" lon="4.6002">
        <ele>676.4</ele>
        <time>2025-12-15T13:36:58Z</time>
      </trkpt>
      <trkpt lat="45.71894" lon="4.60013">
        <ele>676.4</ele>
        <time>2025-12-15T13:36:59Z</time>
      </trkpt>
      <trkpt lat="45.71893" lon="4.60005">
        <ele>676.4</ele>
        <time>2025-12-15T13:37:00Z</time>
      </trkpt>
      <trkpt lat="45.71892" lon="4.59997">
        <ele>676.4</ele>
        <time>2025-12-15T13:37:01Z</time>
      </trkpt>
      <trkpt lat="45.71892" lon="4.59989">
        <ele>676.4</ele>
        <time>2025-12-15T13:37:02Z</time>
      </trkpt>
      <trkpt lat="45.71891" lon="4.59982">
        <ele>676.6</ele>
        <time>2025-12-15T13:37:03Z</time>
      </trkpt>
      <trkpt lat="45.7189" lon="4.59974">
        <ele>676.6</ele>
        <time>2025-12-15T13:37:04Z</time>
      </trkpt>
      <trkpt lat="45.7189" lon="4.59967">
        <ele>676.8</ele>
        <time>2025-12-15T13:37:05Z</time>
      </trkpt>
      <trkpt lat="45.7189" lon="4.59959">
        <ele>677</ele>
        <time>2025-12-15T13:37:06Z</time>
      </trkpt>
      <trkpt lat="45.7189" lon="4.59952">
        <ele>677.2</ele>
        <time>2025-12-15T13:37:07Z</time>
      </trkpt>
      <trkpt lat="45.71889" lon="4.59945">
        <ele>677.6</ele>
        <time>2025-12-15T13:37:08Z</time>
      </trkpt>
      <trkpt lat="45.71889" lon="4.59937">
        <ele>677.8</ele>
        <time>2025-12-15T13:37:09Z</time>
      </trkpt>
      <trkpt lat="45.71889" lon="4.59929">
        <ele>678</ele>
        <time>2025-12-15T13:37:10Z</time>
      </trkpt>
      <trkpt lat="45.71889" lon="4.5992">
        <ele>678.2</ele>
        <time>2025-12-15T13:37:11Z</time>
      </trkpt>
      <trkpt lat="45.71889" lon="4.59914">
        <ele>678.4</ele>
        <time>2025-12-15T13:37:12Z</time>
      </trkpt>
      <trkpt lat="45.7189" lon="4.59907">
        <ele>678.6</ele>
        <time>2025-12-15T13:37:13Z</time>
      </trkpt>
      <trkpt lat="45.71891" lon="4.599">
        <ele>678.8</ele>
        <time>2025-12-15T13:37:14Z</time>
      </trkpt>
      <trkpt lat="45.71892" lon="4.59893">
        <ele>679</ele>
        <time>2025-12-15T13:37:15Z</time>
      </trkpt>
      <trkpt lat="45.71892" lon="4.59885">
        <ele>679</ele>
        <time>2025-12-15T13:37:16Z</time>
      </trkpt>
      <trkpt lat="45.71894" lon="4.59879">
        <ele>679</ele>
        <time>2025-12-15T13:37:17Z</time>
      </trkpt>
      <trkpt lat="45.71896" lon="4.59872">
        <ele>679</ele>
        <time>2025-12-15T13:37:18Z</time>
      </trkpt>
      <trkpt lat="45.71898" lon="4.59866">
        <ele>679</ele>
        <time>2025-12-15T13:37:19Z</time>
      </trkpt>
      <trkpt lat="45.71899" lon="4.59858">
        <ele>679</ele>
        <time>2025-12-15T13:37:20Z</time>
      </trkpt>
      <trkpt lat="45.719" lon="4.59852">
        <ele>679</ele>
        <time>2025-12-15T13:37:21Z</time>
      </trkpt>
      <trkpt lat="45.71901" lon="4.59847">
        <ele>678.8</ele>
        <time>2025-12-15T13:37:22Z</time>
      </trkpt>
      <trkpt lat="45.71903" lon="4.59841">
        <ele>678.8</ele>
        <time>2025-12-15T13:37:23Z</time>
      </trkpt>
      <trkpt lat="45.71905" lon="4.59834">
        <ele>679</ele>
        <time>2025-12-15T13:37:24Z</time>
      </trkpt>
      <trkpt lat="45.71907" lon="4.59827">
        <ele>679</ele>
        <time>2025-12-15T13:37:25Z</time>
      </trkpt>
      <trkpt lat="45.71908" lon="4.59821">
        <ele>679.2</ele>
        <time>2025-12-15T13:37:26Z</time>
      </trkpt>
      <trkpt lat="45.71909" lon="4.59814">
        <ele>679.4</ele>
        <time>2025-12-15T13:37:27Z</time>
      </trkpt>
      <trkpt lat="45.71909" lon="4.59808">
        <ele>679.6</ele>
        <time>2025-12-15T13:37:28Z</time>
      </trkpt>
      <trkpt lat="45.71909" lon="4.59801">
        <ele>679.8</ele>
        <time>2025-12-15T13:37:29Z</time>
      </trkpt>
      <trkpt lat="45.7191" lon="4.59795">
        <ele>680</ele>
        <time>2025-12-15T13:37:30Z</time>
      </trkpt>
      <trkpt lat="45.7191" lon="4.59788">
        <ele>680.2</ele>
        <time>2025-12-15T13:37:31Z</time>
      </trkpt>
      <trkpt lat="45.7191" lon="4.59782">
        <ele>680.4</ele>
        <time>2025-12-15T13:37:32Z</time>
      </trkpt>
      <trkpt lat="45.71909" lon="4.59776">
        <ele>680.4</ele>
        <time>2025-12-15T13:37:33Z</time>
      </trkpt>
      <trkpt lat="45.71909" lon="4.5977">
        <ele>680.4</ele>
        <time>2025-12-15T13:37:34Z</time>
      </trkpt>
      <trkpt lat="45.71908" lon="4.59763">
        <ele>680.2</ele>
        <time>2025-12-15T13:37:35Z</time>
      </trkpt>
      <trkpt lat="45.71908" lon="4.59756">
        <ele>680</ele>
        <time>2025-12-15T13:37:36Z</time>
      </trkpt>
      <trkpt lat="45.71907" lon="4.59749">
        <ele>679.6</ele>
        <time>2025-12-15T13:37:37Z</time>
      </trkpt>
      <trkpt lat="45.71906" lon="4.59741">
        <ele>679.4</ele>
        <time>2025-12-15T13:37:38Z</time>
      </trkpt>
      <trkpt lat="45.71905" lon="4.59734">
        <ele>679.2</ele>
        <time>2025-12-15T13:37:39Z</time>
      </trkpt>
      <trkpt lat="45.71903" lon="4.59727">
        <ele>679</ele>
        <time>2025-12-15T13:37:40Z</time>
      </trkpt>
      <trkpt lat="45.71901" lon="4.5972">
        <ele>678.8</ele>
        <time>2025-12-15T13:37:41Z</time>
      </trkpt>
      <trkpt lat="45.719" lon="4.59714">
        <ele>678.6</ele>
        <time>2025-12-15T13:37:42Z</time>
      </trkpt>
      <trkpt lat="45.71899" lon="4.59709">
        <ele>678.4</ele>
        <time>2025-12-15T13:37:43Z</time>
      </trkpt>
      <trkpt lat="45.71898" lon="4.59704">
        <ele>678.4</ele>
        <time>2025-12-15T13:37:44Z</time>
      </trkpt>
      <trkpt lat="45.71897" lon="4.597">
        <ele>678.4</ele>
        <time>2025-12-15T13:37:45Z</time>
      </trkpt>
      <trkpt lat="45.71895" lon="4.59695">
        <ele>678.4</ele>
        <time>2025-12-15T13:37:46Z</time>
      </trkpt>
      <trkpt lat="45.71893" lon="4.59691">
        <ele>678.6</ele>
        <time>2025-12-15T13:37:47Z</time>
      </trkpt>
      <trkpt lat="45.71892" lon="4.59688">
        <ele>678.8</ele>
        <time>2025-12-15T13:37:48Z</time>
      </trkpt>
      <trkpt lat="45.7189" lon="4.59684">
        <ele>679</ele>
        <time>2025-12-15T13:37:49Z</time>
      </trkpt>
      <trkpt lat="45.71889" lon="4.59681">
        <ele>679.2</ele>
        <time>2025-12-15T13:37:50Z</time>
      </trkpt>
      <trkpt lat="45.71887" lon="4.59678">
        <ele>679.4</ele>
        <time>2025-12-15T13:37:51Z</time>
      </trkpt>
      <trkpt lat="45.71884" lon="4.59676">
        <ele>679.6</ele>
        <time>2025-12-15T13:37:52Z</time>
      </trkpt>
      <trkpt lat="45.71882" lon="4.59673">
        <ele>679.6</ele>
        <time>2025-12-15T13:37:53Z</time>
      </trkpt>
      <trkpt lat="45.71879" lon="4.59671">
        <ele>679.6</ele>
        <time>2025-12-15T13:37:54Z</time>
      </trkpt>
      <trkpt lat="45.71876" lon="4.59669">
        <ele>679.6</ele>
        <time>2025-12-15T13:37:55Z</time>
      </trkpt>
      <trkpt lat="45.71874" lon="4.59668">
        <ele>679.6</ele>
        <time>2025-12-15T13:37:56Z</time>
      </trkpt>
      <trkpt lat="45.71871" lon="4.59666">
        <ele>679.6</ele>
        <time>2025-12-15T13:37:57Z</time>
      </trkpt>
      <trkpt lat="45.71869" lon="4.59665">
        <ele>679.8</ele>
        <time>2025-12-15T13:37:58Z</time>
      </trkpt>
      <trkpt lat="45.71866" lon="4.59664">
        <ele>679.8</ele>
        <time>2025-12-15T13:37:59Z</time>
      </trkpt>
      <trkpt lat="45.71864" lon="4.59662">
        <ele>679.8</ele>
        <time>2025-12-15T13:38:00Z</time>
      </trkpt>
      <trkpt lat="45.71861" lon="4.59663">
        <ele>680</ele>
        <time>2025-12-15T13:38:01Z</time>
      </trkpt>
      <trkpt lat="45.71858" lon="4.59663">
        <ele>680</ele>
        <time>2025-12-15T13:38:02Z</time>
      </trkpt>
      <trkpt lat="45.71855" lon="4.59663">
        <ele>680.2</ele>
        <time>2025-12-15T13:38:03Z</time>
      </trkpt>
      <trkpt lat="45.71851" lon="4.59664">
        <ele>680.2</ele>
        <time>2025-12-15T13:38:04Z</time>
      </trkpt>
      <trkpt lat="45.71847" lon="4.59665">
        <ele>680.2</ele>
        <time>2025-12-15T13:38:05Z</time>
      </trkpt>
      <trkpt lat="45.71843" lon="4.59666">
        <ele>680.2</ele>
        <time>2025-12-15T13:38:06Z</time>
      </trkpt>
      <trkpt lat="45.71839" lon="4.59668">
        <ele>680</ele>
        <time>2025-12-15T13:38:07Z</time>
      </trkpt>
      <trkpt lat="45.71835" lon="4.59669">
        <ele>680</ele>
        <time>2025-12-15T13:38:08Z</time>
      </trkpt>
      <trkpt lat="45.71831" lon="4.59671">
        <ele>680</ele>
        <time>2025-12-15T13:38:09Z</time>
      </trkpt>
      <trkpt lat="45.71827" lon="4.59672">
        <ele>680.2</ele>
        <time>2025-12-15T13:38:10Z</time>
      </trkpt>
      <trkpt lat="45.71824" lon="4.59672">
        <ele>680.4</ele>
        <time>2025-12-15T13:38:11Z</time>
      </trkpt>
      <trkpt lat="45.7182" lon="4.59672">
        <ele>680.4</ele>
        <time>2025-12-15T13:38:12Z</time>
      </trkpt>
      <trkpt lat="45.71818" lon="4.59671">
        <ele>680.8</ele>
        <time>2025-12-15T13:38:13Z</time>
      </trkpt>
      <trkpt lat="45.71816" lon="4.59671">
        <ele>681.2</ele>
        <time>2025-12-15T13:38:14Z</time>
      </trkpt>
      <trkpt lat="45.71814" lon="4.59671">
        <ele>681.4</ele>
        <time>2025-12-15T13:38:15Z</time>
      </trkpt>
      <trkpt lat="45.71812" lon="4.59672">
        <ele>681.8</ele>
        <time>2025-12-15T13:38:16Z</time>
      </trkpt>
      <trkpt lat="45.7181" lon="4.59674">
        <ele>682</ele>
        <time>2025-12-15T13:38:17Z</time>
      </trkpt>
      <trkpt lat="45.71807" lon="4.59676">
        <ele>682</ele>
        <time>2025-12-15T13:38:18Z</time>
      </trkpt>
      <trkpt lat="45.71804" lon="4.59677">
        <ele>682.2</ele>
        <time>2025-12-15T13:38:19Z</time>
      </trkpt>
      <trkpt lat="45.71801" lon="4.59679">
        <ele>682.2</ele>
        <time>2025-12-15T13:38:20Z</time>
      </trkpt>
      <trkpt lat="45.71798" lon="4.59682">
        <ele>682.2</ele>
        <time>2025-12-15T13:38:21Z</time>
      </trkpt>
      <trkpt lat="45.71795" lon="4.59685">
        <ele>682.2</ele>
        <time>2025-12-15T13:38:22Z</time>
      </trkpt>
      <trkpt lat="45.71791" lon="4.59687">
        <ele>682.2</ele>
        <time>2025-12-15T13:38:23Z</time>
      </trkpt>
      <trkpt lat="45.71788" lon="4.59689">
        <ele>682.2</ele>
        <time>2025-12-15T13:38:24Z</time>
      </trkpt>
      <trkpt lat="45.71784" lon="4.59691">
        <ele>682.4</ele>
        <time>2025-12-15T13:38:25Z</time>
      </trkpt>
      <trkpt lat="45.7178" lon="4.59693">
        <ele>682.4</ele>
        <time>2025-12-15T13:38:26Z</time>
      </trkpt>
      <trkpt lat="45.71776" lon="4.59695">
        <ele>682.6</ele>
        <time>2025-12-15T13:38:27Z</time>
      </trkpt>
      <trkpt lat="45.71773" lon="4.59697">
        <ele>682.6</ele>
        <time>2025-12-15T13:38:28Z</time>
      </trkpt>
      <trkpt lat="45.71769" lon="4.597">
        <ele>682.8</ele>
        <time>2025-12-15T13:38:29Z</time>
      </trkpt>
      <trkpt lat="45.71765" lon="4.59702">
        <ele>682.8</ele>
        <time>2025-12-15T13:38:30Z</time>
      </trkpt>
      <trkpt lat="45.71761" lon="4.59706">
        <ele>682.8</ele>
        <time>2025-12-15T13:38:31Z</time>
      </trkpt>
      <trkpt lat="45.71757" lon="4.59709">
        <ele>682.6</ele>
        <time>2025-12-15T13:38:32Z</time>
      </trkpt>
      <trkpt lat="45.71752" lon="4.59712">
        <ele>682.6</ele>
        <time>2025-12-15T13:38:33Z</time>
      </trkpt>
      <trkpt lat="45.71747" lon="4.59714">
        <ele>682.4</ele>
        <time>2025-12-15T13:38:34Z</time>
      </trkpt>
      <trkpt lat="45.71743" lon="4.59715">
        <ele>682.2</ele>
        <time>2025-12-15T13:38:35Z</time>
      </trkpt>
      <trkpt lat="45.71738" lon="4.59716">
        <ele>682</ele>
        <time>2025-12-15T13:38:36Z</time>
      </trkpt>
      <trkpt lat="45.71733" lon="4.59717">
        <ele>682</ele>
        <time>2025-12-15T13:38:37Z</time>
      </trkpt>
      <trkpt lat="45.71728" lon="4.59718">
        <ele>682</ele>
        <time>2025-12-15T13:38:38Z</time>
      </trkpt>
      <trkpt lat="45.71721" lon="4.59718">
        <ele>682.2</ele>
        <time>2025-12-15T13:38:39Z</time>
      </trkpt>
      <trkpt lat="45.71715" lon="4.59719">
        <ele>682.4</ele>
        <time>2025-12-15T13:38:40Z</time>
      </trkpt>
      <trkpt lat="45.71707" lon="4.5972">
        <ele>682.6</ele>
        <time>2025-12-15T13:38:41Z</time>
      </trkpt>
      <trkpt lat="45.717" lon="4.59721">
        <ele>682.6</ele>
        <time>2025-12-15T13:38:42Z</time>
      </trkpt>
      <trkpt lat="45.71694" lon="4.59722">
        <ele>682.6</ele>
        <time>2025-12-15T13:38:43Z</time>
      </trkpt>
      <trkpt lat="45.71688" lon="4.59725">
        <ele>682.4</ele>
        <time>2025-12-15T13:38:44Z</time>
      </trkpt>
      <trkpt lat="45.71681" lon="4.59729">
        <ele>682</ele>
        <time>2025-12-15T13:38:45Z</time>
      </trkpt>
      <trkpt lat="45.71676" lon="4.59732">
        <ele>681.6</ele>
        <time>2025-12-15T13:38:46Z</time>
      </trkpt>
      <trkpt lat="45.71669" lon="4.59736">
        <ele>681.4</ele>
        <time>2025-12-15T13:38:47Z</time>
      </trkpt>
      <trkpt lat="45.71663" lon="4.59739">
        <ele>681.2</ele>
        <time>2025-12-15T13:38:48Z</time>
      </trkpt>
      <trkpt lat="45.71658" lon="4.59742">
        <ele>681.2</ele>
        <time>2025-12-15T13:38:49Z</time>
      </trkpt>
      <trkpt lat="45.71653" lon="4.59746">
        <ele>681</ele>
        <time>2025-12-15T13:38:50Z</time>
      </trkpt>
      <trkpt lat="45.71648" lon="4.59749">
        <ele>681.2</ele>
        <time>2025-12-15T13:38:51Z</time>
      </trkpt>
      <trkpt lat="45.71644" lon="4.59752">
        <ele>681.2</ele>
        <time>2025-12-15T13:38:52Z</time>
      </trkpt>
      <trkpt lat="45.7164" lon="4.59754">
        <ele>681.6</ele>
        <time>2025-12-15T13:38:53Z</time>
      </trkpt>
      <trkpt lat="45.71635" lon="4.59757">
        <ele>682</ele>
        <time>2025-12-15T13:38:54Z</time>
      </trkpt>
      <trkpt lat="45.71632" lon="4.59759">
        <ele>682.6</ele>
        <time>2025-12-15T13:38:55Z</time>
      </trkpt>
      <trkpt lat="45.71628" lon="4.59761">
        <ele>683.4</ele>
        <time>2025-12-15T13:38:56Z</time>
      </trkpt>
      <trkpt lat="45.71624" lon="4.59762">
        <ele>684</ele>
        <time>2025-12-15T13:38:57Z</time>
      </trkpt>
      <trkpt lat="45.71622" lon="4.59764">
        <ele>684.6</ele>
        <time>2025-12-15T13:38:58Z</time>
      </trkpt>
      <trkpt lat="45.71619" lon="4.59766">
        <ele>685</ele>
        <time>2025-12-15T13:38:59Z</time>
      </trkpt>
      <trkpt lat="45.71616" lon="4.59768">
        <ele>685.4</ele>
        <time>2025-12-15T13:39:00Z</time>
      </trkpt>
      <trkpt lat="45.71613" lon="4.59769">
        <ele>685.8</ele>
        <time>2025-12-15T13:39:01Z</time>
      </trkpt>
      <trkpt lat="45.71612" lon="4.5977">
        <ele>685.8</ele>
        <time>2025-12-15T13:39:02Z</time>
      </trkpt>
      <trkpt lat="45.7161" lon="4.5977">
        <ele>686</ele>
        <time>2025-12-15T13:39:03Z</time>
      </trkpt>
      <trkpt lat="45.71609" lon="4.5977">
        <ele>686.2</ele>
        <time>2025-12-15T13:39:04Z</time>
      </trkpt>
      <trkpt lat="45.71609" lon="4.59771">
        <ele>686.2</ele>
        <time>2025-12-15T13:39:05Z</time>
      </trkpt>
      <trkpt lat="45.71608" lon="4.59771">
        <ele>686.4</ele>
        <time>2025-12-15T13:39:06Z</time>
      </trkpt>
      <trkpt lat="45.71608" lon="4.59771">
        <ele>686.4</ele>
        <time>2025-12-15T13:39:07Z</time>
      </trkpt>
      <trkpt lat="45.71608" lon="4.59771">
        <ele>686.4</ele>
        <time>2025-12-15T13:39:08Z</time>
      </trkpt>
      <trkpt lat="45.71608" lon="4.59771">
        <ele>686.4</ele>
        <time>2025-12-15T13:39:09Z</time>
      </trkpt>
      <trkpt lat="45.71608" lon="4.59771">
        <ele>686.4</ele>
        <time>2025-12-15T13:39:10Z</time>
      </trkpt>
      <trkpt lat="45.71608" lon="4.59771">
        <ele>686.4</ele>
        <time>2025-12-15T13:39:11Z</time>
      </trkpt>
      <trkpt lat="45.71608" lon="4.59771">
        <ele>686.4</ele>
        <time>2025-12-15T13:39:12Z</time>
      </trkpt>
      <trkpt lat="45.71608" lon="4.59771">
        <ele>686.4</ele>
        <time>2025-12-15T13:39:13Z</time>
      </trkpt>
      <trkpt lat="45.71608" lon="4.59771">
        <ele>686.4</ele>
        <time>2025-12-15T13:39:14Z</time>
      </trkpt>
      <trkpt lat="45.71608" lon="4.59771">
        <ele>686.4</ele>
        <time>2025-12-15T13:39:15Z</time>
      </trkpt>
      <trkpt lat="45.71608" lon="4.59771">
        <ele>686.4</ele>
        <time>2025-12-15T13:39:16Z</time>
      </trkpt>
      <trkpt lat="45.71608" lon="4.59771">
        <ele>686.4</ele>
        <time>2025-12-15T13:39:17Z</time>
      </trkpt>
      <trkpt lat="45.71608" lon="4.59771">
        <ele>686.4</ele>
        <time>2025-12-15T13:39:18Z</time>
      </trkpt>
      <trkpt lat="45.71608" lon="4.59771">
        <ele>686.4</ele>
        <time>2025-12-15T13:39:19Z</time>
      </trkpt>
      <trkpt lat="45.71607" lon="4.59772">
        <ele>686.4</ele>
        <time>2025-12-15T13:39:20Z</time>
      </trkpt>
      <trkpt lat="45.71607" lon="4.59772">
        <ele>686.4</ele>
        <time>2025-12-15T13:39:21Z</time>
      </trkpt>
      <trkpt lat="45.71607" lon="4.59772">
        <ele>686.4</ele>
        <time>2025-12-15T13:39:22Z</time>
      </trkpt>
      <trkpt lat="45.71607" lon="4.59772">
        <ele>686.4</ele>
        <time>2025-12-15T13:39:23Z</time>
      </trkpt>
      <trkpt lat="45.71607" lon="4.59772">
        <ele>686.4</ele>
        <time>2025-12-15T13:39:24Z</time>
      </trkpt>
      <trkpt lat="45.71607" lon="4.59772">
        <ele>686.4</ele>
        <time>2025-12-15T13:39:25Z</time>
      </trkpt>
      <trkpt lat="45.71607" lon="4.59772">
        <ele>686.4</ele>
        <time>2025-12-15T13:39:26Z</time>
      </trkpt>
      <trkpt lat="45.71607" lon="4.59772">
        <ele>686.4</ele>
        <time>2025-12-15T13:39:27Z</time>
      </trkpt>
      <trkpt lat="45.71607" lon="4.59772">
        <ele>686.4</ele>
        <time>2025-12-15T13:39:28Z</time>
      </trkpt>
      <trkpt lat="45.71607" lon="4.59772">
        <ele>686.4</ele>
        <time>2025-12-15T13:39:29Z</time>
      </trkpt>
      <trkpt lat="45.71607" lon="4.59772">
        <ele>686.4</ele>
        <time>2025-12-15T13:39:30Z</time>
      </trkpt>
      <trkpt lat="45.71607" lon="4.59772">
        <ele>686.4</ele>
        <time>2025-12-15T13:39:31Z</time>
      </trkpt>
      <trkpt lat="45.71607" lon="4.59772">
        <ele>686.4</ele>
        <time>2025-12-15T13:39:32Z</time>
      </trkpt>
      <trkpt lat="45.71607" lon="4.59772">
        <ele>686.4</ele>
        <time>2025-12-15T13:39:33Z</time>
      </trkpt>
      <trkpt lat="45.71607" lon="4.59772">
        <ele>686.4</ele>
        <time>2025-12-15T13:39:34Z</time>
      </trkpt>
      <trkpt lat="45.71607" lon="4.59772">
        <ele>686.4</ele>
        <time>2025-12-15T13:39:35Z</time>
      </trkpt>
      <trkpt lat="45.71607" lon="4.59772">
        <ele>686.4</ele>
        <time>2025-12-15T13:39:36Z</time>
      </trkpt>
      <trkpt lat="45.71607" lon="4.59772">
        <ele>686.4</ele>
        <time>2025-12-15T13:39:37Z</time>
      </trkpt>
      <trkpt lat="45.71607" lon="4.59772">
        <ele>686.4</ele>
        <time>2025-12-15T13:39:38Z</time>
      </trkpt>
      <trkpt lat="45.71607" lon="4.59772">
        <ele>686.4</ele>
        <time>2025-12-15T13:39:39Z</time>
      </trkpt>
      <trkpt lat="45.71607" lon="4.59772">
        <ele>686.6</ele>
        <time>2025-12-15T13:39:40Z</time>
      </trkpt>
      <trkpt lat="45.71607" lon="4.59772">
        <ele>686.6</ele>
        <time>2025-12-15T13:39:41Z</time>
      </trkpt>
      <trkpt lat="45.71607" lon="4.59772">
        <ele>686.6</ele>
        <time>2025-12-15T13:39:42Z</time>
      </trkpt>
      <trkpt lat="45.71607" lon="4.59772">
        <ele>686.6</ele>
        <time>2025-12-15T13:39:43Z</time>
      </trkpt>
      <trkpt lat="45.71607" lon="4.59772">
        <ele>686.6</ele>
        <time>2025-12-15T13:39:44Z</time>
      </trkpt>
      <trkpt lat="45.71607" lon="4.59772">
        <ele>686.6</ele>
        <time>2025-12-15T13:39:45Z</time>
      </trkpt>
      <trkpt lat="45.71607" lon="4.59772">
        <ele>686.6</ele>
        <time>2025-12-15T13:39:46Z</time>
      </trkpt>
      <trkpt lat="45.71607" lon="4.59772">
        <ele>686.6</ele>
        <time>2025-12-15T13:39:47Z</time>
      </trkpt>
      <trkpt lat="45.71607" lon="4.59772">
        <ele>686.6</ele>
        <time>2025-12-15T13:39:48Z</time>
      </trkpt>
      <trkpt lat="45.71607" lon="4.59772">
        <ele>686.6</ele>
        <time>2025-12-15T13:39:49Z</time>
      </trkpt>
      <trkpt lat="45.71607" lon="4.59772">
        <ele>686.6</ele>
        <time>2025-12-15T13:39:50Z</time>
      </trkpt>
      <trkpt lat="45.71607" lon="4.59772">
        <ele>686.6</ele>
        <time>2025-12-15T13:39:51Z</time>
      </trkpt>
      <trkpt lat="45.71607" lon="4.59772">
        <ele>686.6</ele>
        <time>2025-12-15T13:39:52Z</time>
      </trkpt>
      <trkpt lat="45.71607" lon="4.59772">
        <ele>686.6</ele>
        <time>2025-12-15T13:39:53Z</time>
      </trkpt>
      <trkpt lat="45.71607" lon="4.59772">
        <ele>686.6</ele>
        <time>2025-12-15T13:39:54Z</time>
      </trkpt>
      <trkpt lat="45.71607" lon="4.59772">
        <ele>686.6</ele>
        <time>2025-12-15T13:39:55Z</time>
      </trkpt>
      <trkpt lat="45.71607" lon="4.59772">
        <ele>686.6</ele>
        <time>2025-12-15T13:39:56Z</time>
      </trkpt>
      <trkpt lat="45.71607" lon="4.59772">
        <ele>686.6</ele>
        <time>2025-12-15T13:39:57Z</time>
      </trkpt>
      <trkpt lat="45.71607" lon="4.59772">
        <ele>686.6</ele>
        <time>2025-12-15T13:39:58Z</time>
      </trkpt>
      <trkpt lat="45.71607" lon="4.59772">
        <ele>686.8</ele>
        <time>2025-12-15T13:39:59Z</time>
      </trkpt>
      <trkpt lat="45.71607" lon="4.59772">
        <ele>686.8</ele>
        <time>2025-12-15T13:40:00Z</time>
      </trkpt>
      <trkpt lat="45.71607" lon="4.59772">
        <ele>686.6</ele>
        <time>2025-12-15T13:40:01Z</time>
      </trkpt>
      <trkpt lat="45.71607" lon="4.59772">
        <ele>686.6</ele>
        <time>2025-12-15T13:40:02Z</time>
      </trkpt>
      <trkpt lat="45.71607" lon="4.59772">
        <ele>686.6</ele>
        <time>2025-12-15T13:40:03Z</time>
      </trkpt>
      <trkpt lat="45.71607" lon="4.59772">
        <ele>686.6</ele>
        <time>2025-12-15T13:40:04Z</time>
      </trkpt>
      <trkpt lat="45.71607" lon="4.59772">
        <ele>686.6</ele>
        <time>2025-12-15T13:40:05Z</time>
      </trkpt>
      <trkpt lat="45.71607" lon="4.59772">
        <ele>686.6</ele>
        <time>2025-12-15T13:40:06Z</time>
      </trkpt>
      <trkpt lat="45.71607" lon="4.59772">
        <ele>686.6</ele>
        <time>2025-12-15T13:40:07Z</time>
      </trkpt>
      <trkpt lat="45.71607" lon="4.59772">
        <ele>686.6</ele>
        <time>2025-12-15T13:40:08Z</time>
      </trkpt>
      <trkpt lat="45.71607" lon="4.59772">
        <ele>686.6</ele>
        <time>2025-12-15T13:40:09Z</time>
      </trkpt>
      <trkpt lat="45.71607" lon="4.59772">
        <ele>686.6</ele>
        <time>2025-12-15T13:40:10Z</time>
      </trkpt>
      <trkpt lat="45.71607" lon="4.59772">
        <ele>686.6</ele>
        <time>2025-12-15T13:40:11Z</time>
      </trkpt>
      <trkpt lat="45.71607" lon="4.59772">
        <ele>686.6</ele>
        <time>2025-12-15T13:40:12Z</time>
      </trkpt>
      <trkpt lat="45.71607" lon="4.59772">
        <ele>686.6</ele>
        <time>2025-12-15T13:40:13Z</time>
      </trkpt>
      <trkpt lat="45.71607" lon="4.59772">
        <ele>686.6</ele>
        <time>2025-12-15T13:40:14Z</time>
      </trkpt>
      <trkpt lat="45.71607" lon="4.59772">
        <ele>686.6</ele>
        <time>2025-12-15T13:40:15Z</time>
      </trkpt>
      <trkpt lat="45.71607" lon="4.59772">
        <ele>686.6</ele>
        <time>2025-12-15T13:40:16Z</time>
      </trkpt>
      <trkpt lat="45.71607" lon="4.59772">
        <ele>686.6</ele>
        <time>2025-12-15T13:40:17Z</time>
      </trkpt>
      <trkpt lat="45.71607" lon="4.59772">
        <ele>686.6</ele>
        <time>2025-12-15T13:40:18Z</time>
      </trkpt>
      <trkpt lat="45.71607" lon="4.59772">
        <ele>686.6</ele>
        <time>2025-12-15T13:40:19Z</time>
      </trkpt>
      <trkpt lat="45.71607" lon="4.59772">
        <ele>686.6</ele>
        <time>2025-12-15T13:40:20Z</time>
      </trkpt>
      <trkpt lat="45.71607" lon="4.59772">
        <ele>686.6</ele>
        <time>2025-12-15T13:40:21Z</time>
      </trkpt>
      <trkpt lat="45.71607" lon="4.59772">
        <ele>686.6</ele>
        <time>2025-12-15T13:40:22Z</time>
      </trkpt>
      <trkpt lat="45.71607" lon="4.59772">
        <ele>686.6</ele>
        <time>2025-12-15T13:40:23Z</time>
      </trkpt>
      <trkpt lat="45.71607" lon="4.59772">
        <ele>686.6</ele>
        <time>2025-12-15T13:40:24Z</time>
      </trkpt>
      <trkpt lat="45.71607" lon="4.59772">
        <ele>686.6</ele>
        <time>2025-12-15T13:40:25Z</time>
      </trkpt>
      <trkpt lat="45.71607" lon="4.59772">
        <ele>686.6</ele>
        <time>2025-12-15T13:40:26Z</time>
      </trkpt>
      <trkpt lat="45.71607" lon="4.59772">
        <ele>686.6</ele>
        <time>2025-12-15T13:40:27Z</time>
      </trkpt>
      <trkpt lat="45.71607" lon="4.59772">
        <ele>686.6</ele>
        <time>2025-12-15T13:40:28Z</time>
      </trkpt>
      <trkpt lat="45.71607" lon="4.59772">
        <ele>686.6</ele>
        <time>2025-12-15T13:40:29Z</time>
      </trkpt>
      <trkpt lat="45.71607" lon="4.59772">
        <ele>686.6</ele>
        <time>2025-12-15T13:40:30Z</time>
      </trkpt>
      <trkpt lat="45.71607" lon="4.59772">
        <ele>686.6</ele>
        <time>2025-12-15T13:40:31Z</time>
      </trkpt>
      <trkpt lat="45.71607" lon="4.59772">
        <ele>686.6</ele>
        <time>2025-12-15T13:40:32Z</time>
      </trkpt>
      <trkpt lat="45.71607" lon="4.59772">
        <ele>686.6</ele>
        <time>2025-12-15T13:40:33Z</time>
      </trkpt>
      <trkpt lat="45.71607" lon="4.59772">
        <ele>686.6</ele>
        <time>2025-12-15T13:40:34Z</time>
      </trkpt>
      <trkpt lat="45.71607" lon="4.59772">
        <ele>686.6</ele>
        <time>2025-12-15T13:40:35Z</time>
      </trkpt>
      <trkpt lat="45.71607" lon="4.59772">
        <ele>686.6</ele>
        <time>2025-12-15T13:40:36Z</time>
      </trkpt>
      <trkpt lat="45.71607" lon="4.59772">
        <ele>686.6</ele>
        <time>2025-12-15T13:40:37Z</time>
      </trkpt>
      <trkpt lat="45.71607" lon="4.59772">
        <ele>686.6</ele>
        <time>2025-12-15T13:40:38Z</time>
      </trkpt>
      <trkpt lat="45.71607" lon="4.59772">
        <ele>686.6</ele>
        <time>2025-12-15T13:40:39Z</time>
      </trkpt>
      <trkpt lat="45.71607" lon="4.59772">
        <ele>686.6</ele>
        <time>2025-12-15T13:40:40Z</time>
      </trkpt>
      <trkpt lat="45.71607" lon="4.59772">
        <ele>686.6</ele>
        <time>2025-12-15T13:40:41Z</time>
      </trkpt>
      <trkpt lat="45.71607" lon="4.59772">
        <ele>686.6</ele>
        <time>2025-12-15T13:40:42Z</time>
      </trkpt>
      <trkpt lat="45.71607" lon="4.59772">
        <ele>686.6</ele>
        <time>2025-12-15T13:40:43Z</time>
      </trkpt>
      <trkpt lat="45.71607" lon="4.59772">
        <ele>686.6</ele>
        <time>2025-12-15T13:40:44Z</time>
      </trkpt>
      <trkpt lat="45.71607" lon="4.59772">
        <ele>686.6</ele>
        <time>2025-12-15T13:40:45Z</time>
      </trkpt>
      <trkpt lat="45.71607" lon="4.59772">
        <ele>686.6</ele>
        <time>2025-12-15T13:40:46Z</time>
      </trkpt>
      <trkpt lat="45.71607" lon="4.59772">
        <ele>686.6</ele>
        <time>2025-12-15T13:40:47Z</time>
      </trkpt>
      <trkpt lat="45.71607" lon="4.59772">
        <ele>686.6</ele>
        <time>2025-12-15T13:40:48Z</time>
      </trkpt>
      <trkpt lat="45.71607" lon="4.59772">
        <ele>686.6</ele>
        <time>2025-12-15T13:40:49Z</time>
      </trkpt>
      <trkpt lat="45.71607" lon="4.59772">
        <ele>686.6</ele>
        <time>2025-12-15T13:40:50Z</time>
      </trkpt>
      <trkpt lat="45.71607" lon="4.59772">
        <ele>686.6</ele>
        <time>2025-12-15T13:40:51Z</time>
      </trkpt>
      <trkpt lat="45.71607" lon="4.59772">
        <ele>686.6</ele>
        <time>2025-12-15T13:40:52Z</time>
      </trkpt>
      <trkpt lat="45.71607" lon="4.59772">
        <ele>686.6</ele>
        <time>2025-12-15T13:40:53Z</time>
      </trkpt>
      <trkpt lat="45.71607" lon="4.59772">
        <ele>686.6</ele>
        <time>2025-12-15T13:40:54Z</time>
      </trkpt>
      <trkpt lat="45.71607" lon="4.59772">
        <ele>686.6</ele>
        <time>2025-12-15T13:40:55Z</time>
      </trkpt>
      <trkpt lat="45.71607" lon="4.59772">
        <ele>686.6</ele>
        <time>2025-12-15T13:40:56Z</time>
      </trkpt>
      <trkpt lat="45.71607" lon="4.59772">
        <ele>686.6</ele>
        <time>2025-12-15T13:40:57Z</time>
      </trkpt>
      <trkpt lat="45.71607" lon="4.59772">
        <ele>686.6</ele>
        <time>2025-12-15T13:40:58Z</time>
      </trkpt>
      <trkpt lat="45.71607" lon="4.59772">
        <ele>686.6</ele>
        <time>2025-12-15T13:40:59Z</time>
      </trkpt>
      <trkpt lat="45.71607" lon="4.59772">
        <ele>686.6</ele>
        <time>2025-12-15T13:41:00Z</time>
      </trkpt>
      <trkpt lat="45.71607" lon="4.59772">
        <ele>686.6</ele>
        <time>2025-12-15T13:41:01Z</time>
      </trkpt>
      <trkpt lat="45.71607" lon="4.59772">
        <ele>686.6</ele>
        <time>2025-12-15T13:41:02Z</time>
      </trkpt>
      <trkpt lat="45.71607" lon="4.59772">
        <ele>686.6</ele>
        <time>2025-12-15T13:41:03Z</time>
      </trkpt>
      <trkpt lat="45.71607" lon="4.59772">
        <ele>686.6</ele>
        <time>2025-12-15T13:41:04Z</time>
      </trkpt>
      <trkpt lat="45.71607" lon="4.59772">
        <ele>686.6</ele>
        <time>2025-12-15T13:41:05Z</time>
      </trkpt>
      <trkpt lat="45.71607" lon="4.59772">
        <ele>686.6</ele>
        <time>2025-12-15T13:41:06Z</time>
      </trkpt>
      <trkpt lat="45.71607" lon="4.59772">
        <ele>686.6</ele>
        <time>2025-12-15T13:41:07Z</time>
      </trkpt>
      <trkpt lat="45.71607" lon="4.59772">
        <ele>686.6</ele>
        <time>2025-12-15T13:41:08Z</time>
      </trkpt>
      <trkpt lat="45.71607" lon="4.59772">
        <ele>686.6</ele>
        <time>2025-12-15T13:41:09Z</time>
      </trkpt>
      <trkpt lat="45.71607" lon="4.59772">
        <ele>686.6</ele>
        <time>2025-12-15T13:41:10Z</time>
      </trkpt>
      <trkpt lat="45.71607" lon="4.59772">
        <ele>686.6</ele>
        <time>2025-12-15T13:41:11Z</time>
      </trkpt>
      <trkpt lat="45.71607" lon="4.59772">
        <ele>686.6</ele>
        <time>2025-12-15T13:41:12Z</time>
      </trkpt>
      <trkpt lat="45.71607" lon="4.59772">
        <ele>686.6</ele>
        <time>2025-12-15T13:41:13Z</time>
      </trkpt>
      <trkpt lat="45.71607" lon="4.59772">
        <ele>686.6</ele>
        <time>2025-12-15T13:41:14Z</time>
      </trkpt>
      <trkpt lat="45.71607" lon="4.59772">
        <ele>686.6</ele>
        <time>2025-12-15T13:41:15Z</time>
      </trkpt>
      <trkpt lat="45.71607" lon="4.59772">
        <ele>686.6</ele>
        <time>2025-12-15T13:41:16Z</time>
      </trkpt>
      <trkpt lat="45.71607" lon="4.59772">
        <ele>686.6</ele>
        <time>2025-12-15T13:41:17Z</time>
      </trkpt>
      <trkpt lat="45.71607" lon="4.59772">
        <ele>686.6</ele>
        <time>2025-12-15T13:41:18Z</time>
      </trkpt>
      <trkpt lat="45.71607" lon="4.59772">
        <ele>686.6</ele>
        <time>2025-12-15T13:41:19Z</time>
      </trkpt>
      <trkpt lat="45.71607" lon="4.59772">
        <ele>686.6</ele>
        <time>2025-12-15T13:41:20Z</time>
      </trkpt>
      <trkpt lat="45.71607" lon="4.59772">
        <ele>686.6</ele>
        <time>2025-12-15T13:41:21Z</time>
      </trkpt>
      <trkpt lat="45.71607" lon="4.59772">
        <ele>686.6</ele>
        <time>2025-12-15T13:41:22Z</time>
      </trkpt>
      <trkpt lat="45.71607" lon="4.59772">
        <ele>686.6</ele>
        <time>2025-12-15T13:41:23Z</time>
      </trkpt>
      <trkpt lat="45.71607" lon="4.59772">
        <ele>686.6</ele>
        <time>2025-12-15T13:41:24Z</time>
      </trkpt>
      <trkpt lat="45.71607" lon="4.59772">
        <ele>686.6</ele>
        <time>2025-12-15T13:41:25Z</time>
      </trkpt>
      <trkpt lat="45.71607" lon="4.59772">
        <ele>686.6</ele>
        <time>2025-12-15T13:41:26Z</time>
      </trkpt>
      <trkpt lat="45.71607" lon="4.59772">
        <ele>686.6</ele>
        <time>2025-12-15T13:41:27Z</time>
      </trkpt>
      <trkpt lat="45.71607" lon="4.59772">
        <ele>686.6</ele>
        <time>2025-12-15T13:41:28Z</time>
      </trkpt>
      <trkpt lat="45.71607" lon="4.59772">
        <ele>686.6</ele>
        <time>2025-12-15T13:41:29Z</time>
      </trkpt>
      <trkpt lat="45.71607" lon="4.59772">
        <ele>686.6</ele>
        <time>2025-12-15T13:41:30Z</time>
      </trkpt>
      <trkpt lat="45.71607" lon="4.59772">
        <ele>686.6</ele>
        <time>2025-12-15T13:41:31Z</time>
      </trkpt>
      <trkpt lat="45.71607" lon="4.59772">
        <ele>686.6</ele>
        <time>2025-12-15T13:41:32Z</time>
      </trkpt>
      <trkpt lat="45.71607" lon="4.59772">
        <ele>686.6</ele>
        <time>2025-12-15T13:41:33Z</time>
      </trkpt>
      <trkpt lat="45.71607" lon="4.59772">
        <ele>686.6</ele>
        <time>2025-12-15T13:41:34Z</time>
      </trkpt>
      <trkpt lat="45.71607" lon="4.59772">
        <ele>686.6</ele>
        <time>2025-12-15T13:41:35Z</time>
      </trkpt>
      <trkpt lat="45.71607" lon="4.59772">
        <ele>686.6</ele>
        <time>2025-12-15T13:41:36Z</time>
      </trkpt>
      <trkpt lat="45.71607" lon="4.59772">
        <ele>686.6</ele>
        <time>2025-12-15T13:41:37Z</time>
      </trkpt>
      <trkpt lat="45.71607" lon="4.59772">
        <ele>686.6</ele>
        <time>2025-12-15T13:41:38Z</time>
      </trkpt>
      <trkpt lat="45.71607" lon="4.59772">
        <ele>686.6</ele>
        <time>2025-12-15T13:41:39Z</time>
      </trkpt>
      <trkpt lat="45.71607" lon="4.59772">
        <ele>686.6</ele>
        <time>2025-12-15T13:41:40Z</time>
      </trkpt>
      <trkpt lat="45.71607" lon="4.59772">
        <ele>686.6</ele>
        <time>2025-12-15T13:41:41Z</time>
      </trkpt>
      <trkpt lat="45.71607" lon="4.59772">
        <ele>686.6</ele>
        <time>2025-12-15T13:41:42Z</time>
      </trkpt>
      <trkpt lat="45.71607" lon="4.59772">
        <ele>686.6</ele>
        <time>2025-12-15T13:41:43Z</time>
      </trkpt>
      <trkpt lat="45.71607" lon="4.59772">
        <ele>686.6</ele>
        <time>2025-12-15T13:41:44Z</time>
      </trkpt>
      <trkpt lat="45.71607" lon="4.59772">
        <ele>686.6</ele>
        <time>2025-12-15T13:41:45Z</time>
      </trkpt>
      <trkpt lat="45.71607" lon="4.59772">
        <ele>686.6</ele>
        <time>2025-12-15T13:41:46Z</time>
      </trkpt>
      <trkpt lat="45.71607" lon="4.59772">
        <ele>686.6</ele>
        <time>2025-12-15T13:41:47Z</time>
      </trkpt>
      <trkpt lat="45.71607" lon="4.59772">
        <ele>686.6</ele>
        <time>2025-12-15T13:41:48Z</time>
      </trkpt>
      <trkpt lat="45.71607" lon="4.59772">
        <ele>686.6</ele>
        <time>2025-12-15T13:41:49Z</time>
      </trkpt>
      <trkpt lat="45.71607" lon="4.59772">
        <ele>686.6</ele>
        <time>2025-12-15T13:41:50Z</time>
      </trkpt>
      <trkpt lat="45.71607" lon="4.59772">
        <ele>686.6</ele>
        <time>2025-12-15T13:41:51Z</time>
      </trkpt>
      <trkpt lat="45.71607" lon="4.59772">
        <ele>686.6</ele>
        <time>2025-12-15T13:41:52Z</time>
      </trkpt>
      <trkpt lat="45.71607" lon="4.59772">
        <ele>686.6</ele>
        <time>2025-12-15T13:41:53Z</time>
      </trkpt>
      <trkpt lat="45.71607" lon="4.59772">
        <ele>686.6</ele>
        <time>2025-12-15T13:41:54Z</time>
      </trkpt>
      <trkpt lat="45.71607" lon="4.59772">
        <ele>686.6</ele>
        <time>2025-12-15T13:41:55Z</time>
      </trkpt>
      <trkpt lat="45.71607" lon="4.59772">
        <ele>686.6</ele>
        <time>2025-12-15T13:41:56Z</time>
      </trkpt>
      <trkpt lat="45.71607" lon="4.59772">
        <ele>686.6</ele>
        <time>2025-12-15T13:41:57Z</time>
      </trkpt>
      <trkpt lat="45.71607" lon="4.59772">
        <ele>686.6</ele>
        <time>2025-12-15T13:41:58Z</time>
      </trkpt>
      <trkpt lat="45.71607" lon="4.59772">
        <ele>686.6</ele>
        <time>2025-12-15T13:41:59Z</time>
      </trkpt>
      <trkpt lat="45.71607" lon="4.59772">
        <ele>686.6</ele>
        <time>2025-12-15T13:42:00Z</time>
      </trkpt>
      <trkpt lat="45.71607" lon="4.59772">
        <ele>686.6</ele>
        <time>2025-12-15T13:42:01Z</time>
      </trkpt>
      <trkpt lat="45.71607" lon="4.59772">
        <ele>686.6</ele>
        <time>2025-12-15T13:42:02Z</time>
      </trkpt>
      <trkpt lat="45.71607" lon="4.59772">
        <ele>686.6</ele>
        <time>2025-12-15T13:42:03Z</time>
      </trkpt>
      <trkpt lat="45.71607" lon="4.59772">
        <ele>686.6</ele>
        <time>2025-12-15T13:42:04Z</time>
      </trkpt>
      <trkpt lat="45.71607" lon="4.59772">
        <ele>686.6</ele>
        <time>2025-12-15T13:42:05Z</time>
      </trkpt>
      <trkpt lat="45.71607" lon="4.59772">
        <ele>686.6</ele>
        <time>2025-12-15T13:42:06Z</time>
      </trkpt>
      <trkpt lat="45.71607" lon="4.59772">
        <ele>686.6</ele>
        <time>2025-12-15T13:42:07Z</time>
      </trkpt>
      <trkpt lat="45.71607" lon="4.59772">
        <ele>686.6</ele>
        <time>2025-12-15T13:42:08Z</time>
      </trkpt>
      <trkpt lat="45.71607" lon="4.59772">
        <ele>686.6</ele>
        <time>2025-12-15T13:42:09Z</time>
      </trkpt>
      <trkpt lat="45.71607" lon="4.59772">
        <ele>686.6</ele>
        <time>2025-12-15T13:42:10Z</time>
      </trkpt>
      <trkpt lat="45.71607" lon="4.59772">
        <ele>686.6</ele>
        <time>2025-12-15T13:42:11Z</time>
      </trkpt>
      <trkpt lat="45.71607" lon="4.59772">
        <ele>686.6</ele>
        <time>2025-12-15T13:42:12Z</time>
      </trkpt>
      <trkpt lat="45.71607" lon="4.59772">
        <ele>686.6</ele>
        <time>2025-12-15T13:42:13Z</time>
      </trkpt>
      <trkpt lat="45.71607" lon="4.59772">
        <ele>686.6</ele>
        <time>2025-12-15T13:42:14Z</time>
      </trkpt>
      <trkpt lat="45.71607" lon="4.59772">
        <ele>686.6</ele>
        <time>2025-12-15T13:42:15Z</time>
      </trkpt>
      <trkpt lat="45.71607" lon="4.59772">
        <ele>686.6</ele>
        <time>2025-12-15T13:42:16Z</time>
      </trkpt>
      <trkpt lat="45.71607" lon="4.59772">
        <ele>686.6</ele>
        <time>2025-12-15T13:42:17Z</time>
      </trkpt>
      <trkpt lat="45.71607" lon="4.59772">
        <ele>686.6</ele>
        <time>2025-12-15T13:42:18Z</time>
      </trkpt>
      <trkpt lat="45.71607" lon="4.59772">
        <ele>686.6</ele>
        <time>2025-12-15T13:42:19Z</time>
      </trkpt>
      <trkpt lat="45.71607" lon="4.59772">
        <ele>686.6</ele>
        <time>2025-12-15T13:42:20Z</time>
      </trkpt>
      <trkpt lat="45.71607" lon="4.59772">
        <ele>686.6</ele>
        <time>2025-12-15T13:42:21Z</time>
      </trkpt>
      <trkpt lat="45.71607" lon="4.59772">
        <ele>686.6</ele>
        <time>2025-12-15T13:42:22Z</time>
      </trkpt>
      <trkpt lat="45.71607" lon="4.59772">
        <ele>686.6</ele>
        <time>2025-12-15T13:42:23Z</time>
      </trkpt>
      <trkpt lat="45.71607" lon="4.59772">
        <ele>686.6</ele>
        <time>2025-12-15T13:42:24Z</time>
      </trkpt>
      <trkpt lat="45.71607" lon="4.59772">
        <ele>686.6</ele>
        <time>2025-12-15T13:42:25Z</time>
      </trkpt>
      <trkpt lat="45.71607" lon="4.59772">
        <ele>686.6</ele>
        <time>2025-12-15T13:42:26Z</time>
      </trkpt>
      <trkpt lat="45.71607" lon="4.59772">
        <ele>686.6</ele>
        <time>2025-12-15T13:42:27Z</time>
      </trkpt>
      <trkpt lat="45.71607" lon="4.59772">
        <ele>686.6</ele>
        <time>2025-12-15T13:42:28Z</time>
      </trkpt>
      <trkpt lat="45.71607" lon="4.59772">
        <ele>686.6</ele>
        <time>2025-12-15T13:42:29Z</time>
      </trkpt>
      <trkpt lat="45.71607" lon="4.59772">
        <ele>686.6</ele>
        <time>2025-12-15T13:42:30Z</time>
      </trkpt>
      <trkpt lat="45.71607" lon="4.59772">
        <ele>686.6</ele>
        <time>2025-12-15T13:42:31Z</time>
      </trkpt>
      <trkpt lat="45.71607" lon="4.59772">
        <ele>686.6</ele>
        <time>2025-12-15T13:42:32Z</time>
      </trkpt>
      <trkpt lat="45.71607" lon="4.59772">
        <ele>686.6</ele>
        <time>2025-12-15T13:42:33Z</time>
      </trkpt>
      <trkpt lat="45.71607" lon="4.59772">
        <ele>686.6</ele>
        <time>2025-12-15T13:42:34Z</time>
      </trkpt>
      <trkpt lat="45.71607" lon="4.59772">
        <ele>686.6</ele>
        <time>2025-12-15T13:42:35Z</time>
      </trkpt>
      <trkpt lat="45.71607" lon="4.59772">
        <ele>686.6</ele>
        <time>2025-12-15T13:42:36Z</time>
      </trkpt>
      <trkpt lat="45.71607" lon="4.59772">
        <ele>686.6</ele>
        <time>2025-12-15T13:42:37Z</time>
      </trkpt>
      <trkpt lat="45.71607" lon="4.59772">
        <ele>686.6</ele>
        <time>2025-12-15T13:42:38Z</time>
      </trkpt>
      <trkpt lat="45.71607" lon="4.59772">
        <ele>686.6</ele>
        <time>2025-12-15T13:42:39Z</time>
      </trkpt>
      <trkpt lat="45.71607" lon="4.59772">
        <ele>686.6</ele>
        <time>2025-12-15T13:42:40Z</time>
      </trkpt>
      <trkpt lat="45.71607" lon="4.59772">
        <ele>686.6</ele>
        <time>2025-12-15T13:42:41Z</time>
      </trkpt>
      <trkpt lat="45.71607" lon="4.59772">
        <ele>686.6</ele>
        <time>2025-12-15T13:42:42Z</time>
      </trkpt>
      <trkpt lat="45.71607" lon="4.59772">
        <ele>686.6</ele>
        <time>2025-12-15T13:42:43Z</time>
      </trkpt>
      <trkpt lat="45.71607" lon="4.59772">
        <ele>686.6</ele>
        <time>2025-12-15T13:42:44Z</time>
      </trkpt>
      <trkpt lat="45.71607" lon="4.59772">
        <ele>686.6</ele>
        <time>2025-12-15T13:42:45Z</time>
      </trkpt>
      <trkpt lat="45.71607" lon="4.59772">
        <ele>686.6</ele>
        <time>2025-12-15T13:42:46Z</time>
      </trkpt>
      <trkpt lat="45.71607" lon="4.59772">
        <ele>686.6</ele>
        <time>2025-12-15T13:42:47Z</time>
      </trkpt>
      <trkpt lat="45.71607" lon="4.59772">
        <ele>686.6</ele>
        <time>2025-12-15T13:42:48Z</time>
      </trkpt>
      <trkpt lat="45.71607" lon="4.59772">
        <ele>686.6</ele>
        <time>2025-12-15T13:42:49Z</time>
      </trkpt>
      <trkpt lat="45.71607" lon="4.59772">
        <ele>686.6</ele>
        <time>2025-12-15T13:42:50Z</time>
      </trkpt>
      <trkpt lat="45.71607" lon="4.59772">
        <ele>686.6</ele>
        <time>2025-12-15T13:42:51Z</time>
      </trkpt>
      <trkpt lat="45.71607" lon="4.59772">
        <ele>686.6</ele>
        <time>2025-12-15T13:42:52Z</time>
      </trkpt>
      <trkpt lat="45.71607" lon="4.59772">
        <ele>686.6</ele>
        <time>2025-12-15T13:42:53Z</time>
      </trkpt>
      <trkpt lat="45.71607" lon="4.59772">
        <ele>686.6</ele>
        <time>2025-12-15T13:42:54Z</time>
      </trkpt>
      <trkpt lat="45.71607" lon="4.59772">
        <ele>686.6</ele>
        <time>2025-12-15T13:42:55Z</time>
      </trkpt>
      <trkpt lat="45.71607" lon="4.59772">
        <ele>686.6</ele>
        <time>2025-12-15T13:42:56Z</time>
      </trkpt>
      <trkpt lat="45.71607" lon="4.59772">
        <ele>686.6</ele>
        <time>2025-12-15T13:42:57Z</time>
      </trkpt>
      <trkpt lat="45.71607" lon="4.59772">
        <ele>686.6</ele>
        <time>2025-12-15T13:42:58Z</time>
      </trkpt>
      <trkpt lat="45.71607" lon="4.59772">
        <ele>686.6</ele>
        <time>2025-12-15T13:42:59Z</time>
      </trkpt>
      <trkpt lat="45.71607" lon="4.59772">
        <ele>686.6</ele>
        <time>2025-12-15T13:43:00Z</time>
      </trkpt>
      <trkpt lat="45.71607" lon="4.59772">
        <ele>686.6</ele>
        <time>2025-12-15T13:43:01Z</time>
      </trkpt>
      <trkpt lat="45.71607" lon="4.59772">
        <ele>686.6</ele>
        <time>2025-12-15T13:43:02Z</time>
      </trkpt>
      <trkpt lat="45.71607" lon="4.59772">
        <ele>686.6</ele>
        <time>2025-12-15T13:43:03Z</time>
      </trkpt>
      <trkpt lat="45.71607" lon="4.59772">
        <ele>686.6</ele>
        <time>2025-12-15T13:43:04Z</time>
      </trkpt>
      <trkpt lat="45.71607" lon="4.59772">
        <ele>686.6</ele>
        <time>2025-12-15T13:43:05Z</time>
      </trkpt>
      <trkpt lat="45.71607" lon="4.59772">
        <ele>686.6</ele>
        <time>2025-12-15T13:43:06Z</time>
      </trkpt>
      <trkpt lat="45.71607" lon="4.59772">
        <ele>686.6</ele>
        <time>2025-12-15T13:43:07Z</time>
      </trkpt>
      <trkpt lat="45.71607" lon="4.59772">
        <ele>686.6</ele>
        <time>2025-12-15T13:43:08Z</time>
      </trkpt>
      <trkpt lat="45.71607" lon="4.59772">
        <ele>686.6</ele>
        <time>2025-12-15T13:43:09Z</time>
      </trkpt>
      <trkpt lat="45.71607" lon="4.59772">
        <ele>686.6</ele>
        <time>2025-12-15T13:43:10Z</time>
      </trkpt>
      <trkpt lat="45.71607" lon="4.59772">
        <ele>686.6</ele>
        <time>2025-12-15T13:43:11Z</time>
      </trkpt>
      <trkpt lat="45.71607" lon="4.59772">
        <ele>686.6</ele>
        <time>2025-12-15T13:43:12Z</time>
      </trkpt>
      <trkpt lat="45.71607" lon="4.59772">
        <ele>686.6</ele>
        <time>2025-12-15T13:43:13Z</time>
      </trkpt>
      <trkpt lat="45.71607" lon="4.59772">
        <ele>686.6</ele>
        <time>2025-12-15T13:43:14Z</time>
      </trkpt>
      <trkpt lat="45.71607" lon="4.59772">
        <ele>686.6</ele>
        <time>2025-12-15T13:43:15Z</time>
      </trkpt>
      <trkpt lat="45.71607" lon="4.59772">
        <ele>686.6</ele>
        <time>2025-12-15T13:43:16Z</time>
      </trkpt>
      <trkpt lat="45.71607" lon="4.59772">
        <ele>686.6</ele>
        <time>2025-12-15T13:43:17Z</time>
      </trkpt>
      <trkpt lat="45.71607" lon="4.59772">
        <ele>686.6</ele>
        <time>2025-12-15T13:43:18Z</time>
      </trkpt>
      <trkpt lat="45.71607" lon="4.59772">
        <ele>686.6</ele>
        <time>2025-12-15T13:43:19Z</time>
      </trkpt>
      <trkpt lat="45.71607" lon="4.59772">
        <ele>686.6</ele>
        <time>2025-12-15T13:43:20Z</time>
      </trkpt>
      <trkpt lat="45.71607" lon="4.59772">
        <ele>686.6</ele>
        <time>2025-12-15T13:43:21Z</time>
      </trkpt>
      <trkpt lat="45.71607" lon="4.59772">
        <ele>686.6</ele>
        <time>2025-12-15T13:43:22Z</time>
      </trkpt>
      <trkpt lat="45.71607" lon="4.59772">
        <ele>686.6</ele>
        <time>2025-12-15T13:43:23Z</time>
      </trkpt>
      <trkpt lat="45.71607" lon="4.59772">
        <ele>686.6</ele>
        <time>2025-12-15T13:43:24Z</time>
      </trkpt>
      <trkpt lat="45.71607" lon="4.59772">
        <ele>686.6</ele>
        <time>2025-12-15T13:43:25Z</time>
      </trkpt>
      <trkpt lat="45.71607" lon="4.59772">
        <ele>686.6</ele>
        <time>2025-12-15T13:43:26Z</time>
      </trkpt>
      <trkpt lat="45.71607" lon="4.59772">
        <ele>686.6</ele>
        <time>2025-12-15T13:43:27Z</time>
      </trkpt>
      <trkpt lat="45.71607" lon="4.59772">
        <ele>686.6</ele>
        <time>2025-12-15T13:43:28Z</time>
      </trkpt>
      <trkpt lat="45.71607" lon="4.59772">
        <ele>686.6</ele>
        <time>2025-12-15T13:43:29Z</time>
      </trkpt>
      <trkpt lat="45.71607" lon="4.59772">
        <ele>686.6</ele>
        <time>2025-12-15T13:43:30Z</time>
      </trkpt>
      <trkpt lat="45.71607" lon="4.59772">
        <ele>686.6</ele>
        <time>2025-12-15T13:43:31Z</time>
      </trkpt>
      <trkpt lat="45.71607" lon="4.59772">
        <ele>686.6</ele>
        <time>2025-12-15T13:43:32Z</time>
      </trkpt>
      <trkpt lat="45.71607" lon="4.59772">
        <ele>686.6</ele>
        <time>2025-12-15T13:43:33Z</time>
      </trkpt>
      <trkpt lat="45.71606" lon="4.59773">
        <ele>686.6</ele>
        <time>2025-12-15T13:43:34Z</time>
      </trkpt>
      <trkpt lat="45.71605" lon="4.59774">
        <ele>686.6</ele>
        <time>2025-12-15T13:43:35Z</time>
      </trkpt>
      <trkpt lat="45.71603" lon="4.59776">
        <ele>686.6</ele>
        <time>2025-12-15T13:43:36Z</time>
      </trkpt>
      <trkpt lat="45.71601" lon="4.59777">
        <ele>687</ele>
        <time>2025-12-15T13:43:37Z</time>
      </trkpt>
      <trkpt lat="45.71599" lon="4.59778">
        <ele>686.8</ele>
        <time>2025-12-15T13:43:38Z</time>
      </trkpt>
      <trkpt lat="45.71596" lon="4.5978">
        <ele>686.6</ele>
        <time>2025-12-15T13:43:39Z</time>
      </trkpt>
      <trkpt lat="45.71594" lon="4.59781">
        <ele>686.4</ele>
        <time>2025-12-15T13:43:40Z</time>
      </trkpt>
      <trkpt lat="45.71591" lon="4.59782">
        <ele>686.4</ele>
        <time>2025-12-15T13:43:41Z</time>
      </trkpt>
      <trkpt lat="45.71589" lon="4.59783">
        <ele>686.2</ele>
        <time>2025-12-15T13:43:42Z</time>
      </trkpt>
      <trkpt lat="45.71586" lon="4.59784">
        <ele>686.2</ele>
        <time>2025-12-15T13:43:43Z</time>
      </trkpt>
      <trkpt lat="45.71585" lon="4.59785">
        <ele>686.2</ele>
        <time>2025-12-15T13:43:44Z</time>
      </trkpt>
      <trkpt lat="45.71585" lon="4.59785">
        <ele>686.2</ele>
        <time>2025-12-15T13:43:45Z</time>
      </trkpt>
      <trkpt lat="45.71585" lon="4.59785">
        <ele>686.2</ele>
        <time>2025-12-15T13:43:46Z</time>
      </trkpt>
      <trkpt lat="45.71585" lon="4.59785">
        <ele>686.2</ele>
        <time>2025-12-15T13:43:47Z</time>
      </trkpt>
      <trkpt lat="45.71585" lon="4.59785">
        <ele>686.4</ele>
        <time>2025-12-15T13:43:48Z</time>
      </trkpt>
      <trkpt lat="45.71585" lon="4.59785">
        <ele>686.4</ele>
        <time>2025-12-15T13:43:49Z</time>
      </trkpt>
      <trkpt lat="45.71585" lon="4.59785">
        <ele>686.4</ele>
        <time>2025-12-15T13:43:50Z</time>
      </trkpt>
      <trkpt lat="45.71585" lon="4.59785">
        <ele>686.4</ele>
        <time>2025-12-15T13:43:51Z</time>
      </trkpt>
      <trkpt lat="45.71585" lon="4.59785">
        <ele>686.4</ele>
        <time>2025-12-15T13:43:52Z</time>
      </trkpt>
      <trkpt lat="45.71585" lon="4.59785">
        <ele>686.4</ele>
        <time>2025-12-15T13:43:53Z</time>
      </trkpt>
      <trkpt lat="45.71585" lon="4.59785">
        <ele>686.4</ele>
        <time>2025-12-15T13:43:54Z</time>
      </trkpt>
      <trkpt lat="45.71585" lon="4.59785">
        <ele>686.4</ele>
        <time>2025-12-15T13:43:55Z</time>
      </trkpt>
      <trkpt lat="45.71585" lon="4.59785">
        <ele>686.4</ele>
        <time>2025-12-15T13:43:56Z</time>
      </trkpt>
      <trkpt lat="45.71585" lon="4.59785">
        <ele>686.4</ele>
        <time>2025-12-15T13:43:57Z</time>
      </trkpt>
      <trkpt lat="45.71585" lon="4.59785">
        <ele>686.4</ele>
        <time>2025-12-15T13:43:58Z</time>
      </trkpt>
      <trkpt lat="45.71585" lon="4.59785">
        <ele>686.4</ele>
        <time>2025-12-15T13:43:59Z</time>
      </trkpt>
      <trkpt lat="45.71585" lon="4.59785">
        <ele>686.4</ele>
        <time>2025-12-15T13:44:00Z</time>
      </trkpt>
      <trkpt lat="45.71585" lon="4.59785">
        <ele>686.4</ele>
        <time>2025-12-15T13:44:01Z</time>
      </trkpt>
      <trkpt lat="45.71585" lon="4.59785">
        <ele>686.4</ele>
        <time>2025-12-15T13:44:02Z</time>
      </trkpt>
      <trkpt lat="45.71585" lon="4.59785">
        <ele>686.4</ele>
        <time>2025-12-15T13:44:03Z</time>
      </trkpt>
      <trkpt lat="45.71585" lon="4.59785">
        <ele>686.4</ele>
        <time>2025-12-15T13:44:04Z</time>
      </trkpt>
      <trkpt lat="45.71585" lon="4.59785">
        <ele>686.4</ele>
        <time>2025-12-15T13:44:05Z</time>
      </trkpt>
      <trkpt lat="45.71585" lon="4.59785">
        <ele>686.4</ele>
        <time>2025-12-15T13:44:06Z</time>
      </trkpt>
      <trkpt lat="45.71585" lon="4.59785">
        <ele>686.4</ele>
        <time>2025-12-15T13:44:07Z</time>
      </trkpt>
      <trkpt lat="45.71585" lon="4.59785">
        <ele>686.4</ele>
        <time>2025-12-15T13:44:08Z</time>
      </trkpt>
      <trkpt lat="45.71585" lon="4.59785">
        <ele>686.4</ele>
        <time>2025-12-15T13:44:09Z</time>
      </trkpt>
      <trkpt lat="45.71585" lon="4.59785">
        <ele>686.4</ele>
        <time>2025-12-15T13:44:10Z</time>
      </trkpt>
      <trkpt lat="45.71585" lon="4.59785">
        <ele>686.4</ele>
        <time>2025-12-15T13:44:11Z</time>
      </trkpt>
      <trkpt lat="45.71585" lon="4.59785">
        <ele>686.4</ele>
        <time>2025-12-15T13:44:12Z</time>
      </trkpt>
      <trkpt lat="45.71585" lon="4.59785">
        <ele>686.4</ele>
        <time>2025-12-15T13:44:13Z</time>
      </trkpt>
      <trkpt lat="45.71585" lon="4.59785">
        <ele>686.4</ele>
        <time>2025-12-15T13:44:14Z</time>
      </trkpt>
      <trkpt lat="45.71585" lon="4.59785">
        <ele>686.4</ele>
        <time>2025-12-15T13:44:15Z</time>
      </trkpt>
      <trkpt lat="45.71585" lon="4.59785">
        <ele>686.4</ele>
        <time>2025-12-15T13:44:16Z</time>
      </trkpt>
      <trkpt lat="45.71585" lon="4.59785">
        <ele>686.4</ele>
        <time>2025-12-15T13:44:17Z</time>
      </trkpt>
      <trkpt lat="45.71585" lon="4.59785">
        <ele>686.4</ele>
        <time>2025-12-15T13:44:18Z</time>
      </trkpt>
      <trkpt lat="45.71585" lon="4.59785">
        <ele>686.4</ele>
        <time>2025-12-15T13:44:19Z</time>
      </trkpt>
      <trkpt lat="45.71585" lon="4.59785">
        <ele>686.4</ele>
        <time>2025-12-15T13:44:20Z</time>
      </trkpt>
      <trkpt lat="45.71585" lon="4.59785">
        <ele>686.4</ele>
        <time>2025-12-15T13:44:21Z</time>
      </trkpt>
      <trkpt lat="45.71585" lon="4.59785">
        <ele>686.4</ele>
        <time>2025-12-15T13:44:22Z</time>
      </trkpt>
      <trkpt lat="45.71585" lon="4.59785">
        <ele>686.4</ele>
        <time>2025-12-15T13:44:23Z</time>
      </trkpt>
      <trkpt lat="45.71585" lon="4.59785">
        <ele>686.4</ele>
        <time>2025-12-15T13:44:24Z</time>
      </trkpt>
      <trkpt lat="45.71584" lon="4.59785">
        <ele>686.4</ele>
        <time>2025-12-15T13:44:25Z</time>
      </trkpt>
      <trkpt lat="45.71583" lon="4.59786">
        <ele>686.2</ele>
        <time>2025-12-15T13:44:26Z</time>
      </trkpt>
      <trkpt lat="45.71581" lon="4.59786">
        <ele>686.2</ele>
        <time>2025-12-15T13:44:27Z</time>
      </trkpt>
      <trkpt lat="45.7158" lon="4.59786">
        <ele>686.2</ele>
        <time>2025-12-15T13:44:28Z</time>
      </trkpt>
      <trkpt lat="45.71578" lon="4.59786">
        <ele>686</ele>
        <time>2025-12-15T13:44:29Z</time>
      </trkpt>
      <trkpt lat="45.71576" lon="4.59787">
        <ele>686</ele>
        <time>2025-12-15T13:44:30Z</time>
      </trkpt>
      <trkpt lat="45.71574" lon="4.59788">
        <ele>686</ele>
        <time>2025-12-15T13:44:31Z</time>
      </trkpt>
      <trkpt lat="45.71572" lon="4.5979">
        <ele>685.8</ele>
        <time>2025-12-15T13:44:32Z</time>
      </trkpt>
      <trkpt lat="45.7157" lon="4.59791">
        <ele>685.8</ele>
        <time>2025-12-15T13:44:33Z</time>
      </trkpt>
      <trkpt lat="45.71567" lon="4.59793">
        <ele>685.6</ele>
        <time>2025-12-15T13:44:34Z</time>
      </trkpt>
      <trkpt lat="45.71563" lon="4.59796">
        <ele>685.6</ele>
        <time>2025-12-15T13:44:35Z</time>
      </trkpt>
      <trkpt lat="45.71559" lon="4.59799">
        <ele>685.4</ele>
        <time>2025-12-15T13:44:36Z</time>
      </trkpt>
      <trkpt lat="45.71556" lon="4.59801">
        <ele>685.2</ele>
        <time>2025-12-15T13:44:37Z</time>
      </trkpt>
      <trkpt lat="45.71552" lon="4.59803">
        <ele>685</ele>
        <time>2025-12-15T13:44:38Z</time>
      </trkpt>
      <trkpt lat="45.71548" lon="4.59804">
        <ele>684.6</ele>
        <time>2025-12-15T13:44:39Z</time>
      </trkpt>
      <trkpt lat="45.71544" lon="4.59805">
        <ele>684.4</ele>
        <time>2025-12-15T13:44:40Z</time>
      </trkpt>
      <trkpt lat="45.7154" lon="4.59805">
        <ele>684</ele>
        <time>2025-12-15T13:44:41Z</time>
      </trkpt>
      <trkpt lat="45.71536" lon="4.59805">
        <ele>683.8</ele>
        <time>2025-12-15T13:44:42Z</time>
      </trkpt>
      <trkpt lat="45.71531" lon="4.59806">
        <ele>683.6</ele>
        <time>2025-12-15T13:44:43Z</time>
      </trkpt>
      <trkpt lat="45.71527" lon="4.59805">
        <ele>683.2</ele>
        <time>2025-12-15T13:44:44Z</time>
      </trkpt>
      <trkpt lat="45.71523" lon="4.59803">
        <ele>683</ele>
        <time>2025-12-15T13:44:45Z</time>
      </trkpt>
      <trkpt lat="45.7152" lon="4.59801">
        <ele>683</ele>
        <time>2025-12-15T13:44:46Z</time>
      </trkpt>
      <trkpt lat="45.71517" lon="4.59799">
        <ele>682.8</ele>
        <time>2025-12-15T13:44:47Z</time>
      </trkpt>
      <trkpt lat="45.71513" lon="4.59797">
        <ele>682.8</ele>
        <time>2025-12-15T13:44:48Z</time>
      </trkpt>
      <trkpt lat="45.7151" lon="4.59794">
        <ele>682.8</ele>
        <time>2025-12-15T13:44:49Z</time>
      </trkpt>
      <trkpt lat="45.71507" lon="4.59792">
        <ele>682.8</ele>
        <time>2025-12-15T13:44:50Z</time>
      </trkpt>
      <trkpt lat="45.71505" lon="4.5979">
        <ele>682.8</ele>
        <time>2025-12-15T13:44:51Z</time>
      </trkpt>
      <trkpt lat="45.71502" lon="4.59787">
        <ele>683</ele>
        <time>2025-12-15T13:44:52Z</time>
      </trkpt>
      <trkpt lat="45.715" lon="4.59784">
        <ele>683</ele>
        <time>2025-12-15T13:44:53Z</time>
      </trkpt>
      <trkpt lat="45.71498" lon="4.5978">
        <ele>683</ele>
        <time>2025-12-15T13:44:54Z</time>
      </trkpt>
      <trkpt lat="45.71495" lon="4.59777">
        <ele>683</ele>
        <time>2025-12-15T13:44:55Z</time>
      </trkpt>
      <trkpt lat="45.71493" lon="4.59774">
        <ele>683.2</ele>
        <time>2025-12-15T13:44:56Z</time>
      </trkpt>
      <trkpt lat="45.71491" lon="4.59771">
        <ele>683.4</ele>
        <time>2025-12-15T13:44:57Z</time>
      </trkpt>
      <trkpt lat="45.71489" lon="4.59769">
        <ele>683.4</ele>
        <time>2025-12-15T13:44:58Z</time>
      </trkpt>
      <trkpt lat="45.71486" lon="4.59766">
        <ele>683.6</ele>
        <time>2025-12-15T13:44:59Z</time>
      </trkpt>
      <trkpt lat="45.71483" lon="4.59762">
        <ele>683.8</ele>
        <time>2025-12-15T13:45:00Z</time>
      </trkpt>
      <trkpt lat="45.71481" lon="4.59758">
        <ele>683.8</ele>
        <time>2025-12-15T13:45:01Z</time>
      </trkpt>
      <trkpt lat="45.71479" lon="4.59754">
        <ele>683.8</ele>
        <time>2025-12-15T13:45:02Z</time>
      </trkpt>
      <trkpt lat="45.71477" lon="4.59751">
        <ele>684</ele>
        <time>2025-12-15T13:45:03Z</time>
      </trkpt>
      <trkpt lat="45.71474" lon="4.59748">
        <ele>684</ele>
        <time>2025-12-15T13:45:04Z</time>
      </trkpt>
      <trkpt lat="45.71473" lon="4.59745">
        <ele>684</ele>
        <time>2025-12-15T13:45:05Z</time>
      </trkpt>
      <trkpt lat="45.71471" lon="4.59742">
        <ele>684</ele>
        <time>2025-12-15T13:45:06Z</time>
      </trkpt>
      <trkpt lat="45.71468" lon="4.59739">
        <ele>684</ele>
        <time>2025-12-15T13:45:07Z</time>
      </trkpt>
      <trkpt lat="45.71466" lon="4.59736">
        <ele>684</ele>
        <time>2025-12-15T13:45:08Z</time>
      </trkpt>
      <trkpt lat="45.71464" lon="4.59733">
        <ele>684</ele>
        <time>2025-12-15T13:45:09Z</time>
      </trkpt>
      <trkpt lat="45.71462" lon="4.5973">
        <ele>683.8</ele>
        <time>2025-12-15T13:45:10Z</time>
      </trkpt>
      <trkpt lat="45.7146" lon="4.59728">
        <ele>683.8</ele>
        <time>2025-12-15T13:45:11Z</time>
      </trkpt>
      <trkpt lat="45.71458" lon="4.59726">
        <ele>683.6</ele>
        <time>2025-12-15T13:45:12Z</time>
      </trkpt>
      <trkpt lat="45.71455" lon="4.59723">
        <ele>683.6</ele>
        <time>2025-12-15T13:45:13Z</time>
      </trkpt>
      <trkpt lat="45.71452" lon="4.59719">
        <ele>683.6</ele>
        <time>2025-12-15T13:45:14Z</time>
      </trkpt>
      <trkpt lat="45.71449" lon="4.59715">
        <ele>683.6</ele>
        <time>2025-12-15T13:45:15Z</time>
      </trkpt>
      <trkpt lat="45.71447" lon="4.59711">
        <ele>683.4</ele>
        <time>2025-12-15T13:45:16Z</time>
      </trkpt>
      <trkpt lat="45.71445" lon="4.59707">
        <ele>683.4</ele>
        <time>2025-12-15T13:45:17Z</time>
      </trkpt>
      <trkpt lat="45.71443" lon="4.59705">
        <ele>683.4</ele>
        <time>2025-12-15T13:45:18Z</time>
      </trkpt>
      <trkpt lat="45.71441" lon="4.59702">
        <ele>683.4</ele>
        <time>2025-12-15T13:45:19Z</time>
      </trkpt>
      <trkpt lat="45.71439" lon="4.59698">
        <ele>683.4</ele>
        <time>2025-12-15T13:45:20Z</time>
      </trkpt>
      <trkpt lat="45.71437" lon="4.59693">
        <ele>683.4</ele>
        <time>2025-12-15T13:45:21Z</time>
      </trkpt>
      <trkpt lat="45.71435" lon="4.59689">
        <ele>683.4</ele>
        <time>2025-12-15T13:45:22Z</time>
      </trkpt>
      <trkpt lat="45.71434" lon="4.59684">
        <ele>683.2</ele>
        <time>2025-12-15T13:45:23Z</time>
      </trkpt>
      <trkpt lat="45.71432" lon="4.5968">
        <ele>683</ele>
        <time>2025-12-15T13:45:24Z</time>
      </trkpt>
      <trkpt lat="45.71431" lon="4.59675">
        <ele>682.8</ele>
        <time>2025-12-15T13:45:25Z</time>
      </trkpt>
      <trkpt lat="45.71429" lon="4.5967">
        <ele>682.8</ele>
        <time>2025-12-15T13:45:26Z</time>
      </trkpt>
      <trkpt lat="45.71428" lon="4.59666">
        <ele>682.8</ele>
        <time>2025-12-15T13:45:27Z</time>
      </trkpt>
      <trkpt lat="45.71426" lon="4.59661">
        <ele>682.8</ele>
        <time>2025-12-15T13:45:28Z</time>
      </trkpt>
      <trkpt lat="45.71425" lon="4.59656">
        <ele>682.8</ele>
        <time>2025-12-15T13:45:29Z</time>
      </trkpt>
      <trkpt lat="45.71423" lon="4.59652">
        <ele>682.8</ele>
        <time>2025-12-15T13:45:30Z</time>
      </trkpt>
      <trkpt lat="45.71422" lon="4.59647">
        <ele>682.8</ele>
        <time>2025-12-15T13:45:31Z</time>
      </trkpt>
      <trkpt lat="45.71421" lon="4.59642">
        <ele>682.8</ele>
        <time>2025-12-15T13:45:32Z</time>
      </trkpt>
      <trkpt lat="45.7142" lon="4.59636">
        <ele>682.8</ele>
        <time>2025-12-15T13:45:33Z</time>
      </trkpt>
      <trkpt lat="45.71419" lon="4.59631">
        <ele>682.8</ele>
        <time>2025-12-15T13:45:34Z</time>
      </trkpt>
      <trkpt lat="45.71419" lon="4.59625">
        <ele>682.8</ele>
        <time>2025-12-15T13:45:35Z</time>
      </trkpt>
      <trkpt lat="45.71418" lon="4.59619">
        <ele>682.8</ele>
        <time>2025-12-15T13:45:36Z</time>
      </trkpt>
      <trkpt lat="45.71417" lon="4.59614">
        <ele>682.8</ele>
        <time>2025-12-15T13:45:37Z</time>
      </trkpt>
      <trkpt lat="45.71417" lon="4.59609">
        <ele>682.8</ele>
        <time>2025-12-15T13:45:38Z</time>
      </trkpt>
      <trkpt lat="45.71417" lon="4.59604">
        <ele>682.8</ele>
        <time>2025-12-15T13:45:39Z</time>
      </trkpt>
      <trkpt lat="45.71417" lon="4.59598">
        <ele>682.8</ele>
        <time>2025-12-15T13:45:40Z</time>
      </trkpt>
      <trkpt lat="45.71416" lon="4.59593">
        <ele>682.8</ele>
        <time>2025-12-15T13:45:41Z</time>
      </trkpt>
      <trkpt lat="45.71416" lon="4.59588">
        <ele>682.6</ele>
        <time>2025-12-15T13:45:42Z</time>
      </trkpt>
      <trkpt lat="45.71416" lon="4.59582">
        <ele>682.8</ele>
        <time>2025-12-15T13:45:43Z</time>
      </trkpt>
      <trkpt lat="45.71416" lon="4.59577">
        <ele>682.8</ele>
        <time>2025-12-15T13:45:44Z</time>
      </trkpt>
      <trkpt lat="45.71416" lon="4.59571">
        <ele>682.6</ele>
        <time>2025-12-15T13:45:45Z</time>
      </trkpt>
      <trkpt lat="45.71416" lon="4.59565">
        <ele>682.6</ele>
        <time>2025-12-15T13:45:46Z</time>
      </trkpt>
      <trkpt lat="45.71416" lon="4.59559">
        <ele>682.6</ele>
        <time>2025-12-15T13:45:47Z</time>
      </trkpt>
      <trkpt lat="45.71416" lon="4.59553">
        <ele>682.6</ele>
        <time>2025-12-15T13:45:48Z</time>
      </trkpt>
      <trkpt lat="45.71417" lon="4.59548">
        <ele>682.4</ele>
        <time>2025-12-15T13:45:49Z</time>
      </trkpt>
      <trkpt lat="45.71418" lon="4.59543">
        <ele>682.4</ele>
        <time>2025-12-15T13:45:50Z</time>
      </trkpt>
      <trkpt lat="45.71419" lon="4.59537">
        <ele>682.6</ele>
        <time>2025-12-15T13:45:51Z</time>
      </trkpt>
      <trkpt lat="45.71419" lon="4.59532">
        <ele>682.6</ele>
        <time>2025-12-15T13:45:52Z</time>
      </trkpt>
      <trkpt lat="45.7142" lon="4.59527">
        <ele>682.6</ele>
        <time>2025-12-15T13:45:53Z</time>
      </trkpt>
      <trkpt lat="45.7142" lon="4.59522">
        <ele>682.8</ele>
        <time>2025-12-15T13:45:54Z</time>
      </trkpt>
      <trkpt lat="45.7142" lon="4.59516">
        <ele>683</ele>
        <time>2025-12-15T13:45:55Z</time>
      </trkpt>
      <trkpt lat="45.71421" lon="4.59511">
        <ele>683</ele>
        <time>2025-12-15T13:45:56Z</time>
      </trkpt>
      <trkpt lat="45.71421" lon="4.59505">
        <ele>683</ele>
        <time>2025-12-15T13:45:57Z</time>
      </trkpt>
      <trkpt lat="45.71422" lon="4.595">
        <ele>683.2</ele>
        <time>2025-12-15T13:45:58Z</time>
      </trkpt>
      <trkpt lat="45.71422" lon="4.59494">
        <ele>683.4</ele>
        <time>2025-12-15T13:45:59Z</time>
      </trkpt>
      <trkpt lat="45.71422" lon="4.59489">
        <ele>683.4</ele>
        <time>2025-12-15T13:46:00Z</time>
      </trkpt>
      <trkpt lat="45.71422" lon="4.59483">
        <ele>683.4</ele>
        <time>2025-12-15T13:46:01Z</time>
      </trkpt>
      <trkpt lat="45.71422" lon="4.59478">
        <ele>683.6</ele>
        <time>2025-12-15T13:46:02Z</time>
      </trkpt>
      <trkpt lat="45.71422" lon="4.59472">
        <ele>683.6</ele>
        <time>2025-12-15T13:46:03Z</time>
      </trkpt>
      <trkpt lat="45.71421" lon="4.59467">
        <ele>683.6</ele>
        <time>2025-12-15T13:46:04Z</time>
      </trkpt>
      <trkpt lat="45.71421" lon="4.59461">
        <ele>683.6</ele>
        <time>2025-12-15T13:46:05Z</time>
      </trkpt>
      <trkpt lat="45.71421" lon="4.59456">
        <ele>683.8</ele>
        <time>2025-12-15T13:46:06Z</time>
      </trkpt>
      <trkpt lat="45.7142" lon="4.5945">
        <ele>683.8</ele>
        <time>2025-12-15T13:46:07Z</time>
      </trkpt>
      <trkpt lat="45.7142" lon="4.59444">
        <ele>683.8</ele>
        <time>2025-12-15T13:46:08Z</time>
      </trkpt>
      <trkpt lat="45.71419" lon="4.59439">
        <ele>683.8</ele>
        <time>2025-12-15T13:46:09Z</time>
      </trkpt>
      <trkpt lat="45.71418" lon="4.59433">
        <ele>683.8</ele>
        <time>2025-12-15T13:46:10Z</time>
      </trkpt>
      <trkpt lat="45.71417" lon="4.59428">
        <ele>683.8</ele>
        <time>2025-12-15T13:46:11Z</time>
      </trkpt>
      <trkpt lat="45.71417" lon="4.59423">
        <ele>683.8</ele>
        <time>2025-12-15T13:46:12Z</time>
      </trkpt>
      <trkpt lat="45.71417" lon="4.59418">
        <ele>683.6</ele>
        <time>2025-12-15T13:46:13Z</time>
      </trkpt>
      <trkpt lat="45.71416" lon="4.59411">
        <ele>683.4</ele>
        <time>2025-12-15T13:46:14Z</time>
      </trkpt>
      <trkpt lat="45.71415" lon="4.59404">
        <ele>683</ele>
        <time>2025-12-15T13:46:15Z</time>
      </trkpt>
      <trkpt lat="45.71413" lon="4.59397">
        <ele>682.6</ele>
        <time>2025-12-15T13:46:16Z</time>
      </trkpt>
      <trkpt lat="45.71412" lon="4.59391">
        <ele>682.4</ele>
        <time>2025-12-15T13:46:17Z</time>
      </trkpt>
      <trkpt lat="45.7141" lon="4.59384">
        <ele>682</ele>
        <time>2025-12-15T13:46:18Z</time>
      </trkpt>
      <trkpt lat="45.71409" lon="4.59377">
        <ele>681.8</ele>
        <time>2025-12-15T13:46:19Z</time>
      </trkpt>
      <trkpt lat="45.71409" lon="4.5937">
        <ele>681.8</ele>
        <time>2025-12-15T13:46:20Z</time>
      </trkpt>
      <trkpt lat="45.7141" lon="4.59363">
        <ele>681.8</ele>
        <time>2025-12-15T13:46:21Z</time>
      </trkpt>
      <trkpt lat="45.7141" lon="4.59356">
        <ele>681.8</ele>
        <time>2025-12-15T13:46:22Z</time>
      </trkpt>
      <trkpt lat="45.7141" lon="4.5935">
        <ele>682</ele>
        <time>2025-12-15T13:46:23Z</time>
      </trkpt>
      <trkpt lat="45.7141" lon="4.59344">
        <ele>682.4</ele>
        <time>2025-12-15T13:46:24Z</time>
      </trkpt>
      <trkpt lat="45.71411" lon="4.59339">
        <ele>682.6</ele>
        <time>2025-12-15T13:46:25Z</time>
      </trkpt>
      <trkpt lat="45.71412" lon="4.59334">
        <ele>683</ele>
        <time>2025-12-15T13:46:26Z</time>
      </trkpt>
      <trkpt lat="45.71413" lon="4.59329">
        <ele>683.6</ele>
        <time>2025-12-15T13:46:27Z</time>
      </trkpt>
      <trkpt lat="45.71414" lon="4.59324">
        <ele>684</ele>
        <time>2025-12-15T13:46:28Z</time>
      </trkpt>
      <trkpt lat="45.71415" lon="4.59318">
        <ele>684.4</ele>
        <time>2025-12-15T13:46:29Z</time>
      </trkpt>
      <trkpt lat="45.71415" lon="4.59313">
        <ele>684.8</ele>
        <time>2025-12-15T13:46:30Z</time>
      </trkpt>
      <trkpt lat="45.71416" lon="4.59308">
        <ele>685</ele>
        <time>2025-12-15T13:46:31Z</time>
      </trkpt>
      <trkpt lat="45.71416" lon="4.59302">
        <ele>685.4</ele>
        <time>2025-12-15T13:46:32Z</time>
      </trkpt>
      <trkpt lat="45.71417" lon="4.59297">
        <ele>685.6</ele>
        <time>2025-12-15T13:46:33Z</time>
      </trkpt>
      <trkpt lat="45.71417" lon="4.59292">
        <ele>686</ele>
        <time>2025-12-15T13:46:34Z</time>
      </trkpt>
      <trkpt lat="45.71418" lon="4.59286">
        <ele>686</ele>
        <time>2025-12-15T13:46:35Z</time>
      </trkpt>
      <trkpt lat="45.7142" lon="4.59279">
        <ele>686</ele>
        <time>2025-12-15T13:46:36Z</time>
      </trkpt>
      <trkpt lat="45.71421" lon="4.59272">
        <ele>685.8</ele>
        <time>2025-12-15T13:46:37Z</time>
      </trkpt>
      <trkpt lat="45.71422" lon="4.59265">
        <ele>685.6</ele>
        <time>2025-12-15T13:46:38Z</time>
      </trkpt>
      <trkpt lat="45.71422" lon="4.59258">
        <ele>685.4</ele>
        <time>2025-12-15T13:46:39Z</time>
      </trkpt>
      <trkpt lat="45.71423" lon="4.59252">
        <ele>685.2</ele>
        <time>2025-12-15T13:46:40Z</time>
      </trkpt>
      <trkpt lat="45.71423" lon="4.59246">
        <ele>685.2</ele>
        <time>2025-12-15T13:46:41Z</time>
      </trkpt>
      <trkpt lat="45.71423" lon="4.59241">
        <ele>685.4</ele>
        <time>2025-12-15T13:46:42Z</time>
      </trkpt>
      <trkpt lat="45.71423" lon="4.59235">
        <ele>685.6</ele>
        <time>2025-12-15T13:46:43Z</time>
      </trkpt>
      <trkpt lat="45.71424" lon="4.5923">
        <ele>686</ele>
        <time>2025-12-15T13:46:44Z</time>
      </trkpt>
      <trkpt lat="45.71424" lon="4.59224">
        <ele>686.2</ele>
        <time>2025-12-15T13:46:45Z</time>
      </trkpt>
      <trkpt lat="45.71424" lon="4.59218">
        <ele>686.4</ele>
        <time>2025-12-15T13:46:46Z</time>
      </trkpt>
      <trkpt lat="45.71424" lon="4.59212">
        <ele>686.6</ele>
        <time>2025-12-15T13:46:47Z</time>
      </trkpt>
      <trkpt lat="45.71424" lon="4.59206">
        <ele>686.8</ele>
        <time>2025-12-15T13:46:48Z</time>
      </trkpt>
      <trkpt lat="45.71424" lon="4.592">
        <ele>686.8</ele>
        <time>2025-12-15T13:46:49Z</time>
      </trkpt>
      <trkpt lat="45.71422" lon="4.59194">
        <ele>686.8</ele>
        <time>2025-12-15T13:46:50Z</time>
      </trkpt>
      <trkpt lat="45.7142" lon="4.59188">
        <ele>686.8</ele>
        <time>2025-12-15T13:46:51Z</time>
      </trkpt>
      <trkpt lat="45.71418" lon="4.59183">
        <ele>687</ele>
        <time>2025-12-15T13:46:52Z</time>
      </trkpt>
      <trkpt lat="45.71415" lon="4.59179">
        <ele>686.8</ele>
        <time>2025-12-15T13:46:53Z</time>
      </trkpt>
      <trkpt lat="45.71411" lon="4.59175">
        <ele>686.8</ele>
        <time>2025-12-15T13:46:54Z</time>
      </trkpt>
      <trkpt lat="45.71407" lon="4.59172">
        <ele>686.8</ele>
        <time>2025-12-15T13:46:55Z</time>
      </trkpt>
      <trkpt lat="45.71402" lon="4.59169">
        <ele>686.8</ele>
        <time>2025-12-15T13:46:56Z</time>
      </trkpt>
      <trkpt lat="45.71398" lon="4.59166">
        <ele>686.6</ele>
        <time>2025-12-15T13:46:57Z</time>
      </trkpt>
      <trkpt lat="45.71394" lon="4.59163">
        <ele>686.8</ele>
        <time>2025-12-15T13:46:58Z</time>
      </trkpt>
      <trkpt lat="45.7139" lon="4.5916">
        <ele>686.8</ele>
        <time>2025-12-15T13:46:59Z</time>
      </trkpt>
      <trkpt lat="45.71386" lon="4.59156">
        <ele>687</ele>
        <time>2025-12-15T13:47:00Z</time>
      </trkpt>
      <trkpt lat="45.71383" lon="4.59152">
        <ele>687.2</ele>
        <time>2025-12-15T13:47:01Z</time>
      </trkpt>
      <trkpt lat="45.7138" lon="4.59147">
        <ele>687.4</ele>
        <time>2025-12-15T13:47:02Z</time>
      </trkpt>
      <trkpt lat="45.71377" lon="4.59143">
        <ele>688</ele>
        <time>2025-12-15T13:47:03Z</time>
      </trkpt>
      <trkpt lat="45.71374" lon="4.59138">
        <ele>688.4</ele>
        <time>2025-12-15T13:47:04Z</time>
      </trkpt>
      <trkpt lat="45.71372" lon="4.59134">
        <ele>688.8</ele>
        <time>2025-12-15T13:47:05Z</time>
      </trkpt>
      <trkpt lat="45.71369" lon="4.5913">
        <ele>689.4</ele>
        <time>2025-12-15T13:47:06Z</time>
      </trkpt>
      <trkpt lat="45.71366" lon="4.59127">
        <ele>689.8</ele>
        <time>2025-12-15T13:47:07Z</time>
      </trkpt>
      <trkpt lat="45.71362" lon="4.59125">
        <ele>690.2</ele>
        <time>2025-12-15T13:47:08Z</time>
      </trkpt>
      <trkpt lat="45.71358" lon="4.59123">
        <ele>690.4</ele>
        <time>2025-12-15T13:47:09Z</time>
      </trkpt>
      <trkpt lat="45.71354" lon="4.59122">
        <ele>690.8</ele>
        <time>2025-12-15T13:47:10Z</time>
      </trkpt>
      <trkpt lat="45.71351" lon="4.59122">
        <ele>691.2</ele>
        <time>2025-12-15T13:47:11Z</time>
      </trkpt>
      <trkpt lat="45.71347" lon="4.59121">
        <ele>691.4</ele>
        <time>2025-12-15T13:47:12Z</time>
      </trkpt>
      <trkpt lat="45.71344" lon="4.59121">
        <ele>691.6</ele>
        <time>2025-12-15T13:47:13Z</time>
      </trkpt>
      <trkpt lat="45.7134" lon="4.59121">
        <ele>691.8</ele>
        <time>2025-12-15T13:47:14Z</time>
      </trkpt>
      <trkpt lat="45.71337" lon="4.59121">
        <ele>692.2</ele>
        <time>2025-12-15T13:47:15Z</time>
      </trkpt>
      <trkpt lat="45.71335" lon="4.59122">
        <ele>692.4</ele>
        <time>2025-12-15T13:47:16Z</time>
      </trkpt>
      <trkpt lat="45.71332" lon="4.59122">
        <ele>692.8</ele>
        <time>2025-12-15T13:47:17Z</time>
      </trkpt>
      <trkpt lat="45.71329" lon="4.59122">
        <ele>693</ele>
        <time>2025-12-15T13:47:18Z</time>
      </trkpt>
      <trkpt lat="45.71325" lon="4.59122">
        <ele>693.4</ele>
        <time>2025-12-15T13:47:19Z</time>
      </trkpt>
      <trkpt lat="45.71321" lon="4.59122">
        <ele>693.8</ele>
        <time>2025-12-15T13:47:20Z</time>
      </trkpt>
      <trkpt lat="45.71318" lon="4.59122">
        <ele>694.2</ele>
        <time>2025-12-15T13:47:21Z</time>
      </trkpt>
      <trkpt lat="45.71315" lon="4.59122">
        <ele>694.6</ele>
        <time>2025-12-15T13:47:22Z</time>
      </trkpt>
      <trkpt lat="45.71311" lon="4.59123">
        <ele>695</ele>
        <time>2025-12-15T13:47:23Z</time>
      </trkpt>
      <trkpt lat="45.71307" lon="4.59123">
        <ele>695.4</ele>
        <time>2025-12-15T13:47:24Z</time>
      </trkpt>
      <trkpt lat="45.71304" lon="4.59125">
        <ele>695.6</ele>
        <time>2025-12-15T13:47:25Z</time>
      </trkpt>
      <trkpt lat="45.713" lon="4.59127">
        <ele>695.8</ele>
        <time>2025-12-15T13:47:26Z</time>
      </trkpt>
      <trkpt lat="45.71296" lon="4.59128">
        <ele>695.8</ele>
        <time>2025-12-15T13:47:27Z</time>
      </trkpt>
      <trkpt lat="45.71292" lon="4.5913">
        <ele>696</ele>
        <time>2025-12-15T13:47:28Z</time>
      </trkpt>
      <trkpt lat="45.71289" lon="4.59131">
        <ele>696</ele>
        <time>2025-12-15T13:47:29Z</time>
      </trkpt>
      <trkpt lat="45.71285" lon="4.59132">
        <ele>696</ele>
        <time>2025-12-15T13:47:30Z</time>
      </trkpt>
      <trkpt lat="45.71281" lon="4.59133">
        <ele>696</ele>
        <time>2025-12-15T13:47:31Z</time>
      </trkpt>
      <trkpt lat="45.71276" lon="4.59135">
        <ele>695.8</ele>
        <time>2025-12-15T13:47:32Z</time>
      </trkpt>
      <trkpt lat="45.71272" lon="4.59137">
        <ele>695.6</ele>
        <time>2025-12-15T13:47:33Z</time>
      </trkpt>
      <trkpt lat="45.71267" lon="4.59139">
        <ele>695.2</ele>
        <time>2025-12-15T13:47:34Z</time>
      </trkpt>
      <trkpt lat="45.71262" lon="4.59141">
        <ele>695</ele>
        <time>2025-12-15T13:47:35Z</time>
      </trkpt>
      <trkpt lat="45.71258" lon="4.59143">
        <ele>694.6</ele>
        <time>2025-12-15T13:47:36Z</time>
      </trkpt>
      <trkpt lat="45.71253" lon="4.59145">
        <ele>694.2</ele>
        <time>2025-12-15T13:47:37Z</time>
      </trkpt>
      <trkpt lat="45.71248" lon="4.59147">
        <ele>694</ele>
        <time>2025-12-15T13:47:38Z</time>
      </trkpt>
      <trkpt lat="45.71244" lon="4.59149">
        <ele>693.8</ele>
        <time>2025-12-15T13:47:39Z</time>
      </trkpt>
      <trkpt lat="45.71239" lon="4.59151">
        <ele>693.4</ele>
        <time>2025-12-15T13:47:40Z</time>
      </trkpt>
      <trkpt lat="45.71234" lon="4.59153">
        <ele>693.4</ele>
        <time>2025-12-15T13:47:41Z</time>
      </trkpt>
      <trkpt lat="45.7123" lon="4.59155">
        <ele>693.2</ele>
        <time>2025-12-15T13:47:42Z</time>
      </trkpt>
      <trkpt lat="45.71225" lon="4.59158">
        <ele>693</ele>
        <time>2025-12-15T13:47:43Z</time>
      </trkpt>
      <trkpt lat="45.7122" lon="4.59161">
        <ele>692.8</ele>
        <time>2025-12-15T13:47:44Z</time>
      </trkpt>
      <trkpt lat="45.71215" lon="4.59163">
        <ele>692.6</ele>
        <time>2025-12-15T13:47:45Z</time>
      </trkpt>
      <trkpt lat="45.7121" lon="4.59166">
        <ele>692.4</ele>
        <time>2025-12-15T13:47:46Z</time>
      </trkpt>
      <trkpt lat="45.71206" lon="4.59169">
        <ele>692.2</ele>
        <time>2025-12-15T13:47:47Z</time>
      </trkpt>
      <trkpt lat="45.71202" lon="4.59173">
        <ele>692</ele>
        <time>2025-12-15T13:47:48Z</time>
      </trkpt>
      <trkpt lat="45.71197" lon="4.59176">
        <ele>691.8</ele>
        <time>2025-12-15T13:47:49Z</time>
      </trkpt>
      <trkpt lat="45.71192" lon="4.59179">
        <ele>691.4</ele>
        <time>2025-12-15T13:47:50Z</time>
      </trkpt>
      <trkpt lat="45.71187" lon="4.59182">
        <ele>691.2</ele>
        <time>2025-12-15T13:47:51Z</time>
      </trkpt>
      <trkpt lat="45.71182" lon="4.59185">
        <ele>691.2</ele>
        <time>2025-12-15T13:47:52Z</time>
      </trkpt>
      <trkpt lat="45.71178" lon="4.59188">
        <ele>691.2</ele>
        <time>2025-12-15T13:47:53Z</time>
      </trkpt>
      <trkpt lat="45.71173" lon="4.59191">
        <ele>691.4</ele>
        <time>2025-12-15T13:47:54Z</time>
      </trkpt>
      <trkpt lat="45.71168" lon="4.59193">
        <ele>691.6</ele>
        <time>2025-12-15T13:47:55Z</time>
      </trkpt>
      <trkpt lat="45.71164" lon="4.59195">
        <ele>691.8</ele>
        <time>2025-12-15T13:47:56Z</time>
      </trkpt>
      <trkpt lat="45.71159" lon="4.592">
        <ele>691.8</ele>
        <time>2025-12-15T13:47:57Z</time>
      </trkpt>
      <trkpt lat="45.71155" lon="4.59204">
        <ele>692</ele>
        <time>2025-12-15T13:47:58Z</time>
      </trkpt>
      <trkpt lat="45.7115" lon="4.5921">
        <ele>691.8</ele>
        <time>2025-12-15T13:47:59Z</time>
      </trkpt>
      <trkpt lat="45.71145" lon="4.59217">
        <ele>691.4</ele>
        <time>2025-12-15T13:48:00Z</time>
      </trkpt>
      <trkpt lat="45.7114" lon="4.59225">
        <ele>690.8</ele>
        <time>2025-12-15T13:48:01Z</time>
      </trkpt>
      <trkpt lat="45.71135" lon="4.59232">
        <ele>690.2</ele>
        <time>2025-12-15T13:48:02Z</time>
      </trkpt>
      <trkpt lat="45.71128" lon="4.59239">
        <ele>689.4</ele>
        <time>2025-12-15T13:48:03Z</time>
      </trkpt>
      <trkpt lat="45.71121" lon="4.59244">
        <ele>688.6</ele>
        <time>2025-12-15T13:48:04Z</time>
      </trkpt>
      <trkpt lat="45.71114" lon="4.59244">
        <ele>687.8</ele>
        <time>2025-12-15T13:48:05Z</time>
      </trkpt>
      <trkpt lat="45.71107" lon="4.59241">
        <ele>687</ele>
        <time>2025-12-15T13:48:06Z</time>
      </trkpt>
      <trkpt lat="45.711" lon="4.59236">
        <ele>686.2</ele>
        <time>2025-12-15T13:48:07Z</time>
      </trkpt>
      <trkpt lat="45.71094" lon="4.59229">
        <ele>685.2</ele>
        <time>2025-12-15T13:48:08Z</time>
      </trkpt>
      <trkpt lat="45.71088" lon="4.5922">
        <ele>684.2</ele>
        <time>2025-12-15T13:48:09Z</time>
      </trkpt>
      <trkpt lat="45.71082" lon="4.59209">
        <ele>682.8</ele>
        <time>2025-12-15T13:48:10Z</time>
      </trkpt>
      <trkpt lat="45.71075" lon="4.59198">
        <ele>681.2</ele>
        <time>2025-12-15T13:48:11Z</time>
      </trkpt>
      <trkpt lat="45.71067" lon="4.59188">
        <ele>679.4</ele>
        <time>2025-12-15T13:48:12Z</time>
      </trkpt>
      <trkpt lat="45.71057" lon="4.59179">
        <ele>677.4</ele>
        <time>2025-12-15T13:48:13Z</time>
      </trkpt>
      <trkpt lat="45.71047" lon="4.59171">
        <ele>675.4</ele>
        <time>2025-12-15T13:48:14Z</time>
      </trkpt>
      <trkpt lat="45.71038" lon="4.59163">
        <ele>673.6</ele>
        <time>2025-12-15T13:48:15Z</time>
      </trkpt>
      <trkpt lat="45.71028" lon="4.59156">
        <ele>672</ele>
        <time>2025-12-15T13:48:16Z</time>
      </trkpt>
      <trkpt lat="45.71019" lon="4.5915">
        <ele>670.6</ele>
        <time>2025-12-15T13:48:17Z</time>
      </trkpt>
      <trkpt lat="45.71011" lon="4.59144">
        <ele>669.6</ele>
        <time>2025-12-15T13:48:18Z</time>
      </trkpt>
      <trkpt lat="45.71004" lon="4.59138">
        <ele>669.2</ele>
        <time>2025-12-15T13:48:19Z</time>
      </trkpt>
      <trkpt lat="45.70998" lon="4.59132">
        <ele>669.2</ele>
        <time>2025-12-15T13:48:20Z</time>
      </trkpt>
      <trkpt lat="45.70993" lon="4.59125">
        <ele>669.6</ele>
        <time>2025-12-15T13:48:21Z</time>
      </trkpt>
      <trkpt lat="45.70988" lon="4.5912">
        <ele>670.4</ele>
        <time>2025-12-15T13:48:22Z</time>
      </trkpt>
      <trkpt lat="45.70984" lon="4.59114">
        <ele>671.2</ele>
        <time>2025-12-15T13:48:23Z</time>
      </trkpt>
      <trkpt lat="45.7098" lon="4.59109">
        <ele>672.2</ele>
        <time>2025-12-15T13:48:24Z</time>
      </trkpt>
      <trkpt lat="45.70975" lon="4.59105">
        <ele>673</ele>
        <time>2025-12-15T13:48:25Z</time>
      </trkpt>
      <trkpt lat="45.70971" lon="4.591">
        <ele>673.6</ele>
        <time>2025-12-15T13:48:26Z</time>
      </trkpt>
      <trkpt lat="45.70967" lon="4.59095">
        <ele>674.2</ele>
        <time>2025-12-15T13:48:27Z</time>
      </trkpt>
      <trkpt lat="45.70963" lon="4.59091">
        <ele>674.8</ele>
        <time>2025-12-15T13:48:28Z</time>
      </trkpt>
      <trkpt lat="45.70959" lon="4.59086">
        <ele>675.2</ele>
        <time>2025-12-15T13:48:29Z</time>
      </trkpt>
      <trkpt lat="45.70955" lon="4.59081">
        <ele>675.6</ele>
        <time>2025-12-15T13:48:30Z</time>
      </trkpt>
      <trkpt lat="45.70952" lon="4.59077">
        <ele>676</ele>
        <time>2025-12-15T13:48:31Z</time>
      </trkpt>
      <trkpt lat="45.70948" lon="4.59072">
        <ele>676.4</ele>
        <time>2025-12-15T13:48:32Z</time>
      </trkpt>
      <trkpt lat="45.70945" lon="4.59068">
        <ele>676.8</ele>
        <time>2025-12-15T13:48:33Z</time>
      </trkpt>
      <trkpt lat="45.70941" lon="4.59064">
        <ele>677.2</ele>
        <time>2025-12-15T13:48:34Z</time>
      </trkpt>
      <trkpt lat="45.70938" lon="4.59059">
        <ele>677.6</ele>
        <time>2025-12-15T13:48:35Z</time>
      </trkpt>
      <trkpt lat="45.70935" lon="4.59055">
        <ele>678</ele>
        <time>2025-12-15T13:48:36Z</time>
      </trkpt>
      <trkpt lat="45.70932" lon="4.59051">
        <ele>678.6</ele>
        <time>2025-12-15T13:48:37Z</time>
      </trkpt>
      <trkpt lat="45.70929" lon="4.59047">
        <ele>679</ele>
        <time>2025-12-15T13:48:38Z</time>
      </trkpt>
      <trkpt lat="45.70926" lon="4.59043">
        <ele>679.4</ele>
        <time>2025-12-15T13:48:39Z</time>
      </trkpt>
      <trkpt lat="45.70923" lon="4.59039">
        <ele>680</ele>
        <time>2025-12-15T13:48:40Z</time>
      </trkpt>
      <trkpt lat="45.7092" lon="4.59034">
        <ele>680.4</ele>
        <time>2025-12-15T13:48:41Z</time>
      </trkpt>
      <trkpt lat="45.70917" lon="4.5903">
        <ele>680.8</ele>
        <time>2025-12-15T13:48:42Z</time>
      </trkpt>
      <trkpt lat="45.70914" lon="4.59026">
        <ele>681.2</ele>
        <time>2025-12-15T13:48:43Z</time>
      </trkpt>
      <trkpt lat="45.70911" lon="4.59022">
        <ele>681.6</ele>
        <time>2025-12-15T13:48:44Z</time>
      </trkpt>
      <trkpt lat="45.70908" lon="4.59018">
        <ele>682</ele>
        <time>2025-12-15T13:48:45Z</time>
      </trkpt>
      <trkpt lat="45.70905" lon="4.59014">
        <ele>682.4</ele>
        <time>2025-12-15T13:48:46Z</time>
      </trkpt>
      <trkpt lat="45.70901" lon="4.5901">
        <ele>682.6</ele>
        <time>2025-12-15T13:48:47Z</time>
      </trkpt>
      <trkpt lat="45.70898" lon="4.59007">
        <ele>683</ele>
        <time>2025-12-15T13:48:48Z</time>
      </trkpt>
      <trkpt lat="45.70895" lon="4.59004">
        <ele>683.2</ele>
        <time>2025-12-15T13:48:49Z</time>
      </trkpt>
      <trkpt lat="45.70892" lon="4.59">
        <ele>683.6</ele>
        <time>2025-12-15T13:48:50Z</time>
      </trkpt>
      <trkpt lat="45.70889" lon="4.58997">
        <ele>683.8</ele>
        <time>2025-12-15T13:48:51Z</time>
      </trkpt>
      <trkpt lat="45.70886" lon="4.58994">
        <ele>684.2</ele>
        <time>2025-12-15T13:48:52Z</time>
      </trkpt>
      <trkpt lat="45.70883" lon="4.58991">
        <ele>684.4</ele>
        <time>2025-12-15T13:48:53Z</time>
      </trkpt>
      <trkpt lat="45.70881" lon="4.58988">
        <ele>684.8</ele>
        <time>2025-12-15T13:48:54Z</time>
      </trkpt>
      <trkpt lat="45.70878" lon="4.58986">
        <ele>685.2</ele>
        <time>2025-12-15T13:48:55Z</time>
      </trkpt>
      <trkpt lat="45.70875" lon="4.58984">
        <ele>685.4</ele>
        <time>2025-12-15T13:48:56Z</time>
      </trkpt>
      <trkpt lat="45.70872" lon="4.58981">
        <ele>685.6</ele>
        <time>2025-12-15T13:48:57Z</time>
      </trkpt>
      <trkpt lat="45.7087" lon="4.58979">
        <ele>686</ele>
        <time>2025-12-15T13:48:58Z</time>
      </trkpt>
      <trkpt lat="45.70867" lon="4.58976">
        <ele>686.2</ele>
        <time>2025-12-15T13:48:59Z</time>
      </trkpt>
      <trkpt lat="45.70865" lon="4.58974">
        <ele>686.6</ele>
        <time>2025-12-15T13:49:00Z</time>
      </trkpt>
      <trkpt lat="45.70862" lon="4.58971">
        <ele>686.8</ele>
        <time>2025-12-15T13:49:01Z</time>
      </trkpt>
      <trkpt lat="45.7086" lon="4.58969">
        <ele>687</ele>
        <time>2025-12-15T13:49:02Z</time>
      </trkpt>
      <trkpt lat="45.70857" lon="4.58967">
        <ele>687.4</ele>
        <time>2025-12-15T13:49:03Z</time>
      </trkpt>
      <trkpt lat="45.70855" lon="4.58964">
        <ele>687.6</ele>
        <time>2025-12-15T13:49:04Z</time>
      </trkpt>
      <trkpt lat="45.70852" lon="4.58962">
        <ele>687.8</ele>
        <time>2025-12-15T13:49:05Z</time>
      </trkpt>
      <trkpt lat="45.70849" lon="4.58959">
        <ele>688.2</ele>
        <time>2025-12-15T13:49:06Z</time>
      </trkpt>
      <trkpt lat="45.70847" lon="4.58957">
        <ele>688.6</ele>
        <time>2025-12-15T13:49:07Z</time>
      </trkpt>
      <trkpt lat="45.70844" lon="4.58955">
        <ele>688.8</ele>
        <time>2025-12-15T13:49:08Z</time>
      </trkpt>
      <trkpt lat="45.70842" lon="4.58952">
        <ele>689.2</ele>
        <time>2025-12-15T13:49:09Z</time>
      </trkpt>
      <trkpt lat="45.70839" lon="4.5895">
        <ele>689.4</ele>
        <time>2025-12-15T13:49:10Z</time>
      </trkpt>
      <trkpt lat="45.70836" lon="4.58947">
        <ele>689.6</ele>
        <time>2025-12-15T13:49:11Z</time>
      </trkpt>
      <trkpt lat="45.70834" lon="4.58945">
        <ele>689.8</ele>
        <time>2025-12-15T13:49:12Z</time>
      </trkpt>
      <trkpt lat="45.70831" lon="4.58942">
        <ele>690</ele>
        <time>2025-12-15T13:49:13Z</time>
      </trkpt>
      <trkpt lat="45.70829" lon="4.5894">
        <ele>690.4</ele>
        <time>2025-12-15T13:49:14Z</time>
      </trkpt>
      <trkpt lat="45.70826" lon="4.58937">
        <ele>690.4</ele>
        <time>2025-12-15T13:49:15Z</time>
      </trkpt>
      <trkpt lat="45.70824" lon="4.58934">
        <ele>690.6</ele>
        <time>2025-12-15T13:49:16Z</time>
      </trkpt>
      <trkpt lat="45.70821" lon="4.58931">
        <ele>690.8</ele>
        <time>2025-12-15T13:49:17Z</time>
      </trkpt>
      <trkpt lat="45.70819" lon="4.58928">
        <ele>691</ele>
        <time>2025-12-15T13:49:18Z</time>
      </trkpt>
      <trkpt lat="45.70816" lon="4.58925">
        <ele>691.2</ele>
        <time>2025-12-15T13:49:19Z</time>
      </trkpt>
      <trkpt lat="45.70814" lon="4.58922">
        <ele>691.4</ele>
        <time>2025-12-15T13:49:20Z</time>
      </trkpt>
      <trkpt lat="45.70812" lon="4.58918">
        <ele>691.6</ele>
        <time>2025-12-15T13:49:21Z</time>
      </trkpt>
      <trkpt lat="45.7081" lon="4.58914">
        <ele>691.8</ele>
        <time>2025-12-15T13:49:22Z</time>
      </trkpt>
      <trkpt lat="45.70808" lon="4.58911">
        <ele>692</ele>
        <time>2025-12-15T13:49:23Z</time>
      </trkpt>
      <trkpt lat="45.70807" lon="4.58906">
        <ele>692.2</ele>
        <time>2025-12-15T13:49:24Z</time>
      </trkpt>
      <trkpt lat="45.70806" lon="4.58902">
        <ele>692.4</ele>
        <time>2025-12-15T13:49:25Z</time>
      </trkpt>
      <trkpt lat="45.70805" lon="4.58897">
        <ele>692.4</ele>
        <time>2025-12-15T13:49:26Z</time>
      </trkpt>
      <trkpt lat="45.70804" lon="4.58892">
        <ele>692.6</ele>
        <time>2025-12-15T13:49:27Z</time>
      </trkpt>
      <trkpt lat="45.70804" lon="4.58887">
        <ele>692.6</ele>
        <time>2025-12-15T13:49:28Z</time>
      </trkpt>
      <trkpt lat="45.70804" lon="4.58882">
        <ele>692.8</ele>
        <time>2025-12-15T13:49:29Z</time>
      </trkpt>
      <trkpt lat="45.70804" lon="4.58877">
        <ele>692.6</ele>
        <time>2025-12-15T13:49:30Z</time>
      </trkpt>
      <trkpt lat="45.70804" lon="4.58873">
        <ele>692.6</ele>
        <time>2025-12-15T13:49:31Z</time>
      </trkpt>
      <trkpt lat="45.70805" lon="4.58868">
        <ele>692.6</ele>
        <time>2025-12-15T13:49:32Z</time>
      </trkpt>
      <trkpt lat="45.70805" lon="4.58864">
        <ele>692.8</ele>
        <time>2025-12-15T13:49:33Z</time>
      </trkpt>
      <trkpt lat="45.70806" lon="4.58859">
        <ele>692.8</ele>
        <time>2025-12-15T13:49:34Z</time>
      </trkpt>
      <trkpt lat="45.70807" lon="4.58854">
        <ele>693</ele>
        <time>2025-12-15T13:49:35Z</time>
      </trkpt>
      <trkpt lat="45.70807" lon="4.5885">
        <ele>693</ele>
        <time>2025-12-15T13:49:36Z</time>
      </trkpt>
      <trkpt lat="45.70808" lon="4.58845">
        <ele>693.2</ele>
        <time>2025-12-15T13:49:37Z</time>
      </trkpt>
      <trkpt lat="45.70808" lon="4.58841">
        <ele>693.4</ele>
        <time>2025-12-15T13:49:38Z</time>
      </trkpt>
      <trkpt lat="45.70809" lon="4.58836">
        <ele>693.6</ele>
        <time>2025-12-15T13:49:39Z</time>
      </trkpt>
      <trkpt lat="45.7081" lon="4.58831">
        <ele>693.8</ele>
        <time>2025-12-15T13:49:40Z</time>
      </trkpt>
      <trkpt lat="45.7081" lon="4.58827">
        <ele>693.8</ele>
        <time>2025-12-15T13:49:41Z</time>
      </trkpt>
      <trkpt lat="45.7081" lon="4.58822">
        <ele>694</ele>
        <time>2025-12-15T13:49:42Z</time>
      </trkpt>
      <trkpt lat="45.70811" lon="4.58817">
        <ele>694.4</ele>
        <time>2025-12-15T13:49:43Z</time>
      </trkpt>
      <trkpt lat="45.70811" lon="4.58813">
        <ele>694.6</ele>
        <time>2025-12-15T13:49:44Z</time>
      </trkpt>
      <trkpt lat="45.70812" lon="4.58808">
        <ele>694.8</ele>
        <time>2025-12-15T13:49:45Z</time>
      </trkpt>
      <trkpt lat="45.70812" lon="4.58803">
        <ele>695</ele>
        <time>2025-12-15T13:49:46Z</time>
      </trkpt>
      <trkpt lat="45.70812" lon="4.58799">
        <ele>695.2</ele>
        <time>2025-12-15T13:49:47Z</time>
      </trkpt>
      <trkpt lat="45.70813" lon="4.58794">
        <ele>695.6</ele>
        <time>2025-12-15T13:49:48Z</time>
      </trkpt>
      <trkpt lat="45.70813" lon="4.5879">
        <ele>695.6</ele>
        <time>2025-12-15T13:49:49Z</time>
      </trkpt>
      <trkpt lat="45.70814" lon="4.58785">
        <ele>695.8</ele>
        <time>2025-12-15T13:49:50Z</time>
      </trkpt>
      <trkpt lat="45.70814" lon="4.58781">
        <ele>696</ele>
        <time>2025-12-15T13:49:51Z</time>
      </trkpt>
      <trkpt lat="45.70814" lon="4.58776">
        <ele>696.2</ele>
        <time>2025-12-15T13:49:52Z</time>
      </trkpt>
      <trkpt lat="45.70814" lon="4.58772">
        <ele>696.4</ele>
        <time>2025-12-15T13:49:53Z</time>
      </trkpt>
      <trkpt lat="45.70814" lon="4.58767">
        <ele>696.6</ele>
        <time>2025-12-15T13:49:54Z</time>
      </trkpt>
      <trkpt lat="45.70813" lon="4.58763">
        <ele>696.8</ele>
        <time>2025-12-15T13:49:55Z</time>
      </trkpt>
      <trkpt lat="45.70811" lon="4.5876">
        <ele>697</ele>
        <time>2025-12-15T13:49:56Z</time>
      </trkpt>
      <trkpt lat="45.70809" lon="4.58757">
        <ele>697.2</ele>
        <time>2025-12-15T13:49:57Z</time>
      </trkpt>
      <trkpt lat="45.70806" lon="4.58755">
        <ele>697.6</ele>
        <time>2025-12-15T13:49:58Z</time>
      </trkpt>
      <trkpt lat="45.70803" lon="4.58753">
        <ele>697.8</ele>
        <time>2025-12-15T13:49:59Z</time>
      </trkpt>
      <trkpt lat="45.708" lon="4.58752">
        <ele>698.2</ele>
        <time>2025-12-15T13:50:00Z</time>
      </trkpt>
      <trkpt lat="45.70797" lon="4.58753">
        <ele>698.6</ele>
        <time>2025-12-15T13:50:01Z</time>
      </trkpt>
      <trkpt lat="45.70793" lon="4.58754">
        <ele>698.8</ele>
        <time>2025-12-15T13:50:02Z</time>
      </trkpt>
      <trkpt lat="45.70791" lon="4.58754">
        <ele>699.2</ele>
        <time>2025-12-15T13:50:03Z</time>
      </trkpt>
      <trkpt lat="45.70788" lon="4.58755">
        <ele>699.4</ele>
        <time>2025-12-15T13:50:04Z</time>
      </trkpt>
      <trkpt lat="45.70785" lon="4.58756">
        <ele>699.6</ele>
        <time>2025-12-15T13:50:05Z</time>
      </trkpt>
      <trkpt lat="45.70782" lon="4.58758">
        <ele>700</ele>
        <time>2025-12-15T13:50:06Z</time>
      </trkpt>
      <trkpt lat="45.70779" lon="4.5876">
        <ele>700.2</ele>
        <time>2025-12-15T13:50:07Z</time>
      </trkpt>
      <trkpt lat="45.70777" lon="4.58763">
        <ele>700.2</ele>
        <time>2025-12-15T13:50:08Z</time>
      </trkpt>
      <trkpt lat="45.70775" lon="4.58767">
        <ele>700.6</ele>
        <time>2025-12-15T13:50:09Z</time>
      </trkpt>
      <trkpt lat="45.70773" lon="4.58771">
        <ele>700.8</ele>
        <time>2025-12-15T13:50:10Z</time>
      </trkpt>
      <trkpt lat="45.70771" lon="4.58776">
        <ele>701</ele>
        <time>2025-12-15T13:50:11Z</time>
      </trkpt>
      <trkpt lat="45.7077" lon="4.5878">
        <ele>701.4</ele>
        <time>2025-12-15T13:50:12Z</time>
      </trkpt>
      <trkpt lat="45.70768" lon="4.58784">
        <ele>701.8</ele>
        <time>2025-12-15T13:50:13Z</time>
      </trkpt>
      <trkpt lat="45.70766" lon="4.58788">
        <ele>702</ele>
        <time>2025-12-15T13:50:14Z</time>
      </trkpt>
      <trkpt lat="45.70764" lon="4.58792">
        <ele>702.4</ele>
        <time>2025-12-15T13:50:15Z</time>
      </trkpt>
      <trkpt lat="45.70763" lon="4.58796">
        <ele>702.8</ele>
        <time>2025-12-15T13:50:16Z</time>
      </trkpt>
      <trkpt lat="45.70761" lon="4.58801">
        <ele>703</ele>
        <time>2025-12-15T13:50:17Z</time>
      </trkpt>
      <trkpt lat="45.70759" lon="4.58805">
        <ele>703.4</ele>
        <time>2025-12-15T13:50:18Z</time>
      </trkpt>
      <trkpt lat="45.70757" lon="4.58809">
        <ele>703.6</ele>
        <time>2025-12-15T13:50:19Z</time>
      </trkpt>
      <trkpt lat="45.70756" lon="4.58813">
        <ele>704</ele>
        <time>2025-12-15T13:50:20Z</time>
      </trkpt>
      <trkpt lat="45.70754" lon="4.58818">
        <ele>704.2</ele>
        <time>2025-12-15T13:50:21Z</time>
      </trkpt>
      <trkpt lat="45.70753" lon="4.58822">
        <ele>704.6</ele>
        <time>2025-12-15T13:50:22Z</time>
      </trkpt>
      <trkpt lat="45.70751" lon="4.58826">
        <ele>704.8</ele>
        <time>2025-12-15T13:50:23Z</time>
      </trkpt>
      <trkpt lat="45.7075" lon="4.5883">
        <ele>705.2</ele>
        <time>2025-12-15T13:50:24Z</time>
      </trkpt>
      <trkpt lat="45.70748" lon="4.58834">
        <ele>705.4</ele>
        <time>2025-12-15T13:50:25Z</time>
      </trkpt>
      <trkpt lat="45.70747" lon="4.58838">
        <ele>705.6</ele>
        <time>2025-12-15T13:50:26Z</time>
      </trkpt>
      <trkpt lat="45.70746" lon="4.58842">
        <ele>706</ele>
        <time>2025-12-15T13:50:27Z</time>
      </trkpt>
      <trkpt lat="45.70744" lon="4.58846">
        <ele>706.2</ele>
        <time>2025-12-15T13:50:28Z</time>
      </trkpt>
      <trkpt lat="45.70742" lon="4.5885">
        <ele>706.4</ele>
        <time>2025-12-15T13:50:29Z</time>
      </trkpt>
      <trkpt lat="45.70741" lon="4.58853">
        <ele>706.8</ele>
        <time>2025-12-15T13:50:30Z</time>
      </trkpt>
      <trkpt lat="45.7074" lon="4.58857">
        <ele>707</ele>
        <time>2025-12-15T13:50:31Z</time>
      </trkpt>
      <trkpt lat="45.70739" lon="4.58861">
        <ele>707.4</ele>
        <time>2025-12-15T13:50:32Z</time>
      </trkpt>
      <trkpt lat="45.70738" lon="4.58865">
        <ele>707.6</ele>
        <time>2025-12-15T13:50:33Z</time>
      </trkpt>
      <trkpt lat="45.70738" lon="4.5887">
        <ele>707.8</ele>
        <time>2025-12-15T13:50:34Z</time>
      </trkpt>
      <trkpt lat="45.70737" lon="4.58874">
        <ele>708.2</ele>
        <time>2025-12-15T13:50:35Z</time>
      </trkpt>
      <trkpt lat="45.70738" lon="4.58878">
        <ele>708.4</ele>
        <time>2025-12-15T13:50:36Z</time>
      </trkpt>
      <trkpt lat="45.70738" lon="4.58882">
        <ele>708.6</ele>
        <time>2025-12-15T13:50:37Z</time>
      </trkpt>
      <trkpt lat="45.70738" lon="4.58887">
        <ele>709</ele>
        <time>2025-12-15T13:50:38Z</time>
      </trkpt>
      <trkpt lat="45.70737" lon="4.58892">
        <ele>709.2</ele>
        <time>2025-12-15T13:50:39Z</time>
      </trkpt>
      <trkpt lat="45.70737" lon="4.58896">
        <ele>709.6</ele>
        <time>2025-12-15T13:50:40Z</time>
      </trkpt>
      <trkpt lat="45.70737" lon="4.58899">
        <ele>709.8</ele>
        <time>2025-12-15T13:50:41Z</time>
      </trkpt>
      <trkpt lat="45.70736" lon="4.58903">
        <ele>710.2</ele>
        <time>2025-12-15T13:50:42Z</time>
      </trkpt>
      <trkpt lat="45.70735" lon="4.58907">
        <ele>710.4</ele>
        <time>2025-12-15T13:50:43Z</time>
      </trkpt>
      <trkpt lat="45.70734" lon="4.58911">
        <ele>710.8</ele>
        <time>2025-12-15T13:50:44Z</time>
      </trkpt>
      <trkpt lat="45.70731" lon="4.58913">
        <ele>711</ele>
        <time>2025-12-15T13:50:45Z</time>
      </trkpt>
      <trkpt lat="45.70729" lon="4.58914">
        <ele>711.2</ele>
        <time>2025-12-15T13:50:46Z</time>
      </trkpt>
      <trkpt lat="45.70726" lon="4.58913">
        <ele>711.2</ele>
        <time>2025-12-15T13:50:47Z</time>
      </trkpt>
      <trkpt lat="45.70723" lon="4.5891">
        <ele>711.4</ele>
        <time>2025-12-15T13:50:48Z</time>
      </trkpt>
      <trkpt lat="45.7072" lon="4.58907">
        <ele>711.6</ele>
        <time>2025-12-15T13:50:49Z</time>
      </trkpt>
      <trkpt lat="45.70718" lon="4.58902">
        <ele>711.6</ele>
        <time>2025-12-15T13:50:50Z</time>
      </trkpt>
      <trkpt lat="45.70718" lon="4.58897">
        <ele>711.8</ele>
        <time>2025-12-15T13:50:51Z</time>
      </trkpt>
      <trkpt lat="45.70718" lon="4.58892">
        <ele>712</ele>
        <time>2025-12-15T13:50:52Z</time>
      </trkpt>
      <trkpt lat="45.70718" lon="4.58887">
        <ele>712.2</ele>
        <time>2025-12-15T13:50:53Z</time>
      </trkpt>
      <trkpt lat="45.70718" lon="4.58882">
        <ele>712.2</ele>
        <time>2025-12-15T13:50:54Z</time>
      </trkpt>
      <trkpt lat="45.70718" lon="4.58876">
        <ele>712.4</ele>
        <time>2025-12-15T13:50:55Z</time>
      </trkpt>
      <trkpt lat="45.70719" lon="4.58871">
        <ele>712.6</ele>
        <time>2025-12-15T13:50:56Z</time>
      </trkpt>
      <trkpt lat="45.70719" lon="4.58865">
        <ele>712.6</ele>
        <time>2025-12-15T13:50:57Z</time>
      </trkpt>
      <trkpt lat="45.70719" lon="4.5886">
        <ele>712.8</ele>
        <time>2025-12-15T13:50:58Z</time>
      </trkpt>
      <trkpt lat="45.70719" lon="4.58854">
        <ele>713</ele>
        <time>2025-12-15T13:50:59Z</time>
      </trkpt>
      <trkpt lat="45.70719" lon="4.58849">
        <ele>713.2</ele>
        <time>2025-12-15T13:51:00Z</time>
      </trkpt>
      <trkpt lat="45.70719" lon="4.58843">
        <ele>713.4</ele>
        <time>2025-12-15T13:51:01Z</time>
      </trkpt>
      <trkpt lat="45.70719" lon="4.58838">
        <ele>713.6</ele>
        <time>2025-12-15T13:51:02Z</time>
      </trkpt>
      <trkpt lat="45.70719" lon="4.58833">
        <ele>713.8</ele>
        <time>2025-12-15T13:51:03Z</time>
      </trkpt>
      <trkpt lat="45.70719" lon="4.58827">
        <ele>714</ele>
        <time>2025-12-15T13:51:04Z</time>
      </trkpt>
      <trkpt lat="45.70719" lon="4.58822">
        <ele>714.4</ele>
        <time>2025-12-15T13:51:05Z</time>
      </trkpt>
      <trkpt lat="45.70719" lon="4.58817">
        <ele>714.6</ele>
        <time>2025-12-15T13:51:06Z</time>
      </trkpt>
      <trkpt lat="45.70719" lon="4.58812">
        <ele>714.8</ele>
        <time>2025-12-15T13:51:07Z</time>
      </trkpt>
      <trkpt lat="45.70719" lon="4.58807">
        <ele>715.2</ele>
        <time>2025-12-15T13:51:08Z</time>
      </trkpt>
      <trkpt lat="45.70718" lon="4.58801">
        <ele>715.4</ele>
        <time>2025-12-15T13:51:09Z</time>
      </trkpt>
      <trkpt lat="45.70718" lon="4.58796">
        <ele>715.6</ele>
        <time>2025-12-15T13:51:10Z</time>
      </trkpt>
      <trkpt lat="45.70718" lon="4.58791">
        <ele>715.6</ele>
        <time>2025-12-15T13:51:11Z</time>
      </trkpt>
      <trkpt lat="45.70717" lon="4.58785">
        <ele>715.8</ele>
        <time>2025-12-15T13:51:12Z</time>
      </trkpt>
      <trkpt lat="45.70717" lon="4.5878">
        <ele>716</ele>
        <time>2025-12-15T13:51:13Z</time>
      </trkpt>
      <trkpt lat="45.70716" lon="4.58775">
        <ele>716</ele>
        <time>2025-12-15T13:51:14Z</time>
      </trkpt>
      <trkpt lat="45.70716" lon="4.58769">
        <ele>716.2</ele>
        <time>2025-12-15T13:51:15Z</time>
      </trkpt>
      <trkpt lat="45.70715" lon="4.58764">
        <ele>716.4</ele>
        <time>2025-12-15T13:51:16Z</time>
      </trkpt>
      <trkpt lat="45.70714" lon="4.58758">
        <ele>716.6</ele>
        <time>2025-12-15T13:51:17Z</time>
      </trkpt>
      <trkpt lat="45.70714" lon="4.58753">
        <ele>716.8</ele>
        <time>2025-12-15T13:51:18Z</time>
      </trkpt>
      <trkpt lat="45.70713" lon="4.58748">
        <ele>717.2</ele>
        <time>2025-12-15T13:51:19Z</time>
      </trkpt>
      <trkpt lat="45.70713" lon="4.58743">
        <ele>717.4</ele>
        <time>2025-12-15T13:51:20Z</time>
      </trkpt>
      <trkpt lat="45.70712" lon="4.58738">
        <ele>717.8</ele>
        <time>2025-12-15T13:51:21Z</time>
      </trkpt>
      <trkpt lat="45.70711" lon="4.58733">
        <ele>718</ele>
        <time>2025-12-15T13:51:22Z</time>
      </trkpt>
      <trkpt lat="45.7071" lon="4.58728">
        <ele>718.2</ele>
        <time>2025-12-15T13:51:23Z</time>
      </trkpt>
      <trkpt lat="45.70709" lon="4.58723">
        <ele>718.4</ele>
        <time>2025-12-15T13:51:24Z</time>
      </trkpt>
      <trkpt lat="45.70709" lon="4.58717">
        <ele>718.6</ele>
        <time>2025-12-15T13:51:25Z</time>
      </trkpt>
      <trkpt lat="45.70707" lon="4.58712">
        <ele>718.8</ele>
        <time>2025-12-15T13:51:26Z</time>
      </trkpt>
      <trkpt lat="45.70706" lon="4.58707">
        <ele>719</ele>
        <time>2025-12-15T13:51:27Z</time>
      </trkpt>
      <trkpt lat="45.70705" lon="4.58702">
        <ele>719.2</ele>
        <time>2025-12-15T13:51:28Z</time>
      </trkpt>
      <trkpt lat="45.70704" lon="4.58697">
        <ele>719.4</ele>
        <time>2025-12-15T13:51:29Z</time>
      </trkpt>
      <trkpt lat="45.70702" lon="4.58692">
        <ele>719.6</ele>
        <time>2025-12-15T13:51:30Z</time>
      </trkpt>
      <trkpt lat="45.70701" lon="4.58687">
        <ele>719.8</ele>
        <time>2025-12-15T13:51:31Z</time>
      </trkpt>
      <trkpt lat="45.70699" lon="4.58682">
        <ele>720</ele>
        <time>2025-12-15T13:51:32Z</time>
      </trkpt>
      <trkpt lat="45.70698" lon="4.58677">
        <ele>720.4</ele>
        <time>2025-12-15T13:51:33Z</time>
      </trkpt>
      <trkpt lat="45.70696" lon="4.58673">
        <ele>720.6</ele>
        <time>2025-12-15T13:51:34Z</time>
      </trkpt>
      <trkpt lat="45.70695" lon="4.58668">
        <ele>720.8</ele>
        <time>2025-12-15T13:51:35Z</time>
      </trkpt>
      <trkpt lat="45.70693" lon="4.58664">
        <ele>721</ele>
        <time>2025-12-15T13:51:36Z</time>
      </trkpt>
      <trkpt lat="45.70691" lon="4.5866">
        <ele>721.2</ele>
        <time>2025-12-15T13:51:37Z</time>
      </trkpt>
      <trkpt lat="45.70688" lon="4.58656">
        <ele>721.4</ele>
        <time>2025-12-15T13:51:38Z</time>
      </trkpt>
      <trkpt lat="45.70685" lon="4.58653">
        <ele>721.6</ele>
        <time>2025-12-15T13:51:39Z</time>
      </trkpt>
      <trkpt lat="45.70682" lon="4.58652">
        <ele>722</ele>
        <time>2025-12-15T13:51:40Z</time>
      </trkpt>
      <trkpt lat="45.70679" lon="4.58651">
        <ele>722.4</ele>
        <time>2025-12-15T13:51:41Z</time>
      </trkpt>
      <trkpt lat="45.70676" lon="4.58651">
        <ele>722.8</ele>
        <time>2025-12-15T13:51:42Z</time>
      </trkpt>
      <trkpt lat="45.70673" lon="4.58652">
        <ele>723.2</ele>
        <time>2025-12-15T13:51:43Z</time>
      </trkpt>
      <trkpt lat="45.7067" lon="4.58653">
        <ele>723.6</ele>
        <time>2025-12-15T13:51:44Z</time>
      </trkpt>
      <trkpt lat="45.70667" lon="4.58655">
        <ele>724</ele>
        <time>2025-12-15T13:51:45Z</time>
      </trkpt>
      <trkpt lat="45.70664" lon="4.58657">
        <ele>724.6</ele>
        <time>2025-12-15T13:51:46Z</time>
      </trkpt>
      <trkpt lat="45.70662" lon="4.58659">
        <ele>725.2</ele>
        <time>2025-12-15T13:51:47Z</time>
      </trkpt>
      <trkpt lat="45.7066" lon="4.58662">
        <ele>725.6</ele>
        <time>2025-12-15T13:51:48Z</time>
      </trkpt>
      <trkpt lat="45.70658" lon="4.58664">
        <ele>726</ele>
        <time>2025-12-15T13:51:49Z</time>
      </trkpt>
      <trkpt lat="45.70657" lon="4.58666">
        <ele>726.4</ele>
        <time>2025-12-15T13:51:50Z</time>
      </trkpt>
      <trkpt lat="45.70656" lon="4.58668">
        <ele>726.6</ele>
        <time>2025-12-15T13:51:51Z</time>
      </trkpt>
      <trkpt lat="45.70655" lon="4.5867">
        <ele>726.6</ele>
        <time>2025-12-15T13:51:52Z</time>
      </trkpt>
      <trkpt lat="45.70654" lon="4.58671">
        <ele>726.6</ele>
        <time>2025-12-15T13:51:53Z</time>
      </trkpt>
      <trkpt lat="45.70653" lon="4.58673">
        <ele>726.8</ele>
        <time>2025-12-15T13:51:54Z</time>
      </trkpt>
      <trkpt lat="45.70652" lon="4.58674">
        <ele>726.8</ele>
        <time>2025-12-15T13:51:55Z</time>
      </trkpt>
      <trkpt lat="45.70652" lon="4.58676">
        <ele>726.8</ele>
        <time>2025-12-15T13:51:56Z</time>
      </trkpt>
      <trkpt lat="45.70652" lon="4.58677">
        <ele>727</ele>
        <time>2025-12-15T13:51:57Z</time>
      </trkpt>
      <trkpt lat="45.70651" lon="4.58677">
        <ele>727</ele>
        <time>2025-12-15T13:51:58Z</time>
      </trkpt>
      <trkpt lat="45.70651" lon="4.58677">
        <ele>727</ele>
        <time>2025-12-15T13:51:59Z</time>
      </trkpt>
      <trkpt lat="45.70651" lon="4.58677">
        <ele>727</ele>
        <time>2025-12-15T13:52:00Z</time>
      </trkpt>
      <trkpt lat="45.70651" lon="4.58677">
        <ele>727</ele>
        <time>2025-12-15T13:52:01Z</time>
      </trkpt>
      <trkpt lat="45.70651" lon="4.58677">
        <ele>727</ele>
        <time>2025-12-15T13:52:02Z</time>
      </trkpt>
      <trkpt lat="45.70651" lon="4.58677">
        <ele>727</ele>
        <time>2025-12-15T13:52:03Z</time>
      </trkpt>
      <trkpt lat="45.70651" lon="4.58676">
        <ele>727</ele>
        <time>2025-12-15T13:52:04Z</time>
      </trkpt>
      <trkpt lat="45.70651" lon="4.58675">
        <ele>727</ele>
        <time>2025-12-15T13:52:05Z</time>
      </trkpt>
      <trkpt lat="45.70651" lon="4.58675">
        <ele>727</ele>
        <time>2025-12-15T13:52:06Z</time>
      </trkpt>
      <trkpt lat="45.70651" lon="4.58675">
        <ele>727</ele>
        <time>2025-12-15T13:52:07Z</time>
      </trkpt>
      <trkpt lat="45.7065" lon="4.58675">
        <ele>727</ele>
        <time>2025-12-15T13:52:08Z</time>
      </trkpt>
      <trkpt lat="45.7065" lon="4.58675">
        <ele>727</ele>
        <time>2025-12-15T13:52:09Z</time>
      </trkpt>
      <trkpt lat="45.7065" lon="4.58675">
        <ele>727</ele>
        <time>2025-12-15T13:52:10Z</time>
      </trkpt>
      <trkpt lat="45.7065" lon="4.58675">
        <ele>727</ele>
        <time>2025-12-15T13:52:11Z</time>
      </trkpt>
      <trkpt lat="45.7065" lon="4.58675">
        <ele>727</ele>
        <time>2025-12-15T13:52:12Z</time>
      </trkpt>
      <trkpt lat="45.7065" lon="4.58675">
        <ele>726.8</ele>
        <time>2025-12-15T13:52:13Z</time>
      </trkpt>
      <trkpt lat="45.7065" lon="4.58675">
        <ele>726.8</ele>
        <time>2025-12-15T13:52:14Z</time>
      </trkpt>
      <trkpt lat="45.7065" lon="4.58675">
        <ele>726.8</ele>
        <time>2025-12-15T13:52:15Z</time>
      </trkpt>
      <trkpt lat="45.7065" lon="4.58675">
        <ele>726.8</ele>
        <time>2025-12-15T13:52:16Z</time>
      </trkpt>
      <trkpt lat="45.7065" lon="4.58675">
        <ele>726.8</ele>
        <time>2025-12-15T13:52:17Z</time>
      </trkpt>
      <trkpt lat="45.7065" lon="4.58675">
        <ele>726.8</ele>
        <time>2025-12-15T13:52:18Z</time>
      </trkpt>
      <trkpt lat="45.7065" lon="4.58675">
        <ele>726.6</ele>
        <time>2025-12-15T13:52:19Z</time>
      </trkpt>
      <trkpt lat="45.7065" lon="4.58675">
        <ele>726.6</ele>
        <time>2025-12-15T13:52:20Z</time>
      </trkpt>
      <trkpt lat="45.7065" lon="4.58675">
        <ele>726.6</ele>
        <time>2025-12-15T13:52:21Z</time>
      </trkpt>
      <trkpt lat="45.7065" lon="4.58675">
        <ele>726.6</ele>
        <time>2025-12-15T13:52:22Z</time>
      </trkpt>
      <trkpt lat="45.7065" lon="4.58675">
        <ele>726.6</ele>
        <time>2025-12-15T13:52:23Z</time>
      </trkpt>
      <trkpt lat="45.7065" lon="4.58675">
        <ele>726.6</ele>
        <time>2025-12-15T13:52:24Z</time>
      </trkpt>
      <trkpt lat="45.7065" lon="4.58675">
        <ele>726.6</ele>
        <time>2025-12-15T13:52:25Z</time>
      </trkpt>
      <trkpt lat="45.7065" lon="4.58675">
        <ele>726.4</ele>
        <time>2025-12-15T13:52:26Z</time>
      </trkpt>
      <trkpt lat="45.7065" lon="4.58675">
        <ele>726.4</ele>
        <time>2025-12-15T13:52:27Z</time>
      </trkpt>
      <trkpt lat="45.7065" lon="4.58675">
        <ele>726.4</ele>
        <time>2025-12-15T13:52:28Z</time>
      </trkpt>
      <trkpt lat="45.7065" lon="4.58675">
        <ele>726.4</ele>
        <time>2025-12-15T13:52:29Z</time>
      </trkpt>
      <trkpt lat="45.7065" lon="4.58675">
        <ele>726.4</ele>
        <time>2025-12-15T13:52:30Z</time>
      </trkpt>
      <trkpt lat="45.7065" lon="4.58675">
        <ele>726.4</ele>
        <time>2025-12-15T13:52:31Z</time>
      </trkpt>
      <trkpt lat="45.7065" lon="4.58675">
        <ele>726.4</ele>
        <time>2025-12-15T13:52:32Z</time>
      </trkpt>
      <trkpt lat="45.7065" lon="4.58675">
        <ele>726.4</ele>
        <time>2025-12-15T13:52:33Z</time>
      </trkpt>
      <trkpt lat="45.7065" lon="4.58675">
        <ele>726.4</ele>
        <time>2025-12-15T13:52:34Z</time>
      </trkpt>
      <trkpt lat="45.7065" lon="4.58675">
        <ele>726.4</ele>
        <time>2025-12-15T13:52:35Z</time>
      </trkpt>
      <trkpt lat="45.7065" lon="4.58675">
        <ele>726.4</ele>
        <time>2025-12-15T13:52:36Z</time>
      </trkpt>
      <trkpt lat="45.7065" lon="4.58675">
        <ele>726.4</ele>
        <time>2025-12-15T13:52:37Z</time>
      </trkpt>
      <trkpt lat="45.7065" lon="4.58675">
        <ele>726.4</ele>
        <time>2025-12-15T13:52:38Z</time>
      </trkpt>
      <trkpt lat="45.7065" lon="4.58675">
        <ele>726.2</ele>
        <time>2025-12-15T13:52:39Z</time>
      </trkpt>
      <trkpt lat="45.7065" lon="4.58675">
        <ele>726.2</ele>
        <time>2025-12-15T13:52:40Z</time>
      </trkpt>
      <trkpt lat="45.7065" lon="4.58675">
        <ele>726.2</ele>
        <time>2025-12-15T13:52:41Z</time>
      </trkpt>
      <trkpt lat="45.7065" lon="4.58675">
        <ele>726.2</ele>
        <time>2025-12-15T13:52:42Z</time>
      </trkpt>
      <trkpt lat="45.7065" lon="4.58675">
        <ele>726.2</ele>
        <time>2025-12-15T13:52:43Z</time>
      </trkpt>
      <trkpt lat="45.7065" lon="4.58675">
        <ele>726.2</ele>
        <time>2025-12-15T13:52:44Z</time>
      </trkpt>
      <trkpt lat="45.7065" lon="4.58675">
        <ele>726.2</ele>
        <time>2025-12-15T13:52:45Z</time>
      </trkpt>
      <trkpt lat="45.7065" lon="4.58675">
        <ele>726.2</ele>
        <time>2025-12-15T13:52:46Z</time>
      </trkpt>
      <trkpt lat="45.7065" lon="4.58675">
        <ele>726.2</ele>
        <time>2025-12-15T13:52:47Z</time>
      </trkpt>
      <trkpt lat="45.7065" lon="4.58675">
        <ele>726.2</ele>
        <time>2025-12-15T13:52:48Z</time>
      </trkpt>
      <trkpt lat="45.7065" lon="4.58675">
        <ele>726.2</ele>
        <time>2025-12-15T13:52:49Z</time>
      </trkpt>
      <trkpt lat="45.7065" lon="4.58675">
        <ele>726.2</ele>
        <time>2025-12-15T13:52:50Z</time>
      </trkpt>
      <trkpt lat="45.7065" lon="4.58675">
        <ele>726.2</ele>
        <time>2025-12-15T13:52:51Z</time>
      </trkpt>
      <trkpt lat="45.7065" lon="4.58675">
        <ele>726.2</ele>
        <time>2025-12-15T13:52:52Z</time>
      </trkpt>
      <trkpt lat="45.7065" lon="4.58675">
        <ele>726.2</ele>
        <time>2025-12-15T13:52:53Z</time>
      </trkpt>
      <trkpt lat="45.7065" lon="4.58675">
        <ele>726.2</ele>
        <time>2025-12-15T13:52:54Z</time>
      </trkpt>
      <trkpt lat="45.7065" lon="4.58675">
        <ele>726.2</ele>
        <time>2025-12-15T13:52:55Z</time>
      </trkpt>
      <trkpt lat="45.7065" lon="4.58675">
        <ele>726.2</ele>
        <time>2025-12-15T13:52:56Z</time>
      </trkpt>
      <trkpt lat="45.7065" lon="4.58675">
        <ele>726</ele>
        <time>2025-12-15T13:52:57Z</time>
      </trkpt>
      <trkpt lat="45.7065" lon="4.58675">
        <ele>726</ele>
        <time>2025-12-15T13:52:58Z</time>
      </trkpt>
      <trkpt lat="45.7065" lon="4.58675">
        <ele>726</ele>
        <time>2025-12-15T13:52:59Z</time>
      </trkpt>
      <trkpt lat="45.7065" lon="4.58675">
        <ele>726</ele>
        <time>2025-12-15T13:53:00Z</time>
      </trkpt>
      <trkpt lat="45.7065" lon="4.58675">
        <ele>726</ele>
        <time>2025-12-15T13:53:01Z</time>
      </trkpt>
      <trkpt lat="45.7065" lon="4.58675">
        <ele>726</ele>
        <time>2025-12-15T13:53:02Z</time>
      </trkpt>
      <trkpt lat="45.7065" lon="4.58675">
        <ele>726</ele>
        <time>2025-12-15T13:53:03Z</time>
      </trkpt>
      <trkpt lat="45.7065" lon="4.58675">
        <ele>726</ele>
        <time>2025-12-15T13:53:04Z</time>
      </trkpt>
      <trkpt lat="45.7065" lon="4.58675">
        <ele>726</ele>
        <time>2025-12-15T13:53:05Z</time>
      </trkpt>
      <trkpt lat="45.7065" lon="4.58675">
        <ele>726</ele>
        <time>2025-12-15T13:53:06Z</time>
      </trkpt>
      <trkpt lat="45.7065" lon="4.58675">
        <ele>726</ele>
        <time>2025-12-15T13:53:07Z</time>
      </trkpt>
      <trkpt lat="45.7065" lon="4.58675">
        <ele>726</ele>
        <time>2025-12-15T13:53:08Z</time>
      </trkpt>
      <trkpt lat="45.7065" lon="4.58675">
        <ele>726</ele>
        <time>2025-12-15T13:53:09Z</time>
      </trkpt>
      <trkpt lat="45.7065" lon="4.58675">
        <ele>726</ele>
        <time>2025-12-15T13:53:10Z</time>
      </trkpt>
      <trkpt lat="45.7065" lon="4.58675">
        <ele>726</ele>
        <time>2025-12-15T13:53:11Z</time>
      </trkpt>
      <trkpt lat="45.7065" lon="4.58675">
        <ele>726</ele>
        <time>2025-12-15T13:53:12Z</time>
      </trkpt>
      <trkpt lat="45.7065" lon="4.58675">
        <ele>726</ele>
        <time>2025-12-15T13:53:13Z</time>
      </trkpt>
      <trkpt lat="45.7065" lon="4.58675">
        <ele>726</ele>
        <time>2025-12-15T13:53:14Z</time>
      </trkpt>
      <trkpt lat="45.7065" lon="4.58675">
        <ele>726</ele>
        <time>2025-12-15T13:53:15Z</time>
      </trkpt>
      <trkpt lat="45.7065" lon="4.58675">
        <ele>726</ele>
        <time>2025-12-15T13:53:16Z</time>
      </trkpt>
      <trkpt lat="45.7065" lon="4.58675">
        <ele>726</ele>
        <time>2025-12-15T13:53:17Z</time>
      </trkpt>
      <trkpt lat="45.7065" lon="4.58675">
        <ele>725.8</ele>
        <time>2025-12-15T13:53:18Z</time>
      </trkpt>
      <trkpt lat="45.7065" lon="4.58675">
        <ele>725.8</ele>
        <time>2025-12-15T13:53:19Z</time>
      </trkpt>
      <trkpt lat="45.7065" lon="4.58675">
        <ele>725.8</ele>
        <time>2025-12-15T13:53:20Z</time>
      </trkpt>
      <trkpt lat="45.7065" lon="4.58675">
        <ele>725.8</ele>
        <time>2025-12-15T13:53:21Z</time>
      </trkpt>
      <trkpt lat="45.7065" lon="4.58675">
        <ele>725.8</ele>
        <time>2025-12-15T13:53:22Z</time>
      </trkpt>
      <trkpt lat="45.7065" lon="4.58675">
        <ele>725.8</ele>
        <time>2025-12-15T13:53:23Z</time>
      </trkpt>
      <trkpt lat="45.7065" lon="4.58675">
        <ele>725.8</ele>
        <time>2025-12-15T13:53:24Z</time>
      </trkpt>
      <trkpt lat="45.7065" lon="4.58675">
        <ele>725.8</ele>
        <time>2025-12-15T13:53:25Z</time>
      </trkpt>
      <trkpt lat="45.7065" lon="4.58675">
        <ele>725.6</ele>
        <time>2025-12-15T13:53:26Z</time>
      </trkpt>
      <trkpt lat="45.7065" lon="4.58675">
        <ele>725.6</ele>
        <time>2025-12-15T13:53:27Z</time>
      </trkpt>
      <trkpt lat="45.7065" lon="4.58675">
        <ele>725.6</ele>
        <time>2025-12-15T13:53:28Z</time>
      </trkpt>
      <trkpt lat="45.7065" lon="4.58675">
        <ele>725.6</ele>
        <time>2025-12-15T13:53:29Z</time>
      </trkpt>
      <trkpt lat="45.7065" lon="4.58675">
        <ele>725.6</ele>
        <time>2025-12-15T13:53:30Z</time>
      </trkpt>
      <trkpt lat="45.7065" lon="4.58675">
        <ele>725.6</ele>
        <time>2025-12-15T13:53:31Z</time>
      </trkpt>
      <trkpt lat="45.7065" lon="4.58675">
        <ele>725.6</ele>
        <time>2025-12-15T13:53:32Z</time>
      </trkpt>
      <trkpt lat="45.7065" lon="4.58675">
        <ele>725.6</ele>
        <time>2025-12-15T13:53:33Z</time>
      </trkpt>
      <trkpt lat="45.7065" lon="4.58675">
        <ele>725.6</ele>
        <time>2025-12-15T13:53:34Z</time>
      </trkpt>
      <trkpt lat="45.7065" lon="4.58675">
        <ele>725.6</ele>
        <time>2025-12-15T13:53:35Z</time>
      </trkpt>
      <trkpt lat="45.7065" lon="4.58675">
        <ele>725.6</ele>
        <time>2025-12-15T13:53:36Z</time>
      </trkpt>
      <trkpt lat="45.7065" lon="4.58675">
        <ele>725.6</ele>
        <time>2025-12-15T13:53:37Z</time>
      </trkpt>
      <trkpt lat="45.7065" lon="4.58675">
        <ele>725.6</ele>
        <time>2025-12-15T13:53:38Z</time>
      </trkpt>
      <trkpt lat="45.7065" lon="4.58675">
        <ele>725.6</ele>
        <time>2025-12-15T13:53:39Z</time>
      </trkpt>
      <trkpt lat="45.7065" lon="4.58675">
        <ele>725.4</ele>
        <time>2025-12-15T13:53:40Z</time>
      </trkpt>
      <trkpt lat="45.7065" lon="4.58675">
        <ele>725.4</ele>
        <time>2025-12-15T13:53:41Z</time>
      </trkpt>
      <trkpt lat="45.7065" lon="4.58675">
        <ele>725.4</ele>
        <time>2025-12-15T13:53:42Z</time>
      </trkpt>
      <trkpt lat="45.7065" lon="4.58675">
        <ele>725.4</ele>
        <time>2025-12-15T13:53:43Z</time>
      </trkpt>
      <trkpt lat="45.7065" lon="4.58675">
        <ele>725.4</ele>
        <time>2025-12-15T13:53:44Z</time>
      </trkpt>
      <trkpt lat="45.7065" lon="4.58675">
        <ele>725.4</ele>
        <time>2025-12-15T13:53:45Z</time>
      </trkpt>
      <trkpt lat="45.7065" lon="4.58675">
        <ele>725.4</ele>
        <time>2025-12-15T13:53:46Z</time>
      </trkpt>
      <trkpt lat="45.7065" lon="4.58675">
        <ele>725.4</ele>
        <time>2025-12-15T13:53:47Z</time>
      </trkpt>
      <trkpt lat="45.7065" lon="4.58675">
        <ele>725.4</ele>
        <time>2025-12-15T13:53:48Z</time>
      </trkpt>
      <trkpt lat="45.7065" lon="4.58675">
        <ele>725.4</ele>
        <time>2025-12-15T13:53:49Z</time>
      </trkpt>
      <trkpt lat="45.7065" lon="4.58675">
        <ele>725.4</ele>
        <time>2025-12-15T13:53:50Z</time>
      </trkpt>
      <trkpt lat="45.7065" lon="4.58675">
        <ele>725.4</ele>
        <time>2025-12-15T13:53:51Z</time>
      </trkpt>
      <trkpt lat="45.7065" lon="4.58675">
        <ele>725.4</ele>
        <time>2025-12-15T13:53:52Z</time>
      </trkpt>
      <trkpt lat="45.7065" lon="4.58675">
        <ele>725.4</ele>
        <time>2025-12-15T13:53:53Z</time>
      </trkpt>
      <trkpt lat="45.7065" lon="4.58675">
        <ele>725.4</ele>
        <time>2025-12-15T13:53:54Z</time>
      </trkpt>
      <trkpt lat="45.7065" lon="4.58675">
        <ele>725.4</ele>
        <time>2025-12-15T13:53:55Z</time>
      </trkpt>
      <trkpt lat="45.7065" lon="4.58675">
        <ele>725.4</ele>
        <time>2025-12-15T13:53:56Z</time>
      </trkpt>
      <trkpt lat="45.7065" lon="4.58675">
        <ele>725.4</ele>
        <time>2025-12-15T13:53:57Z</time>
      </trkpt>
      <trkpt lat="45.7065" lon="4.58675">
        <ele>725.4</ele>
        <time>2025-12-15T13:53:58Z</time>
      </trkpt>
      <trkpt lat="45.7065" lon="4.58675">
        <ele>725.4</ele>
        <time>2025-12-15T13:53:59Z</time>
      </trkpt>
      <trkpt lat="45.7065" lon="4.58675">
        <ele>725.4</ele>
        <time>2025-12-15T13:54:00Z</time>
      </trkpt>
      <trkpt lat="45.7065" lon="4.58675">
        <ele>725.2</ele>
        <time>2025-12-15T13:54:01Z</time>
      </trkpt>
      <trkpt lat="45.7065" lon="4.58675">
        <ele>725.2</ele>
        <time>2025-12-15T13:54:02Z</time>
      </trkpt>
      <trkpt lat="45.7065" lon="4.58675">
        <ele>725.2</ele>
        <time>2025-12-15T13:54:03Z</time>
      </trkpt>
      <trkpt lat="45.7065" lon="4.58675">
        <ele>725.2</ele>
        <time>2025-12-15T13:54:04Z</time>
      </trkpt>
      <trkpt lat="45.7065" lon="4.58675">
        <ele>725.2</ele>
        <time>2025-12-15T13:54:05Z</time>
      </trkpt>
      <trkpt lat="45.7065" lon="4.58675">
        <ele>725.2</ele>
        <time>2025-12-15T13:54:06Z</time>
      </trkpt>
      <trkpt lat="45.7065" lon="4.58675">
        <ele>725.2</ele>
        <time>2025-12-15T13:54:07Z</time>
      </trkpt>
      <trkpt lat="45.7065" lon="4.58675">
        <ele>725.2</ele>
        <time>2025-12-15T13:54:08Z</time>
      </trkpt>
      <trkpt lat="45.7065" lon="4.58675">
        <ele>725.2</ele>
        <time>2025-12-15T13:54:09Z</time>
      </trkpt>
      <trkpt lat="45.7065" lon="4.58675">
        <ele>725.2</ele>
        <time>2025-12-15T13:54:10Z</time>
      </trkpt>
      <trkpt lat="45.7065" lon="4.58675">
        <ele>725.2</ele>
        <time>2025-12-15T13:54:11Z</time>
      </trkpt>
      <trkpt lat="45.7065" lon="4.58675">
        <ele>725.2</ele>
        <time>2025-12-15T13:54:12Z</time>
      </trkpt>
      <trkpt lat="45.7065" lon="4.58675">
        <ele>725.2</ele>
        <time>2025-12-15T13:54:13Z</time>
      </trkpt>
      <trkpt lat="45.7065" lon="4.58675">
        <ele>725.2</ele>
        <time>2025-12-15T13:54:14Z</time>
      </trkpt>
      <trkpt lat="45.7065" lon="4.58675">
        <ele>725.2</ele>
        <time>2025-12-15T13:54:15Z</time>
      </trkpt>
      <trkpt lat="45.7065" lon="4.58675">
        <ele>725.2</ele>
        <time>2025-12-15T13:54:16Z</time>
      </trkpt>
      <trkpt lat="45.7065" lon="4.58675">
        <ele>725.2</ele>
        <time>2025-12-15T13:54:17Z</time>
      </trkpt>
      <trkpt lat="45.7065" lon="4.58675">
        <ele>725.2</ele>
        <time>2025-12-15T13:54:18Z</time>
      </trkpt>
      <trkpt lat="45.7065" lon="4.58675">
        <ele>725.2</ele>
        <time>2025-12-15T13:54:19Z</time>
      </trkpt>
      <trkpt lat="45.7065" lon="4.58675">
        <ele>725.2</ele>
        <time>2025-12-15T13:54:20Z</time>
      </trkpt>
      <trkpt lat="45.7065" lon="4.58675">
        <ele>725.2</ele>
        <time>2025-12-15T13:54:21Z</time>
      </trkpt>
      <trkpt lat="45.7065" lon="4.58675">
        <ele>725.2</ele>
        <time>2025-12-15T13:54:22Z</time>
      </trkpt>
      <trkpt lat="45.7065" lon="4.58675">
        <ele>725.2</ele>
        <time>2025-12-15T13:54:23Z</time>
      </trkpt>
      <trkpt lat="45.7065" lon="4.58675">
        <ele>725.2</ele>
        <time>2025-12-15T13:54:24Z</time>
      </trkpt>
      <trkpt lat="45.7065" lon="4.58675">
        <ele>725.2</ele>
        <time>2025-12-15T13:54:25Z</time>
      </trkpt>
      <trkpt lat="45.7065" lon="4.58675">
        <ele>725.2</ele>
        <time>2025-12-15T13:54:26Z</time>
      </trkpt>
      <trkpt lat="45.7065" lon="4.58675">
        <ele>725.2</ele>
        <time>2025-12-15T13:54:27Z</time>
      </trkpt>
      <trkpt lat="45.7065" lon="4.58675">
        <ele>725.2</ele>
        <time>2025-12-15T13:54:28Z</time>
      </trkpt>
      <trkpt lat="45.7065" lon="4.58675">
        <ele>725.2</ele>
        <time>2025-12-15T13:54:29Z</time>
      </trkpt>
      <trkpt lat="45.7065" lon="4.58675">
        <ele>725.2</ele>
        <time>2025-12-15T13:54:30Z</time>
      </trkpt>
      <trkpt lat="45.7065" lon="4.58675">
        <ele>725.2</ele>
        <time>2025-12-15T13:54:31Z</time>
      </trkpt>
      <trkpt lat="45.7065" lon="4.58675">
        <ele>725.2</ele>
        <time>2025-12-15T13:54:32Z</time>
      </trkpt>
      <trkpt lat="45.7065" lon="4.58675">
        <ele>725.2</ele>
        <time>2025-12-15T13:54:33Z</time>
      </trkpt>
      <trkpt lat="45.7065" lon="4.58675">
        <ele>725.2</ele>
        <time>2025-12-15T13:54:34Z</time>
      </trkpt>
      <trkpt lat="45.7065" lon="4.58675">
        <ele>725.2</ele>
        <time>2025-12-15T13:54:35Z</time>
      </trkpt>
      <trkpt lat="45.7065" lon="4.58675">
        <ele>725.2</ele>
        <time>2025-12-15T13:54:36Z</time>
      </trkpt>
      <trkpt lat="45.7065" lon="4.58675">
        <ele>725.2</ele>
        <time>2025-12-15T13:54:37Z</time>
      </trkpt>
      <trkpt lat="45.7065" lon="4.58675">
        <ele>725.2</ele>
        <time>2025-12-15T13:54:38Z</time>
      </trkpt>
      <trkpt lat="45.7065" lon="4.58675">
        <ele>725.2</ele>
        <time>2025-12-15T13:54:39Z</time>
      </trkpt>
      <trkpt lat="45.7065" lon="4.58675">
        <ele>725.2</ele>
        <time>2025-12-15T13:54:40Z</time>
      </trkpt>
      <trkpt lat="45.7065" lon="4.58675">
        <ele>725.2</ele>
        <time>2025-12-15T13:54:41Z</time>
      </trkpt>
      <trkpt lat="45.7065" lon="4.58675">
        <ele>725.2</ele>
        <time>2025-12-15T13:54:42Z</time>
      </trkpt>
      <trkpt lat="45.7065" lon="4.58675">
        <ele>725.2</ele>
        <time>2025-12-15T13:54:43Z</time>
      </trkpt>
      <trkpt lat="45.7065" lon="4.58675">
        <ele>725</ele>
        <time>2025-12-15T13:54:44Z</time>
      </trkpt>
      <trkpt lat="45.7065" lon="4.58675">
        <ele>725</ele>
        <time>2025-12-15T13:54:45Z</time>
      </trkpt>
      <trkpt lat="45.7065" lon="4.58675">
        <ele>725</ele>
        <time>2025-12-15T13:54:46Z</time>
      </trkpt>
      <trkpt lat="45.7065" lon="4.58675">
        <ele>725</ele>
        <time>2025-12-15T13:54:47Z</time>
      </trkpt>
      <trkpt lat="45.7065" lon="4.58675">
        <ele>725</ele>
        <time>2025-12-15T13:54:48Z</time>
      </trkpt>
      <trkpt lat="45.7065" lon="4.58675">
        <ele>725</ele>
        <time>2025-12-15T13:54:49Z</time>
      </trkpt>
      <trkpt lat="45.7065" lon="4.58675">
        <ele>725</ele>
        <time>2025-12-15T13:54:50Z</time>
      </trkpt>
      <trkpt lat="45.7065" lon="4.58675">
        <ele>725</ele>
        <time>2025-12-15T13:54:51Z</time>
      </trkpt>
      <trkpt lat="45.7065" lon="4.58675">
        <ele>725</ele>
        <time>2025-12-15T13:54:52Z</time>
      </trkpt>
      <trkpt lat="45.7065" lon="4.58675">
        <ele>725</ele>
        <time>2025-12-15T13:54:53Z</time>
      </trkpt>
      <trkpt lat="45.7065" lon="4.58675">
        <ele>725</ele>
        <time>2025-12-15T13:54:54Z</time>
      </trkpt>
      <trkpt lat="45.7065" lon="4.58675">
        <ele>725</ele>
        <time>2025-12-15T13:54:55Z</time>
      </trkpt>
      <trkpt lat="45.7065" lon="4.58675">
        <ele>725</ele>
        <time>2025-12-15T13:54:56Z</time>
      </trkpt>
      <trkpt lat="45.7065" lon="4.58675">
        <ele>725</ele>
        <time>2025-12-15T13:54:57Z</time>
      </trkpt>
      <trkpt lat="45.7065" lon="4.58675">
        <ele>725</ele>
        <time>2025-12-15T13:54:58Z</time>
      </trkpt>
      <trkpt lat="45.7065" lon="4.58675">
        <ele>725</ele>
        <time>2025-12-15T13:54:59Z</time>
      </trkpt>
      <trkpt lat="45.7065" lon="4.58675">
        <ele>725</ele>
        <time>2025-12-15T13:55:00Z</time>
      </trkpt>
      <trkpt lat="45.7065" lon="4.58675">
        <ele>725</ele>
        <time>2025-12-15T13:55:01Z</time>
      </trkpt>
      <trkpt lat="45.7065" lon="4.58675">
        <ele>725</ele>
        <time>2025-12-15T13:55:02Z</time>
      </trkpt>
      <trkpt lat="45.7065" lon="4.58675">
        <ele>725</ele>
        <time>2025-12-15T13:55:03Z</time>
      </trkpt>
      <trkpt lat="45.7065" lon="4.58675">
        <ele>725</ele>
        <time>2025-12-15T13:55:04Z</time>
      </trkpt>
      <trkpt lat="45.7065" lon="4.58675">
        <ele>725</ele>
        <time>2025-12-15T13:55:05Z</time>
      </trkpt>
      <trkpt lat="45.7065" lon="4.58675">
        <ele>725</ele>
        <time>2025-12-15T13:55:06Z</time>
      </trkpt>
      <trkpt lat="45.7065" lon="4.58675">
        <ele>725</ele>
        <time>2025-12-15T13:55:07Z</time>
      </trkpt>
      <trkpt lat="45.7065" lon="4.58675">
        <ele>725</ele>
        <time>2025-12-15T13:55:08Z</time>
      </trkpt>
      <trkpt lat="45.7065" lon="4.58675">
        <ele>725</ele>
        <time>2025-12-15T13:55:09Z</time>
      </trkpt>
      <trkpt lat="45.7065" lon="4.58675">
        <ele>725</ele>
        <time>2025-12-15T13:55:10Z</time>
      </trkpt>
      <trkpt lat="45.7065" lon="4.58675">
        <ele>725</ele>
        <time>2025-12-15T13:55:11Z</time>
      </trkpt>
      <trkpt lat="45.7065" lon="4.58675">
        <ele>725</ele>
        <time>2025-12-15T13:55:12Z</time>
      </trkpt>
      <trkpt lat="45.7065" lon="4.58675">
        <ele>725</ele>
        <time>2025-12-15T13:55:13Z</time>
      </trkpt>
      <trkpt lat="45.7065" lon="4.58675">
        <ele>725</ele>
        <time>2025-12-15T13:55:14Z</time>
      </trkpt>
      <trkpt lat="45.7065" lon="4.58675">
        <ele>725</ele>
        <time>2025-12-15T13:55:15Z</time>
      </trkpt>
      <trkpt lat="45.7065" lon="4.58675">
        <ele>725</ele>
        <time>2025-12-15T13:55:16Z</time>
      </trkpt>
      <trkpt lat="45.7065" lon="4.58675">
        <ele>725</ele>
        <time>2025-12-15T13:55:17Z</time>
      </trkpt>
      <trkpt lat="45.7065" lon="4.58675">
        <ele>725</ele>
        <time>2025-12-15T13:55:18Z</time>
      </trkpt>
      <trkpt lat="45.7065" lon="4.58675">
        <ele>725</ele>
        <time>2025-12-15T13:55:19Z</time>
      </trkpt>
      <trkpt lat="45.7065" lon="4.58675">
        <ele>725</ele>
        <time>2025-12-15T13:55:20Z</time>
      </trkpt>
      <trkpt lat="45.7065" lon="4.58675">
        <ele>725</ele>
        <time>2025-12-15T13:55:21Z</time>
      </trkpt>
      <trkpt lat="45.7065" lon="4.58675">
        <ele>725</ele>
        <time>2025-12-15T13:55:22Z</time>
      </trkpt>
      <trkpt lat="45.7065" lon="4.58675">
        <ele>725</ele>
        <time>2025-12-15T13:55:23Z</time>
      </trkpt>
      <trkpt lat="45.7065" lon="4.58675">
        <ele>725</ele>
        <time>2025-12-15T13:55:24Z</time>
      </trkpt>
      <trkpt lat="45.7065" lon="4.58675">
        <ele>725</ele>
        <time>2025-12-15T13:55:25Z</time>
      </trkpt>
      <trkpt lat="45.7065" lon="4.58675">
        <ele>725</ele>
        <time>2025-12-15T13:55:26Z</time>
      </trkpt>
      <trkpt lat="45.7065" lon="4.58675">
        <ele>725</ele>
        <time>2025-12-15T13:55:27Z</time>
      </trkpt>
      <trkpt lat="45.7065" lon="4.58675">
        <ele>725</ele>
        <time>2025-12-15T13:55:28Z</time>
      </trkpt>
      <trkpt lat="45.7065" lon="4.58675">
        <ele>725</ele>
        <time>2025-12-15T13:55:29Z</time>
      </trkpt>
      <trkpt lat="45.7065" lon="4.58675">
        <ele>725</ele>
        <time>2025-12-15T13:55:30Z</time>
      </trkpt>
      <trkpt lat="45.7065" lon="4.58675">
        <ele>725</ele>
        <time>2025-12-15T13:55:31Z</time>
      </trkpt>
      <trkpt lat="45.7065" lon="4.58675">
        <ele>725</ele>
        <time>2025-12-15T13:55:32Z</time>
      </trkpt>
      <trkpt lat="45.7065" lon="4.58675">
        <ele>725</ele>
        <time>2025-12-15T13:55:33Z</time>
      </trkpt>
      <trkpt lat="45.7065" lon="4.58675">
        <ele>725</ele>
        <time>2025-12-15T13:55:34Z</time>
      </trkpt>
      <trkpt lat="45.7065" lon="4.58675">
        <ele>725</ele>
        <time>2025-12-15T13:55:35Z</time>
      </trkpt>
      <trkpt lat="45.7065" lon="4.58675">
        <ele>725</ele>
        <time>2025-12-15T13:55:36Z</time>
      </trkpt>
      <trkpt lat="45.7065" lon="4.58675">
        <ele>725</ele>
        <time>2025-12-15T13:55:37Z</time>
      </trkpt>
      <trkpt lat="45.7065" lon="4.58675">
        <ele>725</ele>
        <time>2025-12-15T13:55:38Z</time>
      </trkpt>
      <trkpt lat="45.7065" lon="4.58675">
        <ele>725</ele>
        <time>2025-12-15T13:55:39Z</time>
      </trkpt>
      <trkpt lat="45.7065" lon="4.58675">
        <ele>725</ele>
        <time>2025-12-15T13:55:40Z</time>
      </trkpt>
      <trkpt lat="45.7065" lon="4.58675">
        <ele>725</ele>
        <time>2025-12-15T13:55:41Z</time>
      </trkpt>
      <trkpt lat="45.7065" lon="4.58675">
        <ele>725</ele>
        <time>2025-12-15T13:55:42Z</time>
      </trkpt>
      <trkpt lat="45.7065" lon="4.58675">
        <ele>725</ele>
        <time>2025-12-15T13:55:43Z</time>
      </trkpt>
      <trkpt lat="45.7065" lon="4.58675">
        <ele>725</ele>
        <time>2025-12-15T13:55:44Z</time>
      </trkpt>
      <trkpt lat="45.7065" lon="4.58675">
        <ele>725</ele>
        <time>2025-12-15T13:55:45Z</time>
      </trkpt>
      <trkpt lat="45.7065" lon="4.58675">
        <ele>725</ele>
        <time>2025-12-15T13:55:46Z</time>
      </trkpt>
      <trkpt lat="45.7065" lon="4.58675">
        <ele>725</ele>
        <time>2025-12-15T13:55:47Z</time>
      </trkpt>
      <trkpt lat="45.7065" lon="4.58675">
        <ele>725</ele>
        <time>2025-12-15T13:55:48Z</time>
      </trkpt>
      <trkpt lat="45.7065" lon="4.58675">
        <ele>725</ele>
        <time>2025-12-15T13:55:49Z</time>
      </trkpt>
      <trkpt lat="45.7065" lon="4.58675">
        <ele>725</ele>
        <time>2025-12-15T13:55:50Z</time>
      </trkpt>
      <trkpt lat="45.7065" lon="4.58675">
        <ele>725</ele>
        <time>2025-12-15T13:55:51Z</time>
      </trkpt>
      <trkpt lat="45.7065" lon="4.58675">
        <ele>725</ele>
        <time>2025-12-15T13:55:52Z</time>
      </trkpt>
      <trkpt lat="45.7065" lon="4.58675">
        <ele>725</ele>
        <time>2025-12-15T13:55:53Z</time>
      </trkpt>
      <trkpt lat="45.7065" lon="4.58675">
        <ele>725</ele>
        <time>2025-12-15T13:55:54Z</time>
      </trkpt>
      <trkpt lat="45.7065" lon="4.58675">
        <ele>725</ele>
        <time>2025-12-15T13:55:55Z</time>
      </trkpt>
      <trkpt lat="45.7065" lon="4.58675">
        <ele>725</ele>
        <time>2025-12-15T13:55:56Z</time>
      </trkpt>
      <trkpt lat="45.7065" lon="4.58675">
        <ele>725</ele>
        <time>2025-12-15T13:55:57Z</time>
      </trkpt>
      <trkpt lat="45.7065" lon="4.58675">
        <ele>725</ele>
        <time>2025-12-15T13:55:58Z</time>
      </trkpt>
      <trkpt lat="45.7065" lon="4.58675">
        <ele>725</ele>
        <time>2025-12-15T13:55:59Z</time>
      </trkpt>
      <trkpt lat="45.7065" lon="4.58675">
        <ele>725</ele>
        <time>2025-12-15T13:56:00Z</time>
      </trkpt>
      <trkpt lat="45.7065" lon="4.58675">
        <ele>725</ele>
        <time>2025-12-15T13:56:01Z</time>
      </trkpt>
      <trkpt lat="45.7065" lon="4.58675">
        <ele>725</ele>
        <time>2025-12-15T13:56:02Z</time>
      </trkpt>
      <trkpt lat="45.7065" lon="4.58675">
        <ele>725</ele>
        <time>2025-12-15T13:56:03Z</time>
      </trkpt>
      <trkpt lat="45.7065" lon="4.58675">
        <ele>725</ele>
        <time>2025-12-15T13:56:04Z</time>
      </trkpt>
      <trkpt lat="45.7065" lon="4.58675">
        <ele>725</ele>
        <time>2025-12-15T13:56:05Z</time>
      </trkpt>
      <trkpt lat="45.7065" lon="4.58675">
        <ele>725</ele>
        <time>2025-12-15T13:56:06Z</time>
      </trkpt>
      <trkpt lat="45.7065" lon="4.58675">
        <ele>725</ele>
        <time>2025-12-15T13:56:07Z</time>
      </trkpt>
      <trkpt lat="45.7065" lon="4.58675">
        <ele>725</ele>
        <time>2025-12-15T13:56:08Z</time>
      </trkpt>
      <trkpt lat="45.7065" lon="4.58675">
        <ele>725</ele>
        <time>2025-12-15T13:56:09Z</time>
      </trkpt>
      <trkpt lat="45.7065" lon="4.58675">
        <ele>725</ele>
        <time>2025-12-15T13:56:10Z</time>
      </trkpt>
      <trkpt lat="45.7065" lon="4.58675">
        <ele>725</ele>
        <time>2025-12-15T13:56:11Z</time>
      </trkpt>
      <trkpt lat="45.7065" lon="4.58675">
        <ele>725</ele>
        <time>2025-12-15T13:56:12Z</time>
      </trkpt>
      <trkpt lat="45.7065" lon="4.58675">
        <ele>725</ele>
        <time>2025-12-15T13:56:13Z</time>
      </trkpt>
      <trkpt lat="45.7065" lon="4.58675">
        <ele>725</ele>
        <time>2025-12-15T13:56:14Z</time>
      </trkpt>
      <trkpt lat="45.7065" lon="4.58675">
        <ele>725</ele>
        <time>2025-12-15T13:56:15Z</time>
      </trkpt>
      <trkpt lat="45.7065" lon="4.58675">
        <ele>725</ele>
        <time>2025-12-15T13:56:16Z</time>
      </trkpt>
      <trkpt lat="45.7065" lon="4.58675">
        <ele>725</ele>
        <time>2025-12-15T13:56:17Z</time>
      </trkpt>
      <trkpt lat="45.7065" lon="4.58675">
        <ele>725</ele>
        <time>2025-12-15T13:56:18Z</time>
      </trkpt>
      <trkpt lat="45.7065" lon="4.58675">
        <ele>725</ele>
        <time>2025-12-15T13:56:19Z</time>
      </trkpt>
      <trkpt lat="45.7065" lon="4.58675">
        <ele>725</ele>
        <time>2025-12-15T13:56:20Z</time>
      </trkpt>
      <trkpt lat="45.7065" lon="4.58675">
        <ele>725</ele>
        <time>2025-12-15T13:56:21Z</time>
      </trkpt>
      <trkpt lat="45.7065" lon="4.58675">
        <ele>725</ele>
        <time>2025-12-15T13:56:22Z</time>
      </trkpt>
      <trkpt lat="45.7065" lon="4.58675">
        <ele>725</ele>
        <time>2025-12-15T13:56:23Z</time>
      </trkpt>
      <trkpt lat="45.7065" lon="4.58675">
        <ele>725</ele>
        <time>2025-12-15T13:56:24Z</time>
      </trkpt>
      <trkpt lat="45.7065" lon="4.58675">
        <ele>725</ele>
        <time>2025-12-15T13:56:25Z</time>
      </trkpt>
      <trkpt lat="45.7065" lon="4.58675">
        <ele>725</ele>
        <time>2025-12-15T13:56:26Z</time>
      </trkpt>
      <trkpt lat="45.7065" lon="4.58675">
        <ele>725</ele>
        <time>2025-12-15T13:56:27Z</time>
      </trkpt>
      <trkpt lat="45.7065" lon="4.58675">
        <ele>725</ele>
        <time>2025-12-15T13:56:28Z</time>
      </trkpt>
      <trkpt lat="45.7065" lon="4.58675">
        <ele>725</ele>
        <time>2025-12-15T13:56:29Z</time>
      </trkpt>
      <trkpt lat="45.7065" lon="4.58675">
        <ele>725</ele>
        <time>2025-12-15T13:56:30Z</time>
      </trkpt>
      <trkpt lat="45.7065" lon="4.58675">
        <ele>725</ele>
        <time>2025-12-15T13:56:31Z</time>
      </trkpt>
      <trkpt lat="45.7065" lon="4.58675">
        <ele>725</ele>
        <time>2025-12-15T13:56:32Z</time>
      </trkpt>
      <trkpt lat="45.7065" lon="4.58675">
        <ele>725</ele>
        <time>2025-12-15T13:56:33Z</time>
      </trkpt>
      <trkpt lat="45.7065" lon="4.58675">
        <ele>725</ele>
        <time>2025-12-15T13:56:34Z</time>
      </trkpt>
      <trkpt lat="45.7065" lon="4.58675">
        <ele>725</ele>
        <time>2025-12-15T13:56:35Z</time>
      </trkpt>
      <trkpt lat="45.7065" lon="4.58675">
        <ele>725</ele>
        <time>2025-12-15T13:56:36Z</time>
      </trkpt>
      <trkpt lat="45.7065" lon="4.58675">
        <ele>725</ele>
        <time>2025-12-15T13:56:37Z</time>
      </trkpt>
      <trkpt lat="45.7065" lon="4.58675">
        <ele>725</ele>
        <time>2025-12-15T13:56:38Z</time>
      </trkpt>
      <trkpt lat="45.7065" lon="4.58675">
        <ele>725</ele>
        <time>2025-12-15T13:56:39Z</time>
      </trkpt>
      <trkpt lat="45.7065" lon="4.58675">
        <ele>725</ele>
        <time>2025-12-15T13:56:40Z</time>
      </trkpt>
      <trkpt lat="45.7065" lon="4.58675">
        <ele>725</ele>
        <time>2025-12-15T13:56:41Z</time>
      </trkpt>
      <trkpt lat="45.7065" lon="4.58675">
        <ele>725</ele>
        <time>2025-12-15T13:56:42Z</time>
      </trkpt>
      <trkpt lat="45.7065" lon="4.58675">
        <ele>725</ele>
        <time>2025-12-15T13:56:43Z</time>
      </trkpt>
      <trkpt lat="45.7065" lon="4.58675">
        <ele>725</ele>
        <time>2025-12-15T13:56:44Z</time>
      </trkpt>
      <trkpt lat="45.7065" lon="4.58675">
        <ele>725</ele>
        <time>2025-12-15T13:56:45Z</time>
      </trkpt>
      <trkpt lat="45.7065" lon="4.58675">
        <ele>725</ele>
        <time>2025-12-15T13:56:46Z</time>
      </trkpt>
      <trkpt lat="45.7065" lon="4.58675">
        <ele>725</ele>
        <time>2025-12-15T13:56:47Z</time>
      </trkpt>
      <trkpt lat="45.7065" lon="4.58675">
        <ele>725</ele>
        <time>2025-12-15T13:56:48Z</time>
      </trkpt>
      <trkpt lat="45.7065" lon="4.58675">
        <ele>725</ele>
        <time>2025-12-15T13:56:49Z</time>
      </trkpt>
      <trkpt lat="45.7065" lon="4.58675">
        <ele>725</ele>
        <time>2025-12-15T13:56:50Z</time>
      </trkpt>
      <trkpt lat="45.7065" lon="4.58675">
        <ele>725</ele>
        <time>2025-12-15T13:56:51Z</time>
      </trkpt>
      <trkpt lat="45.7065" lon="4.58675">
        <ele>725</ele>
        <time>2025-12-15T13:56:52Z</time>
      </trkpt>
      <trkpt lat="45.7065" lon="4.58675">
        <ele>725</ele>
        <time>2025-12-15T13:56:53Z</time>
      </trkpt>
      <trkpt lat="45.7065" lon="4.58675">
        <ele>725</ele>
        <time>2025-12-15T13:56:54Z</time>
      </trkpt>
      <trkpt lat="45.7065" lon="4.58675">
        <ele>725</ele>
        <time>2025-12-15T13:56:55Z</time>
      </trkpt>
      <trkpt lat="45.7065" lon="4.58675">
        <ele>725</ele>
        <time>2025-12-15T13:56:56Z</time>
      </trkpt>
      <trkpt lat="45.7065" lon="4.58675">
        <ele>725</ele>
        <time>2025-12-15T13:56:57Z</time>
      </trkpt>
      <trkpt lat="45.7065" lon="4.58675">
        <ele>725</ele>
        <time>2025-12-15T13:56:58Z</time>
      </trkpt>
      <trkpt lat="45.7065" lon="4.58675">
        <ele>725</ele>
        <time>2025-12-15T13:56:59Z</time>
      </trkpt>
      <trkpt lat="45.7065" lon="4.58675">
        <ele>725</ele>
        <time>2025-12-15T13:57:00Z</time>
      </trkpt>
      <trkpt lat="45.7065" lon="4.58675">
        <ele>725</ele>
        <time>2025-12-15T13:57:01Z</time>
      </trkpt>
      <trkpt lat="45.7065" lon="4.58675">
        <ele>725</ele>
        <time>2025-12-15T13:57:02Z</time>
      </trkpt>
      <trkpt lat="45.7065" lon="4.58675">
        <ele>725</ele>
        <time>2025-12-15T13:57:03Z</time>
      </trkpt>
      <trkpt lat="45.7065" lon="4.58675">
        <ele>725</ele>
        <time>2025-12-15T13:57:04Z</time>
      </trkpt>
      <trkpt lat="45.7065" lon="4.58675">
        <ele>725</ele>
        <time>2025-12-15T13:57:05Z</time>
      </trkpt>
      <trkpt lat="45.7065" lon="4.58675">
        <ele>725</ele>
        <time>2025-12-15T13:57:06Z</time>
      </trkpt>
      <trkpt lat="45.7065" lon="4.58675">
        <ele>725</ele>
        <time>2025-12-15T13:57:07Z</time>
      </trkpt>
      <trkpt lat="45.7065" lon="4.58675">
        <ele>725</ele>
        <time>2025-12-15T13:57:08Z</time>
      </trkpt>
      <trkpt lat="45.7065" lon="4.58675">
        <ele>725</ele>
        <time>2025-12-15T13:57:09Z</time>
      </trkpt>
      <trkpt lat="45.7065" lon="4.58675">
        <ele>725</ele>
        <time>2025-12-15T13:57:10Z</time>
      </trkpt>
      <trkpt lat="45.7065" lon="4.58675">
        <ele>725</ele>
        <time>2025-12-15T13:57:11Z</time>
      </trkpt>
      <trkpt lat="45.7065" lon="4.58675">
        <ele>725</ele>
        <time>2025-12-15T13:57:12Z</time>
      </trkpt>
      <trkpt lat="45.7065" lon="4.58675">
        <ele>725</ele>
        <time>2025-12-15T13:57:13Z</time>
      </trkpt>
      <trkpt lat="45.7065" lon="4.58675">
        <ele>725</ele>
        <time>2025-12-15T13:57:14Z</time>
      </trkpt>
      <trkpt lat="45.7065" lon="4.58675">
        <ele>725</ele>
        <time>2025-12-15T13:57:15Z</time>
      </trkpt>
      <trkpt lat="45.7065" lon="4.58675">
        <ele>725</ele>
        <time>2025-12-15T13:57:16Z</time>
      </trkpt>
      <trkpt lat="45.7065" lon="4.58675">
        <ele>725</ele>
        <time>2025-12-15T13:57:17Z</time>
      </trkpt>
      <trkpt lat="45.7065" lon="4.58675">
        <ele>725</ele>
        <time>2025-12-15T13:57:18Z</time>
      </trkpt>
      <trkpt lat="45.7065" lon="4.58675">
        <ele>725</ele>
        <time>2025-12-15T13:57:19Z</time>
      </trkpt>
      <trkpt lat="45.7065" lon="4.58675">
        <ele>725</ele>
        <time>2025-12-15T13:57:20Z</time>
      </trkpt>
      <trkpt lat="45.7065" lon="4.58675">
        <ele>725</ele>
        <time>2025-12-15T13:57:21Z</time>
      </trkpt>
      <trkpt lat="45.7065" lon="4.58675">
        <ele>725</ele>
        <time>2025-12-15T13:57:22Z</time>
      </trkpt>
      <trkpt lat="45.7065" lon="4.58675">
        <ele>725</ele>
        <time>2025-12-15T13:57:23Z</time>
      </trkpt>
      <trkpt lat="45.7065" lon="4.58675">
        <ele>725</ele>
        <time>2025-12-15T13:57:24Z</time>
      </trkpt>
      <trkpt lat="45.7065" lon="4.58675">
        <ele>725</ele>
        <time>2025-12-15T13:57:25Z</time>
      </trkpt>
      <trkpt lat="45.7065" lon="4.58675">
        <ele>725</ele>
        <time>2025-12-15T13:57:26Z</time>
      </trkpt>
      <trkpt lat="45.7065" lon="4.58675">
        <ele>725</ele>
        <time>2025-12-15T13:57:27Z</time>
      </trkpt>
      <trkpt lat="45.7065" lon="4.58675">
        <ele>725</ele>
        <time>2025-12-15T13:57:28Z</time>
      </trkpt>
      <trkpt lat="45.7065" lon="4.58675">
        <ele>725</ele>
        <time>2025-12-15T13:57:29Z</time>
      </trkpt>
      <trkpt lat="45.7065" lon="4.58675">
        <ele>725</ele>
        <time>2025-12-15T13:57:30Z</time>
      </trkpt>
      <trkpt lat="45.7065" lon="4.58675">
        <ele>725</ele>
        <time>2025-12-15T13:57:31Z</time>
      </trkpt>
      <trkpt lat="45.7065" lon="4.58675">
        <ele>725</ele>
        <time>2025-12-15T13:57:32Z</time>
      </trkpt>
      <trkpt lat="45.7065" lon="4.58675">
        <ele>725</ele>
        <time>2025-12-15T13:57:33Z</time>
      </trkpt>
      <trkpt lat="45.7065" lon="4.58675">
        <ele>725</ele>
        <time>2025-12-15T13:57:34Z</time>
      </trkpt>
      <trkpt lat="45.7065" lon="4.58675">
        <ele>725</ele>
        <time>2025-12-15T13:57:35Z</time>
      </trkpt>
      <trkpt lat="45.7065" lon="4.58675">
        <ele>725</ele>
        <time>2025-12-15T13:57:36Z</time>
      </trkpt>
      <trkpt lat="45.7065" lon="4.58675">
        <ele>725</ele>
        <time>2025-12-15T13:57:37Z</time>
      </trkpt>
      <trkpt lat="45.7065" lon="4.58675">
        <ele>725</ele>
        <time>2025-12-15T13:57:38Z</time>
      </trkpt>
      <trkpt lat="45.7065" lon="4.58675">
        <ele>725</ele>
        <time>2025-12-15T13:57:39Z</time>
      </trkpt>
      <trkpt lat="45.7065" lon="4.58675">
        <ele>725</ele>
        <time>2025-12-15T13:57:40Z</time>
      </trkpt>
      <trkpt lat="45.7065" lon="4.58675">
        <ele>725</ele>
        <time>2025-12-15T13:57:41Z</time>
      </trkpt>
      <trkpt lat="45.7065" lon="4.58675">
        <ele>725</ele>
        <time>2025-12-15T13:57:42Z</time>
      </trkpt>
      <trkpt lat="45.7065" lon="4.58675">
        <ele>725</ele>
        <time>2025-12-15T13:57:43Z</time>
      </trkpt>
      <trkpt lat="45.7065" lon="4.58675">
        <ele>725</ele>
        <time>2025-12-15T13:57:44Z</time>
      </trkpt>
      <trkpt lat="45.7065" lon="4.58675">
        <ele>725</ele>
        <time>2025-12-15T13:57:45Z</time>
      </trkpt>
      <trkpt lat="45.7065" lon="4.58675">
        <ele>725</ele>
        <time>2025-12-15T13:57:46Z</time>
      </trkpt>
      <trkpt lat="45.7065" lon="4.58675">
        <ele>725</ele>
        <time>2025-12-15T13:57:47Z</time>
      </trkpt>
      <trkpt lat="45.7065" lon="4.58675">
        <ele>725</ele>
        <time>2025-12-15T13:57:48Z</time>
      </trkpt>
      <trkpt lat="45.7065" lon="4.58675">
        <ele>725</ele>
        <time>2025-12-15T13:57:49Z</time>
      </trkpt>
      <trkpt lat="45.7065" lon="4.58675">
        <ele>725</ele>
        <time>2025-12-15T13:57:50Z</time>
      </trkpt>
      <trkpt lat="45.7065" lon="4.58675">
        <ele>725</ele>
        <time>2025-12-15T13:57:51Z</time>
      </trkpt>
      <trkpt lat="45.7065" lon="4.58675">
        <ele>725</ele>
        <time>2025-12-15T13:57:52Z</time>
      </trkpt>
      <trkpt lat="45.7065" lon="4.58675">
        <ele>725</ele>
        <time>2025-12-15T13:57:53Z</time>
      </trkpt>
      <trkpt lat="45.7065" lon="4.58675">
        <ele>725</ele>
        <time>2025-12-15T13:57:54Z</time>
      </trkpt>
      <trkpt lat="45.7065" lon="4.58675">
        <ele>725</ele>
        <time>2025-12-15T13:57:55Z</time>
      </trkpt>
      <trkpt lat="45.7065" lon="4.58675">
        <ele>725</ele>
        <time>2025-12-15T13:57:56Z</time>
      </trkpt>
      <trkpt lat="45.7065" lon="4.58675">
        <ele>725</ele>
        <time>2025-12-15T13:57:57Z</time>
      </trkpt>
      <trkpt lat="45.7065" lon="4.58675">
        <ele>725</ele>
        <time>2025-12-15T13:57:58Z</time>
      </trkpt>
      <trkpt lat="45.7065" lon="4.58675">
        <ele>725</ele>
        <time>2025-12-15T13:57:59Z</time>
      </trkpt>
      <trkpt lat="45.7065" lon="4.58675">
        <ele>725</ele>
        <time>2025-12-15T13:58:00Z</time>
      </trkpt>
      <trkpt lat="45.7065" lon="4.58675">
        <ele>725</ele>
        <time>2025-12-15T13:58:01Z</time>
      </trkpt>
      <trkpt lat="45.7065" lon="4.58675">
        <ele>725</ele>
        <time>2025-12-15T13:58:02Z</time>
      </trkpt>
      <trkpt lat="45.7065" lon="4.58675">
        <ele>725</ele>
        <time>2025-12-15T13:58:03Z</time>
      </trkpt>
      <trkpt lat="45.7065" lon="4.58675">
        <ele>725</ele>
        <time>2025-12-15T13:58:04Z</time>
      </trkpt>
      <trkpt lat="45.7065" lon="4.58675">
        <ele>725</ele>
        <time>2025-12-15T13:58:05Z</time>
      </trkpt>
      <trkpt lat="45.7065" lon="4.58675">
        <ele>725</ele>
        <time>2025-12-15T13:58:06Z</time>
      </trkpt>
      <trkpt lat="45.7065" lon="4.58675">
        <ele>725</ele>
        <time>2025-12-15T13:58:07Z</time>
      </trkpt>
      <trkpt lat="45.7065" lon="4.58675">
        <ele>725</ele>
        <time>2025-12-15T13:58:08Z</time>
      </trkpt>
      <trkpt lat="45.7065" lon="4.58675">
        <ele>725</ele>
        <time>2025-12-15T13:58:09Z</time>
      </trkpt>
      <trkpt lat="45.7065" lon="4.58675">
        <ele>725</ele>
        <time>2025-12-15T13:58:10Z</time>
      </trkpt>
      <trkpt lat="45.7065" lon="4.58675">
        <ele>725</ele>
        <time>2025-12-15T13:58:11Z</time>
      </trkpt>
      <trkpt lat="45.7065" lon="4.58675">
        <ele>725</ele>
        <time>2025-12-15T13:58:12Z</time>
      </trkpt>
      <trkpt lat="45.7065" lon="4.58675">
        <ele>725</ele>
        <time>2025-12-15T13:58:13Z</time>
      </trkpt>
      <trkpt lat="45.7065" lon="4.58675">
        <ele>725</ele>
        <time>2025-12-15T13:58:14Z</time>
      </trkpt>
      <trkpt lat="45.7065" lon="4.58675">
        <ele>725</ele>
        <time>2025-12-15T13:58:15Z</time>
      </trkpt>
      <trkpt lat="45.7065" lon="4.58675">
        <ele>725</ele>
        <time>2025-12-15T13:58:16Z</time>
      </trkpt>
      <trkpt lat="45.7065" lon="4.58675">
        <ele>725</ele>
        <time>2025-12-15T13:58:17Z</time>
      </trkpt>
      <trkpt lat="45.7065" lon="4.58675">
        <ele>725</ele>
        <time>2025-12-15T13:58:18Z</time>
      </trkpt>
      <trkpt lat="45.7065" lon="4.58675">
        <ele>725</ele>
        <time>2025-12-15T13:58:19Z</time>
      </trkpt>
      <trkpt lat="45.7065" lon="4.58675">
        <ele>725</ele>
        <time>2025-12-15T13:58:20Z</time>
      </trkpt>
      <trkpt lat="45.7065" lon="4.58675">
        <ele>725</ele>
        <time>2025-12-15T13:58:21Z</time>
      </trkpt>
      <trkpt lat="45.7065" lon="4.58675">
        <ele>725</ele>
        <time>2025-12-15T13:58:22Z</time>
      </trkpt>
      <trkpt lat="45.7065" lon="4.58675">
        <ele>725</ele>
        <time>2025-12-15T13:58:23Z</time>
      </trkpt>
      <trkpt lat="45.7065" lon="4.58675">
        <ele>725</ele>
        <time>2025-12-15T13:58:24Z</time>
      </trkpt>
      <trkpt lat="45.7065" lon="4.58675">
        <ele>725</ele>
        <time>2025-12-15T13:58:25Z</time>
      </trkpt>
      <trkpt lat="45.7065" lon="4.58675">
        <ele>725</ele>
        <time>2025-12-15T13:58:26Z</time>
      </trkpt>
      <trkpt lat="45.7065" lon="4.58675">
        <ele>725</ele>
        <time>2025-12-15T13:58:27Z</time>
      </trkpt>
      <trkpt lat="45.7065" lon="4.58675">
        <ele>725</ele>
        <time>2025-12-15T13:58:28Z</time>
      </trkpt>
      <trkpt lat="45.7065" lon="4.58675">
        <ele>725</ele>
        <time>2025-12-15T13:58:29Z</time>
      </trkpt>
      <trkpt lat="45.7065" lon="4.58675">
        <ele>725</ele>
        <time>2025-12-15T13:58:30Z</time>
      </trkpt>
      <trkpt lat="45.7065" lon="4.58675">
        <ele>725</ele>
        <time>2025-12-15T13:58:31Z</time>
      </trkpt>
      <trkpt lat="45.7065" lon="4.58675">
        <ele>725</ele>
        <time>2025-12-15T13:58:32Z</time>
      </trkpt>
      <trkpt lat="45.7065" lon="4.58675">
        <ele>725</ele>
        <time>2025-12-15T13:58:33Z</time>
      </trkpt>
      <trkpt lat="45.7065" lon="4.58675">
        <ele>725</ele>
        <time>2025-12-15T13:58:34Z</time>
      </trkpt>
      <trkpt lat="45.7065" lon="4.58675">
        <ele>725</ele>
        <time>2025-12-15T13:58:35Z</time>
      </trkpt>
      <trkpt lat="45.7065" lon="4.58675">
        <ele>725</ele>
        <time>2025-12-15T13:58:36Z</time>
      </trkpt>
      <trkpt lat="45.7065" lon="4.58675">
        <ele>725</ele>
        <time>2025-12-15T13:58:37Z</time>
      </trkpt>
      <trkpt lat="45.7065" lon="4.58675">
        <ele>725</ele>
        <time>2025-12-15T13:58:38Z</time>
      </trkpt>
      <trkpt lat="45.7065" lon="4.58675">
        <ele>725</ele>
        <time>2025-12-15T13:58:39Z</time>
      </trkpt>
      <trkpt lat="45.7065" lon="4.58675">
        <ele>725</ele>
        <time>2025-12-15T13:58:40Z</time>
      </trkpt>
      <trkpt lat="45.7065" lon="4.58675">
        <ele>725</ele>
        <time>2025-12-15T13:58:41Z</time>
      </trkpt>
      <trkpt lat="45.7065" lon="4.58675">
        <ele>725</ele>
        <time>2025-12-15T13:58:42Z</time>
      </trkpt>
      <trkpt lat="45.7065" lon="4.58675">
        <ele>725</ele>
        <time>2025-12-15T13:58:43Z</time>
      </trkpt>
      <trkpt lat="45.7065" lon="4.58675">
        <ele>725</ele>
        <time>2025-12-15T13:58:44Z</time>
      </trkpt>
      <trkpt lat="45.7065" lon="4.58675">
        <ele>725</ele>
        <time>2025-12-15T13:58:45Z</time>
      </trkpt>
      <trkpt lat="45.7065" lon="4.58675">
        <ele>725</ele>
        <time>2025-12-15T13:58:46Z</time>
      </trkpt>
      <trkpt lat="45.7065" lon="4.58675">
        <ele>725</ele>
        <time>2025-12-15T13:58:47Z</time>
      </trkpt>
      <trkpt lat="45.7065" lon="4.58675">
        <ele>725</ele>
        <time>2025-12-15T13:58:48Z</time>
      </trkpt>
      <trkpt lat="45.7065" lon="4.58675">
        <ele>725</ele>
        <time>2025-12-15T13:58:49Z</time>
      </trkpt>
      <trkpt lat="45.7065" lon="4.58675">
        <ele>725</ele>
        <time>2025-12-15T13:58:50Z</time>
      </trkpt>
      <trkpt lat="45.7065" lon="4.58675">
        <ele>725</ele>
        <time>2025-12-15T13:58:51Z</time>
      </trkpt>
      <trkpt lat="45.7065" lon="4.58675">
        <ele>725</ele>
        <time>2025-12-15T13:58:52Z</time>
      </trkpt>
      <trkpt lat="45.7065" lon="4.58675">
        <ele>725</ele>
        <time>2025-12-15T13:58:53Z</time>
      </trkpt>
      <trkpt lat="45.7065" lon="4.58675">
        <ele>725</ele>
        <time>2025-12-15T13:58:54Z</time>
      </trkpt>
      <trkpt lat="45.7065" lon="4.58675">
        <ele>725</ele>
        <time>2025-12-15T13:58:55Z</time>
      </trkpt>
      <trkpt lat="45.7065" lon="4.58675">
        <ele>725</ele>
        <time>2025-12-15T13:58:56Z</time>
      </trkpt>
      <trkpt lat="45.7065" lon="4.58675">
        <ele>725</ele>
        <time>2025-12-15T13:58:57Z</time>
      </trkpt>
      <trkpt lat="45.7065" lon="4.58675">
        <ele>725</ele>
        <time>2025-12-15T13:58:58Z</time>
      </trkpt>
      <trkpt lat="45.7065" lon="4.58675">
        <ele>725</ele>
        <time>2025-12-15T13:58:59Z</time>
      </trkpt>
      <trkpt lat="45.7065" lon="4.58675">
        <ele>725</ele>
        <time>2025-12-15T13:59:00Z</time>
      </trkpt>
      <trkpt lat="45.7065" lon="4.58675">
        <ele>725</ele>
        <time>2025-12-15T13:59:01Z</time>
      </trkpt>
      <trkpt lat="45.7065" lon="4.58675">
        <ele>725</ele>
        <time>2025-12-15T13:59:02Z</time>
      </trkpt>
      <trkpt lat="45.7065" lon="4.58675">
        <ele>725</ele>
        <time>2025-12-15T13:59:03Z</time>
      </trkpt>
      <trkpt lat="45.7065" lon="4.58675">
        <ele>725</ele>
        <time>2025-12-15T13:59:04Z</time>
      </trkpt>
      <trkpt lat="45.7065" lon="4.58675">
        <ele>725</ele>
        <time>2025-12-15T13:59:05Z</time>
      </trkpt>
      <trkpt lat="45.7065" lon="4.58675">
        <ele>725</ele>
        <time>2025-12-15T13:59:06Z</time>
      </trkpt>
      <trkpt lat="45.7065" lon="4.58675">
        <ele>725</ele>
        <time>2025-12-15T13:59:07Z</time>
      </trkpt>
      <trkpt lat="45.7065" lon="4.58675">
        <ele>725</ele>
        <time>2025-12-15T13:59:08Z</time>
      </trkpt>
      <trkpt lat="45.7065" lon="4.58675">
        <ele>725</ele>
        <time>2025-12-15T13:59:09Z</time>
      </trkpt>
      <trkpt lat="45.7065" lon="4.58675">
        <ele>725</ele>
        <time>2025-12-15T13:59:10Z</time>
      </trkpt>
      <trkpt lat="45.7065" lon="4.58675">
        <ele>725</ele>
        <time>2025-12-15T13:59:11Z</time>
      </trkpt>
      <trkpt lat="45.7065" lon="4.58675">
        <ele>725</ele>
        <time>2025-12-15T13:59:12Z</time>
      </trkpt>
      <trkpt lat="45.7065" lon="4.58675">
        <ele>725</ele>
        <time>2025-12-15T13:59:13Z</time>
      </trkpt>
      <trkpt lat="45.7065" lon="4.58675">
        <ele>725</ele>
        <time>2025-12-15T13:59:14Z</time>
      </trkpt>
      <trkpt lat="45.7065" lon="4.58675">
        <ele>725</ele>
        <time>2025-12-15T13:59:15Z</time>
      </trkpt>
      <trkpt lat="45.7065" lon="4.58675">
        <ele>725</ele>
        <time>2025-12-15T13:59:16Z</time>
      </trkpt>
      <trkpt lat="45.7065" lon="4.58675">
        <ele>725</ele>
        <time>2025-12-15T13:59:17Z</time>
      </trkpt>
      <trkpt lat="45.7065" lon="4.58675">
        <ele>725</ele>
        <time>2025-12-15T13:59:18Z</time>
      </trkpt>
      <trkpt lat="45.7065" lon="4.58675">
        <ele>725</ele>
        <time>2025-12-15T13:59:19Z</time>
      </trkpt>
      <trkpt lat="45.7065" lon="4.58675">
        <ele>725</ele>
        <time>2025-12-15T13:59:20Z</time>
      </trkpt>
      <trkpt lat="45.7065" lon="4.58675">
        <ele>725</ele>
        <time>2025-12-15T13:59:21Z</time>
      </trkpt>
      <trkpt lat="45.7065" lon="4.58675">
        <ele>725</ele>
        <time>2025-12-15T13:59:22Z</time>
      </trkpt>
      <trkpt lat="45.7065" lon="4.58675">
        <ele>725</ele>
        <time>2025-12-15T13:59:23Z</time>
      </trkpt>
      <trkpt lat="45.7065" lon="4.58675">
        <ele>725</ele>
        <time>2025-12-15T13:59:24Z</time>
      </trkpt>
      <trkpt lat="45.7065" lon="4.58675">
        <ele>725</ele>
        <time>2025-12-15T13:59:25Z</time>
      </trkpt>
      <trkpt lat="45.7065" lon="4.58675">
        <ele>725</ele>
        <time>2025-12-15T13:59:26Z</time>
      </trkpt>
      <trkpt lat="45.7065" lon="4.58675">
        <ele>725</ele>
        <time>2025-12-15T13:59:27Z</time>
      </trkpt>
      <trkpt lat="45.7065" lon="4.58675">
        <ele>725</ele>
        <time>2025-12-15T13:59:28Z</time>
      </trkpt>
      <trkpt lat="45.7065" lon="4.58675">
        <ele>725</ele>
        <time>2025-12-15T13:59:29Z</time>
      </trkpt>
      <trkpt lat="45.7065" lon="4.58675">
        <ele>725</ele>
        <time>2025-12-15T13:59:30Z</time>
      </trkpt>
      <trkpt lat="45.7065" lon="4.58675">
        <ele>725</ele>
        <time>2025-12-15T13:59:31Z</time>
      </trkpt>
      <trkpt lat="45.7065" lon="4.58675">
        <ele>725</ele>
        <time>2025-12-15T13:59:32Z</time>
      </trkpt>
      <trkpt lat="45.7065" lon="4.58675">
        <ele>725</ele>
        <time>2025-12-15T13:59:33Z</time>
      </trkpt>
      <trkpt lat="45.7065" lon="4.58675">
        <ele>725</ele>
        <time>2025-12-15T13:59:34Z</time>
      </trkpt>
      <trkpt lat="45.7065" lon="4.58675">
        <ele>725</ele>
        <time>2025-12-15T13:59:35Z</time>
      </trkpt>
      <trkpt lat="45.7065" lon="4.58675">
        <ele>725</ele>
        <time>2025-12-15T13:59:36Z</time>
      </trkpt>
      <trkpt lat="45.7065" lon="4.58675">
        <ele>725</ele>
        <time>2025-12-15T13:59:37Z</time>
      </trkpt>
      <trkpt lat="45.7065" lon="4.58675">
        <ele>725</ele>
        <time>2025-12-15T13:59:38Z</time>
      </trkpt>
      <trkpt lat="45.7065" lon="4.58675">
        <ele>725</ele>
        <time>2025-12-15T13:59:39Z</time>
      </trkpt>
      <trkpt lat="45.7065" lon="4.58675">
        <ele>725</ele>
        <time>2025-12-15T13:59:40Z</time>
      </trkpt>
      <trkpt lat="45.7065" lon="4.58675">
        <ele>725</ele>
        <time>2025-12-15T13:59:41Z</time>
      </trkpt>
      <trkpt lat="45.7065" lon="4.58675">
        <ele>725</ele>
        <time>2025-12-15T13:59:42Z</time>
      </trkpt>
      <trkpt lat="45.7065" lon="4.58675">
        <ele>725</ele>
        <time>2025-12-15T13:59:43Z</time>
      </trkpt>
      <trkpt lat="45.7065" lon="4.58675">
        <ele>725</ele>
        <time>2025-12-15T13:59:44Z</time>
      </trkpt>
      <trkpt lat="45.7065" lon="4.58675">
        <ele>725</ele>
        <time>2025-12-15T13:59:45Z</time>
      </trkpt>
      <trkpt lat="45.7065" lon="4.58675">
        <ele>725</ele>
        <time>2025-12-15T13:59:46Z</time>
      </trkpt>
      <trkpt lat="45.7065" lon="4.58675">
        <ele>725</ele>
        <time>2025-12-15T13:59:47Z</time>
      </trkpt>
      <trkpt lat="45.7065" lon="4.58675">
        <ele>725</ele>
        <time>2025-12-15T13:59:48Z</time>
      </trkpt>
      <trkpt lat="45.7065" lon="4.58675">
        <ele>725</ele>
        <time>2025-12-15T13:59:49Z</time>
      </trkpt>
      <trkpt lat="45.7065" lon="4.58675">
        <ele>725</ele>
        <time>2025-12-15T13:59:50Z</time>
      </trkpt>
      <trkpt lat="45.7065" lon="4.58675">
        <ele>725</ele>
        <time>2025-12-15T13:59:51Z</time>
      </trkpt>
      <trkpt lat="45.7065" lon="4.58675">
        <ele>725</ele>
        <time>2025-12-15T13:59:52Z</time>
      </trkpt>
      <trkpt lat="45.7065" lon="4.58675">
        <ele>725</ele>
        <time>2025-12-15T13:59:53Z</time>
      </trkpt>
      <trkpt lat="45.7065" lon="4.58675">
        <ele>725</ele>
        <time>2025-12-15T13:59:54Z</time>
      </trkpt>
      <trkpt lat="45.7065" lon="4.58675">
        <ele>725</ele>
        <time>2025-12-15T13:59:55Z</time>
      </trkpt>
      <trkpt lat="45.7065" lon="4.58675">
        <ele>725</ele>
        <time>2025-12-15T13:59:56Z</time>
      </trkpt>
      <trkpt lat="45.7065" lon="4.58675">
        <ele>725</ele>
        <time>2025-12-15T13:59:57Z</time>
      </trkpt>
      <trkpt lat="45.7065" lon="4.58675">
        <ele>725</ele>
        <time>2025-12-15T13:59:58Z</time>
      </trkpt>
      <trkpt lat="45.7065" lon="4.58675">
        <ele>725</ele>
        <time>2025-12-15T13:59:59Z</time>
      </trkpt>
      <trkpt lat="45.7065" lon="4.58675">
        <ele>725</ele>
        <time>2025-12-15T14:00:00Z</time>
      </trkpt>
      <trkpt lat="45.7065" lon="4.58675">
        <ele>725</ele>
        <time>2025-12-15T14:00:01Z</time>
      </trkpt>
      <trkpt lat="45.7065" lon="4.58675">
        <ele>725</ele>
        <time>2025-12-15T14:00:02Z</time>
      </trkpt>
      <trkpt lat="45.7065" lon="4.58675">
        <ele>725</ele>
        <time>2025-12-15T14:00:03Z</time>
      </trkpt>
      <trkpt lat="45.7065" lon="4.58675">
        <ele>725</ele>
        <time>2025-12-15T14:00:04Z</time>
      </trkpt>
      <trkpt lat="45.7065" lon="4.58675">
        <ele>725</ele>
        <time>2025-12-15T14:00:05Z</time>
      </trkpt>
      <trkpt lat="45.7065" lon="4.58675">
        <ele>725</ele>
        <time>2025-12-15T14:00:06Z</time>
      </trkpt>
      <trkpt lat="45.7065" lon="4.58675">
        <ele>725</ele>
        <time>2025-12-15T14:00:07Z</time>
      </trkpt>
      <trkpt lat="45.7065" lon="4.58675">
        <ele>725</ele>
        <time>2025-12-15T14:00:08Z</time>
      </trkpt>
      <trkpt lat="45.7065" lon="4.58675">
        <ele>725</ele>
        <time>2025-12-15T14:00:09Z</time>
      </trkpt>
      <trkpt lat="45.7065" lon="4.58675">
        <ele>725</ele>
        <time>2025-12-15T14:00:10Z</time>
      </trkpt>
      <trkpt lat="45.7065" lon="4.58675">
        <ele>725</ele>
        <time>2025-12-15T14:00:11Z</time>
      </trkpt>
      <trkpt lat="45.7065" lon="4.58675">
        <ele>725</ele>
        <time>2025-12-15T14:00:12Z</time>
      </trkpt>
      <trkpt lat="45.7065" lon="4.58675">
        <ele>725</ele>
        <time>2025-12-15T14:00:13Z</time>
      </trkpt>
      <trkpt lat="45.7065" lon="4.58675">
        <ele>725</ele>
        <time>2025-12-15T14:00:14Z</time>
      </trkpt>
      <trkpt lat="45.7065" lon="4.58675">
        <ele>725</ele>
        <time>2025-12-15T14:00:15Z</time>
      </trkpt>
      <trkpt lat="45.7065" lon="4.58675">
        <ele>725</ele>
        <time>2025-12-15T14:00:16Z</time>
      </trkpt>
      <trkpt lat="45.7065" lon="4.58675">
        <ele>725</ele>
        <time>2025-12-15T14:00:17Z</time>
      </trkpt>
      <trkpt lat="45.7065" lon="4.58675">
        <ele>725</ele>
        <time>2025-12-15T14:00:18Z</time>
      </trkpt>
      <trkpt lat="45.7065" lon="4.58675">
        <ele>725</ele>
        <time>2025-12-15T14:00:19Z</time>
      </trkpt>
      <trkpt lat="45.7065" lon="4.58675">
        <ele>725</ele>
        <time>2025-12-15T14:00:20Z</time>
      </trkpt>
      <trkpt lat="45.7065" lon="4.58675">
        <ele>725</ele>
        <time>2025-12-15T14:00:21Z</time>
      </trkpt>
      <trkpt lat="45.7065" lon="4.58675">
        <ele>725</ele>
        <time>2025-12-15T14:00:22Z</time>
      </trkpt>
      <trkpt lat="45.7065" lon="4.58675">
        <ele>725</ele>
        <time>2025-12-15T14:00:23Z</time>
      </trkpt>
      <trkpt lat="45.7065" lon="4.58675">
        <ele>725</ele>
        <time>2025-12-15T14:00:24Z</time>
      </trkpt>
      <trkpt lat="45.7065" lon="4.58675">
        <ele>725</ele>
        <time>2025-12-15T14:00:25Z</time>
      </trkpt>
      <trkpt lat="45.7065" lon="4.58675">
        <ele>725</ele>
        <time>2025-12-15T14:00:26Z</time>
      </trkpt>
      <trkpt lat="45.7065" lon="4.58675">
        <ele>725</ele>
        <time>2025-12-15T14:00:27Z</time>
      </trkpt>
      <trkpt lat="45.7065" lon="4.58675">
        <ele>725</ele>
        <time>2025-12-15T14:00:28Z</time>
      </trkpt>
      <trkpt lat="45.7065" lon="4.58675">
        <ele>725</ele>
        <time>2025-12-15T14:00:29Z</time>
      </trkpt>
      <trkpt lat="45.7065" lon="4.58675">
        <ele>725</ele>
        <time>2025-12-15T14:00:30Z</time>
      </trkpt>
      <trkpt lat="45.7065" lon="4.58675">
        <ele>725</ele>
        <time>2025-12-15T14:00:31Z</time>
      </trkpt>
      <trkpt lat="45.7065" lon="4.58675">
        <ele>725</ele>
        <time>2025-12-15T14:00:32Z</time>
      </trkpt>
      <trkpt lat="45.7065" lon="4.58675">
        <ele>725</ele>
        <time>2025-12-15T14:00:33Z</time>
      </trkpt>
      <trkpt lat="45.7065" lon="4.58675">
        <ele>725</ele>
        <time>2025-12-15T14:00:34Z</time>
      </trkpt>
      <trkpt lat="45.7065" lon="4.58675">
        <ele>725</ele>
        <time>2025-12-15T14:00:35Z</time>
      </trkpt>
      <trkpt lat="45.7065" lon="4.58675">
        <ele>725</ele>
        <time>2025-12-15T14:00:36Z</time>
      </trkpt>
      <trkpt lat="45.7065" lon="4.58675">
        <ele>725</ele>
        <time>2025-12-15T14:00:37Z</time>
      </trkpt>
      <trkpt lat="45.7065" lon="4.58675">
        <ele>725</ele>
        <time>2025-12-15T14:00:38Z</time>
      </trkpt>
      <trkpt lat="45.7065" lon="4.58675">
        <ele>725</ele>
        <time>2025-12-15T14:00:39Z</time>
      </trkpt>
      <trkpt lat="45.7065" lon="4.58675">
        <ele>725</ele>
        <time>2025-12-15T14:00:40Z</time>
      </trkpt>
      <trkpt lat="45.7065" lon="4.58675">
        <ele>725</ele>
        <time>2025-12-15T14:00:41Z</time>
      </trkpt>
      <trkpt lat="45.7065" lon="4.58675">
        <ele>725</ele>
        <time>2025-12-15T14:00:42Z</time>
      </trkpt>
      <trkpt lat="45.7065" lon="4.58675">
        <ele>725</ele>
        <time>2025-12-15T14:00:43Z</time>
      </trkpt>
      <trkpt lat="45.7065" lon="4.58675">
        <ele>725</ele>
        <time>2025-12-15T14:00:44Z</time>
      </trkpt>
      <trkpt lat="45.7065" lon="4.58675">
        <ele>725</ele>
        <time>2025-12-15T14:00:45Z</time>
      </trkpt>
      <trkpt lat="45.7065" lon="4.58675">
        <ele>725</ele>
        <time>2025-12-15T14:00:46Z</time>
      </trkpt>
      <trkpt lat="45.7065" lon="4.58675">
        <ele>725</ele>
        <time>2025-12-15T14:00:47Z</time>
      </trkpt>
      <trkpt lat="45.7065" lon="4.58675">
        <ele>725</ele>
        <time>2025-12-15T14:00:48Z</time>
      </trkpt>
      <trkpt lat="45.7065" lon="4.58675">
        <ele>725</ele>
        <time>2025-12-15T14:00:49Z</time>
      </trkpt>
      <trkpt lat="45.7065" lon="4.58675">
        <ele>725</ele>
        <time>2025-12-15T14:00:50Z</time>
      </trkpt>
      <trkpt lat="45.7065" lon="4.58675">
        <ele>725</ele>
        <time>2025-12-15T14:00:51Z</time>
      </trkpt>
      <trkpt lat="45.7065" lon="4.58675">
        <ele>725</ele>
        <time>2025-12-15T14:00:52Z</time>
      </trkpt>
      <trkpt lat="45.7065" lon="4.58675">
        <ele>725</ele>
        <time>2025-12-15T14:00:53Z</time>
      </trkpt>
      <trkpt lat="45.7065" lon="4.58675">
        <ele>725</ele>
        <time>2025-12-15T14:00:54Z</time>
      </trkpt>
      <trkpt lat="45.7065" lon="4.58675">
        <ele>725</ele>
        <time>2025-12-15T14:00:55Z</time>
      </trkpt>
      <trkpt lat="45.7065" lon="4.58675">
        <ele>725</ele>
        <time>2025-12-15T14:00:56Z</time>
      </trkpt>
      <trkpt lat="45.7065" lon="4.58675">
        <ele>725</ele>
        <time>2025-12-15T14:00:57Z</time>
      </trkpt>
      <trkpt lat="45.7065" lon="4.58675">
        <ele>725</ele>
        <time>2025-12-15T14:00:58Z</time>
      </trkpt>
      <trkpt lat="45.7065" lon="4.58675">
        <ele>725</ele>
        <time>2025-12-15T14:00:59Z</time>
      </trkpt>
      <trkpt lat="45.7065" lon="4.58675">
        <ele>725</ele>
        <time>2025-12-15T14:01:00Z</time>
      </trkpt>
      <trkpt lat="45.7065" lon="4.58675">
        <ele>725</ele>
        <time>2025-12-15T14:01:01Z</time>
      </trkpt>
      <trkpt lat="45.7065" lon="4.58675">
        <ele>725</ele>
        <time>2025-12-15T14:01:02Z</time>
      </trkpt>
      <trkpt lat="45.7065" lon="4.58675">
        <ele>725</ele>
        <time>2025-12-15T14:01:03Z</time>
      </trkpt>
      <trkpt lat="45.7065" lon="4.58675">
        <ele>725</ele>
        <time>2025-12-15T14:01:04Z</time>
      </trkpt>
      <trkpt lat="45.7065" lon="4.58675">
        <ele>725</ele>
        <time>2025-12-15T14:01:05Z</time>
      </trkpt>
      <trkpt lat="45.7065" lon="4.58675">
        <ele>725</ele>
        <time>2025-12-15T14:01:06Z</time>
      </trkpt>
      <trkpt lat="45.7065" lon="4.58675">
        <ele>725</ele>
        <time>2025-12-15T14:01:07Z</time>
      </trkpt>
      <trkpt lat="45.7065" lon="4.58675">
        <ele>725</ele>
        <time>2025-12-15T14:01:08Z</time>
      </trkpt>
      <trkpt lat="45.7065" lon="4.58675">
        <ele>725</ele>
        <time>2025-12-15T14:01:09Z</time>
      </trkpt>
      <trkpt lat="45.7065" lon="4.58675">
        <ele>725</ele>
        <time>2025-12-15T14:01:10Z</time>
      </trkpt>
      <trkpt lat="45.7065" lon="4.58675">
        <ele>725</ele>
        <time>2025-12-15T14:01:11Z</time>
      </trkpt>
      <trkpt lat="45.7065" lon="4.58675">
        <ele>725</ele>
        <time>2025-12-15T14:01:12Z</time>
      </trkpt>
      <trkpt lat="45.7065" lon="4.58675">
        <ele>725</ele>
        <time>2025-12-15T14:01:13Z</time>
      </trkpt>
      <trkpt lat="45.7065" lon="4.58675">
        <ele>725</ele>
        <time>2025-12-15T14:01:14Z</time>
      </trkpt>
      <trkpt lat="45.7065" lon="4.58675">
        <ele>725</ele>
        <time>2025-12-15T14:01:15Z</time>
      </trkpt>
      <trkpt lat="45.7065" lon="4.58675">
        <ele>725</ele>
        <time>2025-12-15T14:01:16Z</time>
      </trkpt>
      <trkpt lat="45.7065" lon="4.58675">
        <ele>725</ele>
        <time>2025-12-15T14:01:17Z</time>
      </trkpt>
      <trkpt lat="45.7065" lon="4.58675">
        <ele>725</ele>
        <time>2025-12-15T14:01:18Z</time>
      </trkpt>
      <trkpt lat="45.7065" lon="4.58676">
        <ele>725</ele>
        <time>2025-12-15T14:01:19Z</time>
      </trkpt>
      <trkpt lat="45.7065" lon="4.58676">
        <ele>725</ele>
        <time>2025-12-15T14:01:20Z</time>
      </trkpt>
      <trkpt lat="45.7065" lon="4.58676">
        <ele>725</ele>
        <time>2025-12-15T14:01:21Z</time>
      </trkpt>
      <trkpt lat="45.7065" lon="4.58676">
        <ele>725</ele>
        <time>2025-12-15T14:01:22Z</time>
      </trkpt>
      <trkpt lat="45.7065" lon="4.58676">
        <ele>725</ele>
        <time>2025-12-15T14:01:23Z</time>
      </trkpt>
      <trkpt lat="45.70649" lon="4.58677">
        <ele>725</ele>
        <time>2025-12-15T14:01:24Z</time>
      </trkpt>
      <trkpt lat="45.70648" lon="4.58677">
        <ele>725</ele>
        <time>2025-12-15T14:01:25Z</time>
      </trkpt>
      <trkpt lat="45.70648" lon="4.58677">
        <ele>725</ele>
        <time>2025-12-15T14:01:26Z</time>
      </trkpt>
      <trkpt lat="45.70648" lon="4.58677">
        <ele>725</ele>
        <time>2025-12-15T14:01:27Z</time>
      </trkpt>
      <trkpt lat="45.70648" lon="4.58677">
        <ele>725</ele>
        <time>2025-12-15T14:01:28Z</time>
      </trkpt>
      <trkpt lat="45.70647" lon="4.58678">
        <ele>724.8</ele>
        <time>2025-12-15T14:01:29Z</time>
      </trkpt>
      <trkpt lat="45.70645" lon="4.58678">
        <ele>724.8</ele>
        <time>2025-12-15T14:01:30Z</time>
      </trkpt>
      <trkpt lat="45.70643" lon="4.58678">
        <ele>724.8</ele>
        <time>2025-12-15T14:01:31Z</time>
      </trkpt>
      <trkpt lat="45.7064" lon="4.58679">
        <ele>724.6</ele>
        <time>2025-12-15T14:01:32Z</time>
      </trkpt>
      <trkpt lat="45.70637" lon="4.58679">
        <ele>724.4</ele>
        <time>2025-12-15T14:01:33Z</time>
      </trkpt>
      <trkpt lat="45.70635" lon="4.58679">
        <ele>724.2</ele>
        <time>2025-12-15T14:01:34Z</time>
      </trkpt>
      <trkpt lat="45.70632" lon="4.58678">
        <ele>723.8</ele>
        <time>2025-12-15T14:01:35Z</time>
      </trkpt>
      <trkpt lat="45.70628" lon="4.58677">
        <ele>723.4</ele>
        <time>2025-12-15T14:01:36Z</time>
      </trkpt>
      <trkpt lat="45.70624" lon="4.58674">
        <ele>722.8</ele>
        <time>2025-12-15T14:01:37Z</time>
      </trkpt>
      <trkpt lat="45.7062" lon="4.5867">
        <ele>722.2</ele>
        <time>2025-12-15T14:01:38Z</time>
      </trkpt>
      <trkpt lat="45.70616" lon="4.58666">
        <ele>721.4</ele>
        <time>2025-12-15T14:01:39Z</time>
      </trkpt>
      <trkpt lat="45.70612" lon="4.58662">
        <ele>720.6</ele>
        <time>2025-12-15T14:01:40Z</time>
      </trkpt>
      <trkpt lat="45.70608" lon="4.58656">
        <ele>719.8</ele>
        <time>2025-12-15T14:01:41Z</time>
      </trkpt>
      <trkpt lat="45.70603" lon="4.58649">
        <ele>718.8</ele>
        <time>2025-12-15T14:01:42Z</time>
      </trkpt>
      <trkpt lat="45.70598" lon="4.58641">
        <ele>717.6</ele>
        <time>2025-12-15T14:01:43Z</time>
      </trkpt>
      <trkpt lat="45.70594" lon="4.58633">
        <ele>716.2</ele>
        <time>2025-12-15T14:01:44Z</time>
      </trkpt>
      <trkpt lat="45.70589" lon="4.58623">
        <ele>715</ele>
        <time>2025-12-15T14:01:45Z</time>
      </trkpt>
      <trkpt lat="45.70586" lon="4.58614">
        <ele>713.8</ele>
        <time>2025-12-15T14:01:46Z</time>
      </trkpt>
      <trkpt lat="45.70583" lon="4.58606">
        <ele>712.6</ele>
        <time>2025-12-15T14:01:47Z</time>
      </trkpt>
      <trkpt lat="45.7058" lon="4.58598">
        <ele>711.8</ele>
        <time>2025-12-15T14:01:48Z</time>
      </trkpt>
      <trkpt lat="45.70578" lon="4.58592">
        <ele>711.2</ele>
        <time>2025-12-15T14:01:49Z</time>
      </trkpt>
      <trkpt lat="45.70577" lon="4.58586">
        <ele>710.6</ele>
        <time>2025-12-15T14:01:50Z</time>
      </trkpt>
      <trkpt lat="45.70575" lon="4.58581">
        <ele>710</ele>
        <time>2025-12-15T14:01:51Z</time>
      </trkpt>
      <trkpt lat="45.70573" lon="4.58577">
        <ele>709.6</ele>
        <time>2025-12-15T14:01:52Z</time>
      </trkpt>
      <trkpt lat="45.70571" lon="4.58572">
        <ele>709</ele>
        <time>2025-12-15T14:01:53Z</time>
      </trkpt>
      <trkpt lat="45.70569" lon="4.58567">
        <ele>708.4</ele>
        <time>2025-12-15T14:01:54Z</time>
      </trkpt>
      <trkpt lat="45.70567" lon="4.58561">
        <ele>707.8</ele>
        <time>2025-12-15T14:01:55Z</time>
      </trkpt>
      <trkpt lat="45.70564" lon="4.58554">
        <ele>707</ele>
        <time>2025-12-15T14:01:56Z</time>
      </trkpt>
      <trkpt lat="45.70562" lon="4.58545">
        <ele>706.2</ele>
        <time>2025-12-15T14:01:57Z</time>
      </trkpt>
      <trkpt lat="45.70558" lon="4.58536">
        <ele>705.2</ele>
        <time>2025-12-15T14:01:58Z</time>
      </trkpt>
      <trkpt lat="45.70553" lon="4.58527">
        <ele>704</ele>
        <time>2025-12-15T14:01:59Z</time>
      </trkpt>
      <trkpt lat="45.70548" lon="4.5852">
        <ele>702.6</ele>
        <time>2025-12-15T14:02:00Z</time>
      </trkpt>
      <trkpt lat="45.70542" lon="4.58514">
        <ele>701.6</ele>
        <time>2025-12-15T14:02:01Z</time>
      </trkpt>
      <trkpt lat="45.70536" lon="4.5851">
        <ele>700.4</ele>
        <time>2025-12-15T14:02:02Z</time>
      </trkpt>
      <trkpt lat="45.7053" lon="4.58507">
        <ele>699.6</ele>
        <time>2025-12-15T14:02:03Z</time>
      </trkpt>
      <trkpt lat="45.70523" lon="4.58506">
        <ele>698.8</ele>
        <time>2025-12-15T14:02:04Z</time>
      </trkpt>
      <trkpt lat="45.70517" lon="4.58506">
        <ele>698.2</ele>
        <time>2025-12-15T14:02:05Z</time>
      </trkpt>
      <trkpt lat="45.70511" lon="4.58507">
        <ele>697.8</ele>
        <time>2025-12-15T14:02:06Z</time>
      </trkpt>
      <trkpt lat="45.70507" lon="4.58509">
        <ele>697.4</ele>
        <time>2025-12-15T14:02:07Z</time>
      </trkpt>
      <trkpt lat="45.70504" lon="4.5851">
        <ele>697.4</ele>
        <time>2025-12-15T14:02:08Z</time>
      </trkpt>
      <trkpt lat="45.70501" lon="4.5851">
        <ele>697.4</ele>
        <time>2025-12-15T14:02:09Z</time>
      </trkpt>
      <trkpt lat="45.70498" lon="4.5851">
        <ele>697.6</ele>
        <time>2025-12-15T14:02:10Z</time>
      </trkpt>
      <trkpt lat="45.70495" lon="4.5851">
        <ele>697.6</ele>
        <time>2025-12-15T14:02:11Z</time>
      </trkpt>
      <trkpt lat="45.70491" lon="4.5851">
        <ele>697.6</ele>
        <time>2025-12-15T14:02:12Z</time>
      </trkpt>
      <trkpt lat="45.70487" lon="4.5851">
        <ele>697.4</ele>
        <time>2025-12-15T14:02:13Z</time>
      </trkpt>
      <trkpt lat="45.70483" lon="4.5851">
        <ele>697.4</ele>
        <time>2025-12-15T14:02:14Z</time>
      </trkpt>
      <trkpt lat="45.70479" lon="4.58511">
        <ele>697.2</ele>
        <time>2025-12-15T14:02:15Z</time>
      </trkpt>
      <trkpt lat="45.70474" lon="4.58512">
        <ele>697.2</ele>
        <time>2025-12-15T14:02:16Z</time>
      </trkpt>
      <trkpt lat="45.70469" lon="4.58514">
        <ele>697</ele>
        <time>2025-12-15T14:02:17Z</time>
      </trkpt>
      <trkpt lat="45.70464" lon="4.58515">
        <ele>697</ele>
        <time>2025-12-15T14:02:18Z</time>
      </trkpt>
      <trkpt lat="45.70459" lon="4.58516">
        <ele>696.6</ele>
        <time>2025-12-15T14:02:19Z</time>
      </trkpt>
      <trkpt lat="45.70453" lon="4.58516">
        <ele>696.4</ele>
        <time>2025-12-15T14:02:20Z</time>
      </trkpt>
      <trkpt lat="45.70447" lon="4.58517">
        <ele>696</ele>
        <time>2025-12-15T14:02:21Z</time>
      </trkpt>
      <trkpt lat="45.70442" lon="4.58517">
        <ele>695.6</ele>
        <time>2025-12-15T14:02:22Z</time>
      </trkpt>
      <trkpt lat="45.70437" lon="4.58518">
        <ele>695.2</ele>
        <time>2025-12-15T14:02:23Z</time>
      </trkpt>
      <trkpt lat="45.70432" lon="4.58518">
        <ele>694.8</ele>
        <time>2025-12-15T14:02:24Z</time>
      </trkpt>
      <trkpt lat="45.70425" lon="4.58518">
        <ele>694.4</ele>
        <time>2025-12-15T14:02:25Z</time>
      </trkpt>
      <trkpt lat="45.70419" lon="4.58518">
        <ele>694</ele>
        <time>2025-12-15T14:02:26Z</time>
      </trkpt>
      <trkpt lat="45.70413" lon="4.58518">
        <ele>693.6</ele>
        <time>2025-12-15T14:02:27Z</time>
      </trkpt>
      <trkpt lat="45.70406" lon="4.58519">
        <ele>693.2</ele>
        <time>2025-12-15T14:02:28Z</time>
      </trkpt>
      <trkpt lat="45.70399" lon="4.58521">
        <ele>692.8</ele>
        <time>2025-12-15T14:02:29Z</time>
      </trkpt>
      <trkpt lat="45.70393" lon="4.58521">
        <ele>692.6</ele>
        <time>2025-12-15T14:02:30Z</time>
      </trkpt>
      <trkpt lat="45.70387" lon="4.58522">
        <ele>692.4</ele>
        <time>2025-12-15T14:02:31Z</time>
      </trkpt>
      <trkpt lat="45.7038" lon="4.58522">
        <ele>692.2</ele>
        <time>2025-12-15T14:02:32Z</time>
      </trkpt>
      <trkpt lat="45.70374" lon="4.58522">
        <ele>692</ele>
        <time>2025-12-15T14:02:33Z</time>
      </trkpt>
      <trkpt lat="45.70368" lon="4.58522">
        <ele>691.8</ele>
        <time>2025-12-15T14:02:34Z</time>
      </trkpt>
      <trkpt lat="45.70362" lon="4.58523">
        <ele>691.6</ele>
        <time>2025-12-15T14:02:35Z</time>
      </trkpt>
      <trkpt lat="45.70356" lon="4.58523">
        <ele>691.4</ele>
        <time>2025-12-15T14:02:36Z</time>
      </trkpt>
      <trkpt lat="45.7035" lon="4.58523">
        <ele>691.2</ele>
        <time>2025-12-15T14:02:37Z</time>
      </trkpt>
      <trkpt lat="45.70344" lon="4.58524">
        <ele>691</ele>
        <time>2025-12-15T14:02:38Z</time>
      </trkpt>
      <trkpt lat="45.70338" lon="4.58525">
        <ele>690.8</ele>
        <time>2025-12-15T14:02:39Z</time>
      </trkpt>
      <trkpt lat="45.70332" lon="4.58526">
        <ele>690.6</ele>
        <time>2025-12-15T14:02:40Z</time>
      </trkpt>
      <trkpt lat="45.70327" lon="4.58527">
        <ele>690.4</ele>
        <time>2025-12-15T14:02:41Z</time>
      </trkpt>
      <trkpt lat="45.70321" lon="4.58527">
        <ele>690.2</ele>
        <time>2025-12-15T14:02:42Z</time>
      </trkpt>
      <trkpt lat="45.70315" lon="4.58528">
        <ele>690</ele>
        <time>2025-12-15T14:02:43Z</time>
      </trkpt>
      <trkpt lat="45.7031" lon="4.58527">
        <ele>689.8</ele>
        <time>2025-12-15T14:02:44Z</time>
      </trkpt>
      <trkpt lat="45.70305" lon="4.58525">
        <ele>689.6</ele>
        <time>2025-12-15T14:02:45Z</time>
      </trkpt>
      <trkpt lat="45.70299" lon="4.58524">
        <ele>689.4</ele>
        <time>2025-12-15T14:02:46Z</time>
      </trkpt>
      <trkpt lat="45.70294" lon="4.58523">
        <ele>689</ele>
        <time>2025-12-15T14:02:47Z</time>
      </trkpt>
      <trkpt lat="45.70288" lon="4.58523">
        <ele>688.6</ele>
        <time>2025-12-15T14:02:48Z</time>
      </trkpt>
      <trkpt lat="45.70281" lon="4.58521">
        <ele>688.2</ele>
        <time>2025-12-15T14:02:49Z</time>
      </trkpt>
      <trkpt lat="45.70275" lon="4.58518">
        <ele>687.4</ele>
        <time>2025-12-15T14:02:50Z</time>
      </trkpt>
      <trkpt lat="45.70268" lon="4.58512">
        <ele>686.6</ele>
        <time>2025-12-15T14:02:51Z</time>
      </trkpt>
      <trkpt lat="45.70262" lon="4.58507">
        <ele>685.8</ele>
        <time>2025-12-15T14:02:52Z</time>
      </trkpt>
      <trkpt lat="45.70255" lon="4.58501">
        <ele>685</ele>
        <time>2025-12-15T14:02:53Z</time>
      </trkpt>
      <trkpt lat="45.70249" lon="4.58494">
        <ele>684.4</ele>
        <time>2025-12-15T14:02:54Z</time>
      </trkpt>
      <trkpt lat="45.70243" lon="4.58486">
        <ele>683.6</ele>
        <time>2025-12-15T14:02:55Z</time>
      </trkpt>
      <trkpt lat="45.70238" lon="4.58477">
        <ele>682.8</ele>
        <time>2025-12-15T14:02:56Z</time>
      </trkpt>
      <trkpt lat="45.70233" lon="4.58467">
        <ele>681.6</ele>
        <time>2025-12-15T14:02:57Z</time>
      </trkpt>
      <trkpt lat="45.70228" lon="4.58455">
        <ele>680.4</ele>
        <time>2025-12-15T14:02:58Z</time>
      </trkpt>
      <trkpt lat="45.70224" lon="4.58443">
        <ele>679</ele>
        <time>2025-12-15T14:02:59Z</time>
      </trkpt>
      <trkpt lat="45.70218" lon="4.58431">
        <ele>677.4</ele>
        <time>2025-12-15T14:03:00Z</time>
      </trkpt>
      <trkpt lat="45.70213" lon="4.58419">
        <ele>675.8</ele>
        <time>2025-12-15T14:03:01Z</time>
      </trkpt>
      <trkpt lat="45.70206" lon="4.58408">
        <ele>674.2</ele>
        <time>2025-12-15T14:03:02Z</time>
      </trkpt>
      <trkpt lat="45.70199" lon="4.58399">
        <ele>672.8</ele>
        <time>2025-12-15T14:03:03Z</time>
      </trkpt>
      <trkpt lat="45.70192" lon="4.5839">
        <ele>671.8</ele>
        <time>2025-12-15T14:03:04Z</time>
      </trkpt>
      <trkpt lat="45.70186" lon="4.58383">
        <ele>671</ele>
        <time>2025-12-15T14:03:05Z</time>
      </trkpt>
      <trkpt lat="45.70181" lon="4.58376">
        <ele>670.4</ele>
        <time>2025-12-15T14:03:06Z</time>
      </trkpt>
      <trkpt lat="45.70177" lon="4.58369">
        <ele>670</ele>
        <time>2025-12-15T14:03:07Z</time>
      </trkpt>
      <trkpt lat="45.70173" lon="4.58363">
        <ele>669.8</ele>
        <time>2025-12-15T14:03:08Z</time>
      </trkpt>
      <trkpt lat="45.70169" lon="4.58358">
        <ele>669.8</ele>
        <time>2025-12-15T14:03:09Z</time>
      </trkpt>
      <trkpt lat="45.70167" lon="4.58353">
        <ele>669.6</ele>
        <time>2025-12-15T14:03:10Z</time>
      </trkpt>
      <trkpt lat="45.70165" lon="4.58349">
        <ele>669.6</ele>
        <time>2025-12-15T14:03:11Z</time>
      </trkpt>
      <trkpt lat="45.70163" lon="4.58345">
        <ele>669.6</ele>
        <time>2025-12-15T14:03:12Z</time>
      </trkpt>
      <trkpt lat="45.70161" lon="4.58341">
        <ele>669.4</ele>
        <time>2025-12-15T14:03:13Z</time>
      </trkpt>
      <trkpt lat="45.70159" lon="4.58336">
        <ele>669.4</ele>
        <time>2025-12-15T14:03:14Z</time>
      </trkpt>
      <trkpt lat="45.70157" lon="4.58331">
        <ele>669</ele>
        <time>2025-12-15T14:03:15Z</time>
      </trkpt>
      <trkpt lat="45.70154" lon="4.58324">
        <ele>668.6</ele>
        <time>2025-12-15T14:03:16Z</time>
      </trkpt>
      <trkpt lat="45.70152" lon="4.58318">
        <ele>668.2</ele>
        <time>2025-12-15T14:03:17Z</time>
      </trkpt>
      <trkpt lat="45.7015" lon="4.5831">
        <ele>667.6</ele>
        <time>2025-12-15T14:03:18Z</time>
      </trkpt>
      <trkpt lat="45.70147" lon="4.58302">
        <ele>667</ele>
        <time>2025-12-15T14:03:19Z</time>
      </trkpt>
      <trkpt lat="45.70145" lon="4.58294">
        <ele>666.4</ele>
        <time>2025-12-15T14:03:20Z</time>
      </trkpt>
      <trkpt lat="45.70142" lon="4.58284">
        <ele>665.8</ele>
        <time>2025-12-15T14:03:21Z</time>
      </trkpt>
      <trkpt lat="45.7014" lon="4.58275">
        <ele>665</ele>
        <time>2025-12-15T14:03:22Z</time>
      </trkpt>
      <trkpt lat="45.70137" lon="4.58265">
        <ele>664.2</ele>
        <time>2025-12-15T14:03:23Z</time>
      </trkpt>
      <trkpt lat="45.70134" lon="4.58254">
        <ele>663.2</ele>
        <time>2025-12-15T14:03:24Z</time>
      </trkpt>
      <trkpt lat="45.70132" lon="4.58242">
        <ele>662</ele>
        <time>2025-12-15T14:03:25Z</time>
      </trkpt>
      <trkpt lat="45.7013" lon="4.58229">
        <ele>660.8</ele>
        <time>2025-12-15T14:03:26Z</time>
      </trkpt>
      <trkpt lat="45.7013" lon="4.58215">
        <ele>659.4</ele>
        <time>2025-12-15T14:03:27Z</time>
      </trkpt>
      <trkpt lat="45.7013" lon="4.582">
        <ele>658</ele>
        <time>2025-12-15T14:03:28Z</time>
      </trkpt>
      <trkpt lat="45.70131" lon="4.58184">
        <ele>656.4</ele>
        <time>2025-12-15T14:03:29Z</time>
      </trkpt>
      <trkpt lat="45.70132" lon="4.58168">
        <ele>655</ele>
        <time>2025-12-15T14:03:30Z</time>
      </trkpt>
      <trkpt lat="45.70133" lon="4.58151">
        <ele>653.4</ele>
        <time>2025-12-15T14:03:31Z</time>
      </trkpt>
      <trkpt lat="45.70135" lon="4.58134">
        <ele>651.8</ele>
        <time>2025-12-15T14:03:32Z</time>
      </trkpt>
      <trkpt lat="45.70137" lon="4.58117">
        <ele>650.4</ele>
        <time>2025-12-15T14:03:33Z</time>
      </trkpt>
      <trkpt lat="45.70137" lon="4.581">
        <ele>649.2</ele>
        <time>2025-12-15T14:03:34Z</time>
      </trkpt>
      <trkpt lat="45.70137" lon="4.58085">
        <ele>648.2</ele>
        <time>2025-12-15T14:03:35Z</time>
      </trkpt>
      <trkpt lat="45.70134" lon="4.58072">
        <ele>648</ele>
        <time>2025-12-15T14:03:36Z</time>
      </trkpt>
      <trkpt lat="45.70132" lon="4.58061">
        <ele>648.2</ele>
        <time>2025-12-15T14:03:37Z</time>
      </trkpt>
      <trkpt lat="45.70129" lon="4.5805">
        <ele>648.8</ele>
        <time>2025-12-15T14:03:38Z</time>
      </trkpt>
      <trkpt lat="45.70127" lon="4.58041">
        <ele>649.6</ele>
        <time>2025-12-15T14:03:39Z</time>
      </trkpt>
      <trkpt lat="45.70125" lon="4.58032">
        <ele>650.6</ele>
        <time>2025-12-15T14:03:40Z</time>
      </trkpt>
      <trkpt lat="45.70122" lon="4.58023">
        <ele>651.6</ele>
        <time>2025-12-15T14:03:41Z</time>
      </trkpt>
      <trkpt lat="45.70119" lon="4.58014">
        <ele>652.2</ele>
        <time>2025-12-15T14:03:42Z</time>
      </trkpt>
      <trkpt lat="45.70117" lon="4.58005">
        <ele>652.8</ele>
        <time>2025-12-15T14:03:43Z</time>
      </trkpt>
      <trkpt lat="45.70115" lon="4.57996">
        <ele>653.2</ele>
        <time>2025-12-15T14:03:44Z</time>
      </trkpt>
      <trkpt lat="45.70112" lon="4.57987">
        <ele>653.4</ele>
        <time>2025-12-15T14:03:45Z</time>
      </trkpt>
      <trkpt lat="45.7011" lon="4.57978">
        <ele>653.4</ele>
        <time>2025-12-15T14:03:46Z</time>
      </trkpt>
      <trkpt lat="45.70107" lon="4.57968">
        <ele>653.2</ele>
        <time>2025-12-15T14:03:47Z</time>
      </trkpt>
      <trkpt lat="45.70104" lon="4.57958">
        <ele>652.6</ele>
        <time>2025-12-15T14:03:48Z</time>
      </trkpt>
      <trkpt lat="45.70102" lon="4.57948">
        <ele>652</ele>
        <time>2025-12-15T14:03:49Z</time>
      </trkpt>
      <trkpt lat="45.70099" lon="4.57937">
        <ele>651.4</ele>
        <time>2025-12-15T14:03:50Z</time>
      </trkpt>
      <trkpt lat="45.70096" lon="4.57926">
        <ele>650.8</ele>
        <time>2025-12-15T14:03:51Z</time>
      </trkpt>
      <trkpt lat="45.70093" lon="4.57915">
        <ele>650.2</ele>
        <time>2025-12-15T14:03:52Z</time>
      </trkpt>
      <trkpt lat="45.7009" lon="4.57904">
        <ele>649.8</ele>
        <time>2025-12-15T14:03:53Z</time>
      </trkpt>
      <trkpt lat="45.70087" lon="4.57894">
        <ele>649.6</ele>
        <time>2025-12-15T14:03:54Z</time>
      </trkpt>
      <trkpt lat="45.70083" lon="4.57883">
        <ele>649.2</ele>
        <time>2025-12-15T14:03:55Z</time>
      </trkpt>
      <trkpt lat="45.7008" lon="4.57871">
        <ele>649</ele>
        <time>2025-12-15T14:03:56Z</time>
      </trkpt>
      <trkpt lat="45.70077" lon="4.5786">
        <ele>648.6</ele>
        <time>2025-12-15T14:03:57Z</time>
      </trkpt>
      <trkpt lat="45.70074" lon="4.57849">
        <ele>648.4</ele>
        <time>2025-12-15T14:03:58Z</time>
      </trkpt>
      <trkpt lat="45.70071" lon="4.5784">
        <ele>648</ele>
        <time>2025-12-15T14:03:59Z</time>
      </trkpt>
      <trkpt lat="45.70068" lon="4.57831">
        <ele>647.8</ele>
        <time>2025-12-15T14:04:00Z</time>
      </trkpt>
      <trkpt lat="45.70064" lon="4.57823">
        <ele>647.4</ele>
        <time>2025-12-15T14:04:01Z</time>
      </trkpt>
      <trkpt lat="45.70059" lon="4.57815">
        <ele>647.2</ele>
        <time>2025-12-15T14:04:02Z</time>
      </trkpt>
      <trkpt lat="45.70055" lon="4.57809">
        <ele>646.8</ele>
        <time>2025-12-15T14:04:03Z</time>
      </trkpt>
      <trkpt lat="45.70052" lon="4.57804">
        <ele>646.6</ele>
        <time>2025-12-15T14:04:04Z</time>
      </trkpt>
      <trkpt lat="45.70048" lon="4.57802">
        <ele>646.4</ele>
        <time>2025-12-15T14:04:05Z</time>
      </trkpt>
      <trkpt lat="45.70044" lon="4.57801">
        <ele>646.4</ele>
        <time>2025-12-15T14:04:06Z</time>
      </trkpt>
      <trkpt lat="45.70041" lon="4.57799">
        <ele>646.4</ele>
        <time>2025-12-15T14:04:07Z</time>
      </trkpt>
      <trkpt lat="45.70038" lon="4.57795">
        <ele>646.6</ele>
        <time>2025-12-15T14:04:08Z</time>
      </trkpt>
      <trkpt lat="45.70036" lon="4.57789">
        <ele>646.4</ele>
        <time>2025-12-15T14:04:09Z</time>
      </trkpt>
      <trkpt lat="45.70034" lon="4.57782">
        <ele>645.8</ele>
        <time>2025-12-15T14:04:10Z</time>
      </trkpt>
      <trkpt lat="45.70032" lon="4.57774">
        <ele>645.2</ele>
        <time>2025-12-15T14:04:11Z</time>
      </trkpt>
      <trkpt lat="45.7003" lon="4.57764">
        <ele>644.2</ele>
        <time>2025-12-15T14:04:12Z</time>
      </trkpt>
      <trkpt lat="45.70028" lon="4.57754">
        <ele>643.2</ele>
        <time>2025-12-15T14:04:13Z</time>
      </trkpt>
      <trkpt lat="45.70026" lon="4.57743">
        <ele>641.6</ele>
        <time>2025-12-15T14:04:14Z</time>
      </trkpt>
      <trkpt lat="45.70024" lon="4.57732">
        <ele>640</ele>
        <time>2025-12-15T14:04:15Z</time>
      </trkpt>
      <trkpt lat="45.70022" lon="4.57721">
        <ele>638.6</ele>
        <time>2025-12-15T14:04:16Z</time>
      </trkpt>
      <trkpt lat="45.70019" lon="4.5771">
        <ele>637.4</ele>
        <time>2025-12-15T14:04:17Z</time>
      </trkpt>
      <trkpt lat="45.70017" lon="4.577">
        <ele>636.6</ele>
        <time>2025-12-15T14:04:18Z</time>
      </trkpt>
      <trkpt lat="45.70015" lon="4.57691">
        <ele>635.8</ele>
        <time>2025-12-15T14:04:19Z</time>
      </trkpt>
      <trkpt lat="45.70012" lon="4.57683">
        <ele>635.2</ele>
        <time>2025-12-15T14:04:20Z</time>
      </trkpt>
      <trkpt lat="45.7001" lon="4.57676">
        <ele>634.6</ele>
        <time>2025-12-15T14:04:21Z</time>
      </trkpt>
      <trkpt lat="45.70007" lon="4.57668">
        <ele>634</ele>
        <time>2025-12-15T14:04:22Z</time>
      </trkpt>
      <trkpt lat="45.70004" lon="4.57663">
        <ele>633.6</ele>
        <time>2025-12-15T14:04:23Z</time>
      </trkpt>
      <trkpt lat="45.7" lon="4.57659">
        <ele>633</ele>
        <time>2025-12-15T14:04:24Z</time>
      </trkpt>
      <trkpt lat="45.69995" lon="4.57659">
        <ele>632.2</ele>
        <time>2025-12-15T14:04:25Z</time>
      </trkpt>
      <trkpt lat="45.6999" lon="4.5766">
        <ele>631.4</ele>
        <time>2025-12-15T14:04:26Z</time>
      </trkpt>
      <trkpt lat="45.69986" lon="4.57664">
        <ele>630.8</ele>
        <time>2025-12-15T14:04:27Z</time>
      </trkpt>
      <trkpt lat="45.69983" lon="4.57669">
        <ele>630.2</ele>
        <time>2025-12-15T14:04:28Z</time>
      </trkpt>
      <trkpt lat="45.6998" lon="4.57674">
        <ele>629.8</ele>
        <time>2025-12-15T14:04:29Z</time>
      </trkpt>
      <trkpt lat="45.69978" lon="4.57678">
        <ele>629.6</ele>
        <time>2025-12-15T14:04:30Z</time>
      </trkpt>
      <trkpt lat="45.69975" lon="4.57681">
        <ele>629.8</ele>
        <time>2025-12-15T14:04:31Z</time>
      </trkpt>
      <trkpt lat="45.69972" lon="4.57684">
        <ele>630</ele>
        <time>2025-12-15T14:04:32Z</time>
      </trkpt>
      <trkpt lat="45.69969" lon="4.57687">
        <ele>630.2</ele>
        <time>2025-12-15T14:04:33Z</time>
      </trkpt>
      <trkpt lat="45.69968" lon="4.57691">
        <ele>630.6</ele>
        <time>2025-12-15T14:04:34Z</time>
      </trkpt>
      <trkpt lat="45.69967" lon="4.57696">
        <ele>630.8</ele>
        <time>2025-12-15T14:04:35Z</time>
      </trkpt>
      <trkpt lat="45.69966" lon="4.577">
        <ele>631.2</ele>
        <time>2025-12-15T14:04:36Z</time>
      </trkpt>
      <trkpt lat="45.69966" lon="4.57705">
        <ele>631.6</ele>
        <time>2025-12-15T14:04:37Z</time>
      </trkpt>
      <trkpt lat="45.69965" lon="4.5771">
        <ele>632</ele>
        <time>2025-12-15T14:04:38Z</time>
      </trkpt>
      <trkpt lat="45.69964" lon="4.57715">
        <ele>632.2</ele>
        <time>2025-12-15T14:04:39Z</time>
      </trkpt>
      <trkpt lat="45.69963" lon="4.57721">
        <ele>632.4</ele>
        <time>2025-12-15T14:04:40Z</time>
      </trkpt>
      <trkpt lat="45.69963" lon="4.57726">
        <ele>632.4</ele>
        <time>2025-12-15T14:04:41Z</time>
      </trkpt>
      <trkpt lat="45.69962" lon="4.57732">
        <ele>632.4</ele>
        <time>2025-12-15T14:04:42Z</time>
      </trkpt>
      <trkpt lat="45.6996" lon="4.57738">
        <ele>632.2</ele>
        <time>2025-12-15T14:04:43Z</time>
      </trkpt>
      <trkpt lat="45.69959" lon="4.57746">
        <ele>631.8</ele>
        <time>2025-12-15T14:04:44Z</time>
      </trkpt>
      <trkpt lat="45.69957" lon="4.57754">
        <ele>631.4</ele>
        <time>2025-12-15T14:04:45Z</time>
      </trkpt>
      <trkpt lat="45.69954" lon="4.57762">
        <ele>631</ele>
        <time>2025-12-15T14:04:46Z</time>
      </trkpt>
      <trkpt lat="45.69952" lon="4.57769">
        <ele>630.4</ele>
        <time>2025-12-15T14:04:47Z</time>
      </trkpt>
      <trkpt lat="45.69948" lon="4.57776">
        <ele>630</ele>
        <time>2025-12-15T14:04:48Z</time>
      </trkpt>
      <trkpt lat="45.69945" lon="4.57783">
        <ele>629.6</ele>
        <time>2025-12-15T14:04:49Z</time>
      </trkpt>
      <trkpt lat="45.69941" lon="4.57789">
        <ele>629.2</ele>
        <time>2025-12-15T14:04:50Z</time>
      </trkpt>
      <trkpt lat="45.69938" lon="4.57794">
        <ele>629</ele>
        <time>2025-12-15T14:04:51Z</time>
      </trkpt>
      <trkpt lat="45.69935" lon="4.578">
        <ele>629</ele>
        <time>2025-12-15T14:04:52Z</time>
      </trkpt>
      <trkpt lat="45.69932" lon="4.57805">
        <ele>629</ele>
        <time>2025-12-15T14:04:53Z</time>
      </trkpt>
      <trkpt lat="45.6993" lon="4.57811">
        <ele>629</ele>
        <time>2025-12-15T14:04:54Z</time>
      </trkpt>
      <trkpt lat="45.69928" lon="4.57818">
        <ele>629.2</ele>
        <time>2025-12-15T14:04:55Z</time>
      </trkpt>
      <trkpt lat="45.69926" lon="4.57826">
        <ele>629.2</ele>
        <time>2025-12-15T14:04:56Z</time>
      </trkpt>
      <trkpt lat="45.69925" lon="4.57833">
        <ele>629</ele>
        <time>2025-12-15T14:04:57Z</time>
      </trkpt>
      <trkpt lat="45.69924" lon="4.57841">
        <ele>629</ele>
        <time>2025-12-15T14:04:58Z</time>
      </trkpt>
      <trkpt lat="45.69923" lon="4.57847">
        <ele>629</ele>
        <time>2025-12-15T14:04:59Z</time>
      </trkpt>
      <trkpt lat="45.69922" lon="4.57853">
        <ele>629</ele>
        <time>2025-12-15T14:05:00Z</time>
      </trkpt>
      <trkpt lat="45.6992" lon="4.57859">
        <ele>629</ele>
        <time>2025-12-15T14:05:01Z</time>
      </trkpt>
      <trkpt lat="45.69918" lon="4.57866">
        <ele>628.8</ele>
        <time>2025-12-15T14:05:02Z</time>
      </trkpt>
      <trkpt lat="45.69916" lon="4.57874">
        <ele>629</ele>
        <time>2025-12-15T14:05:03Z</time>
      </trkpt>
      <trkpt lat="45.69915" lon="4.57881">
        <ele>629</ele>
        <time>2025-12-15T14:05:04Z</time>
      </trkpt>
      <trkpt lat="45.69914" lon="4.57888">
        <ele>629.2</ele>
        <time>2025-12-15T14:05:05Z</time>
      </trkpt>
      <trkpt lat="45.69911" lon="4.57894">
        <ele>629.4</ele>
        <time>2025-12-15T14:05:06Z</time>
      </trkpt>
      <trkpt lat="45.69908" lon="4.579">
        <ele>629.6</ele>
        <time>2025-12-15T14:05:07Z</time>
      </trkpt>
      <trkpt lat="45.69906" lon="4.57906">
        <ele>629.8</ele>
        <time>2025-12-15T14:05:08Z</time>
      </trkpt>
      <trkpt lat="45.69904" lon="4.57912">
        <ele>630</ele>
        <time>2025-12-15T14:05:09Z</time>
      </trkpt>
      <trkpt lat="45.69901" lon="4.57919">
        <ele>630.4</ele>
        <time>2025-12-15T14:05:10Z</time>
      </trkpt>
      <trkpt lat="45.69899" lon="4.57925">
        <ele>630.6</ele>
        <time>2025-12-15T14:05:11Z</time>
      </trkpt>
      <trkpt lat="45.69898" lon="4.57929">
        <ele>631</ele>
        <time>2025-12-15T14:05:12Z</time>
      </trkpt>
      <trkpt lat="45.69896" lon="4.57935">
        <ele>631.2</ele>
        <time>2025-12-15T14:05:13Z</time>
      </trkpt>
      <trkpt lat="45.69895" lon="4.5794">
        <ele>631.6</ele>
        <time>2025-12-15T14:05:14Z</time>
      </trkpt>
      <trkpt lat="45.69894" lon="4.57945">
        <ele>631.8</ele>
        <time>2025-12-15T14:05:15Z</time>
      </trkpt>
      <trkpt lat="45.69893" lon="4.57949">
        <ele>632</ele>
        <time>2025-12-15T14:05:16Z</time>
      </trkpt>
      <trkpt lat="45.69891" lon="4.57953">
        <ele>632.4</ele>
        <time>2025-12-15T14:05:17Z</time>
      </trkpt>
      <trkpt lat="45.6989" lon="4.57957">
        <ele>632.8</ele>
        <time>2025-12-15T14:05:18Z</time>
      </trkpt>
      <trkpt lat="45.69889" lon="4.5796">
        <ele>633.2</ele>
        <time>2025-12-15T14:05:19Z</time>
      </trkpt>
      <trkpt lat="45.69887" lon="4.57964">
        <ele>633.6</ele>
        <time>2025-12-15T14:05:20Z</time>
      </trkpt>
      <trkpt lat="45.69885" lon="4.57968">
        <ele>634</ele>
        <time>2025-12-15T14:05:21Z</time>
      </trkpt>
      <trkpt lat="45.69883" lon="4.57972">
        <ele>634.4</ele>
        <time>2025-12-15T14:05:22Z</time>
      </trkpt>
      <trkpt lat="45.69882" lon="4.57976">
        <ele>634.8</ele>
        <time>2025-12-15T14:05:23Z</time>
      </trkpt>
      <trkpt lat="45.69881" lon="4.57981">
        <ele>635.2</ele>
        <time>2025-12-15T14:05:24Z</time>
      </trkpt>
      <trkpt lat="45.69879" lon="4.57986">
        <ele>635.8</ele>
        <time>2025-12-15T14:05:25Z</time>
      </trkpt>
      <trkpt lat="45.69874" lon="4.5799">
        <ele>636.2</ele>
        <time>2025-12-15T14:05:26Z</time>
      </trkpt>
      <trkpt lat="45.69872" lon="4.57994">
        <ele>636.8</ele>
        <time>2025-12-15T14:05:27Z</time>
      </trkpt>
      <trkpt lat="45.6987" lon="4.57999">
        <ele>637.4</ele>
        <time>2025-12-15T14:05:28Z</time>
      </trkpt>
      <trkpt lat="45.69868" lon="4.58003">
        <ele>637.8</ele>
        <time>2025-12-15T14:05:29Z</time>
      </trkpt>
      <trkpt lat="45.69866" lon="4.58003">
        <ele>638.4</ele>
        <time>2025-12-15T14:05:30Z</time>
      </trkpt>
      <trkpt lat="45.69864" lon="4.58004">
        <ele>639</ele>
        <time>2025-12-15T14:05:31Z</time>
      </trkpt>
      <trkpt lat="45.69863" lon="4.58007">
        <ele>639.6</ele>
        <time>2025-12-15T14:05:32Z</time>
      </trkpt>
      <trkpt lat="45.69862" lon="4.5801">
        <ele>640.2</ele>
        <time>2025-12-15T14:05:33Z</time>
      </trkpt>
      <trkpt lat="45.6986" lon="4.58012">
        <ele>640.8</ele>
        <time>2025-12-15T14:05:34Z</time>
      </trkpt>
      <trkpt lat="45.69859" lon="4.58014">
        <ele>641.2</ele>
        <time>2025-12-15T14:05:35Z</time>
      </trkpt>
      <trkpt lat="45.69858" lon="4.58016">
        <ele>641.8</ele>
        <time>2025-12-15T14:05:36Z</time>
      </trkpt>
      <trkpt lat="45.69857" lon="4.58018">
        <ele>642.2</ele>
        <time>2025-12-15T14:05:37Z</time>
      </trkpt>
      <trkpt lat="45.69855" lon="4.58022">
        <ele>642.6</ele>
        <time>2025-12-15T14:05:38Z</time>
      </trkpt>
      <trkpt lat="45.69853" lon="4.58025">
        <ele>643</ele>
        <time>2025-12-15T14:05:39Z</time>
      </trkpt>
      <trkpt lat="45.69851" lon="4.58028">
        <ele>643.4</ele>
        <time>2025-12-15T14:05:40Z</time>
      </trkpt>
      <trkpt lat="45.69848" lon="4.5803">
        <ele>643.8</ele>
        <time>2025-12-15T14:05:41Z</time>
      </trkpt>
      <trkpt lat="45.69847" lon="4.58033">
        <ele>644.2</ele>
        <time>2025-12-15T14:05:42Z</time>
      </trkpt>
      <trkpt lat="45.69846" lon="4.58035">
        <ele>644.6</ele>
        <time>2025-12-15T14:05:43Z</time>
      </trkpt>
      <trkpt lat="45.69844" lon="4.58038">
        <ele>644.8</ele>
        <time>2025-12-15T14:05:44Z</time>
      </trkpt>
      <trkpt lat="45.69842" lon="4.58041">
        <ele>644.8</ele>
        <time>2025-12-15T14:05:45Z</time>
      </trkpt>
      <trkpt lat="45.69839" lon="4.58046">
        <ele>644.8</ele>
        <time>2025-12-15T14:05:46Z</time>
      </trkpt>
      <trkpt lat="45.69835" lon="4.58051">
        <ele>644.6</ele>
        <time>2025-12-15T14:05:47Z</time>
      </trkpt>
      <trkpt lat="45.69831" lon="4.58055">
        <ele>644.6</ele>
        <time>2025-12-15T14:05:48Z</time>
      </trkpt>
      <trkpt lat="45.69829" lon="4.58061">
        <ele>644.2</ele>
        <time>2025-12-15T14:05:49Z</time>
      </trkpt>
      <trkpt lat="45.69826" lon="4.58065">
        <ele>644</ele>
        <time>2025-12-15T14:05:50Z</time>
      </trkpt>
      <trkpt lat="45.69824" lon="4.58071">
        <ele>643.8</ele>
        <time>2025-12-15T14:05:51Z</time>
      </trkpt>
      <trkpt lat="45.6982" lon="4.58078">
        <ele>643.4</ele>
        <time>2025-12-15T14:05:52Z</time>
      </trkpt>
      <trkpt lat="45.69816" lon="4.58085">
        <ele>643</ele>
        <time>2025-12-15T14:05:53Z</time>
      </trkpt>
      <trkpt lat="45.69811" lon="4.58094">
        <ele>642.6</ele>
        <time>2025-12-15T14:05:54Z</time>
      </trkpt>
      <trkpt lat="45.69806" lon="4.58099">
        <ele>642</ele>
        <time>2025-12-15T14:05:55Z</time>
      </trkpt>
      <trkpt lat="45.69803" lon="4.58102">
        <ele>641.6</ele>
        <time>2025-12-15T14:05:56Z</time>
      </trkpt>
      <trkpt lat="45.69799" lon="4.58104">
        <ele>641.2</ele>
        <time>2025-12-15T14:05:57Z</time>
      </trkpt>
      <trkpt lat="45.69795" lon="4.58105">
        <ele>640.8</ele>
        <time>2025-12-15T14:05:58Z</time>
      </trkpt>
      <trkpt lat="45.6979" lon="4.58105">
        <ele>640.4</ele>
        <time>2025-12-15T14:05:59Z</time>
      </trkpt>
      <trkpt lat="45.69785" lon="4.58104">
        <ele>640</ele>
        <time>2025-12-15T14:06:00Z</time>
      </trkpt>
      <trkpt lat="45.69781" lon="4.58103">
        <ele>639.6</ele>
        <time>2025-12-15T14:06:01Z</time>
      </trkpt>
      <trkpt lat="45.69776" lon="4.58101">
        <ele>639</ele>
        <time>2025-12-15T14:06:02Z</time>
      </trkpt>
      <trkpt lat="45.69771" lon="4.581">
        <ele>638.4</ele>
        <time>2025-12-15T14:06:03Z</time>
      </trkpt>
      <trkpt lat="45.69767" lon="4.58098">
        <ele>637.6</ele>
        <time>2025-12-15T14:06:04Z</time>
      </trkpt>
      <trkpt lat="45.69761" lon="4.58096">
        <ele>636.8</ele>
        <time>2025-12-15T14:06:05Z</time>
      </trkpt>
      <trkpt lat="45.69756" lon="4.58093">
        <ele>635.8</ele>
        <time>2025-12-15T14:06:06Z</time>
      </trkpt>
      <trkpt lat="45.69751" lon="4.5809">
        <ele>635</ele>
        <time>2025-12-15T14:06:07Z</time>
      </trkpt>
      <trkpt lat="45.69748" lon="4.58088">
        <ele>634.4</ele>
        <time>2025-12-15T14:06:08Z</time>
      </trkpt>
      <trkpt lat="45.69744" lon="4.58086">
        <ele>633.8</ele>
        <time>2025-12-15T14:06:09Z</time>
      </trkpt>
      <trkpt lat="45.6974" lon="4.58083">
        <ele>633.4</ele>
        <time>2025-12-15T14:06:10Z</time>
      </trkpt>
      <trkpt lat="45.69738" lon="4.5808">
        <ele>633.2</ele>
        <time>2025-12-15T14:06:11Z</time>
      </trkpt>
      <trkpt lat="45.69735" lon="4.58077">
        <ele>633.2</ele>
        <time>2025-12-15T14:06:12Z</time>
      </trkpt>
      <trkpt lat="45.69733" lon="4.58074">
        <ele>633.4</ele>
        <time>2025-12-15T14:06:13Z</time>
      </trkpt>
      <trkpt lat="45.69731" lon="4.58071">
        <ele>633.6</ele>
        <time>2025-12-15T14:06:14Z</time>
      </trkpt>
      <trkpt lat="45.69729" lon="4.58068">
        <ele>633.8</ele>
        <time>2025-12-15T14:06:15Z</time>
      </trkpt>
      <trkpt lat="45.69727" lon="4.58067">
        <ele>634.2</ele>
        <time>2025-12-15T14:06:16Z</time>
      </trkpt>
      <trkpt lat="45.69725" lon="4.58065">
        <ele>634.6</ele>
        <time>2025-12-15T14:06:17Z</time>
      </trkpt>
      <trkpt lat="45.69723" lon="4.58064">
        <ele>634.8</ele>
        <time>2025-12-15T14:06:18Z</time>
      </trkpt>
      <trkpt lat="45.69722" lon="4.58063">
        <ele>635</ele>
        <time>2025-12-15T14:06:19Z</time>
      </trkpt>
      <trkpt lat="45.69722" lon="4.58062">
        <ele>635.2</ele>
        <time>2025-12-15T14:06:20Z</time>
      </trkpt>
      <trkpt lat="45.69722" lon="4.58062">
        <ele>635.4</ele>
        <time>2025-12-15T14:06:21Z</time>
      </trkpt>
      <trkpt lat="45.69722" lon="4.58062">
        <ele>635.6</ele>
        <time>2025-12-15T14:06:22Z</time>
      </trkpt>
      <trkpt lat="45.69722" lon="4.58062">
        <ele>635.6</ele>
        <time>2025-12-15T14:06:23Z</time>
      </trkpt>
      <trkpt lat="45.69722" lon="4.58062">
        <ele>635.8</ele>
        <time>2025-12-15T14:06:24Z</time>
      </trkpt>
      <trkpt lat="45.69722" lon="4.58062">
        <ele>635.8</ele>
        <time>2025-12-15T14:06:25Z</time>
      </trkpt>
      <trkpt lat="45.69722" lon="4.58062">
        <ele>635.8</ele>
        <time>2025-12-15T14:06:26Z</time>
      </trkpt>
      <trkpt lat="45.69722" lon="4.58062">
        <ele>635.8</ele>
        <time>2025-12-15T14:06:27Z</time>
      </trkpt>
      <trkpt lat="45.69722" lon="4.58062">
        <ele>635.8</ele>
        <time>2025-12-15T14:06:28Z</time>
      </trkpt>
      <trkpt lat="45.69722" lon="4.58062">
        <ele>635.8</ele>
        <time>2025-12-15T14:06:29Z</time>
      </trkpt>
      <trkpt lat="45.69722" lon="4.58062">
        <ele>635.8</ele>
        <time>2025-12-15T14:06:30Z</time>
      </trkpt>
      <trkpt lat="45.69722" lon="4.58062">
        <ele>635.8</ele>
        <time>2025-12-15T14:06:31Z</time>
      </trkpt>
      <trkpt lat="45.69722" lon="4.58062">
        <ele>635.8</ele>
        <time>2025-12-15T14:06:32Z</time>
      </trkpt>
      <trkpt lat="45.69721" lon="4.58062">
        <ele>635.8</ele>
        <time>2025-12-15T14:06:33Z</time>
      </trkpt>
      <trkpt lat="45.6972" lon="4.58062">
        <ele>636</ele>
        <time>2025-12-15T14:06:34Z</time>
      </trkpt>
      <trkpt lat="45.6972" lon="4.58062">
        <ele>636</ele>
        <time>2025-12-15T14:06:35Z</time>
      </trkpt>
      <trkpt lat="45.6972" lon="4.58061">
        <ele>636</ele>
        <time>2025-12-15T14:06:36Z</time>
      </trkpt>
      <trkpt lat="45.6972" lon="4.5806">
        <ele>636</ele>
        <time>2025-12-15T14:06:37Z</time>
      </trkpt>
      <trkpt lat="45.6972" lon="4.5806">
        <ele>636</ele>
        <time>2025-12-15T14:06:38Z</time>
      </trkpt>
      <trkpt lat="45.6972" lon="4.5806">
        <ele>636</ele>
        <time>2025-12-15T14:06:39Z</time>
      </trkpt>
      <trkpt lat="45.69719" lon="4.5806">
        <ele>636</ele>
        <time>2025-12-15T14:06:40Z</time>
      </trkpt>
      <trkpt lat="45.69719" lon="4.5806">
        <ele>636</ele>
        <time>2025-12-15T14:06:41Z</time>
      </trkpt>
      <trkpt lat="45.69719" lon="4.5806">
        <ele>636</ele>
        <time>2025-12-15T14:06:42Z</time>
      </trkpt>
      <trkpt lat="45.69719" lon="4.5806">
        <ele>636</ele>
        <time>2025-12-15T14:06:43Z</time>
      </trkpt>
      <trkpt lat="45.69719" lon="4.5806">
        <ele>636.2</ele>
        <time>2025-12-15T14:06:44Z</time>
      </trkpt>
      <trkpt lat="45.69719" lon="4.5806">
        <ele>636.2</ele>
        <time>2025-12-15T14:06:45Z</time>
      </trkpt>
      <trkpt lat="45.69719" lon="4.58059">
        <ele>636.2</ele>
        <time>2025-12-15T14:06:46Z</time>
      </trkpt>
      <trkpt lat="45.69719" lon="4.58059">
        <ele>636.2</ele>
        <time>2025-12-15T14:06:47Z</time>
      </trkpt>
      <trkpt lat="45.69719" lon="4.58059">
        <ele>636</ele>
        <time>2025-12-15T14:06:48Z</time>
      </trkpt>
      <trkpt lat="45.69719" lon="4.58059">
        <ele>636</ele>
        <time>2025-12-15T14:06:49Z</time>
      </trkpt>
      <trkpt lat="45.69719" lon="4.58059">
        <ele>636</ele>
        <time>2025-12-15T14:06:50Z</time>
      </trkpt>
      <trkpt lat="45.69719" lon="4.58059">
        <ele>635.8</ele>
        <time>2025-12-15T14:06:51Z</time>
      </trkpt>
      <trkpt lat="45.69719" lon="4.58059">
        <ele>635.6</ele>
        <time>2025-12-15T14:06:52Z</time>
      </trkpt>
      <trkpt lat="45.69719" lon="4.58059">
        <ele>635.4</ele>
        <time>2025-12-15T14:06:53Z</time>
      </trkpt>
      <trkpt lat="45.69719" lon="4.58059">
        <ele>635.4</ele>
        <time>2025-12-15T14:06:54Z</time>
      </trkpt>
      <trkpt lat="45.69719" lon="4.58059">
        <ele>635.6</ele>
        <time>2025-12-15T14:06:55Z</time>
      </trkpt>
      <trkpt lat="45.69719" lon="4.58059">
        <ele>635.6</ele>
        <time>2025-12-15T14:06:56Z</time>
      </trkpt>
      <trkpt lat="45.69719" lon="4.58059">
        <ele>635.8</ele>
        <time>2025-12-15T14:06:57Z</time>
      </trkpt>
      <trkpt lat="45.69719" lon="4.58059">
        <ele>636</ele>
        <time>2025-12-15T14:06:58Z</time>
      </trkpt>
      <trkpt lat="45.69719" lon="4.58059">
        <ele>636.2</ele>
        <time>2025-12-15T14:06:59Z</time>
      </trkpt>
      <trkpt lat="45.69719" lon="4.58059">
        <ele>636.2</ele>
        <time>2025-12-15T14:07:00Z</time>
      </trkpt>
      <trkpt lat="45.69719" lon="4.58059">
        <ele>636.2</ele>
        <time>2025-12-15T14:07:01Z</time>
      </trkpt>
      <trkpt lat="45.69719" lon="4.58059">
        <ele>636.2</ele>
        <time>2025-12-15T14:07:02Z</time>
      </trkpt>
      <trkpt lat="45.69719" lon="4.58059">
        <ele>636.2</ele>
        <time>2025-12-15T14:07:03Z</time>
      </trkpt>
      <trkpt lat="45.69719" lon="4.58059">
        <ele>636.2</ele>
        <time>2025-12-15T14:07:04Z</time>
      </trkpt>
      <trkpt lat="45.69719" lon="4.58058">
        <ele>636.2</ele>
        <time>2025-12-15T14:07:05Z</time>
      </trkpt>
      <trkpt lat="45.69719" lon="4.58058">
        <ele>636</ele>
        <time>2025-12-15T14:07:06Z</time>
      </trkpt>
      <trkpt lat="45.69719" lon="4.58059">
        <ele>635.6</ele>
        <time>2025-12-15T14:07:07Z</time>
      </trkpt>
      <trkpt lat="45.69719" lon="4.58059">
        <ele>635.2</ele>
        <time>2025-12-15T14:07:08Z</time>
      </trkpt>
      <trkpt lat="45.69719" lon="4.58059">
        <ele>634.8</ele>
        <time>2025-12-15T14:07:09Z</time>
      </trkpt>
      <trkpt lat="45.69719" lon="4.58059">
        <ele>634.6</ele>
        <time>2025-12-15T14:07:10Z</time>
      </trkpt>
      <trkpt lat="45.69719" lon="4.58059">
        <ele>634.6</ele>
        <time>2025-12-15T14:07:11Z</time>
      </trkpt>
      <trkpt lat="45.69719" lon="4.58059">
        <ele>634.6</ele>
        <time>2025-12-15T14:07:12Z</time>
      </trkpt>
      <trkpt lat="45.69719" lon="4.58059">
        <ele>634.8</ele>
        <time>2025-12-15T14:07:13Z</time>
      </trkpt>
      <trkpt lat="45.69719" lon="4.58059">
        <ele>635.2</ele>
        <time>2025-12-15T14:07:14Z</time>
      </trkpt>
      <trkpt lat="45.69719" lon="4.58059">
        <ele>635.4</ele>
        <time>2025-12-15T14:07:15Z</time>
      </trkpt>
      <trkpt lat="45.69719" lon="4.58059">
        <ele>635.6</ele>
        <time>2025-12-15T14:07:16Z</time>
      </trkpt>
      <trkpt lat="45.69719" lon="4.58059">
        <ele>636</ele>
        <time>2025-12-15T14:07:17Z</time>
      </trkpt>
      <trkpt lat="45.69719" lon="4.58059">
        <ele>636.6</ele>
        <time>2025-12-15T14:07:18Z</time>
      </trkpt>
      <trkpt lat="45.69719" lon="4.58059">
        <ele>636.8</ele>
        <time>2025-12-15T14:07:19Z</time>
      </trkpt>
      <trkpt lat="45.69719" lon="4.58059">
        <ele>637</ele>
        <time>2025-12-15T14:07:20Z</time>
      </trkpt>
      <trkpt lat="45.69719" lon="4.58059">
        <ele>637.2</ele>
        <time>2025-12-15T14:07:21Z</time>
      </trkpt>
      <trkpt lat="45.69719" lon="4.58059">
        <ele>637.2</ele>
        <time>2025-12-15T14:07:22Z</time>
      </trkpt>
      <trkpt lat="45.69719" lon="4.58059">
        <ele>637.2</ele>
        <time>2025-12-15T14:07:23Z</time>
      </trkpt>
      <trkpt lat="45.69719" lon="4.58059">
        <ele>637.4</ele>
        <time>2025-12-15T14:07:24Z</time>
      </trkpt>
      <trkpt lat="45.69719" lon="4.58059">
        <ele>637.2</ele>
        <time>2025-12-15T14:07:25Z</time>
      </trkpt>
      <trkpt lat="45.69719" lon="4.58059">
        <ele>637</ele>
        <time>2025-12-15T14:07:26Z</time>
      </trkpt>
      <trkpt lat="45.69719" lon="4.58059">
        <ele>636.6</ele>
        <time>2025-12-15T14:07:27Z</time>
      </trkpt>
      <trkpt lat="45.69719" lon="4.58059">
        <ele>636.6</ele>
        <time>2025-12-15T14:07:28Z</time>
      </trkpt>
      <trkpt lat="45.69719" lon="4.58059">
        <ele>636.2</ele>
        <time>2025-12-15T14:07:29Z</time>
      </trkpt>
      <trkpt lat="45.69719" lon="4.58059">
        <ele>636</ele>
        <time>2025-12-15T14:07:30Z</time>
      </trkpt>
      <trkpt lat="45.69719" lon="4.58059">
        <ele>636</ele>
        <time>2025-12-15T14:07:31Z</time>
      </trkpt>
      <trkpt lat="45.69719" lon="4.58059">
        <ele>635.8</ele>
        <time>2025-12-15T14:07:32Z</time>
      </trkpt>
      <trkpt lat="45.69719" lon="4.58059">
        <ele>635.8</ele>
        <time>2025-12-15T14:07:33Z</time>
      </trkpt>
      <trkpt lat="45.69719" lon="4.58059">
        <ele>636</ele>
        <time>2025-12-15T14:07:34Z</time>
      </trkpt>
      <trkpt lat="45.69718" lon="4.58059">
        <ele>636</ele>
        <time>2025-12-15T14:07:35Z</time>
      </trkpt>
      <trkpt lat="45.69716" lon="4.5806">
        <ele>636</ele>
        <time>2025-12-15T14:07:36Z</time>
      </trkpt>
      <trkpt lat="45.69714" lon="4.58061">
        <ele>636</ele>
        <time>2025-12-15T14:07:37Z</time>
      </trkpt>
      <trkpt lat="45.69713" lon="4.58062">
        <ele>636</ele>
        <time>2025-12-15T14:07:38Z</time>
      </trkpt>
      <trkpt lat="45.69712" lon="4.58064">
        <ele>635.8</ele>
        <time>2025-12-15T14:07:39Z</time>
      </trkpt>
      <trkpt lat="45.69711" lon="4.58065">
        <ele>635.8</ele>
        <time>2025-12-15T14:07:40Z</time>
      </trkpt>
      <trkpt lat="45.69709" lon="4.58067">
        <ele>635.6</ele>
        <time>2025-12-15T14:07:41Z</time>
      </trkpt>
      <trkpt lat="45.69705" lon="4.5807">
        <ele>635.6</ele>
        <time>2025-12-15T14:07:42Z</time>
      </trkpt>
      <trkpt lat="45.69703" lon="4.58072">
        <ele>635.6</ele>
        <time>2025-12-15T14:07:43Z</time>
      </trkpt>
      <trkpt lat="45.697" lon="4.58074">
        <ele>635.6</ele>
        <time>2025-12-15T14:07:44Z</time>
      </trkpt>
      <trkpt lat="45.69698" lon="4.58077">
        <ele>635.8</ele>
        <time>2025-12-15T14:07:45Z</time>
      </trkpt>
      <trkpt lat="45.69695" lon="4.58079">
        <ele>636</ele>
        <time>2025-12-15T14:07:46Z</time>
      </trkpt>
      <trkpt lat="45.69692" lon="4.58081">
        <ele>636.4</ele>
        <time>2025-12-15T14:07:47Z</time>
      </trkpt>
      <trkpt lat="45.69689" lon="4.58083">
        <ele>636.8</ele>
        <time>2025-12-15T14:07:48Z</time>
      </trkpt>
      <trkpt lat="45.69685" lon="4.58085">
        <ele>637</ele>
        <time>2025-12-15T14:07:49Z</time>
      </trkpt>
      <trkpt lat="45.69681" lon="4.58087">
        <ele>637.4</ele>
        <time>2025-12-15T14:07:50Z</time>
      </trkpt>
      <trkpt lat="45.69678" lon="4.58088">
        <ele>637.6</ele>
        <time>2025-12-15T14:07:51Z</time>
      </trkpt>
      <trkpt lat="45.69674" lon="4.5809">
        <ele>637.6</ele>
        <time>2025-12-15T14:07:52Z</time>
      </trkpt>
      <trkpt lat="45.69671" lon="4.58092">
        <ele>637.8</ele>
        <time>2025-12-15T14:07:53Z</time>
      </trkpt>
      <trkpt lat="45.69669" lon="4.58092">
        <ele>637.8</ele>
        <time>2025-12-15T14:07:54Z</time>
      </trkpt>
      <trkpt lat="45.69667" lon="4.58092">
        <ele>638</ele>
        <time>2025-12-15T14:07:55Z</time>
      </trkpt>
      <trkpt lat="45.69665" lon="4.58093">
        <ele>638.2</ele>
        <time>2025-12-15T14:07:56Z</time>
      </trkpt>
      <trkpt lat="45.69662" lon="4.58094">
        <ele>638.4</ele>
        <time>2025-12-15T14:07:57Z</time>
      </trkpt>
      <trkpt lat="45.69659" lon="4.58095">
        <ele>638.6</ele>
        <time>2025-12-15T14:07:58Z</time>
      </trkpt>
      <trkpt lat="45.69656" lon="4.58097">
        <ele>638.8</ele>
        <time>2025-12-15T14:07:59Z</time>
      </trkpt>
      <trkpt lat="45.69653" lon="4.58098">
        <ele>639</ele>
        <time>2025-12-15T14:08:00Z</time>
      </trkpt>
      <trkpt lat="45.6965" lon="4.58099">
        <ele>639.2</ele>
        <time>2025-12-15T14:08:01Z</time>
      </trkpt>
      <trkpt lat="45.69647" lon="4.58101">
        <ele>639.4</ele>
        <time>2025-12-15T14:08:02Z</time>
      </trkpt>
      <trkpt lat="45.69642" lon="4.58104">
        <ele>639.6</ele>
        <time>2025-12-15T14:08:03Z</time>
      </trkpt>
      <trkpt lat="45.69638" lon="4.58106">
        <ele>639.8</ele>
        <time>2025-12-15T14:08:04Z</time>
      </trkpt>
      <trkpt lat="45.69636" lon="4.58109">
        <ele>640</ele>
        <time>2025-12-15T14:08:05Z</time>
      </trkpt>
      <trkpt lat="45.69635" lon="4.5811">
        <ele>640.2</ele>
        <time>2025-12-15T14:08:06Z</time>
      </trkpt>
      <trkpt lat="45.69632" lon="4.58111">
        <ele>640.4</ele>
        <time>2025-12-15T14:08:07Z</time>
      </trkpt>
      <trkpt lat="45.69629" lon="4.5811">
        <ele>640.8</ele>
        <time>2025-12-15T14:08:08Z</time>
      </trkpt>
      <trkpt lat="45.69626" lon="4.5811">
        <ele>641</ele>
        <time>2025-12-15T14:08:09Z</time>
      </trkpt>
      <trkpt lat="45.69622" lon="4.58112">
        <ele>641.2</ele>
        <time>2025-12-15T14:08:10Z</time>
      </trkpt>
      <trkpt lat="45.69616" lon="4.58115">
        <ele>641.6</ele>
        <time>2025-12-15T14:08:11Z</time>
      </trkpt>
      <trkpt lat="45.69611" lon="4.58118">
        <ele>641.8</ele>
        <time>2025-12-15T14:08:12Z</time>
      </trkpt>
      <trkpt lat="45.69608" lon="4.58118">
        <ele>642</ele>
        <time>2025-12-15T14:08:13Z</time>
      </trkpt>
      <trkpt lat="45.69604" lon="4.58119">
        <ele>642.4</ele>
        <time>2025-12-15T14:08:14Z</time>
      </trkpt>
      <trkpt lat="45.69601" lon="4.58121">
        <ele>642.6</ele>
        <time>2025-12-15T14:08:15Z</time>
      </trkpt>
      <trkpt lat="45.69599" lon="4.58122">
        <ele>642.8</ele>
        <time>2025-12-15T14:08:16Z</time>
      </trkpt>
      <trkpt lat="45.69596" lon="4.58124">
        <ele>643.2</ele>
        <time>2025-12-15T14:08:17Z</time>
      </trkpt>
      <trkpt lat="45.69592" lon="4.58125">
        <ele>643.4</ele>
        <time>2025-12-15T14:08:18Z</time>
      </trkpt>
      <trkpt lat="45.69588" lon="4.58127">
        <ele>643.6</ele>
        <time>2025-12-15T14:08:19Z</time>
      </trkpt>
      <trkpt lat="45.69586" lon="4.58129">
        <ele>643.8</ele>
        <time>2025-12-15T14:08:20Z</time>
      </trkpt>
      <trkpt lat="45.69584" lon="4.58131">
        <ele>644.2</ele>
        <time>2025-12-15T14:08:21Z</time>
      </trkpt>
      <trkpt lat="45.69581" lon="4.58132">
        <ele>644.4</ele>
        <time>2025-12-15T14:08:22Z</time>
      </trkpt>
      <trkpt lat="45.69577" lon="4.58134">
        <ele>644.8</ele>
        <time>2025-12-15T14:08:23Z</time>
      </trkpt>
      <trkpt lat="45.69574" lon="4.58136">
        <ele>645</ele>
        <time>2025-12-15T14:08:24Z</time>
      </trkpt>
      <trkpt lat="45.69571" lon="4.58138">
        <ele>645.4</ele>
        <time>2025-12-15T14:08:25Z</time>
      </trkpt>
      <trkpt lat="45.69567" lon="4.5814">
        <ele>645.6</ele>
        <time>2025-12-15T14:08:26Z</time>
      </trkpt>
      <trkpt lat="45.69564" lon="4.58142">
        <ele>645.8</ele>
        <time>2025-12-15T14:08:27Z</time>
      </trkpt>
      <trkpt lat="45.69562" lon="4.58143">
        <ele>646.2</ele>
        <time>2025-12-15T14:08:28Z</time>
      </trkpt>
      <trkpt lat="45.69561" lon="4.58144">
        <ele>646.6</ele>
        <time>2025-12-15T14:08:29Z</time>
      </trkpt>
      <trkpt lat="45.6956" lon="4.58146">
        <ele>647</ele>
        <time>2025-12-15T14:08:30Z</time>
      </trkpt>
      <trkpt lat="45.69559" lon="4.58147">
        <ele>647.4</ele>
        <time>2025-12-15T14:08:31Z</time>
      </trkpt>
      <trkpt lat="45.69558" lon="4.58148">
        <ele>647.8</ele>
        <time>2025-12-15T14:08:32Z</time>
      </trkpt>
      <trkpt lat="45.69556" lon="4.58149">
        <ele>648.2</ele>
        <time>2025-12-15T14:08:33Z</time>
      </trkpt>
      <trkpt lat="45.69556" lon="4.58149">
        <ele>648.6</ele>
        <time>2025-12-15T14:08:34Z</time>
      </trkpt>
      <trkpt lat="45.69555" lon="4.5815">
        <ele>649</ele>
        <time>2025-12-15T14:08:35Z</time>
      </trkpt>
      <trkpt lat="45.69554" lon="4.58151">
        <ele>649.6</ele>
        <time>2025-12-15T14:08:36Z</time>
      </trkpt>
      <trkpt lat="45.69553" lon="4.58151">
        <ele>650</ele>
        <time>2025-12-15T14:08:37Z</time>
      </trkpt>
      <trkpt lat="45.69551" lon="4.58151">
        <ele>650.4</ele>
        <time>2025-12-15T14:08:38Z</time>
      </trkpt>
      <trkpt lat="45.69549" lon="4.58152">
        <ele>650.8</ele>
        <time>2025-12-15T14:08:39Z</time>
      </trkpt>
      <trkpt lat="45.69547" lon="4.58153">
        <ele>651.2</ele>
        <time>2025-12-15T14:08:40Z</time>
      </trkpt>
      <trkpt lat="45.69544" lon="4.58154">
        <ele>651.6</ele>
        <time>2025-12-15T14:08:41Z</time>
      </trkpt>
      <trkpt lat="45.69541" lon="4.58155">
        <ele>652.2</ele>
        <time>2025-12-15T14:08:42Z</time>
      </trkpt>
      <trkpt lat="45.69538" lon="4.58156">
        <ele>652.4</ele>
        <time>2025-12-15T14:08:43Z</time>
      </trkpt>
      <trkpt lat="45.69535" lon="4.58158">
        <ele>652.8</ele>
        <time>2025-12-15T14:08:44Z</time>
      </trkpt>
      <trkpt lat="45.69532" lon="4.5816">
        <ele>653</ele>
        <time>2025-12-15T14:08:45Z</time>
      </trkpt>
      <trkpt lat="45.6953" lon="4.58162">
        <ele>653.2</ele>
        <time>2025-12-15T14:08:46Z</time>
      </trkpt>
      <trkpt lat="45.69527" lon="4.58165">
        <ele>653.2</ele>
        <time>2025-12-15T14:08:47Z</time>
      </trkpt>
      <trkpt lat="45.69524" lon="4.58166">
        <ele>653.2</ele>
        <time>2025-12-15T14:08:48Z</time>
      </trkpt>
      <trkpt lat="45.69519" lon="4.58167">
        <ele>653.2</ele>
        <time>2025-12-15T14:08:49Z</time>
      </trkpt>
      <trkpt lat="45.69516" lon="4.5817">
        <ele>653</ele>
        <time>2025-12-15T14:08:50Z</time>
      </trkpt>
      <trkpt lat="45.69513" lon="4.58172">
        <ele>653</ele>
        <time>2025-12-15T14:08:51Z</time>
      </trkpt>
      <trkpt lat="45.69511" lon="4.58174">
        <ele>653</ele>
        <time>2025-12-15T14:08:52Z</time>
      </trkpt>
      <trkpt lat="45.69509" lon="4.58176">
        <ele>653</ele>
        <time>2025-12-15T14:08:53Z</time>
      </trkpt>
      <trkpt lat="45.69505" lon="4.58178">
        <ele>653.2</ele>
        <time>2025-12-15T14:08:54Z</time>
      </trkpt>
      <trkpt lat="45.69502" lon="4.5818">
        <ele>653.2</ele>
        <time>2025-12-15T14:08:55Z</time>
      </trkpt>
      <trkpt lat="45.69498" lon="4.58183">
        <ele>653.2</ele>
        <time>2025-12-15T14:08:56Z</time>
      </trkpt>
      <trkpt lat="45.69496" lon="4.58185">
        <ele>653.2</ele>
        <time>2025-12-15T14:08:57Z</time>
      </trkpt>
      <trkpt lat="45.69494" lon="4.58187">
        <ele>653.4</ele>
        <time>2025-12-15T14:08:58Z</time>
      </trkpt>
      <trkpt lat="45.69492" lon="4.58189">
        <ele>653.4</ele>
        <time>2025-12-15T14:08:59Z</time>
      </trkpt>
      <trkpt lat="45.6949" lon="4.58191">
        <ele>653.6</ele>
        <time>2025-12-15T14:09:00Z</time>
      </trkpt>
      <trkpt lat="45.69487" lon="4.58193">
        <ele>653.6</ele>
        <time>2025-12-15T14:09:01Z</time>
      </trkpt>
      <trkpt lat="45.69485" lon="4.58195">
        <ele>653.6</ele>
        <time>2025-12-15T14:09:02Z</time>
      </trkpt>
      <trkpt lat="45.69484" lon="4.58197">
        <ele>653.8</ele>
        <time>2025-12-15T14:09:03Z</time>
      </trkpt>
      <trkpt lat="45.69482" lon="4.582">
        <ele>653.8</ele>
        <time>2025-12-15T14:09:04Z</time>
      </trkpt>
      <trkpt lat="45.69479" lon="4.58204">
        <ele>653.8</ele>
        <time>2025-12-15T14:09:05Z</time>
      </trkpt>
      <trkpt lat="45.69476" lon="4.58207">
        <ele>654</ele>
        <time>2025-12-15T14:09:06Z</time>
      </trkpt>
      <trkpt lat="45.69474" lon="4.5821">
        <ele>654</ele>
        <time>2025-12-15T14:09:07Z</time>
      </trkpt>
      <trkpt lat="45.69471" lon="4.58212">
        <ele>654.2</ele>
        <time>2025-12-15T14:09:08Z</time>
      </trkpt>
      <trkpt lat="45.69468" lon="4.58215">
        <ele>654.4</ele>
        <time>2025-12-15T14:09:09Z</time>
      </trkpt>
      <trkpt lat="45.69465" lon="4.58217">
        <ele>654.6</ele>
        <time>2025-12-15T14:09:10Z</time>
      </trkpt>
      <trkpt lat="45.69462" lon="4.5822">
        <ele>654.8</ele>
        <time>2025-12-15T14:09:11Z</time>
      </trkpt>
      <trkpt lat="45.69459" lon="4.58222">
        <ele>655</ele>
        <time>2025-12-15T14:09:12Z</time>
      </trkpt>
      <trkpt lat="45.69457" lon="4.58224">
        <ele>655.2</ele>
        <time>2025-12-15T14:09:13Z</time>
      </trkpt>
      <trkpt lat="45.69454" lon="4.58226">
        <ele>655.4</ele>
        <time>2025-12-15T14:09:14Z</time>
      </trkpt>
      <trkpt lat="45.69451" lon="4.58228">
        <ele>655.8</ele>
        <time>2025-12-15T14:09:15Z</time>
      </trkpt>
      <trkpt lat="45.69449" lon="4.5823">
        <ele>656</ele>
        <time>2025-12-15T14:09:16Z</time>
      </trkpt>
      <trkpt lat="45.69446" lon="4.58231">
        <ele>656.2</ele>
        <time>2025-12-15T14:09:17Z</time>
      </trkpt>
      <trkpt lat="45.69443" lon="4.58233">
        <ele>656.4</ele>
        <time>2025-12-15T14:09:18Z</time>
      </trkpt>
      <trkpt lat="45.6944" lon="4.58235">
        <ele>656.6</ele>
        <time>2025-12-15T14:09:19Z</time>
      </trkpt>
      <trkpt lat="45.69438" lon="4.58236">
        <ele>656.8</ele>
        <time>2025-12-15T14:09:20Z</time>
      </trkpt>
      <trkpt lat="45.69435" lon="4.58238">
        <ele>657.2</ele>
        <time>2025-12-15T14:09:21Z</time>
      </trkpt>
      <trkpt lat="45.69433" lon="4.5824">
        <ele>657.4</ele>
        <time>2025-12-15T14:09:22Z</time>
      </trkpt>
      <trkpt lat="45.6943" lon="4.58243">
        <ele>657.8</ele>
        <time>2025-12-15T14:09:23Z</time>
      </trkpt>
      <trkpt lat="45.69428" lon="4.58245">
        <ele>658</ele>
        <time>2025-12-15T14:09:24Z</time>
      </trkpt>
      <trkpt lat="45.69425" lon="4.58247">
        <ele>658.2</ele>
        <time>2025-12-15T14:09:25Z</time>
      </trkpt>
      <trkpt lat="45.69423" lon="4.5825">
        <ele>658.6</ele>
        <time>2025-12-15T14:09:26Z</time>
      </trkpt>
      <trkpt lat="45.69421" lon="4.58253">
        <ele>658.8</ele>
        <time>2025-12-15T14:09:27Z</time>
      </trkpt>
      <trkpt lat="45.69419" lon="4.58255">
        <ele>659.2</ele>
        <time>2025-12-15T14:09:28Z</time>
      </trkpt>
      <trkpt lat="45.69417" lon="4.58258">
        <ele>659.4</ele>
        <time>2025-12-15T14:09:29Z</time>
      </trkpt>
      <trkpt lat="45.69416" lon="4.58261">
        <ele>659.8</ele>
        <time>2025-12-15T14:09:30Z</time>
      </trkpt>
      <trkpt lat="45.69416" lon="4.58265">
        <ele>660</ele>
        <time>2025-12-15T14:09:31Z</time>
      </trkpt>
      <trkpt lat="45.69416" lon="4.58268">
        <ele>660.2</ele>
        <time>2025-12-15T14:09:32Z</time>
      </trkpt>
      <trkpt lat="45.69416" lon="4.5827">
        <ele>660.6</ele>
        <time>2025-12-15T14:09:33Z</time>
      </trkpt>
      <trkpt lat="45.69418" lon="4.58272">
        <ele>660.8</ele>
        <time>2025-12-15T14:09:34Z</time>
      </trkpt>
      <trkpt lat="45.6942" lon="4.58273">
        <ele>661.2</ele>
        <time>2025-12-15T14:09:35Z</time>
      </trkpt>
      <trkpt lat="45.69422" lon="4.58274">
        <ele>661.4</ele>
        <time>2025-12-15T14:09:36Z</time>
      </trkpt>
      <trkpt lat="45.69425" lon="4.58275">
        <ele>661.6</ele>
        <time>2025-12-15T14:09:37Z</time>
      </trkpt>
      <trkpt lat="45.69428" lon="4.58276">
        <ele>661.8</ele>
        <time>2025-12-15T14:09:38Z</time>
      </trkpt>
      <trkpt lat="45.69431" lon="4.58277">
        <ele>661.8</ele>
        <time>2025-12-15T14:09:39Z</time>
      </trkpt>
      <trkpt lat="45.69434" lon="4.58279">
        <ele>661.8</ele>
        <time>2025-12-15T14:09:40Z</time>
      </trkpt>
      <trkpt lat="45.69437" lon="4.5828">
        <ele>661.8</ele>
        <time>2025-12-15T14:09:41Z</time>
      </trkpt>
      <trkpt lat="45.69439" lon="4.58281">
        <ele>661.8</ele>
        <time>2025-12-15T14:09:42Z</time>
      </trkpt>
      <trkpt lat="45.69442" lon="4.58283">
        <ele>662</ele>
        <time>2025-12-15T14:09:43Z</time>
      </trkpt>
      <trkpt lat="45.69444" lon="4.58285">
        <ele>662</ele>
        <time>2025-12-15T14:09:44Z</time>
      </trkpt>
      <trkpt lat="45.69447" lon="4.58286">
        <ele>662</ele>
        <time>2025-12-15T14:09:45Z</time>
      </trkpt>
      <trkpt lat="45.6945" lon="4.58287">
        <ele>662.2</ele>
        <time>2025-12-15T14:09:46Z</time>
      </trkpt>
      <trkpt lat="45.69452" lon="4.58289">
        <ele>662.4</ele>
        <time>2025-12-15T14:09:47Z</time>
      </trkpt>
      <trkpt lat="45.69454" lon="4.5829">
        <ele>662.6</ele>
        <time>2025-12-15T14:09:48Z</time>
      </trkpt>
      <trkpt lat="45.69456" lon="4.58292">
        <ele>662.6</ele>
        <time>2025-12-15T14:09:49Z</time>
      </trkpt>
      <trkpt lat="45.69459" lon="4.58294">
        <ele>662.8</ele>
        <time>2025-12-15T14:09:50Z</time>
      </trkpt>
      <trkpt lat="45.69461" lon="4.58295">
        <ele>663</ele>
        <time>2025-12-15T14:09:51Z</time>
      </trkpt>
      <trkpt lat="45.69462" lon="4.58297">
        <ele>663.2</ele>
        <time>2025-12-15T14:09:52Z</time>
      </trkpt>
      <trkpt lat="45.69464" lon="4.58299">
        <ele>663.4</ele>
        <time>2025-12-15T14:09:53Z</time>
      </trkpt>
      <trkpt lat="45.69466" lon="4.58301">
        <ele>663.6</ele>
        <time>2025-12-15T14:09:54Z</time>
      </trkpt>
      <trkpt lat="45.69468" lon="4.58302">
        <ele>663.8</ele>
        <time>2025-12-15T14:09:55Z</time>
      </trkpt>
      <trkpt lat="45.69471" lon="4.58303">
        <ele>664</ele>
        <time>2025-12-15T14:09:56Z</time>
      </trkpt>
      <trkpt lat="45.69473" lon="4.58305">
        <ele>664</ele>
        <time>2025-12-15T14:09:57Z</time>
      </trkpt>
      <trkpt lat="45.69476" lon="4.58307">
        <ele>664</ele>
        <time>2025-12-15T14:09:58Z</time>
      </trkpt>
      <trkpt lat="45.69478" lon="4.58309">
        <ele>664</ele>
        <time>2025-12-15T14:09:59Z</time>
      </trkpt>
      <trkpt lat="45.6948" lon="4.58312">
        <ele>664.2</ele>
        <time>2025-12-15T14:10:00Z</time>
      </trkpt>
      <trkpt lat="45.69482" lon="4.58314">
        <ele>664.2</ele>
        <time>2025-12-15T14:10:01Z</time>
      </trkpt>
      <trkpt lat="45.69483" lon="4.58317">
        <ele>664.4</ele>
        <time>2025-12-15T14:10:02Z</time>
      </trkpt>
      <trkpt lat="45.69484" lon="4.58318">
        <ele>664.4</ele>
        <time>2025-12-15T14:10:03Z</time>
      </trkpt>
      <trkpt lat="45.69486" lon="4.5832">
        <ele>664.8</ele>
        <time>2025-12-15T14:10:04Z</time>
      </trkpt>
      <trkpt lat="45.69487" lon="4.58323">
        <ele>664.8</ele>
        <time>2025-12-15T14:10:05Z</time>
      </trkpt>
      <trkpt lat="45.69487" lon="4.58324">
        <ele>665</ele>
        <time>2025-12-15T14:10:06Z</time>
      </trkpt>
      <trkpt lat="45.69488" lon="4.58326">
        <ele>665.2</ele>
        <time>2025-12-15T14:10:07Z</time>
      </trkpt>
      <trkpt lat="45.69488" lon="4.58328">
        <ele>665.4</ele>
        <time>2025-12-15T14:10:08Z</time>
      </trkpt>
      <trkpt lat="45.69489" lon="4.5833">
        <ele>665.6</ele>
        <time>2025-12-15T14:10:09Z</time>
      </trkpt>
      <trkpt lat="45.69489" lon="4.58332">
        <ele>665.6</ele>
        <time>2025-12-15T14:10:10Z</time>
      </trkpt>
      <trkpt lat="45.69489" lon="4.58334">
        <ele>665.8</ele>
        <time>2025-12-15T14:10:11Z</time>
      </trkpt>
      <trkpt lat="45.6949" lon="4.58337">
        <ele>665.8</ele>
        <time>2025-12-15T14:10:12Z</time>
      </trkpt>
      <trkpt lat="45.69491" lon="4.5834">
        <ele>666</ele>
        <time>2025-12-15T14:10:13Z</time>
      </trkpt>
      <trkpt lat="45.69491" lon="4.58342">
        <ele>666</ele>
        <time>2025-12-15T14:10:14Z</time>
      </trkpt>
      <trkpt lat="45.69492" lon="4.58345">
        <ele>666</ele>
        <time>2025-12-15T14:10:15Z</time>
      </trkpt>
      <trkpt lat="45.69491" lon="4.58347">
        <ele>666</ele>
        <time>2025-12-15T14:10:16Z</time>
      </trkpt>
      <trkpt lat="45.69491" lon="4.58349">
        <ele>666</ele>
        <time>2025-12-15T14:10:17Z</time>
      </trkpt>
      <trkpt lat="45.6949" lon="4.58352">
        <ele>666</ele>
        <time>2025-12-15T14:10:18Z</time>
      </trkpt>
      <trkpt lat="45.69491" lon="4.58356">
        <ele>666</ele>
        <time>2025-12-15T14:10:19Z</time>
      </trkpt>
      <trkpt lat="45.6949" lon="4.58359">
        <ele>666</ele>
        <time>2025-12-15T14:10:20Z</time>
      </trkpt>
      <trkpt lat="45.6949" lon="4.58363">
        <ele>665.8</ele>
        <time>2025-12-15T14:10:21Z</time>
      </trkpt>
      <trkpt lat="45.6949" lon="4.58367">
        <ele>665.8</ele>
        <time>2025-12-15T14:10:22Z</time>
      </trkpt>
      <trkpt lat="45.69489" lon="4.5837">
        <ele>665.6</ele>
        <time>2025-12-15T14:10:23Z</time>
      </trkpt>
      <trkpt lat="45.69488" lon="4.58374">
        <ele>665.4</ele>
        <time>2025-12-15T14:10:24Z</time>
      </trkpt>
      <trkpt lat="45.69487" lon="4.58378">
        <ele>665.2</ele>
        <time>2025-12-15T14:10:25Z</time>
      </trkpt>
      <trkpt lat="45.69486" lon="4.58383">
        <ele>665</ele>
        <time>2025-12-15T14:10:26Z</time>
      </trkpt>
      <trkpt lat="45.69484" lon="4.58387">
        <ele>664.8</ele>
        <time>2025-12-15T14:10:27Z</time>
      </trkpt>
      <trkpt lat="45.69483" lon="4.58391">
        <ele>664.6</ele>
        <time>2025-12-15T14:10:28Z</time>
      </trkpt>
      <trkpt lat="45.69482" lon="4.58395">
        <ele>664.4</ele>
        <time>2025-12-15T14:10:29Z</time>
      </trkpt>
      <trkpt lat="45.6948" lon="4.58399">
        <ele>664.4</ele>
        <time>2025-12-15T14:10:30Z</time>
      </trkpt>
      <trkpt lat="45.69479" lon="4.58404">
        <ele>664</ele>
        <time>2025-12-15T14:10:31Z</time>
      </trkpt>
      <trkpt lat="45.69477" lon="4.58408">
        <ele>663.8</ele>
        <time>2025-12-15T14:10:32Z</time>
      </trkpt>
      <trkpt lat="45.69476" lon="4.58413">
        <ele>663.6</ele>
        <time>2025-12-15T14:10:33Z</time>
      </trkpt>
      <trkpt lat="45.69474" lon="4.58418">
        <ele>663.4</ele>
        <time>2025-12-15T14:10:34Z</time>
      </trkpt>
      <trkpt lat="45.69472" lon="4.58423">
        <ele>663</ele>
        <time>2025-12-15T14:10:35Z</time>
      </trkpt>
      <trkpt lat="45.6947" lon="4.58428">
        <ele>662.6</ele>
        <time>2025-12-15T14:10:36Z</time>
      </trkpt>
      <trkpt lat="45.69469" lon="4.58434">
        <ele>662.2</ele>
        <time>2025-12-15T14:10:37Z</time>
      </trkpt>
      <trkpt lat="45.69467" lon="4.58441">
        <ele>661.8</ele>
        <time>2025-12-15T14:10:38Z</time>
      </trkpt>
      <trkpt lat="45.69464" lon="4.58447">
        <ele>661.2</ele>
        <time>2025-12-15T14:10:39Z</time>
      </trkpt>
      <trkpt lat="45.69462" lon="4.58454">
        <ele>660.8</ele>
        <time>2025-12-15T14:10:40Z</time>
      </trkpt>
      <trkpt lat="45.69459" lon="4.58461">
        <ele>660.2</ele>
        <time>2025-12-15T14:10:41Z</time>
      </trkpt>
      <trkpt lat="45.69456" lon="4.58467">
        <ele>659.6</ele>
        <time>2025-12-15T14:10:42Z</time>
      </trkpt>
      <trkpt lat="45.69453" lon="4.58474">
        <ele>659</ele>
        <time>2025-12-15T14:10:43Z</time>
      </trkpt>
      <trkpt lat="45.69449" lon="4.58482">
        <ele>658.4</ele>
        <time>2025-12-15T14:10:44Z</time>
      </trkpt>
      <trkpt lat="45.69446" lon="4.58489">
        <ele>658</ele>
        <time>2025-12-15T14:10:45Z</time>
      </trkpt>
      <trkpt lat="45.69443" lon="4.58497">
        <ele>657.6</ele>
        <time>2025-12-15T14:10:46Z</time>
      </trkpt>
      <trkpt lat="45.69439" lon="4.58505">
        <ele>657</ele>
        <time>2025-12-15T14:10:47Z</time>
      </trkpt>
      <trkpt lat="45.69436" lon="4.58513">
        <ele>656.4</ele>
        <time>2025-12-15T14:10:48Z</time>
      </trkpt>
      <trkpt lat="45.69432" lon="4.58522">
        <ele>655.8</ele>
        <time>2025-12-15T14:10:49Z</time>
      </trkpt>
      <trkpt lat="45.69428" lon="4.5853">
        <ele>655.2</ele>
        <time>2025-12-15T14:10:50Z</time>
      </trkpt>
      <trkpt lat="45.69424" lon="4.58538">
        <ele>654.4</ele>
        <time>2025-12-15T14:10:51Z</time>
      </trkpt>
      <trkpt lat="45.6942" lon="4.58547">
        <ele>653.8</ele>
        <time>2025-12-15T14:10:52Z</time>
      </trkpt>
      <trkpt lat="45.69417" lon="4.58556">
        <ele>653</ele>
        <time>2025-12-15T14:10:53Z</time>
      </trkpt>
      <trkpt lat="45.69413" lon="4.58566">
        <ele>652</ele>
        <time>2025-12-15T14:10:54Z</time>
      </trkpt>
      <trkpt lat="45.69409" lon="4.58576">
        <ele>651.4</ele>
        <time>2025-12-15T14:10:55Z</time>
      </trkpt>
      <trkpt lat="45.69406" lon="4.58586">
        <ele>650.6</ele>
        <time>2025-12-15T14:10:56Z</time>
      </trkpt>
      <trkpt lat="45.69402" lon="4.58596">
        <ele>649.8</ele>
        <time>2025-12-15T14:10:57Z</time>
      </trkpt>
      <trkpt lat="45.694" lon="4.58607">
        <ele>649.2</ele>
        <time>2025-12-15T14:10:58Z</time>
      </trkpt>
      <trkpt lat="45.69398" lon="4.58617">
        <ele>648.6</ele>
        <time>2025-12-15T14:10:59Z</time>
      </trkpt>
      <trkpt lat="45.69397" lon="4.58627">
        <ele>648.2</ele>
        <time>2025-12-15T14:11:00Z</time>
      </trkpt>
      <trkpt lat="45.69396" lon="4.58637">
        <ele>647.8</ele>
        <time>2025-12-15T14:11:01Z</time>
      </trkpt>
      <trkpt lat="45.69395" lon="4.58646">
        <ele>647.4</ele>
        <time>2025-12-15T14:11:02Z</time>
      </trkpt>
      <trkpt lat="45.69394" lon="4.58656">
        <ele>647</ele>
        <time>2025-12-15T14:11:03Z</time>
      </trkpt>
      <trkpt lat="45.69393" lon="4.58666">
        <ele>646.6</ele>
        <time>2025-12-15T14:11:04Z</time>
      </trkpt>
      <trkpt lat="45.69392" lon="4.58675">
        <ele>646</ele>
        <time>2025-12-15T14:11:05Z</time>
      </trkpt>
      <trkpt lat="45.69391" lon="4.58682">
        <ele>645.8</ele>
        <time>2025-12-15T14:11:06Z</time>
      </trkpt>
      <trkpt lat="45.6939" lon="4.58689">
        <ele>645.6</ele>
        <time>2025-12-15T14:11:07Z</time>
      </trkpt>
      <trkpt lat="45.69389" lon="4.58695">
        <ele>645.6</ele>
        <time>2025-12-15T14:11:08Z</time>
      </trkpt>
      <trkpt lat="45.69389" lon="4.58701">
        <ele>645.4</ele>
        <time>2025-12-15T14:11:09Z</time>
      </trkpt>
      <trkpt lat="45.69389" lon="4.58708">
        <ele>645.4</ele>
        <time>2025-12-15T14:11:10Z</time>
      </trkpt>
      <trkpt lat="45.69387" lon="4.58716">
        <ele>645</ele>
        <time>2025-12-15T14:11:11Z</time>
      </trkpt>
      <trkpt lat="45.69386" lon="4.58723">
        <ele>644.4</ele>
        <time>2025-12-15T14:11:12Z</time>
      </trkpt>
      <trkpt lat="45.69385" lon="4.58731">
        <ele>643.8</ele>
        <time>2025-12-15T14:11:13Z</time>
      </trkpt>
      <trkpt lat="45.69383" lon="4.58738">
        <ele>643.2</ele>
        <time>2025-12-15T14:11:14Z</time>
      </trkpt>
      <trkpt lat="45.69381" lon="4.58746">
        <ele>642.4</ele>
        <time>2025-12-15T14:11:15Z</time>
      </trkpt>
      <trkpt lat="45.69378" lon="4.58755">
        <ele>641.6</ele>
        <time>2025-12-15T14:11:16Z</time>
      </trkpt>
      <trkpt lat="45.69376" lon="4.58763">
        <ele>640.8</ele>
        <time>2025-12-15T14:11:17Z</time>
      </trkpt>
      <trkpt lat="45.69373" lon="4.58772">
        <ele>639.8</ele>
        <time>2025-12-15T14:11:18Z</time>
      </trkpt>
      <trkpt lat="45.6937" lon="4.5878">
        <ele>639</ele>
        <time>2025-12-15T14:11:19Z</time>
      </trkpt>
      <trkpt lat="45.69367" lon="4.58789">
        <ele>638</ele>
        <time>2025-12-15T14:11:20Z</time>
      </trkpt>
      <trkpt lat="45.69364" lon="4.58799">
        <ele>637</ele>
        <time>2025-12-15T14:11:21Z</time>
      </trkpt>
      <trkpt lat="45.69361" lon="4.58809">
        <ele>636</ele>
        <time>2025-12-15T14:11:22Z</time>
      </trkpt>
      <trkpt lat="45.69359" lon="4.58818">
        <ele>635.2</ele>
        <time>2025-12-15T14:11:23Z</time>
      </trkpt>
      <trkpt lat="45.69356" lon="4.58828">
        <ele>634.2</ele>
        <time>2025-12-15T14:11:24Z</time>
      </trkpt>
      <trkpt lat="45.69353" lon="4.58837">
        <ele>633.4</ele>
        <time>2025-12-15T14:11:25Z</time>
      </trkpt>
      <trkpt lat="45.69351" lon="4.58844">
        <ele>632.6</ele>
        <time>2025-12-15T14:11:26Z</time>
      </trkpt>
      <trkpt lat="45.69349" lon="4.58849">
        <ele>632.2</ele>
        <time>2025-12-15T14:11:27Z</time>
      </trkpt>
      <trkpt lat="45.69347" lon="4.58854">
        <ele>631.6</ele>
        <time>2025-12-15T14:11:28Z</time>
      </trkpt>
      <trkpt lat="45.69346" lon="4.58857">
        <ele>631.2</ele>
        <time>2025-12-15T14:11:29Z</time>
      </trkpt>
      <trkpt lat="45.69345" lon="4.58859">
        <ele>631.2</ele>
        <time>2025-12-15T14:11:30Z</time>
      </trkpt>
      <trkpt lat="45.69343" lon="4.5886">
        <ele>631</ele>
        <time>2025-12-15T14:11:31Z</time>
      </trkpt>
      <trkpt lat="45.69342" lon="4.58862">
        <ele>630.6</ele>
        <time>2025-12-15T14:11:32Z</time>
      </trkpt>
      <trkpt lat="45.6934" lon="4.58864">
        <ele>630.2</ele>
        <time>2025-12-15T14:11:33Z</time>
      </trkpt>
      <trkpt lat="45.69339" lon="4.58868">
        <ele>629.8</ele>
        <time>2025-12-15T14:11:34Z</time>
      </trkpt>
      <trkpt lat="45.69338" lon="4.58872">
        <ele>629</ele>
        <time>2025-12-15T14:11:35Z</time>
      </trkpt>
      <trkpt lat="45.69336" lon="4.58876">
        <ele>628.2</ele>
        <time>2025-12-15T14:11:36Z</time>
      </trkpt>
      <trkpt lat="45.69334" lon="4.58881">
        <ele>627</ele>
        <time>2025-12-15T14:11:37Z</time>
      </trkpt>
      <trkpt lat="45.69329" lon="4.58886">
        <ele>626</ele>
        <time>2025-12-15T14:11:38Z</time>
      </trkpt>
      <trkpt lat="45.69324" lon="4.58889">
        <ele>624.8</ele>
        <time>2025-12-15T14:11:39Z</time>
      </trkpt>
      <trkpt lat="45.69319" lon="4.58892">
        <ele>623.6</ele>
        <time>2025-12-15T14:11:40Z</time>
      </trkpt>
      <trkpt lat="45.69314" lon="4.58893">
        <ele>622.6</ele>
        <time>2025-12-15T14:11:41Z</time>
      </trkpt>
      <trkpt lat="45.69309" lon="4.58895">
        <ele>621.8</ele>
        <time>2025-12-15T14:11:42Z</time>
      </trkpt>
      <trkpt lat="45.69305" lon="4.58895">
        <ele>621</ele>
        <time>2025-12-15T14:11:43Z</time>
      </trkpt>
      <trkpt lat="45.69301" lon="4.58896">
        <ele>620.4</ele>
        <time>2025-12-15T14:11:44Z</time>
      </trkpt>
      <trkpt lat="45.69296" lon="4.58897">
        <ele>619.8</ele>
        <time>2025-12-15T14:11:45Z</time>
      </trkpt>
      <trkpt lat="45.69292" lon="4.58901">
        <ele>619</ele>
        <time>2025-12-15T14:11:46Z</time>
      </trkpt>
      <trkpt lat="45.69287" lon="4.58907">
        <ele>618.2</ele>
        <time>2025-12-15T14:11:47Z</time>
      </trkpt>
      <trkpt lat="45.69284" lon="4.58913">
        <ele>617.6</ele>
        <time>2025-12-15T14:11:48Z</time>
      </trkpt>
      <trkpt lat="45.69281" lon="4.58917">
        <ele>616.8</ele>
        <time>2025-12-15T14:11:49Z</time>
      </trkpt>
      <trkpt lat="45.69281" lon="4.58919">
        <ele>616.4</ele>
        <time>2025-12-15T14:11:50Z</time>
      </trkpt>
      <trkpt lat="45.69281" lon="4.58921">
        <ele>616</ele>
        <time>2025-12-15T14:11:51Z</time>
      </trkpt>
      <trkpt lat="45.69281" lon="4.58923">
        <ele>615.8</ele>
        <time>2025-12-15T14:11:52Z</time>
      </trkpt>
      <trkpt lat="45.6928" lon="4.58927">
        <ele>615.8</ele>
        <time>2025-12-15T14:11:53Z</time>
      </trkpt>
      <trkpt lat="45.6928" lon="4.58931">
        <ele>615.8</ele>
        <time>2025-12-15T14:11:54Z</time>
      </trkpt>
      <trkpt lat="45.6928" lon="4.58931">
        <ele>615.6</ele>
        <time>2025-12-15T14:11:55Z</time>
      </trkpt>
      <trkpt lat="45.6928" lon="4.58931">
        <ele>615.4</ele>
        <time>2025-12-15T14:11:56Z</time>
      </trkpt>
      <trkpt lat="45.6928" lon="4.58931">
        <ele>615.2</ele>
        <time>2025-12-15T14:11:57Z</time>
      </trkpt>
      <trkpt lat="45.6928" lon="4.58931">
        <ele>615</ele>
        <time>2025-12-15T14:11:58Z</time>
      </trkpt>
      <trkpt lat="45.6928" lon="4.58931">
        <ele>615</ele>
        <time>2025-12-15T14:11:59Z</time>
      </trkpt>
      <trkpt lat="45.6928" lon="4.58931">
        <ele>615</ele>
        <time>2025-12-15T14:12:00Z</time>
      </trkpt>
      <trkpt lat="45.6928" lon="4.58931">
        <ele>615</ele>
        <time>2025-12-15T14:12:01Z</time>
      </trkpt>
      <trkpt lat="45.6928" lon="4.58931">
        <ele>615</ele>
        <time>2025-12-15T14:12:02Z</time>
      </trkpt>
      <trkpt lat="45.6928" lon="4.58931">
        <ele>615</ele>
        <time>2025-12-15T14:12:03Z</time>
      </trkpt>
      <trkpt lat="45.6928" lon="4.58931">
        <ele>615</ele>
        <time>2025-12-15T14:12:04Z</time>
      </trkpt>
      <trkpt lat="45.6928" lon="4.58931">
        <ele>615</ele>
        <time>2025-12-15T14:12:05Z</time>
      </trkpt>
      <trkpt lat="45.69279" lon="4.58932">
        <ele>615</ele>
        <time>2025-12-15T14:12:06Z</time>
      </trkpt>
      <trkpt lat="45.69278" lon="4.58934">
        <ele>615</ele>
        <time>2025-12-15T14:12:07Z</time>
      </trkpt>
      <trkpt lat="45.69277" lon="4.58938">
        <ele>614.8</ele>
        <time>2025-12-15T14:12:08Z</time>
      </trkpt>
      <trkpt lat="45.69275" lon="4.58944">
        <ele>614.4</ele>
        <time>2025-12-15T14:12:09Z</time>
      </trkpt>
      <trkpt lat="45.69274" lon="4.58952">
        <ele>613.6</ele>
        <time>2025-12-15T14:12:10Z</time>
      </trkpt>
      <trkpt lat="45.69273" lon="4.58962">
        <ele>612.6</ele>
        <time>2025-12-15T14:12:11Z</time>
      </trkpt>
      <trkpt lat="45.69272" lon="4.5897">
        <ele>611.6</ele>
        <time>2025-12-15T14:12:12Z</time>
      </trkpt>
      <trkpt lat="45.69272" lon="4.58977">
        <ele>610.8</ele>
        <time>2025-12-15T14:12:13Z</time>
      </trkpt>
      <trkpt lat="45.69273" lon="4.58986">
        <ele>609.8</ele>
        <time>2025-12-15T14:12:14Z</time>
      </trkpt>
      <trkpt lat="45.69276" lon="4.58994">
        <ele>609.2</ele>
        <time>2025-12-15T14:12:15Z</time>
      </trkpt>
      <trkpt lat="45.6928" lon="4.59002">
        <ele>608.4</ele>
        <time>2025-12-15T14:12:16Z</time>
      </trkpt>
      <trkpt lat="45.69283" lon="4.59008">
        <ele>607.8</ele>
        <time>2025-12-15T14:12:17Z</time>
      </trkpt>
      <trkpt lat="45.69287" lon="4.59015">
        <ele>607</ele>
        <time>2025-12-15T14:12:18Z</time>
      </trkpt>
      <trkpt lat="45.69292" lon="4.59023">
        <ele>606.4</ele>
        <time>2025-12-15T14:12:19Z</time>
      </trkpt>
      <trkpt lat="45.69297" lon="4.59031">
        <ele>605.6</ele>
        <time>2025-12-15T14:12:20Z</time>
      </trkpt>
      <trkpt lat="45.693" lon="4.59039">
        <ele>604.8</ele>
        <time>2025-12-15T14:12:21Z</time>
      </trkpt>
      <trkpt lat="45.69304" lon="4.59045">
        <ele>604.2</ele>
        <time>2025-12-15T14:12:22Z</time>
      </trkpt>
      <trkpt lat="45.69308" lon="4.5905">
        <ele>603.8</ele>
        <time>2025-12-15T14:12:23Z</time>
      </trkpt>
      <trkpt lat="45.69311" lon="4.59054">
        <ele>603.4</ele>
        <time>2025-12-15T14:12:24Z</time>
      </trkpt>
      <trkpt lat="45.69316" lon="4.59055">
        <ele>603</ele>
        <time>2025-12-15T14:12:25Z</time>
      </trkpt>
      <trkpt lat="45.69322" lon="4.59056">
        <ele>602.4</ele>
        <time>2025-12-15T14:12:26Z</time>
      </trkpt>
      <trkpt lat="45.69327" lon="4.59056">
        <ele>601.6</ele>
        <time>2025-12-15T14:12:27Z</time>
      </trkpt>
      <trkpt lat="45.69333" lon="4.59056">
        <ele>601</ele>
        <time>2025-12-15T14:12:28Z</time>
      </trkpt>
      <trkpt lat="45.69338" lon="4.59058">
        <ele>599.4</ele>
        <time>2025-12-15T14:12:29Z</time>
      </trkpt>
      <trkpt lat="45.69343" lon="4.59061">
        <ele>598.2</ele>
        <time>2025-12-15T14:12:30Z</time>
      </trkpt>
      <trkpt lat="45.69346" lon="4.59065">
        <ele>597</ele>
        <time>2025-12-15T14:12:31Z</time>
      </trkpt>
      <trkpt lat="45.6935" lon="4.59065">
        <ele>596</ele>
        <time>2025-12-15T14:12:32Z</time>
      </trkpt>
      <trkpt lat="45.69354" lon="4.59063">
        <ele>595.6</ele>
        <time>2025-12-15T14:12:33Z</time>
      </trkpt>
      <trkpt lat="45.69357" lon="4.5906">
        <ele>595</ele>
        <time>2025-12-15T14:12:34Z</time>
      </trkpt>
      <trkpt lat="45.69359" lon="4.59055">
        <ele>594.6</ele>
        <time>2025-12-15T14:12:35Z</time>
      </trkpt>
      <trkpt lat="45.69361" lon="4.5905">
        <ele>594</ele>
        <time>2025-12-15T14:12:36Z</time>
      </trkpt>
      <trkpt lat="45.69361" lon="4.59043">
        <ele>593.4</ele>
        <time>2025-12-15T14:12:37Z</time>
      </trkpt>
      <trkpt lat="45.6936" lon="4.59037">
        <ele>593</ele>
        <time>2025-12-15T14:12:38Z</time>
      </trkpt>
      <trkpt lat="45.69359" lon="4.59031">
        <ele>592.4</ele>
        <time>2025-12-15T14:12:39Z</time>
      </trkpt>
      <trkpt lat="45.69356" lon="4.59026">
        <ele>592</ele>
        <time>2025-12-15T14:12:40Z</time>
      </trkpt>
      <trkpt lat="45.69352" lon="4.59021">
        <ele>591.4</ele>
        <time>2025-12-15T14:12:41Z</time>
      </trkpt>
      <trkpt lat="45.69349" lon="4.59017">
        <ele>590.8</ele>
        <time>2025-12-15T14:12:42Z</time>
      </trkpt>
      <trkpt lat="45.69345" lon="4.59012">
        <ele>590.2</ele>
        <time>2025-12-15T14:12:43Z</time>
      </trkpt>
      <trkpt lat="45.69341" lon="4.59008">
        <ele>589.4</ele>
        <time>2025-12-15T14:12:44Z</time>
      </trkpt>
      <trkpt lat="45.69338" lon="4.59004">
        <ele>589</ele>
        <time>2025-12-15T14:12:45Z</time>
      </trkpt>
      <trkpt lat="45.69335" lon="4.59">
        <ele>588.4</ele>
        <time>2025-12-15T14:12:46Z</time>
      </trkpt>
      <trkpt lat="45.69335" lon="4.58996">
        <ele>588</ele>
        <time>2025-12-15T14:12:47Z</time>
      </trkpt>
      <trkpt lat="45.69336" lon="4.58991">
        <ele>587.6</ele>
        <time>2025-12-15T14:12:48Z</time>
      </trkpt>
      <trkpt lat="45.69338" lon="4.58987">
        <ele>587.4</ele>
        <time>2025-12-15T14:12:49Z</time>
      </trkpt>
      <trkpt lat="45.6934" lon="4.58984">
        <ele>587</ele>
        <time>2025-12-15T14:12:50Z</time>
      </trkpt>
      <trkpt lat="45.69343" lon="4.58982">
        <ele>586.8</ele>
        <time>2025-12-15T14:12:51Z</time>
      </trkpt>
      <trkpt lat="45.69345" lon="4.58981">
        <ele>586.6</ele>
        <time>2025-12-15T14:12:52Z</time>
      </trkpt>
      <trkpt lat="45.69347" lon="4.5898">
        <ele>586.6</ele>
        <time>2025-12-15T14:12:53Z</time>
      </trkpt>
      <trkpt lat="45.69349" lon="4.5898">
        <ele>586.6</ele>
        <time>2025-12-15T14:12:54Z</time>
      </trkpt>
      <trkpt lat="45.69349" lon="4.58981">
        <ele>586.6</ele>
        <time>2025-12-15T14:12:55Z</time>
      </trkpt>
      <trkpt lat="45.69349" lon="4.58983">
        <ele>586.6</ele>
        <time>2025-12-15T14:12:56Z</time>
      </trkpt>
      <trkpt lat="45.69349" lon="4.58986">
        <ele>586.6</ele>
        <time>2025-12-15T14:12:57Z</time>
      </trkpt>
      <trkpt lat="45.69349" lon="4.58988">
        <ele>586.4</ele>
        <time>2025-12-15T14:12:58Z</time>
      </trkpt>
      <trkpt lat="45.6935" lon="4.5899">
        <ele>586.4</ele>
        <time>2025-12-15T14:12:59Z</time>
      </trkpt>
      <trkpt lat="45.6935" lon="4.58991">
        <ele>586.2</ele>
        <time>2025-12-15T14:13:00Z</time>
      </trkpt>
      <trkpt lat="45.6935" lon="4.58991">
        <ele>586.2</ele>
        <time>2025-12-15T14:13:01Z</time>
      </trkpt>
      <trkpt lat="45.6935" lon="4.58991">
        <ele>586</ele>
        <time>2025-12-15T14:13:02Z</time>
      </trkpt>
      <trkpt lat="45.6935" lon="4.58991">
        <ele>586</ele>
        <time>2025-12-15T14:13:03Z</time>
      </trkpt>
      <trkpt lat="45.69351" lon="4.58993">
        <ele>586</ele>
        <time>2025-12-15T14:13:04Z</time>
      </trkpt>
      <trkpt lat="45.69353" lon="4.58996">
        <ele>586</ele>
        <time>2025-12-15T14:13:05Z</time>
      </trkpt>
      <trkpt lat="45.69355" lon="4.59">
        <ele>585.8</ele>
        <time>2025-12-15T14:13:06Z</time>
      </trkpt>
      <trkpt lat="45.69358" lon="4.59004">
        <ele>585.6</ele>
        <time>2025-12-15T14:13:07Z</time>
      </trkpt>
      <trkpt lat="45.69361" lon="4.59007">
        <ele>585.4</ele>
        <time>2025-12-15T14:13:08Z</time>
      </trkpt>
      <trkpt lat="45.69364" lon="4.59011">
        <ele>585</ele>
        <time>2025-12-15T14:13:09Z</time>
      </trkpt>
      <trkpt lat="45.69367" lon="4.59013">
        <ele>584.6</ele>
        <time>2025-12-15T14:13:10Z</time>
      </trkpt>
      <trkpt lat="45.69371" lon="4.59015">
        <ele>584.2</ele>
        <time>2025-12-15T14:13:11Z</time>
      </trkpt>
      <trkpt lat="45.69377" lon="4.59018">
        <ele>583.6</ele>
        <time>2025-12-15T14:13:12Z</time>
      </trkpt>
      <trkpt lat="45.69383" lon="4.59021">
        <ele>583.2</ele>
        <time>2025-12-15T14:13:13Z</time>
      </trkpt>
      <trkpt lat="45.69389" lon="4.59025">
        <ele>582.6</ele>
        <time>2025-12-15T14:13:14Z</time>
      </trkpt>
      <trkpt lat="45.69394" lon="4.59028">
        <ele>581.8</ele>
        <time>2025-12-15T14:13:15Z</time>
      </trkpt>
      <trkpt lat="45.69399" lon="4.59032">
        <ele>581.2</ele>
        <time>2025-12-15T14:13:16Z</time>
      </trkpt>
      <trkpt lat="45.69404" lon="4.59037">
        <ele>580.6</ele>
        <time>2025-12-15T14:13:17Z</time>
      </trkpt>
      <trkpt lat="45.6941" lon="4.59041">
        <ele>580</ele>
        <time>2025-12-15T14:13:18Z</time>
      </trkpt>
      <trkpt lat="45.69415" lon="4.59046">
        <ele>579.4</ele>
        <time>2025-12-15T14:13:19Z</time>
      </trkpt>
      <trkpt lat="45.6942" lon="4.59053">
        <ele>578.8</ele>
        <time>2025-12-15T14:13:20Z</time>
      </trkpt>
      <trkpt lat="45.69426" lon="4.59061">
        <ele>578</ele>
        <time>2025-12-15T14:13:21Z</time>
      </trkpt>
      <trkpt lat="45.69431" lon="4.5907">
        <ele>577.2</ele>
        <time>2025-12-15T14:13:22Z</time>
      </trkpt>
      <trkpt lat="45.69436" lon="4.59078">
        <ele>576.4</ele>
        <time>2025-12-15T14:13:23Z</time>
      </trkpt>
      <trkpt lat="45.6944" lon="4.59089">
        <ele>575.4</ele>
        <time>2025-12-15T14:13:24Z</time>
      </trkpt>
      <trkpt lat="45.69443" lon="4.59101">
        <ele>574.6</ele>
        <time>2025-12-15T14:13:25Z</time>
      </trkpt>
      <trkpt lat="45.69444" lon="4.59113">
        <ele>573.8</ele>
        <time>2025-12-15T14:13:26Z</time>
      </trkpt>
      <trkpt lat="45.69444" lon="4.59125">
        <ele>573.2</ele>
        <time>2025-12-15T14:13:27Z</time>
      </trkpt>
      <trkpt lat="45.69444" lon="4.59135">
        <ele>572.6</ele>
        <time>2025-12-15T14:13:28Z</time>
      </trkpt>
      <trkpt lat="45.69443" lon="4.59146">
        <ele>572</ele>
        <time>2025-12-15T14:13:29Z</time>
      </trkpt>
      <trkpt lat="45.69442" lon="4.59156">
        <ele>571.4</ele>
        <time>2025-12-15T14:13:30Z</time>
      </trkpt>
      <trkpt lat="45.6944" lon="4.59167">
        <ele>570.8</ele>
        <time>2025-12-15T14:13:31Z</time>
      </trkpt>
      <trkpt lat="45.69437" lon="4.59178">
        <ele>570</ele>
        <time>2025-12-15T14:13:32Z</time>
      </trkpt>
      <trkpt lat="45.69434" lon="4.59189">
        <ele>569.2</ele>
        <time>2025-12-15T14:13:33Z</time>
      </trkpt>
      <trkpt lat="45.6943" lon="4.592">
        <ele>568.2</ele>
        <time>2025-12-15T14:13:34Z</time>
      </trkpt>
      <trkpt lat="45.69426" lon="4.59211">
        <ele>567</ele>
        <time>2025-12-15T14:13:35Z</time>
      </trkpt>
      <trkpt lat="45.69422" lon="4.59223">
        <ele>566</ele>
        <time>2025-12-15T14:13:36Z</time>
      </trkpt>
      <trkpt lat="45.69417" lon="4.59233">
        <ele>564.6</ele>
        <time>2025-12-15T14:13:37Z</time>
      </trkpt>
      <trkpt lat="45.69413" lon="4.59244">
        <ele>563.4</ele>
        <time>2025-12-15T14:13:38Z</time>
      </trkpt>
      <trkpt lat="45.69409" lon="4.59254">
        <ele>562.4</ele>
        <time>2025-12-15T14:13:39Z</time>
      </trkpt>
      <trkpt lat="45.69405" lon="4.59263">
        <ele>561.4</ele>
        <time>2025-12-15T14:13:40Z</time>
      </trkpt>
      <trkpt lat="45.69401" lon="4.59272">
        <ele>561</ele>
        <time>2025-12-15T14:13:41Z</time>
      </trkpt>
      <trkpt lat="45.69397" lon="4.5928">
        <ele>560.6</ele>
        <time>2025-12-15T14:13:42Z</time>
      </trkpt>
      <trkpt lat="45.69394" lon="4.59289">
        <ele>560.4</ele>
        <time>2025-12-15T14:13:43Z</time>
      </trkpt>
      <trkpt lat="45.69391" lon="4.59296">
        <ele>560.2</ele>
        <time>2025-12-15T14:13:44Z</time>
      </trkpt>
      <trkpt lat="45.69389" lon="4.59302">
        <ele>560</ele>
        <time>2025-12-15T14:13:45Z</time>
      </trkpt>
      <trkpt lat="45.69387" lon="4.59305">
        <ele>559.8</ele>
        <time>2025-12-15T14:13:46Z</time>
      </trkpt>
      <trkpt lat="45.69387" lon="4.59308">
        <ele>559.6</ele>
        <time>2025-12-15T14:13:47Z</time>
      </trkpt>
      <trkpt lat="45.69388" lon="4.59311">
        <ele>559.4</ele>
        <time>2025-12-15T14:13:48Z</time>
      </trkpt>
      <trkpt lat="45.6939" lon="4.59311">
        <ele>559.4</ele>
        <time>2025-12-15T14:13:49Z</time>
      </trkpt>
      <trkpt lat="45.69394" lon="4.5931">
        <ele>559</ele>
        <time>2025-12-15T14:13:50Z</time>
      </trkpt>
      <trkpt lat="45.69398" lon="4.59308">
        <ele>558.6</ele>
        <time>2025-12-15T14:13:51Z</time>
      </trkpt>
      <trkpt lat="45.69403" lon="4.59306">
        <ele>558.2</ele>
        <time>2025-12-15T14:13:52Z</time>
      </trkpt>
      <trkpt lat="45.69408" lon="4.59304">
        <ele>557.4</ele>
        <time>2025-12-15T14:13:53Z</time>
      </trkpt>
      <trkpt lat="45.69415" lon="4.59301">
        <ele>556.6</ele>
        <time>2025-12-15T14:13:54Z</time>
      </trkpt>
      <trkpt lat="45.69421" lon="4.59298">
        <ele>555.4</ele>
        <time>2025-12-15T14:13:55Z</time>
      </trkpt>
      <trkpt lat="45.69427" lon="4.59295">
        <ele>554.4</ele>
        <time>2025-12-15T14:13:56Z</time>
      </trkpt>
      <trkpt lat="45.69434" lon="4.59292">
        <ele>553</ele>
        <time>2025-12-15T14:13:57Z</time>
      </trkpt>
      <trkpt lat="45.69442" lon="4.59288">
        <ele>551.6</ele>
        <time>2025-12-15T14:13:58Z</time>
      </trkpt>
      <trkpt lat="45.6945" lon="4.59283">
        <ele>549.8</ele>
        <time>2025-12-15T14:13:59Z</time>
      </trkpt>
      <trkpt lat="45.69459" lon="4.59279">
        <ele>548.2</ele>
        <time>2025-12-15T14:14:00Z</time>
      </trkpt>
      <trkpt lat="45.69467" lon="4.59274">
        <ele>546.4</ele>
        <time>2025-12-15T14:14:01Z</time>
      </trkpt>
      <trkpt lat="45.69475" lon="4.59269">
        <ele>544.6</ele>
        <time>2025-12-15T14:14:02Z</time>
      </trkpt>
      <trkpt lat="45.69481" lon="4.59264">
        <ele>543.2</ele>
        <time>2025-12-15T14:14:03Z</time>
      </trkpt>
      <trkpt lat="45.69487" lon="4.59259">
        <ele>542.2</ele>
        <time>2025-12-15T14:14:04Z</time>
      </trkpt>
      <trkpt lat="45.69492" lon="4.59255">
        <ele>541.2</ele>
        <time>2025-12-15T14:14:05Z</time>
      </trkpt>
      <trkpt lat="45.69496" lon="4.59252">
        <ele>540.6</ele>
        <time>2025-12-15T14:14:06Z</time>
      </trkpt>
      <trkpt lat="45.69501" lon="4.59249">
        <ele>540.2</ele>
        <time>2025-12-15T14:14:07Z</time>
      </trkpt>
      <trkpt lat="45.69506" lon="4.59246">
        <ele>539.8</ele>
        <time>2025-12-15T14:14:08Z</time>
      </trkpt>
      <trkpt lat="45.6951" lon="4.59243">
        <ele>539.2</ele>
        <time>2025-12-15T14:14:09Z</time>
      </trkpt>
      <trkpt lat="45.69514" lon="4.59241">
        <ele>538.6</ele>
        <time>2025-12-15T14:14:10Z</time>
      </trkpt>
      <trkpt lat="45.69518" lon="4.59238">
        <ele>538</ele>
        <time>2025-12-15T14:14:11Z</time>
      </trkpt>
      <trkpt lat="45.69521" lon="4.59234">
        <ele>537.4</ele>
        <time>2025-12-15T14:14:12Z</time>
      </trkpt>
      <trkpt lat="45.69524" lon="4.5923">
        <ele>537</ele>
        <time>2025-12-15T14:14:13Z</time>
      </trkpt>
      <trkpt lat="45.69527" lon="4.59227">
        <ele>536.4</ele>
        <time>2025-12-15T14:14:14Z</time>
      </trkpt>
      <trkpt lat="45.6953" lon="4.59223">
        <ele>535.8</ele>
        <time>2025-12-15T14:14:15Z</time>
      </trkpt>
      <trkpt lat="45.69533" lon="4.59219">
        <ele>535.2</ele>
        <time>2025-12-15T14:14:16Z</time>
      </trkpt>
      <trkpt lat="45.69537" lon="4.59214">
        <ele>534.4</ele>
        <time>2025-12-15T14:14:17Z</time>
      </trkpt>
      <trkpt lat="45.6954" lon="4.5921">
        <ele>533.8</ele>
        <time>2025-12-15T14:14:18Z</time>
      </trkpt>
      <trkpt lat="45.69543" lon="4.59206">
        <ele>533.2</ele>
        <time>2025-12-15T14:14:19Z</time>
      </trkpt>
      <trkpt lat="45.69545" lon="4.59203">
        <ele>532.4</ele>
        <time>2025-12-15T14:14:20Z</time>
      </trkpt>
      <trkpt lat="45.69546" lon="4.59199">
        <ele>532</ele>
        <time>2025-12-15T14:14:21Z</time>
      </trkpt>
      <trkpt lat="45.69549" lon="4.59195">
        <ele>531.6</ele>
        <time>2025-12-15T14:14:22Z</time>
      </trkpt>
      <trkpt lat="45.69551" lon="4.5919">
        <ele>531.2</ele>
        <time>2025-12-15T14:14:23Z</time>
      </trkpt>
      <trkpt lat="45.69553" lon="4.59185">
        <ele>530.8</ele>
        <time>2025-12-15T14:14:24Z</time>
      </trkpt>
      <trkpt lat="45.69556" lon="4.59179">
        <ele>530.2</ele>
        <time>2025-12-15T14:14:25Z</time>
      </trkpt>
      <trkpt lat="45.69559" lon="4.59172">
        <ele>529.4</ele>
        <time>2025-12-15T14:14:26Z</time>
      </trkpt>
      <trkpt lat="45.69561" lon="4.59164">
        <ele>528.6</ele>
        <time>2025-12-15T14:14:27Z</time>
      </trkpt>
      <trkpt lat="45.69563" lon="4.59156">
        <ele>527.8</ele>
        <time>2025-12-15T14:14:28Z</time>
      </trkpt>
      <trkpt lat="45.69565" lon="4.59148">
        <ele>527</ele>
        <time>2025-12-15T14:14:29Z</time>
      </trkpt>
      <trkpt lat="45.69566" lon="4.5914">
        <ele>526</ele>
        <time>2025-12-15T14:14:30Z</time>
      </trkpt>
      <trkpt lat="45.69568" lon="4.59132">
        <ele>525.4</ele>
        <time>2025-12-15T14:14:31Z</time>
      </trkpt>
      <trkpt lat="45.6957" lon="4.59125">
        <ele>524.6</ele>
        <time>2025-12-15T14:14:32Z</time>
      </trkpt>
      <trkpt lat="45.69574" lon="4.59117">
        <ele>524</ele>
        <time>2025-12-15T14:14:33Z</time>
      </trkpt>
      <trkpt lat="45.69576" lon="4.59111">
        <ele>523.6</ele>
        <time>2025-12-15T14:14:34Z</time>
      </trkpt>
      <trkpt lat="45.69578" lon="4.59106">
        <ele>523.4</ele>
        <time>2025-12-15T14:14:35Z</time>
      </trkpt>
      <trkpt lat="45.69581" lon="4.59102">
        <ele>523.4</ele>
        <time>2025-12-15T14:14:36Z</time>
      </trkpt>
      <trkpt lat="45.69582" lon="4.59101">
        <ele>523.4</ele>
        <time>2025-12-15T14:14:37Z</time>
      </trkpt>
      <trkpt lat="45.69583" lon="4.59101">
        <ele>523.6</ele>
        <time>2025-12-15T14:14:38Z</time>
      </trkpt>
      <trkpt lat="45.69585" lon="4.59104">
        <ele>523.8</ele>
        <time>2025-12-15T14:14:39Z</time>
      </trkpt>
      <trkpt lat="45.69587" lon="4.59108">
        <ele>523.8</ele>
        <time>2025-12-15T14:14:40Z</time>
      </trkpt>
      <trkpt lat="45.69588" lon="4.59113">
        <ele>523.6</ele>
        <time>2025-12-15T14:14:41Z</time>
      </trkpt>
      <trkpt lat="45.6959" lon="4.59117">
        <ele>523.2</ele>
        <time>2025-12-15T14:14:42Z</time>
      </trkpt>
      <trkpt lat="45.69591" lon="4.59121">
        <ele>522.8</ele>
        <time>2025-12-15T14:14:43Z</time>
      </trkpt>
      <trkpt lat="45.69592" lon="4.59126">
        <ele>522.2</ele>
        <time>2025-12-15T14:14:44Z</time>
      </trkpt>
      <trkpt lat="45.69593" lon="4.59131">
        <ele>521.6</ele>
        <time>2025-12-15T14:14:45Z</time>
      </trkpt>
      <trkpt lat="45.69596" lon="4.59137">
        <ele>521</ele>
        <time>2025-12-15T14:14:46Z</time>
      </trkpt>
      <trkpt lat="45.69598" lon="4.59144">
        <ele>520.4</ele>
        <time>2025-12-15T14:14:47Z</time>
      </trkpt>
      <trkpt lat="45.69599" lon="4.59151">
        <ele>519.6</ele>
        <time>2025-12-15T14:14:48Z</time>
      </trkpt>
      <trkpt lat="45.69602" lon="4.59158">
        <ele>519</ele>
        <time>2025-12-15T14:14:49Z</time>
      </trkpt>
      <trkpt lat="45.69605" lon="4.59166">
        <ele>518.4</ele>
        <time>2025-12-15T14:14:50Z</time>
      </trkpt>
      <trkpt lat="45.69608" lon="4.59174">
        <ele>517.6</ele>
        <time>2025-12-15T14:14:51Z</time>
      </trkpt>
      <trkpt lat="45.69612" lon="4.59182">
        <ele>517</ele>
        <time>2025-12-15T14:14:52Z</time>
      </trkpt>
      <trkpt lat="45.69615" lon="4.5919">
        <ele>516.6</ele>
        <time>2025-12-15T14:14:53Z</time>
      </trkpt>
      <trkpt lat="45.69618" lon="4.59197">
        <ele>516.2</ele>
        <time>2025-12-15T14:14:54Z</time>
      </trkpt>
      <trkpt lat="45.69621" lon="4.59203">
        <ele>515.8</ele>
        <time>2025-12-15T14:14:55Z</time>
      </trkpt>
      <trkpt lat="45.69624" lon="4.59207">
        <ele>515.6</ele>
        <time>2025-12-15T14:14:56Z</time>
      </trkpt>
      <trkpt lat="45.69626" lon="4.59211">
        <ele>515.6</ele>
        <time>2025-12-15T14:14:57Z</time>
      </trkpt>
      <trkpt lat="45.69628" lon="4.59215">
        <ele>515.6</ele>
        <time>2025-12-15T14:14:58Z</time>
      </trkpt>
      <trkpt lat="45.6963" lon="4.59219">
        <ele>515.6</ele>
        <time>2025-12-15T14:14:59Z</time>
      </trkpt>
      <trkpt lat="45.69631" lon="4.59223">
        <ele>515.6</ele>
        <time>2025-12-15T14:15:00Z</time>
      </trkpt>
      <trkpt lat="45.69633" lon="4.59227">
        <ele>515.6</ele>
        <time>2025-12-15T14:15:01Z</time>
      </trkpt>
      <trkpt lat="45.69633" lon="4.59231">
        <ele>515.6</ele>
        <time>2025-12-15T14:15:02Z</time>
      </trkpt>
      <trkpt lat="45.69634" lon="4.59235">
        <ele>515.2</ele>
        <time>2025-12-15T14:15:03Z</time>
      </trkpt>
      <trkpt lat="45.69634" lon="4.59239">
        <ele>515</ele>
        <time>2025-12-15T14:15:04Z</time>
      </trkpt>
      <trkpt lat="45.69634" lon="4.59241">
        <ele>514.8</ele>
        <time>2025-12-15T14:15:05Z</time>
      </trkpt>
      <trkpt lat="45.69635" lon="4.59243">
        <ele>514.4</ele>
        <time>2025-12-15T14:15:06Z</time>
      </trkpt>
      <trkpt lat="45.69635" lon="4.59244">
        <ele>514.2</ele>
        <time>2025-12-15T14:15:07Z</time>
      </trkpt>
      <trkpt lat="45.69635" lon="4.59245">
        <ele>514</ele>
        <time>2025-12-15T14:15:08Z</time>
      </trkpt>
      <trkpt lat="45.69635" lon="4.59246">
        <ele>513.8</ele>
        <time>2025-12-15T14:15:09Z</time>
      </trkpt>
      <trkpt lat="45.69635" lon="4.59246">
        <ele>513.6</ele>
        <time>2025-12-15T14:15:10Z</time>
      </trkpt>
      <trkpt lat="45.69635" lon="4.59246">
        <ele>513.4</ele>
        <time>2025-12-15T14:15:11Z</time>
      </trkpt>
      <trkpt lat="45.69635" lon="4.59246">
        <ele>513.2</ele>
        <time>2025-12-15T14:15:12Z</time>
      </trkpt>
      <trkpt lat="45.69635" lon="4.59246">
        <ele>513.2</ele>
        <time>2025-12-15T14:15:13Z</time>
      </trkpt>
      <trkpt lat="45.69635" lon="4.59246">
        <ele>513</ele>
        <time>2025-12-15T14:15:14Z</time>
      </trkpt>
      <trkpt lat="45.69635" lon="4.59246">
        <ele>513</ele>
        <time>2025-12-15T14:15:15Z</time>
      </trkpt>
      <trkpt lat="45.69635" lon="4.59246">
        <ele>513</ele>
        <time>2025-12-15T14:15:16Z</time>
      </trkpt>
      <trkpt lat="45.69635" lon="4.59246">
        <ele>513</ele>
        <time>2025-12-15T14:15:17Z</time>
      </trkpt>
      <trkpt lat="45.69635" lon="4.59246">
        <ele>512.8</ele>
        <time>2025-12-15T14:15:18Z</time>
      </trkpt>
      <trkpt lat="45.69635" lon="4.59246">
        <ele>512.8</ele>
        <time>2025-12-15T14:15:19Z</time>
      </trkpt>
      <trkpt lat="45.69635" lon="4.59246">
        <ele>512.8</ele>
        <time>2025-12-15T14:15:20Z</time>
      </trkpt>
      <trkpt lat="45.69635" lon="4.59246">
        <ele>512.8</ele>
        <time>2025-12-15T14:15:21Z</time>
      </trkpt>
      <trkpt lat="45.69635" lon="4.59246">
        <ele>513</ele>
        <time>2025-12-15T14:15:22Z</time>
      </trkpt>
      <trkpt lat="45.69636" lon="4.59247">
        <ele>512.8</ele>
        <time>2025-12-15T14:15:23Z</time>
      </trkpt>
      <trkpt lat="45.69636" lon="4.59248">
        <ele>512.8</ele>
        <time>2025-12-15T14:15:24Z</time>
      </trkpt>
      <trkpt lat="45.69637" lon="4.59249">
        <ele>512.8</ele>
        <time>2025-12-15T14:15:25Z</time>
      </trkpt>
      <trkpt lat="45.69639" lon="4.59249">
        <ele>512.8</ele>
        <time>2025-12-15T14:15:26Z</time>
      </trkpt>
      <trkpt lat="45.6964" lon="4.59248">
        <ele>512.8</ele>
        <time>2025-12-15T14:15:27Z</time>
      </trkpt>
      <trkpt lat="45.69641" lon="4.59246">
        <ele>513</ele>
        <time>2025-12-15T14:15:28Z</time>
      </trkpt>
      <trkpt lat="45.69642" lon="4.59244">
        <ele>513.2</ele>
        <time>2025-12-15T14:15:29Z</time>
      </trkpt>
      <trkpt lat="45.69643" lon="4.59243">
        <ele>513.6</ele>
        <time>2025-12-15T14:15:30Z</time>
      </trkpt>
      <trkpt lat="45.69644" lon="4.59242">
        <ele>514</ele>
        <time>2025-12-15T14:15:31Z</time>
      </trkpt>
      <trkpt lat="45.69645" lon="4.59241">
        <ele>514.6</ele>
        <time>2025-12-15T14:15:32Z</time>
      </trkpt>
      <trkpt lat="45.69647" lon="4.5924">
        <ele>515</ele>
        <time>2025-12-15T14:15:33Z</time>
      </trkpt>
      <trkpt lat="45.69648" lon="4.59239">
        <ele>515.4</ele>
        <time>2025-12-15T14:15:34Z</time>
      </trkpt>
      <trkpt lat="45.6965" lon="4.59239">
        <ele>516</ele>
        <time>2025-12-15T14:15:35Z</time>
      </trkpt>
      <trkpt lat="45.69653" lon="4.59238">
        <ele>516.4</ele>
        <time>2025-12-15T14:15:36Z</time>
      </trkpt>
      <trkpt lat="45.69654" lon="4.59237">
        <ele>516.8</ele>
        <time>2025-12-15T14:15:37Z</time>
      </trkpt>
      <trkpt lat="45.69656" lon="4.59235">
        <ele>517.2</ele>
        <time>2025-12-15T14:15:38Z</time>
      </trkpt>
      <trkpt lat="45.69658" lon="4.59234">
        <ele>517.6</ele>
        <time>2025-12-15T14:15:39Z</time>
      </trkpt>
      <trkpt lat="45.6966" lon="4.59233">
        <ele>517.8</ele>
        <time>2025-12-15T14:15:40Z</time>
      </trkpt>
      <trkpt lat="45.69662" lon="4.59232">
        <ele>518.2</ele>
        <time>2025-12-15T14:15:41Z</time>
      </trkpt>
      <trkpt lat="45.69663" lon="4.59231">
        <ele>518.6</ele>
        <time>2025-12-15T14:15:42Z</time>
      </trkpt>
      <trkpt lat="45.69663" lon="4.59231">
        <ele>519</ele>
        <time>2025-12-15T14:15:43Z</time>
      </trkpt>
      <trkpt lat="45.69663" lon="4.59231">
        <ele>519.2</ele>
        <time>2025-12-15T14:15:44Z</time>
      </trkpt>
      <trkpt lat="45.69663" lon="4.59231">
        <ele>519.4</ele>
        <time>2025-12-15T14:15:45Z</time>
      </trkpt>
      <trkpt lat="45.69663" lon="4.59231">
        <ele>519.6</ele>
        <time>2025-12-15T14:15:46Z</time>
      </trkpt>
      <trkpt lat="45.69663" lon="4.59231">
        <ele>519.6</ele>
        <time>2025-12-15T14:15:47Z</time>
      </trkpt>
      <trkpt lat="45.69663" lon="4.59231">
        <ele>519.6</ele>
        <time>2025-12-15T14:15:48Z</time>
      </trkpt>
      <trkpt lat="45.69663" lon="4.59231">
        <ele>519.4</ele>
        <time>2025-12-15T14:15:49Z</time>
      </trkpt>
      <trkpt lat="45.69663" lon="4.59231">
        <ele>519.4</ele>
        <time>2025-12-15T14:15:50Z</time>
      </trkpt>
      <trkpt lat="45.69663" lon="4.59231">
        <ele>519.4</ele>
        <time>2025-12-15T14:15:51Z</time>
      </trkpt>
      <trkpt lat="45.69663" lon="4.59231">
        <ele>519.2</ele>
        <time>2025-12-15T14:15:52Z</time>
      </trkpt>
      <trkpt lat="45.69663" lon="4.59231">
        <ele>519.2</ele>
        <time>2025-12-15T14:15:53Z</time>
      </trkpt>
      <trkpt lat="45.69663" lon="4.59231">
        <ele>519.2</ele>
        <time>2025-12-15T14:15:54Z</time>
      </trkpt>
      <trkpt lat="45.69663" lon="4.59231">
        <ele>519.2</ele>
        <time>2025-12-15T14:15:55Z</time>
      </trkpt>
      <trkpt lat="45.69663" lon="4.59231">
        <ele>519.2</ele>
        <time>2025-12-15T14:15:56Z</time>
      </trkpt>
      <trkpt lat="45.69663" lon="4.59231">
        <ele>519.2</ele>
        <time>2025-12-15T14:15:57Z</time>
      </trkpt>
      <trkpt lat="45.69663" lon="4.59231">
        <ele>519.2</ele>
        <time>2025-12-15T14:15:58Z</time>
      </trkpt>
      <trkpt lat="45.69663" lon="4.59231">
        <ele>519.2</ele>
        <time>2025-12-15T14:15:59Z</time>
      </trkpt>
      <trkpt lat="45.69663" lon="4.59231">
        <ele>519.2</ele>
        <time>2025-12-15T14:16:00Z</time>
      </trkpt>
      <trkpt lat="45.69663" lon="4.59231">
        <ele>519</ele>
        <time>2025-12-15T14:16:01Z</time>
      </trkpt>
      <trkpt lat="45.69663" lon="4.59231">
        <ele>519</ele>
        <time>2025-12-15T14:16:02Z</time>
      </trkpt>
      <trkpt lat="45.69663" lon="4.59231">
        <ele>519</ele>
        <time>2025-12-15T14:16:03Z</time>
      </trkpt>
      <trkpt lat="45.69663" lon="4.59231">
        <ele>519</ele>
        <time>2025-12-15T14:16:04Z</time>
      </trkpt>
      <trkpt lat="45.69663" lon="4.59231">
        <ele>519</ele>
        <time>2025-12-15T14:16:05Z</time>
      </trkpt>
      <trkpt lat="45.69663" lon="4.59231">
        <ele>519</ele>
        <time>2025-12-15T14:16:06Z</time>
      </trkpt>
      <trkpt lat="45.69663" lon="4.59231">
        <ele>518.8</ele>
        <time>2025-12-15T14:16:07Z</time>
      </trkpt>
      <trkpt lat="45.69663" lon="4.59231">
        <ele>518.8</ele>
        <time>2025-12-15T14:16:08Z</time>
      </trkpt>
      <trkpt lat="45.69663" lon="4.59231">
        <ele>518.8</ele>
        <time>2025-12-15T14:16:09Z</time>
      </trkpt>
      <trkpt lat="45.69663" lon="4.59231">
        <ele>518.6</ele>
        <time>2025-12-15T14:16:10Z</time>
      </trkpt>
      <trkpt lat="45.69663" lon="4.59231">
        <ele>518.6</ele>
        <time>2025-12-15T14:16:11Z</time>
      </trkpt>
      <trkpt lat="45.69663" lon="4.59231">
        <ele>518.4</ele>
        <time>2025-12-15T14:16:12Z</time>
      </trkpt>
      <trkpt lat="45.69663" lon="4.59231">
        <ele>518.4</ele>
        <time>2025-12-15T14:16:13Z</time>
      </trkpt>
      <trkpt lat="45.69663" lon="4.59231">
        <ele>518.4</ele>
        <time>2025-12-15T14:16:14Z</time>
      </trkpt>
      <trkpt lat="45.69663" lon="4.59231">
        <ele>518.2</ele>
        <time>2025-12-15T14:16:15Z</time>
      </trkpt>
      <trkpt lat="45.69663" lon="4.59231">
        <ele>518.2</ele>
        <time>2025-12-15T14:16:16Z</time>
      </trkpt>
      <trkpt lat="45.69663" lon="4.59231">
        <ele>518.2</ele>
        <time>2025-12-15T14:16:17Z</time>
      </trkpt>
      <trkpt lat="45.69663" lon="4.59231">
        <ele>518.4</ele>
        <time>2025-12-15T14:16:18Z</time>
      </trkpt>
      <trkpt lat="45.69663" lon="4.59231">
        <ele>518.4</ele>
        <time>2025-12-15T14:16:19Z</time>
      </trkpt>
      <trkpt lat="45.69663" lon="4.59231">
        <ele>518.4</ele>
        <time>2025-12-15T14:16:20Z</time>
      </trkpt>
      <trkpt lat="45.69663" lon="4.59231">
        <ele>518.6</ele>
        <time>2025-12-15T14:16:21Z</time>
      </trkpt>
      <trkpt lat="45.69663" lon="4.59231">
        <ele>518.6</ele>
        <time>2025-12-15T14:16:22Z</time>
      </trkpt>
      <trkpt lat="45.69663" lon="4.59231">
        <ele>518.6</ele>
        <time>2025-12-15T14:16:23Z</time>
      </trkpt>
      <trkpt lat="45.69663" lon="4.59231">
        <ele>518.6</ele>
        <time>2025-12-15T14:16:24Z</time>
      </trkpt>
      <trkpt lat="45.69663" lon="4.59231">
        <ele>518.6</ele>
        <time>2025-12-15T14:16:25Z</time>
      </trkpt>
      <trkpt lat="45.69663" lon="4.59231">
        <ele>518.6</ele>
        <time>2025-12-15T14:16:26Z</time>
      </trkpt>
      <trkpt lat="45.69663" lon="4.59231">
        <ele>518.6</ele>
        <time>2025-12-15T14:16:27Z</time>
      </trkpt>
      <trkpt lat="45.69663" lon="4.59231">
        <ele>518.8</ele>
        <time>2025-12-15T14:16:28Z</time>
      </trkpt>
      <trkpt lat="45.69663" lon="4.59231">
        <ele>518.8</ele>
        <time>2025-12-15T14:16:29Z</time>
      </trkpt>
      <trkpt lat="45.69663" lon="4.59231">
        <ele>518.8</ele>
        <time>2025-12-15T14:16:30Z</time>
      </trkpt>
      <trkpt lat="45.69663" lon="4.59231">
        <ele>519</ele>
        <time>2025-12-15T14:16:31Z</time>
      </trkpt>
      <trkpt lat="45.69663" lon="4.59231">
        <ele>519</ele>
        <time>2025-12-15T14:16:32Z</time>
      </trkpt>
      <trkpt lat="45.69663" lon="4.59231">
        <ele>518.8</ele>
        <time>2025-12-15T14:16:33Z</time>
      </trkpt>
      <trkpt lat="45.69663" lon="4.59231">
        <ele>518.8</ele>
        <time>2025-12-15T14:16:34Z</time>
      </trkpt>
      <trkpt lat="45.69663" lon="4.59231">
        <ele>518.8</ele>
        <time>2025-12-15T14:16:35Z</time>
      </trkpt>
      <trkpt lat="45.69663" lon="4.59231">
        <ele>518.8</ele>
        <time>2025-12-15T14:16:36Z</time>
      </trkpt>
      <trkpt lat="45.69663" lon="4.59231">
        <ele>518.8</ele>
        <time>2025-12-15T14:16:37Z</time>
      </trkpt>
      <trkpt lat="45.69663" lon="4.59231">
        <ele>518.8</ele>
        <time>2025-12-15T14:16:38Z</time>
      </trkpt>
      <trkpt lat="45.69663" lon="4.59231">
        <ele>518.8</ele>
        <time>2025-12-15T14:16:39Z</time>
      </trkpt>
      <trkpt lat="45.69663" lon="4.59231">
        <ele>518.8</ele>
        <time>2025-12-15T14:16:40Z</time>
      </trkpt>
      <trkpt lat="45.69663" lon="4.59231">
        <ele>518.8</ele>
        <time>2025-12-15T14:16:41Z</time>
      </trkpt>
      <trkpt lat="45.69663" lon="4.59231">
        <ele>518.8</ele>
        <time>2025-12-15T14:16:42Z</time>
      </trkpt>
      <trkpt lat="45.69663" lon="4.59231">
        <ele>518.8</ele>
        <time>2025-12-15T14:16:43Z</time>
      </trkpt>
      <trkpt lat="45.69663" lon="4.59231">
        <ele>518.8</ele>
        <time>2025-12-15T14:16:44Z</time>
      </trkpt>
      <trkpt lat="45.69663" lon="4.59231">
        <ele>518.8</ele>
        <time>2025-12-15T14:16:45Z</time>
      </trkpt>
      <trkpt lat="45.69663" lon="4.59231">
        <ele>518.8</ele>
        <time>2025-12-15T14:16:46Z</time>
      </trkpt>
      <trkpt lat="45.69663" lon="4.59231">
        <ele>518.8</ele>
        <time>2025-12-15T14:16:47Z</time>
      </trkpt>
      <trkpt lat="45.69663" lon="4.59231">
        <ele>518.8</ele>
        <time>2025-12-15T14:16:48Z</time>
      </trkpt>
      <trkpt lat="45.69663" lon="4.59231">
        <ele>518.8</ele>
        <time>2025-12-15T14:16:49Z</time>
      </trkpt>
      <trkpt lat="45.69663" lon="4.59231">
        <ele>518.8</ele>
        <time>2025-12-15T14:16:50Z</time>
      </trkpt>
      <trkpt lat="45.69663" lon="4.59231">
        <ele>519</ele>
        <time>2025-12-15T14:16:51Z</time>
      </trkpt>
      <trkpt lat="45.69663" lon="4.59231">
        <ele>519</ele>
        <time>2025-12-15T14:16:52Z</time>
      </trkpt>
      <trkpt lat="45.69663" lon="4.59231">
        <ele>519</ele>
        <time>2025-12-15T14:16:53Z</time>
      </trkpt>
      <trkpt lat="45.69663" lon="4.59231">
        <ele>519</ele>
        <time>2025-12-15T14:16:54Z</time>
      </trkpt>
      <trkpt lat="45.69663" lon="4.59231">
        <ele>519</ele>
        <time>2025-12-15T14:16:55Z</time>
      </trkpt>
      <trkpt lat="45.69663" lon="4.59231">
        <ele>519</ele>
        <time>2025-12-15T14:16:56Z</time>
      </trkpt>
      <trkpt lat="45.69663" lon="4.59231">
        <ele>519</ele>
        <time>2025-12-15T14:16:57Z</time>
      </trkpt>
      <trkpt lat="45.69663" lon="4.59231">
        <ele>519</ele>
        <time>2025-12-15T14:16:58Z</time>
      </trkpt>
      <trkpt lat="45.69663" lon="4.59231">
        <ele>519</ele>
        <time>2025-12-15T14:16:59Z</time>
      </trkpt>
      <trkpt lat="45.69663" lon="4.59231">
        <ele>519</ele>
        <time>2025-12-15T14:17:00Z</time>
      </trkpt>
      <trkpt lat="45.69663" lon="4.59231">
        <ele>519</ele>
        <time>2025-12-15T14:17:01Z</time>
      </trkpt>
      <trkpt lat="45.69663" lon="4.59231">
        <ele>519</ele>
        <time>2025-12-15T14:17:02Z</time>
      </trkpt>
      <trkpt lat="45.69663" lon="4.59231">
        <ele>519</ele>
        <time>2025-12-15T14:17:03Z</time>
      </trkpt>
      <trkpt lat="45.69663" lon="4.59231">
        <ele>519</ele>
        <time>2025-12-15T14:17:04Z</time>
      </trkpt>
      <trkpt lat="45.69663" lon="4.59231">
        <ele>519</ele>
        <time>2025-12-15T14:17:05Z</time>
      </trkpt>
      <trkpt lat="45.69663" lon="4.59231">
        <ele>519</ele>
        <time>2025-12-15T14:17:06Z</time>
      </trkpt>
      <trkpt lat="45.69663" lon="4.59231">
        <ele>519</ele>
        <time>2025-12-15T14:17:07Z</time>
      </trkpt>
      <trkpt lat="45.69663" lon="4.59231">
        <ele>519</ele>
        <time>2025-12-15T14:17:08Z</time>
      </trkpt>
      <trkpt lat="45.69663" lon="4.59231">
        <ele>519</ele>
        <time>2025-12-15T14:17:09Z</time>
      </trkpt>
      <trkpt lat="45.69663" lon="4.59231">
        <ele>519</ele>
        <time>2025-12-15T14:17:10Z</time>
      </trkpt>
      <trkpt lat="45.69663" lon="4.59231">
        <ele>519</ele>
        <time>2025-12-15T14:17:11Z</time>
      </trkpt>
      <trkpt lat="45.69663" lon="4.59231">
        <ele>519</ele>
        <time>2025-12-15T14:17:12Z</time>
      </trkpt>
      <trkpt lat="45.69663" lon="4.59231">
        <ele>519</ele>
        <time>2025-12-15T14:17:13Z</time>
      </trkpt>
      <trkpt lat="45.69663" lon="4.59231">
        <ele>519</ele>
        <time>2025-12-15T14:17:14Z</time>
      </trkpt>
      <trkpt lat="45.69663" lon="4.59231">
        <ele>519</ele>
        <time>2025-12-15T14:17:15Z</time>
      </trkpt>
      <trkpt lat="45.69663" lon="4.59231">
        <ele>519.2</ele>
        <time>2025-12-15T14:17:16Z</time>
      </trkpt>
      <trkpt lat="45.69663" lon="4.59231">
        <ele>519.2</ele>
        <time>2025-12-15T14:17:17Z</time>
      </trkpt>
      <trkpt lat="45.69663" lon="4.59231">
        <ele>519.2</ele>
        <time>2025-12-15T14:17:18Z</time>
      </trkpt>
      <trkpt lat="45.69663" lon="4.59231">
        <ele>519.2</ele>
        <time>2025-12-15T14:17:19Z</time>
      </trkpt>
      <trkpt lat="45.69663" lon="4.59231">
        <ele>519.2</ele>
        <time>2025-12-15T14:17:20Z</time>
      </trkpt>
      <trkpt lat="45.69663" lon="4.59231">
        <ele>519.2</ele>
        <time>2025-12-15T14:17:21Z</time>
      </trkpt>
      <trkpt lat="45.69663" lon="4.59231">
        <ele>519.2</ele>
        <time>2025-12-15T14:17:22Z</time>
      </trkpt>
      <trkpt lat="45.69663" lon="4.59231">
        <ele>519.2</ele>
        <time>2025-12-15T14:17:23Z</time>
      </trkpt>
      <trkpt lat="45.69663" lon="4.59231">
        <ele>519.2</ele>
        <time>2025-12-15T14:17:24Z</time>
      </trkpt>
      <trkpt lat="45.69663" lon="4.59231">
        <ele>519.2</ele>
        <time>2025-12-15T14:17:25Z</time>
      </trkpt>
      <trkpt lat="45.69663" lon="4.59231">
        <ele>519.2</ele>
        <time>2025-12-15T14:17:26Z</time>
      </trkpt>
      <trkpt lat="45.69663" lon="4.59231">
        <ele>519.2</ele>
        <time>2025-12-15T14:17:27Z</time>
      </trkpt>
      <trkpt lat="45.69663" lon="4.59231">
        <ele>519.2</ele>
        <time>2025-12-15T14:17:28Z</time>
      </trkpt>
      <trkpt lat="45.69663" lon="4.59231">
        <ele>519.2</ele>
        <time>2025-12-15T14:17:29Z</time>
      </trkpt>
      <trkpt lat="45.69663" lon="4.59231">
        <ele>519.2</ele>
        <time>2025-12-15T14:17:30Z</time>
      </trkpt>
      <trkpt lat="45.69663" lon="4.59231">
        <ele>519.2</ele>
        <time>2025-12-15T14:17:31Z</time>
      </trkpt>
      <trkpt lat="45.69663" lon="4.59231">
        <ele>519.2</ele>
        <time>2025-12-15T14:17:32Z</time>
      </trkpt>
      <trkpt lat="45.69663" lon="4.59231">
        <ele>519.2</ele>
        <time>2025-12-15T14:17:33Z</time>
      </trkpt>
      <trkpt lat="45.69663" lon="4.59231">
        <ele>519.2</ele>
        <time>2025-12-15T14:17:34Z</time>
      </trkpt>
      <trkpt lat="45.69663" lon="4.59231">
        <ele>519.2</ele>
        <time>2025-12-15T14:17:35Z</time>
      </trkpt>
      <trkpt lat="45.69663" lon="4.59231">
        <ele>519.4</ele>
        <time>2025-12-15T14:17:36Z</time>
      </trkpt>
      <trkpt lat="45.69663" lon="4.59231">
        <ele>519.4</ele>
        <time>2025-12-15T14:17:37Z</time>
      </trkpt>
      <trkpt lat="45.69663" lon="4.59231">
        <ele>519.4</ele>
        <time>2025-12-15T14:17:38Z</time>
      </trkpt>
      <trkpt lat="45.69663" lon="4.59231">
        <ele>519.4</ele>
        <time>2025-12-15T14:17:39Z</time>
      </trkpt>
      <trkpt lat="45.69663" lon="4.59231">
        <ele>519.4</ele>
        <time>2025-12-15T14:17:40Z</time>
      </trkpt>
      <trkpt lat="45.69663" lon="4.59231">
        <ele>519.4</ele>
        <time>2025-12-15T14:17:41Z</time>
      </trkpt>
      <trkpt lat="45.69663" lon="4.59231">
        <ele>519.6</ele>
        <time>2025-12-15T14:17:42Z</time>
      </trkpt>
      <trkpt lat="45.69663" lon="4.59231">
        <ele>519.6</ele>
        <time>2025-12-15T14:17:43Z</time>
      </trkpt>
      <trkpt lat="45.69663" lon="4.59231">
        <ele>519.6</ele>
        <time>2025-12-15T14:17:44Z</time>
      </trkpt>
      <trkpt lat="45.69663" lon="4.59231">
        <ele>519.6</ele>
        <time>2025-12-15T14:17:45Z</time>
      </trkpt>
      <trkpt lat="45.69663" lon="4.59231">
        <ele>519.8</ele>
        <time>2025-12-15T14:17:46Z</time>
      </trkpt>
      <trkpt lat="45.69663" lon="4.59231">
        <ele>519.8</ele>
        <time>2025-12-15T14:17:47Z</time>
      </trkpt>
      <trkpt lat="45.69663" lon="4.59231">
        <ele>519.8</ele>
        <time>2025-12-15T14:17:48Z</time>
      </trkpt>
      <trkpt lat="45.69663" lon="4.59231">
        <ele>519.8</ele>
        <time>2025-12-15T14:17:49Z</time>
      </trkpt>
      <trkpt lat="45.69663" lon="4.59231">
        <ele>519.8</ele>
        <time>2025-12-15T14:17:50Z</time>
      </trkpt>
      <trkpt lat="45.69663" lon="4.59231">
        <ele>519.8</ele>
        <time>2025-12-15T14:17:51Z</time>
      </trkpt>
      <trkpt lat="45.69663" lon="4.59231">
        <ele>519.8</ele>
        <time>2025-12-15T14:17:52Z</time>
      </trkpt>
      <trkpt lat="45.69663" lon="4.59231">
        <ele>519.8</ele>
        <time>2025-12-15T14:17:53Z</time>
      </trkpt>
      <trkpt lat="45.69663" lon="4.59231">
        <ele>519.8</ele>
        <time>2025-12-15T14:17:54Z</time>
      </trkpt>
      <trkpt lat="45.69663" lon="4.59231">
        <ele>519.8</ele>
        <time>2025-12-15T14:17:55Z</time>
      </trkpt>
      <trkpt lat="45.69663" lon="4.59231">
        <ele>519.8</ele>
        <time>2025-12-15T14:17:56Z</time>
      </trkpt>
      <trkpt lat="45.69663" lon="4.59231">
        <ele>519.8</ele>
        <time>2025-12-15T14:17:57Z</time>
      </trkpt>
      <trkpt lat="45.69663" lon="4.59231">
        <ele>519.8</ele>
        <time>2025-12-15T14:17:58Z</time>
      </trkpt>
      <trkpt lat="45.69663" lon="4.59231">
        <ele>519.8</ele>
        <time>2025-12-15T14:17:59Z</time>
      </trkpt>
      <trkpt lat="45.69663" lon="4.59231">
        <ele>519.8</ele>
        <time>2025-12-15T14:18:00Z</time>
      </trkpt>
      <trkpt lat="45.69663" lon="4.59231">
        <ele>519.8</ele>
        <time>2025-12-15T14:18:01Z</time>
      </trkpt>
      <trkpt lat="45.69663" lon="4.59231">
        <ele>520</ele>
        <time>2025-12-15T14:18:02Z</time>
      </trkpt>
      <trkpt lat="45.69663" lon="4.59231">
        <ele>520</ele>
        <time>2025-12-15T14:18:03Z</time>
      </trkpt>
      <trkpt lat="45.69663" lon="4.59231">
        <ele>520</ele>
        <time>2025-12-15T14:18:04Z</time>
      </trkpt>
      <trkpt lat="45.69663" lon="4.59231">
        <ele>520</ele>
        <time>2025-12-15T14:18:05Z</time>
      </trkpt>
      <trkpt lat="45.69663" lon="4.59231">
        <ele>520</ele>
        <time>2025-12-15T14:18:06Z</time>
      </trkpt>
      <trkpt lat="45.69663" lon="4.59231">
        <ele>520</ele>
        <time>2025-12-15T14:18:07Z</time>
      </trkpt>
      <trkpt lat="45.69663" lon="4.59231">
        <ele>520</ele>
        <time>2025-12-15T14:18:08Z</time>
      </trkpt>
      <trkpt lat="45.69663" lon="4.59231">
        <ele>520</ele>
        <time>2025-12-15T14:18:09Z</time>
      </trkpt>
      <trkpt lat="45.69663" lon="4.59231">
        <ele>520</ele>
        <time>2025-12-15T14:18:10Z</time>
      </trkpt>
      <trkpt lat="45.69663" lon="4.59231">
        <ele>520</ele>
        <time>2025-12-15T14:18:11Z</time>
      </trkpt>
      <trkpt lat="45.69663" lon="4.59231">
        <ele>520</ele>
        <time>2025-12-15T14:18:12Z</time>
      </trkpt>
      <trkpt lat="45.69663" lon="4.59231">
        <ele>520</ele>
        <time>2025-12-15T14:18:13Z</time>
      </trkpt>
      <trkpt lat="45.69663" lon="4.59231">
        <ele>520</ele>
        <time>2025-12-15T14:18:14Z</time>
      </trkpt>
      <trkpt lat="45.69663" lon="4.59231">
        <ele>520</ele>
        <time>2025-12-15T14:18:15Z</time>
      </trkpt>
      <trkpt lat="45.69663" lon="4.59231">
        <ele>520</ele>
        <time>2025-12-15T14:18:16Z</time>
      </trkpt>
      <trkpt lat="45.69663" lon="4.59231">
        <ele>520</ele>
        <time>2025-12-15T14:18:17Z</time>
      </trkpt>
      <trkpt lat="45.69663" lon="4.59231">
        <ele>520</ele>
        <time>2025-12-15T14:18:18Z</time>
      </trkpt>
      <trkpt lat="45.69663" lon="4.59231">
        <ele>520</ele>
        <time>2025-12-15T14:18:19Z</time>
      </trkpt>
      <trkpt lat="45.69663" lon="4.59231">
        <ele>520</ele>
        <time>2025-12-15T14:18:20Z</time>
      </trkpt>
      <trkpt lat="45.69663" lon="4.59231">
        <ele>520</ele>
        <time>2025-12-15T14:18:21Z</time>
      </trkpt>
      <trkpt lat="45.69663" lon="4.59231">
        <ele>520.2</ele>
        <time>2025-12-15T14:18:22Z</time>
      </trkpt>
      <trkpt lat="45.69663" lon="4.59231">
        <ele>520.2</ele>
        <time>2025-12-15T14:18:23Z</time>
      </trkpt>
      <trkpt lat="45.69663" lon="4.59231">
        <ele>520.2</ele>
        <time>2025-12-15T14:18:24Z</time>
      </trkpt>
      <trkpt lat="45.69663" lon="4.59231">
        <ele>520.2</ele>
        <time>2025-12-15T14:18:25Z</time>
      </trkpt>
      <trkpt lat="45.69663" lon="4.59232">
        <ele>520.2</ele>
        <time>2025-12-15T14:18:26Z</time>
      </trkpt>
      <trkpt lat="45.69662" lon="4.59232">
        <ele>520</ele>
        <time>2025-12-15T14:18:27Z</time>
      </trkpt>
      <trkpt lat="45.69662" lon="4.59232">
        <ele>520</ele>
        <time>2025-12-15T14:18:28Z</time>
      </trkpt>
      <trkpt lat="45.69661" lon="4.59232">
        <ele>520</ele>
        <time>2025-12-15T14:18:29Z</time>
      </trkpt>
      <trkpt lat="45.69661" lon="4.59232">
        <ele>520</ele>
        <time>2025-12-15T14:18:30Z</time>
      </trkpt>
      <trkpt lat="45.69661" lon="4.59232">
        <ele>520</ele>
        <time>2025-12-15T14:18:31Z</time>
      </trkpt>
      <trkpt lat="45.69661" lon="4.59232">
        <ele>520</ele>
        <time>2025-12-15T14:18:32Z</time>
      </trkpt>
      <trkpt lat="45.6966" lon="4.59233">
        <ele>520</ele>
        <time>2025-12-15T14:18:33Z</time>
      </trkpt>
      <trkpt lat="45.69658" lon="4.59234">
        <ele>520</ele>
        <time>2025-12-15T14:18:34Z</time>
      </trkpt>
      <trkpt lat="45.69655" lon="4.59236">
        <ele>519.8</ele>
        <time>2025-12-15T14:18:35Z</time>
      </trkpt>
      <trkpt lat="45.69652" lon="4.59237">
        <ele>519.2</ele>
        <time>2025-12-15T14:18:36Z</time>
      </trkpt>
      <trkpt lat="45.69649" lon="4.59239">
        <ele>518.8</ele>
        <time>2025-12-15T14:18:37Z</time>
      </trkpt>
      <trkpt lat="45.69647" lon="4.5924">
        <ele>518.2</ele>
        <time>2025-12-15T14:18:38Z</time>
      </trkpt>
      <trkpt lat="45.69644" lon="4.59243">
        <ele>517.6</ele>
        <time>2025-12-15T14:18:39Z</time>
      </trkpt>
      <trkpt lat="45.69643" lon="4.59245">
        <ele>517</ele>
        <time>2025-12-15T14:18:40Z</time>
      </trkpt>
      <trkpt lat="45.69641" lon="4.59246">
        <ele>516.4</ele>
        <time>2025-12-15T14:18:41Z</time>
      </trkpt>
      <trkpt lat="45.6964" lon="4.59248">
        <ele>515.6</ele>
        <time>2025-12-15T14:18:42Z</time>
      </trkpt>
      <trkpt lat="45.69639" lon="4.59249">
        <ele>515</ele>
        <time>2025-12-15T14:18:43Z</time>
      </trkpt>
      <trkpt lat="45.69638" lon="4.59249">
        <ele>514.2</ele>
        <time>2025-12-15T14:18:44Z</time>
      </trkpt>
      <trkpt lat="45.69638" lon="4.59249">
        <ele>513.6</ele>
        <time>2025-12-15T14:18:45Z</time>
      </trkpt>
      <trkpt lat="45.69638" lon="4.59249">
        <ele>513.4</ele>
        <time>2025-12-15T14:18:46Z</time>
      </trkpt>
      <trkpt lat="45.69638" lon="4.59249">
        <ele>513</ele>
        <time>2025-12-15T14:18:47Z</time>
      </trkpt>
      <trkpt lat="45.69638" lon="4.59249">
        <ele>512.8</ele>
        <time>2025-12-15T14:18:48Z</time>
      </trkpt>
      <trkpt lat="45.69638" lon="4.59249">
        <ele>512.8</ele>
        <time>2025-12-15T14:18:49Z</time>
      </trkpt>
      <trkpt lat="45.69638" lon="4.59249">
        <ele>512.6</ele>
        <time>2025-12-15T14:18:50Z</time>
      </trkpt>
      <trkpt lat="45.69638" lon="4.5925">
        <ele>512.6</ele>
        <time>2025-12-15T14:18:51Z</time>
      </trkpt>
      <trkpt lat="45.69638" lon="4.59251">
        <ele>512.4</ele>
        <time>2025-12-15T14:18:52Z</time>
      </trkpt>
      <trkpt lat="45.69638" lon="4.59253">
        <ele>512.4</ele>
        <time>2025-12-15T14:18:53Z</time>
      </trkpt>
      <trkpt lat="45.69638" lon="4.59253">
        <ele>512.2</ele>
        <time>2025-12-15T14:18:54Z</time>
      </trkpt>
      <trkpt lat="45.69638" lon="4.59253">
        <ele>512</ele>
        <time>2025-12-15T14:18:55Z</time>
      </trkpt>
      <trkpt lat="45.69638" lon="4.59253">
        <ele>512</ele>
        <time>2025-12-15T14:18:56Z</time>
      </trkpt>
      <trkpt lat="45.69638" lon="4.59253">
        <ele>512</ele>
        <time>2025-12-15T14:18:57Z</time>
      </trkpt>
      <trkpt lat="45.69638" lon="4.59253">
        <ele>512</ele>
        <time>2025-12-15T14:18:58Z</time>
      </trkpt>
      <trkpt lat="45.69638" lon="4.59253">
        <ele>512</ele>
        <time>2025-12-15T14:18:59Z</time>
      </trkpt>
      <trkpt lat="45.69638" lon="4.59253">
        <ele>512</ele>
        <time>2025-12-15T14:19:00Z</time>
      </trkpt>
      <trkpt lat="45.69638" lon="4.59253">
        <ele>512</ele>
        <time>2025-12-15T14:19:01Z</time>
      </trkpt>
      <trkpt lat="45.69638" lon="4.59253">
        <ele>512</ele>
        <time>2025-12-15T14:19:02Z</time>
      </trkpt>
      <trkpt lat="45.69638" lon="4.59253">
        <ele>512</ele>
        <time>2025-12-15T14:19:03Z</time>
      </trkpt>
      <trkpt lat="45.69638" lon="4.59253">
        <ele>512</ele>
        <time>2025-12-15T14:19:04Z</time>
      </trkpt>
      <trkpt lat="45.69638" lon="4.59253">
        <ele>512</ele>
        <time>2025-12-15T14:19:05Z</time>
      </trkpt>
      <trkpt lat="45.69638" lon="4.59253">
        <ele>512</ele>
        <time>2025-12-15T14:19:06Z</time>
      </trkpt>
      <trkpt lat="45.69638" lon="4.59253">
        <ele>512</ele>
        <time>2025-12-15T14:19:07Z</time>
      </trkpt>
      <trkpt lat="45.69638" lon="4.59253">
        <ele>512</ele>
        <time>2025-12-15T14:19:08Z</time>
      </trkpt>
      <trkpt lat="45.69638" lon="4.59253">
        <ele>512</ele>
        <time>2025-12-15T14:19:09Z</time>
      </trkpt>
      <trkpt lat="45.69638" lon="4.59253">
        <ele>511.8</ele>
        <time>2025-12-15T14:19:10Z</time>
      </trkpt>
      <trkpt lat="45.69638" lon="4.59253">
        <ele>511.8</ele>
        <time>2025-12-15T14:19:11Z</time>
      </trkpt>
      <trkpt lat="45.69639" lon="4.59254">
        <ele>511.8</ele>
        <time>2025-12-15T14:19:12Z</time>
      </trkpt>
      <trkpt lat="45.69639" lon="4.59255">
        <ele>511.8</ele>
        <time>2025-12-15T14:19:13Z</time>
      </trkpt>
      <trkpt lat="45.6964" lon="4.59258">
        <ele>511.8</ele>
        <time>2025-12-15T14:19:14Z</time>
      </trkpt>
      <trkpt lat="45.69641" lon="4.59261">
        <ele>511.6</ele>
        <time>2025-12-15T14:19:15Z</time>
      </trkpt>
      <trkpt lat="45.69643" lon="4.59264">
        <ele>511.2</ele>
        <time>2025-12-15T14:19:16Z</time>
      </trkpt>
      <trkpt lat="45.69646" lon="4.59268">
        <ele>510.8</ele>
        <time>2025-12-15T14:19:17Z</time>
      </trkpt>
      <trkpt lat="45.69648" lon="4.59271">
        <ele>510.2</ele>
        <time>2025-12-15T14:19:18Z</time>
      </trkpt>
      <trkpt lat="45.6965" lon="4.59273">
        <ele>509.6</ele>
        <time>2025-12-15T14:19:19Z</time>
      </trkpt>
      <trkpt lat="45.69652" lon="4.59276">
        <ele>508.8</ele>
        <time>2025-12-15T14:19:20Z</time>
      </trkpt>
      <trkpt lat="45.69654" lon="4.59278">
        <ele>508.2</ele>
        <time>2025-12-15T14:19:21Z</time>
      </trkpt>
      <trkpt lat="45.69656" lon="4.59279">
        <ele>507.4</ele>
        <time>2025-12-15T14:19:22Z</time>
      </trkpt>
      <trkpt lat="45.69659" lon="4.5928">
        <ele>506.8</ele>
        <time>2025-12-15T14:19:23Z</time>
      </trkpt>
      <trkpt lat="45.69662" lon="4.59281">
        <ele>506</ele>
        <time>2025-12-15T14:19:24Z</time>
      </trkpt>
      <trkpt lat="45.69665" lon="4.59282">
        <ele>505.2</ele>
        <time>2025-12-15T14:19:25Z</time>
      </trkpt>
      <trkpt lat="45.69667" lon="4.59283">
        <ele>504.4</ele>
        <time>2025-12-15T14:19:26Z</time>
      </trkpt>
      <trkpt lat="45.69669" lon="4.59284">
        <ele>503.6</ele>
        <time>2025-12-15T14:19:27Z</time>
      </trkpt>
      <trkpt lat="45.6967" lon="4.59284">
        <ele>503</ele>
        <time>2025-12-15T14:19:28Z</time>
      </trkpt>
      <trkpt lat="45.69672" lon="4.59286">
        <ele>502.6</ele>
        <time>2025-12-15T14:19:29Z</time>
      </trkpt>
      <trkpt lat="45.69674" lon="4.59288">
        <ele>502.2</ele>
        <time>2025-12-15T14:19:30Z</time>
      </trkpt>
      <trkpt lat="45.69676" lon="4.5929">
        <ele>501.8</ele>
        <time>2025-12-15T14:19:31Z</time>
      </trkpt>
      <trkpt lat="45.69678" lon="4.59291">
        <ele>501.6</ele>
        <time>2025-12-15T14:19:32Z</time>
      </trkpt>
      <trkpt lat="45.69679" lon="4.59293">
        <ele>501.4</ele>
        <time>2025-12-15T14:19:33Z</time>
      </trkpt>
      <trkpt lat="45.69679" lon="4.59297">
        <ele>501.2</ele>
        <time>2025-12-15T14:19:34Z</time>
      </trkpt>
      <trkpt lat="45.6968" lon="4.59301">
        <ele>501</ele>
        <time>2025-12-15T14:19:35Z</time>
      </trkpt>
      <trkpt lat="45.6968" lon="4.59306">
        <ele>500.8</ele>
        <time>2025-12-15T14:19:36Z</time>
      </trkpt>
      <trkpt lat="45.6968" lon="4.59312">
        <ele>500.4</ele>
        <time>2025-12-15T14:19:37Z</time>
      </trkpt>
      <trkpt lat="45.69681" lon="4.59318">
        <ele>500</ele>
        <time>2025-12-15T14:19:38Z</time>
      </trkpt>
      <trkpt lat="45.69681" lon="4.59323">
        <ele>499.6</ele>
        <time>2025-12-15T14:19:39Z</time>
      </trkpt>
      <trkpt lat="45.69681" lon="4.59326">
        <ele>499.4</ele>
        <time>2025-12-15T14:19:40Z</time>
      </trkpt>
      <trkpt lat="45.69679" lon="4.59329">
        <ele>499</ele>
        <time>2025-12-15T14:19:41Z</time>
      </trkpt>
      <trkpt lat="45.69678" lon="4.59331">
        <ele>499</ele>
        <time>2025-12-15T14:19:42Z</time>
      </trkpt>
      <trkpt lat="45.69677" lon="4.59333">
        <ele>498.8</ele>
        <time>2025-12-15T14:19:43Z</time>
      </trkpt>
      <trkpt lat="45.69676" lon="4.59336">
        <ele>498.6</ele>
        <time>2025-12-15T14:19:44Z</time>
      </trkpt>
      <trkpt lat="45.69676" lon="4.5934">
        <ele>498.4</ele>
        <time>2025-12-15T14:19:45Z</time>
      </trkpt>
      <trkpt lat="45.69674" lon="4.59344">
        <ele>498.2</ele>
        <time>2025-12-15T14:19:46Z</time>
      </trkpt>
      <trkpt lat="45.69672" lon="4.59347">
        <ele>498.2</ele>
        <time>2025-12-15T14:19:47Z</time>
      </trkpt>
      <trkpt lat="45.6967" lon="4.59351">
        <ele>497.8</ele>
        <time>2025-12-15T14:19:48Z</time>
      </trkpt>
      <trkpt lat="45.69668" lon="4.59354">
        <ele>497.6</ele>
        <time>2025-12-15T14:19:49Z</time>
      </trkpt>
      <trkpt lat="45.69665" lon="4.59358">
        <ele>497.2</ele>
        <time>2025-12-15T14:19:50Z</time>
      </trkpt>
      <trkpt lat="45.69662" lon="4.59362">
        <ele>496.8</ele>
        <time>2025-12-15T14:19:51Z</time>
      </trkpt>
      <trkpt lat="45.6966" lon="4.59366">
        <ele>496.4</ele>
        <time>2025-12-15T14:19:52Z</time>
      </trkpt>
      <trkpt lat="45.69657" lon="4.5937">
        <ele>496</ele>
        <time>2025-12-15T14:19:53Z</time>
      </trkpt>
      <trkpt lat="45.69653" lon="4.59375">
        <ele>495.8</ele>
        <time>2025-12-15T14:19:54Z</time>
      </trkpt>
      <trkpt lat="45.6965" lon="4.5938">
        <ele>495.4</ele>
        <time>2025-12-15T14:19:55Z</time>
      </trkpt>
      <trkpt lat="45.69648" lon="4.59386">
        <ele>495.2</ele>
        <time>2025-12-15T14:19:56Z</time>
      </trkpt>
      <trkpt lat="45.69645" lon="4.59391">
        <ele>495.2</ele>
        <time>2025-12-15T14:19:57Z</time>
      </trkpt>
      <trkpt lat="45.69642" lon="4.59397">
        <ele>495</ele>
        <time>2025-12-15T14:19:58Z</time>
      </trkpt>
      <trkpt lat="45.69638" lon="4.59402">
        <ele>494.8</ele>
        <time>2025-12-15T14:19:59Z</time>
      </trkpt>
      <trkpt lat="45.69635" lon="4.59407">
        <ele>494.8</ele>
        <time>2025-12-15T14:20:00Z</time>
      </trkpt>
      <trkpt lat="45.69631" lon="4.59413">
        <ele>494.8</ele>
        <time>2025-12-15T14:20:01Z</time>
      </trkpt>
      <trkpt lat="45.69628" lon="4.59417">
        <ele>494.6</ele>
        <time>2025-12-15T14:20:02Z</time>
      </trkpt>
      <trkpt lat="45.69625" lon="4.59423">
        <ele>494.6</ele>
        <time>2025-12-15T14:20:03Z</time>
      </trkpt>
      <trkpt lat="45.69621" lon="4.59429">
        <ele>494.4</ele>
        <time>2025-12-15T14:20:04Z</time>
      </trkpt>
      <trkpt lat="45.69617" lon="4.59434">
        <ele>494.4</ele>
        <time>2025-12-15T14:20:05Z</time>
      </trkpt>
      <trkpt lat="45.69614" lon="4.59439">
        <ele>494.4</ele>
        <time>2025-12-15T14:20:06Z</time>
      </trkpt>
      <trkpt lat="45.6961" lon="4.59444">
        <ele>494.2</ele>
        <time>2025-12-15T14:20:07Z</time>
      </trkpt>
      <trkpt lat="45.69606" lon="4.59449">
        <ele>494.2</ele>
        <time>2025-12-15T14:20:08Z</time>
      </trkpt>
      <trkpt lat="45.69603" lon="4.59453">
        <ele>494.2</ele>
        <time>2025-12-15T14:20:09Z</time>
      </trkpt>
      <trkpt lat="45.696" lon="4.59458">
        <ele>494.2</ele>
        <time>2025-12-15T14:20:10Z</time>
      </trkpt>
      <trkpt lat="45.69597" lon="4.59462">
        <ele>494</ele>
        <time>2025-12-15T14:20:11Z</time>
      </trkpt>
      <trkpt lat="45.69595" lon="4.59466">
        <ele>494</ele>
        <time>2025-12-15T14:20:12Z</time>
      </trkpt>
      <trkpt lat="45.69593" lon="4.5947">
        <ele>494</ele>
        <time>2025-12-15T14:20:13Z</time>
      </trkpt>
      <trkpt lat="45.69592" lon="4.59474">
        <ele>494.2</ele>
        <time>2025-12-15T14:20:14Z</time>
      </trkpt>
      <trkpt lat="45.6959" lon="4.59477">
        <ele>494.2</ele>
        <time>2025-12-15T14:20:15Z</time>
      </trkpt>
      <trkpt lat="45.6959" lon="4.59481">
        <ele>494.4</ele>
        <time>2025-12-15T14:20:16Z</time>
      </trkpt>
      <trkpt lat="45.6959" lon="4.59483">
        <ele>494.4</ele>
        <time>2025-12-15T14:20:17Z</time>
      </trkpt>
      <trkpt lat="45.6959" lon="4.59485">
        <ele>494.6</ele>
        <time>2025-12-15T14:20:18Z</time>
      </trkpt>
      <trkpt lat="45.6959" lon="4.59486">
        <ele>494.8</ele>
        <time>2025-12-15T14:20:19Z</time>
      </trkpt>
      <trkpt lat="45.69591" lon="4.59487">
        <ele>495</ele>
        <time>2025-12-15T14:20:20Z</time>
      </trkpt>
      <trkpt lat="45.69591" lon="4.59487">
        <ele>495.2</ele>
        <time>2025-12-15T14:20:21Z</time>
      </trkpt>
      <trkpt lat="45.69591" lon="4.59487">
        <ele>495.4</ele>
        <time>2025-12-15T14:20:22Z</time>
      </trkpt>
      <trkpt lat="45.69591" lon="4.59487">
        <ele>495.4</ele>
        <time>2025-12-15T14:20:23Z</time>
      </trkpt>
      <trkpt lat="45.69591" lon="4.59487">
        <ele>495.6</ele>
        <time>2025-12-15T14:20:24Z</time>
      </trkpt>
      <trkpt lat="45.69591" lon="4.59487">
        <ele>495.6</ele>
        <time>2025-12-15T14:20:25Z</time>
      </trkpt>
      <trkpt lat="45.69591" lon="4.59487">
        <ele>495.6</ele>
        <time>2025-12-15T14:20:26Z</time>
      </trkpt>
      <trkpt lat="45.69591" lon="4.59487">
        <ele>495.6</ele>
        <time>2025-12-15T14:20:27Z</time>
      </trkpt>
      <trkpt lat="45.69591" lon="4.59487">
        <ele>495.6</ele>
        <time>2025-12-15T14:20:28Z</time>
      </trkpt>
      <trkpt lat="45.69591" lon="4.59487">
        <ele>495.6</ele>
        <time>2025-12-15T14:20:29Z</time>
      </trkpt>
      <trkpt lat="45.69591" lon="4.59487">
        <ele>495.6</ele>
        <time>2025-12-15T14:20:30Z</time>
      </trkpt>
      <trkpt lat="45.69591" lon="4.59487">
        <ele>495.6</ele>
        <time>2025-12-15T14:20:31Z</time>
      </trkpt>
      <trkpt lat="45.69591" lon="4.59487">
        <ele>495.6</ele>
        <time>2025-12-15T14:20:32Z</time>
      </trkpt>
      <trkpt lat="45.69591" lon="4.59487">
        <ele>495.6</ele>
        <time>2025-12-15T14:20:33Z</time>
      </trkpt>
      <trkpt lat="45.69591" lon="4.59487">
        <ele>495.6</ele>
        <time>2025-12-15T14:20:34Z</time>
      </trkpt>
      <trkpt lat="45.69591" lon="4.59487">
        <ele>495.6</ele>
        <time>2025-12-15T14:20:35Z</time>
      </trkpt>
      <trkpt lat="45.69591" lon="4.59487">
        <ele>495.6</ele>
        <time>2025-12-15T14:20:36Z</time>
      </trkpt>
      <trkpt lat="45.69591" lon="4.59487">
        <ele>495.6</ele>
        <time>2025-12-15T14:20:37Z</time>
      </trkpt>
      <trkpt lat="45.69591" lon="4.59487">
        <ele>495.6</ele>
        <time>2025-12-15T14:20:38Z</time>
      </trkpt>
      <trkpt lat="45.69591" lon="4.59487">
        <ele>495.6</ele>
        <time>2025-12-15T14:20:39Z</time>
      </trkpt>
      <trkpt lat="45.69591" lon="4.59487">
        <ele>495.6</ele>
        <time>2025-12-15T14:20:40Z</time>
      </trkpt>
      <trkpt lat="45.69591" lon="4.59487">
        <ele>495.6</ele>
        <time>2025-12-15T14:20:41Z</time>
      </trkpt>
      <trkpt lat="45.69591" lon="4.59487">
        <ele>495.4</ele>
        <time>2025-12-15T14:20:42Z</time>
      </trkpt>
      <trkpt lat="45.69591" lon="4.59487">
        <ele>495.4</ele>
        <time>2025-12-15T14:20:43Z</time>
      </trkpt>
      <trkpt lat="45.69591" lon="4.59487">
        <ele>495.4</ele>
        <time>2025-12-15T14:20:44Z</time>
      </trkpt>
      <trkpt lat="45.69591" lon="4.59487">
        <ele>495.4</ele>
        <time>2025-12-15T14:20:45Z</time>
      </trkpt>
      <trkpt lat="45.69591" lon="4.59487">
        <ele>495.4</ele>
        <time>2025-12-15T14:20:46Z</time>
      </trkpt>
      <trkpt lat="45.69591" lon="4.59487">
        <ele>495.4</ele>
        <time>2025-12-15T14:20:47Z</time>
      </trkpt>
      <trkpt lat="45.69591" lon="4.59487">
        <ele>495.4</ele>
        <time>2025-12-15T14:20:48Z</time>
      </trkpt>
      <trkpt lat="45.69591" lon="4.59487">
        <ele>495.4</ele>
        <time>2025-12-15T14:20:49Z</time>
      </trkpt>
      <trkpt lat="45.69591" lon="4.59487">
        <ele>495.4</ele>
        <time>2025-12-15T14:20:50Z</time>
      </trkpt>
      <trkpt lat="45.69591" lon="4.59487">
        <ele>495.4</ele>
        <time>2025-12-15T14:20:51Z</time>
      </trkpt>
      <trkpt lat="45.69591" lon="4.59487">
        <ele>495.4</ele>
        <time>2025-12-15T14:20:52Z</time>
      </trkpt>
      <trkpt lat="45.69591" lon="4.59487">
        <ele>495.4</ele>
        <time>2025-12-15T14:20:53Z</time>
      </trkpt>
      <trkpt lat="45.69591" lon="4.59487">
        <ele>495.4</ele>
        <time>2025-12-15T14:20:54Z</time>
      </trkpt>
      <trkpt lat="45.6959" lon="4.59487">
        <ele>495.4</ele>
        <time>2025-12-15T14:20:55Z</time>
      </trkpt>
      <trkpt lat="45.6959" lon="4.59487">
        <ele>495.4</ele>
        <time>2025-12-15T14:20:56Z</time>
      </trkpt>
      <trkpt lat="45.6959" lon="4.59487">
        <ele>495.4</ele>
        <time>2025-12-15T14:20:57Z</time>
      </trkpt>
      <trkpt lat="45.69589" lon="4.59486">
        <ele>495.4</ele>
        <time>2025-12-15T14:20:58Z</time>
      </trkpt>
      <trkpt lat="45.69589" lon="4.59486">
        <ele>495.4</ele>
        <time>2025-12-15T14:20:59Z</time>
      </trkpt>
      <trkpt lat="45.69589" lon="4.59484">
        <ele>495.4</ele>
        <time>2025-12-15T14:21:00Z</time>
      </trkpt>
      <trkpt lat="45.69589" lon="4.59483">
        <ele>495.4</ele>
        <time>2025-12-15T14:21:01Z</time>
      </trkpt>
      <trkpt lat="45.6959" lon="4.59481">
        <ele>495.4</ele>
        <time>2025-12-15T14:21:02Z</time>
      </trkpt>
      <trkpt lat="45.69591" lon="4.59478">
        <ele>495.4</ele>
        <time>2025-12-15T14:21:03Z</time>
      </trkpt>
      <trkpt lat="45.69592" lon="4.59475">
        <ele>495.2</ele>
        <time>2025-12-15T14:21:04Z</time>
      </trkpt>
      <trkpt lat="45.69592" lon="4.5947">
        <ele>495</ele>
        <time>2025-12-15T14:21:05Z</time>
      </trkpt>
      <trkpt lat="45.69591" lon="4.59465">
        <ele>494.8</ele>
        <time>2025-12-15T14:21:06Z</time>
      </trkpt>
      <trkpt lat="45.69588" lon="4.59461">
        <ele>494.4</ele>
        <time>2025-12-15T14:21:07Z</time>
      </trkpt>
      <trkpt lat="45.69584" lon="4.59457">
        <ele>493.8</ele>
        <time>2025-12-15T14:21:08Z</time>
      </trkpt>
      <trkpt lat="45.69578" lon="4.59455">
        <ele>493</ele>
        <time>2025-12-15T14:21:09Z</time>
      </trkpt>
      <trkpt lat="45.6957" lon="4.59452">
        <ele>491.8</ele>
        <time>2025-12-15T14:21:10Z</time>
      </trkpt>
      <trkpt lat="45.69561" lon="4.59449">
        <ele>490.4</ele>
        <time>2025-12-15T14:21:11Z</time>
      </trkpt>
      <trkpt lat="45.69552" lon="4.59447">
        <ele>488.8</ele>
        <time>2025-12-15T14:21:12Z</time>
      </trkpt>
      <trkpt lat="45.69543" lon="4.59445">
        <ele>487.2</ele>
        <time>2025-12-15T14:21:13Z</time>
      </trkpt>
      <trkpt lat="45.69534" lon="4.59444">
        <ele>485.6</ele>
        <time>2025-12-15T14:21:14Z</time>
      </trkpt>
      <trkpt lat="45.69524" lon="4.59444">
        <ele>484.4</ele>
        <time>2025-12-15T14:21:15Z</time>
      </trkpt>
      <trkpt lat="45.69516" lon="4.59445">
        <ele>483.6</ele>
        <time>2025-12-15T14:21:16Z</time>
      </trkpt>
      <trkpt lat="45.69509" lon="4.59447">
        <ele>483.2</ele>
        <time>2025-12-15T14:21:17Z</time>
      </trkpt>
      <trkpt lat="45.69503" lon="4.59451">
        <ele>483.2</ele>
        <time>2025-12-15T14:21:18Z</time>
      </trkpt>
      <trkpt lat="45.69497" lon="4.59456">
        <ele>483.2</ele>
        <time>2025-12-15T14:21:19Z</time>
      </trkpt>
      <trkpt lat="45.69492" lon="4.59463">
        <ele>483.4</ele>
        <time>2025-12-15T14:21:20Z</time>
      </trkpt>
      <trkpt lat="45.69487" lon="4.59469">
        <ele>483.4</ele>
        <time>2025-12-15T14:21:21Z</time>
      </trkpt>
      <trkpt lat="45.69482" lon="4.59476">
        <ele>483.4</ele>
        <time>2025-12-15T14:21:22Z</time>
      </trkpt>
      <trkpt lat="45.69478" lon="4.59482">
        <ele>483.2</ele>
        <time>2025-12-15T14:21:23Z</time>
      </trkpt>
      <trkpt lat="45.69474" lon="4.59489">
        <ele>482.8</ele>
        <time>2025-12-15T14:21:24Z</time>
      </trkpt>
      <trkpt lat="45.6947" lon="4.59496">
        <ele>482.2</ele>
        <time>2025-12-15T14:21:25Z</time>
      </trkpt>
      <trkpt lat="45.69466" lon="4.59502">
        <ele>481.6</ele>
        <time>2025-12-15T14:21:26Z</time>
      </trkpt>
      <trkpt lat="45.69462" lon="4.5951">
        <ele>481</ele>
        <time>2025-12-15T14:21:27Z</time>
      </trkpt>
      <trkpt lat="45.69459" lon="4.5952">
        <ele>480.6</ele>
        <time>2025-12-15T14:21:28Z</time>
      </trkpt>
      <trkpt lat="45.69456" lon="4.59529">
        <ele>480.2</ele>
        <time>2025-12-15T14:21:29Z</time>
      </trkpt>
      <trkpt lat="45.69453" lon="4.59538">
        <ele>479.8</ele>
        <time>2025-12-15T14:21:30Z</time>
      </trkpt>
      <trkpt lat="45.6945" lon="4.59547">
        <ele>479.6</ele>
        <time>2025-12-15T14:21:31Z</time>
      </trkpt>
      <trkpt lat="45.69447" lon="4.59558">
        <ele>479.6</ele>
        <time>2025-12-15T14:21:32Z</time>
      </trkpt>
      <trkpt lat="45.69444" lon="4.59568">
        <ele>479.6</ele>
        <time>2025-12-15T14:21:33Z</time>
      </trkpt>
      <trkpt lat="45.6944" lon="4.59578">
        <ele>479.6</ele>
        <time>2025-12-15T14:21:34Z</time>
      </trkpt>
      <trkpt lat="45.69437" lon="4.59587">
        <ele>480</ele>
        <time>2025-12-15T14:21:35Z</time>
      </trkpt>
      <trkpt lat="45.69433" lon="4.59596">
        <ele>480.6</ele>
        <time>2025-12-15T14:21:36Z</time>
      </trkpt>
      <trkpt lat="45.69429" lon="4.59604">
        <ele>480.8</ele>
        <time>2025-12-15T14:21:37Z</time>
      </trkpt>
      <trkpt lat="45.69426" lon="4.59612">
        <ele>481.2</ele>
        <time>2025-12-15T14:21:38Z</time>
      </trkpt>
      <trkpt lat="45.69423" lon="4.5962">
        <ele>481.2</ele>
        <time>2025-12-15T14:21:39Z</time>
      </trkpt>
      <trkpt lat="45.69421" lon="4.59629">
        <ele>481.4</ele>
        <time>2025-12-15T14:21:40Z</time>
      </trkpt>
      <trkpt lat="45.69418" lon="4.59638">
        <ele>481.4</ele>
        <time>2025-12-15T14:21:41Z</time>
      </trkpt>
      <trkpt lat="45.69417" lon="4.59647">
        <ele>481.4</ele>
        <time>2025-12-15T14:21:42Z</time>
      </trkpt>
      <trkpt lat="45.69416" lon="4.59657">
        <ele>481.6</ele>
        <time>2025-12-15T14:21:43Z</time>
      </trkpt>
      <trkpt lat="45.69415" lon="4.59666">
        <ele>481.6</ele>
        <time>2025-12-15T14:21:44Z</time>
      </trkpt>
      <trkpt lat="45.69415" lon="4.59674">
        <ele>481.4</ele>
        <time>2025-12-15T14:21:45Z</time>
      </trkpt>
      <trkpt lat="45.69416" lon="4.59682">
        <ele>481.2</ele>
        <time>2025-12-15T14:21:46Z</time>
      </trkpt>
      <trkpt lat="45.69416" lon="4.59691">
        <ele>481</ele>
        <time>2025-12-15T14:21:47Z</time>
      </trkpt>
      <trkpt lat="45.69417" lon="4.59698">
        <ele>480.8</ele>
        <time>2025-12-15T14:21:48Z</time>
      </trkpt>
      <trkpt lat="45.69418" lon="4.59707">
        <ele>480.6</ele>
        <time>2025-12-15T14:21:49Z</time>
      </trkpt>
      <trkpt lat="45.69417" lon="4.59717">
        <ele>480</ele>
        <time>2025-12-15T14:21:50Z</time>
      </trkpt>
      <trkpt lat="45.69414" lon="4.59727">
        <ele>479.6</ele>
        <time>2025-12-15T14:21:51Z</time>
      </trkpt>
      <trkpt lat="45.69412" lon="4.59739">
        <ele>479</ele>
        <time>2025-12-15T14:21:52Z</time>
      </trkpt>
      <trkpt lat="45.6941" lon="4.5975">
        <ele>478.4</ele>
        <time>2025-12-15T14:21:53Z</time>
      </trkpt>
      <trkpt lat="45.69406" lon="4.5976">
        <ele>478</ele>
        <time>2025-12-15T14:21:54Z</time>
      </trkpt>
      <trkpt lat="45.69403" lon="4.5977">
        <ele>477.6</ele>
        <time>2025-12-15T14:21:55Z</time>
      </trkpt>
      <trkpt lat="45.69399" lon="4.5978">
        <ele>477.2</ele>
        <time>2025-12-15T14:21:56Z</time>
      </trkpt>
      <trkpt lat="45.69395" lon="4.59787">
        <ele>477</ele>
        <time>2025-12-15T14:21:57Z</time>
      </trkpt>
      <trkpt lat="45.6939" lon="4.59793">
        <ele>477</ele>
        <time>2025-12-15T14:21:58Z</time>
      </trkpt>
      <trkpt lat="45.69384" lon="4.598">
        <ele>477.2</ele>
        <time>2025-12-15T14:21:59Z</time>
      </trkpt>
      <trkpt lat="45.69381" lon="4.59806">
        <ele>477.4</ele>
        <time>2025-12-15T14:22:00Z</time>
      </trkpt>
      <trkpt lat="45.69378" lon="4.5981">
        <ele>477.8</ele>
        <time>2025-12-15T14:22:01Z</time>
      </trkpt>
      <trkpt lat="45.69374" lon="4.59815">
        <ele>478.4</ele>
        <time>2025-12-15T14:22:02Z</time>
      </trkpt>
      <trkpt lat="45.69371" lon="4.5982">
        <ele>479</ele>
        <time>2025-12-15T14:22:03Z</time>
      </trkpt>
      <trkpt lat="45.69369" lon="4.59823">
        <ele>479.6</ele>
        <time>2025-12-15T14:22:04Z</time>
      </trkpt>
      <trkpt lat="45.69367" lon="4.59825">
        <ele>480.2</ele>
        <time>2025-12-15T14:22:05Z</time>
      </trkpt>
      <trkpt lat="45.69365" lon="4.59828">
        <ele>480.6</ele>
        <time>2025-12-15T14:22:06Z</time>
      </trkpt>
      <trkpt lat="45.69363" lon="4.59831">
        <ele>481.2</ele>
        <time>2025-12-15T14:22:07Z</time>
      </trkpt>
      <trkpt lat="45.69361" lon="4.59834">
        <ele>481.6</ele>
        <time>2025-12-15T14:22:08Z</time>
      </trkpt>
      <trkpt lat="45.69359" lon="4.59838">
        <ele>482</ele>
        <time>2025-12-15T14:22:09Z</time>
      </trkpt>
      <trkpt lat="45.69356" lon="4.59842">
        <ele>482.4</ele>
        <time>2025-12-15T14:22:10Z</time>
      </trkpt>
      <trkpt lat="45.69353" lon="4.59846">
        <ele>482.6</ele>
        <time>2025-12-15T14:22:11Z</time>
      </trkpt>
      <trkpt lat="45.69351" lon="4.5985">
        <ele>482.6</ele>
        <time>2025-12-15T14:22:12Z</time>
      </trkpt>
      <trkpt lat="45.6935" lon="4.59854">
        <ele>482.8</ele>
        <time>2025-12-15T14:22:13Z</time>
      </trkpt>
      <trkpt lat="45.69348" lon="4.59858">
        <ele>482.8</ele>
        <time>2025-12-15T14:22:14Z</time>
      </trkpt>
      <trkpt lat="45.69345" lon="4.59864">
        <ele>482.8</ele>
        <time>2025-12-15T14:22:15Z</time>
      </trkpt>
      <trkpt lat="45.69343" lon="4.59869">
        <ele>482.8</ele>
        <time>2025-12-15T14:22:16Z</time>
      </trkpt>
      <trkpt lat="45.69341" lon="4.59873">
        <ele>482.8</ele>
        <time>2025-12-15T14:22:17Z</time>
      </trkpt>
      <trkpt lat="45.69338" lon="4.59879">
        <ele>482.6</ele>
        <time>2025-12-15T14:22:18Z</time>
      </trkpt>
      <trkpt lat="45.69335" lon="4.59884">
        <ele>482.4</ele>
        <time>2025-12-15T14:22:19Z</time>
      </trkpt>
      <trkpt lat="45.69332" lon="4.59888">
        <ele>482.2</ele>
        <time>2025-12-15T14:22:20Z</time>
      </trkpt>
      <trkpt lat="45.69328" lon="4.59893">
        <ele>482.2</ele>
        <time>2025-12-15T14:22:21Z</time>
      </trkpt>
      <trkpt lat="45.69324" lon="4.59898">
        <ele>482</ele>
        <time>2025-12-15T14:22:22Z</time>
      </trkpt>
      <trkpt lat="45.69321" lon="4.59904">
        <ele>481.8</ele>
        <time>2025-12-15T14:22:23Z</time>
      </trkpt>
      <trkpt lat="45.69317" lon="4.5991">
        <ele>481.8</ele>
        <time>2025-12-15T14:22:24Z</time>
      </trkpt>
      <trkpt lat="45.69313" lon="4.59916">
        <ele>481.8</ele>
        <time>2025-12-15T14:22:25Z</time>
      </trkpt>
      <trkpt lat="45.69308" lon="4.59924">
        <ele>481.6</ele>
        <time>2025-12-15T14:22:26Z</time>
      </trkpt>
      <trkpt lat="45.69305" lon="4.5993">
        <ele>481.6</ele>
        <time>2025-12-15T14:22:27Z</time>
      </trkpt>
      <trkpt lat="45.69301" lon="4.59935">
        <ele>481.4</ele>
        <time>2025-12-15T14:22:28Z</time>
      </trkpt>
      <trkpt lat="45.69298" lon="4.59939">
        <ele>481.4</ele>
        <time>2025-12-15T14:22:29Z</time>
      </trkpt>
      <trkpt lat="45.69295" lon="4.59945">
        <ele>481.2</ele>
        <time>2025-12-15T14:22:30Z</time>
      </trkpt>
      <trkpt lat="45.69293" lon="4.59951">
        <ele>481.2</ele>
        <time>2025-12-15T14:22:31Z</time>
      </trkpt>
      <trkpt lat="45.69289" lon="4.59957">
        <ele>481</ele>
        <time>2025-12-15T14:22:32Z</time>
      </trkpt>
      <trkpt lat="45.69286" lon="4.59962">
        <ele>481</ele>
        <time>2025-12-15T14:22:33Z</time>
      </trkpt>
      <trkpt lat="45.69285" lon="4.59967">
        <ele>481</ele>
        <time>2025-12-15T14:22:34Z</time>
      </trkpt>
      <trkpt lat="45.69283" lon="4.59974">
        <ele>481</ele>
        <time>2025-12-15T14:22:35Z</time>
      </trkpt>
      <trkpt lat="45.6928" lon="4.5998">
        <ele>481</ele>
        <time>2025-12-15T14:22:36Z</time>
      </trkpt>
      <trkpt lat="45.69277" lon="4.59989">
        <ele>480.8</ele>
        <time>2025-12-15T14:22:37Z</time>
      </trkpt>
      <trkpt lat="45.69275" lon="4.59998">
        <ele>480.4</ele>
        <time>2025-12-15T14:22:38Z</time>
      </trkpt>
      <trkpt lat="45.69272" lon="4.60008">
        <ele>480</ele>
        <time>2025-12-15T14:22:39Z</time>
      </trkpt>
      <trkpt lat="45.69269" lon="4.60019">
        <ele>479.6</ele>
        <time>2025-12-15T14:22:40Z</time>
      </trkpt>
      <trkpt lat="45.69266" lon="4.60029">
        <ele>479</ele>
        <time>2025-12-15T14:22:41Z</time>
      </trkpt>
      <trkpt lat="45.69264" lon="4.60038">
        <ele>478.6</ele>
        <time>2025-12-15T14:22:42Z</time>
      </trkpt>
      <trkpt lat="45.69261" lon="4.60048">
        <ele>478.2</ele>
        <time>2025-12-15T14:22:43Z</time>
      </trkpt>
      <trkpt lat="45.69256" lon="4.60059">
        <ele>477.6</ele>
        <time>2025-12-15T14:22:44Z</time>
      </trkpt>
      <trkpt lat="45.69252" lon="4.60069">
        <ele>477</ele>
        <time>2025-12-15T14:22:45Z</time>
      </trkpt>
      <trkpt lat="45.69247" lon="4.60078">
        <ele>476.4</ele>
        <time>2025-12-15T14:22:46Z</time>
      </trkpt>
      <trkpt lat="45.69241" lon="4.60086">
        <ele>475.6</ele>
        <time>2025-12-15T14:22:47Z</time>
      </trkpt>
      <trkpt lat="45.69234" lon="4.6009">
        <ele>474.8</ele>
        <time>2025-12-15T14:22:48Z</time>
      </trkpt>
      <trkpt lat="45.69225" lon="4.60091">
        <ele>473.8</ele>
        <time>2025-12-15T14:22:49Z</time>
      </trkpt>
      <trkpt lat="45.69217" lon="4.6009">
        <ele>473</ele>
        <time>2025-12-15T14:22:50Z</time>
      </trkpt>
      <trkpt lat="45.69209" lon="4.60089">
        <ele>472.2</ele>
        <time>2025-12-15T14:22:51Z</time>
      </trkpt>
      <trkpt lat="45.69203" lon="4.60089">
        <ele>471.6</ele>
        <time>2025-12-15T14:22:52Z</time>
      </trkpt>
      <trkpt lat="45.69198" lon="4.60092">
        <ele>471.2</ele>
        <time>2025-12-15T14:22:53Z</time>
      </trkpt>
      <trkpt lat="45.69194" lon="4.60095">
        <ele>471</ele>
        <time>2025-12-15T14:22:54Z</time>
      </trkpt>
      <trkpt lat="45.69191" lon="4.601">
        <ele>471</ele>
        <time>2025-12-15T14:22:55Z</time>
      </trkpt>
      <trkpt lat="45.69188" lon="4.60105">
        <ele>471</ele>
        <time>2025-12-15T14:22:56Z</time>
      </trkpt>
      <trkpt lat="45.69186" lon="4.6011">
        <ele>471</ele>
        <time>2025-12-15T14:22:57Z</time>
      </trkpt>
      <trkpt lat="45.69186" lon="4.60116">
        <ele>470.8</ele>
        <time>2025-12-15T14:22:58Z</time>
      </trkpt>
      <trkpt lat="45.69185" lon="4.60123">
        <ele>470.6</ele>
        <time>2025-12-15T14:22:59Z</time>
      </trkpt>
      <trkpt lat="45.69185" lon="4.60129">
        <ele>470.4</ele>
        <time>2025-12-15T14:23:00Z</time>
      </trkpt>
      <trkpt lat="45.69185" lon="4.60136">
        <ele>470.2</ele>
        <time>2025-12-15T14:23:01Z</time>
      </trkpt>
      <trkpt lat="45.69185" lon="4.60145">
        <ele>469.8</ele>
        <time>2025-12-15T14:23:02Z</time>
      </trkpt>
      <trkpt lat="45.69184" lon="4.60154">
        <ele>469.6</ele>
        <time>2025-12-15T14:23:03Z</time>
      </trkpt>
      <trkpt lat="45.69187" lon="4.60164">
        <ele>469.4</ele>
        <time>2025-12-15T14:23:04Z</time>
      </trkpt>
      <trkpt lat="45.69187" lon="4.60172">
        <ele>469</ele>
        <time>2025-12-15T14:23:05Z</time>
      </trkpt>
      <trkpt lat="45.69186" lon="4.60181">
        <ele>468.8</ele>
        <time>2025-12-15T14:23:06Z</time>
      </trkpt>
      <trkpt lat="45.69187" lon="4.6019">
        <ele>468.6</ele>
        <time>2025-12-15T14:23:07Z</time>
      </trkpt>
      <trkpt lat="45.69187" lon="4.60198">
        <ele>468.4</ele>
        <time>2025-12-15T14:23:08Z</time>
      </trkpt>
      <trkpt lat="45.69188" lon="4.60206">
        <ele>468.4</ele>
        <time>2025-12-15T14:23:09Z</time>
      </trkpt>
      <trkpt lat="45.69189" lon="4.60215">
        <ele>468.2</ele>
        <time>2025-12-15T14:23:10Z</time>
      </trkpt>
      <trkpt lat="45.6919" lon="4.60223">
        <ele>468.4</ele>
        <time>2025-12-15T14:23:11Z</time>
      </trkpt>
      <trkpt lat="45.6919" lon="4.60231">
        <ele>468.4</ele>
        <time>2025-12-15T14:23:12Z</time>
      </trkpt>
      <trkpt lat="45.69191" lon="4.60239">
        <ele>468.6</ele>
        <time>2025-12-15T14:23:13Z</time>
      </trkpt>
      <trkpt lat="45.6919" lon="4.60248">
        <ele>468.8</ele>
        <time>2025-12-15T14:23:14Z</time>
      </trkpt>
      <trkpt lat="45.69192" lon="4.60255">
        <ele>469</ele>
        <time>2025-12-15T14:23:15Z</time>
      </trkpt>
      <trkpt lat="45.6919" lon="4.60262">
        <ele>469.2</ele>
        <time>2025-12-15T14:23:16Z</time>
      </trkpt>
      <trkpt lat="45.69189" lon="4.60269">
        <ele>469.4</ele>
        <time>2025-12-15T14:23:17Z</time>
      </trkpt>
      <trkpt lat="45.69188" lon="4.60276">
        <ele>469.6</ele>
        <time>2025-12-15T14:23:18Z</time>
      </trkpt>
      <trkpt lat="45.69186" lon="4.60282">
        <ele>469.6</ele>
        <time>2025-12-15T14:23:19Z</time>
      </trkpt>
      <trkpt lat="45.69184" lon="4.60288">
        <ele>469.8</ele>
        <time>2025-12-15T14:23:20Z</time>
      </trkpt>
      <trkpt lat="45.69182" lon="4.60294">
        <ele>469.8</ele>
        <time>2025-12-15T14:23:21Z</time>
      </trkpt>
      <trkpt lat="45.69179" lon="4.603">
        <ele>469.8</ele>
        <time>2025-12-15T14:23:22Z</time>
      </trkpt>
      <trkpt lat="45.69176" lon="4.60306">
        <ele>470</ele>
        <time>2025-12-15T14:23:23Z</time>
      </trkpt>
      <trkpt lat="45.69173" lon="4.60311">
        <ele>470</ele>
        <time>2025-12-15T14:23:24Z</time>
      </trkpt>
      <trkpt lat="45.69171" lon="4.60317">
        <ele>470</ele>
        <time>2025-12-15T14:23:25Z</time>
      </trkpt>
      <trkpt lat="45.6917" lon="4.60324">
        <ele>470</ele>
        <time>2025-12-15T14:23:26Z</time>
      </trkpt>
      <trkpt lat="45.69169" lon="4.60331">
        <ele>470</ele>
        <time>2025-12-15T14:23:27Z</time>
      </trkpt>
      <trkpt lat="45.69167" lon="4.60338">
        <ele>469.6</ele>
        <time>2025-12-15T14:23:28Z</time>
      </trkpt>
      <trkpt lat="45.69164" lon="4.60344">
        <ele>469.4</ele>
        <time>2025-12-15T14:23:29Z</time>
      </trkpt>
      <trkpt lat="45.69161" lon="4.60348">
        <ele>469.2</ele>
        <time>2025-12-15T14:23:30Z</time>
      </trkpt>
      <trkpt lat="45.69157" lon="4.60351">
        <ele>469</ele>
        <time>2025-12-15T14:23:31Z</time>
      </trkpt>
      <trkpt lat="45.69153" lon="4.60354">
        <ele>468.8</ele>
        <time>2025-12-15T14:23:32Z</time>
      </trkpt>
      <trkpt lat="45.69148" lon="4.60357">
        <ele>468.8</ele>
        <time>2025-12-15T14:23:33Z</time>
      </trkpt>
      <trkpt lat="45.69144" lon="4.6036">
        <ele>468.6</ele>
        <time>2025-12-15T14:23:34Z</time>
      </trkpt>
      <trkpt lat="45.69139" lon="4.60364">
        <ele>468.4</ele>
        <time>2025-12-15T14:23:35Z</time>
      </trkpt>
      <trkpt lat="45.69134" lon="4.60368">
        <ele>468.2</ele>
        <time>2025-12-15T14:23:36Z</time>
      </trkpt>
      <trkpt lat="45.69129" lon="4.60372">
        <ele>468</ele>
        <time>2025-12-15T14:23:37Z</time>
      </trkpt>
      <trkpt lat="45.69124" lon="4.60377">
        <ele>468</ele>
        <time>2025-12-15T14:23:38Z</time>
      </trkpt>
      <trkpt lat="45.69119" lon="4.6038">
        <ele>467.8</ele>
        <time>2025-12-15T14:23:39Z</time>
      </trkpt>
      <trkpt lat="45.69114" lon="4.60384">
        <ele>468</ele>
        <time>2025-12-15T14:23:40Z</time>
      </trkpt>
      <trkpt lat="45.69109" lon="4.60388">
        <ele>467.8</ele>
        <time>2025-12-15T14:23:41Z</time>
      </trkpt>
      <trkpt lat="45.69103" lon="4.60391">
        <ele>467.8</ele>
        <time>2025-12-15T14:23:42Z</time>
      </trkpt>
      <trkpt lat="45.69098" lon="4.60395">
        <ele>467.8</ele>
        <time>2025-12-15T14:23:43Z</time>
      </trkpt>
      <trkpt lat="45.69093" lon="4.60398">
        <ele>467.8</ele>
        <time>2025-12-15T14:23:44Z</time>
      </trkpt>
      <trkpt lat="45.69088" lon="4.60402">
        <ele>467.6</ele>
        <time>2025-12-15T14:23:45Z</time>
      </trkpt>
      <trkpt lat="45.69083" lon="4.60406">
        <ele>467.6</ele>
        <time>2025-12-15T14:23:46Z</time>
      </trkpt>
      <trkpt lat="45.69078" lon="4.60411">
        <ele>467.4</ele>
        <time>2025-12-15T14:23:47Z</time>
      </trkpt>
      <trkpt lat="45.69072" lon="4.60415">
        <ele>467.4</ele>
        <time>2025-12-15T14:23:48Z</time>
      </trkpt>
      <trkpt lat="45.69067" lon="4.60419">
        <ele>467.4</ele>
        <time>2025-12-15T14:23:49Z</time>
      </trkpt>
      <trkpt lat="45.69062" lon="4.60423">
        <ele>467.4</ele>
        <time>2025-12-15T14:23:50Z</time>
      </trkpt>
      <trkpt lat="45.69057" lon="4.60428">
        <ele>467.6</ele>
        <time>2025-12-15T14:23:51Z</time>
      </trkpt>
      <trkpt lat="45.69052" lon="4.60432">
        <ele>467.6</ele>
        <time>2025-12-15T14:23:52Z</time>
      </trkpt>
      <trkpt lat="45.69047" lon="4.60436">
        <ele>467.6</ele>
        <time>2025-12-15T14:23:53Z</time>
      </trkpt>
      <trkpt lat="45.69042" lon="4.6044">
        <ele>467.6</ele>
        <time>2025-12-15T14:23:54Z</time>
      </trkpt>
      <trkpt lat="45.69037" lon="4.60444">
        <ele>467.4</ele>
        <time>2025-12-15T14:23:55Z</time>
      </trkpt>
      <trkpt lat="45.69032" lon="4.60447">
        <ele>467.4</ele>
        <time>2025-12-15T14:23:56Z</time>
      </trkpt>
      <trkpt lat="45.69027" lon="4.60451">
        <ele>467.4</ele>
        <time>2025-12-15T14:23:57Z</time>
      </trkpt>
      <trkpt lat="45.69022" lon="4.60456">
        <ele>467.4</ele>
        <time>2025-12-15T14:23:58Z</time>
      </trkpt>
      <trkpt lat="45.69017" lon="4.60459">
        <ele>467.4</ele>
        <time>2025-12-15T14:23:59Z</time>
      </trkpt>
      <trkpt lat="45.69012" lon="4.60463">
        <ele>467.6</ele>
        <time>2025-12-15T14:24:00Z</time>
      </trkpt>
      <trkpt lat="45.69007" lon="4.60467">
        <ele>467.6</ele>
        <time>2025-12-15T14:24:01Z</time>
      </trkpt>
      <trkpt lat="45.69002" lon="4.60471">
        <ele>467.6</ele>
        <time>2025-12-15T14:24:02Z</time>
      </trkpt>
      <trkpt lat="45.68997" lon="4.60475">
        <ele>467.8</ele>
        <time>2025-12-15T14:24:03Z</time>
      </trkpt>
      <trkpt lat="45.68992" lon="4.60479">
        <ele>467.8</ele>
        <time>2025-12-15T14:24:04Z</time>
      </trkpt>
      <trkpt lat="45.68987" lon="4.60483">
        <ele>468</ele>
        <time>2025-12-15T14:24:05Z</time>
      </trkpt>
      <trkpt lat="45.68982" lon="4.60487">
        <ele>468</ele>
        <time>2025-12-15T14:24:06Z</time>
      </trkpt>
      <trkpt lat="45.68976" lon="4.60491">
        <ele>468</ele>
        <time>2025-12-15T14:24:07Z</time>
      </trkpt>
      <trkpt lat="45.68971" lon="4.60495">
        <ele>468</ele>
        <time>2025-12-15T14:24:08Z</time>
      </trkpt>
      <trkpt lat="45.68966" lon="4.60499">
        <ele>468</ele>
        <time>2025-12-15T14:24:09Z</time>
      </trkpt>
      <trkpt lat="45.68961" lon="4.60503">
        <ele>468</ele>
        <time>2025-12-15T14:24:10Z</time>
      </trkpt>
      <trkpt lat="45.68956" lon="4.60507">
        <ele>468</ele>
        <time>2025-12-15T14:24:11Z</time>
      </trkpt>
      <trkpt lat="45.68951" lon="4.60511">
        <ele>468</ele>
        <time>2025-12-15T14:24:12Z</time>
      </trkpt>
      <trkpt lat="45.68946" lon="4.60516">
        <ele>468</ele>
        <time>2025-12-15T14:24:13Z</time>
      </trkpt>
      <trkpt lat="45.68941" lon="4.6052">
        <ele>468</ele>
        <time>2025-12-15T14:24:14Z</time>
      </trkpt>
      <trkpt lat="45.68936" lon="4.60525">
        <ele>467.8</ele>
        <time>2025-12-15T14:24:15Z</time>
      </trkpt>
      <trkpt lat="45.68931" lon="4.60529">
        <ele>467.8</ele>
        <time>2025-12-15T14:24:16Z</time>
      </trkpt>
      <trkpt lat="45.68925" lon="4.60533">
        <ele>467.8</ele>
        <time>2025-12-15T14:24:17Z</time>
      </trkpt>
      <trkpt lat="45.6892" lon="4.60537">
        <ele>467.6</ele>
        <time>2025-12-15T14:24:18Z</time>
      </trkpt>
      <trkpt lat="45.68915" lon="4.60541">
        <ele>467.4</ele>
        <time>2025-12-15T14:24:19Z</time>
      </trkpt>
      <trkpt lat="45.6891" lon="4.60544">
        <ele>467.2</ele>
        <time>2025-12-15T14:24:20Z</time>
      </trkpt>
      <trkpt lat="45.68904" lon="4.60547">
        <ele>467.2</ele>
        <time>2025-12-15T14:24:21Z</time>
      </trkpt>
      <trkpt lat="45.68899" lon="4.60549">
        <ele>467.2</ele>
        <time>2025-12-15T14:24:22Z</time>
      </trkpt>
      <trkpt lat="45.68893" lon="4.60551">
        <ele>467</ele>
        <time>2025-12-15T14:24:23Z</time>
      </trkpt>
      <trkpt lat="45.68887" lon="4.60552">
        <ele>467</ele>
        <time>2025-12-15T14:24:24Z</time>
      </trkpt>
      <trkpt lat="45.68881" lon="4.60551">
        <ele>466.8</ele>
        <time>2025-12-15T14:24:25Z</time>
      </trkpt>
      <trkpt lat="45.68875" lon="4.60549">
        <ele>466.8</ele>
        <time>2025-12-15T14:24:26Z</time>
      </trkpt>
      <trkpt lat="45.68869" lon="4.60546">
        <ele>466.6</ele>
        <time>2025-12-15T14:24:27Z</time>
      </trkpt>
      <trkpt lat="45.68864" lon="4.60542">
        <ele>466.6</ele>
        <time>2025-12-15T14:24:28Z</time>
      </trkpt>
      <trkpt lat="45.68858" lon="4.60538">
        <ele>466.4</ele>
        <time>2025-12-15T14:24:29Z</time>
      </trkpt>
      <trkpt lat="45.68853" lon="4.60534">
        <ele>466.4</ele>
        <time>2025-12-15T14:24:30Z</time>
      </trkpt>
      <trkpt lat="45.68849" lon="4.60529">
        <ele>466.4</ele>
        <time>2025-12-15T14:24:31Z</time>
      </trkpt>
      <trkpt lat="45.68844" lon="4.60524">
        <ele>466.4</ele>
        <time>2025-12-15T14:24:32Z</time>
      </trkpt>
      <trkpt lat="45.6884" lon="4.60518">
        <ele>466.4</ele>
        <time>2025-12-15T14:24:33Z</time>
      </trkpt>
      <trkpt lat="45.68836" lon="4.60512">
        <ele>466.4</ele>
        <time>2025-12-15T14:24:34Z</time>
      </trkpt>
      <trkpt lat="45.68832" lon="4.60506">
        <ele>466.4</ele>
        <time>2025-12-15T14:24:35Z</time>
      </trkpt>
      <trkpt lat="45.68828" lon="4.605">
        <ele>466.6</ele>
        <time>2025-12-15T14:24:36Z</time>
      </trkpt>
      <trkpt lat="45.68825" lon="4.60493">
        <ele>466.6</ele>
        <time>2025-12-15T14:24:37Z</time>
      </trkpt>
      <trkpt lat="45.68822" lon="4.60486">
        <ele>466.8</ele>
        <time>2025-12-15T14:24:38Z</time>
      </trkpt>
      <trkpt lat="45.68818" lon="4.60479">
        <ele>466.8</ele>
        <time>2025-12-15T14:24:39Z</time>
      </trkpt>
      <trkpt lat="45.68814" lon="4.60472">
        <ele>466.8</ele>
        <time>2025-12-15T14:24:40Z</time>
      </trkpt>
      <trkpt lat="45.68811" lon="4.60465">
        <ele>466.8</ele>
        <time>2025-12-15T14:24:41Z</time>
      </trkpt>
      <trkpt lat="45.68807" lon="4.60458">
        <ele>466.8</ele>
        <time>2025-12-15T14:24:42Z</time>
      </trkpt>
      <trkpt lat="45.68804" lon="4.6045">
        <ele>466.6</ele>
        <time>2025-12-15T14:24:43Z</time>
      </trkpt>
      <trkpt lat="45.688" lon="4.60443">
        <ele>466.4</ele>
        <time>2025-12-15T14:24:44Z</time>
      </trkpt>
      <trkpt lat="45.68797" lon="4.60435">
        <ele>466.2</ele>
        <time>2025-12-15T14:24:45Z</time>
      </trkpt>
      <trkpt lat="45.68793" lon="4.60427">
        <ele>465.8</ele>
        <time>2025-12-15T14:24:46Z</time>
      </trkpt>
      <trkpt lat="45.68789" lon="4.60418">
        <ele>465.4</ele>
        <time>2025-12-15T14:24:47Z</time>
      </trkpt>
      <trkpt lat="45.68786" lon="4.6041">
        <ele>465</ele>
        <time>2025-12-15T14:24:48Z</time>
      </trkpt>
      <trkpt lat="45.68783" lon="4.60401">
        <ele>464.4</ele>
        <time>2025-12-15T14:24:49Z</time>
      </trkpt>
      <trkpt lat="45.68782" lon="4.60393">
        <ele>464</ele>
        <time>2025-12-15T14:24:50Z</time>
      </trkpt>
      <trkpt lat="45.6878" lon="4.60384">
        <ele>463.8</ele>
        <time>2025-12-15T14:24:51Z</time>
      </trkpt>
      <trkpt lat="45.68779" lon="4.60377">
        <ele>463.6</ele>
        <time>2025-12-15T14:24:52Z</time>
      </trkpt>
      <trkpt lat="45.68776" lon="4.6037">
        <ele>463.6</ele>
        <time>2025-12-15T14:24:53Z</time>
      </trkpt>
      <trkpt lat="45.68772" lon="4.60365">
        <ele>463.8</ele>
        <time>2025-12-15T14:24:54Z</time>
      </trkpt>
      <trkpt lat="45.68767" lon="4.60363">
        <ele>464</ele>
        <time>2025-12-15T14:24:55Z</time>
      </trkpt>
      <trkpt lat="45.68762" lon="4.60361">
        <ele>464.2</ele>
        <time>2025-12-15T14:24:56Z</time>
      </trkpt>
      <trkpt lat="45.68758" lon="4.60361">
        <ele>464.8</ele>
        <time>2025-12-15T14:24:57Z</time>
      </trkpt>
      <trkpt lat="45.68754" lon="4.60362">
        <ele>465.4</ele>
        <time>2025-12-15T14:24:58Z</time>
      </trkpt>
      <trkpt lat="45.6875" lon="4.60363">
        <ele>465.8</ele>
        <time>2025-12-15T14:24:59Z</time>
      </trkpt>
      <trkpt lat="45.68747" lon="4.60365">
        <ele>466.6</ele>
        <time>2025-12-15T14:25:00Z</time>
      </trkpt>
      <trkpt lat="45.68743" lon="4.60367">
        <ele>467.2</ele>
        <time>2025-12-15T14:25:01Z</time>
      </trkpt>
      <trkpt lat="45.6874" lon="4.6037">
        <ele>467.8</ele>
        <time>2025-12-15T14:25:02Z</time>
      </trkpt>
      <trkpt lat="45.68736" lon="4.60373">
        <ele>468.6</ele>
        <time>2025-12-15T14:25:03Z</time>
      </trkpt>
      <trkpt lat="45.68734" lon="4.60377">
        <ele>469.2</ele>
        <time>2025-12-15T14:25:04Z</time>
      </trkpt>
      <trkpt lat="45.68732" lon="4.60382">
        <ele>470</ele>
        <time>2025-12-15T14:25:05Z</time>
      </trkpt>
      <trkpt lat="45.6873" lon="4.60386">
        <ele>470.6</ele>
        <time>2025-12-15T14:25:06Z</time>
      </trkpt>
      <trkpt lat="45.68728" lon="4.6039">
        <ele>471.4</ele>
        <time>2025-12-15T14:25:07Z</time>
      </trkpt>
      <trkpt lat="45.68726" lon="4.60395">
        <ele>472.2</ele>
        <time>2025-12-15T14:25:08Z</time>
      </trkpt>
      <trkpt lat="45.68725" lon="4.604">
        <ele>472.8</ele>
        <time>2025-12-15T14:25:09Z</time>
      </trkpt>
      <trkpt lat="45.68724" lon="4.60405">
        <ele>473.4</ele>
        <time>2025-12-15T14:25:10Z</time>
      </trkpt>
      <trkpt lat="45.68722" lon="4.60411">
        <ele>473.8</ele>
        <time>2025-12-15T14:25:11Z</time>
      </trkpt>
      <trkpt lat="45.6872" lon="4.60416">
        <ele>474.4</ele>
        <time>2025-12-15T14:25:12Z</time>
      </trkpt>
      <trkpt lat="45.68719" lon="4.60421">
        <ele>474.8</ele>
        <time>2025-12-15T14:25:13Z</time>
      </trkpt>
      <trkpt lat="45.68717" lon="4.60427">
        <ele>475.2</ele>
        <time>2025-12-15T14:25:14Z</time>
      </trkpt>
      <trkpt lat="45.68715" lon="4.60432">
        <ele>475.6</ele>
        <time>2025-12-15T14:25:15Z</time>
      </trkpt>
      <trkpt lat="45.68713" lon="4.60437">
        <ele>476</ele>
        <time>2025-12-15T14:25:16Z</time>
      </trkpt>
      <trkpt lat="45.68711" lon="4.60442">
        <ele>476.4</ele>
        <time>2025-12-15T14:25:17Z</time>
      </trkpt>
      <trkpt lat="45.6871" lon="4.60446">
        <ele>476.8</ele>
        <time>2025-12-15T14:25:18Z</time>
      </trkpt>
      <trkpt lat="45.68708" lon="4.60452">
        <ele>477.2</ele>
        <time>2025-12-15T14:25:19Z</time>
      </trkpt>
      <trkpt lat="45.68706" lon="4.60457">
        <ele>477.4</ele>
        <time>2025-12-15T14:25:20Z</time>
      </trkpt>
      <trkpt lat="45.68703" lon="4.60463">
        <ele>477.6</ele>
        <time>2025-12-15T14:25:21Z</time>
      </trkpt>
      <trkpt lat="45.68701" lon="4.60468">
        <ele>477.8</ele>
        <time>2025-12-15T14:25:22Z</time>
      </trkpt>
      <trkpt lat="45.68698" lon="4.60473">
        <ele>478</ele>
        <time>2025-12-15T14:25:23Z</time>
      </trkpt>
      <trkpt lat="45.68696" lon="4.60479">
        <ele>478</ele>
        <time>2025-12-15T14:25:24Z</time>
      </trkpt>
      <trkpt lat="45.68693" lon="4.60484">
        <ele>478.2</ele>
        <time>2025-12-15T14:25:25Z</time>
      </trkpt>
      <trkpt lat="45.6869" lon="4.60489">
        <ele>478.4</ele>
        <time>2025-12-15T14:25:26Z</time>
      </trkpt>
      <trkpt lat="45.68687" lon="4.60494">
        <ele>478.6</ele>
        <time>2025-12-15T14:25:27Z</time>
      </trkpt>
      <trkpt lat="45.68684" lon="4.60498">
        <ele>478.6</ele>
        <time>2025-12-15T14:25:28Z</time>
      </trkpt>
      <trkpt lat="45.68681" lon="4.60503">
        <ele>478.8</ele>
        <time>2025-12-15T14:25:29Z</time>
      </trkpt>
      <trkpt lat="45.68677" lon="4.60508">
        <ele>479</ele>
        <time>2025-12-15T14:25:30Z</time>
      </trkpt>
      <trkpt lat="45.68673" lon="4.60513">
        <ele>479</ele>
        <time>2025-12-15T14:25:31Z</time>
      </trkpt>
      <trkpt lat="45.68669" lon="4.60517">
        <ele>479</ele>
        <time>2025-12-15T14:25:32Z</time>
      </trkpt>
      <trkpt lat="45.68665" lon="4.60521">
        <ele>479</ele>
        <time>2025-12-15T14:25:33Z</time>
      </trkpt>
      <trkpt lat="45.6866" lon="4.60526">
        <ele>479</ele>
        <time>2025-12-15T14:25:34Z</time>
      </trkpt>
      <trkpt lat="45.68656" lon="4.60529">
        <ele>478.8</ele>
        <time>2025-12-15T14:25:35Z</time>
      </trkpt>
      <trkpt lat="45.68651" lon="4.60533">
        <ele>479</ele>
        <time>2025-12-15T14:25:36Z</time>
      </trkpt>
      <trkpt lat="45.68647" lon="4.60536">
        <ele>479</ele>
        <time>2025-12-15T14:25:37Z</time>
      </trkpt>
      <trkpt lat="45.68642" lon="4.6054">
        <ele>479.2</ele>
        <time>2025-12-15T14:25:38Z</time>
      </trkpt>
      <trkpt lat="45.68637" lon="4.60543">
        <ele>479.2</ele>
        <time>2025-12-15T14:25:39Z</time>
      </trkpt>
      <trkpt lat="45.68632" lon="4.60545">
        <ele>479.4</ele>
        <time>2025-12-15T14:25:40Z</time>
      </trkpt>
      <trkpt lat="45.68627" lon="4.60546">
        <ele>479.4</ele>
        <time>2025-12-15T14:25:41Z</time>
      </trkpt>
      <trkpt lat="45.68621" lon="4.60548">
        <ele>479.6</ele>
        <time>2025-12-15T14:25:42Z</time>
      </trkpt>
      <trkpt lat="45.68616" lon="4.60549">
        <ele>479.6</ele>
        <time>2025-12-15T14:25:43Z</time>
      </trkpt>
      <trkpt lat="45.6861" lon="4.60551">
        <ele>479.8</ele>
        <time>2025-12-15T14:25:44Z</time>
      </trkpt>
      <trkpt lat="45.68604" lon="4.60552">
        <ele>479.8</ele>
        <time>2025-12-15T14:25:45Z</time>
      </trkpt>
      <trkpt lat="45.68598" lon="4.60553">
        <ele>479.8</ele>
        <time>2025-12-15T14:25:46Z</time>
      </trkpt>
      <trkpt lat="45.68592" lon="4.60554">
        <ele>479.8</ele>
        <time>2025-12-15T14:25:47Z</time>
      </trkpt>
      <trkpt lat="45.68587" lon="4.60555">
        <ele>479.8</ele>
        <time>2025-12-15T14:25:48Z</time>
      </trkpt>
      <trkpt lat="45.68581" lon="4.60556">
        <ele>479.8</ele>
        <time>2025-12-15T14:25:49Z</time>
      </trkpt>
      <trkpt lat="45.68576" lon="4.60559">
        <ele>480</ele>
        <time>2025-12-15T14:25:50Z</time>
      </trkpt>
      <trkpt lat="45.68572" lon="4.60562">
        <ele>480</ele>
        <time>2025-12-15T14:25:51Z</time>
      </trkpt>
      <trkpt lat="45.6857" lon="4.60568">
        <ele>480.2</ele>
        <time>2025-12-15T14:25:52Z</time>
      </trkpt>
      <trkpt lat="45.68569" lon="4.60574">
        <ele>480.6</ele>
        <time>2025-12-15T14:25:53Z</time>
      </trkpt>
      <trkpt lat="45.6857" lon="4.60579">
        <ele>481</ele>
        <time>2025-12-15T14:25:54Z</time>
      </trkpt>
      <trkpt lat="45.68571" lon="4.60585">
        <ele>481.4</ele>
        <time>2025-12-15T14:25:55Z</time>
      </trkpt>
      <trkpt lat="45.68574" lon="4.60591">
        <ele>481.8</ele>
        <time>2025-12-15T14:25:56Z</time>
      </trkpt>
      <trkpt lat="45.68576" lon="4.60596">
        <ele>482</ele>
        <time>2025-12-15T14:25:57Z</time>
      </trkpt>
      <trkpt lat="45.68579" lon="4.60602">
        <ele>482.4</ele>
        <time>2025-12-15T14:25:58Z</time>
      </trkpt>
      <trkpt lat="45.68582" lon="4.60608">
        <ele>482.6</ele>
        <time>2025-12-15T14:25:59Z</time>
      </trkpt>
      <trkpt lat="45.68584" lon="4.60613">
        <ele>482.8</ele>
        <time>2025-12-15T14:26:00Z</time>
      </trkpt>
      <trkpt lat="45.68587" lon="4.60618">
        <ele>483</ele>
        <time>2025-12-15T14:26:01Z</time>
      </trkpt>
      <trkpt lat="45.6859" lon="4.60623">
        <ele>483</ele>
        <time>2025-12-15T14:26:02Z</time>
      </trkpt>
      <trkpt lat="45.68592" lon="4.60627">
        <ele>483.2</ele>
        <time>2025-12-15T14:26:03Z</time>
      </trkpt>
      <trkpt lat="45.68593" lon="4.60631">
        <ele>483.4</ele>
        <time>2025-12-15T14:26:04Z</time>
      </trkpt>
      <trkpt lat="45.68595" lon="4.60635">
        <ele>483.6</ele>
        <time>2025-12-15T14:26:05Z</time>
      </trkpt>
      <trkpt lat="45.68597" lon="4.60638">
        <ele>483.6</ele>
        <time>2025-12-15T14:26:06Z</time>
      </trkpt>
      <trkpt lat="45.686" lon="4.60641">
        <ele>483.8</ele>
        <time>2025-12-15T14:26:07Z</time>
      </trkpt>
      <trkpt lat="45.68602" lon="4.60646">
        <ele>483.8</ele>
        <time>2025-12-15T14:26:08Z</time>
      </trkpt>
      <trkpt lat="45.68603" lon="4.60651">
        <ele>483.8</ele>
        <time>2025-12-15T14:26:09Z</time>
      </trkpt>
      <trkpt lat="45.68605" lon="4.60657">
        <ele>483.6</ele>
        <time>2025-12-15T14:26:10Z</time>
      </trkpt>
      <trkpt lat="45.68605" lon="4.60663">
        <ele>483.4</ele>
        <time>2025-12-15T14:26:11Z</time>
      </trkpt>
      <trkpt lat="45.68606" lon="4.60669">
        <ele>483.4</ele>
        <time>2025-12-15T14:26:12Z</time>
      </trkpt>
      <trkpt lat="45.68607" lon="4.60674">
        <ele>483.6</ele>
        <time>2025-12-15T14:26:13Z</time>
      </trkpt>
      <trkpt lat="45.68608" lon="4.60679">
        <ele>483.8</ele>
        <time>2025-12-15T14:26:14Z</time>
      </trkpt>
      <trkpt lat="45.68609" lon="4.60684">
        <ele>484</ele>
        <time>2025-12-15T14:26:15Z</time>
      </trkpt>
      <trkpt lat="45.68609" lon="4.60688">
        <ele>484.4</ele>
        <time>2025-12-15T14:26:16Z</time>
      </trkpt>
      <trkpt lat="45.68609" lon="4.60692">
        <ele>485</ele>
        <time>2025-12-15T14:26:17Z</time>
      </trkpt>
      <trkpt lat="45.6861" lon="4.60696">
        <ele>485.4</ele>
        <time>2025-12-15T14:26:18Z</time>
      </trkpt>
      <trkpt lat="45.6861" lon="4.60699">
        <ele>485.8</ele>
        <time>2025-12-15T14:26:19Z</time>
      </trkpt>
      <trkpt lat="45.6861" lon="4.60703">
        <ele>486.2</ele>
        <time>2025-12-15T14:26:20Z</time>
      </trkpt>
      <trkpt lat="45.68609" lon="4.60707">
        <ele>486.6</ele>
        <time>2025-12-15T14:26:21Z</time>
      </trkpt>
      <trkpt lat="45.68609" lon="4.60711">
        <ele>487</ele>
        <time>2025-12-15T14:26:22Z</time>
      </trkpt>
      <trkpt lat="45.68609" lon="4.60714">
        <ele>487.4</ele>
        <time>2025-12-15T14:26:23Z</time>
      </trkpt>
      <trkpt lat="45.68609" lon="4.60717">
        <ele>487.8</ele>
        <time>2025-12-15T14:26:24Z</time>
      </trkpt>
      <trkpt lat="45.68608" lon="4.60721">
        <ele>488.2</ele>
        <time>2025-12-15T14:26:25Z</time>
      </trkpt>
      <trkpt lat="45.68608" lon="4.60725">
        <ele>488.6</ele>
        <time>2025-12-15T14:26:26Z</time>
      </trkpt>
      <trkpt lat="45.68607" lon="4.60729">
        <ele>489.2</ele>
        <time>2025-12-15T14:26:27Z</time>
      </trkpt>
      <trkpt lat="45.68607" lon="4.60733">
        <ele>489.6</ele>
        <time>2025-12-15T14:26:28Z</time>
      </trkpt>
      <trkpt lat="45.68607" lon="4.60737">
        <ele>490</ele>
        <time>2025-12-15T14:26:29Z</time>
      </trkpt>
      <trkpt lat="45.68606" lon="4.6074">
        <ele>490.6</ele>
        <time>2025-12-15T14:26:30Z</time>
      </trkpt>
      <trkpt lat="45.68606" lon="4.60744">
        <ele>490.8</ele>
        <time>2025-12-15T14:26:31Z</time>
      </trkpt>
      <trkpt lat="45.68605" lon="4.60748">
        <ele>491.2</ele>
        <time>2025-12-15T14:26:32Z</time>
      </trkpt>
      <trkpt lat="45.68605" lon="4.60751">
        <ele>491.4</ele>
        <time>2025-12-15T14:26:33Z</time>
      </trkpt>
      <trkpt lat="45.68604" lon="4.60755">
        <ele>491.6</ele>
        <time>2025-12-15T14:26:34Z</time>
      </trkpt>
      <trkpt lat="45.68603" lon="4.60759">
        <ele>491.8</ele>
        <time>2025-12-15T14:26:35Z</time>
      </trkpt>
      <trkpt lat="45.68602" lon="4.60763">
        <ele>492</ele>
        <time>2025-12-15T14:26:36Z</time>
      </trkpt>
      <trkpt lat="45.686" lon="4.60767">
        <ele>492.2</ele>
        <time>2025-12-15T14:26:37Z</time>
      </trkpt>
      <trkpt lat="45.68599" lon="4.60771">
        <ele>492.6</ele>
        <time>2025-12-15T14:26:38Z</time>
      </trkpt>
      <trkpt lat="45.68598" lon="4.60774">
        <ele>492.8</ele>
        <time>2025-12-15T14:26:39Z</time>
      </trkpt>
      <trkpt lat="45.68596" lon="4.60778">
        <ele>493.2</ele>
        <time>2025-12-15T14:26:40Z</time>
      </trkpt>
      <trkpt lat="45.68595" lon="4.60781">
        <ele>493.6</ele>
        <time>2025-12-15T14:26:41Z</time>
      </trkpt>
      <trkpt lat="45.68593" lon="4.60785">
        <ele>493.8</ele>
        <time>2025-12-15T14:26:42Z</time>
      </trkpt>
      <trkpt lat="45.68591" lon="4.60788">
        <ele>494.2</ele>
        <time>2025-12-15T14:26:43Z</time>
      </trkpt>
      <trkpt lat="45.68589" lon="4.60792">
        <ele>494.4</ele>
        <time>2025-12-15T14:26:44Z</time>
      </trkpt>
      <trkpt lat="45.68587" lon="4.60796">
        <ele>494.6</ele>
        <time>2025-12-15T14:26:45Z</time>
      </trkpt>
      <trkpt lat="45.68585" lon="4.608">
        <ele>494.8</ele>
        <time>2025-12-15T14:26:46Z</time>
      </trkpt>
      <trkpt lat="45.68583" lon="4.60803">
        <ele>495.2</ele>
        <time>2025-12-15T14:26:47Z</time>
      </trkpt>
      <trkpt lat="45.68581" lon="4.60806">
        <ele>495.4</ele>
        <time>2025-12-15T14:26:48Z</time>
      </trkpt>
      <trkpt lat="45.68578" lon="4.6081">
        <ele>495.6</ele>
        <time>2025-12-15T14:26:49Z</time>
      </trkpt>
      <trkpt lat="45.68576" lon="4.60813">
        <ele>495.8</ele>
        <time>2025-12-15T14:26:50Z</time>
      </trkpt>
      <trkpt lat="45.68574" lon="4.60816">
        <ele>496</ele>
        <time>2025-12-15T14:26:51Z</time>
      </trkpt>
      <trkpt lat="45.68571" lon="4.60818">
        <ele>496.4</ele>
        <time>2025-12-15T14:26:52Z</time>
      </trkpt>
      <trkpt lat="45.68569" lon="4.60821">
        <ele>496.6</ele>
        <time>2025-12-15T14:26:53Z</time>
      </trkpt>
      <trkpt lat="45.68567" lon="4.60823">
        <ele>497</ele>
        <time>2025-12-15T14:26:54Z</time>
      </trkpt>
      <trkpt lat="45.68565" lon="4.60825">
        <ele>497.2</ele>
        <time>2025-12-15T14:26:55Z</time>
      </trkpt>
      <trkpt lat="45.68562" lon="4.60828">
        <ele>497.6</ele>
        <time>2025-12-15T14:26:56Z</time>
      </trkpt>
      <trkpt lat="45.68559" lon="4.6083">
        <ele>497.8</ele>
        <time>2025-12-15T14:26:57Z</time>
      </trkpt>
      <trkpt lat="45.68557" lon="4.60832">
        <ele>498.2</ele>
        <time>2025-12-15T14:26:58Z</time>
      </trkpt>
      <trkpt lat="45.68554" lon="4.60835">
        <ele>498.6</ele>
        <time>2025-12-15T14:26:59Z</time>
      </trkpt>
      <trkpt lat="45.68552" lon="4.60837">
        <ele>498.8</ele>
        <time>2025-12-15T14:27:00Z</time>
      </trkpt>
      <trkpt lat="45.6855" lon="4.60839">
        <ele>499.2</ele>
        <time>2025-12-15T14:27:01Z</time>
      </trkpt>
      <trkpt lat="45.68547" lon="4.60841">
        <ele>499.6</ele>
        <time>2025-12-15T14:27:02Z</time>
      </trkpt>
      <trkpt lat="45.68545" lon="4.60843">
        <ele>500</ele>
        <time>2025-12-15T14:27:03Z</time>
      </trkpt>
      <trkpt lat="45.68542" lon="4.60846">
        <ele>500.2</ele>
        <time>2025-12-15T14:27:04Z</time>
      </trkpt>
      <trkpt lat="45.68539" lon="4.60848">
        <ele>500.6</ele>
        <time>2025-12-15T14:27:05Z</time>
      </trkpt>
      <trkpt lat="45.68537" lon="4.6085">
        <ele>501</ele>
        <time>2025-12-15T14:27:06Z</time>
      </trkpt>
      <trkpt lat="45.68534" lon="4.60852">
        <ele>501.2</ele>
        <time>2025-12-15T14:27:07Z</time>
      </trkpt>
      <trkpt lat="45.68531" lon="4.60854">
        <ele>501.4</ele>
        <time>2025-12-15T14:27:08Z</time>
      </trkpt>
      <trkpt lat="45.68528" lon="4.60856">
        <ele>501.6</ele>
        <time>2025-12-15T14:27:09Z</time>
      </trkpt>
      <trkpt lat="45.68526" lon="4.60858">
        <ele>501.8</ele>
        <time>2025-12-15T14:27:10Z</time>
      </trkpt>
      <trkpt lat="45.68522" lon="4.6086">
        <ele>501.8</ele>
        <time>2025-12-15T14:27:11Z</time>
      </trkpt>
      <trkpt lat="45.68519" lon="4.60862">
        <ele>502</ele>
        <time>2025-12-15T14:27:12Z</time>
      </trkpt>
      <trkpt lat="45.68516" lon="4.60863">
        <ele>502.2</ele>
        <time>2025-12-15T14:27:13Z</time>
      </trkpt>
      <trkpt lat="45.68512" lon="4.60865">
        <ele>502.6</ele>
        <time>2025-12-15T14:27:14Z</time>
      </trkpt>
      <trkpt lat="45.68509" lon="4.60866">
        <ele>502.8</ele>
        <time>2025-12-15T14:27:15Z</time>
      </trkpt>
      <trkpt lat="45.68505" lon="4.60867">
        <ele>503</ele>
        <time>2025-12-15T14:27:16Z</time>
      </trkpt>
      <trkpt lat="45.68502" lon="4.60868">
        <ele>503.2</ele>
        <time>2025-12-15T14:27:17Z</time>
      </trkpt>
      <trkpt lat="45.68498" lon="4.60869">
        <ele>503.4</ele>
        <time>2025-12-15T14:27:18Z</time>
      </trkpt>
      <trkpt lat="45.68495" lon="4.6087">
        <ele>503.6</ele>
        <time>2025-12-15T14:27:19Z</time>
      </trkpt>
      <trkpt lat="45.68492" lon="4.60871">
        <ele>503.8</ele>
        <time>2025-12-15T14:27:20Z</time>
      </trkpt>
      <trkpt lat="45.68489" lon="4.60872">
        <ele>503.8</ele>
        <time>2025-12-15T14:27:21Z</time>
      </trkpt>
      <trkpt lat="45.68485" lon="4.60874">
        <ele>504</ele>
        <time>2025-12-15T14:27:22Z</time>
      </trkpt>
      <trkpt lat="45.68482" lon="4.60875">
        <ele>504</ele>
        <time>2025-12-15T14:27:23Z</time>
      </trkpt>
      <trkpt lat="45.68478" lon="4.60876">
        <ele>504.2</ele>
        <time>2025-12-15T14:27:24Z</time>
      </trkpt>
      <trkpt lat="45.68475" lon="4.60877">
        <ele>504.4</ele>
        <time>2025-12-15T14:27:25Z</time>
      </trkpt>
      <trkpt lat="45.68472" lon="4.60878">
        <ele>504.6</ele>
        <time>2025-12-15T14:27:26Z</time>
      </trkpt>
      <trkpt lat="45.6847" lon="4.6088">
        <ele>504.8</ele>
        <time>2025-12-15T14:27:27Z</time>
      </trkpt>
      <trkpt lat="45.68467" lon="4.60881">
        <ele>505</ele>
        <time>2025-12-15T14:27:28Z</time>
      </trkpt>
      <trkpt lat="45.68464" lon="4.60883">
        <ele>505.2</ele>
        <time>2025-12-15T14:27:29Z</time>
      </trkpt>
      <trkpt lat="45.68461" lon="4.60884">
        <ele>505.2</ele>
        <time>2025-12-15T14:27:30Z</time>
      </trkpt>
      <trkpt lat="45.68457" lon="4.60884">
        <ele>505</ele>
        <time>2025-12-15T14:27:31Z</time>
      </trkpt>
      <trkpt lat="45.68453" lon="4.60885">
        <ele>504.8</ele>
        <time>2025-12-15T14:27:32Z</time>
      </trkpt>
      <trkpt lat="45.68448" lon="4.60885">
        <ele>504.4</ele>
        <time>2025-12-15T14:27:33Z</time>
      </trkpt>
      <trkpt lat="45.68443" lon="4.60887">
        <ele>504</ele>
        <time>2025-12-15T14:27:34Z</time>
      </trkpt>
      <trkpt lat="45.68438" lon="4.60888">
        <ele>503.8</ele>
        <time>2025-12-15T14:27:35Z</time>
      </trkpt>
      <trkpt lat="45.68433" lon="4.60889">
        <ele>503.4</ele>
        <time>2025-12-15T14:27:36Z</time>
      </trkpt>
      <trkpt lat="45.68428" lon="4.60891">
        <ele>503.2</ele>
        <time>2025-12-15T14:27:37Z</time>
      </trkpt>
      <trkpt lat="45.68423" lon="4.60893">
        <ele>503</ele>
        <time>2025-12-15T14:27:38Z</time>
      </trkpt>
      <trkpt lat="45.68418" lon="4.60896">
        <ele>502.6</ele>
        <time>2025-12-15T14:27:39Z</time>
      </trkpt>
      <trkpt lat="45.68414" lon="4.60901">
        <ele>502.4</ele>
        <time>2025-12-15T14:27:40Z</time>
      </trkpt>
      <trkpt lat="45.6841" lon="4.60905">
        <ele>502.2</ele>
        <time>2025-12-15T14:27:41Z</time>
      </trkpt>
      <trkpt lat="45.68406" lon="4.60911">
        <ele>501.8</ele>
        <time>2025-12-15T14:27:42Z</time>
      </trkpt>
      <trkpt lat="45.68403" lon="4.60917">
        <ele>501.8</ele>
        <time>2025-12-15T14:27:43Z</time>
      </trkpt>
      <trkpt lat="45.68401" lon="4.60923">
        <ele>501.6</ele>
        <time>2025-12-15T14:27:44Z</time>
      </trkpt>
      <trkpt lat="45.68399" lon="4.60927">
        <ele>501.8</ele>
        <time>2025-12-15T14:27:45Z</time>
      </trkpt>
      <trkpt lat="45.68397" lon="4.60932">
        <ele>501.8</ele>
        <time>2025-12-15T14:27:46Z</time>
      </trkpt>
      <trkpt lat="45.68396" lon="4.60938">
        <ele>502.2</ele>
        <time>2025-12-15T14:27:47Z</time>
      </trkpt>
      <trkpt lat="45.68396" lon="4.60945">
        <ele>502.2</ele>
        <time>2025-12-15T14:27:48Z</time>
      </trkpt>
      <trkpt lat="45.68396" lon="4.60952">
        <ele>502.6</ele>
        <time>2025-12-15T14:27:49Z</time>
      </trkpt>
      <trkpt lat="45.68396" lon="4.6096">
        <ele>502.8</ele>
        <time>2025-12-15T14:27:50Z</time>
      </trkpt>
      <trkpt lat="45.68396" lon="4.60967">
        <ele>503.2</ele>
        <time>2025-12-15T14:27:51Z</time>
      </trkpt>
      <trkpt lat="45.68396" lon="4.60974">
        <ele>503.4</ele>
        <time>2025-12-15T14:27:52Z</time>
      </trkpt>
      <trkpt lat="45.68395" lon="4.60982">
        <ele>503.6</ele>
        <time>2025-12-15T14:27:53Z</time>
      </trkpt>
      <trkpt lat="45.68396" lon="4.60989">
        <ele>503.8</ele>
        <time>2025-12-15T14:27:54Z</time>
      </trkpt>
      <trkpt lat="45.68396" lon="4.60997">
        <ele>504</ele>
        <time>2025-12-15T14:27:55Z</time>
      </trkpt>
      <trkpt lat="45.68396" lon="4.61003">
        <ele>504.2</ele>
        <time>2025-12-15T14:27:56Z</time>
      </trkpt>
      <trkpt lat="45.68397" lon="4.61011">
        <ele>504.4</ele>
        <time>2025-12-15T14:27:57Z</time>
      </trkpt>
      <trkpt lat="45.68398" lon="4.61019">
        <ele>504.6</ele>
        <time>2025-12-15T14:27:58Z</time>
      </trkpt>
      <trkpt lat="45.68398" lon="4.61026">
        <ele>504.8</ele>
        <time>2025-12-15T14:27:59Z</time>
      </trkpt>
      <trkpt lat="45.68398" lon="4.61034">
        <ele>505</ele>
        <time>2025-12-15T14:28:00Z</time>
      </trkpt>
      <trkpt lat="45.68398" lon="4.61041">
        <ele>505.2</ele>
        <time>2025-12-15T14:28:01Z</time>
      </trkpt>
      <trkpt lat="45.68398" lon="4.61048">
        <ele>505.4</ele>
        <time>2025-12-15T14:28:02Z</time>
      </trkpt>
      <trkpt lat="45.68399" lon="4.61054">
        <ele>505.6</ele>
        <time>2025-12-15T14:28:03Z</time>
      </trkpt>
      <trkpt lat="45.684" lon="4.6106">
        <ele>505.6</ele>
        <time>2025-12-15T14:28:04Z</time>
      </trkpt>
      <trkpt lat="45.68399" lon="4.61066">
        <ele>505.8</ele>
        <time>2025-12-15T14:28:05Z</time>
      </trkpt>
      <trkpt lat="45.68398" lon="4.61073">
        <ele>505.8</ele>
        <time>2025-12-15T14:28:06Z</time>
      </trkpt>
      <trkpt lat="45.68396" lon="4.6108">
        <ele>505.8</ele>
        <time>2025-12-15T14:28:07Z</time>
      </trkpt>
      <trkpt lat="45.68394" lon="4.61088">
        <ele>505.6</ele>
        <time>2025-12-15T14:28:08Z</time>
      </trkpt>
      <trkpt lat="45.68393" lon="4.61096">
        <ele>505.2</ele>
        <time>2025-12-15T14:28:09Z</time>
      </trkpt>
      <trkpt lat="45.68391" lon="4.61104">
        <ele>504.8</ele>
        <time>2025-12-15T14:28:10Z</time>
      </trkpt>
      <trkpt lat="45.68388" lon="4.61114">
        <ele>504.2</ele>
        <time>2025-12-15T14:28:11Z</time>
      </trkpt>
      <trkpt lat="45.68386" lon="4.61124">
        <ele>503.6</ele>
        <time>2025-12-15T14:28:12Z</time>
      </trkpt>
      <trkpt lat="45.68381" lon="4.61134">
        <ele>502.4</ele>
        <time>2025-12-15T14:28:13Z</time>
      </trkpt>
      <trkpt lat="45.68376" lon="4.61144">
        <ele>501.4</ele>
        <time>2025-12-15T14:28:14Z</time>
      </trkpt>
      <trkpt lat="45.6837" lon="4.61154">
        <ele>500</ele>
        <time>2025-12-15T14:28:15Z</time>
      </trkpt>
      <trkpt lat="45.68364" lon="4.61163">
        <ele>498.8</ele>
        <time>2025-12-15T14:28:16Z</time>
      </trkpt>
      <trkpt lat="45.68358" lon="4.61174">
        <ele>498</ele>
        <time>2025-12-15T14:28:17Z</time>
      </trkpt>
      <trkpt lat="45.68353" lon="4.61183">
        <ele>497</ele>
        <time>2025-12-15T14:28:18Z</time>
      </trkpt>
      <trkpt lat="45.68348" lon="4.61194">
        <ele>496.2</ele>
        <time>2025-12-15T14:28:19Z</time>
      </trkpt>
      <trkpt lat="45.68345" lon="4.61207">
        <ele>495.6</ele>
        <time>2025-12-15T14:28:20Z</time>
      </trkpt>
      <trkpt lat="45.68343" lon="4.6122">
        <ele>495</ele>
        <time>2025-12-15T14:28:21Z</time>
      </trkpt>
      <trkpt lat="45.68341" lon="4.61234">
        <ele>494.4</ele>
        <time>2025-12-15T14:28:22Z</time>
      </trkpt>
      <trkpt lat="45.6834" lon="4.61247">
        <ele>493.4</ele>
        <time>2025-12-15T14:28:23Z</time>
      </trkpt>
      <trkpt lat="45.68337" lon="4.61261">
        <ele>492.4</ele>
        <time>2025-12-15T14:28:24Z</time>
      </trkpt>
      <trkpt lat="45.68334" lon="4.61275">
        <ele>491.2</ele>
        <time>2025-12-15T14:28:25Z</time>
      </trkpt>
      <trkpt lat="45.68329" lon="4.61289">
        <ele>490</ele>
        <time>2025-12-15T14:28:26Z</time>
      </trkpt>
      <trkpt lat="45.68324" lon="4.61302">
        <ele>488.8</ele>
        <time>2025-12-15T14:28:27Z</time>
      </trkpt>
      <trkpt lat="45.68318" lon="4.61313">
        <ele>487.8</ele>
        <time>2025-12-15T14:28:28Z</time>
      </trkpt>
      <trkpt lat="45.68311" lon="4.61324">
        <ele>486.8</ele>
        <time>2025-12-15T14:28:29Z</time>
      </trkpt>
      <trkpt lat="45.68305" lon="4.61334">
        <ele>486</ele>
        <time>2025-12-15T14:28:30Z</time>
      </trkpt>
      <trkpt lat="45.68298" lon="4.61344">
        <ele>485.4</ele>
        <time>2025-12-15T14:28:31Z</time>
      </trkpt>
      <trkpt lat="45.68291" lon="4.61352">
        <ele>484.8</ele>
        <time>2025-12-15T14:28:32Z</time>
      </trkpt>
      <trkpt lat="45.68284" lon="4.6136">
        <ele>484.6</ele>
        <time>2025-12-15T14:28:33Z</time>
      </trkpt>
      <trkpt lat="45.68278" lon="4.61367">
        <ele>484.6</ele>
        <time>2025-12-15T14:28:34Z</time>
      </trkpt>
      <trkpt lat="45.68271" lon="4.61375">
        <ele>484.6</ele>
        <time>2025-12-15T14:28:35Z</time>
      </trkpt>
      <trkpt lat="45.68265" lon="4.61383">
        <ele>484.8</ele>
        <time>2025-12-15T14:28:36Z</time>
      </trkpt>
      <trkpt lat="45.6826" lon="4.6139">
        <ele>485</ele>
        <time>2025-12-15T14:28:37Z</time>
      </trkpt>
      <trkpt lat="45.68254" lon="4.61397">
        <ele>485.2</ele>
        <time>2025-12-15T14:28:38Z</time>
      </trkpt>
      <trkpt lat="45.68249" lon="4.61404">
        <ele>485.2</ele>
        <time>2025-12-15T14:28:39Z</time>
      </trkpt>
      <trkpt lat="45.68243" lon="4.6141">
        <ele>485.4</ele>
        <time>2025-12-15T14:28:40Z</time>
      </trkpt>
      <trkpt lat="45.68238" lon="4.61416">
        <ele>485.6</ele>
        <time>2025-12-15T14:28:41Z</time>
      </trkpt>
      <trkpt lat="45.68233" lon="4.61423">
        <ele>485.6</ele>
        <time>2025-12-15T14:28:42Z</time>
      </trkpt>
      <trkpt lat="45.68228" lon="4.61429">
        <ele>485.6</ele>
        <time>2025-12-15T14:28:43Z</time>
      </trkpt>
      <trkpt lat="45.68223" lon="4.61434">
        <ele>485.8</ele>
        <time>2025-12-15T14:28:44Z</time>
      </trkpt>
      <trkpt lat="45.68217" lon="4.6144">
        <ele>485.6</ele>
        <time>2025-12-15T14:28:45Z</time>
      </trkpt>
      <trkpt lat="45.68211" lon="4.61445">
        <ele>485.2</ele>
        <time>2025-12-15T14:28:46Z</time>
      </trkpt>
      <trkpt lat="45.68206" lon="4.6145">
        <ele>484.8</ele>
        <time>2025-12-15T14:28:47Z</time>
      </trkpt>
      <trkpt lat="45.682" lon="4.61454">
        <ele>484.4</ele>
        <time>2025-12-15T14:28:48Z</time>
      </trkpt>
      <trkpt lat="45.68195" lon="4.61457">
        <ele>484.4</ele>
        <time>2025-12-15T14:28:49Z</time>
      </trkpt>
      <trkpt lat="45.6819" lon="4.6146">
        <ele>484.6</ele>
        <time>2025-12-15T14:28:50Z</time>
      </trkpt>
      <trkpt lat="45.68186" lon="4.61464">
        <ele>484.8</ele>
        <time>2025-12-15T14:28:51Z</time>
      </trkpt>
      <trkpt lat="45.68182" lon="4.61467">
        <ele>485.2</ele>
        <time>2025-12-15T14:28:52Z</time>
      </trkpt>
      <trkpt lat="45.68178" lon="4.6147">
        <ele>485.8</ele>
        <time>2025-12-15T14:28:53Z</time>
      </trkpt>
      <trkpt lat="45.68175" lon="4.61473">
        <ele>486.2</ele>
        <time>2025-12-15T14:28:54Z</time>
      </trkpt>
      <trkpt lat="45.68172" lon="4.61476">
        <ele>486.8</ele>
        <time>2025-12-15T14:28:55Z</time>
      </trkpt>
      <trkpt lat="45.68171" lon="4.61479">
        <ele>487.4</ele>
        <time>2025-12-15T14:28:56Z</time>
      </trkpt>
      <trkpt lat="45.68169" lon="4.61482">
        <ele>488</ele>
        <time>2025-12-15T14:28:57Z</time>
      </trkpt>
      <trkpt lat="45.68167" lon="4.61485">
        <ele>488.6</ele>
        <time>2025-12-15T14:28:58Z</time>
      </trkpt>
      <trkpt lat="45.68165" lon="4.61488">
        <ele>488.8</ele>
        <time>2025-12-15T14:28:59Z</time>
      </trkpt>
      <trkpt lat="45.68164" lon="4.6149">
        <ele>489</ele>
        <time>2025-12-15T14:29:00Z</time>
      </trkpt>
      <trkpt lat="45.68164" lon="4.61493">
        <ele>489.2</ele>
        <time>2025-12-15T14:29:01Z</time>
      </trkpt>
      <trkpt lat="45.68163" lon="4.61494">
        <ele>489.4</ele>
        <time>2025-12-15T14:29:02Z</time>
      </trkpt>
      <trkpt lat="45.68163" lon="4.61494">
        <ele>489.4</ele>
        <time>2025-12-15T14:29:03Z</time>
      </trkpt>
      <trkpt lat="45.68163" lon="4.61494">
        <ele>489.6</ele>
        <time>2025-12-15T14:29:04Z</time>
      </trkpt>
      <trkpt lat="45.68163" lon="4.61494">
        <ele>489.6</ele>
        <time>2025-12-15T14:29:05Z</time>
      </trkpt>
      <trkpt lat="45.68163" lon="4.61494">
        <ele>489.8</ele>
        <time>2025-12-15T14:29:06Z</time>
      </trkpt>
      <trkpt lat="45.68163" lon="4.61494">
        <ele>489.8</ele>
        <time>2025-12-15T14:29:07Z</time>
      </trkpt>
      <trkpt lat="45.68163" lon="4.61494">
        <ele>489.8</ele>
        <time>2025-12-15T14:29:08Z</time>
      </trkpt>
      <trkpt lat="45.68163" lon="4.61494">
        <ele>489.8</ele>
        <time>2025-12-15T14:29:09Z</time>
      </trkpt>
      <trkpt lat="45.68163" lon="4.61494">
        <ele>489.8</ele>
        <time>2025-12-15T14:29:10Z</time>
      </trkpt>
      <trkpt lat="45.68163" lon="4.61494">
        <ele>489.8</ele>
        <time>2025-12-15T14:29:11Z</time>
      </trkpt>
      <trkpt lat="45.68163" lon="4.61494">
        <ele>489.8</ele>
        <time>2025-12-15T14:29:12Z</time>
      </trkpt>
      <trkpt lat="45.68163" lon="4.61494">
        <ele>489.8</ele>
        <time>2025-12-15T14:29:13Z</time>
      </trkpt>
      <trkpt lat="45.68163" lon="4.61494">
        <ele>489.8</ele>
        <time>2025-12-15T14:29:14Z</time>
      </trkpt>
      <trkpt lat="45.68163" lon="4.61494">
        <ele>489.8</ele>
        <time>2025-12-15T14:29:15Z</time>
      </trkpt>
      <trkpt lat="45.68163" lon="4.61494">
        <ele>489.8</ele>
        <time>2025-12-15T14:29:16Z</time>
      </trkpt>
      <trkpt lat="45.68163" lon="4.61494">
        <ele>489.8</ele>
        <time>2025-12-15T14:29:17Z</time>
      </trkpt>
      <trkpt lat="45.68163" lon="4.61494">
        <ele>490</ele>
        <time>2025-12-15T14:29:18Z</time>
      </trkpt>
      <trkpt lat="45.68163" lon="4.61494">
        <ele>490</ele>
        <time>2025-12-15T14:29:19Z</time>
      </trkpt>
      <trkpt lat="45.68163" lon="4.61494">
        <ele>490</ele>
        <time>2025-12-15T14:29:20Z</time>
      </trkpt>
      <trkpt lat="45.68163" lon="4.61494">
        <ele>490</ele>
        <time>2025-12-15T14:29:21Z</time>
      </trkpt>
      <trkpt lat="45.68163" lon="4.61494">
        <ele>489.8</ele>
        <time>2025-12-15T14:29:22Z</time>
      </trkpt>
      <trkpt lat="45.68163" lon="4.61494">
        <ele>489.8</ele>
        <time>2025-12-15T14:29:23Z</time>
      </trkpt>
      <trkpt lat="45.68163" lon="4.61494">
        <ele>489.8</ele>
        <time>2025-12-15T14:29:24Z</time>
      </trkpt>
      <trkpt lat="45.68163" lon="4.61494">
        <ele>489.8</ele>
        <time>2025-12-15T14:29:25Z</time>
      </trkpt>
      <trkpt lat="45.68163" lon="4.61494">
        <ele>489.8</ele>
        <time>2025-12-15T14:29:26Z</time>
      </trkpt>
      <trkpt lat="45.68163" lon="4.61494">
        <ele>489.8</ele>
        <time>2025-12-15T14:29:27Z</time>
      </trkpt>
      <trkpt lat="45.68163" lon="4.61494">
        <ele>489.8</ele>
        <time>2025-12-15T14:29:28Z</time>
      </trkpt>
      <trkpt lat="45.68163" lon="4.61494">
        <ele>489.8</ele>
        <time>2025-12-15T14:29:29Z</time>
      </trkpt>
      <trkpt lat="45.68163" lon="4.61494">
        <ele>489.8</ele>
        <time>2025-12-15T14:29:30Z</time>
      </trkpt>
      <trkpt lat="45.68163" lon="4.61494">
        <ele>489.8</ele>
        <time>2025-12-15T14:29:31Z</time>
      </trkpt>
      <trkpt lat="45.68163" lon="4.61494">
        <ele>489.8</ele>
        <time>2025-12-15T14:29:32Z</time>
      </trkpt>
      <trkpt lat="45.68163" lon="4.61494">
        <ele>489.8</ele>
        <time>2025-12-15T14:29:33Z</time>
      </trkpt>
      <trkpt lat="45.68163" lon="4.61494">
        <ele>489.8</ele>
        <time>2025-12-15T14:29:34Z</time>
      </trkpt>
      <trkpt lat="45.68163" lon="4.61494">
        <ele>489.8</ele>
        <time>2025-12-15T14:29:35Z</time>
      </trkpt>
      <trkpt lat="45.68163" lon="4.61494">
        <ele>489.8</ele>
        <time>2025-12-15T14:29:36Z</time>
      </trkpt>
      <trkpt lat="45.68163" lon="4.61494">
        <ele>489.8</ele>
        <time>2025-12-15T14:29:37Z</time>
      </trkpt>
      <trkpt lat="45.68163" lon="4.61494">
        <ele>489.8</ele>
        <time>2025-12-15T14:29:38Z</time>
      </trkpt>
      <trkpt lat="45.68163" lon="4.61494">
        <ele>489.8</ele>
        <time>2025-12-15T14:29:39Z</time>
      </trkpt>
      <trkpt lat="45.68163" lon="4.61494">
        <ele>489.8</ele>
        <time>2025-12-15T14:29:40Z</time>
      </trkpt>
      <trkpt lat="45.68163" lon="4.61494">
        <ele>489.8</ele>
        <time>2025-12-15T14:29:41Z</time>
      </trkpt>
      <trkpt lat="45.68163" lon="4.61494">
        <ele>489.6</ele>
        <time>2025-12-15T14:29:42Z</time>
      </trkpt>
      <trkpt lat="45.68163" lon="4.61494">
        <ele>489.6</ele>
        <time>2025-12-15T14:29:43Z</time>
      </trkpt>
      <trkpt lat="45.68163" lon="4.61494">
        <ele>489.6</ele>
        <time>2025-12-15T14:29:44Z</time>
      </trkpt>
      <trkpt lat="45.68163" lon="4.61494">
        <ele>489.6</ele>
        <time>2025-12-15T14:29:45Z</time>
      </trkpt>
      <trkpt lat="45.68163" lon="4.61494">
        <ele>489.6</ele>
        <time>2025-12-15T14:29:46Z</time>
      </trkpt>
      <trkpt lat="45.68163" lon="4.61494">
        <ele>489.6</ele>
        <time>2025-12-15T14:29:47Z</time>
      </trkpt>
      <trkpt lat="45.68163" lon="4.61494">
        <ele>489.6</ele>
        <time>2025-12-15T14:29:48Z</time>
      </trkpt>
      <trkpt lat="45.68163" lon="4.61494">
        <ele>489.6</ele>
        <time>2025-12-15T14:29:49Z</time>
      </trkpt>
      <trkpt lat="45.68163" lon="4.61494">
        <ele>489.6</ele>
        <time>2025-12-15T14:29:50Z</time>
      </trkpt>
      <trkpt lat="45.68163" lon="4.61494">
        <ele>489.4</ele>
        <time>2025-12-15T14:29:51Z</time>
      </trkpt>
      <trkpt lat="45.68162" lon="4.61494">
        <ele>489.4</ele>
        <time>2025-12-15T14:29:52Z</time>
      </trkpt>
      <trkpt lat="45.68161" lon="4.61494">
        <ele>489.4</ele>
        <time>2025-12-15T14:29:53Z</time>
      </trkpt>
      <trkpt lat="45.6816" lon="4.61493">
        <ele>489.2</ele>
        <time>2025-12-15T14:29:54Z</time>
      </trkpt>
      <trkpt lat="45.6816" lon="4.61494">
        <ele>489</ele>
        <time>2025-12-15T14:29:55Z</time>
      </trkpt>
      <trkpt lat="45.6816" lon="4.61494">
        <ele>489</ele>
        <time>2025-12-15T14:29:56Z</time>
      </trkpt>
      <trkpt lat="45.6816" lon="4.61494">
        <ele>489</ele>
        <time>2025-12-15T14:29:57Z</time>
      </trkpt>
      <trkpt lat="45.6816" lon="4.61494">
        <ele>489</ele>
        <time>2025-12-15T14:29:58Z</time>
      </trkpt>
      <trkpt lat="45.6816" lon="4.61494">
        <ele>489</ele>
        <time>2025-12-15T14:29:59Z</time>
      </trkpt>
      <trkpt lat="45.6816" lon="4.61494">
        <ele>489</ele>
        <time>2025-12-15T14:30:00Z</time>
      </trkpt>
      <trkpt lat="45.6816" lon="4.61494">
        <ele>489</ele>
        <time>2025-12-15T14:30:01Z</time>
      </trkpt>
      <trkpt lat="45.6816" lon="4.61494">
        <ele>489</ele>
        <time>2025-12-15T14:30:02Z</time>
      </trkpt>
      <trkpt lat="45.6816" lon="4.61494">
        <ele>489</ele>
        <time>2025-12-15T14:30:03Z</time>
      </trkpt>
      <trkpt lat="45.6816" lon="4.61494">
        <ele>489</ele>
        <time>2025-12-15T14:30:04Z</time>
      </trkpt>
      <trkpt lat="45.6816" lon="4.61494">
        <ele>489</ele>
        <time>2025-12-15T14:30:05Z</time>
      </trkpt>
      <trkpt lat="45.6816" lon="4.61494">
        <ele>489</ele>
        <time>2025-12-15T14:30:06Z</time>
      </trkpt>
      <trkpt lat="45.6816" lon="4.61494">
        <ele>488.8</ele>
        <time>2025-12-15T14:30:07Z</time>
      </trkpt>
      <trkpt lat="45.6816" lon="4.61494">
        <ele>488.8</ele>
        <time>2025-12-15T14:30:08Z</time>
      </trkpt>
      <trkpt lat="45.6816" lon="4.61494">
        <ele>489</ele>
        <time>2025-12-15T14:30:09Z</time>
      </trkpt>
      <trkpt lat="45.6816" lon="4.61494">
        <ele>489</ele>
        <time>2025-12-15T14:30:10Z</time>
      </trkpt>
      <trkpt lat="45.6816" lon="4.61494">
        <ele>489</ele>
        <time>2025-12-15T14:30:11Z</time>
      </trkpt>
      <trkpt lat="45.6816" lon="4.61494">
        <ele>489</ele>
        <time>2025-12-15T14:30:12Z</time>
      </trkpt>
      <trkpt lat="45.6816" lon="4.61494">
        <ele>489</ele>
        <time>2025-12-15T14:30:13Z</time>
      </trkpt>
      <trkpt lat="45.6816" lon="4.61494">
        <ele>489</ele>
        <time>2025-12-15T14:30:14Z</time>
      </trkpt>
      <trkpt lat="45.6816" lon="4.61494">
        <ele>489</ele>
        <time>2025-12-15T14:30:15Z</time>
      </trkpt>
      <trkpt lat="45.6816" lon="4.61494">
        <ele>489</ele>
        <time>2025-12-15T14:30:16Z</time>
      </trkpt>
      <trkpt lat="45.6816" lon="4.61494">
        <ele>489.2</ele>
        <time>2025-12-15T14:30:17Z</time>
      </trkpt>
      <trkpt lat="45.6816" lon="4.61494">
        <ele>489.2</ele>
        <time>2025-12-15T14:30:18Z</time>
      </trkpt>
      <trkpt lat="45.6816" lon="4.61494">
        <ele>489.2</ele>
        <time>2025-12-15T14:30:19Z</time>
      </trkpt>
      <trkpt lat="45.6816" lon="4.61494">
        <ele>489.2</ele>
        <time>2025-12-15T14:30:20Z</time>
      </trkpt>
      <trkpt lat="45.6816" lon="4.61494">
        <ele>489.4</ele>
        <time>2025-12-15T14:30:21Z</time>
      </trkpt>
      <trkpt lat="45.6816" lon="4.61494">
        <ele>489.4</ele>
        <time>2025-12-15T14:30:22Z</time>
      </trkpt>
      <trkpt lat="45.6816" lon="4.61494">
        <ele>489.4</ele>
        <time>2025-12-15T14:30:23Z</time>
      </trkpt>
      <trkpt lat="45.6816" lon="4.61494">
        <ele>489.2</ele>
        <time>2025-12-15T14:30:24Z</time>
      </trkpt>
      <trkpt lat="45.6816" lon="4.61494">
        <ele>489.2</ele>
        <time>2025-12-15T14:30:25Z</time>
      </trkpt>
      <trkpt lat="45.6816" lon="4.61494">
        <ele>489.2</ele>
        <time>2025-12-15T14:30:26Z</time>
      </trkpt>
      <trkpt lat="45.6816" lon="4.61494">
        <ele>489.2</ele>
        <time>2025-12-15T14:30:27Z</time>
      </trkpt>
      <trkpt lat="45.6816" lon="4.61494">
        <ele>489.2</ele>
        <time>2025-12-15T14:30:28Z</time>
      </trkpt>
      <trkpt lat="45.6816" lon="4.61494">
        <ele>489.2</ele>
        <time>2025-12-15T14:30:29Z</time>
      </trkpt>
      <trkpt lat="45.68159" lon="4.61494">
        <ele>489.2</ele>
        <time>2025-12-15T14:30:30Z</time>
      </trkpt>
      <trkpt lat="45.68159" lon="4.61495">
        <ele>489.2</ele>
        <time>2025-12-15T14:30:31Z</time>
      </trkpt>
      <trkpt lat="45.68158" lon="4.61497">
        <ele>489.2</ele>
        <time>2025-12-15T14:30:32Z</time>
      </trkpt>
      <trkpt lat="45.68158" lon="4.61501">
        <ele>489</ele>
        <time>2025-12-15T14:30:33Z</time>
      </trkpt>
      <trkpt lat="45.68159" lon="4.61505">
        <ele>489</ele>
        <time>2025-12-15T14:30:34Z</time>
      </trkpt>
      <trkpt lat="45.6816" lon="4.61509">
        <ele>489</ele>
        <time>2025-12-15T14:30:35Z</time>
      </trkpt>
      <trkpt lat="45.6816" lon="4.61513">
        <ele>488.8</ele>
        <time>2025-12-15T14:30:36Z</time>
      </trkpt>
      <trkpt lat="45.68159" lon="4.61516">
        <ele>489</ele>
        <time>2025-12-15T14:30:37Z</time>
      </trkpt>
      <trkpt lat="45.68157" lon="4.6152">
        <ele>489</ele>
        <time>2025-12-15T14:30:38Z</time>
      </trkpt>
      <trkpt lat="45.68155" lon="4.61525">
        <ele>488.8</ele>
        <time>2025-12-15T14:30:39Z</time>
      </trkpt>
      <trkpt lat="45.68153" lon="4.6153">
        <ele>488.8</ele>
        <time>2025-12-15T14:30:40Z</time>
      </trkpt>
      <trkpt lat="45.68151" lon="4.61536">
        <ele>488.6</ele>
        <time>2025-12-15T14:30:41Z</time>
      </trkpt>
      <trkpt lat="45.68148" lon="4.61542">
        <ele>488.4</ele>
        <time>2025-12-15T14:30:42Z</time>
      </trkpt>
      <trkpt lat="45.68146" lon="4.61547">
        <ele>488.2</ele>
        <time>2025-12-15T14:30:43Z</time>
      </trkpt>
      <trkpt lat="45.68144" lon="4.61553">
        <ele>488.2</ele>
        <time>2025-12-15T14:30:44Z</time>
      </trkpt>
      <trkpt lat="45.68142" lon="4.61559">
        <ele>488.2</ele>
        <time>2025-12-15T14:30:45Z</time>
      </trkpt>
      <trkpt lat="45.6814" lon="4.61564">
        <ele>488.2</ele>
        <time>2025-12-15T14:30:46Z</time>
      </trkpt>
      <trkpt lat="45.68138" lon="4.6157">
        <ele>488.2</ele>
        <time>2025-12-15T14:30:47Z</time>
      </trkpt>
      <trkpt lat="45.68136" lon="4.61577">
        <ele>488.4</ele>
        <time>2025-12-15T14:30:48Z</time>
      </trkpt>
      <trkpt lat="45.68133" lon="4.61583">
        <ele>488.2</ele>
        <time>2025-12-15T14:30:49Z</time>
      </trkpt>
      <trkpt lat="45.68131" lon="4.6159">
        <ele>488.2</ele>
        <time>2025-12-15T14:30:50Z</time>
      </trkpt>
      <trkpt lat="45.68129" lon="4.61596">
        <ele>488.2</ele>
        <time>2025-12-15T14:30:51Z</time>
      </trkpt>
      <trkpt lat="45.68127" lon="4.61603">
        <ele>488.2</ele>
        <time>2025-12-15T14:30:52Z</time>
      </trkpt>
      <trkpt lat="45.68125" lon="4.61609">
        <ele>488.2</ele>
        <time>2025-12-15T14:30:53Z</time>
      </trkpt>
      <trkpt lat="45.68122" lon="4.61616">
        <ele>488</ele>
        <time>2025-12-15T14:30:54Z</time>
      </trkpt>
      <trkpt lat="45.6812" lon="4.61623">
        <ele>488</ele>
        <time>2025-12-15T14:30:55Z</time>
      </trkpt>
      <trkpt lat="45.68118" lon="4.6163">
        <ele>488</ele>
        <time>2025-12-15T14:30:56Z</time>
      </trkpt>
      <trkpt lat="45.68115" lon="4.61637">
        <ele>487.8</ele>
        <time>2025-12-15T14:30:57Z</time>
      </trkpt>
      <trkpt lat="45.68113" lon="4.61644">
        <ele>487.8</ele>
        <time>2025-12-15T14:30:58Z</time>
      </trkpt>
      <trkpt lat="45.68111" lon="4.6165">
        <ele>487.8</ele>
        <time>2025-12-15T14:30:59Z</time>
      </trkpt>
      <trkpt lat="45.68108" lon="4.61657">
        <ele>487.8</ele>
        <time>2025-12-15T14:31:00Z</time>
      </trkpt>
      <trkpt lat="45.68106" lon="4.61663">
        <ele>487.8</ele>
        <time>2025-12-15T14:31:01Z</time>
      </trkpt>
      <trkpt lat="45.68104" lon="4.61669">
        <ele>488</ele>
        <time>2025-12-15T14:31:02Z</time>
      </trkpt>
      <trkpt lat="45.68102" lon="4.61675">
        <ele>488.4</ele>
        <time>2025-12-15T14:31:03Z</time>
      </trkpt>
      <trkpt lat="45.681" lon="4.61681">
        <ele>488.6</ele>
        <time>2025-12-15T14:31:04Z</time>
      </trkpt>
      <trkpt lat="45.68099" lon="4.61687">
        <ele>488.8</ele>
        <time>2025-12-15T14:31:05Z</time>
      </trkpt>
      <trkpt lat="45.68097" lon="4.61693">
        <ele>488.8</ele>
        <time>2025-12-15T14:31:06Z</time>
      </trkpt>
      <trkpt lat="45.68095" lon="4.617">
        <ele>488.8</ele>
        <time>2025-12-15T14:31:07Z</time>
      </trkpt>
      <trkpt lat="45.68093" lon="4.61707">
        <ele>488.8</ele>
        <time>2025-12-15T14:31:08Z</time>
      </trkpt>
      <trkpt lat="45.68091" lon="4.61714">
        <ele>488.6</ele>
        <time>2025-12-15T14:31:09Z</time>
      </trkpt>
      <trkpt lat="45.6809" lon="4.61721">
        <ele>488.4</ele>
        <time>2025-12-15T14:31:10Z</time>
      </trkpt>
      <trkpt lat="45.68088" lon="4.61728">
        <ele>488.2</ele>
        <time>2025-12-15T14:31:11Z</time>
      </trkpt>
      <trkpt lat="45.68087" lon="4.61734">
        <ele>487.8</ele>
        <time>2025-12-15T14:31:12Z</time>
      </trkpt>
      <trkpt lat="45.68086" lon="4.61739">
        <ele>487.6</ele>
        <time>2025-12-15T14:31:13Z</time>
      </trkpt>
      <trkpt lat="45.68086" lon="4.61744">
        <ele>487.6</ele>
        <time>2025-12-15T14:31:14Z</time>
      </trkpt>
      <trkpt lat="45.68087" lon="4.61748">
        <ele>487.6</ele>
        <time>2025-12-15T14:31:15Z</time>
      </trkpt>
      <trkpt lat="45.68088" lon="4.61751">
        <ele>487.6</ele>
        <time>2025-12-15T14:31:16Z</time>
      </trkpt>
      <trkpt lat="45.68089" lon="4.61755">
        <ele>487.4</ele>
        <time>2025-12-15T14:31:17Z</time>
      </trkpt>
      <trkpt lat="45.6809" lon="4.61759">
        <ele>487.4</ele>
        <time>2025-12-15T14:31:18Z</time>
      </trkpt>
      <trkpt lat="45.68092" lon="4.61763">
        <ele>487.2</ele>
        <time>2025-12-15T14:31:19Z</time>
      </trkpt>
      <trkpt lat="45.68094" lon="4.61767">
        <ele>486.8</ele>
        <time>2025-12-15T14:31:20Z</time>
      </trkpt>
      <trkpt lat="45.68097" lon="4.6177">
        <ele>486.4</ele>
        <time>2025-12-15T14:31:21Z</time>
      </trkpt>
      <trkpt lat="45.68099" lon="4.61772">
        <ele>486</ele>
        <time>2025-12-15T14:31:22Z</time>
      </trkpt>
      <trkpt lat="45.68102" lon="4.61774">
        <ele>485.4</ele>
        <time>2025-12-15T14:31:23Z</time>
      </trkpt>
      <trkpt lat="45.68106" lon="4.61776">
        <ele>484.6</ele>
        <time>2025-12-15T14:31:24Z</time>
      </trkpt>
      <trkpt lat="45.6811" lon="4.61777">
        <ele>483.8</ele>
        <time>2025-12-15T14:31:25Z</time>
      </trkpt>
      <trkpt lat="45.68114" lon="4.61779">
        <ele>482.8</ele>
        <time>2025-12-15T14:31:26Z</time>
      </trkpt>
      <trkpt lat="45.68118" lon="4.6178">
        <ele>481.8</ele>
        <time>2025-12-15T14:31:27Z</time>
      </trkpt>
      <trkpt lat="45.68123" lon="4.61781">
        <ele>480.4</ele>
        <time>2025-12-15T14:31:28Z</time>
      </trkpt>
      <trkpt lat="45.68128" lon="4.61783">
        <ele>479</ele>
        <time>2025-12-15T14:31:29Z</time>
      </trkpt>
      <trkpt lat="45.68135" lon="4.61784">
        <ele>477.6</ele>
        <time>2025-12-15T14:31:30Z</time>
      </trkpt>
      <trkpt lat="45.68142" lon="4.61784">
        <ele>476.2</ele>
        <time>2025-12-15T14:31:31Z</time>
      </trkpt>
      <trkpt lat="45.68148" lon="4.61785">
        <ele>474.8</ele>
        <time>2025-12-15T14:31:32Z</time>
      </trkpt>
      <trkpt lat="45.68154" lon="4.61786">
        <ele>473.8</ele>
        <time>2025-12-15T14:31:33Z</time>
      </trkpt>
      <trkpt lat="45.68159" lon="4.61787">
        <ele>473</ele>
        <time>2025-12-15T14:31:34Z</time>
      </trkpt>
      <trkpt lat="45.68164" lon="4.61788">
        <ele>472.2</ele>
        <time>2025-12-15T14:31:35Z</time>
      </trkpt>
      <trkpt lat="45.68168" lon="4.6179">
        <ele>471.8</ele>
        <time>2025-12-15T14:31:36Z</time>
      </trkpt>
      <trkpt lat="45.68171" lon="4.61792">
        <ele>471.2</ele>
        <time>2025-12-15T14:31:37Z</time>
      </trkpt>
      <trkpt lat="45.68173" lon="4.61795">
        <ele>470.6</ele>
        <time>2025-12-15T14:31:38Z</time>
      </trkpt>
      <trkpt lat="45.68175" lon="4.61799">
        <ele>469.6</ele>
        <time>2025-12-15T14:31:39Z</time>
      </trkpt>
      <trkpt lat="45.68178" lon="4.61804">
        <ele>468.6</ele>
        <time>2025-12-15T14:31:40Z</time>
      </trkpt>
      <trkpt lat="45.68182" lon="4.61809">
        <ele>467.4</ele>
        <time>2025-12-15T14:31:41Z</time>
      </trkpt>
      <trkpt lat="45.68185" lon="4.61814">
        <ele>466</ele>
        <time>2025-12-15T14:31:42Z</time>
      </trkpt>
      <trkpt lat="45.68189" lon="4.6182">
        <ele>464.6</ele>
        <time>2025-12-15T14:31:43Z</time>
      </trkpt>
      <trkpt lat="45.68192" lon="4.61825">
        <ele>463.2</ele>
        <time>2025-12-15T14:31:44Z</time>
      </trkpt>
      <trkpt lat="45.68195" lon="4.61828">
        <ele>462</ele>
        <time>2025-12-15T14:31:45Z</time>
      </trkpt>
      <trkpt lat="45.68197" lon="4.61832">
        <ele>460.8</ele>
        <time>2025-12-15T14:31:46Z</time>
      </trkpt>
      <trkpt lat="45.682" lon="4.61835">
        <ele>459.6</ele>
        <time>2025-12-15T14:31:47Z</time>
      </trkpt>
      <trkpt lat="45.68202" lon="4.61838">
        <ele>458.6</ele>
        <time>2025-12-15T14:31:48Z</time>
      </trkpt>
      <trkpt lat="45.68206" lon="4.6184">
        <ele>457.6</ele>
        <time>2025-12-15T14:31:49Z</time>
      </trkpt>
      <trkpt lat="45.68209" lon="4.61842">
        <ele>456.6</ele>
        <time>2025-12-15T14:31:50Z</time>
      </trkpt>
      <trkpt lat="45.68212" lon="4.61845">
        <ele>455.6</ele>
        <time>2025-12-15T14:31:51Z</time>
      </trkpt>
      <trkpt lat="45.68214" lon="4.61848">
        <ele>454.4</ele>
        <time>2025-12-15T14:31:52Z</time>
      </trkpt>
      <trkpt lat="45.68215" lon="4.61851">
        <ele>453.6</ele>
        <time>2025-12-15T14:31:53Z</time>
      </trkpt>
      <trkpt lat="45.68216" lon="4.61854">
        <ele>452.6</ele>
        <time>2025-12-15T14:31:54Z</time>
      </trkpt>
      <trkpt lat="45.68216" lon="4.61856">
        <ele>451.8</ele>
        <time>2025-12-15T14:31:55Z</time>
      </trkpt>
      <trkpt lat="45.68215" lon="4.61859">
        <ele>451.2</ele>
        <time>2025-12-15T14:31:56Z</time>
      </trkpt>
      <trkpt lat="45.68214" lon="4.61863">
        <ele>450.2</ele>
        <time>2025-12-15T14:31:57Z</time>
      </trkpt>
      <trkpt lat="45.68213" lon="4.61867">
        <ele>449.2</ele>
        <time>2025-12-15T14:31:58Z</time>
      </trkpt>
      <trkpt lat="45.6821" lon="4.61871">
        <ele>448.2</ele>
        <time>2025-12-15T14:31:59Z</time>
      </trkpt>
      <trkpt lat="45.68208" lon="4.61874">
        <ele>447.2</ele>
        <time>2025-12-15T14:32:00Z</time>
      </trkpt>
      <trkpt lat="45.68205" lon="4.61876">
        <ele>446.4</ele>
        <time>2025-12-15T14:32:01Z</time>
      </trkpt>
      <trkpt lat="45.68202" lon="4.61878">
        <ele>445.6</ele>
        <time>2025-12-15T14:32:02Z</time>
      </trkpt>
      <trkpt lat="45.68201" lon="4.61881">
        <ele>444.8</ele>
        <time>2025-12-15T14:32:03Z</time>
      </trkpt>
      <trkpt lat="45.682" lon="4.61886">
        <ele>444.2</ele>
        <time>2025-12-15T14:32:04Z</time>
      </trkpt>
      <trkpt lat="45.682" lon="4.61891">
        <ele>443.4</ele>
        <time>2025-12-15T14:32:05Z</time>
      </trkpt>
      <trkpt lat="45.68202" lon="4.61895">
        <ele>442.8</ele>
        <time>2025-12-15T14:32:06Z</time>
      </trkpt>
      <trkpt lat="45.68205" lon="4.61898">
        <ele>442.2</ele>
        <time>2025-12-15T14:32:07Z</time>
      </trkpt>
      <trkpt lat="45.68207" lon="4.61902">
        <ele>441.4</ele>
        <time>2025-12-15T14:32:08Z</time>
      </trkpt>
      <trkpt lat="45.6821" lon="4.61906">
        <ele>440.6</ele>
        <time>2025-12-15T14:32:09Z</time>
      </trkpt>
      <trkpt lat="45.68212" lon="4.61909">
        <ele>440</ele>
        <time>2025-12-15T14:32:10Z</time>
      </trkpt>
      <trkpt lat="45.68215" lon="4.61911">
        <ele>439.2</ele>
        <time>2025-12-15T14:32:11Z</time>
      </trkpt>
      <trkpt lat="45.68217" lon="4.61914">
        <ele>438.6</ele>
        <time>2025-12-15T14:32:12Z</time>
      </trkpt>
      <trkpt lat="45.68218" lon="4.61916">
        <ele>437.8</ele>
        <time>2025-12-15T14:32:13Z</time>
      </trkpt>
      <trkpt lat="45.68219" lon="4.61918">
        <ele>437.2</ele>
        <time>2025-12-15T14:32:14Z</time>
      </trkpt>
      <trkpt lat="45.68221" lon="4.61921">
        <ele>436.6</ele>
        <time>2025-12-15T14:32:15Z</time>
      </trkpt>
      <trkpt lat="45.68222" lon="4.61924">
        <ele>436</ele>
        <time>2025-12-15T14:32:16Z</time>
      </trkpt>
      <trkpt lat="45.68224" lon="4.61927">
        <ele>435.4</ele>
        <time>2025-12-15T14:32:17Z</time>
      </trkpt>
      <trkpt lat="45.68225" lon="4.61931">
        <ele>434.8</ele>
        <time>2025-12-15T14:32:18Z</time>
      </trkpt>
      <trkpt lat="45.68226" lon="4.61935">
        <ele>434.2</ele>
        <time>2025-12-15T14:32:19Z</time>
      </trkpt>
      <trkpt lat="45.68228" lon="4.61939">
        <ele>433.6</ele>
        <time>2025-12-15T14:32:20Z</time>
      </trkpt>
      <trkpt lat="45.68229" lon="4.61941">
        <ele>433.2</ele>
        <time>2025-12-15T14:32:21Z</time>
      </trkpt>
      <trkpt lat="45.68231" lon="4.61944">
        <ele>432.6</ele>
        <time>2025-12-15T14:32:22Z</time>
      </trkpt>
      <trkpt lat="45.68233" lon="4.61947">
        <ele>432</ele>
        <time>2025-12-15T14:32:23Z</time>
      </trkpt>
      <trkpt lat="45.68234" lon="4.61951">
        <ele>431.6</ele>
        <time>2025-12-15T14:32:24Z</time>
      </trkpt>
      <trkpt lat="45.68236" lon="4.61955">
        <ele>431</ele>
        <time>2025-12-15T14:32:25Z</time>
      </trkpt>
      <trkpt lat="45.68238" lon="4.61958">
        <ele>430.4</ele>
        <time>2025-12-15T14:32:26Z</time>
      </trkpt>
      <trkpt lat="45.68239" lon="4.6196">
        <ele>429.8</ele>
        <time>2025-12-15T14:32:27Z</time>
      </trkpt>
      <trkpt lat="45.6824" lon="4.61961">
        <ele>429.2</ele>
        <time>2025-12-15T14:32:28Z</time>
      </trkpt>
      <trkpt lat="45.68241" lon="4.61963">
        <ele>428.6</ele>
        <time>2025-12-15T14:32:29Z</time>
      </trkpt>
      <trkpt lat="45.68242" lon="4.61965">
        <ele>428.2</ele>
        <time>2025-12-15T14:32:30Z</time>
      </trkpt>
      <trkpt lat="45.68242" lon="4.61967">
        <ele>428</ele>
        <time>2025-12-15T14:32:31Z</time>
      </trkpt>
      <trkpt lat="45.68244" lon="4.61969">
        <ele>427.6</ele>
        <time>2025-12-15T14:32:32Z</time>
      </trkpt>
      <trkpt lat="45.68246" lon="4.61971">
        <ele>427.4</ele>
        <time>2025-12-15T14:32:33Z</time>
      </trkpt>
      <trkpt lat="45.68248" lon="4.61973">
        <ele>427</ele>
        <time>2025-12-15T14:32:34Z</time>
      </trkpt>
      <trkpt lat="45.68251" lon="4.61976">
        <ele>426.6</ele>
        <time>2025-12-15T14:32:35Z</time>
      </trkpt>
      <trkpt lat="45.68252" lon="4.61978">
        <ele>426.2</ele>
        <time>2025-12-15T14:32:36Z</time>
      </trkpt>
      <trkpt lat="45.68253" lon="4.6198">
        <ele>425.8</ele>
        <time>2025-12-15T14:32:37Z</time>
      </trkpt>
      <trkpt lat="45.68253" lon="4.6198">
        <ele>425.6</ele>
        <time>2025-12-15T14:32:38Z</time>
      </trkpt>
      <trkpt lat="45.68255" lon="4.61981">
        <ele>425.4</ele>
        <time>2025-12-15T14:32:39Z</time>
      </trkpt>
      <trkpt lat="45.68255" lon="4.61983">
        <ele>425</ele>
        <time>2025-12-15T14:32:40Z</time>
      </trkpt>
      <trkpt lat="45.68257" lon="4.61986">
        <ele>424.6</ele>
        <time>2025-12-15T14:32:41Z</time>
      </trkpt>
      <trkpt lat="45.68261" lon="4.61989">
        <ele>424</ele>
        <time>2025-12-15T14:32:42Z</time>
      </trkpt>
      <trkpt lat="45.68264" lon="4.61991">
        <ele>423.2</ele>
        <time>2025-12-15T14:32:43Z</time>
      </trkpt>
      <trkpt lat="45.68266" lon="4.61993">
        <ele>422.4</ele>
        <time>2025-12-15T14:32:44Z</time>
      </trkpt>
      <trkpt lat="45.68267" lon="4.61993">
        <ele>421.8</ele>
        <time>2025-12-15T14:32:45Z</time>
      </trkpt>
      <trkpt lat="45.68267" lon="4.61993">
        <ele>421.4</ele>
        <time>2025-12-15T14:32:46Z</time>
      </trkpt>
      <trkpt lat="45.68267" lon="4.61993">
        <ele>421.4</ele>
        <time>2025-12-15T14:32:47Z</time>
      </trkpt>
      <trkpt lat="45.68267" lon="4.61993">
        <ele>421.4</ele>
        <time>2025-12-15T14:32:48Z</time>
      </trkpt>
      <trkpt lat="45.68267" lon="4.61993">
        <ele>421.6</ele>
        <time>2025-12-15T14:32:49Z</time>
      </trkpt>
      <trkpt lat="45.68267" lon="4.61993">
        <ele>421.6</ele>
        <time>2025-12-15T14:32:50Z</time>
      </trkpt>
      <trkpt lat="45.68267" lon="4.61993">
        <ele>421.6</ele>
        <time>2025-12-15T14:32:51Z</time>
      </trkpt>
      <trkpt lat="45.68267" lon="4.61993">
        <ele>421.6</ele>
        <time>2025-12-15T14:32:52Z</time>
      </trkpt>
      <trkpt lat="45.68267" lon="4.61993">
        <ele>421.8</ele>
        <time>2025-12-15T14:32:53Z</time>
      </trkpt>
      <trkpt lat="45.68267" lon="4.61993">
        <ele>421.8</ele>
        <time>2025-12-15T14:32:54Z</time>
      </trkpt>
      <trkpt lat="45.68267" lon="4.61993">
        <ele>421.8</ele>
        <time>2025-12-15T14:32:55Z</time>
      </trkpt>
      <trkpt lat="45.68267" lon="4.61993">
        <ele>421.8</ele>
        <time>2025-12-15T14:32:56Z</time>
      </trkpt>
      <trkpt lat="45.68267" lon="4.61993">
        <ele>421.8</ele>
        <time>2025-12-15T14:32:57Z</time>
      </trkpt>
      <trkpt lat="45.68267" lon="4.61993">
        <ele>421.8</ele>
        <time>2025-12-15T14:32:58Z</time>
      </trkpt>
      <trkpt lat="45.68267" lon="4.61993">
        <ele>421.8</ele>
        <time>2025-12-15T14:32:59Z</time>
      </trkpt>
      <trkpt lat="45.68267" lon="4.61993">
        <ele>422</ele>
        <time>2025-12-15T14:33:00Z</time>
      </trkpt>
      <trkpt lat="45.68267" lon="4.61993">
        <ele>422</ele>
        <time>2025-12-15T14:33:01Z</time>
      </trkpt>
      <trkpt lat="45.68267" lon="4.61993">
        <ele>422</ele>
        <time>2025-12-15T14:33:02Z</time>
      </trkpt>
      <trkpt lat="45.68267" lon="4.61993">
        <ele>422</ele>
        <time>2025-12-15T14:33:03Z</time>
      </trkpt>
      <trkpt lat="45.68267" lon="4.61993">
        <ele>422</ele>
        <time>2025-12-15T14:33:04Z</time>
      </trkpt>
      <trkpt lat="45.68267" lon="4.61993">
        <ele>422</ele>
        <time>2025-12-15T14:33:05Z</time>
      </trkpt>
      <trkpt lat="45.68267" lon="4.61993">
        <ele>422</ele>
        <time>2025-12-15T14:33:06Z</time>
      </trkpt>
      <trkpt lat="45.68267" lon="4.61993">
        <ele>422</ele>
        <time>2025-12-15T14:33:07Z</time>
      </trkpt>
      <trkpt lat="45.68267" lon="4.61993">
        <ele>422.2</ele>
        <time>2025-12-15T14:33:08Z</time>
      </trkpt>
      <trkpt lat="45.68267" lon="4.61993">
        <ele>422.2</ele>
        <time>2025-12-15T14:33:09Z</time>
      </trkpt>
      <trkpt lat="45.68267" lon="4.61993">
        <ele>422.2</ele>
        <time>2025-12-15T14:33:10Z</time>
      </trkpt>
      <trkpt lat="45.68267" lon="4.61993">
        <ele>422.2</ele>
        <time>2025-12-15T14:33:11Z</time>
      </trkpt>
      <trkpt lat="45.68267" lon="4.61993">
        <ele>422.2</ele>
        <time>2025-12-15T14:33:12Z</time>
      </trkpt>
      <trkpt lat="45.68267" lon="4.61993">
        <ele>422.2</ele>
        <time>2025-12-15T14:33:13Z</time>
      </trkpt>
      <trkpt lat="45.68267" lon="4.61993">
        <ele>422.2</ele>
        <time>2025-12-15T14:33:14Z</time>
      </trkpt>
      <trkpt lat="45.68267" lon="4.61993">
        <ele>422.2</ele>
        <time>2025-12-15T14:33:15Z</time>
      </trkpt>
      <trkpt lat="45.68267" lon="4.61993">
        <ele>422.2</ele>
        <time>2025-12-15T14:33:16Z</time>
      </trkpt>
      <trkpt lat="45.68267" lon="4.61993">
        <ele>422.2</ele>
        <time>2025-12-15T14:33:17Z</time>
      </trkpt>
      <trkpt lat="45.68268" lon="4.61993">
        <ele>422.2</ele>
        <time>2025-12-15T14:33:18Z</time>
      </trkpt>
      <trkpt lat="45.68269" lon="4.61995">
        <ele>422.2</ele>
        <time>2025-12-15T14:33:19Z</time>
      </trkpt>
      <trkpt lat="45.6827" lon="4.61999">
        <ele>421.8</ele>
        <time>2025-12-15T14:33:20Z</time>
      </trkpt>
      <trkpt lat="45.68273" lon="4.62003">
        <ele>421.4</ele>
        <time>2025-12-15T14:33:21Z</time>
      </trkpt>
      <trkpt lat="45.68276" lon="4.62006">
        <ele>420.8</ele>
        <time>2025-12-15T14:33:22Z</time>
      </trkpt>
      <trkpt lat="45.68279" lon="4.62011">
        <ele>420</ele>
        <time>2025-12-15T14:33:23Z</time>
      </trkpt>
      <trkpt lat="45.68281" lon="4.62018">
        <ele>419</ele>
        <time>2025-12-15T14:33:24Z</time>
      </trkpt>
      <trkpt lat="45.68284" lon="4.62024">
        <ele>418</ele>
        <time>2025-12-15T14:33:25Z</time>
      </trkpt>
      <trkpt lat="45.68287" lon="4.62029">
        <ele>416.8</ele>
        <time>2025-12-15T14:33:26Z</time>
      </trkpt>
      <trkpt lat="45.68292" lon="4.62034">
        <ele>415.8</ele>
        <time>2025-12-15T14:33:27Z</time>
      </trkpt>
      <trkpt lat="45.68297" lon="4.62036">
        <ele>414.8</ele>
        <time>2025-12-15T14:33:28Z</time>
      </trkpt>
      <trkpt lat="45.68303" lon="4.62037">
        <ele>413.8</ele>
        <time>2025-12-15T14:33:29Z</time>
      </trkpt>
      <trkpt lat="45.6831" lon="4.62038">
        <ele>412.8</ele>
        <time>2025-12-15T14:33:30Z</time>
      </trkpt>
      <trkpt lat="45.68318" lon="4.62039">
        <ele>411.6</ele>
        <time>2025-12-15T14:33:31Z</time>
      </trkpt>
      <trkpt lat="45.68326" lon="4.6204">
        <ele>410.2</ele>
        <time>2025-12-15T14:33:32Z</time>
      </trkpt>
      <trkpt lat="45.68335" lon="4.6204">
        <ele>408.6</ele>
        <time>2025-12-15T14:33:33Z</time>
      </trkpt>
      <trkpt lat="45.68345" lon="4.6204">
        <ele>407</ele>
        <time>2025-12-15T14:33:34Z</time>
      </trkpt>
      <trkpt lat="45.68356" lon="4.62039">
        <ele>405.2</ele>
        <time>2025-12-15T14:33:35Z</time>
      </trkpt>
      <trkpt lat="45.68367" lon="4.62039">
        <ele>403</ele>
        <time>2025-12-15T14:33:36Z</time>
      </trkpt>
      <trkpt lat="45.68378" lon="4.62039">
        <ele>400.8</ele>
        <time>2025-12-15T14:33:37Z</time>
      </trkpt>
      <trkpt lat="45.68389" lon="4.62039">
        <ele>398.8</ele>
        <time>2025-12-15T14:33:38Z</time>
      </trkpt>
      <trkpt lat="45.684" lon="4.6204">
        <ele>396.6</ele>
        <time>2025-12-15T14:33:39Z</time>
      </trkpt>
      <trkpt lat="45.6841" lon="4.62043">
        <ele>394.8</ele>
        <time>2025-12-15T14:33:40Z</time>
      </trkpt>
      <trkpt lat="45.68419" lon="4.62048">
        <ele>393.4</ele>
        <time>2025-12-15T14:33:41Z</time>
      </trkpt>
      <trkpt lat="45.68428" lon="4.62055">
        <ele>392</ele>
        <time>2025-12-15T14:33:42Z</time>
      </trkpt>
      <trkpt lat="45.68434" lon="4.62063">
        <ele>390.6</ele>
        <time>2025-12-15T14:33:43Z</time>
      </trkpt>
      <trkpt lat="45.6844" lon="4.62071">
        <ele>389.4</ele>
        <time>2025-12-15T14:33:44Z</time>
      </trkpt>
      <trkpt lat="45.68447" lon="4.6208">
        <ele>388</ele>
        <time>2025-12-15T14:33:45Z</time>
      </trkpt>
      <trkpt lat="45.68455" lon="4.62088">
        <ele>386.8</ele>
        <time>2025-12-15T14:33:46Z</time>
      </trkpt>
      <trkpt lat="45.68463" lon="4.62096">
        <ele>385.4</ele>
        <time>2025-12-15T14:33:47Z</time>
      </trkpt>
      <trkpt lat="45.68472" lon="4.62104">
        <ele>384</ele>
        <time>2025-12-15T14:33:48Z</time>
      </trkpt>
      <trkpt lat="45.68479" lon="4.62112">
        <ele>382.8</ele>
        <time>2025-12-15T14:33:49Z</time>
      </trkpt>
      <trkpt lat="45.68487" lon="4.62121">
        <ele>381.8</ele>
        <time>2025-12-15T14:33:50Z</time>
      </trkpt>
      <trkpt lat="45.68494" lon="4.62131">
        <ele>380.8</ele>
        <time>2025-12-15T14:33:51Z</time>
      </trkpt>
      <trkpt lat="45.685" lon="4.62141">
        <ele>380</ele>
        <time>2025-12-15T14:33:52Z</time>
      </trkpt>
      <trkpt lat="45.68505" lon="4.6215">
        <ele>379.8</ele>
        <time>2025-12-15T14:33:53Z</time>
      </trkpt>
      <trkpt lat="45.68509" lon="4.62157">
        <ele>380</ele>
        <time>2025-12-15T14:33:54Z</time>
      </trkpt>
      <trkpt lat="45.68513" lon="4.62162">
        <ele>380.6</ele>
        <time>2025-12-15T14:33:55Z</time>
      </trkpt>
      <trkpt lat="45.68516" lon="4.62165">
        <ele>381.6</ele>
        <time>2025-12-15T14:33:56Z</time>
      </trkpt>
      <trkpt lat="45.68519" lon="4.62169">
        <ele>382.6</ele>
        <time>2025-12-15T14:33:57Z</time>
      </trkpt>
      <trkpt lat="45.6852" lon="4.62174">
        <ele>383.6</ele>
        <time>2025-12-15T14:33:58Z</time>
      </trkpt>
      <trkpt lat="45.68521" lon="4.6218">
        <ele>384.4</ele>
        <time>2025-12-15T14:33:59Z</time>
      </trkpt>
      <trkpt lat="45.68521" lon="4.62186">
        <ele>385</ele>
        <time>2025-12-15T14:34:00Z</time>
      </trkpt>
      <trkpt lat="45.68522" lon="4.62192">
        <ele>385.2</ele>
        <time>2025-12-15T14:34:01Z</time>
      </trkpt>
      <trkpt lat="45.68522" lon="4.62199">
        <ele>385.4</ele>
        <time>2025-12-15T14:34:02Z</time>
      </trkpt>
      <trkpt lat="45.68523" lon="4.62207">
        <ele>385.2</ele>
        <time>2025-12-15T14:34:03Z</time>
      </trkpt>
      <trkpt lat="45.68523" lon="4.62215">
        <ele>385.2</ele>
        <time>2025-12-15T14:34:04Z</time>
      </trkpt>
      <trkpt lat="45.68524" lon="4.62222">
        <ele>385</ele>
        <time>2025-12-15T14:34:05Z</time>
      </trkpt>
      <trkpt lat="45.68525" lon="4.6223">
        <ele>384.6</ele>
        <time>2025-12-15T14:34:06Z</time>
      </trkpt>
      <trkpt lat="45.68526" lon="4.62239">
        <ele>384.4</ele>
        <time>2025-12-15T14:34:07Z</time>
      </trkpt>
      <trkpt lat="45.68526" lon="4.62247">
        <ele>384.2</ele>
        <time>2025-12-15T14:34:08Z</time>
      </trkpt>
      <trkpt lat="45.68527" lon="4.62255">
        <ele>384</ele>
        <time>2025-12-15T14:34:09Z</time>
      </trkpt>
      <trkpt lat="45.68529" lon="4.62264">
        <ele>383.8</ele>
        <time>2025-12-15T14:34:10Z</time>
      </trkpt>
      <trkpt lat="45.6853" lon="4.62272">
        <ele>383.8</ele>
        <time>2025-12-15T14:34:11Z</time>
      </trkpt>
      <trkpt lat="45.68531" lon="4.6228">
        <ele>383.6</ele>
        <time>2025-12-15T14:34:12Z</time>
      </trkpt>
      <trkpt lat="45.68532" lon="4.62288">
        <ele>383.6</ele>
        <time>2025-12-15T14:34:13Z</time>
      </trkpt>
      <trkpt lat="45.68531" lon="4.62296">
        <ele>383.4</ele>
        <time>2025-12-15T14:34:14Z</time>
      </trkpt>
      <trkpt lat="45.68529" lon="4.62304">
        <ele>383.4</ele>
        <time>2025-12-15T14:34:15Z</time>
      </trkpt>
      <trkpt lat="45.68528" lon="4.62312">
        <ele>383.2</ele>
        <time>2025-12-15T14:34:16Z</time>
      </trkpt>
      <trkpt lat="45.68526" lon="4.62319">
        <ele>383</ele>
        <time>2025-12-15T14:34:17Z</time>
      </trkpt>
      <trkpt lat="45.68524" lon="4.62327">
        <ele>382.8</ele>
        <time>2025-12-15T14:34:18Z</time>
      </trkpt>
      <trkpt lat="45.68523" lon="4.62334">
        <ele>382.8</ele>
        <time>2025-12-15T14:34:19Z</time>
      </trkpt>
      <trkpt lat="45.68521" lon="4.62342">
        <ele>382.8</ele>
        <time>2025-12-15T14:34:20Z</time>
      </trkpt>
      <trkpt lat="45.6852" lon="4.62349">
        <ele>382.8</ele>
        <time>2025-12-15T14:34:21Z</time>
      </trkpt>
      <trkpt lat="45.68519" lon="4.62356">
        <ele>382.8</ele>
        <time>2025-12-15T14:34:22Z</time>
      </trkpt>
      <trkpt lat="45.68518" lon="4.62364">
        <ele>382.6</ele>
        <time>2025-12-15T14:34:23Z</time>
      </trkpt>
      <trkpt lat="45.68517" lon="4.62371">
        <ele>382.6</ele>
        <time>2025-12-15T14:34:24Z</time>
      </trkpt>
      <trkpt lat="45.68516" lon="4.62379">
        <ele>382.4</ele>
        <time>2025-12-15T14:34:25Z</time>
      </trkpt>
      <trkpt lat="45.68514" lon="4.62386">
        <ele>382.2</ele>
        <time>2025-12-15T14:34:26Z</time>
      </trkpt>
      <trkpt lat="45.68513" lon="4.62394">
        <ele>382</ele>
        <time>2025-12-15T14:34:27Z</time>
      </trkpt>
      <trkpt lat="45.68511" lon="4.62402">
        <ele>381.8</ele>
        <time>2025-12-15T14:34:28Z</time>
      </trkpt>
      <trkpt lat="45.68508" lon="4.6241">
        <ele>381.4</ele>
        <time>2025-12-15T14:34:29Z</time>
      </trkpt>
      <trkpt lat="45.68506" lon="4.62418">
        <ele>381</ele>
        <time>2025-12-15T14:34:30Z</time>
      </trkpt>
      <trkpt lat="45.68504" lon="4.62427">
        <ele>380.4</ele>
        <time>2025-12-15T14:34:31Z</time>
      </trkpt>
      <trkpt lat="45.68501" lon="4.62436">
        <ele>379.8</ele>
        <time>2025-12-15T14:34:32Z</time>
      </trkpt>
      <trkpt lat="45.68499" lon="4.62446">
        <ele>379</ele>
        <time>2025-12-15T14:34:33Z</time>
      </trkpt>
      <trkpt lat="45.68496" lon="4.62456">
        <ele>378.2</ele>
        <time>2025-12-15T14:34:34Z</time>
      </trkpt>
      <trkpt lat="45.68494" lon="4.62466">
        <ele>377.6</ele>
        <time>2025-12-15T14:34:35Z</time>
      </trkpt>
      <trkpt lat="45.68491" lon="4.62476">
        <ele>376.8</ele>
        <time>2025-12-15T14:34:36Z</time>
      </trkpt>
      <trkpt lat="45.68489" lon="4.62486">
        <ele>376</ele>
        <time>2025-12-15T14:34:37Z</time>
      </trkpt>
      <trkpt lat="45.68486" lon="4.62496">
        <ele>375.4</ele>
        <time>2025-12-15T14:34:38Z</time>
      </trkpt>
      <trkpt lat="45.68485" lon="4.62506">
        <ele>374.8</ele>
        <time>2025-12-15T14:34:39Z</time>
      </trkpt>
      <trkpt lat="45.68484" lon="4.62516">
        <ele>374.4</ele>
        <time>2025-12-15T14:34:40Z</time>
      </trkpt>
      <trkpt lat="45.68483" lon="4.62525">
        <ele>374</ele>
        <time>2025-12-15T14:34:41Z</time>
      </trkpt>
      <trkpt lat="45.68483" lon="4.62535">
        <ele>373.8</ele>
        <time>2025-12-15T14:34:42Z</time>
      </trkpt>
      <trkpt lat="45.68482" lon="4.62545">
        <ele>373.6</ele>
        <time>2025-12-15T14:34:43Z</time>
      </trkpt>
      <trkpt lat="45.6848" lon="4.62554">
        <ele>373.4</ele>
        <time>2025-12-15T14:34:44Z</time>
      </trkpt>
      <trkpt lat="45.68477" lon="4.62563">
        <ele>373.4</ele>
        <time>2025-12-15T14:34:45Z</time>
      </trkpt>
      <trkpt lat="45.68475" lon="4.62572">
        <ele>373.2</ele>
        <time>2025-12-15T14:34:46Z</time>
      </trkpt>
      <trkpt lat="45.68472" lon="4.62581">
        <ele>373.2</ele>
        <time>2025-12-15T14:34:47Z</time>
      </trkpt>
      <trkpt lat="45.68469" lon="4.62589">
        <ele>373.2</ele>
        <time>2025-12-15T14:34:48Z</time>
      </trkpt>
      <trkpt lat="45.68466" lon="4.62597">
        <ele>373.4</ele>
        <time>2025-12-15T14:34:49Z</time>
      </trkpt>
      <trkpt lat="45.68462" lon="4.62605">
        <ele>373.2</ele>
        <time>2025-12-15T14:34:50Z</time>
      </trkpt>
      <trkpt lat="45.68458" lon="4.62613">
        <ele>373</ele>
        <time>2025-12-15T14:34:51Z</time>
      </trkpt>
      <trkpt lat="45.68454" lon="4.62622">
        <ele>372.8</ele>
        <time>2025-12-15T14:34:52Z</time>
      </trkpt>
      <trkpt lat="45.68451" lon="4.62631">
        <ele>372.6</ele>
        <time>2025-12-15T14:34:53Z</time>
      </trkpt>
      <trkpt lat="45.68449" lon="4.62641">
        <ele>372.4</ele>
        <time>2025-12-15T14:34:54Z</time>
      </trkpt>
      <trkpt lat="45.68447" lon="4.62651">
        <ele>372.2</ele>
        <time>2025-12-15T14:34:55Z</time>
      </trkpt>
      <trkpt lat="45.68445" lon="4.62661">
        <ele>372</ele>
        <time>2025-12-15T14:34:56Z</time>
      </trkpt>
      <trkpt lat="45.68443" lon="4.62671">
        <ele>371.6</ele>
        <time>2025-12-15T14:34:57Z</time>
      </trkpt>
      <trkpt lat="45.68441" lon="4.62681">
        <ele>371</ele>
        <time>2025-12-15T14:34:58Z</time>
      </trkpt>
      <trkpt lat="45.68439" lon="4.62691">
        <ele>370.4</ele>
        <time>2025-12-15T14:34:59Z</time>
      </trkpt>
      <trkpt lat="45.68437" lon="4.62701">
        <ele>370</ele>
        <time>2025-12-15T14:35:00Z</time>
      </trkpt>
      <trkpt lat="45.68436" lon="4.62711">
        <ele>369.2</ele>
        <time>2025-12-15T14:35:01Z</time>
      </trkpt>
      <trkpt lat="45.68435" lon="4.62721">
        <ele>368.8</ele>
        <time>2025-12-15T14:35:02Z</time>
      </trkpt>
      <trkpt lat="45.68434" lon="4.62731">
        <ele>368.4</ele>
        <time>2025-12-15T14:35:03Z</time>
      </trkpt>
      <trkpt lat="45.68434" lon="4.62742">
        <ele>368.2</ele>
        <time>2025-12-15T14:35:04Z</time>
      </trkpt>
      <trkpt lat="45.68433" lon="4.62752">
        <ele>368</ele>
        <time>2025-12-15T14:35:05Z</time>
      </trkpt>
      <trkpt lat="45.68432" lon="4.62762">
        <ele>368</ele>
        <time>2025-12-15T14:35:06Z</time>
      </trkpt>
      <trkpt lat="45.68431" lon="4.62773">
        <ele>368</ele>
        <time>2025-12-15T14:35:07Z</time>
      </trkpt>
      <trkpt lat="45.6843" lon="4.62783">
        <ele>368.2</ele>
        <time>2025-12-15T14:35:08Z</time>
      </trkpt>
      <trkpt lat="45.68429" lon="4.62794">
        <ele>368.4</ele>
        <time>2025-12-15T14:35:09Z</time>
      </trkpt>
      <trkpt lat="45.68427" lon="4.62805">
        <ele>368.4</ele>
        <time>2025-12-15T14:35:10Z</time>
      </trkpt>
      <trkpt lat="45.68425" lon="4.62816">
        <ele>368.2</ele>
        <time>2025-12-15T14:35:11Z</time>
      </trkpt>
      <trkpt lat="45.68424" lon="4.62827">
        <ele>367.8</ele>
        <time>2025-12-15T14:35:12Z</time>
      </trkpt>
      <trkpt lat="45.68423" lon="4.62839">
        <ele>367.4</ele>
        <time>2025-12-15T14:35:13Z</time>
      </trkpt>
      <trkpt lat="45.68421" lon="4.6285">
        <ele>367</ele>
        <time>2025-12-15T14:35:14Z</time>
      </trkpt>
      <trkpt lat="45.68421" lon="4.62862">
        <ele>366.4</ele>
        <time>2025-12-15T14:35:15Z</time>
      </trkpt>
      <trkpt lat="45.68421" lon="4.62874">
        <ele>366</ele>
        <time>2025-12-15T14:35:16Z</time>
      </trkpt>
      <trkpt lat="45.68421" lon="4.62886">
        <ele>365.6</ele>
        <time>2025-12-15T14:35:17Z</time>
      </trkpt>
      <trkpt lat="45.6842" lon="4.62898">
        <ele>365</ele>
        <time>2025-12-15T14:35:18Z</time>
      </trkpt>
      <trkpt lat="45.68419" lon="4.6291">
        <ele>364.4</ele>
        <time>2025-12-15T14:35:19Z</time>
      </trkpt>
      <trkpt lat="45.68416" lon="4.62921">
        <ele>364</ele>
        <time>2025-12-15T14:35:20Z</time>
      </trkpt>
      <trkpt lat="45.68413" lon="4.62931">
        <ele>363.6</ele>
        <time>2025-12-15T14:35:21Z</time>
      </trkpt>
      <trkpt lat="45.6841" lon="4.6294">
        <ele>363.4</ele>
        <time>2025-12-15T14:35:22Z</time>
      </trkpt>
      <trkpt lat="45.68407" lon="4.62948">
        <ele>363.4</ele>
        <time>2025-12-15T14:35:23Z</time>
      </trkpt>
      <trkpt lat="45.68403" lon="4.62956">
        <ele>363.4</ele>
        <time>2025-12-15T14:35:24Z</time>
      </trkpt>
      <trkpt lat="45.684" lon="4.62963">
        <ele>363.8</ele>
        <time>2025-12-15T14:35:25Z</time>
      </trkpt>
      <trkpt lat="45.68397" lon="4.62969">
        <ele>364.4</ele>
        <time>2025-12-15T14:35:26Z</time>
      </trkpt>
      <trkpt lat="45.68394" lon="4.62975">
        <ele>365</ele>
        <time>2025-12-15T14:35:27Z</time>
      </trkpt>
      <trkpt lat="45.68391" lon="4.6298">
        <ele>365.8</ele>
        <time>2025-12-15T14:35:28Z</time>
      </trkpt>
      <trkpt lat="45.68388" lon="4.62986">
        <ele>366.6</ele>
        <time>2025-12-15T14:35:29Z</time>
      </trkpt>
      <trkpt lat="45.68385" lon="4.62992">
        <ele>367.2</ele>
        <time>2025-12-15T14:35:30Z</time>
      </trkpt>
      <trkpt lat="45.68381" lon="4.62997">
        <ele>367.8</ele>
        <time>2025-12-15T14:35:31Z</time>
      </trkpt>
      <trkpt lat="45.68378" lon="4.63003">
        <ele>368.2</ele>
        <time>2025-12-15T14:35:32Z</time>
      </trkpt>
      <trkpt lat="45.68374" lon="4.63008">
        <ele>368.6</ele>
        <time>2025-12-15T14:35:33Z</time>
      </trkpt>
      <trkpt lat="45.68371" lon="4.63013">
        <ele>369.2</ele>
        <time>2025-12-15T14:35:34Z</time>
      </trkpt>
      <trkpt lat="45.68368" lon="4.63019">
        <ele>369.6</ele>
        <time>2025-12-15T14:35:35Z</time>
      </trkpt>
      <trkpt lat="45.68365" lon="4.63024">
        <ele>370</ele>
        <time>2025-12-15T14:35:36Z</time>
      </trkpt>
      <trkpt lat="45.68361" lon="4.63029">
        <ele>370.6</ele>
        <time>2025-12-15T14:35:37Z</time>
      </trkpt>
      <trkpt lat="45.68358" lon="4.63034">
        <ele>371</ele>
        <time>2025-12-15T14:35:38Z</time>
      </trkpt>
      <trkpt lat="45.68355" lon="4.63038">
        <ele>371.4</ele>
        <time>2025-12-15T14:35:39Z</time>
      </trkpt>
      <trkpt lat="45.68352" lon="4.63043">
        <ele>371.8</ele>
        <time>2025-12-15T14:35:40Z</time>
      </trkpt>
      <trkpt lat="45.68349" lon="4.63048">
        <ele>372.2</ele>
        <time>2025-12-15T14:35:41Z</time>
      </trkpt>
      <trkpt lat="45.68346" lon="4.63052">
        <ele>372.6</ele>
        <time>2025-12-15T14:35:42Z</time>
      </trkpt>
      <trkpt lat="45.68342" lon="4.63057">
        <ele>373</ele>
        <time>2025-12-15T14:35:43Z</time>
      </trkpt>
      <trkpt lat="45.68339" lon="4.63062">
        <ele>373.2</ele>
        <time>2025-12-15T14:35:44Z</time>
      </trkpt>
      <trkpt lat="45.68335" lon="4.63067">
        <ele>373.6</ele>
        <time>2025-12-15T14:35:45Z</time>
      </trkpt>
      <trkpt lat="45.68332" lon="4.63072">
        <ele>373.8</ele>
        <time>2025-12-15T14:35:46Z</time>
      </trkpt>
      <trkpt lat="45.68329" lon="4.63076">
        <ele>374.2</ele>
        <time>2025-12-15T14:35:47Z</time>
      </trkpt>
      <trkpt lat="45.68326" lon="4.63081">
        <ele>374.4</ele>
        <time>2025-12-15T14:35:48Z</time>
      </trkpt>
      <trkpt lat="45.68323" lon="4.63085">
        <ele>374.6</ele>
        <time>2025-12-15T14:35:49Z</time>
      </trkpt>
      <trkpt lat="45.68321" lon="4.63089">
        <ele>374.8</ele>
        <time>2025-12-15T14:35:50Z</time>
      </trkpt>
      <trkpt lat="45.68317" lon="4.63094">
        <ele>375</ele>
        <time>2025-12-15T14:35:51Z</time>
      </trkpt>
      <trkpt lat="45.68315" lon="4.63098">
        <ele>375.2</ele>
        <time>2025-12-15T14:35:52Z</time>
      </trkpt>
      <trkpt lat="45.68312" lon="4.63103">
        <ele>375.4</ele>
        <time>2025-12-15T14:35:53Z</time>
      </trkpt>
      <trkpt lat="45.6831" lon="4.63107">
        <ele>375.8</ele>
        <time>2025-12-15T14:35:54Z</time>
      </trkpt>
      <trkpt lat="45.68307" lon="4.63112">
        <ele>376.2</ele>
        <time>2025-12-15T14:35:55Z</time>
      </trkpt>
      <trkpt lat="45.68305" lon="4.63117">
        <ele>376.6</ele>
        <time>2025-12-15T14:35:56Z</time>
      </trkpt>
      <trkpt lat="45.68303" lon="4.63121">
        <ele>377</ele>
        <time>2025-12-15T14:35:57Z</time>
      </trkpt>
      <trkpt lat="45.68301" lon="4.63126">
        <ele>377.2</ele>
        <time>2025-12-15T14:35:58Z</time>
      </trkpt>
      <trkpt lat="45.68299" lon="4.63131">
        <ele>377.6</ele>
        <time>2025-12-15T14:35:59Z</time>
      </trkpt>
      <trkpt lat="45.68297" lon="4.63136">
        <ele>377.8</ele>
        <time>2025-12-15T14:36:00Z</time>
      </trkpt>
      <trkpt lat="45.68295" lon="4.63141">
        <ele>378.2</ele>
        <time>2025-12-15T14:36:01Z</time>
      </trkpt>
      <trkpt lat="45.68293" lon="4.63146">
        <ele>378.6</ele>
        <time>2025-12-15T14:36:02Z</time>
      </trkpt>
      <trkpt lat="45.68291" lon="4.63151">
        <ele>379</ele>
        <time>2025-12-15T14:36:03Z</time>
      </trkpt>
      <trkpt lat="45.6829" lon="4.63156">
        <ele>379.4</ele>
        <time>2025-12-15T14:36:04Z</time>
      </trkpt>
      <trkpt lat="45.68288" lon="4.6316">
        <ele>379.6</ele>
        <time>2025-12-15T14:36:05Z</time>
      </trkpt>
      <trkpt lat="45.68287" lon="4.63166">
        <ele>380</ele>
        <time>2025-12-15T14:36:06Z</time>
      </trkpt>
      <trkpt lat="45.68285" lon="4.63171">
        <ele>380.4</ele>
        <time>2025-12-15T14:36:07Z</time>
      </trkpt>
      <trkpt lat="45.68284" lon="4.63177">
        <ele>380.8</ele>
        <time>2025-12-15T14:36:08Z</time>
      </trkpt>
      <trkpt lat="45.68284" lon="4.63182">
        <ele>381</ele>
        <time>2025-12-15T14:36:09Z</time>
      </trkpt>
      <trkpt lat="45.68283" lon="4.63188">
        <ele>381.2</ele>
        <time>2025-12-15T14:36:10Z</time>
      </trkpt>
      <trkpt lat="45.68282" lon="4.63194">
        <ele>381.6</ele>
        <time>2025-12-15T14:36:11Z</time>
      </trkpt>
      <trkpt lat="45.68281" lon="4.63199">
        <ele>381.8</ele>
        <time>2025-12-15T14:36:12Z</time>
      </trkpt>
      <trkpt lat="45.6828" lon="4.63205">
        <ele>382.2</ele>
        <time>2025-12-15T14:36:13Z</time>
      </trkpt>
      <trkpt lat="45.68279" lon="4.6321">
        <ele>382.4</ele>
        <time>2025-12-15T14:36:14Z</time>
      </trkpt>
      <trkpt lat="45.68278" lon="4.63216">
        <ele>382.6</ele>
        <time>2025-12-15T14:36:15Z</time>
      </trkpt>
      <trkpt lat="45.68277" lon="4.63222">
        <ele>382.8</ele>
        <time>2025-12-15T14:36:16Z</time>
      </trkpt>
      <trkpt lat="45.68276" lon="4.63228">
        <ele>383</ele>
        <time>2025-12-15T14:36:17Z</time>
      </trkpt>
      <trkpt lat="45.68276" lon="4.63233">
        <ele>383.2</ele>
        <time>2025-12-15T14:36:18Z</time>
      </trkpt>
      <trkpt lat="45.68275" lon="4.63239">
        <ele>383.4</ele>
        <time>2025-12-15T14:36:19Z</time>
      </trkpt>
      <trkpt lat="45.68274" lon="4.63245">
        <ele>383.6</ele>
        <time>2025-12-15T14:36:20Z</time>
      </trkpt>
      <trkpt lat="45.68274" lon="4.63251">
        <ele>383.8</ele>
        <time>2025-12-15T14:36:21Z</time>
      </trkpt>
      <trkpt lat="45.68273" lon="4.63257">
        <ele>383.8</ele>
        <time>2025-12-15T14:36:22Z</time>
      </trkpt>
      <trkpt lat="45.68273" lon="4.63263">
        <ele>384</ele>
        <time>2025-12-15T14:36:23Z</time>
      </trkpt>
      <trkpt lat="45.68272" lon="4.63269">
        <ele>384</ele>
        <time>2025-12-15T14:36:24Z</time>
      </trkpt>
      <trkpt lat="45.68271" lon="4.63276">
        <ele>383.8</ele>
        <time>2025-12-15T14:36:25Z</time>
      </trkpt>
      <trkpt lat="45.68271" lon="4.63283">
        <ele>383.8</ele>
        <time>2025-12-15T14:36:26Z</time>
      </trkpt>
      <trkpt lat="45.68269" lon="4.63289">
        <ele>383.6</ele>
        <time>2025-12-15T14:36:27Z</time>
      </trkpt>
      <trkpt lat="45.68268" lon="4.63296">
        <ele>383.6</ele>
        <time>2025-12-15T14:36:28Z</time>
      </trkpt>
      <trkpt lat="45.68267" lon="4.63303">
        <ele>383.6</ele>
        <time>2025-12-15T14:36:29Z</time>
      </trkpt>
      <trkpt lat="45.68265" lon="4.6331">
        <ele>383.4</ele>
        <time>2025-12-15T14:36:30Z</time>
      </trkpt>
      <trkpt lat="45.68263" lon="4.63316">
        <ele>383.4</ele>
        <time>2025-12-15T14:36:31Z</time>
      </trkpt>
      <trkpt lat="45.68261" lon="4.63322">
        <ele>383.2</ele>
        <time>2025-12-15T14:36:32Z</time>
      </trkpt>
      <trkpt lat="45.68258" lon="4.63328">
        <ele>383</ele>
        <time>2025-12-15T14:36:33Z</time>
      </trkpt>
      <trkpt lat="45.68255" lon="4.63333">
        <ele>383</ele>
        <time>2025-12-15T14:36:34Z</time>
      </trkpt>
      <trkpt lat="45.68252" lon="4.63338">
        <ele>383.2</ele>
        <time>2025-12-15T14:36:35Z</time>
      </trkpt>
      <trkpt lat="45.68249" lon="4.63343">
        <ele>383.4</ele>
        <time>2025-12-15T14:36:36Z</time>
      </trkpt>
      <trkpt lat="45.68246" lon="4.63348">
        <ele>383.6</ele>
        <time>2025-12-15T14:36:37Z</time>
      </trkpt>
      <trkpt lat="45.68243" lon="4.63353">
        <ele>384</ele>
        <time>2025-12-15T14:36:38Z</time>
      </trkpt>
      <trkpt lat="45.6824" lon="4.63357">
        <ele>384.4</ele>
        <time>2025-12-15T14:36:39Z</time>
      </trkpt>
      <trkpt lat="45.68238" lon="4.63361">
        <ele>384.8</ele>
        <time>2025-12-15T14:36:40Z</time>
      </trkpt>
      <trkpt lat="45.68235" lon="4.63366">
        <ele>385.2</ele>
        <time>2025-12-15T14:36:41Z</time>
      </trkpt>
      <trkpt lat="45.68233" lon="4.6337">
        <ele>385.4</ele>
        <time>2025-12-15T14:36:42Z</time>
      </trkpt>
      <trkpt lat="45.6823" lon="4.63375">
        <ele>385.6</ele>
        <time>2025-12-15T14:36:43Z</time>
      </trkpt>
      <trkpt lat="45.68228" lon="4.6338">
        <ele>386</ele>
        <time>2025-12-15T14:36:44Z</time>
      </trkpt>
      <trkpt lat="45.68226" lon="4.63385">
        <ele>386.2</ele>
        <time>2025-12-15T14:36:45Z</time>
      </trkpt>
      <trkpt lat="45.68224" lon="4.6339">
        <ele>386.6</ele>
        <time>2025-12-15T14:36:46Z</time>
      </trkpt>
      <trkpt lat="45.68221" lon="4.63396">
        <ele>387</ele>
        <time>2025-12-15T14:36:47Z</time>
      </trkpt>
      <trkpt lat="45.68219" lon="4.63401">
        <ele>387.4</ele>
        <time>2025-12-15T14:36:48Z</time>
      </trkpt>
      <trkpt lat="45.68217" lon="4.63407">
        <ele>387.8</ele>
        <time>2025-12-15T14:36:49Z</time>
      </trkpt>
      <trkpt lat="45.68216" lon="4.63412">
        <ele>388</ele>
        <time>2025-12-15T14:36:50Z</time>
      </trkpt>
      <trkpt lat="45.68214" lon="4.63418">
        <ele>388.2</ele>
        <time>2025-12-15T14:36:51Z</time>
      </trkpt>
      <trkpt lat="45.68213" lon="4.63423">
        <ele>388.2</ele>
        <time>2025-12-15T14:36:52Z</time>
      </trkpt>
      <trkpt lat="45.68212" lon="4.63429">
        <ele>388.2</ele>
        <time>2025-12-15T14:36:53Z</time>
      </trkpt>
      <trkpt lat="45.68211" lon="4.63434">
        <ele>388.4</ele>
        <time>2025-12-15T14:36:54Z</time>
      </trkpt>
      <trkpt lat="45.6821" lon="4.6344">
        <ele>388.4</ele>
        <time>2025-12-15T14:36:55Z</time>
      </trkpt>
      <trkpt lat="45.68209" lon="4.63446">
        <ele>388.6</ele>
        <time>2025-12-15T14:36:56Z</time>
      </trkpt>
      <trkpt lat="45.68208" lon="4.63451">
        <ele>388.6</ele>
        <time>2025-12-15T14:36:57Z</time>
      </trkpt>
      <trkpt lat="45.68207" lon="4.63456">
        <ele>388.8</ele>
        <time>2025-12-15T14:36:58Z</time>
      </trkpt>
      <trkpt lat="45.68206" lon="4.63462">
        <ele>389</ele>
        <time>2025-12-15T14:36:59Z</time>
      </trkpt>
      <trkpt lat="45.68205" lon="4.63467">
        <ele>389.2</ele>
        <time>2025-12-15T14:37:00Z</time>
      </trkpt>
      <trkpt lat="45.68204" lon="4.63471">
        <ele>389.2</ele>
        <time>2025-12-15T14:37:01Z</time>
      </trkpt>
      <trkpt lat="45.68204" lon="4.63475">
        <ele>389.2</ele>
        <time>2025-12-15T14:37:02Z</time>
      </trkpt>
      <trkpt lat="45.68204" lon="4.63479">
        <ele>389.2</ele>
        <time>2025-12-15T14:37:03Z</time>
      </trkpt>
      <trkpt lat="45.68203" lon="4.63484">
        <ele>389.2</ele>
        <time>2025-12-15T14:37:04Z</time>
      </trkpt>
      <trkpt lat="45.68203" lon="4.63489">
        <ele>389.4</ele>
        <time>2025-12-15T14:37:05Z</time>
      </trkpt>
      <trkpt lat="45.68202" lon="4.63495">
        <ele>389.6</ele>
        <time>2025-12-15T14:37:06Z</time>
      </trkpt>
      <trkpt lat="45.68202" lon="4.635">
        <ele>390</ele>
        <time>2025-12-15T14:37:07Z</time>
      </trkpt>
      <trkpt lat="45.68201" lon="4.63505">
        <ele>390.4</ele>
        <time>2025-12-15T14:37:08Z</time>
      </trkpt>
      <trkpt lat="45.68201" lon="4.63511">
        <ele>390.6</ele>
        <time>2025-12-15T14:37:09Z</time>
      </trkpt>
      <trkpt lat="45.682" lon="4.63517">
        <ele>390.8</ele>
        <time>2025-12-15T14:37:10Z</time>
      </trkpt>
      <trkpt lat="45.68199" lon="4.63523">
        <ele>391</ele>
        <time>2025-12-15T14:37:11Z</time>
      </trkpt>
      <trkpt lat="45.68199" lon="4.63529">
        <ele>391.2</ele>
        <time>2025-12-15T14:37:12Z</time>
      </trkpt>
      <trkpt lat="45.68198" lon="4.63535">
        <ele>391.6</ele>
        <time>2025-12-15T14:37:13Z</time>
      </trkpt>
      <trkpt lat="45.68198" lon="4.63541">
        <ele>391.8</ele>
        <time>2025-12-15T14:37:14Z</time>
      </trkpt>
      <trkpt lat="45.68198" lon="4.63548">
        <ele>392</ele>
        <time>2025-12-15T14:37:15Z</time>
      </trkpt>
      <trkpt lat="45.68197" lon="4.63554">
        <ele>392</ele>
        <time>2025-12-15T14:37:16Z</time>
      </trkpt>
      <trkpt lat="45.68197" lon="4.63561">
        <ele>392.2</ele>
        <time>2025-12-15T14:37:17Z</time>
      </trkpt>
      <trkpt lat="45.68197" lon="4.63567">
        <ele>392</ele>
        <time>2025-12-15T14:37:18Z</time>
      </trkpt>
      <trkpt lat="45.68197" lon="4.63574">
        <ele>391.8</ele>
        <time>2025-12-15T14:37:19Z</time>
      </trkpt>
      <trkpt lat="45.68197" lon="4.63581">
        <ele>391.8</ele>
        <time>2025-12-15T14:37:20Z</time>
      </trkpt>
      <trkpt lat="45.68197" lon="4.63587">
        <ele>391.8</ele>
        <time>2025-12-15T14:37:21Z</time>
      </trkpt>
      <trkpt lat="45.68196" lon="4.63594">
        <ele>391.6</ele>
        <time>2025-12-15T14:37:22Z</time>
      </trkpt>
      <trkpt lat="45.68196" lon="4.636">
        <ele>391.6</ele>
        <time>2025-12-15T14:37:23Z</time>
      </trkpt>
      <trkpt lat="45.68196" lon="4.63606">
        <ele>391.6</ele>
        <time>2025-12-15T14:37:24Z</time>
      </trkpt>
      <trkpt lat="45.68197" lon="4.63612">
        <ele>391.6</ele>
        <time>2025-12-15T14:37:25Z</time>
      </trkpt>
      <trkpt lat="45.68197" lon="4.63618">
        <ele>391.4</ele>
        <time>2025-12-15T14:37:26Z</time>
      </trkpt>
      <trkpt lat="45.68198" lon="4.63623">
        <ele>391.4</ele>
        <time>2025-12-15T14:37:27Z</time>
      </trkpt>
      <trkpt lat="45.68199" lon="4.63629">
        <ele>391.4</ele>
        <time>2025-12-15T14:37:28Z</time>
      </trkpt>
      <trkpt lat="45.682" lon="4.63634">
        <ele>391.2</ele>
        <time>2025-12-15T14:37:29Z</time>
      </trkpt>
      <trkpt lat="45.68201" lon="4.6364">
        <ele>391.2</ele>
        <time>2025-12-15T14:37:30Z</time>
      </trkpt>
      <trkpt lat="45.68202" lon="4.63647">
        <ele>391</ele>
        <time>2025-12-15T14:37:31Z</time>
      </trkpt>
      <trkpt lat="45.68204" lon="4.63654">
        <ele>391</ele>
        <time>2025-12-15T14:37:32Z</time>
      </trkpt>
      <trkpt lat="45.68205" lon="4.63661">
        <ele>391</ele>
        <time>2025-12-15T14:37:33Z</time>
      </trkpt>
      <trkpt lat="45.68206" lon="4.63668">
        <ele>391</ele>
        <time>2025-12-15T14:37:34Z</time>
      </trkpt>
      <trkpt lat="45.68208" lon="4.63675">
        <ele>391.2</ele>
        <time>2025-12-15T14:37:35Z</time>
      </trkpt>
      <trkpt lat="45.68209" lon="4.63682">
        <ele>391.4</ele>
        <time>2025-12-15T14:37:36Z</time>
      </trkpt>
      <trkpt lat="45.6821" lon="4.63689">
        <ele>391.4</ele>
        <time>2025-12-15T14:37:37Z</time>
      </trkpt>
      <trkpt lat="45.68212" lon="4.63695">
        <ele>391.6</ele>
        <time>2025-12-15T14:37:38Z</time>
      </trkpt>
      <trkpt lat="45.68213" lon="4.63702">
        <ele>391.6</ele>
        <time>2025-12-15T14:37:39Z</time>
      </trkpt>
      <trkpt lat="45.68215" lon="4.63709">
        <ele>391.4</ele>
        <time>2025-12-15T14:37:40Z</time>
      </trkpt>
      <trkpt lat="45.68217" lon="4.63715">
        <ele>391.2</ele>
        <time>2025-12-15T14:37:41Z</time>
      </trkpt>
      <trkpt lat="45.68219" lon="4.63722">
        <ele>391</ele>
        <time>2025-12-15T14:37:42Z</time>
      </trkpt>
      <trkpt lat="45.68221" lon="4.63729">
        <ele>390.6</ele>
        <time>2025-12-15T14:37:43Z</time>
      </trkpt>
      <trkpt lat="45.68223" lon="4.63736">
        <ele>390.4</ele>
        <time>2025-12-15T14:37:44Z</time>
      </trkpt>
      <trkpt lat="45.68225" lon="4.63744">
        <ele>390.2</ele>
        <time>2025-12-15T14:37:45Z</time>
      </trkpt>
      <trkpt lat="45.68227" lon="4.63751">
        <ele>390</ele>
        <time>2025-12-15T14:37:46Z</time>
      </trkpt>
      <trkpt lat="45.68229" lon="4.63758">
        <ele>389.8</ele>
        <time>2025-12-15T14:37:47Z</time>
      </trkpt>
      <trkpt lat="45.68231" lon="4.63766">
        <ele>389.6</ele>
        <time>2025-12-15T14:37:48Z</time>
      </trkpt>
      <trkpt lat="45.68233" lon="4.63773">
        <ele>389.6</ele>
        <time>2025-12-15T14:37:49Z</time>
      </trkpt>
      <trkpt lat="45.68235" lon="4.6378">
        <ele>389.6</ele>
        <time>2025-12-15T14:37:50Z</time>
      </trkpt>
      <trkpt lat="45.68237" lon="4.63788">
        <ele>389.8</ele>
        <time>2025-12-15T14:37:51Z</time>
      </trkpt>
      <trkpt lat="45.68239" lon="4.63796">
        <ele>389.8</ele>
        <time>2025-12-15T14:37:52Z</time>
      </trkpt>
      <trkpt lat="45.68241" lon="4.63803">
        <ele>389.8</ele>
        <time>2025-12-15T14:37:53Z</time>
      </trkpt>
      <trkpt lat="45.68244" lon="4.63811">
        <ele>389.6</ele>
        <time>2025-12-15T14:37:54Z</time>
      </trkpt>
      <trkpt lat="45.68246" lon="4.63819">
        <ele>389.4</ele>
        <time>2025-12-15T14:37:55Z</time>
      </trkpt>
      <trkpt lat="45.68248" lon="4.63827">
        <ele>389</ele>
        <time>2025-12-15T14:37:56Z</time>
      </trkpt>
      <trkpt lat="45.6825" lon="4.63836">
        <ele>388.6</ele>
        <time>2025-12-15T14:37:57Z</time>
      </trkpt>
      <trkpt lat="45.68253" lon="4.63844">
        <ele>388.4</ele>
        <time>2025-12-15T14:37:58Z</time>
      </trkpt>
      <trkpt lat="45.68254" lon="4.63853">
        <ele>388.2</ele>
        <time>2025-12-15T14:37:59Z</time>
      </trkpt>
      <trkpt lat="45.68255" lon="4.63862">
        <ele>388</ele>
        <time>2025-12-15T14:38:00Z</time>
      </trkpt>
      <trkpt lat="45.68255" lon="4.63872">
        <ele>387.8</ele>
        <time>2025-12-15T14:38:01Z</time>
      </trkpt>
      <trkpt lat="45.68255" lon="4.63881">
        <ele>387.6</ele>
        <time>2025-12-15T14:38:02Z</time>
      </trkpt>
      <trkpt lat="45.68254" lon="4.6389">
        <ele>387.4</ele>
        <time>2025-12-15T14:38:03Z</time>
      </trkpt>
      <trkpt lat="45.68254" lon="4.63899">
        <ele>387.2</ele>
        <time>2025-12-15T14:38:04Z</time>
      </trkpt>
      <trkpt lat="45.68253" lon="4.63908">
        <ele>387</ele>
        <time>2025-12-15T14:38:05Z</time>
      </trkpt>
      <trkpt lat="45.68253" lon="4.63915">
        <ele>387</ele>
        <time>2025-12-15T14:38:06Z</time>
      </trkpt>
      <trkpt lat="45.68254" lon="4.63921">
        <ele>387.2</ele>
        <time>2025-12-15T14:38:07Z</time>
      </trkpt>
      <trkpt lat="45.68256" lon="4.63925">
        <ele>387.2</ele>
        <time>2025-12-15T14:38:08Z</time>
      </trkpt>
      <trkpt lat="45.68259" lon="4.63927">
        <ele>387.2</ele>
        <time>2025-12-15T14:38:09Z</time>
      </trkpt>
      <trkpt lat="45.68262" lon="4.63929">
        <ele>387.4</ele>
        <time>2025-12-15T14:38:10Z</time>
      </trkpt>
      <trkpt lat="45.68265" lon="4.63929">
        <ele>387.4</ele>
        <time>2025-12-15T14:38:11Z</time>
      </trkpt>
      <trkpt lat="45.68268" lon="4.63928">
        <ele>387.6</ele>
        <time>2025-12-15T14:38:12Z</time>
      </trkpt>
      <trkpt lat="45.68271" lon="4.63926">
        <ele>387.8</ele>
        <time>2025-12-15T14:38:13Z</time>
      </trkpt>
      <trkpt lat="45.68275" lon="4.63924">
        <ele>388</ele>
        <time>2025-12-15T14:38:14Z</time>
      </trkpt>
      <trkpt lat="45.68278" lon="4.63922">
        <ele>388.2</ele>
        <time>2025-12-15T14:38:15Z</time>
      </trkpt>
      <trkpt lat="45.68282" lon="4.63919">
        <ele>388.6</ele>
        <time>2025-12-15T14:38:16Z</time>
      </trkpt>
      <trkpt lat="45.68286" lon="4.63915">
        <ele>388.8</ele>
        <time>2025-12-15T14:38:17Z</time>
      </trkpt>
      <trkpt lat="45.68289" lon="4.63912">
        <ele>389</ele>
        <time>2025-12-15T14:38:18Z</time>
      </trkpt>
      <trkpt lat="45.68293" lon="4.6391">
        <ele>389.2</ele>
        <time>2025-12-15T14:38:19Z</time>
      </trkpt>
      <trkpt lat="45.68296" lon="4.63906">
        <ele>389.4</ele>
        <time>2025-12-15T14:38:20Z</time>
      </trkpt>
      <trkpt lat="45.683" lon="4.63903">
        <ele>389.4</ele>
        <time>2025-12-15T14:38:21Z</time>
      </trkpt>
      <trkpt lat="45.68303" lon="4.639">
        <ele>389.6</ele>
        <time>2025-12-15T14:38:22Z</time>
      </trkpt>
      <trkpt lat="45.68307" lon="4.63897">
        <ele>389.8</ele>
        <time>2025-12-15T14:38:23Z</time>
      </trkpt>
      <trkpt lat="45.6831" lon="4.63895">
        <ele>390</ele>
        <time>2025-12-15T14:38:24Z</time>
      </trkpt>
      <trkpt lat="45.68314" lon="4.63892">
        <ele>390.2</ele>
        <time>2025-12-15T14:38:25Z</time>
      </trkpt>
      <trkpt lat="45.68318" lon="4.6389">
        <ele>390.6</ele>
        <time>2025-12-15T14:38:26Z</time>
      </trkpt>
      <trkpt lat="45.68321" lon="4.63888">
        <ele>391</ele>
        <time>2025-12-15T14:38:27Z</time>
      </trkpt>
      <trkpt lat="45.68325" lon="4.63885">
        <ele>391.2</ele>
        <time>2025-12-15T14:38:28Z</time>
      </trkpt>
      <trkpt lat="45.68328" lon="4.63883">
        <ele>391.6</ele>
        <time>2025-12-15T14:38:29Z</time>
      </trkpt>
      <trkpt lat="45.68332" lon="4.63881">
        <ele>392</ele>
        <time>2025-12-15T14:38:30Z</time>
      </trkpt>
      <trkpt lat="45.68336" lon="4.63879">
        <ele>392.2</ele>
        <time>2025-12-15T14:38:31Z</time>
      </trkpt>
      <trkpt lat="45.68339" lon="4.63876">
        <ele>392.6</ele>
        <time>2025-12-15T14:38:32Z</time>
      </trkpt>
      <trkpt lat="45.68343" lon="4.63875">
        <ele>393</ele>
        <time>2025-12-15T14:38:33Z</time>
      </trkpt>
      <trkpt lat="45.68347" lon="4.63873">
        <ele>393.4</ele>
        <time>2025-12-15T14:38:34Z</time>
      </trkpt>
      <trkpt lat="45.6835" lon="4.63872">
        <ele>393.8</ele>
        <time>2025-12-15T14:38:35Z</time>
      </trkpt>
      <trkpt lat="45.68354" lon="4.63871">
        <ele>394.4</ele>
        <time>2025-12-15T14:38:36Z</time>
      </trkpt>
      <trkpt lat="45.68358" lon="4.6387">
        <ele>395</ele>
        <time>2025-12-15T14:38:37Z</time>
      </trkpt>
      <trkpt lat="45.68362" lon="4.63871">
        <ele>395.6</ele>
        <time>2025-12-15T14:38:38Z</time>
      </trkpt>
      <trkpt lat="45.68366" lon="4.63872">
        <ele>396</ele>
        <time>2025-12-15T14:38:39Z</time>
      </trkpt>
      <trkpt lat="45.68369" lon="4.63873">
        <ele>396.6</ele>
        <time>2025-12-15T14:38:40Z</time>
      </trkpt>
      <trkpt lat="45.68373" lon="4.63874">
        <ele>397</ele>
        <time>2025-12-15T14:38:41Z</time>
      </trkpt>
      <trkpt lat="45.68376" lon="4.63874">
        <ele>397.4</ele>
        <time>2025-12-15T14:38:42Z</time>
      </trkpt>
      <trkpt lat="45.6838" lon="4.63875">
        <ele>397.6</ele>
        <time>2025-12-15T14:38:43Z</time>
      </trkpt>
      <trkpt lat="45.68384" lon="4.63876">
        <ele>398</ele>
        <time>2025-12-15T14:38:44Z</time>
      </trkpt>
      <trkpt lat="45.68388" lon="4.63877">
        <ele>398.4</ele>
        <time>2025-12-15T14:38:45Z</time>
      </trkpt>
      <trkpt lat="45.68392" lon="4.63878">
        <ele>398.8</ele>
        <time>2025-12-15T14:38:46Z</time>
      </trkpt>
      <trkpt lat="45.68396" lon="4.63878">
        <ele>399.2</ele>
        <time>2025-12-15T14:38:47Z</time>
      </trkpt>
      <trkpt lat="45.684" lon="4.63878">
        <ele>399.4</ele>
        <time>2025-12-15T14:38:48Z</time>
      </trkpt>
      <trkpt lat="45.68404" lon="4.63877">
        <ele>399.8</ele>
        <time>2025-12-15T14:38:49Z</time>
      </trkpt>
      <trkpt lat="45.68408" lon="4.63877">
        <ele>400.2</ele>
        <time>2025-12-15T14:38:50Z</time>
      </trkpt>
      <trkpt lat="45.68412" lon="4.63876">
        <ele>400.4</ele>
        <time>2025-12-15T14:38:51Z</time>
      </trkpt>
      <trkpt lat="45.68416" lon="4.63874">
        <ele>400.8</ele>
        <time>2025-12-15T14:38:52Z</time>
      </trkpt>
      <trkpt lat="45.6842" lon="4.63872">
        <ele>401</ele>
        <time>2025-12-15T14:38:53Z</time>
      </trkpt>
      <trkpt lat="45.68424" lon="4.6387">
        <ele>401.2</ele>
        <time>2025-12-15T14:38:54Z</time>
      </trkpt>
      <trkpt lat="45.68428" lon="4.63868">
        <ele>401.4</ele>
        <time>2025-12-15T14:38:55Z</time>
      </trkpt>
      <trkpt lat="45.68431" lon="4.63866">
        <ele>401.6</ele>
        <time>2025-12-15T14:38:56Z</time>
      </trkpt>
      <trkpt lat="45.68435" lon="4.63864">
        <ele>401.8</ele>
        <time>2025-12-15T14:38:57Z</time>
      </trkpt>
      <trkpt lat="45.68439" lon="4.63862">
        <ele>402</ele>
        <time>2025-12-15T14:38:58Z</time>
      </trkpt>
      <trkpt lat="45.68442" lon="4.63859">
        <ele>402.2</ele>
        <time>2025-12-15T14:38:59Z</time>
      </trkpt>
      <trkpt lat="45.68446" lon="4.63857">
        <ele>402.4</ele>
        <time>2025-12-15T14:39:00Z</time>
      </trkpt>
      <trkpt lat="45.6845" lon="4.63855">
        <ele>402.6</ele>
        <time>2025-12-15T14:39:01Z</time>
      </trkpt>
      <trkpt lat="45.68453" lon="4.63853">
        <ele>402.8</ele>
        <time>2025-12-15T14:39:02Z</time>
      </trkpt>
      <trkpt lat="45.68457" lon="4.63851">
        <ele>403.2</ele>
        <time>2025-12-15T14:39:03Z</time>
      </trkpt>
      <trkpt lat="45.68461" lon="4.63849">
        <ele>403.4</ele>
        <time>2025-12-15T14:39:04Z</time>
      </trkpt>
      <trkpt lat="45.68465" lon="4.63846">
        <ele>403.8</ele>
        <time>2025-12-15T14:39:05Z</time>
      </trkpt>
      <trkpt lat="45.68468" lon="4.63844">
        <ele>404</ele>
        <time>2025-12-15T14:39:06Z</time>
      </trkpt>
      <trkpt lat="45.68472" lon="4.63841">
        <ele>404.2</ele>
        <time>2025-12-15T14:39:07Z</time>
      </trkpt>
      <trkpt lat="45.68476" lon="4.63838">
        <ele>404.4</ele>
        <time>2025-12-15T14:39:08Z</time>
      </trkpt>
      <trkpt lat="45.68479" lon="4.63835">
        <ele>404.6</ele>
        <time>2025-12-15T14:39:09Z</time>
      </trkpt>
      <trkpt lat="45.68483" lon="4.63832">
        <ele>404.8</ele>
        <time>2025-12-15T14:39:10Z</time>
      </trkpt>
      <trkpt lat="45.68486" lon="4.63829">
        <ele>405</ele>
        <time>2025-12-15T14:39:11Z</time>
      </trkpt>
      <trkpt lat="45.6849" lon="4.63827">
        <ele>405.2</ele>
        <time>2025-12-15T14:39:12Z</time>
      </trkpt>
      <trkpt lat="45.68493" lon="4.63824">
        <ele>405.6</ele>
        <time>2025-12-15T14:39:13Z</time>
      </trkpt>
      <trkpt lat="45.68497" lon="4.63821">
        <ele>405.8</ele>
        <time>2025-12-15T14:39:14Z</time>
      </trkpt>
      <trkpt lat="45.685" lon="4.63818">
        <ele>406</ele>
        <time>2025-12-15T14:39:15Z</time>
      </trkpt>
      <trkpt lat="45.68504" lon="4.63815">
        <ele>406.2</ele>
        <time>2025-12-15T14:39:16Z</time>
      </trkpt>
      <trkpt lat="45.68507" lon="4.63812">
        <ele>406.4</ele>
        <time>2025-12-15T14:39:17Z</time>
      </trkpt>
      <trkpt lat="45.68511" lon="4.63809">
        <ele>406.6</ele>
        <time>2025-12-15T14:39:18Z</time>
      </trkpt>
      <trkpt lat="45.68515" lon="4.63805">
        <ele>407</ele>
        <time>2025-12-15T14:39:19Z</time>
      </trkpt>
      <trkpt lat="45.68518" lon="4.63802">
        <ele>407.2</ele>
        <time>2025-12-15T14:39:20Z</time>
      </trkpt>
      <trkpt lat="45.68521" lon="4.63799">
        <ele>407.4</ele>
        <time>2025-12-15T14:39:21Z</time>
      </trkpt>
      <trkpt lat="45.68525" lon="4.63796">
        <ele>407.6</ele>
        <time>2025-12-15T14:39:22Z</time>
      </trkpt>
      <trkpt lat="45.68528" lon="4.63793">
        <ele>407.8</ele>
        <time>2025-12-15T14:39:23Z</time>
      </trkpt>
      <trkpt lat="45.68532" lon="4.6379">
        <ele>408.2</ele>
        <time>2025-12-15T14:39:24Z</time>
      </trkpt>
      <trkpt lat="45.68536" lon="4.63787">
        <ele>408.4</ele>
        <time>2025-12-15T14:39:25Z</time>
      </trkpt>
      <trkpt lat="45.68539" lon="4.63784">
        <ele>408.6</ele>
        <time>2025-12-15T14:39:26Z</time>
      </trkpt>
      <trkpt lat="45.68543" lon="4.63781">
        <ele>408.8</ele>
        <time>2025-12-15T14:39:27Z</time>
      </trkpt>
      <trkpt lat="45.68547" lon="4.63777">
        <ele>408.8</ele>
        <time>2025-12-15T14:39:28Z</time>
      </trkpt>
      <trkpt lat="45.68551" lon="4.63774">
        <ele>409</ele>
        <time>2025-12-15T14:39:29Z</time>
      </trkpt>
      <trkpt lat="45.68554" lon="4.63771">
        <ele>409</ele>
        <time>2025-12-15T14:39:30Z</time>
      </trkpt>
      <trkpt lat="45.68558" lon="4.63768">
        <ele>409.2</ele>
        <time>2025-12-15T14:39:31Z</time>
      </trkpt>
      <trkpt lat="45.68561" lon="4.63765">
        <ele>409.4</ele>
        <time>2025-12-15T14:39:32Z</time>
      </trkpt>
      <trkpt lat="45.68565" lon="4.63762">
        <ele>409.6</ele>
        <time>2025-12-15T14:39:33Z</time>
      </trkpt>
      <trkpt lat="45.68568" lon="4.63759">
        <ele>410</ele>
        <time>2025-12-15T14:39:34Z</time>
      </trkpt>
      <trkpt lat="45.68571" lon="4.63756">
        <ele>410.2</ele>
        <time>2025-12-15T14:39:35Z</time>
      </trkpt>
      <trkpt lat="45.68575" lon="4.63753">
        <ele>410.6</ele>
        <time>2025-12-15T14:39:36Z</time>
      </trkpt>
      <trkpt lat="45.68578" lon="4.6375">
        <ele>410.8</ele>
        <time>2025-12-15T14:39:37Z</time>
      </trkpt>
      <trkpt lat="45.68581" lon="4.63747">
        <ele>411.2</ele>
        <time>2025-12-15T14:39:38Z</time>
      </trkpt>
      <trkpt lat="45.68584" lon="4.63744">
        <ele>411.8</ele>
        <time>2025-12-15T14:39:39Z</time>
      </trkpt>
      <trkpt lat="45.68587" lon="4.63741">
        <ele>412.2</ele>
        <time>2025-12-15T14:39:40Z</time>
      </trkpt>
      <trkpt lat="45.6859" lon="4.63737">
        <ele>412.6</ele>
        <time>2025-12-15T14:39:41Z</time>
      </trkpt>
      <trkpt lat="45.68593" lon="4.63733">
        <ele>412.8</ele>
        <time>2025-12-15T14:39:42Z</time>
      </trkpt>
      <trkpt lat="45.68596" lon="4.6373">
        <ele>413</ele>
        <time>2025-12-15T14:39:43Z</time>
      </trkpt>
      <trkpt lat="45.68598" lon="4.63726">
        <ele>413.4</ele>
        <time>2025-12-15T14:39:44Z</time>
      </trkpt>
      <trkpt lat="45.68601" lon="4.63721">
        <ele>413.6</ele>
        <time>2025-12-15T14:39:45Z</time>
      </trkpt>
      <trkpt lat="45.68603" lon="4.63717">
        <ele>413.8</ele>
        <time>2025-12-15T14:39:46Z</time>
      </trkpt>
      <trkpt lat="45.68605" lon="4.63713">
        <ele>414.2</ele>
        <time>2025-12-15T14:39:47Z</time>
      </trkpt>
      <trkpt lat="45.68607" lon="4.63709">
        <ele>414.4</ele>
        <time>2025-12-15T14:39:48Z</time>
      </trkpt>
      <trkpt lat="45.6861" lon="4.63704">
        <ele>414.6</ele>
        <time>2025-12-15T14:39:49Z</time>
      </trkpt>
      <trkpt lat="45.68612" lon="4.637">
        <ele>414.8</ele>
        <time>2025-12-15T14:39:50Z</time>
      </trkpt>
      <trkpt lat="45.68614" lon="4.63696">
        <ele>415</ele>
        <time>2025-12-15T14:39:51Z</time>
      </trkpt>
      <trkpt lat="45.68616" lon="4.63691">
        <ele>415.4</ele>
        <time>2025-12-15T14:39:52Z</time>
      </trkpt>
      <trkpt lat="45.68618" lon="4.63687">
        <ele>415.6</ele>
        <time>2025-12-15T14:39:53Z</time>
      </trkpt>
      <trkpt lat="45.6862" lon="4.63683">
        <ele>415.8</ele>
        <time>2025-12-15T14:39:54Z</time>
      </trkpt>
      <trkpt lat="45.68622" lon="4.63679">
        <ele>416</ele>
        <time>2025-12-15T14:39:55Z</time>
      </trkpt>
      <trkpt lat="45.68625" lon="4.63675">
        <ele>416</ele>
        <time>2025-12-15T14:39:56Z</time>
      </trkpt>
      <trkpt lat="45.68627" lon="4.63671">
        <ele>416.2</ele>
        <time>2025-12-15T14:39:57Z</time>
      </trkpt>
      <trkpt lat="45.68629" lon="4.63667">
        <ele>416.6</ele>
        <time>2025-12-15T14:39:58Z</time>
      </trkpt>
      <trkpt lat="45.68632" lon="4.63663">
        <ele>417</ele>
        <time>2025-12-15T14:39:59Z</time>
      </trkpt>
      <trkpt lat="45.68634" lon="4.63659">
        <ele>417.4</ele>
        <time>2025-12-15T14:40:00Z</time>
      </trkpt>
      <trkpt lat="45.68637" lon="4.63655">
        <ele>417.8</ele>
        <time>2025-12-15T14:40:01Z</time>
      </trkpt>
      <trkpt lat="45.68639" lon="4.6365">
        <ele>418.6</ele>
        <time>2025-12-15T14:40:02Z</time>
      </trkpt>
      <trkpt lat="45.68642" lon="4.63646">
        <ele>419.2</ele>
        <time>2025-12-15T14:40:03Z</time>
      </trkpt>
      <trkpt lat="45.68644" lon="4.63642">
        <ele>419.6</ele>
        <time>2025-12-15T14:40:04Z</time>
      </trkpt>
      <trkpt lat="45.68647" lon="4.63637">
        <ele>420.2</ele>
        <time>2025-12-15T14:40:05Z</time>
      </trkpt>
      <trkpt lat="45.68649" lon="4.63633">
        <ele>420.4</ele>
        <time>2025-12-15T14:40:06Z</time>
      </trkpt>
      <trkpt lat="45.68652" lon="4.63628">
        <ele>420.6</ele>
        <time>2025-12-15T14:40:07Z</time>
      </trkpt>
      <trkpt lat="45.68655" lon="4.63624">
        <ele>420.6</ele>
        <time>2025-12-15T14:40:08Z</time>
      </trkpt>
      <trkpt lat="45.68657" lon="4.6362">
        <ele>420.6</ele>
        <time>2025-12-15T14:40:09Z</time>
      </trkpt>
      <trkpt lat="45.6866" lon="4.63615">
        <ele>420.8</ele>
        <time>2025-12-15T14:40:10Z</time>
      </trkpt>
      <trkpt lat="45.68662" lon="4.63611">
        <ele>420.8</ele>
        <time>2025-12-15T14:40:11Z</time>
      </trkpt>
      <trkpt lat="45.68665" lon="4.63606">
        <ele>420.8</ele>
        <time>2025-12-15T14:40:12Z</time>
      </trkpt>
      <trkpt lat="45.68667" lon="4.63602">
        <ele>420.8</ele>
        <time>2025-12-15T14:40:13Z</time>
      </trkpt>
      <trkpt lat="45.6867" lon="4.63597">
        <ele>420.8</ele>
        <time>2025-12-15T14:40:14Z</time>
      </trkpt>
      <trkpt lat="45.68672" lon="4.63593">
        <ele>420.8</ele>
        <time>2025-12-15T14:40:15Z</time>
      </trkpt>
      <trkpt lat="45.68674" lon="4.63589">
        <ele>420.8</ele>
        <time>2025-12-15T14:40:16Z</time>
      </trkpt>
      <trkpt lat="45.68677" lon="4.63585">
        <ele>420.8</ele>
        <time>2025-12-15T14:40:17Z</time>
      </trkpt>
      <trkpt lat="45.68679" lon="4.63581">
        <ele>420.6</ele>
        <time>2025-12-15T14:40:18Z</time>
      </trkpt>
      <trkpt lat="45.68682" lon="4.63577">
        <ele>420.6</ele>
        <time>2025-12-15T14:40:19Z</time>
      </trkpt>
      <trkpt lat="45.68684" lon="4.63575">
        <ele>420.8</ele>
        <time>2025-12-15T14:40:20Z</time>
      </trkpt>
      <trkpt lat="45.68687" lon="4.63574">
        <ele>421</ele>
        <time>2025-12-15T14:40:21Z</time>
      </trkpt>
      <trkpt lat="45.6869" lon="4.63574">
        <ele>421</ele>
        <time>2025-12-15T14:40:22Z</time>
      </trkpt>
      <trkpt lat="45.68694" lon="4.63574">
        <ele>421.2</ele>
        <time>2025-12-15T14:40:23Z</time>
      </trkpt>
      <trkpt lat="45.68697" lon="4.63574">
        <ele>421.2</ele>
        <time>2025-12-15T14:40:24Z</time>
      </trkpt>
      <trkpt lat="45.68702" lon="4.63574">
        <ele>421.2</ele>
        <time>2025-12-15T14:40:25Z</time>
      </trkpt>
      <trkpt lat="45.68707" lon="4.63573">
        <ele>421</ele>
        <time>2025-12-15T14:40:26Z</time>
      </trkpt>
      <trkpt lat="45.68712" lon="4.63571">
        <ele>420.6</ele>
        <time>2025-12-15T14:40:27Z</time>
      </trkpt>
      <trkpt lat="45.68718" lon="4.63569">
        <ele>420.2</ele>
        <time>2025-12-15T14:40:28Z</time>
      </trkpt>
      <trkpt lat="45.68724" lon="4.63568">
        <ele>419.6</ele>
        <time>2025-12-15T14:40:29Z</time>
      </trkpt>
      <trkpt lat="45.6873" lon="4.63568">
        <ele>418.8</ele>
        <time>2025-12-15T14:40:30Z</time>
      </trkpt>
      <trkpt lat="45.68738" lon="4.63569">
        <ele>418</ele>
        <time>2025-12-15T14:40:31Z</time>
      </trkpt>
      <trkpt lat="45.68745" lon="4.63571">
        <ele>417.2</ele>
        <time>2025-12-15T14:40:32Z</time>
      </trkpt>
      <trkpt lat="45.68753" lon="4.63573">
        <ele>416.2</ele>
        <time>2025-12-15T14:40:33Z</time>
      </trkpt>
      <trkpt lat="45.68762" lon="4.63576">
        <ele>415.2</ele>
        <time>2025-12-15T14:40:34Z</time>
      </trkpt>
      <trkpt lat="45.6877" lon="4.63579">
        <ele>414.4</ele>
        <time>2025-12-15T14:40:35Z</time>
      </trkpt>
      <trkpt lat="45.68778" lon="4.63584">
        <ele>413.6</ele>
        <time>2025-12-15T14:40:36Z</time>
      </trkpt>
      <trkpt lat="45.68785" lon="4.63591">
        <ele>413</ele>
        <time>2025-12-15T14:40:37Z</time>
      </trkpt>
      <trkpt lat="45.68791" lon="4.63599">
        <ele>412.6</ele>
        <time>2025-12-15T14:40:38Z</time>
      </trkpt>
      <trkpt lat="45.68796" lon="4.63607">
        <ele>412.4</ele>
        <time>2025-12-15T14:40:39Z</time>
      </trkpt>
      <trkpt lat="45.688" lon="4.63615">
        <ele>412.4</ele>
        <time>2025-12-15T14:40:40Z</time>
      </trkpt>
      <trkpt lat="45.68805" lon="4.63623">
        <ele>412.4</ele>
        <time>2025-12-15T14:40:41Z</time>
      </trkpt>
      <trkpt lat="45.6881" lon="4.6363">
        <ele>412.6</ele>
        <time>2025-12-15T14:40:42Z</time>
      </trkpt>
      <trkpt lat="45.68814" lon="4.63636">
        <ele>412.8</ele>
        <time>2025-12-15T14:40:43Z</time>
      </trkpt>
      <trkpt lat="45.68819" lon="4.63641">
        <ele>413.2</ele>
        <time>2025-12-15T14:40:44Z</time>
      </trkpt>
      <trkpt lat="45.68823" lon="4.63646">
        <ele>413.6</ele>
        <time>2025-12-15T14:40:45Z</time>
      </trkpt>
      <trkpt lat="45.68827" lon="4.63651">
        <ele>414</ele>
        <time>2025-12-15T14:40:46Z</time>
      </trkpt>
      <trkpt lat="45.68831" lon="4.63655">
        <ele>414.6</ele>
        <time>2025-12-15T14:40:47Z</time>
      </trkpt>
      <trkpt lat="45.68836" lon="4.63659">
        <ele>415.2</ele>
        <time>2025-12-15T14:40:48Z</time>
      </trkpt>
      <trkpt lat="45.6884" lon="4.63662">
        <ele>415.8</ele>
        <time>2025-12-15T14:40:49Z</time>
      </trkpt>
      <trkpt lat="45.68843" lon="4.63665">
        <ele>416.6</ele>
        <time>2025-12-15T14:40:50Z</time>
      </trkpt>
      <trkpt lat="45.68847" lon="4.63668">
        <ele>417.4</ele>
        <time>2025-12-15T14:40:51Z</time>
      </trkpt>
      <trkpt lat="45.68851" lon="4.63671">
        <ele>418.2</ele>
        <time>2025-12-15T14:40:52Z</time>
      </trkpt>
      <trkpt lat="45.68854" lon="4.63674">
        <ele>419</ele>
        <time>2025-12-15T14:40:53Z</time>
      </trkpt>
      <trkpt lat="45.68858" lon="4.63677">
        <ele>419.6</ele>
        <time>2025-12-15T14:40:54Z</time>
      </trkpt>
      <trkpt lat="45.68861" lon="4.6368">
        <ele>420.4</ele>
        <time>2025-12-15T14:40:55Z</time>
      </trkpt>
      <trkpt lat="45.68865" lon="4.63682">
        <ele>421</ele>
        <time>2025-12-15T14:40:56Z</time>
      </trkpt>
      <trkpt lat="45.68868" lon="4.63685">
        <ele>421.6</ele>
        <time>2025-12-15T14:40:57Z</time>
      </trkpt>
      <trkpt lat="45.68871" lon="4.63688">
        <ele>422.2</ele>
        <time>2025-12-15T14:40:58Z</time>
      </trkpt>
      <trkpt lat="45.68874" lon="4.63691">
        <ele>422.6</ele>
        <time>2025-12-15T14:40:59Z</time>
      </trkpt>
      <trkpt lat="45.68878" lon="4.63694">
        <ele>423.2</ele>
        <time>2025-12-15T14:41:00Z</time>
      </trkpt>
      <trkpt lat="45.68881" lon="4.63697">
        <ele>423.8</ele>
        <time>2025-12-15T14:41:01Z</time>
      </trkpt>
      <trkpt lat="45.68884" lon="4.63699">
        <ele>424.4</ele>
        <time>2025-12-15T14:41:02Z</time>
      </trkpt>
      <trkpt lat="45.68888" lon="4.63702">
        <ele>425</ele>
        <time>2025-12-15T14:41:03Z</time>
      </trkpt>
      <trkpt lat="45.68891" lon="4.63705">
        <ele>425.8</ele>
        <time>2025-12-15T14:41:04Z</time>
      </trkpt>
      <trkpt lat="45.68894" lon="4.63707">
        <ele>426.4</ele>
        <time>2025-12-15T14:41:05Z</time>
      </trkpt>
      <trkpt lat="45.68898" lon="4.6371">
        <ele>427.2</ele>
        <time>2025-12-15T14:41:06Z</time>
      </trkpt>
      <trkpt lat="45.68901" lon="4.63713">
        <ele>427.8</ele>
        <time>2025-12-15T14:41:07Z</time>
      </trkpt>
      <trkpt lat="45.68904" lon="4.63716">
        <ele>428.4</ele>
        <time>2025-12-15T14:41:08Z</time>
      </trkpt>
      <trkpt lat="45.68908" lon="4.63719">
        <ele>429.2</ele>
        <time>2025-12-15T14:41:09Z</time>
      </trkpt>
      <trkpt lat="45.68911" lon="4.63722">
        <ele>429.8</ele>
        <time>2025-12-15T14:41:10Z</time>
      </trkpt>
      <trkpt lat="45.68915" lon="4.63724">
        <ele>430.2</ele>
        <time>2025-12-15T14:41:11Z</time>
      </trkpt>
      <trkpt lat="45.68918" lon="4.63728">
        <ele>430.8</ele>
        <time>2025-12-15T14:41:12Z</time>
      </trkpt>
      <trkpt lat="45.68921" lon="4.63731">
        <ele>431.2</ele>
        <time>2025-12-15T14:41:13Z</time>
      </trkpt>
      <trkpt lat="45.68925" lon="4.63734">
        <ele>431.6</ele>
        <time>2025-12-15T14:41:14Z</time>
      </trkpt>
      <trkpt lat="45.68928" lon="4.63737">
        <ele>432</ele>
        <time>2025-12-15T14:41:15Z</time>
      </trkpt>
      <trkpt lat="45.68931" lon="4.6374">
        <ele>432.6</ele>
        <time>2025-12-15T14:41:16Z</time>
      </trkpt>
      <trkpt lat="45.68935" lon="4.63743">
        <ele>433</ele>
        <time>2025-12-15T14:41:17Z</time>
      </trkpt>
      <trkpt lat="45.68938" lon="4.63746">
        <ele>433.2</ele>
        <time>2025-12-15T14:41:18Z</time>
      </trkpt>
      <trkpt lat="45.68942" lon="4.63749">
        <ele>433.4</ele>
        <time>2025-12-15T14:41:19Z</time>
      </trkpt>
      <trkpt lat="45.68945" lon="4.63751">
        <ele>433.8</ele>
        <time>2025-12-15T14:41:20Z</time>
      </trkpt>
      <trkpt lat="45.68949" lon="4.63753">
        <ele>434</ele>
        <time>2025-12-15T14:41:21Z</time>
      </trkpt>
      <trkpt lat="45.68953" lon="4.63756">
        <ele>434</ele>
        <time>2025-12-15T14:41:22Z</time>
      </trkpt>
      <trkpt lat="45.68958" lon="4.63758">
        <ele>434.2</ele>
        <time>2025-12-15T14:41:23Z</time>
      </trkpt>
      <trkpt lat="45.68963" lon="4.63759">
        <ele>434</ele>
        <time>2025-12-15T14:41:24Z</time>
      </trkpt>
      <trkpt lat="45.68968" lon="4.63761">
        <ele>434</ele>
        <time>2025-12-15T14:41:25Z</time>
      </trkpt>
      <trkpt lat="45.68973" lon="4.63762">
        <ele>433.8</ele>
        <time>2025-12-15T14:41:26Z</time>
      </trkpt>
      <trkpt lat="45.68978" lon="4.63764">
        <ele>433.8</ele>
        <time>2025-12-15T14:41:27Z</time>
      </trkpt>
      <trkpt lat="45.68983" lon="4.63765">
        <ele>433.8</ele>
        <time>2025-12-15T14:41:28Z</time>
      </trkpt>
      <trkpt lat="45.68989" lon="4.63766">
        <ele>433.6</ele>
        <time>2025-12-15T14:41:29Z</time>
      </trkpt>
      <trkpt lat="45.68994" lon="4.63767">
        <ele>433.6</ele>
        <time>2025-12-15T14:41:30Z</time>
      </trkpt>
      <trkpt lat="45.69" lon="4.63769">
        <ele>433.4</ele>
        <time>2025-12-15T14:41:31Z</time>
      </trkpt>
      <trkpt lat="45.69006" lon="4.6377">
        <ele>433.2</ele>
        <time>2025-12-15T14:41:32Z</time>
      </trkpt>
      <trkpt lat="45.69012" lon="4.63771">
        <ele>433</ele>
        <time>2025-12-15T14:41:33Z</time>
      </trkpt>
      <trkpt lat="45.69019" lon="4.63772">
        <ele>432.6</ele>
        <time>2025-12-15T14:41:34Z</time>
      </trkpt>
      <trkpt lat="45.69026" lon="4.63773">
        <ele>432</ele>
        <time>2025-12-15T14:41:35Z</time>
      </trkpt>
      <trkpt lat="45.69033" lon="4.63774">
        <ele>431.4</ele>
        <time>2025-12-15T14:41:36Z</time>
      </trkpt>
      <trkpt lat="45.6904" lon="4.63773">
        <ele>430.8</ele>
        <time>2025-12-15T14:41:37Z</time>
      </trkpt>
      <trkpt lat="45.69047" lon="4.6377">
        <ele>430.2</ele>
        <time>2025-12-15T14:41:38Z</time>
      </trkpt>
      <trkpt lat="45.69052" lon="4.63763">
        <ele>429.8</ele>
        <time>2025-12-15T14:41:39Z</time>
      </trkpt>
      <trkpt lat="45.69055" lon="4.63755">
        <ele>429.4</ele>
        <time>2025-12-15T14:41:40Z</time>
      </trkpt>
      <trkpt lat="45.69057" lon="4.63746">
        <ele>429.2</ele>
        <time>2025-12-15T14:41:41Z</time>
      </trkpt>
      <trkpt lat="45.69058" lon="4.63737">
        <ele>429.2</ele>
        <time>2025-12-15T14:41:42Z</time>
      </trkpt>
      <trkpt lat="45.69059" lon="4.63728">
        <ele>429</ele>
        <time>2025-12-15T14:41:43Z</time>
      </trkpt>
      <trkpt lat="45.6906" lon="4.6372">
        <ele>429</ele>
        <time>2025-12-15T14:41:44Z</time>
      </trkpt>
      <trkpt lat="45.6906" lon="4.63711">
        <ele>428.8</ele>
        <time>2025-12-15T14:41:45Z</time>
      </trkpt>
      <trkpt lat="45.69061" lon="4.63703">
        <ele>428.8</ele>
        <time>2025-12-15T14:41:46Z</time>
      </trkpt>
      <trkpt lat="45.69061" lon="4.63694">
        <ele>428.8</ele>
        <time>2025-12-15T14:41:47Z</time>
      </trkpt>
      <trkpt lat="45.69062" lon="4.63686">
        <ele>429</ele>
        <time>2025-12-15T14:41:48Z</time>
      </trkpt>
      <trkpt lat="45.69062" lon="4.63678">
        <ele>429</ele>
        <time>2025-12-15T14:41:49Z</time>
      </trkpt>
      <trkpt lat="45.69063" lon="4.63669">
        <ele>429</ele>
        <time>2025-12-15T14:41:50Z</time>
      </trkpt>
      <trkpt lat="45.69064" lon="4.63661">
        <ele>429.2</ele>
        <time>2025-12-15T14:41:51Z</time>
      </trkpt>
      <trkpt lat="45.69066" lon="4.63653">
        <ele>429.4</ele>
        <time>2025-12-15T14:41:52Z</time>
      </trkpt>
      <trkpt lat="45.69068" lon="4.63646">
        <ele>429.6</ele>
        <time>2025-12-15T14:41:53Z</time>
      </trkpt>
      <trkpt lat="45.6907" lon="4.63639">
        <ele>429.8</ele>
        <time>2025-12-15T14:41:54Z</time>
      </trkpt>
      <trkpt lat="45.69073" lon="4.63632">
        <ele>430</ele>
        <time>2025-12-15T14:41:55Z</time>
      </trkpt>
      <trkpt lat="45.69077" lon="4.63626">
        <ele>430.4</ele>
        <time>2025-12-15T14:41:56Z</time>
      </trkpt>
      <trkpt lat="45.6908" lon="4.6362">
        <ele>430.6</ele>
        <time>2025-12-15T14:41:57Z</time>
      </trkpt>
      <trkpt lat="45.69084" lon="4.63615">
        <ele>430.8</ele>
        <time>2025-12-15T14:41:58Z</time>
      </trkpt>
      <trkpt lat="45.69089" lon="4.6361">
        <ele>431</ele>
        <time>2025-12-15T14:41:59Z</time>
      </trkpt>
      <trkpt lat="45.69094" lon="4.63606">
        <ele>431</ele>
        <time>2025-12-15T14:42:00Z</time>
      </trkpt>
      <trkpt lat="45.691" lon="4.63602">
        <ele>431</ele>
        <time>2025-12-15T14:42:01Z</time>
      </trkpt>
      <trkpt lat="45.69106" lon="4.63598">
        <ele>430.8</ele>
        <time>2025-12-15T14:42:02Z</time>
      </trkpt>
      <trkpt lat="45.69113" lon="4.63596">
        <ele>430.4</ele>
        <time>2025-12-15T14:42:03Z</time>
      </trkpt>
      <trkpt lat="45.6912" lon="4.63593">
        <ele>429.8</ele>
        <time>2025-12-15T14:42:04Z</time>
      </trkpt>
      <trkpt lat="45.69127" lon="4.63591">
        <ele>429.2</ele>
        <time>2025-12-15T14:42:05Z</time>
      </trkpt>
      <trkpt lat="45.69134" lon="4.63589">
        <ele>428.6</ele>
        <time>2025-12-15T14:42:06Z</time>
      </trkpt>
      <trkpt lat="45.69142" lon="4.63586">
        <ele>427.8</ele>
        <time>2025-12-15T14:42:07Z</time>
      </trkpt>
      <trkpt lat="45.6915" lon="4.63584">
        <ele>426.8</ele>
        <time>2025-12-15T14:42:08Z</time>
      </trkpt>
      <trkpt lat="45.69158" lon="4.63581">
        <ele>426</ele>
        <time>2025-12-15T14:42:09Z</time>
      </trkpt>
      <trkpt lat="45.69166" lon="4.63579">
        <ele>425.2</ele>
        <time>2025-12-15T14:42:10Z</time>
      </trkpt>
      <trkpt lat="45.69174" lon="4.63578">
        <ele>424.4</ele>
        <time>2025-12-15T14:42:11Z</time>
      </trkpt>
      <trkpt lat="45.69181" lon="4.63579">
        <ele>423.8</ele>
        <time>2025-12-15T14:42:12Z</time>
      </trkpt>
      <trkpt lat="45.69187" lon="4.63583">
        <ele>423.2</ele>
        <time>2025-12-15T14:42:13Z</time>
      </trkpt>
      <trkpt lat="45.69189" lon="4.6359">
        <ele>422.6</ele>
        <time>2025-12-15T14:42:14Z</time>
      </trkpt>
      <trkpt lat="45.6919" lon="4.63599">
        <ele>422.2</ele>
        <time>2025-12-15T14:42:15Z</time>
      </trkpt>
      <trkpt lat="45.6919" lon="4.63608">
        <ele>422</ele>
        <time>2025-12-15T14:42:16Z</time>
      </trkpt>
      <trkpt lat="45.69189" lon="4.63617">
        <ele>421.8</ele>
        <time>2025-12-15T14:42:17Z</time>
      </trkpt>
      <trkpt lat="45.69187" lon="4.63624">
        <ele>422</ele>
        <time>2025-12-15T14:42:18Z</time>
      </trkpt>
      <trkpt lat="45.69186" lon="4.63632">
        <ele>422</ele>
        <time>2025-12-15T14:42:19Z</time>
      </trkpt>
      <trkpt lat="45.69185" lon="4.63639">
        <ele>422.4</ele>
        <time>2025-12-15T14:42:20Z</time>
      </trkpt>
      <trkpt lat="45.69185" lon="4.63645">
        <ele>423</ele>
        <time>2025-12-15T14:42:21Z</time>
      </trkpt>
      <trkpt lat="45.69185" lon="4.63652">
        <ele>423.4</ele>
        <time>2025-12-15T14:42:22Z</time>
      </trkpt>
      <trkpt lat="45.69186" lon="4.63658">
        <ele>424</ele>
        <time>2025-12-15T14:42:23Z</time>
      </trkpt>
      <trkpt lat="45.69187" lon="4.63663">
        <ele>424.8</ele>
        <time>2025-12-15T14:42:24Z</time>
      </trkpt>
      <trkpt lat="45.69189" lon="4.63668">
        <ele>425.4</ele>
        <time>2025-12-15T14:42:25Z</time>
      </trkpt>
      <trkpt lat="45.6919" lon="4.63673">
        <ele>426</ele>
        <time>2025-12-15T14:42:26Z</time>
      </trkpt>
      <trkpt lat="45.69192" lon="4.63677">
        <ele>426.8</ele>
        <time>2025-12-15T14:42:27Z</time>
      </trkpt>
      <trkpt lat="45.69194" lon="4.63682">
        <ele>427.4</ele>
        <time>2025-12-15T14:42:28Z</time>
      </trkpt>
      <trkpt lat="45.69196" lon="4.63686">
        <ele>428.2</ele>
        <time>2025-12-15T14:42:29Z</time>
      </trkpt>
      <trkpt lat="45.69199" lon="4.63689">
        <ele>428.8</ele>
        <time>2025-12-15T14:42:30Z</time>
      </trkpt>
      <trkpt lat="45.69201" lon="4.63693">
        <ele>429.6</ele>
        <time>2025-12-15T14:42:31Z</time>
      </trkpt>
      <trkpt lat="45.69204" lon="4.63696">
        <ele>430.4</ele>
        <time>2025-12-15T14:42:32Z</time>
      </trkpt>
      <trkpt lat="45.69207" lon="4.63697">
        <ele>431</ele>
        <time>2025-12-15T14:42:33Z</time>
      </trkpt>
      <trkpt lat="45.6921" lon="4.63695">
        <ele>431.6</ele>
        <time>2025-12-15T14:42:34Z</time>
      </trkpt>
      <trkpt lat="45.69212" lon="4.63693">
        <ele>432.4</ele>
        <time>2025-12-15T14:42:35Z</time>
      </trkpt>
      <trkpt lat="45.69214" lon="4.63689">
        <ele>433</ele>
        <time>2025-12-15T14:42:36Z</time>
      </trkpt>
      <trkpt lat="45.69216" lon="4.63685">
        <ele>433.8</ele>
        <time>2025-12-15T14:42:37Z</time>
      </trkpt>
      <trkpt lat="45.69219" lon="4.63681">
        <ele>434.4</ele>
        <time>2025-12-15T14:42:38Z</time>
      </trkpt>
      <trkpt lat="45.69221" lon="4.63678">
        <ele>435</ele>
        <time>2025-12-15T14:42:39Z</time>
      </trkpt>
      <trkpt lat="45.69224" lon="4.63675">
        <ele>435.6</ele>
        <time>2025-12-15T14:42:40Z</time>
      </trkpt>
      <trkpt lat="45.69227" lon="4.63671">
        <ele>436.2</ele>
        <time>2025-12-15T14:42:41Z</time>
      </trkpt>
      <trkpt lat="45.69229" lon="4.63667">
        <ele>436.8</ele>
        <time>2025-12-15T14:42:42Z</time>
      </trkpt>
      <trkpt lat="45.69232" lon="4.63663">
        <ele>437.4</ele>
        <time>2025-12-15T14:42:43Z</time>
      </trkpt>
      <trkpt lat="45.69235" lon="4.63659">
        <ele>438</ele>
        <time>2025-12-15T14:42:44Z</time>
      </trkpt>
      <trkpt lat="45.69238" lon="4.63656">
        <ele>438.6</ele>
        <time>2025-12-15T14:42:45Z</time>
      </trkpt>
      <trkpt lat="45.69241" lon="4.63653">
        <ele>439</ele>
        <time>2025-12-15T14:42:46Z</time>
      </trkpt>
      <trkpt lat="45.69245" lon="4.6365">
        <ele>439.6</ele>
        <time>2025-12-15T14:42:47Z</time>
      </trkpt>
      <trkpt lat="45.69248" lon="4.63648">
        <ele>440.2</ele>
        <time>2025-12-15T14:42:48Z</time>
      </trkpt>
      <trkpt lat="45.69252" lon="4.63646">
        <ele>440.6</ele>
        <time>2025-12-15T14:42:49Z</time>
      </trkpt>
      <trkpt lat="45.69255" lon="4.63644">
        <ele>441.2</ele>
        <time>2025-12-15T14:42:50Z</time>
      </trkpt>
      <trkpt lat="45.69259" lon="4.63642">
        <ele>441.8</ele>
        <time>2025-12-15T14:42:51Z</time>
      </trkpt>
      <trkpt lat="45.69262" lon="4.63641">
        <ele>442.4</ele>
        <time>2025-12-15T14:42:52Z</time>
      </trkpt>
      <trkpt lat="45.69266" lon="4.63641">
        <ele>443</ele>
        <time>2025-12-15T14:42:53Z</time>
      </trkpt>
      <trkpt lat="45.69269" lon="4.63642">
        <ele>443.8</ele>
        <time>2025-12-15T14:42:54Z</time>
      </trkpt>
      <trkpt lat="45.69273" lon="4.63644">
        <ele>444.2</ele>
        <time>2025-12-15T14:42:55Z</time>
      </trkpt>
      <trkpt lat="45.69276" lon="4.63645">
        <ele>444.6</ele>
        <time>2025-12-15T14:42:56Z</time>
      </trkpt>
      <trkpt lat="45.69279" lon="4.63647">
        <ele>444.8</ele>
        <time>2025-12-15T14:42:57Z</time>
      </trkpt>
      <trkpt lat="45.69282" lon="4.63648">
        <ele>445</ele>
        <time>2025-12-15T14:42:58Z</time>
      </trkpt>
      <trkpt lat="45.69284" lon="4.6365">
        <ele>445.4</ele>
        <time>2025-12-15T14:42:59Z</time>
      </trkpt>
      <trkpt lat="45.69287" lon="4.63652">
        <ele>445.8</ele>
        <time>2025-12-15T14:43:00Z</time>
      </trkpt>
      <trkpt lat="45.6929" lon="4.63653">
        <ele>446.2</ele>
        <time>2025-12-15T14:43:01Z</time>
      </trkpt>
      <trkpt lat="45.69293" lon="4.63655">
        <ele>446.6</ele>
        <time>2025-12-15T14:43:02Z</time>
      </trkpt>
      <trkpt lat="45.69296" lon="4.63657">
        <ele>447</ele>
        <time>2025-12-15T14:43:03Z</time>
      </trkpt>
      <trkpt lat="45.69299" lon="4.63659">
        <ele>447.4</ele>
        <time>2025-12-15T14:43:04Z</time>
      </trkpt>
      <trkpt lat="45.69302" lon="4.63662">
        <ele>447.6</ele>
        <time>2025-12-15T14:43:05Z</time>
      </trkpt>
      <trkpt lat="45.69305" lon="4.63665">
        <ele>447.6</ele>
        <time>2025-12-15T14:43:06Z</time>
      </trkpt>
      <trkpt lat="45.69308" lon="4.63668">
        <ele>447.8</ele>
        <time>2025-12-15T14:43:07Z</time>
      </trkpt>
      <trkpt lat="45.6931" lon="4.6367">
        <ele>448.2</ele>
        <time>2025-12-15T14:43:08Z</time>
      </trkpt>
      <trkpt lat="45.69313" lon="4.63672">
        <ele>448.4</ele>
        <time>2025-12-15T14:43:09Z</time>
      </trkpt>
      <trkpt lat="45.69316" lon="4.63674">
        <ele>448.8</ele>
        <time>2025-12-15T14:43:10Z</time>
      </trkpt>
      <trkpt lat="45.69319" lon="4.63676">
        <ele>449.2</ele>
        <time>2025-12-15T14:43:11Z</time>
      </trkpt>
      <trkpt lat="45.69321" lon="4.63679">
        <ele>449.6</ele>
        <time>2025-12-15T14:43:12Z</time>
      </trkpt>
      <trkpt lat="45.69324" lon="4.63681">
        <ele>450</ele>
        <time>2025-12-15T14:43:13Z</time>
      </trkpt>
      <trkpt lat="45.69327" lon="4.63683">
        <ele>450.6</ele>
        <time>2025-12-15T14:43:14Z</time>
      </trkpt>
      <trkpt lat="45.69329" lon="4.63684">
        <ele>451</ele>
        <time>2025-12-15T14:43:15Z</time>
      </trkpt>
      <trkpt lat="45.69332" lon="4.63686">
        <ele>451.6</ele>
        <time>2025-12-15T14:43:16Z</time>
      </trkpt>
      <trkpt lat="45.69335" lon="4.63687">
        <ele>452.2</ele>
        <time>2025-12-15T14:43:17Z</time>
      </trkpt>
      <trkpt lat="45.69338" lon="4.63689">
        <ele>452.6</ele>
        <time>2025-12-15T14:43:18Z</time>
      </trkpt>
      <trkpt lat="45.6934" lon="4.6369">
        <ele>453.2</ele>
        <time>2025-12-15T14:43:19Z</time>
      </trkpt>
      <trkpt lat="45.69343" lon="4.63692">
        <ele>453.6</ele>
        <time>2025-12-15T14:43:20Z</time>
      </trkpt>
      <trkpt lat="45.69345" lon="4.63693">
        <ele>454</ele>
        <time>2025-12-15T14:43:21Z</time>
      </trkpt>
      <trkpt lat="45.69347" lon="4.63695">
        <ele>454.2</ele>
        <time>2025-12-15T14:43:22Z</time>
      </trkpt>
      <trkpt lat="45.6935" lon="4.63696">
        <ele>454.6</ele>
        <time>2025-12-15T14:43:23Z</time>
      </trkpt>
      <trkpt lat="45.69353" lon="4.63698">
        <ele>454.8</ele>
        <time>2025-12-15T14:43:24Z</time>
      </trkpt>
      <trkpt lat="45.69355" lon="4.637">
        <ele>455</ele>
        <time>2025-12-15T14:43:25Z</time>
      </trkpt>
      <trkpt lat="45.69358" lon="4.63702">
        <ele>455.2</ele>
        <time>2025-12-15T14:43:26Z</time>
      </trkpt>
      <trkpt lat="45.69361" lon="4.63703">
        <ele>455.4</ele>
        <time>2025-12-15T14:43:27Z</time>
      </trkpt>
      <trkpt lat="45.69364" lon="4.63705">
        <ele>455.6</ele>
        <time>2025-12-15T14:43:28Z</time>
      </trkpt>
      <trkpt lat="45.69367" lon="4.63706">
        <ele>455.8</ele>
        <time>2025-12-15T14:43:29Z</time>
      </trkpt>
      <trkpt lat="45.6937" lon="4.63708">
        <ele>455.8</ele>
        <time>2025-12-15T14:43:30Z</time>
      </trkpt>
      <trkpt lat="45.69373" lon="4.6371">
        <ele>456.2</ele>
        <time>2025-12-15T14:43:31Z</time>
      </trkpt>
      <trkpt lat="45.69376" lon="4.63712">
        <ele>456.4</ele>
        <time>2025-12-15T14:43:32Z</time>
      </trkpt>
      <trkpt lat="45.69379" lon="4.63714">
        <ele>456.8</ele>
        <time>2025-12-15T14:43:33Z</time>
      </trkpt>
      <trkpt lat="45.69382" lon="4.63716">
        <ele>457</ele>
        <time>2025-12-15T14:43:34Z</time>
      </trkpt>
      <trkpt lat="45.69385" lon="4.63718">
        <ele>457.4</ele>
        <time>2025-12-15T14:43:35Z</time>
      </trkpt>
      <trkpt lat="45.69388" lon="4.6372">
        <ele>457.8</ele>
        <time>2025-12-15T14:43:36Z</time>
      </trkpt>
      <trkpt lat="45.69391" lon="4.63722">
        <ele>458</ele>
        <time>2025-12-15T14:43:37Z</time>
      </trkpt>
      <trkpt lat="45.69394" lon="4.63724">
        <ele>458.4</ele>
        <time>2025-12-15T14:43:38Z</time>
      </trkpt>
      <trkpt lat="45.69397" lon="4.63726">
        <ele>458.8</ele>
        <time>2025-12-15T14:43:39Z</time>
      </trkpt>
      <trkpt lat="45.694" lon="4.63729">
        <ele>459.2</ele>
        <time>2025-12-15T14:43:40Z</time>
      </trkpt>
      <trkpt lat="45.69403" lon="4.63731">
        <ele>459.6</ele>
        <time>2025-12-15T14:43:41Z</time>
      </trkpt>
      <trkpt lat="45.69406" lon="4.63733">
        <ele>460</ele>
        <time>2025-12-15T14:43:42Z</time>
      </trkpt>
      <trkpt lat="45.69409" lon="4.63735">
        <ele>460.4</ele>
        <time>2025-12-15T14:43:43Z</time>
      </trkpt>
      <trkpt lat="45.69412" lon="4.63737">
        <ele>460.8</ele>
        <time>2025-12-15T14:43:44Z</time>
      </trkpt>
      <trkpt lat="45.69414" lon="4.63738">
        <ele>461.2</ele>
        <time>2025-12-15T14:43:45Z</time>
      </trkpt>
      <trkpt lat="45.69417" lon="4.6374">
        <ele>461.6</ele>
        <time>2025-12-15T14:43:46Z</time>
      </trkpt>
      <trkpt lat="45.69419" lon="4.63742">
        <ele>462</ele>
        <time>2025-12-15T14:43:47Z</time>
      </trkpt>
      <trkpt lat="45.69422" lon="4.63744">
        <ele>462.4</ele>
        <time>2025-12-15T14:43:48Z</time>
      </trkpt>
      <trkpt lat="45.69425" lon="4.63745">
        <ele>462.8</ele>
        <time>2025-12-15T14:43:49Z</time>
      </trkpt>
      <trkpt lat="45.69427" lon="4.63747">
        <ele>463</ele>
        <time>2025-12-15T14:43:50Z</time>
      </trkpt>
      <trkpt lat="45.6943" lon="4.63749">
        <ele>463.4</ele>
        <time>2025-12-15T14:43:51Z</time>
      </trkpt>
      <trkpt lat="45.69433" lon="4.63751">
        <ele>463.8</ele>
        <time>2025-12-15T14:43:52Z</time>
      </trkpt>
      <trkpt lat="45.69436" lon="4.63753">
        <ele>464</ele>
        <time>2025-12-15T14:43:53Z</time>
      </trkpt>
      <trkpt lat="45.69439" lon="4.63754">
        <ele>464.4</ele>
        <time>2025-12-15T14:43:54Z</time>
      </trkpt>
      <trkpt lat="45.69441" lon="4.63756">
        <ele>464.8</ele>
        <time>2025-12-15T14:43:55Z</time>
      </trkpt>
      <trkpt lat="45.69444" lon="4.63758">
        <ele>465.2</ele>
        <time>2025-12-15T14:43:56Z</time>
      </trkpt>
      <trkpt lat="45.69447" lon="4.6376">
        <ele>465.6</ele>
        <time>2025-12-15T14:43:57Z</time>
      </trkpt>
      <trkpt lat="45.69449" lon="4.63762">
        <ele>466</ele>
        <time>2025-12-15T14:43:58Z</time>
      </trkpt>
      <trkpt lat="45.69452" lon="4.63764">
        <ele>466.4</ele>
        <time>2025-12-15T14:43:59Z</time>
      </trkpt>
      <trkpt lat="45.69454" lon="4.63766">
        <ele>466.8</ele>
        <time>2025-12-15T14:44:00Z</time>
      </trkpt>
      <trkpt lat="45.69457" lon="4.63768">
        <ele>467.2</ele>
        <time>2025-12-15T14:44:01Z</time>
      </trkpt>
      <trkpt lat="45.69459" lon="4.6377">
        <ele>467.6</ele>
        <time>2025-12-15T14:44:02Z</time>
      </trkpt>
      <trkpt lat="45.69462" lon="4.63772">
        <ele>468</ele>
        <time>2025-12-15T14:44:03Z</time>
      </trkpt>
      <trkpt lat="45.69464" lon="4.63774">
        <ele>468.4</ele>
        <time>2025-12-15T14:44:04Z</time>
      </trkpt>
      <trkpt lat="45.69467" lon="4.63775">
        <ele>468.8</ele>
        <time>2025-12-15T14:44:05Z</time>
      </trkpt>
      <trkpt lat="45.6947" lon="4.63777">
        <ele>469.2</ele>
        <time>2025-12-15T14:44:06Z</time>
      </trkpt>
      <trkpt lat="45.69472" lon="4.63779">
        <ele>469.6</ele>
        <time>2025-12-15T14:44:07Z</time>
      </trkpt>
      <trkpt lat="45.69474" lon="4.6378">
        <ele>470</ele>
        <time>2025-12-15T14:44:08Z</time>
      </trkpt>
      <trkpt lat="45.69477" lon="4.63782">
        <ele>470.4</ele>
        <time>2025-12-15T14:44:09Z</time>
      </trkpt>
      <trkpt lat="45.69479" lon="4.63784">
        <ele>470.8</ele>
        <time>2025-12-15T14:44:10Z</time>
      </trkpt>
      <trkpt lat="45.69481" lon="4.63786">
        <ele>471.2</ele>
        <time>2025-12-15T14:44:11Z</time>
      </trkpt>
      <trkpt lat="45.69484" lon="4.63788">
        <ele>471.6</ele>
        <time>2025-12-15T14:44:12Z</time>
      </trkpt>
      <trkpt lat="45.69487" lon="4.6379">
        <ele>472</ele>
        <time>2025-12-15T14:44:13Z</time>
      </trkpt>
      <trkpt lat="45.69489" lon="4.63792">
        <ele>472.2</ele>
        <time>2025-12-15T14:44:14Z</time>
      </trkpt>
      <trkpt lat="45.69491" lon="4.63794">
        <ele>472.4</ele>
        <time>2025-12-15T14:44:15Z</time>
      </trkpt>
      <trkpt lat="45.69494" lon="4.63796">
        <ele>472.8</ele>
        <time>2025-12-15T14:44:16Z</time>
      </trkpt>
      <trkpt lat="45.69496" lon="4.63798">
        <ele>473</ele>
        <time>2025-12-15T14:44:17Z</time>
      </trkpt>
      <trkpt lat="45.69499" lon="4.638">
        <ele>473.4</ele>
        <time>2025-12-15T14:44:18Z</time>
      </trkpt>
      <trkpt lat="45.69501" lon="4.63802">
        <ele>473.6</ele>
        <time>2025-12-15T14:44:19Z</time>
      </trkpt>
      <trkpt lat="45.69504" lon="4.63803">
        <ele>474</ele>
        <time>2025-12-15T14:44:20Z</time>
      </trkpt>
      <trkpt lat="45.69506" lon="4.63805">
        <ele>474.4</ele>
        <time>2025-12-15T14:44:21Z</time>
      </trkpt>
      <trkpt lat="45.69509" lon="4.63806">
        <ele>474.8</ele>
        <time>2025-12-15T14:44:22Z</time>
      </trkpt>
      <trkpt lat="45.69511" lon="4.63807">
        <ele>475.2</ele>
        <time>2025-12-15T14:44:23Z</time>
      </trkpt>
      <trkpt lat="45.69514" lon="4.63808">
        <ele>475.8</ele>
        <time>2025-12-15T14:44:24Z</time>
      </trkpt>
      <trkpt lat="45.69516" lon="4.63809">
        <ele>476.2</ele>
        <time>2025-12-15T14:44:25Z</time>
      </trkpt>
      <trkpt lat="45.69519" lon="4.6381">
        <ele>476.6</ele>
        <time>2025-12-15T14:44:26Z</time>
      </trkpt>
      <trkpt lat="45.69521" lon="4.6381">
        <ele>477.2</ele>
        <time>2025-12-15T14:44:27Z</time>
      </trkpt>
      <trkpt lat="45.69524" lon="4.6381">
        <ele>477.6</ele>
        <time>2025-12-15T14:44:28Z</time>
      </trkpt>
      <trkpt lat="45.69527" lon="4.6381">
        <ele>478</ele>
        <time>2025-12-15T14:44:29Z</time>
      </trkpt>
      <trkpt lat="45.69529" lon="4.63811">
        <ele>478.4</ele>
        <time>2025-12-15T14:44:30Z</time>
      </trkpt>
      <trkpt lat="45.69532" lon="4.63811">
        <ele>479</ele>
        <time>2025-12-15T14:44:31Z</time>
      </trkpt>
      <trkpt lat="45.69535" lon="4.63812">
        <ele>479.4</ele>
        <time>2025-12-15T14:44:32Z</time>
      </trkpt>
      <trkpt lat="45.69538" lon="4.63813">
        <ele>479.6</ele>
        <time>2025-12-15T14:44:33Z</time>
      </trkpt>
      <trkpt lat="45.69541" lon="4.63814">
        <ele>480</ele>
        <time>2025-12-15T14:44:34Z</time>
      </trkpt>
      <trkpt lat="45.69544" lon="4.63815">
        <ele>480.2</ele>
        <time>2025-12-15T14:44:35Z</time>
      </trkpt>
      <trkpt lat="45.69547" lon="4.63816">
        <ele>480.4</ele>
        <time>2025-12-15T14:44:36Z</time>
      </trkpt>
      <trkpt lat="45.6955" lon="4.63817">
        <ele>480.6</ele>
        <time>2025-12-15T14:44:37Z</time>
      </trkpt>
      <trkpt lat="45.69553" lon="4.63818">
        <ele>480.8</ele>
        <time>2025-12-15T14:44:38Z</time>
      </trkpt>
      <trkpt lat="45.69556" lon="4.63819">
        <ele>481.2</ele>
        <time>2025-12-15T14:44:39Z</time>
      </trkpt>
      <trkpt lat="45.69559" lon="4.6382">
        <ele>481.4</ele>
        <time>2025-12-15T14:44:40Z</time>
      </trkpt>
      <trkpt lat="45.69562" lon="4.63821">
        <ele>481.8</ele>
        <time>2025-12-15T14:44:41Z</time>
      </trkpt>
      <trkpt lat="45.69564" lon="4.63823">
        <ele>482.2</ele>
        <time>2025-12-15T14:44:42Z</time>
      </trkpt>
      <trkpt lat="45.69567" lon="4.63824">
        <ele>482.8</ele>
        <time>2025-12-15T14:44:43Z</time>
      </trkpt>
      <trkpt lat="45.6957" lon="4.63826">
        <ele>483.2</ele>
        <time>2025-12-15T14:44:44Z</time>
      </trkpt>
      <trkpt lat="45.69573" lon="4.63827">
        <ele>483.6</ele>
        <time>2025-12-15T14:44:45Z</time>
      </trkpt>
      <trkpt lat="45.69575" lon="4.63828">
        <ele>484</ele>
        <time>2025-12-15T14:44:46Z</time>
      </trkpt>
      <trkpt lat="45.69578" lon="4.63829">
        <ele>484.4</ele>
        <time>2025-12-15T14:44:47Z</time>
      </trkpt>
      <trkpt lat="45.69581" lon="4.6383">
        <ele>484.8</ele>
        <time>2025-12-15T14:44:48Z</time>
      </trkpt>
      <trkpt lat="45.69583" lon="4.63832">
        <ele>485.2</ele>
        <time>2025-12-15T14:44:49Z</time>
      </trkpt>
      <trkpt lat="45.69586" lon="4.63833">
        <ele>485.6</ele>
        <time>2025-12-15T14:44:50Z</time>
      </trkpt>
      <trkpt lat="45.69589" lon="4.63835">
        <ele>486</ele>
        <time>2025-12-15T14:44:51Z</time>
      </trkpt>
      <trkpt lat="45.69592" lon="4.63836">
        <ele>486.4</ele>
        <time>2025-12-15T14:44:52Z</time>
      </trkpt>
      <trkpt lat="45.69594" lon="4.63838">
        <ele>486.6</ele>
        <time>2025-12-15T14:44:53Z</time>
      </trkpt>
      <trkpt lat="45.69597" lon="4.63839">
        <ele>487</ele>
        <time>2025-12-15T14:44:54Z</time>
      </trkpt>
      <trkpt lat="45.696" lon="4.63841">
        <ele>487.2</ele>
        <time>2025-12-15T14:44:55Z</time>
      </trkpt>
      <trkpt lat="45.69602" lon="4.63843">
        <ele>487.4</ele>
        <time>2025-12-15T14:44:56Z</time>
      </trkpt>
      <trkpt lat="45.69605" lon="4.63844">
        <ele>487.8</ele>
        <time>2025-12-15T14:44:57Z</time>
      </trkpt>
      <trkpt lat="45.69607" lon="4.63846">
        <ele>488</ele>
        <time>2025-12-15T14:44:58Z</time>
      </trkpt>
      <trkpt lat="45.6961" lon="4.63848">
        <ele>488.2</ele>
        <time>2025-12-15T14:44:59Z</time>
      </trkpt>
      <trkpt lat="45.69613" lon="4.6385">
        <ele>488.6</ele>
        <time>2025-12-15T14:45:00Z</time>
      </trkpt>
      <trkpt lat="45.69615" lon="4.63852">
        <ele>489</ele>
        <time>2025-12-15T14:45:01Z</time>
      </trkpt>
      <trkpt lat="45.69618" lon="4.63854">
        <ele>489.4</ele>
        <time>2025-12-15T14:45:02Z</time>
      </trkpt>
      <trkpt lat="45.6962" lon="4.63856">
        <ele>489.8</ele>
        <time>2025-12-15T14:45:03Z</time>
      </trkpt>
      <trkpt lat="45.69623" lon="4.63858">
        <ele>490.2</ele>
        <time>2025-12-15T14:45:04Z</time>
      </trkpt>
      <trkpt lat="45.69626" lon="4.6386">
        <ele>490.6</ele>
        <time>2025-12-15T14:45:05Z</time>
      </trkpt>
      <trkpt lat="45.69628" lon="4.63862">
        <ele>491</ele>
        <time>2025-12-15T14:45:06Z</time>
      </trkpt>
      <trkpt lat="45.69631" lon="4.63864">
        <ele>491.4</ele>
        <time>2025-12-15T14:45:07Z</time>
      </trkpt>
      <trkpt lat="45.69633" lon="4.63866">
        <ele>491.8</ele>
        <time>2025-12-15T14:45:08Z</time>
      </trkpt>
      <trkpt lat="45.69635" lon="4.63869">
        <ele>492</ele>
        <time>2025-12-15T14:45:09Z</time>
      </trkpt>
      <trkpt lat="45.69638" lon="4.63871">
        <ele>492.4</ele>
        <time>2025-12-15T14:45:10Z</time>
      </trkpt>
      <trkpt lat="45.69641" lon="4.63874">
        <ele>492.8</ele>
        <time>2025-12-15T14:45:11Z</time>
      </trkpt>
      <trkpt lat="45.69643" lon="4.63876">
        <ele>493.2</ele>
        <time>2025-12-15T14:45:12Z</time>
      </trkpt>
      <trkpt lat="45.69646" lon="4.63879">
        <ele>493.4</ele>
        <time>2025-12-15T14:45:13Z</time>
      </trkpt>
      <trkpt lat="45.69648" lon="4.63881">
        <ele>493.6</ele>
        <time>2025-12-15T14:45:14Z</time>
      </trkpt>
      <trkpt lat="45.69651" lon="4.63884">
        <ele>493.8</ele>
        <time>2025-12-15T14:45:15Z</time>
      </trkpt>
      <trkpt lat="45.69653" lon="4.63886">
        <ele>494</ele>
        <time>2025-12-15T14:45:16Z</time>
      </trkpt>
      <trkpt lat="45.69656" lon="4.63887">
        <ele>494.2</ele>
        <time>2025-12-15T14:45:17Z</time>
      </trkpt>
      <trkpt lat="45.69658" lon="4.63889">
        <ele>494.4</ele>
        <time>2025-12-15T14:45:18Z</time>
      </trkpt>
      <trkpt lat="45.69661" lon="4.63892">
        <ele>494.6</ele>
        <time>2025-12-15T14:45:19Z</time>
      </trkpt>
      <trkpt lat="45.69664" lon="4.63893">
        <ele>494.8</ele>
        <time>2025-12-15T14:45:20Z</time>
      </trkpt>
      <trkpt lat="45.69668" lon="4.63896">
        <ele>494.8</ele>
        <time>2025-12-15T14:45:21Z</time>
      </trkpt>
      <trkpt lat="45.69671" lon="4.63898">
        <ele>495</ele>
        <time>2025-12-15T14:45:22Z</time>
      </trkpt>
      <trkpt lat="45.69674" lon="4.639">
        <ele>495.2</ele>
        <time>2025-12-15T14:45:23Z</time>
      </trkpt>
      <trkpt lat="45.69677" lon="4.63901">
        <ele>495.4</ele>
        <time>2025-12-15T14:45:24Z</time>
      </trkpt>
      <trkpt lat="45.6968" lon="4.63902">
        <ele>495.4</ele>
        <time>2025-12-15T14:45:25Z</time>
      </trkpt>
      <trkpt lat="45.69684" lon="4.63904">
        <ele>495.6</ele>
        <time>2025-12-15T14:45:26Z</time>
      </trkpt>
      <trkpt lat="45.69688" lon="4.63905">
        <ele>495.6</ele>
        <time>2025-12-15T14:45:27Z</time>
      </trkpt>
      <trkpt lat="45.69691" lon="4.63906">
        <ele>495.8</ele>
        <time>2025-12-15T14:45:28Z</time>
      </trkpt>
      <trkpt lat="45.69695" lon="4.63907">
        <ele>495.8</ele>
        <time>2025-12-15T14:45:29Z</time>
      </trkpt>
      <trkpt lat="45.69699" lon="4.63908">
        <ele>495.8</ele>
        <time>2025-12-15T14:45:30Z</time>
      </trkpt>
      <trkpt lat="45.69703" lon="4.63908">
        <ele>496</ele>
        <time>2025-12-15T14:45:31Z</time>
      </trkpt>
      <trkpt lat="45.69706" lon="4.63907">
        <ele>496</ele>
        <time>2025-12-15T14:45:32Z</time>
      </trkpt>
      <trkpt lat="45.6971" lon="4.63907">
        <ele>496</ele>
        <time>2025-12-15T14:45:33Z</time>
      </trkpt>
      <trkpt lat="45.69714" lon="4.63907">
        <ele>496.2</ele>
        <time>2025-12-15T14:45:34Z</time>
      </trkpt>
      <trkpt lat="45.69717" lon="4.63907">
        <ele>496.6</ele>
        <time>2025-12-15T14:45:35Z</time>
      </trkpt>
      <trkpt lat="45.69721" lon="4.63907">
        <ele>496.8</ele>
        <time>2025-12-15T14:45:36Z</time>
      </trkpt>
      <trkpt lat="45.69725" lon="4.63907">
        <ele>497</ele>
        <time>2025-12-15T14:45:37Z</time>
      </trkpt>
      <trkpt lat="45.6973" lon="4.63907">
        <ele>497</ele>
        <time>2025-12-15T14:45:38Z</time>
      </trkpt>
      <trkpt lat="45.69734" lon="4.63908">
        <ele>497</ele>
        <time>2025-12-15T14:45:39Z</time>
      </trkpt>
      <trkpt lat="45.69738" lon="4.63908">
        <ele>497</ele>
        <time>2025-12-15T14:45:40Z</time>
      </trkpt>
      <trkpt lat="45.69742" lon="4.63908">
        <ele>497</ele>
        <time>2025-12-15T14:45:41Z</time>
      </trkpt>
      <trkpt lat="45.69746" lon="4.63908">
        <ele>497</ele>
        <time>2025-12-15T14:45:42Z</time>
      </trkpt>
      <trkpt lat="45.6975" lon="4.63908">
        <ele>497</ele>
        <time>2025-12-15T14:45:43Z</time>
      </trkpt>
      <trkpt lat="45.69754" lon="4.63908">
        <ele>497</ele>
        <time>2025-12-15T14:45:44Z</time>
      </trkpt>
      <trkpt lat="45.69758" lon="4.63909">
        <ele>497</ele>
        <time>2025-12-15T14:45:45Z</time>
      </trkpt>
      <trkpt lat="45.69761" lon="4.63909">
        <ele>497</ele>
        <time>2025-12-15T14:45:46Z</time>
      </trkpt>
      <trkpt lat="45.69766" lon="4.63911">
        <ele>497</ele>
        <time>2025-12-15T14:45:47Z</time>
      </trkpt>
      <trkpt lat="45.6977" lon="4.63913">
        <ele>496.8</ele>
        <time>2025-12-15T14:45:48Z</time>
      </trkpt>
      <trkpt lat="45.69775" lon="4.63916">
        <ele>496.6</ele>
        <time>2025-12-15T14:45:49Z</time>
      </trkpt>
      <trkpt lat="45.6978" lon="4.63919">
        <ele>496.4</ele>
        <time>2025-12-15T14:45:50Z</time>
      </trkpt>
      <trkpt lat="45.69786" lon="4.63922">
        <ele>496.2</ele>
        <time>2025-12-15T14:45:51Z</time>
      </trkpt>
      <trkpt lat="45.69791" lon="4.63925">
        <ele>495.8</ele>
        <time>2025-12-15T14:45:52Z</time>
      </trkpt>
      <trkpt lat="45.69795" lon="4.63931">
        <ele>495.6</ele>
        <time>2025-12-15T14:45:53Z</time>
      </trkpt>
      <trkpt lat="45.69796" lon="4.63938">
        <ele>495.2</ele>
        <time>2025-12-15T14:45:54Z</time>
      </trkpt>
      <trkpt lat="45.69794" lon="4.63945">
        <ele>495</ele>
        <time>2025-12-15T14:45:55Z</time>
      </trkpt>
      <trkpt lat="45.69792" lon="4.63951">
        <ele>494.6</ele>
        <time>2025-12-15T14:45:56Z</time>
      </trkpt>
      <trkpt lat="45.69789" lon="4.63958">
        <ele>494.6</ele>
        <time>2025-12-15T14:45:57Z</time>
      </trkpt>
      <trkpt lat="45.69786" lon="4.63964">
        <ele>494.4</ele>
        <time>2025-12-15T14:45:58Z</time>
      </trkpt>
      <trkpt lat="45.69782" lon="4.6397">
        <ele>494.2</ele>
        <time>2025-12-15T14:45:59Z</time>
      </trkpt>
      <trkpt lat="45.69779" lon="4.63976">
        <ele>494</ele>
        <time>2025-12-15T14:46:00Z</time>
      </trkpt>
      <trkpt lat="45.69777" lon="4.63982">
        <ele>493.8</ele>
        <time>2025-12-15T14:46:01Z</time>
      </trkpt>
      <trkpt lat="45.69774" lon="4.63988">
        <ele>493.8</ele>
        <time>2025-12-15T14:46:02Z</time>
      </trkpt>
      <trkpt lat="45.69772" lon="4.63993">
        <ele>493.8</ele>
        <time>2025-12-15T14:46:03Z</time>
      </trkpt>
      <trkpt lat="45.69769" lon="4.63999">
        <ele>494</ele>
        <time>2025-12-15T14:46:04Z</time>
      </trkpt>
      <trkpt lat="45.69768" lon="4.64005">
        <ele>494.4</ele>
        <time>2025-12-15T14:46:05Z</time>
      </trkpt>
      <trkpt lat="45.69766" lon="4.64011">
        <ele>494.8</ele>
        <time>2025-12-15T14:46:06Z</time>
      </trkpt>
      <trkpt lat="45.69765" lon="4.64017">
        <ele>495.2</ele>
        <time>2025-12-15T14:46:07Z</time>
      </trkpt>
      <trkpt lat="45.69764" lon="4.64023">
        <ele>495.4</ele>
        <time>2025-12-15T14:46:08Z</time>
      </trkpt>
      <trkpt lat="45.69764" lon="4.64029">
        <ele>495.8</ele>
        <time>2025-12-15T14:46:09Z</time>
      </trkpt>
      <trkpt lat="45.69763" lon="4.64036">
        <ele>496.2</ele>
        <time>2025-12-15T14:46:10Z</time>
      </trkpt>
      <trkpt lat="45.69764" lon="4.64042">
        <ele>496.6</ele>
        <time>2025-12-15T14:46:11Z</time>
      </trkpt>
      <trkpt lat="45.69764" lon="4.64048">
        <ele>496.8</ele>
        <time>2025-12-15T14:46:12Z</time>
      </trkpt>
      <trkpt lat="45.69766" lon="4.64053">
        <ele>497.2</ele>
        <time>2025-12-15T14:46:13Z</time>
      </trkpt>
      <trkpt lat="45.69768" lon="4.64059">
        <ele>497.4</ele>
        <time>2025-12-15T14:46:14Z</time>
      </trkpt>
      <trkpt lat="45.6977" lon="4.64065">
        <ele>497.8</ele>
        <time>2025-12-15T14:46:15Z</time>
      </trkpt>
      <trkpt lat="45.69773" lon="4.6407">
        <ele>498</ele>
        <time>2025-12-15T14:46:16Z</time>
      </trkpt>
      <trkpt lat="45.69775" lon="4.64075">
        <ele>498.2</ele>
        <time>2025-12-15T14:46:17Z</time>
      </trkpt>
      <trkpt lat="45.69778" lon="4.6408">
        <ele>498.4</ele>
        <time>2025-12-15T14:46:18Z</time>
      </trkpt>
      <trkpt lat="45.69781" lon="4.64085">
        <ele>498.6</ele>
        <time>2025-12-15T14:46:19Z</time>
      </trkpt>
      <trkpt lat="45.69784" lon="4.6409">
        <ele>499</ele>
        <time>2025-12-15T14:46:20Z</time>
      </trkpt>
      <trkpt lat="45.69788" lon="4.64094">
        <ele>499.2</ele>
        <time>2025-12-15T14:46:21Z</time>
      </trkpt>
      <trkpt lat="45.69791" lon="4.64099">
        <ele>499.4</ele>
        <time>2025-12-15T14:46:22Z</time>
      </trkpt>
      <trkpt lat="45.69794" lon="4.64103">
        <ele>499.8</ele>
        <time>2025-12-15T14:46:23Z</time>
      </trkpt>
      <trkpt lat="45.69797" lon="4.64108">
        <ele>500.4</ele>
        <time>2025-12-15T14:46:24Z</time>
      </trkpt>
      <trkpt lat="45.69801" lon="4.64112">
        <ele>500.8</ele>
        <time>2025-12-15T14:46:25Z</time>
      </trkpt>
      <trkpt lat="45.69803" lon="4.64116">
        <ele>501.4</ele>
        <time>2025-12-15T14:46:26Z</time>
      </trkpt>
      <trkpt lat="45.69806" lon="4.6412">
        <ele>501.8</ele>
        <time>2025-12-15T14:46:27Z</time>
      </trkpt>
      <trkpt lat="45.69809" lon="4.64125">
        <ele>502</ele>
        <time>2025-12-15T14:46:28Z</time>
      </trkpt>
      <trkpt lat="45.69811" lon="4.6413">
        <ele>502</ele>
        <time>2025-12-15T14:46:29Z</time>
      </trkpt>
      <trkpt lat="45.69812" lon="4.64137">
        <ele>501.8</ele>
        <time>2025-12-15T14:46:30Z</time>
      </trkpt>
      <trkpt lat="45.69812" lon="4.64145">
        <ele>501.4</ele>
        <time>2025-12-15T14:46:31Z</time>
      </trkpt>
      <trkpt lat="45.6981" lon="4.64152">
        <ele>500.8</ele>
        <time>2025-12-15T14:46:32Z</time>
      </trkpt>
      <trkpt lat="45.69806" lon="4.64158">
        <ele>500.4</ele>
        <time>2025-12-15T14:46:33Z</time>
      </trkpt>
      <trkpt lat="45.69801" lon="4.64163">
        <ele>499.8</ele>
        <time>2025-12-15T14:46:34Z</time>
      </trkpt>
      <trkpt lat="45.69797" lon="4.64167">
        <ele>499.4</ele>
        <time>2025-12-15T14:46:35Z</time>
      </trkpt>
      <trkpt lat="45.69793" lon="4.64171">
        <ele>499.4</ele>
        <time>2025-12-15T14:46:36Z</time>
      </trkpt>
      <trkpt lat="45.6979" lon="4.64176">
        <ele>499.4</ele>
        <time>2025-12-15T14:46:37Z</time>
      </trkpt>
      <trkpt lat="45.69788" lon="4.64181">
        <ele>499.6</ele>
        <time>2025-12-15T14:46:38Z</time>
      </trkpt>
      <trkpt lat="45.69785" lon="4.64185">
        <ele>500</ele>
        <time>2025-12-15T14:46:39Z</time>
      </trkpt>
      <trkpt lat="45.69783" lon="4.64189">
        <ele>500.6</ele>
        <time>2025-12-15T14:46:40Z</time>
      </trkpt>
      <trkpt lat="45.6978" lon="4.64193">
        <ele>501.2</ele>
        <time>2025-12-15T14:46:41Z</time>
      </trkpt>
      <trkpt lat="45.69778" lon="4.64198">
        <ele>501.8</ele>
        <time>2025-12-15T14:46:42Z</time>
      </trkpt>
      <trkpt lat="45.69775" lon="4.64202">
        <ele>502.2</ele>
        <time>2025-12-15T14:46:43Z</time>
      </trkpt>
      <trkpt lat="45.69772" lon="4.64206">
        <ele>502.6</ele>
        <time>2025-12-15T14:46:44Z</time>
      </trkpt>
      <trkpt lat="45.69768" lon="4.6421">
        <ele>502.6</ele>
        <time>2025-12-15T14:46:45Z</time>
      </trkpt>
      <trkpt lat="45.69765" lon="4.64214">
        <ele>502.6</ele>
        <time>2025-12-15T14:46:46Z</time>
      </trkpt>
      <trkpt lat="45.69761" lon="4.64218">
        <ele>502.8</ele>
        <time>2025-12-15T14:46:47Z</time>
      </trkpt>
      <trkpt lat="45.69758" lon="4.64221">
        <ele>502.8</ele>
        <time>2025-12-15T14:46:48Z</time>
      </trkpt>
      <trkpt lat="45.69755" lon="4.64225">
        <ele>502.6</ele>
        <time>2025-12-15T14:46:49Z</time>
      </trkpt>
      <trkpt lat="45.69751" lon="4.6423">
        <ele>502.2</ele>
        <time>2025-12-15T14:46:50Z</time>
      </trkpt>
      <trkpt lat="45.69747" lon="4.64234">
        <ele>501.6</ele>
        <time>2025-12-15T14:46:51Z</time>
      </trkpt>
      <trkpt lat="45.69742" lon="4.64238">
        <ele>501</ele>
        <time>2025-12-15T14:46:52Z</time>
      </trkpt>
      <trkpt lat="45.69738" lon="4.64241">
        <ele>500.2</ele>
        <time>2025-12-15T14:46:53Z</time>
      </trkpt>
      <trkpt lat="45.69733" lon="4.64245">
        <ele>499.8</ele>
        <time>2025-12-15T14:46:54Z</time>
      </trkpt>
      <trkpt lat="45.69729" lon="4.6425">
        <ele>499.4</ele>
        <time>2025-12-15T14:46:55Z</time>
      </trkpt>
      <trkpt lat="45.69726" lon="4.64256">
        <ele>499.2</ele>
        <time>2025-12-15T14:46:56Z</time>
      </trkpt>
      <trkpt lat="45.69723" lon="4.64262">
        <ele>499.4</ele>
        <time>2025-12-15T14:46:57Z</time>
      </trkpt>
      <trkpt lat="45.69721" lon="4.64267">
        <ele>499.6</ele>
        <time>2025-12-15T14:46:58Z</time>
      </trkpt>
      <trkpt lat="45.6972" lon="4.64273">
        <ele>500.2</ele>
        <time>2025-12-15T14:46:59Z</time>
      </trkpt>
      <trkpt lat="45.69718" lon="4.64279">
        <ele>500.8</ele>
        <time>2025-12-15T14:47:00Z</time>
      </trkpt>
      <trkpt lat="45.69717" lon="4.64285">
        <ele>501.4</ele>
        <time>2025-12-15T14:47:01Z</time>
      </trkpt>
      <trkpt lat="45.69715" lon="4.64291">
        <ele>502.2</ele>
        <time>2025-12-15T14:47:02Z</time>
      </trkpt>
      <trkpt lat="45.69714" lon="4.64297">
        <ele>502.8</ele>
        <time>2025-12-15T14:47:03Z</time>
      </trkpt>
      <trkpt lat="45.69713" lon="4.64303">
        <ele>503.2</ele>
        <time>2025-12-15T14:47:04Z</time>
      </trkpt>
      <trkpt lat="45.69711" lon="4.64309">
        <ele>503.8</ele>
        <time>2025-12-15T14:47:05Z</time>
      </trkpt>
      <trkpt lat="45.69709" lon="4.64315">
        <ele>504.2</ele>
        <time>2025-12-15T14:47:06Z</time>
      </trkpt>
      <trkpt lat="45.69708" lon="4.64321">
        <ele>504.6</ele>
        <time>2025-12-15T14:47:07Z</time>
      </trkpt>
      <trkpt lat="45.69707" lon="4.64327">
        <ele>505.2</ele>
        <time>2025-12-15T14:47:08Z</time>
      </trkpt>
      <trkpt lat="45.69706" lon="4.64333">
        <ele>505.6</ele>
        <time>2025-12-15T14:47:09Z</time>
      </trkpt>
      <trkpt lat="45.69705" lon="4.64338">
        <ele>506</ele>
        <time>2025-12-15T14:47:10Z</time>
      </trkpt>
      <trkpt lat="45.69705" lon="4.64344">
        <ele>506.2</ele>
        <time>2025-12-15T14:47:11Z</time>
      </trkpt>
      <trkpt lat="45.69704" lon="4.6435">
        <ele>506.4</ele>
        <time>2025-12-15T14:47:12Z</time>
      </trkpt>
      <trkpt lat="45.69704" lon="4.64357">
        <ele>506.6</ele>
        <time>2025-12-15T14:47:13Z</time>
      </trkpt>
      <trkpt lat="45.69704" lon="4.64364">
        <ele>506.6</ele>
        <time>2025-12-15T14:47:14Z</time>
      </trkpt>
      <trkpt lat="45.69705" lon="4.64371">
        <ele>506.4</ele>
        <time>2025-12-15T14:47:15Z</time>
      </trkpt>
      <trkpt lat="45.69706" lon="4.64378">
        <ele>506.2</ele>
        <time>2025-12-15T14:47:16Z</time>
      </trkpt>
      <trkpt lat="45.69707" lon="4.64385">
        <ele>505.8</ele>
        <time>2025-12-15T14:47:17Z</time>
      </trkpt>
      <trkpt lat="45.69709" lon="4.64393">
        <ele>505.6</ele>
        <time>2025-12-15T14:47:18Z</time>
      </trkpt>
      <trkpt lat="45.69711" lon="4.644">
        <ele>505.4</ele>
        <time>2025-12-15T14:47:19Z</time>
      </trkpt>
      <trkpt lat="45.69713" lon="4.64407">
        <ele>505</ele>
        <time>2025-12-15T14:47:20Z</time>
      </trkpt>
      <trkpt lat="45.69717" lon="4.64414">
        <ele>504.6</ele>
        <time>2025-12-15T14:47:21Z</time>
      </trkpt>
      <trkpt lat="45.6972" lon="4.64422">
        <ele>504.2</ele>
        <time>2025-12-15T14:47:22Z</time>
      </trkpt>
      <trkpt lat="45.69725" lon="4.6443">
        <ele>503.6</ele>
        <time>2025-12-15T14:47:23Z</time>
      </trkpt>
      <trkpt lat="45.69731" lon="4.64437">
        <ele>503</ele>
        <time>2025-12-15T14:47:24Z</time>
      </trkpt>
      <trkpt lat="45.69737" lon="4.64442">
        <ele>502.4</ele>
        <time>2025-12-15T14:47:25Z</time>
      </trkpt>
      <trkpt lat="45.69744" lon="4.64446">
        <ele>502</ele>
        <time>2025-12-15T14:47:26Z</time>
      </trkpt>
      <trkpt lat="45.69752" lon="4.64448">
        <ele>501.4</ele>
        <time>2025-12-15T14:47:27Z</time>
      </trkpt>
      <trkpt lat="45.6976" lon="4.6445">
        <ele>500.8</ele>
        <time>2025-12-15T14:47:28Z</time>
      </trkpt>
      <trkpt lat="45.69767" lon="4.64451">
        <ele>500.2</ele>
        <time>2025-12-15T14:47:29Z</time>
      </trkpt>
      <trkpt lat="45.69775" lon="4.64451">
        <ele>499.6</ele>
        <time>2025-12-15T14:47:30Z</time>
      </trkpt>
      <trkpt lat="45.69782" lon="4.64452">
        <ele>499.2</ele>
        <time>2025-12-15T14:47:31Z</time>
      </trkpt>
      <trkpt lat="45.69789" lon="4.64453">
        <ele>498.8</ele>
        <time>2025-12-15T14:47:32Z</time>
      </trkpt>
      <trkpt lat="45.69795" lon="4.64457">
        <ele>498.8</ele>
        <time>2025-12-15T14:47:33Z</time>
      </trkpt>
      <trkpt lat="45.698" lon="4.64462">
        <ele>498.8</ele>
        <time>2025-12-15T14:47:34Z</time>
      </trkpt>
      <trkpt lat="45.69804" lon="4.64469">
        <ele>499</ele>
        <time>2025-12-15T14:47:35Z</time>
      </trkpt>
      <trkpt lat="45.69806" lon="4.64477">
        <ele>499.2</ele>
        <time>2025-12-15T14:47:36Z</time>
      </trkpt>
      <trkpt lat="45.69806" lon="4.64485">
        <ele>499.4</ele>
        <time>2025-12-15T14:47:37Z</time>
      </trkpt>
      <trkpt lat="45.69805" lon="4.64493">
        <ele>499.8</ele>
        <time>2025-12-15T14:47:38Z</time>
      </trkpt>
      <trkpt lat="45.69803" lon="4.645">
        <ele>500</ele>
        <time>2025-12-15T14:47:39Z</time>
      </trkpt>
      <trkpt lat="45.69799" lon="4.64506">
        <ele>500.4</ele>
        <time>2025-12-15T14:47:40Z</time>
      </trkpt>
      <trkpt lat="45.69795" lon="4.64512">
        <ele>500.6</ele>
        <time>2025-12-15T14:47:41Z</time>
      </trkpt>
      <trkpt lat="45.69791" lon="4.64518">
        <ele>500.6</ele>
        <time>2025-12-15T14:47:42Z</time>
      </trkpt>
      <trkpt lat="45.69787" lon="4.64524">
        <ele>500.6</ele>
        <time>2025-12-15T14:47:43Z</time>
      </trkpt>
      <trkpt lat="45.69783" lon="4.6453">
        <ele>500.6</ele>
        <time>2025-12-15T14:47:44Z</time>
      </trkpt>
      <trkpt lat="45.69779" lon="4.64536">
        <ele>500.8</ele>
        <time>2025-12-15T14:47:45Z</time>
      </trkpt>
      <trkpt lat="45.69774" lon="4.64541">
        <ele>500.8</ele>
        <time>2025-12-15T14:47:46Z</time>
      </trkpt>
      <trkpt lat="45.6977" lon="4.64547">
        <ele>501</ele>
        <time>2025-12-15T14:47:47Z</time>
      </trkpt>
      <trkpt lat="45.69766" lon="4.64552">
        <ele>501.4</ele>
        <time>2025-12-15T14:47:48Z</time>
      </trkpt>
      <trkpt lat="45.69761" lon="4.64557">
        <ele>501.6</ele>
        <time>2025-12-15T14:47:49Z</time>
      </trkpt>
      <trkpt lat="45.69756" lon="4.64562">
        <ele>501.6</ele>
        <time>2025-12-15T14:47:50Z</time>
      </trkpt>
      <trkpt lat="45.69752" lon="4.64567">
        <ele>501.6</ele>
        <time>2025-12-15T14:47:51Z</time>
      </trkpt>
      <trkpt lat="45.69748" lon="4.64572">
        <ele>501.6</ele>
        <time>2025-12-15T14:47:52Z</time>
      </trkpt>
      <trkpt lat="45.69745" lon="4.64578">
        <ele>501.6</ele>
        <time>2025-12-15T14:47:53Z</time>
      </trkpt>
      <trkpt lat="45.69741" lon="4.64583">
        <ele>501.6</ele>
        <time>2025-12-15T14:47:54Z</time>
      </trkpt>
      <trkpt lat="45.69738" lon="4.64588">
        <ele>501.6</ele>
        <time>2025-12-15T14:47:55Z</time>
      </trkpt>
      <trkpt lat="45.69735" lon="4.64594">
        <ele>501.8</ele>
        <time>2025-12-15T14:47:56Z</time>
      </trkpt>
      <trkpt lat="45.69733" lon="4.64599">
        <ele>502.2</ele>
        <time>2025-12-15T14:47:57Z</time>
      </trkpt>
      <trkpt lat="45.6973" lon="4.64605">
        <ele>502.2</ele>
        <time>2025-12-15T14:47:58Z</time>
      </trkpt>
      <trkpt lat="45.69728" lon="4.6461">
        <ele>502.6</ele>
        <time>2025-12-15T14:47:59Z</time>
      </trkpt>
      <trkpt lat="45.69726" lon="4.64615">
        <ele>502.6</ele>
        <time>2025-12-15T14:48:00Z</time>
      </trkpt>
      <trkpt lat="45.69724" lon="4.6462">
        <ele>502.8</ele>
        <time>2025-12-15T14:48:01Z</time>
      </trkpt>
      <trkpt lat="45.69722" lon="4.64626">
        <ele>503</ele>
        <time>2025-12-15T14:48:02Z</time>
      </trkpt>
      <trkpt lat="45.69719" lon="4.64631">
        <ele>503</ele>
        <time>2025-12-15T14:48:03Z</time>
      </trkpt>
      <trkpt lat="45.69717" lon="4.64636">
        <ele>503</ele>
        <time>2025-12-15T14:48:04Z</time>
      </trkpt>
      <trkpt lat="45.69715" lon="4.64642">
        <ele>503.2</ele>
        <time>2025-12-15T14:48:05Z</time>
      </trkpt>
      <trkpt lat="45.69713" lon="4.64647">
        <ele>503.4</ele>
        <time>2025-12-15T14:48:06Z</time>
      </trkpt>
      <trkpt lat="45.69711" lon="4.64652">
        <ele>503.6</ele>
        <time>2025-12-15T14:48:07Z</time>
      </trkpt>
      <trkpt lat="45.69708" lon="4.64658">
        <ele>504.2</ele>
        <time>2025-12-15T14:48:08Z</time>
      </trkpt>
      <trkpt lat="45.69705" lon="4.64663">
        <ele>504.6</ele>
        <time>2025-12-15T14:48:09Z</time>
      </trkpt>
      <trkpt lat="45.69703" lon="4.64668">
        <ele>505</ele>
        <time>2025-12-15T14:48:10Z</time>
      </trkpt>
      <trkpt lat="45.69701" lon="4.64674">
        <ele>505.4</ele>
        <time>2025-12-15T14:48:11Z</time>
      </trkpt>
      <trkpt lat="45.697" lon="4.64679">
        <ele>506</ele>
        <time>2025-12-15T14:48:12Z</time>
      </trkpt>
      <trkpt lat="45.69699" lon="4.64685">
        <ele>506.6</ele>
        <time>2025-12-15T14:48:13Z</time>
      </trkpt>
      <trkpt lat="45.69699" lon="4.64691">
        <ele>507.2</ele>
        <time>2025-12-15T14:48:14Z</time>
      </trkpt>
      <trkpt lat="45.69698" lon="4.64697">
        <ele>508</ele>
        <time>2025-12-15T14:48:15Z</time>
      </trkpt>
      <trkpt lat="45.69697" lon="4.64703">
        <ele>508.4</ele>
        <time>2025-12-15T14:48:16Z</time>
      </trkpt>
      <trkpt lat="45.69696" lon="4.64709">
        <ele>509</ele>
        <time>2025-12-15T14:48:17Z</time>
      </trkpt>
      <trkpt lat="45.69695" lon="4.64715">
        <ele>509.4</ele>
        <time>2025-12-15T14:48:18Z</time>
      </trkpt>
      <trkpt lat="45.69694" lon="4.64721">
        <ele>509.8</ele>
        <time>2025-12-15T14:48:19Z</time>
      </trkpt>
      <trkpt lat="45.69693" lon="4.64727">
        <ele>510.2</ele>
        <time>2025-12-15T14:48:20Z</time>
      </trkpt>
      <trkpt lat="45.69693" lon="4.64733">
        <ele>510.6</ele>
        <time>2025-12-15T14:48:21Z</time>
      </trkpt>
      <trkpt lat="45.69693" lon="4.6474">
        <ele>511.2</ele>
        <time>2025-12-15T14:48:22Z</time>
      </trkpt>
      <trkpt lat="45.69693" lon="4.64745">
        <ele>511.6</ele>
        <time>2025-12-15T14:48:23Z</time>
      </trkpt>
      <trkpt lat="45.69692" lon="4.64752">
        <ele>512</ele>
        <time>2025-12-15T14:48:24Z</time>
      </trkpt>
      <trkpt lat="45.69692" lon="4.64758">
        <ele>512.4</ele>
        <time>2025-12-15T14:48:25Z</time>
      </trkpt>
      <trkpt lat="45.69691" lon="4.64765">
        <ele>513</ele>
        <time>2025-12-15T14:48:26Z</time>
      </trkpt>
      <trkpt lat="45.69691" lon="4.64772">
        <ele>513.2</ele>
        <time>2025-12-15T14:48:27Z</time>
      </trkpt>
      <trkpt lat="45.69691" lon="4.64779">
        <ele>513.6</ele>
        <time>2025-12-15T14:48:28Z</time>
      </trkpt>
      <trkpt lat="45.69691" lon="4.64786">
        <ele>513.8</ele>
        <time>2025-12-15T14:48:29Z</time>
      </trkpt>
      <trkpt lat="45.69691" lon="4.64793">
        <ele>513.8</ele>
        <time>2025-12-15T14:48:30Z</time>
      </trkpt>
      <trkpt lat="45.69692" lon="4.648">
        <ele>513.8</ele>
        <time>2025-12-15T14:48:31Z</time>
      </trkpt>
      <trkpt lat="45.69692" lon="4.64807">
        <ele>514</ele>
        <time>2025-12-15T14:48:32Z</time>
      </trkpt>
      <trkpt lat="45.69692" lon="4.64814">
        <ele>514</ele>
        <time>2025-12-15T14:48:33Z</time>
      </trkpt>
      <trkpt lat="45.69693" lon="4.64821">
        <ele>514</ele>
        <time>2025-12-15T14:48:34Z</time>
      </trkpt>
      <trkpt lat="45.69694" lon="4.64829">
        <ele>514</ele>
        <time>2025-12-15T14:48:35Z</time>
      </trkpt>
      <trkpt lat="45.69694" lon="4.64836">
        <ele>513.8</ele>
        <time>2025-12-15T14:48:36Z</time>
      </trkpt>
      <trkpt lat="45.69695" lon="4.64843">
        <ele>513.6</ele>
        <time>2025-12-15T14:48:37Z</time>
      </trkpt>
      <trkpt lat="45.69696" lon="4.64851">
        <ele>513.6</ele>
        <time>2025-12-15T14:48:38Z</time>
      </trkpt>
      <trkpt lat="45.69697" lon="4.64858">
        <ele>513.4</ele>
        <time>2025-12-15T14:48:39Z</time>
      </trkpt>
      <trkpt lat="45.69699" lon="4.64865">
        <ele>513.4</ele>
        <time>2025-12-15T14:48:40Z</time>
      </trkpt>
      <trkpt lat="45.697" lon="4.64872">
        <ele>513.6</ele>
        <time>2025-12-15T14:48:41Z</time>
      </trkpt>
      <trkpt lat="45.69702" lon="4.64879">
        <ele>513.6</ele>
        <time>2025-12-15T14:48:42Z</time>
      </trkpt>
      <trkpt lat="45.69703" lon="4.64886">
        <ele>513.6</ele>
        <time>2025-12-15T14:48:43Z</time>
      </trkpt>
      <trkpt lat="45.69705" lon="4.64893">
        <ele>513.8</ele>
        <time>2025-12-15T14:48:44Z</time>
      </trkpt>
      <trkpt lat="45.69707" lon="4.649">
        <ele>514.2</ele>
        <time>2025-12-15T14:48:45Z</time>
      </trkpt>
      <trkpt lat="45.69709" lon="4.64908">
        <ele>514.4</ele>
        <time>2025-12-15T14:48:46Z</time>
      </trkpt>
      <trkpt lat="45.69711" lon="4.64915">
        <ele>514.4</ele>
        <time>2025-12-15T14:48:47Z</time>
      </trkpt>
      <trkpt lat="45.69713" lon="4.64924">
        <ele>514.2</ele>
        <time>2025-12-15T14:48:48Z</time>
      </trkpt>
      <trkpt lat="45.69715" lon="4.64931">
        <ele>514.2</ele>
        <time>2025-12-15T14:48:49Z</time>
      </trkpt>
      <trkpt lat="45.69717" lon="4.64939">
        <ele>514</ele>
        <time>2025-12-15T14:48:50Z</time>
      </trkpt>
      <trkpt lat="45.69719" lon="4.64947">
        <ele>514</ele>
        <time>2025-12-15T14:48:51Z</time>
      </trkpt>
      <trkpt lat="45.69721" lon="4.64954">
        <ele>514</ele>
        <time>2025-12-15T14:48:52Z</time>
      </trkpt>
      <trkpt lat="45.69723" lon="4.64961">
        <ele>514.2</ele>
        <time>2025-12-15T14:48:53Z</time>
      </trkpt>
      <trkpt lat="45.69725" lon="4.64968">
        <ele>514.2</ele>
        <time>2025-12-15T14:48:54Z</time>
      </trkpt>
      <trkpt lat="45.69726" lon="4.64976">
        <ele>514.2</ele>
        <time>2025-12-15T14:48:55Z</time>
      </trkpt>
      <trkpt lat="45.69728" lon="4.64983">
        <ele>514</ele>
        <time>2025-12-15T14:48:56Z</time>
      </trkpt>
      <trkpt lat="45.69729" lon="4.64989">
        <ele>513.8</ele>
        <time>2025-12-15T14:48:57Z</time>
      </trkpt>
      <trkpt lat="45.6973" lon="4.64996">
        <ele>513.8</ele>
        <time>2025-12-15T14:48:58Z</time>
      </trkpt>
      <trkpt lat="45.6973" lon="4.65002">
        <ele>514</ele>
        <time>2025-12-15T14:48:59Z</time>
      </trkpt>
      <trkpt lat="45.69731" lon="4.65009">
        <ele>514.2</ele>
        <time>2025-12-15T14:49:00Z</time>
      </trkpt>
      <trkpt lat="45.69731" lon="4.65015">
        <ele>514.6</ele>
        <time>2025-12-15T14:49:01Z</time>
      </trkpt>
      <trkpt lat="45.69732" lon="4.65021">
        <ele>515</ele>
        <time>2025-12-15T14:49:02Z</time>
      </trkpt>
      <trkpt lat="45.69732" lon="4.65027">
        <ele>515.2</ele>
        <time>2025-12-15T14:49:03Z</time>
      </trkpt>
      <trkpt lat="45.69733" lon="4.65033">
        <ele>515.4</ele>
        <time>2025-12-15T14:49:04Z</time>
      </trkpt>
      <trkpt lat="45.69734" lon="4.65039">
        <ele>515.6</ele>
        <time>2025-12-15T14:49:05Z</time>
      </trkpt>
      <trkpt lat="45.69736" lon="4.65045">
        <ele>516</ele>
        <time>2025-12-15T14:49:06Z</time>
      </trkpt>
      <trkpt lat="45.69738" lon="4.6505">
        <ele>516.2</ele>
        <time>2025-12-15T14:49:07Z</time>
      </trkpt>
      <trkpt lat="45.6974" lon="4.65054">
        <ele>516.6</ele>
        <time>2025-12-15T14:49:08Z</time>
      </trkpt>
      <trkpt lat="45.69744" lon="4.65058">
        <ele>517.2</ele>
        <time>2025-12-15T14:49:09Z</time>
      </trkpt>
      <trkpt lat="45.69748" lon="4.6506">
        <ele>517.4</ele>
        <time>2025-12-15T14:49:10Z</time>
      </trkpt>
      <trkpt lat="45.69751" lon="4.65062">
        <ele>517.8</ele>
        <time>2025-12-15T14:49:11Z</time>
      </trkpt>
      <trkpt lat="45.69755" lon="4.65064">
        <ele>518.2</ele>
        <time>2025-12-15T14:49:12Z</time>
      </trkpt>
      <trkpt lat="45.69759" lon="4.65065">
        <ele>518.6</ele>
        <time>2025-12-15T14:49:13Z</time>
      </trkpt>
      <trkpt lat="45.69763" lon="4.65066">
        <ele>518.8</ele>
        <time>2025-12-15T14:49:14Z</time>
      </trkpt>
      <trkpt lat="45.69766" lon="4.65067">
        <ele>519.2</ele>
        <time>2025-12-15T14:49:15Z</time>
      </trkpt>
      <trkpt lat="45.6977" lon="4.65068">
        <ele>519.4</ele>
        <time>2025-12-15T14:49:16Z</time>
      </trkpt>
      <trkpt lat="45.69774" lon="4.65068">
        <ele>519.6</ele>
        <time>2025-12-15T14:49:17Z</time>
      </trkpt>
      <trkpt lat="45.69778" lon="4.65069">
        <ele>519.6</ele>
        <time>2025-12-15T14:49:18Z</time>
      </trkpt>
      <trkpt lat="45.69782" lon="4.65069">
        <ele>519.8</ele>
        <time>2025-12-15T14:49:19Z</time>
      </trkpt>
      <trkpt lat="45.69786" lon="4.65069">
        <ele>519.8</ele>
        <time>2025-12-15T14:49:20Z</time>
      </trkpt>
      <trkpt lat="45.6979" lon="4.65069">
        <ele>519.8</ele>
        <time>2025-12-15T14:49:21Z</time>
      </trkpt>
      <trkpt lat="45.69793" lon="4.6507">
        <ele>519.8</ele>
        <time>2025-12-15T14:49:22Z</time>
      </trkpt>
      <trkpt lat="45.69797" lon="4.6507">
        <ele>520</ele>
        <time>2025-12-15T14:49:23Z</time>
      </trkpt>
      <trkpt lat="45.69801" lon="4.65069">
        <ele>520</ele>
        <time>2025-12-15T14:49:24Z</time>
      </trkpt>
      <trkpt lat="45.69805" lon="4.6507">
        <ele>520.2</ele>
        <time>2025-12-15T14:49:25Z</time>
      </trkpt>
      <trkpt lat="45.69809" lon="4.6507">
        <ele>520.4</ele>
        <time>2025-12-15T14:49:26Z</time>
      </trkpt>
      <trkpt lat="45.69813" lon="4.65071">
        <ele>520.4</ele>
        <time>2025-12-15T14:49:27Z</time>
      </trkpt>
      <trkpt lat="45.69816" lon="4.65071">
        <ele>520.6</ele>
        <time>2025-12-15T14:49:28Z</time>
      </trkpt>
      <trkpt lat="45.6982" lon="4.6507">
        <ele>520.6</ele>
        <time>2025-12-15T14:49:29Z</time>
      </trkpt>
      <trkpt lat="45.69824" lon="4.6507">
        <ele>520.6</ele>
        <time>2025-12-15T14:49:30Z</time>
      </trkpt>
      <trkpt lat="45.69828" lon="4.65069">
        <ele>520.6</ele>
        <time>2025-12-15T14:49:31Z</time>
      </trkpt>
      <trkpt lat="45.69832" lon="4.6507">
        <ele>520.8</ele>
        <time>2025-12-15T14:49:32Z</time>
      </trkpt>
      <trkpt lat="45.69836" lon="4.6507">
        <ele>520.8</ele>
        <time>2025-12-15T14:49:33Z</time>
      </trkpt>
      <trkpt lat="45.6984" lon="4.6507">
        <ele>520.8</ele>
        <time>2025-12-15T14:49:34Z</time>
      </trkpt>
      <trkpt lat="45.69844" lon="4.6507">
        <ele>520.8</ele>
        <time>2025-12-15T14:49:35Z</time>
      </trkpt>
      <trkpt lat="45.69847" lon="4.6507">
        <ele>520.8</ele>
        <time>2025-12-15T14:49:36Z</time>
      </trkpt>
      <trkpt lat="45.69852" lon="4.6507">
        <ele>521</ele>
        <time>2025-12-15T14:49:37Z</time>
      </trkpt>
      <trkpt lat="45.69856" lon="4.6507">
        <ele>521</ele>
        <time>2025-12-15T14:49:38Z</time>
      </trkpt>
      <trkpt lat="45.6986" lon="4.65071">
        <ele>521</ele>
        <time>2025-12-15T14:49:39Z</time>
      </trkpt>
      <trkpt lat="45.69864" lon="4.65072">
        <ele>521.2</ele>
        <time>2025-12-15T14:49:40Z</time>
      </trkpt>
      <trkpt lat="45.69868" lon="4.65072">
        <ele>521.4</ele>
        <time>2025-12-15T14:49:41Z</time>
      </trkpt>
      <trkpt lat="45.69872" lon="4.65072">
        <ele>521.6</ele>
        <time>2025-12-15T14:49:42Z</time>
      </trkpt>
      <trkpt lat="45.69875" lon="4.65072">
        <ele>521.8</ele>
        <time>2025-12-15T14:49:43Z</time>
      </trkpt>
      <trkpt lat="45.69879" lon="4.65072">
        <ele>522</ele>
        <time>2025-12-15T14:49:44Z</time>
      </trkpt>
      <trkpt lat="45.69883" lon="4.65073">
        <ele>522.2</ele>
        <time>2025-12-15T14:49:45Z</time>
      </trkpt>
      <trkpt lat="45.69887" lon="4.65072">
        <ele>522.4</ele>
        <time>2025-12-15T14:49:46Z</time>
      </trkpt>
      <trkpt lat="45.69892" lon="4.65072">
        <ele>522.4</ele>
        <time>2025-12-15T14:49:47Z</time>
      </trkpt>
      <trkpt lat="45.69897" lon="4.65071">
        <ele>522.2</ele>
        <time>2025-12-15T14:49:48Z</time>
      </trkpt>
      <trkpt lat="45.69901" lon="4.65072">
        <ele>522.2</ele>
        <time>2025-12-15T14:49:49Z</time>
      </trkpt>
      <trkpt lat="45.69906" lon="4.65071">
        <ele>522</ele>
        <time>2025-12-15T14:49:50Z</time>
      </trkpt>
      <trkpt lat="45.69911" lon="4.65071">
        <ele>521.8</ele>
        <time>2025-12-15T14:49:51Z</time>
      </trkpt>
      <trkpt lat="45.69916" lon="4.65072">
        <ele>521.6</ele>
        <time>2025-12-15T14:49:52Z</time>
      </trkpt>
      <trkpt lat="45.6992" lon="4.65072">
        <ele>521.4</ele>
        <time>2025-12-15T14:49:53Z</time>
      </trkpt>
      <trkpt lat="45.69924" lon="4.65072">
        <ele>521.2</ele>
        <time>2025-12-15T14:49:54Z</time>
      </trkpt>
      <trkpt lat="45.69928" lon="4.65072">
        <ele>521.2</ele>
        <time>2025-12-15T14:49:55Z</time>
      </trkpt>
      <trkpt lat="45.69932" lon="4.65073">
        <ele>521</ele>
        <time>2025-12-15T14:49:56Z</time>
      </trkpt>
      <trkpt lat="45.69937" lon="4.65073">
        <ele>521</ele>
        <time>2025-12-15T14:49:57Z</time>
      </trkpt>
      <trkpt lat="45.6994" lon="4.65072">
        <ele>521</ele>
        <time>2025-12-15T14:49:58Z</time>
      </trkpt>
      <trkpt lat="45.69945" lon="4.65073">
        <ele>520.8</ele>
        <time>2025-12-15T14:49:59Z</time>
      </trkpt>
      <trkpt lat="45.69949" lon="4.65074">
        <ele>520.8</ele>
        <time>2025-12-15T14:50:00Z</time>
      </trkpt>
      <trkpt lat="45.69953" lon="4.65075">
        <ele>520.8</ele>
        <time>2025-12-15T14:50:01Z</time>
      </trkpt>
      <trkpt lat="45.69958" lon="4.65076">
        <ele>520.8</ele>
        <time>2025-12-15T14:50:02Z</time>
      </trkpt>
      <trkpt lat="45.69961" lon="4.65076">
        <ele>520.8</ele>
        <time>2025-12-15T14:50:03Z</time>
      </trkpt>
      <trkpt lat="45.69966" lon="4.65076">
        <ele>520.8</ele>
        <time>2025-12-15T14:50:04Z</time>
      </trkpt>
      <trkpt lat="45.6997" lon="4.65077">
        <ele>520.8</ele>
        <time>2025-12-15T14:50:05Z</time>
      </trkpt>
      <trkpt lat="45.69974" lon="4.65077">
        <ele>520.8</ele>
        <time>2025-12-15T14:50:06Z</time>
      </trkpt>
      <trkpt lat="45.69979" lon="4.65078">
        <ele>520.8</ele>
        <time>2025-12-15T14:50:07Z</time>
      </trkpt>
      <trkpt lat="45.69983" lon="4.65077">
        <ele>520.8</ele>
        <time>2025-12-15T14:50:08Z</time>
      </trkpt>
      <trkpt lat="45.69988" lon="4.65076">
        <ele>520.8</ele>
        <time>2025-12-15T14:50:09Z</time>
      </trkpt>
      <trkpt lat="45.69993" lon="4.65075">
        <ele>520.8</ele>
        <time>2025-12-15T14:50:10Z</time>
      </trkpt>
      <trkpt lat="45.69997" lon="4.65075">
        <ele>520.8</ele>
        <time>2025-12-15T14:50:11Z</time>
      </trkpt>
      <trkpt lat="45.70002" lon="4.65075">
        <ele>520.8</ele>
        <time>2025-12-15T14:50:12Z</time>
      </trkpt>
      <trkpt lat="45.70006" lon="4.65075">
        <ele>520.8</ele>
        <time>2025-12-15T14:50:13Z</time>
      </trkpt>
      <trkpt lat="45.7001" lon="4.65076">
        <ele>520.8</ele>
        <time>2025-12-15T14:50:14Z</time>
      </trkpt>
      <trkpt lat="45.70014" lon="4.65076">
        <ele>520.8</ele>
        <time>2025-12-15T14:50:15Z</time>
      </trkpt>
      <trkpt lat="45.70019" lon="4.65077">
        <ele>520.6</ele>
        <time>2025-12-15T14:50:16Z</time>
      </trkpt>
      <trkpt lat="45.70024" lon="4.65079">
        <ele>520.4</ele>
        <time>2025-12-15T14:50:17Z</time>
      </trkpt>
      <trkpt lat="45.70029" lon="4.6508">
        <ele>520</ele>
        <time>2025-12-15T14:50:18Z</time>
      </trkpt>
      <trkpt lat="45.70035" lon="4.6508">
        <ele>519.6</ele>
        <time>2025-12-15T14:50:19Z</time>
      </trkpt>
      <trkpt lat="45.70041" lon="4.6508">
        <ele>519.2</ele>
        <time>2025-12-15T14:50:20Z</time>
      </trkpt>
      <trkpt lat="45.70048" lon="4.65079">
        <ele>519</ele>
        <time>2025-12-15T14:50:21Z</time>
      </trkpt>
      <trkpt lat="45.70055" lon="4.65078">
        <ele>518.6</ele>
        <time>2025-12-15T14:50:22Z</time>
      </trkpt>
      <trkpt lat="45.70061" lon="4.65078">
        <ele>518</ele>
        <time>2025-12-15T14:50:23Z</time>
      </trkpt>
      <trkpt lat="45.70068" lon="4.65078">
        <ele>517.4</ele>
        <time>2025-12-15T14:50:24Z</time>
      </trkpt>
      <trkpt lat="45.70075" lon="4.65077">
        <ele>516.8</ele>
        <time>2025-12-15T14:50:25Z</time>
      </trkpt>
      <trkpt lat="45.70083" lon="4.65073">
        <ele>516</ele>
        <time>2025-12-15T14:50:26Z</time>
      </trkpt>
      <trkpt lat="45.70089" lon="4.6507">
        <ele>515.4</ele>
        <time>2025-12-15T14:50:27Z</time>
      </trkpt>
      <trkpt lat="45.70094" lon="4.65068">
        <ele>515</ele>
        <time>2025-12-15T14:50:28Z</time>
      </trkpt>
      <trkpt lat="45.70099" lon="4.65064">
        <ele>514.6</ele>
        <time>2025-12-15T14:50:29Z</time>
      </trkpt>
      <trkpt lat="45.70104" lon="4.65059">
        <ele>514.6</ele>
        <time>2025-12-15T14:50:30Z</time>
      </trkpt>
      <trkpt lat="45.70109" lon="4.65053">
        <ele>514.8</ele>
        <time>2025-12-15T14:50:31Z</time>
      </trkpt>
      <trkpt lat="45.70113" lon="4.65048">
        <ele>515.2</ele>
        <time>2025-12-15T14:50:32Z</time>
      </trkpt>
      <trkpt lat="45.70117" lon="4.65043">
        <ele>515.6</ele>
        <time>2025-12-15T14:50:33Z</time>
      </trkpt>
      <trkpt lat="45.7012" lon="4.65039">
        <ele>515.8</ele>
        <time>2025-12-15T14:50:34Z</time>
      </trkpt>
      <trkpt lat="45.70124" lon="4.65035">
        <ele>516.2</ele>
        <time>2025-12-15T14:50:35Z</time>
      </trkpt>
      <trkpt lat="45.70127" lon="4.65032">
        <ele>516.4</ele>
        <time>2025-12-15T14:50:36Z</time>
      </trkpt>
      <trkpt lat="45.70131" lon="4.65029">
        <ele>516.8</ele>
        <time>2025-12-15T14:50:37Z</time>
      </trkpt>
      <trkpt lat="45.70134" lon="4.65026">
        <ele>517</ele>
        <time>2025-12-15T14:50:38Z</time>
      </trkpt>
      <trkpt lat="45.70138" lon="4.65021">
        <ele>517</ele>
        <time>2025-12-15T14:50:39Z</time>
      </trkpt>
      <trkpt lat="45.70142" lon="4.65016">
        <ele>517.2</ele>
        <time>2025-12-15T14:50:40Z</time>
      </trkpt>
      <trkpt lat="45.70146" lon="4.6501">
        <ele>517</ele>
        <time>2025-12-15T14:50:41Z</time>
      </trkpt>
      <trkpt lat="45.7015" lon="4.65004">
        <ele>517</ele>
        <time>2025-12-15T14:50:42Z</time>
      </trkpt>
      <trkpt lat="45.70153" lon="4.64998">
        <ele>516.6</ele>
        <time>2025-12-15T14:50:43Z</time>
      </trkpt>
      <trkpt lat="45.70156" lon="4.64991">
        <ele>516.2</ele>
        <time>2025-12-15T14:50:44Z</time>
      </trkpt>
      <trkpt lat="45.70159" lon="4.64982">
        <ele>515.8</ele>
        <time>2025-12-15T14:50:45Z</time>
      </trkpt>
      <trkpt lat="45.70162" lon="4.64973">
        <ele>515.4</ele>
        <time>2025-12-15T14:50:46Z</time>
      </trkpt>
      <trkpt lat="45.70165" lon="4.64965">
        <ele>515</ele>
        <time>2025-12-15T14:50:47Z</time>
      </trkpt>
      <trkpt lat="45.70169" lon="4.64957">
        <ele>514.6</ele>
        <time>2025-12-15T14:50:48Z</time>
      </trkpt>
      <trkpt lat="45.70172" lon="4.6495">
        <ele>514.2</ele>
        <time>2025-12-15T14:50:49Z</time>
      </trkpt>
      <trkpt lat="45.70176" lon="4.64945">
        <ele>514</ele>
        <time>2025-12-15T14:50:50Z</time>
      </trkpt>
      <trkpt lat="45.70179" lon="4.64939">
        <ele>513.8</ele>
        <time>2025-12-15T14:50:51Z</time>
      </trkpt>
      <trkpt lat="45.70183" lon="4.64938">
        <ele>513.6</ele>
        <time>2025-12-15T14:50:52Z</time>
      </trkpt>
      <trkpt lat="45.70189" lon="4.64936">
        <ele>513.6</ele>
        <time>2025-12-15T14:50:53Z</time>
      </trkpt>
      <trkpt lat="45.70194" lon="4.64935">
        <ele>513.6</ele>
        <time>2025-12-15T14:50:54Z</time>
      </trkpt>
      <trkpt lat="45.702" lon="4.64935">
        <ele>513.6</ele>
        <time>2025-12-15T14:50:55Z</time>
      </trkpt>
      <trkpt lat="45.70205" lon="4.64935">
        <ele>513.6</ele>
        <time>2025-12-15T14:50:56Z</time>
      </trkpt>
      <trkpt lat="45.7021" lon="4.64933">
        <ele>513.8</ele>
        <time>2025-12-15T14:50:57Z</time>
      </trkpt>
      <trkpt lat="45.70214" lon="4.6493">
        <ele>514</ele>
        <time>2025-12-15T14:50:58Z</time>
      </trkpt>
      <trkpt lat="45.70218" lon="4.64925">
        <ele>514</ele>
        <time>2025-12-15T14:50:59Z</time>
      </trkpt>
      <trkpt lat="45.70222" lon="4.6492">
        <ele>514.2</ele>
        <time>2025-12-15T14:51:00Z</time>
      </trkpt>
      <trkpt lat="45.70226" lon="4.64915">
        <ele>514.2</ele>
        <time>2025-12-15T14:51:01Z</time>
      </trkpt>
      <trkpt lat="45.70229" lon="4.64908">
        <ele>514.2</ele>
        <time>2025-12-15T14:51:02Z</time>
      </trkpt>
      <trkpt lat="45.70233" lon="4.64901">
        <ele>514</ele>
        <time>2025-12-15T14:51:03Z</time>
      </trkpt>
      <trkpt lat="45.70235" lon="4.64893">
        <ele>513.8</ele>
        <time>2025-12-15T14:51:04Z</time>
      </trkpt>
      <trkpt lat="45.70237" lon="4.64885">
        <ele>513.6</ele>
        <time>2025-12-15T14:51:05Z</time>
      </trkpt>
      <trkpt lat="45.7024" lon="4.64879">
        <ele>513.4</ele>
        <time>2025-12-15T14:51:06Z</time>
      </trkpt>
      <trkpt lat="45.70242" lon="4.64875">
        <ele>513.2</ele>
        <time>2025-12-15T14:51:07Z</time>
      </trkpt>
      <trkpt lat="45.70244" lon="4.64872">
        <ele>513.4</ele>
        <time>2025-12-15T14:51:08Z</time>
      </trkpt>
      <trkpt lat="45.70247" lon="4.64871">
        <ele>513.6</ele>
        <time>2025-12-15T14:51:09Z</time>
      </trkpt>
      <trkpt lat="45.7025" lon="4.64869">
        <ele>513.8</ele>
        <time>2025-12-15T14:51:10Z</time>
      </trkpt>
      <trkpt lat="45.70252" lon="4.64868">
        <ele>514.2</ele>
        <time>2025-12-15T14:51:11Z</time>
      </trkpt>
      <trkpt lat="45.70254" lon="4.64868">
        <ele>514.4</ele>
        <time>2025-12-15T14:51:12Z</time>
      </trkpt>
      <trkpt lat="45.70256" lon="4.64867">
        <ele>514.8</ele>
        <time>2025-12-15T14:51:13Z</time>
      </trkpt>
      <trkpt lat="45.70256" lon="4.64868">
        <ele>515.2</ele>
        <time>2025-12-15T14:51:14Z</time>
      </trkpt>
      <trkpt lat="45.70256" lon="4.64868">
        <ele>515.4</ele>
        <time>2025-12-15T14:51:15Z</time>
      </trkpt>
      <trkpt lat="45.70256" lon="4.64868">
        <ele>515.8</ele>
        <time>2025-12-15T14:51:16Z</time>
      </trkpt>
      <trkpt lat="45.70256" lon="4.64868">
        <ele>516</ele>
        <time>2025-12-15T14:51:17Z</time>
      </trkpt>
      <trkpt lat="45.70256" lon="4.64868">
        <ele>516.2</ele>
        <time>2025-12-15T14:51:18Z</time>
      </trkpt>
      <trkpt lat="45.70256" lon="4.64868">
        <ele>516.2</ele>
        <time>2025-12-15T14:51:19Z</time>
      </trkpt>
      <trkpt lat="45.70257" lon="4.64867">
        <ele>516.4</ele>
        <time>2025-12-15T14:51:20Z</time>
      </trkpt>
      <trkpt lat="45.70257" lon="4.64867">
        <ele>516.4</ele>
        <time>2025-12-15T14:51:21Z</time>
      </trkpt>
      <trkpt lat="45.70258" lon="4.64866">
        <ele>516.4</ele>
        <time>2025-12-15T14:51:22Z</time>
      </trkpt>
      <trkpt lat="45.70258" lon="4.64866">
        <ele>516.4</ele>
        <time>2025-12-15T14:51:23Z</time>
      </trkpt>
      <trkpt lat="45.70258" lon="4.64866">
        <ele>516.4</ele>
        <time>2025-12-15T14:51:24Z</time>
      </trkpt>
      <trkpt lat="45.70259" lon="4.64864">
        <ele>516.4</ele>
        <time>2025-12-15T14:51:25Z</time>
      </trkpt>
      <trkpt lat="45.7026" lon="4.64864">
        <ele>516.6</ele>
        <time>2025-12-15T14:51:26Z</time>
      </trkpt>
      <trkpt lat="45.70262" lon="4.64864">
        <ele>516.6</ele>
        <time>2025-12-15T14:51:27Z</time>
      </trkpt>
      <trkpt lat="45.70264" lon="4.64864">
        <ele>516.6</ele>
        <time>2025-12-15T14:51:28Z</time>
      </trkpt>
      <trkpt lat="45.70266" lon="4.64863">
        <ele>516.4</ele>
        <time>2025-12-15T14:51:29Z</time>
      </trkpt>
      <trkpt lat="45.70269" lon="4.64861">
        <ele>516.6</ele>
        <time>2025-12-15T14:51:30Z</time>
      </trkpt>
      <trkpt lat="45.70271" lon="4.6486">
        <ele>516.6</ele>
        <time>2025-12-15T14:51:31Z</time>
      </trkpt>
      <trkpt lat="45.70275" lon="4.64857">
        <ele>516.6</ele>
        <time>2025-12-15T14:51:32Z</time>
      </trkpt>
      <trkpt lat="45.70279" lon="4.64854">
        <ele>516.8</ele>
        <time>2025-12-15T14:51:33Z</time>
      </trkpt>
      <trkpt lat="45.70283" lon="4.6485">
        <ele>516.8</ele>
        <time>2025-12-15T14:51:34Z</time>
      </trkpt>
      <trkpt lat="45.70285" lon="4.64846">
        <ele>517.2</ele>
        <time>2025-12-15T14:51:35Z</time>
      </trkpt>
      <trkpt lat="45.70288" lon="4.64844">
        <ele>517.6</ele>
        <time>2025-12-15T14:51:36Z</time>
      </trkpt>
      <trkpt lat="45.70291" lon="4.64842">
        <ele>518</ele>
        <time>2025-12-15T14:51:37Z</time>
      </trkpt>
      <trkpt lat="45.70295" lon="4.64839">
        <ele>518.4</ele>
        <time>2025-12-15T14:51:38Z</time>
      </trkpt>
      <trkpt lat="45.70297" lon="4.64837">
        <ele>519</ele>
        <time>2025-12-15T14:51:39Z</time>
      </trkpt>
      <trkpt lat="45.70299" lon="4.64835">
        <ele>519.8</ele>
        <time>2025-12-15T14:51:40Z</time>
      </trkpt>
      <trkpt lat="45.70301" lon="4.64833">
        <ele>520.4</ele>
        <time>2025-12-15T14:51:41Z</time>
      </trkpt>
      <trkpt lat="45.70303" lon="4.64831">
        <ele>521</ele>
        <time>2025-12-15T14:51:42Z</time>
      </trkpt>
      <trkpt lat="45.70305" lon="4.64828">
        <ele>521.6</ele>
        <time>2025-12-15T14:51:43Z</time>
      </trkpt>
      <trkpt lat="45.70308" lon="4.64824">
        <ele>522.2</ele>
        <time>2025-12-15T14:51:44Z</time>
      </trkpt>
      <trkpt lat="45.7031" lon="4.64819">
        <ele>522.8</ele>
        <time>2025-12-15T14:51:45Z</time>
      </trkpt>
      <trkpt lat="45.70311" lon="4.64814">
        <ele>523.4</ele>
        <time>2025-12-15T14:51:46Z</time>
      </trkpt>
      <trkpt lat="45.70313" lon="4.64809">
        <ele>523.8</ele>
        <time>2025-12-15T14:51:47Z</time>
      </trkpt>
      <trkpt lat="45.70314" lon="4.64803">
        <ele>524.4</ele>
        <time>2025-12-15T14:51:48Z</time>
      </trkpt>
      <trkpt lat="45.70316" lon="4.64798">
        <ele>524.8</ele>
        <time>2025-12-15T14:51:49Z</time>
      </trkpt>
      <trkpt lat="45.70317" lon="4.64793">
        <ele>525</ele>
        <time>2025-12-15T14:51:50Z</time>
      </trkpt>
      <trkpt lat="45.70319" lon="4.64787">
        <ele>525.2</ele>
        <time>2025-12-15T14:51:51Z</time>
      </trkpt>
      <trkpt lat="45.70319" lon="4.64781">
        <ele>525.4</ele>
        <time>2025-12-15T14:51:52Z</time>
      </trkpt>
      <trkpt lat="45.7032" lon="4.64775">
        <ele>525.6</ele>
        <time>2025-12-15T14:51:53Z</time>
      </trkpt>
      <trkpt lat="45.70321" lon="4.6477">
        <ele>525.8</ele>
        <time>2025-12-15T14:51:54Z</time>
      </trkpt>
      <trkpt lat="45.70323" lon="4.64764">
        <ele>526</ele>
        <time>2025-12-15T14:51:55Z</time>
      </trkpt>
      <trkpt lat="45.70324" lon="4.6476">
        <ele>526.2</ele>
        <time>2025-12-15T14:51:56Z</time>
      </trkpt>
      <trkpt lat="45.70325" lon="4.64755">
        <ele>526.6</ele>
        <time>2025-12-15T14:51:57Z</time>
      </trkpt>
      <trkpt lat="45.70328" lon="4.64754">
        <ele>526.8</ele>
        <time>2025-12-15T14:51:58Z</time>
      </trkpt>
      <trkpt lat="45.70331" lon="4.64754">
        <ele>527</ele>
        <time>2025-12-15T14:51:59Z</time>
      </trkpt>
      <trkpt lat="45.70335" lon="4.64756">
        <ele>527</ele>
        <time>2025-12-15T14:52:00Z</time>
      </trkpt>
      <trkpt lat="45.70339" lon="4.64758">
        <ele>527.2</ele>
        <time>2025-12-15T14:52:01Z</time>
      </trkpt>
      <trkpt lat="45.70343" lon="4.64759">
        <ele>527</ele>
        <time>2025-12-15T14:52:02Z</time>
      </trkpt>
      <trkpt lat="45.70347" lon="4.64762">
        <ele>526.8</ele>
        <time>2025-12-15T14:52:03Z</time>
      </trkpt>
      <trkpt lat="45.70351" lon="4.64765">
        <ele>526.6</ele>
        <time>2025-12-15T14:52:04Z</time>
      </trkpt>
      <trkpt lat="45.70355" lon="4.64767">
        <ele>526.6</ele>
        <time>2025-12-15T14:52:05Z</time>
      </trkpt>
      <trkpt lat="45.70359" lon="4.6477">
        <ele>526.4</ele>
        <time>2025-12-15T14:52:06Z</time>
      </trkpt>
      <trkpt lat="45.70363" lon="4.64772">
        <ele>526.4</ele>
        <time>2025-12-15T14:52:07Z</time>
      </trkpt>
      <trkpt lat="45.70367" lon="4.64775">
        <ele>526.2</ele>
        <time>2025-12-15T14:52:08Z</time>
      </trkpt>
      <trkpt lat="45.70371" lon="4.64778">
        <ele>526</ele>
        <time>2025-12-15T14:52:09Z</time>
      </trkpt>
      <trkpt lat="45.70376" lon="4.64781">
        <ele>525.8</ele>
        <time>2025-12-15T14:52:10Z</time>
      </trkpt>
      <trkpt lat="45.7038" lon="4.64784">
        <ele>525.4</ele>
        <time>2025-12-15T14:52:11Z</time>
      </trkpt>
      <trkpt lat="45.70385" lon="4.64787">
        <ele>525</ele>
        <time>2025-12-15T14:52:12Z</time>
      </trkpt>
      <trkpt lat="45.70389" lon="4.64792">
        <ele>524.6</ele>
        <time>2025-12-15T14:52:13Z</time>
      </trkpt>
      <trkpt lat="45.70391" lon="4.64798">
        <ele>524.2</ele>
        <time>2025-12-15T14:52:14Z</time>
      </trkpt>
      <trkpt lat="45.70392" lon="4.64804">
        <ele>523.6</ele>
        <time>2025-12-15T14:52:15Z</time>
      </trkpt>
      <trkpt lat="45.70393" lon="4.64811">
        <ele>523</ele>
        <time>2025-12-15T14:52:16Z</time>
      </trkpt>
      <trkpt lat="45.70394" lon="4.64818">
        <ele>522.4</ele>
        <time>2025-12-15T14:52:17Z</time>
      </trkpt>
      <trkpt lat="45.70395" lon="4.64827">
        <ele>522</ele>
        <time>2025-12-15T14:52:18Z</time>
      </trkpt>
      <trkpt lat="45.70396" lon="4.64836">
        <ele>521.4</ele>
        <time>2025-12-15T14:52:19Z</time>
      </trkpt>
      <trkpt lat="45.70398" lon="4.64845">
        <ele>520.8</ele>
        <time>2025-12-15T14:52:20Z</time>
      </trkpt>
      <trkpt lat="45.704" lon="4.64853">
        <ele>520.4</ele>
        <time>2025-12-15T14:52:21Z</time>
      </trkpt>
      <trkpt lat="45.70403" lon="4.64861">
        <ele>520</ele>
        <time>2025-12-15T14:52:22Z</time>
      </trkpt>
      <trkpt lat="45.70405" lon="4.64869">
        <ele>519.8</ele>
        <time>2025-12-15T14:52:23Z</time>
      </trkpt>
      <trkpt lat="45.70408" lon="4.64876">
        <ele>519.6</ele>
        <time>2025-12-15T14:52:24Z</time>
      </trkpt>
      <trkpt lat="45.70411" lon="4.64882">
        <ele>519.6</ele>
        <time>2025-12-15T14:52:25Z</time>
      </trkpt>
      <trkpt lat="45.70413" lon="4.64889">
        <ele>519.6</ele>
        <time>2025-12-15T14:52:26Z</time>
      </trkpt>
      <trkpt lat="45.70416" lon="4.64896">
        <ele>519.8</ele>
        <time>2025-12-15T14:52:27Z</time>
      </trkpt>
      <trkpt lat="45.70419" lon="4.64903">
        <ele>519.8</ele>
        <time>2025-12-15T14:52:28Z</time>
      </trkpt>
      <trkpt lat="45.70422" lon="4.6491">
        <ele>520</ele>
        <time>2025-12-15T14:52:29Z</time>
      </trkpt>
      <trkpt lat="45.70424" lon="4.64917">
        <ele>520.2</ele>
        <time>2025-12-15T14:52:30Z</time>
      </trkpt>
      <trkpt lat="45.70426" lon="4.64923">
        <ele>520.6</ele>
        <time>2025-12-15T14:52:31Z</time>
      </trkpt>
      <trkpt lat="45.70428" lon="4.64928">
        <ele>520.8</ele>
        <time>2025-12-15T14:52:32Z</time>
      </trkpt>
      <trkpt lat="45.70428" lon="4.64933">
        <ele>521</ele>
        <time>2025-12-15T14:52:33Z</time>
      </trkpt>
      <trkpt lat="45.70428" lon="4.64939">
        <ele>521.2</ele>
        <time>2025-12-15T14:52:34Z</time>
      </trkpt>
      <trkpt lat="45.70429" lon="4.64944">
        <ele>521.2</ele>
        <time>2025-12-15T14:52:35Z</time>
      </trkpt>
      <trkpt lat="45.70429" lon="4.64951">
        <ele>521.2</ele>
        <time>2025-12-15T14:52:36Z</time>
      </trkpt>
      <trkpt lat="45.70431" lon="4.64957">
        <ele>520.8</ele>
        <time>2025-12-15T14:52:37Z</time>
      </trkpt>
      <trkpt lat="45.70433" lon="4.64962">
        <ele>520.6</ele>
        <time>2025-12-15T14:52:38Z</time>
      </trkpt>
      <trkpt lat="45.70436" lon="4.64967">
        <ele>520.2</ele>
        <time>2025-12-15T14:52:39Z</time>
      </trkpt>
      <trkpt lat="45.7044" lon="4.64972">
        <ele>519.6</ele>
        <time>2025-12-15T14:52:40Z</time>
      </trkpt>
      <trkpt lat="45.70443" lon="4.64978">
        <ele>518.8</ele>
        <time>2025-12-15T14:52:41Z</time>
      </trkpt>
      <trkpt lat="45.70446" lon="4.64984">
        <ele>518.2</ele>
        <time>2025-12-15T14:52:42Z</time>
      </trkpt>
      <trkpt lat="45.70449" lon="4.64989">
        <ele>517.6</ele>
        <time>2025-12-15T14:52:43Z</time>
      </trkpt>
      <trkpt lat="45.7045" lon="4.64995">
        <ele>517.2</ele>
        <time>2025-12-15T14:52:44Z</time>
      </trkpt>
      <trkpt lat="45.70451" lon="4.65001">
        <ele>516.8</ele>
        <time>2025-12-15T14:52:45Z</time>
      </trkpt>
      <trkpt lat="45.70449" lon="4.65008">
        <ele>516.6</ele>
        <time>2025-12-15T14:52:46Z</time>
      </trkpt>
      <trkpt lat="45.70448" lon="4.65016">
        <ele>516.2</ele>
        <time>2025-12-15T14:52:47Z</time>
      </trkpt>
      <trkpt lat="45.70447" lon="4.65023">
        <ele>516</ele>
        <time>2025-12-15T14:52:48Z</time>
      </trkpt>
      <trkpt lat="45.70445" lon="4.65031">
        <ele>515.8</ele>
        <time>2025-12-15T14:52:49Z</time>
      </trkpt>
      <trkpt lat="45.70444" lon="4.65039">
        <ele>516</ele>
        <time>2025-12-15T14:52:50Z</time>
      </trkpt>
      <trkpt lat="45.70443" lon="4.65046">
        <ele>516</ele>
        <time>2025-12-15T14:52:51Z</time>
      </trkpt>
      <trkpt lat="45.70443" lon="4.65054">
        <ele>516</ele>
        <time>2025-12-15T14:52:52Z</time>
      </trkpt>
      <trkpt lat="45.70442" lon="4.6506">
        <ele>516.2</ele>
        <time>2025-12-15T14:52:53Z</time>
      </trkpt>
      <trkpt lat="45.70442" lon="4.65065">
        <ele>516.2</ele>
        <time>2025-12-15T14:52:54Z</time>
      </trkpt>
      <trkpt lat="45.70441" lon="4.6507">
        <ele>516.4</ele>
        <time>2025-12-15T14:52:55Z</time>
      </trkpt>
      <trkpt lat="45.70441" lon="4.65074">
        <ele>516.6</ele>
        <time>2025-12-15T14:52:56Z</time>
      </trkpt>
      <trkpt lat="45.7044" lon="4.65078">
        <ele>516.8</ele>
        <time>2025-12-15T14:52:57Z</time>
      </trkpt>
      <trkpt lat="45.7044" lon="4.65083">
        <ele>517.2</ele>
        <time>2025-12-15T14:52:58Z</time>
      </trkpt>
      <trkpt lat="45.7044" lon="4.65089">
        <ele>517.2</ele>
        <time>2025-12-15T14:52:59Z</time>
      </trkpt>
      <trkpt lat="45.7044" lon="4.65095">
        <ele>517.2</ele>
        <time>2025-12-15T14:53:00Z</time>
      </trkpt>
      <trkpt lat="45.7044" lon="4.65102">
        <ele>517</ele>
        <time>2025-12-15T14:53:01Z</time>
      </trkpt>
      <trkpt lat="45.7044" lon="4.6511">
        <ele>516.6</ele>
        <time>2025-12-15T14:53:02Z</time>
      </trkpt>
      <trkpt lat="45.70441" lon="4.65118">
        <ele>516.2</ele>
        <time>2025-12-15T14:53:03Z</time>
      </trkpt>
      <trkpt lat="45.70442" lon="4.65127">
        <ele>515.6</ele>
        <time>2025-12-15T14:53:04Z</time>
      </trkpt>
      <trkpt lat="45.70443" lon="4.65135">
        <ele>515.4</ele>
        <time>2025-12-15T14:53:05Z</time>
      </trkpt>
      <trkpt lat="45.70444" lon="4.65143">
        <ele>515.2</ele>
        <time>2025-12-15T14:53:06Z</time>
      </trkpt>
      <trkpt lat="45.70445" lon="4.65151">
        <ele>515</ele>
        <time>2025-12-15T14:53:07Z</time>
      </trkpt>
      <trkpt lat="45.70447" lon="4.6516">
        <ele>514.8</ele>
        <time>2025-12-15T14:53:08Z</time>
      </trkpt>
      <trkpt lat="45.70448" lon="4.65168">
        <ele>514.4</ele>
        <time>2025-12-15T14:53:09Z</time>
      </trkpt>
      <trkpt lat="45.7045" lon="4.65176">
        <ele>514.2</ele>
        <time>2025-12-15T14:53:10Z</time>
      </trkpt>
      <trkpt lat="45.70451" lon="4.65183">
        <ele>513.6</ele>
        <time>2025-12-15T14:53:11Z</time>
      </trkpt>
      <trkpt lat="45.70451" lon="4.65189">
        <ele>513.2</ele>
        <time>2025-12-15T14:53:12Z</time>
      </trkpt>
      <trkpt lat="45.70453" lon="4.65194">
        <ele>512.8</ele>
        <time>2025-12-15T14:53:13Z</time>
      </trkpt>
      <trkpt lat="45.70455" lon="4.65199">
        <ele>512.4</ele>
        <time>2025-12-15T14:53:14Z</time>
      </trkpt>
      <trkpt lat="45.70458" lon="4.65202">
        <ele>512.2</ele>
        <time>2025-12-15T14:53:15Z</time>
      </trkpt>
      <trkpt lat="45.7046" lon="4.65205">
        <ele>512</ele>
        <time>2025-12-15T14:53:16Z</time>
      </trkpt>
      <trkpt lat="45.70462" lon="4.65208">
        <ele>511.6</ele>
        <time>2025-12-15T14:53:17Z</time>
      </trkpt>
      <trkpt lat="45.70464" lon="4.65212">
        <ele>511.4</ele>
        <time>2025-12-15T14:53:18Z</time>
      </trkpt>
      <trkpt lat="45.70466" lon="4.65216">
        <ele>511.2</ele>
        <time>2025-12-15T14:53:19Z</time>
      </trkpt>
      <trkpt lat="45.70468" lon="4.6522">
        <ele>510.8</ele>
        <time>2025-12-15T14:53:20Z</time>
      </trkpt>
      <trkpt lat="45.70471" lon="4.65224">
        <ele>510.4</ele>
        <time>2025-12-15T14:53:21Z</time>
      </trkpt>
      <trkpt lat="45.70474" lon="4.65229">
        <ele>510</ele>
        <time>2025-12-15T14:53:22Z</time>
      </trkpt>
      <trkpt lat="45.70476" lon="4.65234">
        <ele>509.6</ele>
        <time>2025-12-15T14:53:23Z</time>
      </trkpt>
      <trkpt lat="45.70478" lon="4.65238">
        <ele>509.2</ele>
        <time>2025-12-15T14:53:24Z</time>
      </trkpt>
      <trkpt lat="45.70479" lon="4.65243">
        <ele>508.8</ele>
        <time>2025-12-15T14:53:25Z</time>
      </trkpt>
      <trkpt lat="45.70481" lon="4.65249">
        <ele>508.4</ele>
        <time>2025-12-15T14:53:26Z</time>
      </trkpt>
      <trkpt lat="45.70484" lon="4.65254">
        <ele>507.8</ele>
        <time>2025-12-15T14:53:27Z</time>
      </trkpt>
      <trkpt lat="45.70487" lon="4.65259">
        <ele>507.2</ele>
        <time>2025-12-15T14:53:28Z</time>
      </trkpt>
      <trkpt lat="45.70489" lon="4.65264">
        <ele>506.6</ele>
        <time>2025-12-15T14:53:29Z</time>
      </trkpt>
      <trkpt lat="45.70491" lon="4.65268">
        <ele>506.2</ele>
        <time>2025-12-15T14:53:30Z</time>
      </trkpt>
      <trkpt lat="45.70493" lon="4.65274">
        <ele>505.6</ele>
        <time>2025-12-15T14:53:31Z</time>
      </trkpt>
      <trkpt lat="45.70495" lon="4.65279">
        <ele>505.2</ele>
        <time>2025-12-15T14:53:32Z</time>
      </trkpt>
      <trkpt lat="45.70498" lon="4.65284">
        <ele>504.6</ele>
        <time>2025-12-15T14:53:33Z</time>
      </trkpt>
      <trkpt lat="45.70501" lon="4.6529">
        <ele>504.2</ele>
        <time>2025-12-15T14:53:34Z</time>
      </trkpt>
      <trkpt lat="45.70504" lon="4.65294">
        <ele>503.4</ele>
        <time>2025-12-15T14:53:35Z</time>
      </trkpt>
      <trkpt lat="45.70507" lon="4.65298">
        <ele>502.6</ele>
        <time>2025-12-15T14:53:36Z</time>
      </trkpt>
      <trkpt lat="45.7051" lon="4.65302">
        <ele>502</ele>
        <time>2025-12-15T14:53:37Z</time>
      </trkpt>
      <trkpt lat="45.70513" lon="4.65306">
        <ele>501.6</ele>
        <time>2025-12-15T14:53:38Z</time>
      </trkpt>
      <trkpt lat="45.70516" lon="4.65309">
        <ele>501</ele>
        <time>2025-12-15T14:53:39Z</time>
      </trkpt>
      <trkpt lat="45.70518" lon="4.65313">
        <ele>500.6</ele>
        <time>2025-12-15T14:53:40Z</time>
      </trkpt>
      <trkpt lat="45.7052" lon="4.65316">
        <ele>500.4</ele>
        <time>2025-12-15T14:53:41Z</time>
      </trkpt>
      <trkpt lat="45.70522" lon="4.65319">
        <ele>500</ele>
        <time>2025-12-15T14:53:42Z</time>
      </trkpt>
      <trkpt lat="45.70525" lon="4.65322">
        <ele>499.6</ele>
        <time>2025-12-15T14:53:43Z</time>
      </trkpt>
      <trkpt lat="45.70529" lon="4.65326">
        <ele>499.2</ele>
        <time>2025-12-15T14:53:44Z</time>
      </trkpt>
      <trkpt lat="45.70532" lon="4.65329">
        <ele>498.8</ele>
        <time>2025-12-15T14:53:45Z</time>
      </trkpt>
      <trkpt lat="45.70536" lon="4.65332">
        <ele>498.4</ele>
        <time>2025-12-15T14:53:46Z</time>
      </trkpt>
      <trkpt lat="45.70539" lon="4.65335">
        <ele>498</ele>
        <time>2025-12-15T14:53:47Z</time>
      </trkpt>
      <trkpt lat="45.70542" lon="4.65337">
        <ele>497.8</ele>
        <time>2025-12-15T14:53:48Z</time>
      </trkpt>
      <trkpt lat="45.70546" lon="4.6534">
        <ele>497.6</ele>
        <time>2025-12-15T14:53:49Z</time>
      </trkpt>
      <trkpt lat="45.70549" lon="4.65344">
        <ele>497.2</ele>
        <time>2025-12-15T14:53:50Z</time>
      </trkpt>
      <trkpt lat="45.70553" lon="4.65347">
        <ele>496.8</ele>
        <time>2025-12-15T14:53:51Z</time>
      </trkpt>
      <trkpt lat="45.70556" lon="4.65349">
        <ele>496.4</ele>
        <time>2025-12-15T14:53:52Z</time>
      </trkpt>
      <trkpt lat="45.70559" lon="4.65351">
        <ele>496</ele>
        <time>2025-12-15T14:53:53Z</time>
      </trkpt>
      <trkpt lat="45.70563" lon="4.65352">
        <ele>495.4</ele>
        <time>2025-12-15T14:53:54Z</time>
      </trkpt>
      <trkpt lat="45.70565" lon="4.65354">
        <ele>495</ele>
        <time>2025-12-15T14:53:55Z</time>
      </trkpt>
      <trkpt lat="45.70568" lon="4.65357">
        <ele>494.6</ele>
        <time>2025-12-15T14:53:56Z</time>
      </trkpt>
      <trkpt lat="45.7057" lon="4.65359">
        <ele>494</ele>
        <time>2025-12-15T14:53:57Z</time>
      </trkpt>
      <trkpt lat="45.70572" lon="4.65361">
        <ele>493.6</ele>
        <time>2025-12-15T14:53:58Z</time>
      </trkpt>
      <trkpt lat="45.70574" lon="4.65363">
        <ele>493</ele>
        <time>2025-12-15T14:53:59Z</time>
      </trkpt>
      <trkpt lat="45.70575" lon="4.65365">
        <ele>492.4</ele>
        <time>2025-12-15T14:54:00Z</time>
      </trkpt>
      <trkpt lat="45.70578" lon="4.65368">
        <ele>491.8</ele>
        <time>2025-12-15T14:54:01Z</time>
      </trkpt>
      <trkpt lat="45.7058" lon="4.65371">
        <ele>491.2</ele>
        <time>2025-12-15T14:54:02Z</time>
      </trkpt>
      <trkpt lat="45.70583" lon="4.65374">
        <ele>490.4</ele>
        <time>2025-12-15T14:54:03Z</time>
      </trkpt>
      <trkpt lat="45.70585" lon="4.65377">
        <ele>489.8</ele>
        <time>2025-12-15T14:54:04Z</time>
      </trkpt>
      <trkpt lat="45.70587" lon="4.6538">
        <ele>489</ele>
        <time>2025-12-15T14:54:05Z</time>
      </trkpt>
      <trkpt lat="45.70589" lon="4.65383">
        <ele>488.4</ele>
        <time>2025-12-15T14:54:06Z</time>
      </trkpt>
      <trkpt lat="45.7059" lon="4.65386">
        <ele>487.8</ele>
        <time>2025-12-15T14:54:07Z</time>
      </trkpt>
      <trkpt lat="45.70591" lon="4.65389">
        <ele>487.4</ele>
        <time>2025-12-15T14:54:08Z</time>
      </trkpt>
      <trkpt lat="45.70593" lon="4.65392">
        <ele>487</ele>
        <time>2025-12-15T14:54:09Z</time>
      </trkpt>
      <trkpt lat="45.70594" lon="4.65395">
        <ele>486.8</ele>
        <time>2025-12-15T14:54:10Z</time>
      </trkpt>
      <trkpt lat="45.70596" lon="4.65398">
        <ele>486.6</ele>
        <time>2025-12-15T14:54:11Z</time>
      </trkpt>
      <trkpt lat="45.70598" lon="4.65401">
        <ele>486.4</ele>
        <time>2025-12-15T14:54:12Z</time>
      </trkpt>
      <trkpt lat="45.70599" lon="4.65402">
        <ele>486.2</ele>
        <time>2025-12-15T14:54:13Z</time>
      </trkpt>
      <trkpt lat="45.70601" lon="4.65404">
        <ele>485.8</ele>
        <time>2025-12-15T14:54:14Z</time>
      </trkpt>
      <trkpt lat="45.70602" lon="4.65407">
        <ele>485.6</ele>
        <time>2025-12-15T14:54:15Z</time>
      </trkpt>
      <trkpt lat="45.70604" lon="4.65409">
        <ele>485.2</ele>
        <time>2025-12-15T14:54:16Z</time>
      </trkpt>
      <trkpt lat="45.70606" lon="4.65411">
        <ele>484.8</ele>
        <time>2025-12-15T14:54:17Z</time>
      </trkpt>
      <trkpt lat="45.70607" lon="4.65413">
        <ele>484.2</ele>
        <time>2025-12-15T14:54:18Z</time>
      </trkpt>
      <trkpt lat="45.70608" lon="4.65415">
        <ele>483.6</ele>
        <time>2025-12-15T14:54:19Z</time>
      </trkpt>
      <trkpt lat="45.7061" lon="4.65418">
        <ele>483</ele>
        <time>2025-12-15T14:54:20Z</time>
      </trkpt>
      <trkpt lat="45.70612" lon="4.6542">
        <ele>482.4</ele>
        <time>2025-12-15T14:54:21Z</time>
      </trkpt>
      <trkpt lat="45.70614" lon="4.65423">
        <ele>481.8</ele>
        <time>2025-12-15T14:54:22Z</time>
      </trkpt>
      <trkpt lat="45.70617" lon="4.65427">
        <ele>481.2</ele>
        <time>2025-12-15T14:54:23Z</time>
      </trkpt>
      <trkpt lat="45.70619" lon="4.65431">
        <ele>480.6</ele>
        <time>2025-12-15T14:54:24Z</time>
      </trkpt>
      <trkpt lat="45.70621" lon="4.65435">
        <ele>480</ele>
        <time>2025-12-15T14:54:25Z</time>
      </trkpt>
      <trkpt lat="45.70623" lon="4.65438">
        <ele>479.2</ele>
        <time>2025-12-15T14:54:26Z</time>
      </trkpt>
      <trkpt lat="45.70625" lon="4.65442">
        <ele>478.6</ele>
        <time>2025-12-15T14:54:27Z</time>
      </trkpt>
      <trkpt lat="45.70628" lon="4.65447">
        <ele>478</ele>
        <time>2025-12-15T14:54:28Z</time>
      </trkpt>
      <trkpt lat="45.70629" lon="4.65452">
        <ele>477.2</ele>
        <time>2025-12-15T14:54:29Z</time>
      </trkpt>
      <trkpt lat="45.70632" lon="4.65456">
        <ele>476.6</ele>
        <time>2025-12-15T14:54:30Z</time>
      </trkpt>
      <trkpt lat="45.70634" lon="4.65461">
        <ele>475.8</ele>
        <time>2025-12-15T14:54:31Z</time>
      </trkpt>
      <trkpt lat="45.70636" lon="4.65465">
        <ele>475</ele>
        <time>2025-12-15T14:54:32Z</time>
      </trkpt>
      <trkpt lat="45.70639" lon="4.65471">
        <ele>474.4</ele>
        <time>2025-12-15T14:54:33Z</time>
      </trkpt>
      <trkpt lat="45.70642" lon="4.65475">
        <ele>473.8</ele>
        <time>2025-12-15T14:54:34Z</time>
      </trkpt>
      <trkpt lat="45.70645" lon="4.6548">
        <ele>473</ele>
        <time>2025-12-15T14:54:35Z</time>
      </trkpt>
      <trkpt lat="45.70648" lon="4.65484">
        <ele>472.4</ele>
        <time>2025-12-15T14:54:36Z</time>
      </trkpt>
      <trkpt lat="45.70651" lon="4.65488">
        <ele>471.8</ele>
        <time>2025-12-15T14:54:37Z</time>
      </trkpt>
      <trkpt lat="45.70654" lon="4.65491">
        <ele>471.2</ele>
        <time>2025-12-15T14:54:38Z</time>
      </trkpt>
      <trkpt lat="45.70656" lon="4.65494">
        <ele>470.8</ele>
        <time>2025-12-15T14:54:39Z</time>
      </trkpt>
      <trkpt lat="45.70658" lon="4.65496">
        <ele>470.4</ele>
        <time>2025-12-15T14:54:40Z</time>
      </trkpt>
      <trkpt lat="45.70659" lon="4.65497">
        <ele>470.2</ele>
        <time>2025-12-15T14:54:41Z</time>
      </trkpt>
      <trkpt lat="45.70659" lon="4.65497">
        <ele>470</ele>
        <time>2025-12-15T14:54:42Z</time>
      </trkpt>
      <trkpt lat="45.70659" lon="4.65497">
        <ele>470</ele>
        <time>2025-12-15T14:54:43Z</time>
      </trkpt>
      <trkpt lat="45.70659" lon="4.65497">
        <ele>469.8</ele>
        <time>2025-12-15T14:54:44Z</time>
      </trkpt>
      <trkpt lat="45.70659" lon="4.65497">
        <ele>469.8</ele>
        <time>2025-12-15T14:54:45Z</time>
      </trkpt>
      <trkpt lat="45.70659" lon="4.65497">
        <ele>470</ele>
        <time>2025-12-15T14:54:46Z</time>
      </trkpt>
      <trkpt lat="45.70659" lon="4.65497">
        <ele>470</ele>
        <time>2025-12-15T14:54:47Z</time>
      </trkpt>
      <trkpt lat="45.70659" lon="4.65497">
        <ele>470</ele>
        <time>2025-12-15T14:54:48Z</time>
      </trkpt>
      <trkpt lat="45.70659" lon="4.65497">
        <ele>470</ele>
        <time>2025-12-15T14:54:49Z</time>
      </trkpt>
      <trkpt lat="45.70659" lon="4.65497">
        <ele>470</ele>
        <time>2025-12-15T14:54:50Z</time>
      </trkpt>
      <trkpt lat="45.70659" lon="4.65497">
        <ele>470</ele>
        <time>2025-12-15T14:54:51Z</time>
      </trkpt>
      <trkpt lat="45.70659" lon="4.65497">
        <ele>470</ele>
        <time>2025-12-15T14:54:52Z</time>
      </trkpt>
      <trkpt lat="45.70659" lon="4.65497">
        <ele>470</ele>
        <time>2025-12-15T14:54:53Z</time>
      </trkpt>
      <trkpt lat="45.70659" lon="4.65497">
        <ele>470</ele>
        <time>2025-12-15T14:54:54Z</time>
      </trkpt>
      <trkpt lat="45.70659" lon="4.65497">
        <ele>470</ele>
        <time>2025-12-15T14:54:55Z</time>
      </trkpt>
      <trkpt lat="45.70659" lon="4.65497">
        <ele>469.8</ele>
        <time>2025-12-15T14:54:56Z</time>
      </trkpt>
      <trkpt lat="45.70659" lon="4.65497">
        <ele>469.8</ele>
        <time>2025-12-15T14:54:57Z</time>
      </trkpt>
      <trkpt lat="45.70659" lon="4.65497">
        <ele>469.8</ele>
        <time>2025-12-15T14:54:58Z</time>
      </trkpt>
      <trkpt lat="45.70659" lon="4.65497">
        <ele>469.8</ele>
        <time>2025-12-15T14:54:59Z</time>
      </trkpt>
      <trkpt lat="45.70659" lon="4.65497">
        <ele>470</ele>
        <time>2025-12-15T14:55:00Z</time>
      </trkpt>
      <trkpt lat="45.70659" lon="4.65497">
        <ele>470</ele>
        <time>2025-12-15T14:55:01Z</time>
      </trkpt>
      <trkpt lat="45.70659" lon="4.65497">
        <ele>470</ele>
        <time>2025-12-15T14:55:02Z</time>
      </trkpt>
      <trkpt lat="45.70659" lon="4.65497">
        <ele>470</ele>
        <time>2025-12-15T14:55:03Z</time>
      </trkpt>
      <trkpt lat="45.70659" lon="4.65497">
        <ele>469.8</ele>
        <time>2025-12-15T14:55:04Z</time>
      </trkpt>
      <trkpt lat="45.70659" lon="4.65497">
        <ele>469.8</ele>
        <time>2025-12-15T14:55:05Z</time>
      </trkpt>
      <trkpt lat="45.70659" lon="4.65497">
        <ele>469.8</ele>
        <time>2025-12-15T14:55:06Z</time>
      </trkpt>
      <trkpt lat="45.70659" lon="4.65497">
        <ele>469.8</ele>
        <time>2025-12-15T14:55:07Z</time>
      </trkpt>
      <trkpt lat="45.70659" lon="4.65497">
        <ele>469.8</ele>
        <time>2025-12-15T14:55:08Z</time>
      </trkpt>
      <trkpt lat="45.70659" lon="4.65497">
        <ele>469.6</ele>
        <time>2025-12-15T14:55:09Z</time>
      </trkpt>
      <trkpt lat="45.70659" lon="4.65497">
        <ele>469.6</ele>
        <time>2025-12-15T14:55:10Z</time>
      </trkpt>
      <trkpt lat="45.70659" lon="4.65497">
        <ele>469.6</ele>
        <time>2025-12-15T14:55:11Z</time>
      </trkpt>
      <trkpt lat="45.70659" lon="4.65497">
        <ele>469.6</ele>
        <time>2025-12-15T14:55:12Z</time>
      </trkpt>
      <trkpt lat="45.70659" lon="4.65497">
        <ele>469.6</ele>
        <time>2025-12-15T14:55:13Z</time>
      </trkpt>
      <trkpt lat="45.70659" lon="4.65497">
        <ele>469.6</ele>
        <time>2025-12-15T14:55:14Z</time>
      </trkpt>
      <trkpt lat="45.70659" lon="4.65497">
        <ele>469.8</ele>
        <time>2025-12-15T14:55:15Z</time>
      </trkpt>
      <trkpt lat="45.70659" lon="4.65497">
        <ele>469.8</ele>
        <time>2025-12-15T14:55:16Z</time>
      </trkpt>
      <trkpt lat="45.70659" lon="4.65497">
        <ele>469.8</ele>
        <time>2025-12-15T14:55:17Z</time>
      </trkpt>
      <trkpt lat="45.70659" lon="4.65497">
        <ele>469.8</ele>
        <time>2025-12-15T14:55:18Z</time>
      </trkpt>
      <trkpt lat="45.70659" lon="4.65497">
        <ele>469.8</ele>
        <time>2025-12-15T14:55:19Z</time>
      </trkpt>
      <trkpt lat="45.70659" lon="4.65497">
        <ele>469.8</ele>
        <time>2025-12-15T14:55:20Z</time>
      </trkpt>
      <trkpt lat="45.70659" lon="4.65497">
        <ele>469.8</ele>
        <time>2025-12-15T14:55:21Z</time>
      </trkpt>
      <trkpt lat="45.70659" lon="4.65497">
        <ele>469.8</ele>
        <time>2025-12-15T14:55:22Z</time>
      </trkpt>
      <trkpt lat="45.70659" lon="4.65497">
        <ele>469.8</ele>
        <time>2025-12-15T14:55:23Z</time>
      </trkpt>
      <trkpt lat="45.70659" lon="4.65497">
        <ele>469.8</ele>
        <time>2025-12-15T14:55:24Z</time>
      </trkpt>
      <trkpt lat="45.70659" lon="4.65497">
        <ele>469.6</ele>
        <time>2025-12-15T14:55:25Z</time>
      </trkpt>
      <trkpt lat="45.70659" lon="4.65497">
        <ele>469.6</ele>
        <time>2025-12-15T14:55:26Z</time>
      </trkpt>
      <trkpt lat="45.7066" lon="4.65499">
        <ele>469.6</ele>
        <time>2025-12-15T14:55:27Z</time>
      </trkpt>
      <trkpt lat="45.70662" lon="4.65503">
        <ele>469.6</ele>
        <time>2025-12-15T14:55:28Z</time>
      </trkpt>
      <trkpt lat="45.70665" lon="4.65507">
        <ele>469.4</ele>
        <time>2025-12-15T14:55:29Z</time>
      </trkpt>
      <trkpt lat="45.70669" lon="4.65511">
        <ele>469</ele>
        <time>2025-12-15T14:55:30Z</time>
      </trkpt>
      <trkpt lat="45.70675" lon="4.65514">
        <ele>468.2</ele>
        <time>2025-12-15T14:55:31Z</time>
      </trkpt>
      <trkpt lat="45.70681" lon="4.65518">
        <ele>467.2</ele>
        <time>2025-12-15T14:55:32Z</time>
      </trkpt>
      <trkpt lat="45.70688" lon="4.65521">
        <ele>466.2</ele>
        <time>2025-12-15T14:55:33Z</time>
      </trkpt>
      <trkpt lat="45.70695" lon="4.65526">
        <ele>465</ele>
        <time>2025-12-15T14:55:34Z</time>
      </trkpt>
      <trkpt lat="45.707" lon="4.65533">
        <ele>463.8</ele>
        <time>2025-12-15T14:55:35Z</time>
      </trkpt>
      <trkpt lat="45.70703" lon="4.65541">
        <ele>462.8</ele>
        <time>2025-12-15T14:55:36Z</time>
      </trkpt>
      <trkpt lat="45.70702" lon="4.65551">
        <ele>461.8</ele>
        <time>2025-12-15T14:55:37Z</time>
      </trkpt>
      <trkpt lat="45.70699" lon="4.6556">
        <ele>461</ele>
        <time>2025-12-15T14:55:38Z</time>
      </trkpt>
      <trkpt lat="45.70696" lon="4.65568">
        <ele>460</ele>
        <time>2025-12-15T14:55:39Z</time>
      </trkpt>
      <trkpt lat="45.70692" lon="4.65577">
        <ele>459.2</ele>
        <time>2025-12-15T14:55:40Z</time>
      </trkpt>
      <trkpt lat="45.70689" lon="4.65587">
        <ele>458.4</ele>
        <time>2025-12-15T14:55:41Z</time>
      </trkpt>
      <trkpt lat="45.70686" lon="4.65598">
        <ele>457.8</ele>
        <time>2025-12-15T14:55:42Z</time>
      </trkpt>
      <trkpt lat="45.70683" lon="4.65608">
        <ele>457.6</ele>
        <time>2025-12-15T14:55:43Z</time>
      </trkpt>
      <trkpt lat="45.70681" lon="4.65619">
        <ele>457.4</ele>
        <time>2025-12-15T14:55:44Z</time>
      </trkpt>
      <trkpt lat="45.7068" lon="4.6563">
        <ele>457.4</ele>
        <time>2025-12-15T14:55:45Z</time>
      </trkpt>
      <trkpt lat="45.70679" lon="4.65641">
        <ele>457.4</ele>
        <time>2025-12-15T14:55:46Z</time>
      </trkpt>
      <trkpt lat="45.70679" lon="4.65652">
        <ele>457.4</ele>
        <time>2025-12-15T14:55:47Z</time>
      </trkpt>
      <trkpt lat="45.70678" lon="4.65663">
        <ele>457.4</ele>
        <time>2025-12-15T14:55:48Z</time>
      </trkpt>
      <trkpt lat="45.70678" lon="4.65674">
        <ele>457</ele>
        <time>2025-12-15T14:55:49Z</time>
      </trkpt>
      <trkpt lat="45.70678" lon="4.65687">
        <ele>456.4</ele>
        <time>2025-12-15T14:55:50Z</time>
      </trkpt>
      <trkpt lat="45.70677" lon="4.657">
        <ele>455.8</ele>
        <time>2025-12-15T14:55:51Z</time>
      </trkpt>
      <trkpt lat="45.70676" lon="4.65714">
        <ele>454.8</ele>
        <time>2025-12-15T14:55:52Z</time>
      </trkpt>
      <trkpt lat="45.70676" lon="4.65729">
        <ele>453.8</ele>
        <time>2025-12-15T14:55:53Z</time>
      </trkpt>
      <trkpt lat="45.70675" lon="4.65743">
        <ele>452.8</ele>
        <time>2025-12-15T14:55:54Z</time>
      </trkpt>
      <trkpt lat="45.70674" lon="4.65758">
        <ele>451.6</ele>
        <time>2025-12-15T14:55:55Z</time>
      </trkpt>
      <trkpt lat="45.70673" lon="4.65771">
        <ele>450.4</ele>
        <time>2025-12-15T14:55:56Z</time>
      </trkpt>
      <trkpt lat="45.70673" lon="4.65783">
        <ele>449.4</ele>
        <time>2025-12-15T14:55:57Z</time>
      </trkpt>
      <trkpt lat="45.70671" lon="4.65793">
        <ele>448.2</ele>
        <time>2025-12-15T14:55:58Z</time>
      </trkpt>
      <trkpt lat="45.7067" lon="4.65801">
        <ele>447</ele>
        <time>2025-12-15T14:55:59Z</time>
      </trkpt>
      <trkpt lat="45.70669" lon="4.65809">
        <ele>446</ele>
        <time>2025-12-15T14:56:00Z</time>
      </trkpt>
      <trkpt lat="45.70666" lon="4.65816">
        <ele>445.4</ele>
        <time>2025-12-15T14:56:01Z</time>
      </trkpt>
      <trkpt lat="45.70663" lon="4.65823">
        <ele>444.8</ele>
        <time>2025-12-15T14:56:02Z</time>
      </trkpt>
      <trkpt lat="45.7066" lon="4.6583">
        <ele>444.2</ele>
        <time>2025-12-15T14:56:03Z</time>
      </trkpt>
      <trkpt lat="45.70656" lon="4.65836">
        <ele>443.8</ele>
        <time>2025-12-15T14:56:04Z</time>
      </trkpt>
      <trkpt lat="45.70653" lon="4.65843">
        <ele>443.2</ele>
        <time>2025-12-15T14:56:05Z</time>
      </trkpt>
      <trkpt lat="45.7065" lon="4.6585">
        <ele>442.4</ele>
        <time>2025-12-15T14:56:06Z</time>
      </trkpt>
      <trkpt lat="45.70647" lon="4.65857">
        <ele>441.6</ele>
        <time>2025-12-15T14:56:07Z</time>
      </trkpt>
      <trkpt lat="45.70645" lon="4.65865">
        <ele>440.6</ele>
        <time>2025-12-15T14:56:08Z</time>
      </trkpt>
      <trkpt lat="45.70644" lon="4.65875">
        <ele>439.8</ele>
        <time>2025-12-15T14:56:09Z</time>
      </trkpt>
      <trkpt lat="45.70643" lon="4.65886">
        <ele>438.8</ele>
        <time>2025-12-15T14:56:10Z</time>
      </trkpt>
      <trkpt lat="45.70642" lon="4.65897">
        <ele>437.8</ele>
        <time>2025-12-15T14:56:11Z</time>
      </trkpt>
      <trkpt lat="45.70641" lon="4.65909">
        <ele>436.6</ele>
        <time>2025-12-15T14:56:12Z</time>
      </trkpt>
      <trkpt lat="45.7064" lon="4.65922">
        <ele>435.2</ele>
        <time>2025-12-15T14:56:13Z</time>
      </trkpt>
      <trkpt lat="45.7064" lon="4.65936">
        <ele>433.6</ele>
        <time>2025-12-15T14:56:14Z</time>
      </trkpt>
      <trkpt lat="45.70639" lon="4.6595">
        <ele>432.2</ele>
        <time>2025-12-15T14:56:15Z</time>
      </trkpt>
      <trkpt lat="45.70639" lon="4.65965">
        <ele>430.8</ele>
        <time>2025-12-15T14:56:16Z</time>
      </trkpt>
      <trkpt lat="45.70638" lon="4.6598">
        <ele>429.4</ele>
        <time>2025-12-15T14:56:17Z</time>
      </trkpt>
      <trkpt lat="45.70638" lon="4.65995">
        <ele>428.4</ele>
        <time>2025-12-15T14:56:18Z</time>
      </trkpt>
      <trkpt lat="45.70638" lon="4.66011">
        <ele>427.2</ele>
        <time>2025-12-15T14:56:19Z</time>
      </trkpt>
      <trkpt lat="45.70638" lon="4.66026">
        <ele>426.2</ele>
        <time>2025-12-15T14:56:20Z</time>
      </trkpt>
      <trkpt lat="45.70638" lon="4.66042">
        <ele>425.2</ele>
        <time>2025-12-15T14:56:21Z</time>
      </trkpt>
      <trkpt lat="45.70639" lon="4.66057">
        <ele>424.4</ele>
        <time>2025-12-15T14:56:22Z</time>
      </trkpt>
      <trkpt lat="45.70638" lon="4.66072">
        <ele>423.4</ele>
        <time>2025-12-15T14:56:23Z</time>
      </trkpt>
      <trkpt lat="45.70636" lon="4.66087">
        <ele>422.8</ele>
        <time>2025-12-15T14:56:24Z</time>
      </trkpt>
      <trkpt lat="45.70634" lon="4.66101">
        <ele>422.2</ele>
        <time>2025-12-15T14:56:25Z</time>
      </trkpt>
      <trkpt lat="45.70631" lon="4.66115">
        <ele>421.4</ele>
        <time>2025-12-15T14:56:26Z</time>
      </trkpt>
      <trkpt lat="45.70627" lon="4.66127">
        <ele>420.8</ele>
        <time>2025-12-15T14:56:27Z</time>
      </trkpt>
      <trkpt lat="45.70622" lon="4.66139">
        <ele>420.6</ele>
        <time>2025-12-15T14:56:28Z</time>
      </trkpt>
      <trkpt lat="45.70618" lon="4.66151">
        <ele>420.4</ele>
        <time>2025-12-15T14:56:29Z</time>
      </trkpt>
      <trkpt lat="45.70613" lon="4.66162">
        <ele>420.2</ele>
        <time>2025-12-15T14:56:30Z</time>
      </trkpt>
      <trkpt lat="45.70607" lon="4.66174">
        <ele>420</ele>
        <time>2025-12-15T14:56:31Z</time>
      </trkpt>
      <trkpt lat="45.70602" lon="4.66185">
        <ele>419.8</ele>
        <time>2025-12-15T14:56:32Z</time>
      </trkpt>
      <trkpt lat="45.70596" lon="4.66196">
        <ele>419.2</ele>
        <time>2025-12-15T14:56:33Z</time>
      </trkpt>
      <trkpt lat="45.70591" lon="4.66205">
        <ele>418.6</ele>
        <time>2025-12-15T14:56:34Z</time>
      </trkpt>
      <trkpt lat="45.70588" lon="4.66212">
        <ele>418.2</ele>
        <time>2025-12-15T14:56:35Z</time>
      </trkpt>
      <trkpt lat="45.70585" lon="4.66218">
        <ele>418.4</ele>
        <time>2025-12-15T14:56:36Z</time>
      </trkpt>
      <trkpt lat="45.70586" lon="4.66222">
        <ele>418.8</ele>
        <time>2025-12-15T14:56:37Z</time>
      </trkpt>
      <trkpt lat="45.70589" lon="4.66225">
        <ele>419.4</ele>
        <time>2025-12-15T14:56:38Z</time>
      </trkpt>
      <trkpt lat="45.70591" lon="4.66226">
        <ele>420</ele>
        <time>2025-12-15T14:56:39Z</time>
      </trkpt>
      <trkpt lat="45.70594" lon="4.66225">
        <ele>420.4</ele>
        <time>2025-12-15T14:56:40Z</time>
      </trkpt>
      <trkpt lat="45.70595" lon="4.66225">
        <ele>420.8</ele>
        <time>2025-12-15T14:56:41Z</time>
      </trkpt>
      <trkpt lat="45.70597" lon="4.66225">
        <ele>420.8</ele>
        <time>2025-12-15T14:56:42Z</time>
      </trkpt>
      <trkpt lat="45.70597" lon="4.66226">
        <ele>421</ele>
        <time>2025-12-15T14:56:43Z</time>
      </trkpt>
      <trkpt lat="45.70597" lon="4.66226">
        <ele>421</ele>
        <time>2025-12-15T14:56:44Z</time>
      </trkpt>
      <trkpt lat="45.70597" lon="4.66226">
        <ele>421</ele>
        <time>2025-12-15T14:56:45Z</time>
      </trkpt>
      <trkpt lat="45.70597" lon="4.66226">
        <ele>421</ele>
        <time>2025-12-15T14:56:46Z</time>
      </trkpt>
      <trkpt lat="45.70597" lon="4.66226">
        <ele>421.2</ele>
        <time>2025-12-15T14:56:47Z</time>
      </trkpt>
      <trkpt lat="45.70597" lon="4.66226">
        <ele>421.2</ele>
        <time>2025-12-15T14:56:48Z</time>
      </trkpt>
      <trkpt lat="45.70597" lon="4.66226">
        <ele>421.4</ele>
        <time>2025-12-15T14:56:49Z</time>
      </trkpt>
      <trkpt lat="45.70597" lon="4.66226">
        <ele>421.4</ele>
        <time>2025-12-15T14:56:50Z</time>
      </trkpt>
      <trkpt lat="45.70597" lon="4.66226">
        <ele>421.4</ele>
        <time>2025-12-15T14:56:51Z</time>
      </trkpt>
      <trkpt lat="45.70597" lon="4.66226">
        <ele>421.6</ele>
        <time>2025-12-15T14:56:52Z</time>
      </trkpt>
      <trkpt lat="45.70597" lon="4.66226">
        <ele>421.6</ele>
        <time>2025-12-15T14:56:53Z</time>
      </trkpt>
      <trkpt lat="45.70597" lon="4.66226">
        <ele>421.6</ele>
        <time>2025-12-15T14:56:54Z</time>
      </trkpt>
      <trkpt lat="45.70597" lon="4.66226">
        <ele>421.6</ele>
        <time>2025-12-15T14:56:55Z</time>
      </trkpt>
      <trkpt lat="45.70597" lon="4.66226">
        <ele>421.4</ele>
        <time>2025-12-15T14:56:56Z</time>
      </trkpt>
      <trkpt lat="45.70597" lon="4.66226">
        <ele>421.4</ele>
        <time>2025-12-15T14:56:57Z</time>
      </trkpt>
      <trkpt lat="45.70597" lon="4.66226">
        <ele>421.4</ele>
        <time>2025-12-15T14:56:58Z</time>
      </trkpt>
      <trkpt lat="45.70597" lon="4.66226">
        <ele>421.4</ele>
        <time>2025-12-15T14:56:59Z</time>
      </trkpt>
      <trkpt lat="45.70597" lon="4.66226">
        <ele>421.4</ele>
        <time>2025-12-15T14:57:00Z</time>
      </trkpt>
      <trkpt lat="45.70597" lon="4.66226">
        <ele>421.2</ele>
        <time>2025-12-15T14:57:01Z</time>
      </trkpt>
      <trkpt lat="45.70597" lon="4.66226">
        <ele>420.8</ele>
        <time>2025-12-15T14:57:02Z</time>
      </trkpt>
      <trkpt lat="45.70597" lon="4.66226">
        <ele>421</ele>
        <time>2025-12-15T14:57:03Z</time>
      </trkpt>
      <trkpt lat="45.70597" lon="4.66226">
        <ele>421.2</ele>
        <time>2025-12-15T14:57:04Z</time>
      </trkpt>
      <trkpt lat="45.70597" lon="4.66226">
        <ele>421.2</ele>
        <time>2025-12-15T14:57:05Z</time>
      </trkpt>
      <trkpt lat="45.70597" lon="4.66226">
        <ele>421.4</ele>
        <time>2025-12-15T14:57:06Z</time>
      </trkpt>
      <trkpt lat="45.70597" lon="4.66226">
        <ele>422.8</ele>
        <time>2025-12-15T14:57:07Z</time>
      </trkpt>
      <trkpt lat="45.70597" lon="4.66226">
        <ele>422.6</ele>
        <time>2025-12-15T14:57:08Z</time>
      </trkpt>
      <trkpt lat="45.70597" lon="4.66226">
        <ele>422.4</ele>
        <time>2025-12-15T14:57:09Z</time>
      </trkpt>
      <trkpt lat="45.70597" lon="4.66226">
        <ele>422.2</ele>
        <time>2025-12-15T14:57:10Z</time>
      </trkpt>
      <trkpt lat="45.70597" lon="4.66226">
        <ele>422</ele>
        <time>2025-12-15T14:57:11Z</time>
      </trkpt>
      <trkpt lat="45.70597" lon="4.66226">
        <ele>421.6</ele>
        <time>2025-12-15T14:57:12Z</time>
      </trkpt>
      <trkpt lat="45.70597" lon="4.66226">
        <ele>421.4</ele>
        <time>2025-12-15T14:57:13Z</time>
      </trkpt>
      <trkpt lat="45.70597" lon="4.66226">
        <ele>421.2</ele>
        <time>2025-12-15T14:57:14Z</time>
      </trkpt>
      <trkpt lat="45.70597" lon="4.66226">
        <ele>421.2</ele>
        <time>2025-12-15T14:57:15Z</time>
      </trkpt>
      <trkpt lat="45.70598" lon="4.66226">
        <ele>421</ele>
        <time>2025-12-15T14:57:16Z</time>
      </trkpt>
      <trkpt lat="45.706" lon="4.66228">
        <ele>421</ele>
        <time>2025-12-15T14:57:17Z</time>
      </trkpt>
      <trkpt lat="45.70602" lon="4.6623">
        <ele>420.8</ele>
        <time>2025-12-15T14:57:18Z</time>
      </trkpt>
      <trkpt lat="45.70605" lon="4.66233">
        <ele>420.8</ele>
        <time>2025-12-15T14:57:19Z</time>
      </trkpt>
      <trkpt lat="45.70609" lon="4.66236">
        <ele>420.6</ele>
        <time>2025-12-15T14:57:20Z</time>
      </trkpt>
      <trkpt lat="45.70613" lon="4.66238">
        <ele>420.6</ele>
        <time>2025-12-15T14:57:21Z</time>
      </trkpt>
      <trkpt lat="45.70618" lon="4.6624">
        <ele>420.6</ele>
        <time>2025-12-15T14:57:22Z</time>
      </trkpt>
      <trkpt lat="45.70622" lon="4.66241">
        <ele>420.6</ele>
        <time>2025-12-15T14:57:23Z</time>
      </trkpt>
      <trkpt lat="45.70627" lon="4.66243">
        <ele>420.4</ele>
        <time>2025-12-15T14:57:24Z</time>
      </trkpt>
      <trkpt lat="45.70633" lon="4.66245">
        <ele>420.2</ele>
        <time>2025-12-15T14:57:25Z</time>
      </trkpt>
      <trkpt lat="45.70638" lon="4.66247">
        <ele>419.8</ele>
        <time>2025-12-15T14:57:26Z</time>
      </trkpt>
      <trkpt lat="45.70644" lon="4.66249">
        <ele>419.2</ele>
        <time>2025-12-15T14:57:27Z</time>
      </trkpt>
      <trkpt lat="45.70652" lon="4.6625">
        <ele>418.6</ele>
        <time>2025-12-15T14:57:28Z</time>
      </trkpt>
      <trkpt lat="45.70659" lon="4.66251">
        <ele>417.8</ele>
        <time>2025-12-15T14:57:29Z</time>
      </trkpt>
      <trkpt lat="45.70666" lon="4.66251">
        <ele>416.8</ele>
        <time>2025-12-15T14:57:30Z</time>
      </trkpt>
      <trkpt lat="45.70674" lon="4.66249">
        <ele>415.8</ele>
        <time>2025-12-15T14:57:31Z</time>
      </trkpt>
      <trkpt lat="45.70681" lon="4.66245">
        <ele>414.8</ele>
        <time>2025-12-15T14:57:32Z</time>
      </trkpt>
      <trkpt lat="45.70689" lon="4.66238">
        <ele>413.6</ele>
        <time>2025-12-15T14:57:33Z</time>
      </trkpt>
      <trkpt lat="45.70695" lon="4.66231">
        <ele>412.2</ele>
        <time>2025-12-15T14:57:34Z</time>
      </trkpt>
      <trkpt lat="45.70701" lon="4.66224">
        <ele>411</ele>
        <time>2025-12-15T14:57:35Z</time>
      </trkpt>
      <trkpt lat="45.70708" lon="4.6622">
        <ele>410</ele>
        <time>2025-12-15T14:57:36Z</time>
      </trkpt>
      <trkpt lat="45.70713" lon="4.66219">
        <ele>409.2</ele>
        <time>2025-12-15T14:57:37Z</time>
      </trkpt>
      <trkpt lat="45.70717" lon="4.66223">
        <ele>408.6</ele>
        <time>2025-12-15T14:57:38Z</time>
      </trkpt>
      <trkpt lat="45.7072" lon="4.6623">
        <ele>408.4</ele>
        <time>2025-12-15T14:57:39Z</time>
      </trkpt>
      <trkpt lat="45.70722" lon="4.66237">
        <ele>408</ele>
        <time>2025-12-15T14:57:40Z</time>
      </trkpt>
      <trkpt lat="45.70725" lon="4.66245">
        <ele>407.8</ele>
        <time>2025-12-15T14:57:41Z</time>
      </trkpt>
      <trkpt lat="45.70726" lon="4.66254">
        <ele>407.4</ele>
        <time>2025-12-15T14:57:42Z</time>
      </trkpt>
      <trkpt lat="45.70725" lon="4.66263">
        <ele>406.8</ele>
        <time>2025-12-15T14:57:43Z</time>
      </trkpt>
      <trkpt lat="45.70724" lon="4.66271">
        <ele>406.2</ele>
        <time>2025-12-15T14:57:44Z</time>
      </trkpt>
      <trkpt lat="45.70721" lon="4.6628">
        <ele>405.8</ele>
        <time>2025-12-15T14:57:45Z</time>
      </trkpt>
      <trkpt lat="45.70718" lon="4.66288">
        <ele>405.6</ele>
        <time>2025-12-15T14:57:46Z</time>
      </trkpt>
      <trkpt lat="45.70715" lon="4.66296">
        <ele>405.4</ele>
        <time>2025-12-15T14:57:47Z</time>
      </trkpt>
      <trkpt lat="45.70713" lon="4.66303">
        <ele>405.2</ele>
        <time>2025-12-15T14:57:48Z</time>
      </trkpt>
      <trkpt lat="45.70711" lon="4.66311">
        <ele>405.2</ele>
        <time>2025-12-15T14:57:49Z</time>
      </trkpt>
      <trkpt lat="45.70708" lon="4.66318">
        <ele>404.8</ele>
        <time>2025-12-15T14:57:50Z</time>
      </trkpt>
      <trkpt lat="45.70705" lon="4.66326">
        <ele>404.4</ele>
        <time>2025-12-15T14:57:51Z</time>
      </trkpt>
      <trkpt lat="45.70702" lon="4.66334">
        <ele>403.8</ele>
        <time>2025-12-15T14:57:52Z</time>
      </trkpt>
      <trkpt lat="45.70699" lon="4.66342">
        <ele>403.4</ele>
        <time>2025-12-15T14:57:53Z</time>
      </trkpt>
      <trkpt lat="45.70696" lon="4.66351">
        <ele>403</ele>
        <time>2025-12-15T14:57:54Z</time>
      </trkpt>
      <trkpt lat="45.70692" lon="4.6636">
        <ele>402.8</ele>
        <time>2025-12-15T14:57:55Z</time>
      </trkpt>
      <trkpt lat="45.7069" lon="4.6637">
        <ele>402.8</ele>
        <time>2025-12-15T14:57:56Z</time>
      </trkpt>
      <trkpt lat="45.70688" lon="4.6638">
        <ele>402.2</ele>
        <time>2025-12-15T14:57:57Z</time>
      </trkpt>
      <trkpt lat="45.70686" lon="4.6639">
        <ele>401.8</ele>
        <time>2025-12-15T14:57:58Z</time>
      </trkpt>
      <trkpt lat="45.70684" lon="4.66401">
        <ele>401.4</ele>
        <time>2025-12-15T14:57:59Z</time>
      </trkpt>
      <trkpt lat="45.70682" lon="4.66411">
        <ele>401</ele>
        <time>2025-12-15T14:58:00Z</time>
      </trkpt>
      <trkpt lat="45.70681" lon="4.66421">
        <ele>400.6</ele>
        <time>2025-12-15T14:58:01Z</time>
      </trkpt>
      <trkpt lat="45.70679" lon="4.66432">
        <ele>400.6</ele>
        <time>2025-12-15T14:58:02Z</time>
      </trkpt>
      <trkpt lat="45.70678" lon="4.66441">
        <ele>400.4</ele>
        <time>2025-12-15T14:58:03Z</time>
      </trkpt>
      <trkpt lat="45.70678" lon="4.6645">
        <ele>400.4</ele>
        <time>2025-12-15T14:58:04Z</time>
      </trkpt>
      <trkpt lat="45.70677" lon="4.66459">
        <ele>400.2</ele>
        <time>2025-12-15T14:58:05Z</time>
      </trkpt>
      <trkpt lat="45.70677" lon="4.66468">
        <ele>400</ele>
        <time>2025-12-15T14:58:06Z</time>
      </trkpt>
      <trkpt lat="45.70676" lon="4.66476">
        <ele>400</ele>
        <time>2025-12-15T14:58:07Z</time>
      </trkpt>
      <trkpt lat="45.70676" lon="4.66484">
        <ele>400</ele>
        <time>2025-12-15T14:58:08Z</time>
      </trkpt>
      <trkpt lat="45.70676" lon="4.66492">
        <ele>400.2</ele>
        <time>2025-12-15T14:58:09Z</time>
      </trkpt>
      <trkpt lat="45.70676" lon="4.665">
        <ele>400.6</ele>
        <time>2025-12-15T14:58:10Z</time>
      </trkpt>
      <trkpt lat="45.70676" lon="4.66507">
        <ele>401.2</ele>
        <time>2025-12-15T14:58:11Z</time>
      </trkpt>
      <trkpt lat="45.70676" lon="4.66515">
        <ele>401.8</ele>
        <time>2025-12-15T14:58:12Z</time>
      </trkpt>
      <trkpt lat="45.70676" lon="4.66523">
        <ele>402.4</ele>
        <time>2025-12-15T14:58:13Z</time>
      </trkpt>
      <trkpt lat="45.70675" lon="4.66531">
        <ele>402.8</ele>
        <time>2025-12-15T14:58:14Z</time>
      </trkpt>
      <trkpt lat="45.70675" lon="4.66538">
        <ele>403.2</ele>
        <time>2025-12-15T14:58:15Z</time>
      </trkpt>
      <trkpt lat="45.70675" lon="4.66545">
        <ele>403.4</ele>
        <time>2025-12-15T14:58:16Z</time>
      </trkpt>
      <trkpt lat="45.70675" lon="4.66553">
        <ele>403.4</ele>
        <time>2025-12-15T14:58:17Z</time>
      </trkpt>
      <trkpt lat="45.70675" lon="4.6656">
        <ele>403.4</ele>
        <time>2025-12-15T14:58:18Z</time>
      </trkpt>
      <trkpt lat="45.70675" lon="4.66567">
        <ele>403.6</ele>
        <time>2025-12-15T14:58:19Z</time>
      </trkpt>
      <trkpt lat="45.70674" lon="4.66574">
        <ele>403.8</ele>
        <time>2025-12-15T14:58:20Z</time>
      </trkpt>
      <trkpt lat="45.70673" lon="4.66581">
        <ele>404</ele>
        <time>2025-12-15T14:58:21Z</time>
      </trkpt>
      <trkpt lat="45.70673" lon="4.6659">
        <ele>404.2</ele>
        <time>2025-12-15T14:58:22Z</time>
      </trkpt>
      <trkpt lat="45.70672" lon="4.66597">
        <ele>404.2</ele>
        <time>2025-12-15T14:58:23Z</time>
      </trkpt>
      <trkpt lat="45.70671" lon="4.66605">
        <ele>404.2</ele>
        <time>2025-12-15T14:58:24Z</time>
      </trkpt>
      <trkpt lat="45.7067" lon="4.66612">
        <ele>404.2</ele>
        <time>2025-12-15T14:58:25Z</time>
      </trkpt>
      <trkpt lat="45.7067" lon="4.6662">
        <ele>404</ele>
        <time>2025-12-15T14:58:26Z</time>
      </trkpt>
      <trkpt lat="45.7067" lon="4.66627">
        <ele>404</ele>
        <time>2025-12-15T14:58:27Z</time>
      </trkpt>
      <trkpt lat="45.7067" lon="4.66634">
        <ele>404.2</ele>
        <time>2025-12-15T14:58:28Z</time>
      </trkpt>
      <trkpt lat="45.70672" lon="4.66641">
        <ele>404.2</ele>
        <time>2025-12-15T14:58:29Z</time>
      </trkpt>
      <trkpt lat="45.70674" lon="4.66648">
        <ele>404.4</ele>
        <time>2025-12-15T14:58:30Z</time>
      </trkpt>
      <trkpt lat="45.70677" lon="4.66655">
        <ele>404.6</ele>
        <time>2025-12-15T14:58:31Z</time>
      </trkpt>
      <trkpt lat="45.7068" lon="4.66662">
        <ele>404.8</ele>
        <time>2025-12-15T14:58:32Z</time>
      </trkpt>
      <trkpt lat="45.70683" lon="4.66669">
        <ele>404.8</ele>
        <time>2025-12-15T14:58:33Z</time>
      </trkpt>
      <trkpt lat="45.70686" lon="4.66675">
        <ele>405</ele>
        <time>2025-12-15T14:58:34Z</time>
      </trkpt>
      <trkpt lat="45.70689" lon="4.66681">
        <ele>405</ele>
        <time>2025-12-15T14:58:35Z</time>
      </trkpt>
      <trkpt lat="45.70693" lon="4.66686">
        <ele>405</ele>
        <time>2025-12-15T14:58:36Z</time>
      </trkpt>
      <trkpt lat="45.70696" lon="4.66691">
        <ele>405.2</ele>
        <time>2025-12-15T14:58:37Z</time>
      </trkpt>
      <trkpt lat="45.70699" lon="4.66696">
        <ele>405.4</ele>
        <time>2025-12-15T14:58:38Z</time>
      </trkpt>
      <trkpt lat="45.70702" lon="4.667">
        <ele>405.6</ele>
        <time>2025-12-15T14:58:39Z</time>
      </trkpt>
      <trkpt lat="45.70705" lon="4.66705">
        <ele>405.8</ele>
        <time>2025-12-15T14:58:40Z</time>
      </trkpt>
      <trkpt lat="45.70708" lon="4.66709">
        <ele>406</ele>
        <time>2025-12-15T14:58:41Z</time>
      </trkpt>
      <trkpt lat="45.70711" lon="4.66713">
        <ele>406.2</ele>
        <time>2025-12-15T14:58:42Z</time>
      </trkpt>
      <trkpt lat="45.70714" lon="4.66717">
        <ele>406.4</ele>
        <time>2025-12-15T14:58:43Z</time>
      </trkpt>
      <trkpt lat="45.70718" lon="4.66721">
        <ele>406.4</ele>
        <time>2025-12-15T14:58:44Z</time>
      </trkpt>
      <trkpt lat="45.70721" lon="4.66725">
        <ele>406.4</ele>
        <time>2025-12-15T14:58:45Z</time>
      </trkpt>
      <trkpt lat="45.70724" lon="4.66728">
        <ele>406.4</ele>
        <time>2025-12-15T14:58:46Z</time>
      </trkpt>
      <trkpt lat="45.70728" lon="4.66732">
        <ele>406.4</ele>
        <time>2025-12-15T14:58:47Z</time>
      </trkpt>
      <trkpt lat="45.70732" lon="4.66736">
        <ele>406.4</ele>
        <time>2025-12-15T14:58:48Z</time>
      </trkpt>
      <trkpt lat="45.70736" lon="4.66741">
        <ele>406.4</ele>
        <time>2025-12-15T14:58:49Z</time>
      </trkpt>
      <trkpt lat="45.7074" lon="4.66745">
        <ele>406.2</ele>
        <time>2025-12-15T14:58:50Z</time>
      </trkpt>
      <trkpt lat="45.70745" lon="4.66749">
        <ele>406.2</ele>
        <time>2025-12-15T14:58:51Z</time>
      </trkpt>
      <trkpt lat="45.70749" lon="4.66753">
        <ele>406</ele>
        <time>2025-12-15T14:58:52Z</time>
      </trkpt>
      <trkpt lat="45.70752" lon="4.66757">
        <ele>405.8</ele>
        <time>2025-12-15T14:58:53Z</time>
      </trkpt>
      <trkpt lat="45.70755" lon="4.66761">
        <ele>405.8</ele>
        <time>2025-12-15T14:58:54Z</time>
      </trkpt>
      <trkpt lat="45.70759" lon="4.66763">
        <ele>405.6</ele>
        <time>2025-12-15T14:58:55Z</time>
      </trkpt>
      <trkpt lat="45.70761" lon="4.66765">
        <ele>405.4</ele>
        <time>2025-12-15T14:58:56Z</time>
      </trkpt>
      <trkpt lat="45.70763" lon="4.66768">
        <ele>405.2</ele>
        <time>2025-12-15T14:58:57Z</time>
      </trkpt>
      <trkpt lat="45.70766" lon="4.66769">
        <ele>405</ele>
        <time>2025-12-15T14:58:58Z</time>
      </trkpt>
      <trkpt lat="45.70769" lon="4.66771">
        <ele>405</ele>
        <time>2025-12-15T14:58:59Z</time>
      </trkpt>
      <trkpt lat="45.70772" lon="4.66773">
        <ele>404.8</ele>
        <time>2025-12-15T14:59:00Z</time>
      </trkpt>
      <trkpt lat="45.70775" lon="4.66774">
        <ele>404.6</ele>
        <time>2025-12-15T14:59:01Z</time>
      </trkpt>
      <trkpt lat="45.70778" lon="4.66776">
        <ele>404.4</ele>
        <time>2025-12-15T14:59:02Z</time>
      </trkpt>
      <trkpt lat="45.70782" lon="4.66779">
        <ele>404.2</ele>
        <time>2025-12-15T14:59:03Z</time>
      </trkpt>
      <trkpt lat="45.70786" lon="4.66781">
        <ele>403.8</ele>
        <time>2025-12-15T14:59:04Z</time>
      </trkpt>
      <trkpt lat="45.70791" lon="4.66784">
        <ele>403.4</ele>
        <time>2025-12-15T14:59:05Z</time>
      </trkpt>
      <trkpt lat="45.70795" lon="4.66787">
        <ele>403.2</ele>
        <time>2025-12-15T14:59:06Z</time>
      </trkpt>
      <trkpt lat="45.708" lon="4.6679">
        <ele>402.8</ele>
        <time>2025-12-15T14:59:07Z</time>
      </trkpt>
      <trkpt lat="45.70805" lon="4.66793">
        <ele>402.4</ele>
        <time>2025-12-15T14:59:08Z</time>
      </trkpt>
      <trkpt lat="45.70809" lon="4.66796">
        <ele>402</ele>
        <time>2025-12-15T14:59:09Z</time>
      </trkpt>
      <trkpt lat="45.70811" lon="4.66798">
        <ele>401.8</ele>
        <time>2025-12-15T14:59:10Z</time>
      </trkpt>
      <trkpt lat="45.70812" lon="4.66801">
        <ele>401.4</ele>
        <time>2025-12-15T14:59:11Z</time>
      </trkpt>
      <trkpt lat="45.70812" lon="4.66804">
        <ele>401</ele>
        <time>2025-12-15T14:59:12Z</time>
      </trkpt>
      <trkpt lat="45.7081" lon="4.66806">
        <ele>400.6</ele>
        <time>2025-12-15T14:59:13Z</time>
      </trkpt>
      <trkpt lat="45.70807" lon="4.66808">
        <ele>400.2</ele>
        <time>2025-12-15T14:59:14Z</time>
      </trkpt>
      <trkpt lat="45.70805" lon="4.66811">
        <ele>399.8</ele>
        <time>2025-12-15T14:59:15Z</time>
      </trkpt>
      <trkpt lat="45.70803" lon="4.66813">
        <ele>399.6</ele>
        <time>2025-12-15T14:59:16Z</time>
      </trkpt>
      <trkpt lat="45.70801" lon="4.66816">
        <ele>399.2</ele>
        <time>2025-12-15T14:59:17Z</time>
      </trkpt>
      <trkpt lat="45.70799" lon="4.6682">
        <ele>399</ele>
        <time>2025-12-15T14:59:18Z</time>
      </trkpt>
      <trkpt lat="45.70796" lon="4.66823">
        <ele>398.8</ele>
        <time>2025-12-15T14:59:19Z</time>
      </trkpt>
      <trkpt lat="45.70794" lon="4.66826">
        <ele>398.6</ele>
        <time>2025-12-15T14:59:20Z</time>
      </trkpt>
      <trkpt lat="45.7079" lon="4.6683">
        <ele>398.4</ele>
        <time>2025-12-15T14:59:21Z</time>
      </trkpt>
      <trkpt lat="45.70787" lon="4.66834">
        <ele>398.2</ele>
        <time>2025-12-15T14:59:22Z</time>
      </trkpt>
      <trkpt lat="45.70783" lon="4.66839">
        <ele>398</ele>
        <time>2025-12-15T14:59:23Z</time>
      </trkpt>
      <trkpt lat="45.7078" lon="4.66844">
        <ele>397.6</ele>
        <time>2025-12-15T14:59:24Z</time>
      </trkpt>
      <trkpt lat="45.70776" lon="4.6685">
        <ele>397</ele>
        <time>2025-12-15T14:59:25Z</time>
      </trkpt>
      <trkpt lat="45.70772" lon="4.66856">
        <ele>396.4</ele>
        <time>2025-12-15T14:59:26Z</time>
      </trkpt>
      <trkpt lat="45.70768" lon="4.66862">
        <ele>395.8</ele>
        <time>2025-12-15T14:59:27Z</time>
      </trkpt>
      <trkpt lat="45.70763" lon="4.66868">
        <ele>395</ele>
        <time>2025-12-15T14:59:28Z</time>
      </trkpt>
      <trkpt lat="45.70759" lon="4.66874">
        <ele>393.8</ele>
        <time>2025-12-15T14:59:29Z</time>
      </trkpt>
      <trkpt lat="45.70754" lon="4.66881">
        <ele>392.8</ele>
        <time>2025-12-15T14:59:30Z</time>
      </trkpt>
      <trkpt lat="45.7075" lon="4.66888">
        <ele>391.6</ele>
        <time>2025-12-15T14:59:31Z</time>
      </trkpt>
      <trkpt lat="45.70746" lon="4.66894">
        <ele>390.8</ele>
        <time>2025-12-15T14:59:32Z</time>
      </trkpt>
      <trkpt lat="45.70742" lon="4.669">
        <ele>390</ele>
        <time>2025-12-15T14:59:33Z</time>
      </trkpt>
      <trkpt lat="45.70737" lon="4.66907">
        <ele>389.4</ele>
        <time>2025-12-15T14:59:34Z</time>
      </trkpt>
      <trkpt lat="45.70733" lon="4.66913">
        <ele>389.2</ele>
        <time>2025-12-15T14:59:35Z</time>
      </trkpt>
      <trkpt lat="45.70729" lon="4.6692">
        <ele>389</ele>
        <time>2025-12-15T14:59:36Z</time>
      </trkpt>
      <trkpt lat="45.70725" lon="4.66926">
        <ele>388.8</ele>
        <time>2025-12-15T14:59:37Z</time>
      </trkpt>
      <trkpt lat="45.70721" lon="4.66933">
        <ele>388.8</ele>
        <time>2025-12-15T14:59:38Z</time>
      </trkpt>
      <trkpt lat="45.70717" lon="4.6694">
        <ele>388.4</ele>
        <time>2025-12-15T14:59:39Z</time>
      </trkpt>
      <trkpt lat="45.70713" lon="4.66947">
        <ele>388.2</ele>
        <time>2025-12-15T14:59:40Z</time>
      </trkpt>
      <trkpt lat="45.70709" lon="4.66954">
        <ele>387.6</ele>
        <time>2025-12-15T14:59:41Z</time>
      </trkpt>
      <trkpt lat="45.70704" lon="4.66961">
        <ele>386.6</ele>
        <time>2025-12-15T14:59:42Z</time>
      </trkpt>
      <trkpt lat="45.70701" lon="4.66967">
        <ele>385.6</ele>
        <time>2025-12-15T14:59:43Z</time>
      </trkpt>
      <trkpt lat="45.70697" lon="4.66973">
        <ele>384.8</ele>
        <time>2025-12-15T14:59:44Z</time>
      </trkpt>
      <trkpt lat="45.70694" lon="4.66979">
        <ele>384</ele>
        <time>2025-12-15T14:59:45Z</time>
      </trkpt>
      <trkpt lat="45.7069" lon="4.66985">
        <ele>383.6</ele>
        <time>2025-12-15T14:59:46Z</time>
      </trkpt>
      <trkpt lat="45.70685" lon="4.66991">
        <ele>383.4</ele>
        <time>2025-12-15T14:59:47Z</time>
      </trkpt>
      <trkpt lat="45.70681" lon="4.66996">
        <ele>383.2</ele>
        <time>2025-12-15T14:59:48Z</time>
      </trkpt>
      <trkpt lat="45.70676" lon="4.67001">
        <ele>383</ele>
        <time>2025-12-15T14:59:49Z</time>
      </trkpt>
      <trkpt lat="45.70672" lon="4.67007">
        <ele>382.8</ele>
        <time>2025-12-15T14:59:50Z</time>
      </trkpt>
      <trkpt lat="45.70667" lon="4.67012">
        <ele>382.2</ele>
        <time>2025-12-15T14:59:51Z</time>
      </trkpt>
      <trkpt lat="45.70663" lon="4.67018">
        <ele>381.8</ele>
        <time>2025-12-15T14:59:52Z</time>
      </trkpt>
      <trkpt lat="45.70657" lon="4.67023">
        <ele>381.2</ele>
        <time>2025-12-15T14:59:53Z</time>
      </trkpt>
      <trkpt lat="45.70652" lon="4.67028">
        <ele>380.8</ele>
        <time>2025-12-15T14:59:54Z</time>
      </trkpt>
      <trkpt lat="45.70647" lon="4.67031">
        <ele>380.4</ele>
        <time>2025-12-15T14:59:55Z</time>
      </trkpt>
      <trkpt lat="45.70641" lon="4.67034">
        <ele>380.2</ele>
        <time>2025-12-15T14:59:56Z</time>
      </trkpt>
      <trkpt lat="45.70635" lon="4.67037">
        <ele>379.6</ele>
        <time>2025-12-15T14:59:57Z</time>
      </trkpt>
      <trkpt lat="45.7063" lon="4.67041">
        <ele>378.8</ele>
        <time>2025-12-15T14:59:58Z</time>
      </trkpt>
      <trkpt lat="45.70624" lon="4.67045">
        <ele>377.8</ele>
        <time>2025-12-15T14:59:59Z</time>
      </trkpt>
      <trkpt lat="45.70619" lon="4.67048">
        <ele>376.8</ele>
        <time>2025-12-15T15:00:00Z</time>
      </trkpt>
      <trkpt lat="45.70614" lon="4.6705">
        <ele>376.2</ele>
        <time>2025-12-15T15:00:01Z</time>
      </trkpt>
      <trkpt lat="45.7061" lon="4.67052">
        <ele>376</ele>
        <time>2025-12-15T15:00:02Z</time>
      </trkpt>
      <trkpt lat="45.70606" lon="4.67054">
        <ele>376</ele>
        <time>2025-12-15T15:00:03Z</time>
      </trkpt>
      <trkpt lat="45.70602" lon="4.67055">
        <ele>376.4</ele>
        <time>2025-12-15T15:00:04Z</time>
      </trkpt>
      <trkpt lat="45.70598" lon="4.67056">
        <ele>376.6</ele>
        <time>2025-12-15T15:00:05Z</time>
      </trkpt>
      <trkpt lat="45.70593" lon="4.67058">
        <ele>376.8</ele>
        <time>2025-12-15T15:00:06Z</time>
      </trkpt>
      <trkpt lat="45.70589" lon="4.6706">
        <ele>377</ele>
        <time>2025-12-15T15:00:07Z</time>
      </trkpt>
      <trkpt lat="45.70586" lon="4.67062">
        <ele>376.8</ele>
        <time>2025-12-15T15:00:08Z</time>
      </trkpt>
      <trkpt lat="45.70583" lon="4.67062">
        <ele>376.6</ele>
        <time>2025-12-15T15:00:09Z</time>
      </trkpt>
      <trkpt lat="45.7058" lon="4.6706">
        <ele>376.2</ele>
        <time>2025-12-15T15:00:10Z</time>
      </trkpt>
      <trkpt lat="45.70577" lon="4.67059">
        <ele>375.8</ele>
        <time>2025-12-15T15:00:11Z</time>
      </trkpt>
      <trkpt lat="45.70574" lon="4.67058">
        <ele>375.4</ele>
        <time>2025-12-15T15:00:12Z</time>
      </trkpt>
      <trkpt lat="45.7057" lon="4.67059">
        <ele>375</ele>
        <time>2025-12-15T15:00:13Z</time>
      </trkpt>
      <trkpt lat="45.70567" lon="4.67061">
        <ele>374</ele>
        <time>2025-12-15T15:00:14Z</time>
      </trkpt>
      <trkpt lat="45.70564" lon="4.67062">
        <ele>373.2</ele>
        <time>2025-12-15T15:00:15Z</time>
      </trkpt>
      <trkpt lat="45.70562" lon="4.67064">
        <ele>372.6</ele>
        <time>2025-12-15T15:00:16Z</time>
      </trkpt>
      <trkpt lat="45.7056" lon="4.67066">
        <ele>372</ele>
        <time>2025-12-15T15:00:17Z</time>
      </trkpt>
      <trkpt lat="45.70558" lon="4.67068">
        <ele>371.6</ele>
        <time>2025-12-15T15:00:18Z</time>
      </trkpt>
      <trkpt lat="45.70556" lon="4.67071">
        <ele>371.4</ele>
        <time>2025-12-15T15:00:19Z</time>
      </trkpt>
      <trkpt lat="45.70554" lon="4.67074">
        <ele>371</ele>
        <time>2025-12-15T15:00:20Z</time>
      </trkpt>
      <trkpt lat="45.70552" lon="4.67077">
        <ele>370.6</ele>
        <time>2025-12-15T15:00:21Z</time>
      </trkpt>
      <trkpt lat="45.70549" lon="4.6708">
        <ele>370</ele>
        <time>2025-12-15T15:00:22Z</time>
      </trkpt>
      <trkpt lat="45.70546" lon="4.67082">
        <ele>369.2</ele>
        <time>2025-12-15T15:00:23Z</time>
      </trkpt>
      <trkpt lat="45.70543" lon="4.67085">
        <ele>368.4</ele>
        <time>2025-12-15T15:00:24Z</time>
      </trkpt>
      <trkpt lat="45.70539" lon="4.67088">
        <ele>367.8</ele>
        <time>2025-12-15T15:00:25Z</time>
      </trkpt>
      <trkpt lat="45.70536" lon="4.67091">
        <ele>367.2</ele>
        <time>2025-12-15T15:00:26Z</time>
      </trkpt>
      <trkpt lat="45.70533" lon="4.67095">
        <ele>366.6</ele>
        <time>2025-12-15T15:00:27Z</time>
      </trkpt>
      <trkpt lat="45.70529" lon="4.67098">
        <ele>366.2</ele>
        <time>2025-12-15T15:00:28Z</time>
      </trkpt>
      <trkpt lat="45.70527" lon="4.67102">
        <ele>366</ele>
        <time>2025-12-15T15:00:29Z</time>
      </trkpt>
      <trkpt lat="45.70524" lon="4.67105">
        <ele>365.6</ele>
        <time>2025-12-15T15:00:30Z</time>
      </trkpt>
      <trkpt lat="45.7052" lon="4.67107">
        <ele>365.4</ele>
        <time>2025-12-15T15:00:31Z</time>
      </trkpt>
      <trkpt lat="45.70517" lon="4.6711">
        <ele>365</ele>
        <time>2025-12-15T15:00:32Z</time>
      </trkpt>
      <trkpt lat="45.70514" lon="4.67113">
        <ele>364.6</ele>
        <time>2025-12-15T15:00:33Z</time>
      </trkpt>
      <trkpt lat="45.7051" lon="4.67117">
        <ele>364.2</ele>
        <time>2025-12-15T15:00:34Z</time>
      </trkpt>
      <trkpt lat="45.70507" lon="4.6712">
        <ele>363.8</ele>
        <time>2025-12-15T15:00:35Z</time>
      </trkpt>
      <trkpt lat="45.70504" lon="4.67123">
        <ele>363.4</ele>
        <time>2025-12-15T15:00:36Z</time>
      </trkpt>
      <trkpt lat="45.70501" lon="4.67127">
        <ele>363</ele>
        <time>2025-12-15T15:00:37Z</time>
      </trkpt>
      <trkpt lat="45.70498" lon="4.67129">
        <ele>362.6</ele>
        <time>2025-12-15T15:00:38Z</time>
      </trkpt>
      <trkpt lat="45.70496" lon="4.67131">
        <ele>362.2</ele>
        <time>2025-12-15T15:00:39Z</time>
      </trkpt>
      <trkpt lat="45.70494" lon="4.67132">
        <ele>362</ele>
        <time>2025-12-15T15:00:40Z</time>
      </trkpt>
      <trkpt lat="45.70492" lon="4.67135">
        <ele>361.6</ele>
        <time>2025-12-15T15:00:41Z</time>
      </trkpt>
      <trkpt lat="45.70489" lon="4.67138">
        <ele>361.4</ele>
        <time>2025-12-15T15:00:42Z</time>
      </trkpt>
      <trkpt lat="45.70486" lon="4.67141">
        <ele>361</ele>
        <time>2025-12-15T15:00:43Z</time>
      </trkpt>
      <trkpt lat="45.70484" lon="4.67144">
        <ele>360.6</ele>
        <time>2025-12-15T15:00:44Z</time>
      </trkpt>
      <trkpt lat="45.70482" lon="4.67147">
        <ele>360.2</ele>
        <time>2025-12-15T15:00:45Z</time>
      </trkpt>
      <trkpt lat="45.7048" lon="4.67149">
        <ele>359.8</ele>
        <time>2025-12-15T15:00:46Z</time>
      </trkpt>
      <trkpt lat="45.70478" lon="4.6715">
        <ele>359.4</ele>
        <time>2025-12-15T15:00:47Z</time>
      </trkpt>
      <trkpt lat="45.70477" lon="4.67152">
        <ele>359</ele>
        <time>2025-12-15T15:00:48Z</time>
      </trkpt>
      <trkpt lat="45.70476" lon="4.67153">
        <ele>358.8</ele>
        <time>2025-12-15T15:00:49Z</time>
      </trkpt>
      <trkpt lat="45.70474" lon="4.67155">
        <ele>358.4</ele>
        <time>2025-12-15T15:00:50Z</time>
      </trkpt>
      <trkpt lat="45.70472" lon="4.67158">
        <ele>358.2</ele>
        <time>2025-12-15T15:00:51Z</time>
      </trkpt>
      <trkpt lat="45.7047" lon="4.67161">
        <ele>357.8</ele>
        <time>2025-12-15T15:00:52Z</time>
      </trkpt>
      <trkpt lat="45.70467" lon="4.67164">
        <ele>357.4</ele>
        <time>2025-12-15T15:00:53Z</time>
      </trkpt>
      <trkpt lat="45.70464" lon="4.67168">
        <ele>356.6</ele>
        <time>2025-12-15T15:00:54Z</time>
      </trkpt>
      <trkpt lat="45.7046" lon="4.67172">
        <ele>355.8</ele>
        <time>2025-12-15T15:00:55Z</time>
      </trkpt>
      <trkpt lat="45.70456" lon="4.67177">
        <ele>354.8</ele>
        <time>2025-12-15T15:00:56Z</time>
      </trkpt>
      <trkpt lat="45.70453" lon="4.67181">
        <ele>354</ele>
        <time>2025-12-15T15:00:57Z</time>
      </trkpt>
      <trkpt lat="45.70451" lon="4.67185">
        <ele>353.2</ele>
        <time>2025-12-15T15:00:58Z</time>
      </trkpt>
      <trkpt lat="45.7045" lon="4.6719">
        <ele>352.6</ele>
        <time>2025-12-15T15:00:59Z</time>
      </trkpt>
      <trkpt lat="45.70449" lon="4.67195">
        <ele>352.2</ele>
        <time>2025-12-15T15:01:00Z</time>
      </trkpt>
      <trkpt lat="45.70451" lon="4.67198">
        <ele>352.2</ele>
        <time>2025-12-15T15:01:01Z</time>
      </trkpt>
      <trkpt lat="45.70453" lon="4.672">
        <ele>352.2</ele>
        <time>2025-12-15T15:01:02Z</time>
      </trkpt>
      <trkpt lat="45.70455" lon="4.67201">
        <ele>352.2</ele>
        <time>2025-12-15T15:01:03Z</time>
      </trkpt>
      <trkpt lat="45.70457" lon="4.67203">
        <ele>352.4</ele>
        <time>2025-12-15T15:01:04Z</time>
      </trkpt>
      <trkpt lat="45.70459" lon="4.67206">
        <ele>352.4</ele>
        <time>2025-12-15T15:01:05Z</time>
      </trkpt>
      <trkpt lat="45.7046" lon="4.67207">
        <ele>352.6</ele>
        <time>2025-12-15T15:01:06Z</time>
      </trkpt>
      <trkpt lat="45.70462" lon="4.67208">
        <ele>352.6</ele>
        <time>2025-12-15T15:01:07Z</time>
      </trkpt>
      <trkpt lat="45.70464" lon="4.67209">
        <ele>352.6</ele>
        <time>2025-12-15T15:01:08Z</time>
      </trkpt>
      <trkpt lat="45.70466" lon="4.67211">
        <ele>352.6</ele>
        <time>2025-12-15T15:01:09Z</time>
      </trkpt>
      <trkpt lat="45.70468" lon="4.67214">
        <ele>352.6</ele>
        <time>2025-12-15T15:01:10Z</time>
      </trkpt>
      <trkpt lat="45.7047" lon="4.67216">
        <ele>352.6</ele>
        <time>2025-12-15T15:01:11Z</time>
      </trkpt>
      <trkpt lat="45.70471" lon="4.67219">
        <ele>352.6</ele>
        <time>2025-12-15T15:01:12Z</time>
      </trkpt>
      <trkpt lat="45.70472" lon="4.67222">
        <ele>352.4</ele>
        <time>2025-12-15T15:01:13Z</time>
      </trkpt>
      <trkpt lat="45.70474" lon="4.67224">
        <ele>352.4</ele>
        <time>2025-12-15T15:01:14Z</time>
      </trkpt>
      <trkpt lat="45.70476" lon="4.67224">
        <ele>352.4</ele>
        <time>2025-12-15T15:01:15Z</time>
      </trkpt>
      <trkpt lat="45.70477" lon="4.67222">
        <ele>352.6</ele>
        <time>2025-12-15T15:01:16Z</time>
      </trkpt>
      <trkpt lat="45.70478" lon="4.67221">
        <ele>352.6</ele>
        <time>2025-12-15T15:01:17Z</time>
      </trkpt>
      <trkpt lat="45.70478" lon="4.67221">
        <ele>352.8</ele>
        <time>2025-12-15T15:01:18Z</time>
      </trkpt>
      <trkpt lat="45.70478" lon="4.67221">
        <ele>352.8</ele>
        <time>2025-12-15T15:01:19Z</time>
      </trkpt>
      <trkpt lat="45.70478" lon="4.67221">
        <ele>352.8</ele>
        <time>2025-12-15T15:01:20Z</time>
      </trkpt>
      <trkpt lat="45.70478" lon="4.67221">
        <ele>352.8</ele>
        <time>2025-12-15T15:01:21Z</time>
      </trkpt>
      <trkpt lat="45.70478" lon="4.67221">
        <ele>352.8</ele>
        <time>2025-12-15T15:01:22Z</time>
      </trkpt>
      <trkpt lat="45.70478" lon="4.67221">
        <ele>352.8</ele>
        <time>2025-12-15T15:01:23Z</time>
      </trkpt>
      <trkpt lat="45.70478" lon="4.67221">
        <ele>352.8</ele>
        <time>2025-12-15T15:01:24Z</time>
      </trkpt>
      <trkpt lat="45.70478" lon="4.67221">
        <ele>353</ele>
        <time>2025-12-15T15:01:25Z</time>
      </trkpt>
      <trkpt lat="45.70478" lon="4.67221">
        <ele>353</ele>
        <time>2025-12-15T15:01:26Z</time>
      </trkpt>
      <trkpt lat="45.70478" lon="4.67221">
        <ele>353</ele>
        <time>2025-12-15T15:01:27Z</time>
      </trkpt>
      <trkpt lat="45.70478" lon="4.67221">
        <ele>353.2</ele>
        <time>2025-12-15T15:01:28Z</time>
      </trkpt>
      <trkpt lat="45.70478" lon="4.67221">
        <ele>353.4</ele>
        <time>2025-12-15T15:01:29Z</time>
      </trkpt>
      <trkpt lat="45.70478" lon="4.67221">
        <ele>353.4</ele>
        <time>2025-12-15T15:01:30Z</time>
      </trkpt>
      <trkpt lat="45.70478" lon="4.67221">
        <ele>353.6</ele>
        <time>2025-12-15T15:01:31Z</time>
      </trkpt>
      <trkpt lat="45.70478" lon="4.67221">
        <ele>353.8</ele>
        <time>2025-12-15T15:01:32Z</time>
      </trkpt>
      <trkpt lat="45.70478" lon="4.67221">
        <ele>353.8</ele>
        <time>2025-12-15T15:01:33Z</time>
      </trkpt>
      <trkpt lat="45.70478" lon="4.67221">
        <ele>353.8</ele>
        <time>2025-12-15T15:01:34Z</time>
      </trkpt>
      <trkpt lat="45.70478" lon="4.67221">
        <ele>353.8</ele>
        <time>2025-12-15T15:01:35Z</time>
      </trkpt>
      <trkpt lat="45.70478" lon="4.67221">
        <ele>353.8</ele>
        <time>2025-12-15T15:01:36Z</time>
      </trkpt>
      <trkpt lat="45.70478" lon="4.67221">
        <ele>353.6</ele>
        <time>2025-12-15T15:01:37Z</time>
      </trkpt>
      <trkpt lat="45.70478" lon="4.67221">
        <ele>353.6</ele>
        <time>2025-12-15T15:01:38Z</time>
      </trkpt>
      <trkpt lat="45.70478" lon="4.67221">
        <ele>353.4</ele>
        <time>2025-12-15T15:01:39Z</time>
      </trkpt>
      <trkpt lat="45.70478" lon="4.67221">
        <ele>353.4</ele>
        <time>2025-12-15T15:01:40Z</time>
      </trkpt>
      <trkpt lat="45.70479" lon="4.67221">
        <ele>353.2</ele>
        <time>2025-12-15T15:01:41Z</time>
      </trkpt>
      <trkpt lat="45.7048" lon="4.67221">
        <ele>353.2</ele>
        <time>2025-12-15T15:01:42Z</time>
      </trkpt>
      <trkpt lat="45.70481" lon="4.6722">
        <ele>353</ele>
        <time>2025-12-15T15:01:43Z</time>
      </trkpt>
      <trkpt lat="45.70483" lon="4.6722">
        <ele>353</ele>
        <time>2025-12-15T15:01:44Z</time>
      </trkpt>
      <trkpt lat="45.70485" lon="4.67221">
        <ele>353</ele>
        <time>2025-12-15T15:01:45Z</time>
      </trkpt>
      <trkpt lat="45.70488" lon="4.67221">
        <ele>353</ele>
        <time>2025-12-15T15:01:46Z</time>
      </trkpt>
      <trkpt lat="45.70491" lon="4.67221">
        <ele>353.2</ele>
        <time>2025-12-15T15:01:47Z</time>
      </trkpt>
      <trkpt lat="45.70495" lon="4.6722">
        <ele>353.2</ele>
        <time>2025-12-15T15:01:48Z</time>
      </trkpt>
      <trkpt lat="45.70499" lon="4.67219">
        <ele>353.4</ele>
        <time>2025-12-15T15:01:49Z</time>
      </trkpt>
      <trkpt lat="45.70503" lon="4.67218">
        <ele>353.6</ele>
        <time>2025-12-15T15:01:50Z</time>
      </trkpt>
      <trkpt lat="45.70507" lon="4.67218">
        <ele>353.8</ele>
        <time>2025-12-15T15:01:51Z</time>
      </trkpt>
      <trkpt lat="45.70511" lon="4.67218">
        <ele>354.2</ele>
        <time>2025-12-15T15:01:52Z</time>
      </trkpt>
      <trkpt lat="45.70515" lon="4.67219">
        <ele>354.6</ele>
        <time>2025-12-15T15:01:53Z</time>
      </trkpt>
      <trkpt lat="45.70519" lon="4.67219">
        <ele>355</ele>
        <time>2025-12-15T15:01:54Z</time>
      </trkpt>
      <trkpt lat="45.70522" lon="4.67219">
        <ele>355.4</ele>
        <time>2025-12-15T15:01:55Z</time>
      </trkpt>
      <trkpt lat="45.70526" lon="4.67219">
        <ele>355.6</ele>
        <time>2025-12-15T15:01:56Z</time>
      </trkpt>
      <trkpt lat="45.70529" lon="4.67219">
        <ele>356</ele>
        <time>2025-12-15T15:01:57Z</time>
      </trkpt>
      <trkpt lat="45.70533" lon="4.67218">
        <ele>356.4</ele>
        <time>2025-12-15T15:01:58Z</time>
      </trkpt>
      <trkpt lat="45.70535" lon="4.67217">
        <ele>356.8</ele>
        <time>2025-12-15T15:01:59Z</time>
      </trkpt>
      <trkpt lat="45.70538" lon="4.67216">
        <ele>357</ele>
        <time>2025-12-15T15:02:00Z</time>
      </trkpt>
      <trkpt lat="45.7054" lon="4.67217">
        <ele>357.4</ele>
        <time>2025-12-15T15:02:01Z</time>
      </trkpt>
      <trkpt lat="45.70542" lon="4.67217">
        <ele>357.6</ele>
        <time>2025-12-15T15:02:02Z</time>
      </trkpt>
      <trkpt lat="45.70544" lon="4.67217">
        <ele>358</ele>
        <time>2025-12-15T15:02:03Z</time>
      </trkpt>
      <trkpt lat="45.70546" lon="4.67216">
        <ele>358.2</ele>
        <time>2025-12-15T15:02:04Z</time>
      </trkpt>
      <trkpt lat="45.70548" lon="4.67216">
        <ele>358.6</ele>
        <time>2025-12-15T15:02:05Z</time>
      </trkpt>
      <trkpt lat="45.70551" lon="4.67216">
        <ele>358.8</ele>
        <time>2025-12-15T15:02:06Z</time>
      </trkpt>
      <trkpt lat="45.70554" lon="4.67216">
        <ele>359.2</ele>
        <time>2025-12-15T15:02:07Z</time>
      </trkpt>
      <trkpt lat="45.70557" lon="4.67217">
        <ele>359.6</ele>
        <time>2025-12-15T15:02:08Z</time>
      </trkpt>
      <trkpt lat="45.7056" lon="4.67217">
        <ele>360</ele>
        <time>2025-12-15T15:02:09Z</time>
      </trkpt>
      <trkpt lat="45.70563" lon="4.67217">
        <ele>360.4</ele>
        <time>2025-12-15T15:02:10Z</time>
      </trkpt>
      <trkpt lat="45.70567" lon="4.67217">
        <ele>360.8</ele>
        <time>2025-12-15T15:02:11Z</time>
      </trkpt>
      <trkpt lat="45.70571" lon="4.67216">
        <ele>361</ele>
        <time>2025-12-15T15:02:12Z</time>
      </trkpt>
      <trkpt lat="45.70574" lon="4.67216">
        <ele>361.4</ele>
        <time>2025-12-15T15:02:13Z</time>
      </trkpt>
      <trkpt lat="45.70577" lon="4.67215">
        <ele>361.8</ele>
        <time>2025-12-15T15:02:14Z</time>
      </trkpt>
      <trkpt lat="45.7058" lon="4.67215">
        <ele>362.2</ele>
        <time>2025-12-15T15:02:15Z</time>
      </trkpt>
      <trkpt lat="45.70583" lon="4.67215">
        <ele>362.6</ele>
        <time>2025-12-15T15:02:16Z</time>
      </trkpt>
      <trkpt lat="45.70586" lon="4.67215">
        <ele>363</ele>
        <time>2025-12-15T15:02:17Z</time>
      </trkpt>
      <trkpt lat="45.70589" lon="4.67214">
        <ele>363.6</ele>
        <time>2025-12-15T15:02:18Z</time>
      </trkpt>
      <trkpt lat="45.70592" lon="4.67214">
        <ele>364</ele>
        <time>2025-12-15T15:02:19Z</time>
      </trkpt>
      <trkpt lat="45.70595" lon="4.67214">
        <ele>364.4</ele>
        <time>2025-12-15T15:02:20Z</time>
      </trkpt>
      <trkpt lat="45.70598" lon="4.67214">
        <ele>364.6</ele>
        <time>2025-12-15T15:02:21Z</time>
      </trkpt>
      <trkpt lat="45.70601" lon="4.67213">
        <ele>365</ele>
        <time>2025-12-15T15:02:22Z</time>
      </trkpt>
      <trkpt lat="45.70604" lon="4.67213">
        <ele>365.4</ele>
        <time>2025-12-15T15:02:23Z</time>
      </trkpt>
      <trkpt lat="45.70608" lon="4.67212">
        <ele>365.8</ele>
        <time>2025-12-15T15:02:24Z</time>
      </trkpt>
      <trkpt lat="45.70611" lon="4.67212">
        <ele>366.2</ele>
        <time>2025-12-15T15:02:25Z</time>
      </trkpt>
      <trkpt lat="45.70615" lon="4.67211">
        <ele>366.6</ele>
        <time>2025-12-15T15:02:26Z</time>
      </trkpt>
      <trkpt lat="45.70618" lon="4.67211">
        <ele>367</ele>
        <time>2025-12-15T15:02:27Z</time>
      </trkpt>
      <trkpt lat="45.70621" lon="4.6721">
        <ele>367.2</ele>
        <time>2025-12-15T15:02:28Z</time>
      </trkpt>
      <trkpt lat="45.70624" lon="4.6721">
        <ele>367.6</ele>
        <time>2025-12-15T15:02:29Z</time>
      </trkpt>
      <trkpt lat="45.70627" lon="4.6721">
        <ele>367.8</ele>
        <time>2025-12-15T15:02:30Z</time>
      </trkpt>
      <trkpt lat="45.7063" lon="4.6721">
        <ele>368</ele>
        <time>2025-12-15T15:02:31Z</time>
      </trkpt>
      <trkpt lat="45.70634" lon="4.6721">
        <ele>368.4</ele>
        <time>2025-12-15T15:02:32Z</time>
      </trkpt>
      <trkpt lat="45.70637" lon="4.6721">
        <ele>368.6</ele>
        <time>2025-12-15T15:02:33Z</time>
      </trkpt>
      <trkpt lat="45.70641" lon="4.6721">
        <ele>369</ele>
        <time>2025-12-15T15:02:34Z</time>
      </trkpt>
      <trkpt lat="45.70644" lon="4.6721">
        <ele>369.2</ele>
        <time>2025-12-15T15:02:35Z</time>
      </trkpt>
      <trkpt lat="45.70648" lon="4.6721">
        <ele>369.6</ele>
        <time>2025-12-15T15:02:36Z</time>
      </trkpt>
      <trkpt lat="45.70652" lon="4.6721">
        <ele>370</ele>
        <time>2025-12-15T15:02:37Z</time>
      </trkpt>
      <trkpt lat="45.70655" lon="4.6721">
        <ele>370.2</ele>
        <time>2025-12-15T15:02:38Z</time>
      </trkpt>
      <trkpt lat="45.70659" lon="4.6721">
        <ele>370.6</ele>
        <time>2025-12-15T15:02:39Z</time>
      </trkpt>
      <trkpt lat="45.70663" lon="4.6721">
        <ele>371</ele>
        <time>2025-12-15T15:02:40Z</time>
      </trkpt>
      <trkpt lat="45.70666" lon="4.6721">
        <ele>371.2</ele>
        <time>2025-12-15T15:02:41Z</time>
      </trkpt>
      <trkpt lat="45.7067" lon="4.6721">
        <ele>371.6</ele>
        <time>2025-12-15T15:02:42Z</time>
      </trkpt>
      <trkpt lat="45.70673" lon="4.67211">
        <ele>371.8</ele>
        <time>2025-12-15T15:02:43Z</time>
      </trkpt>
      <trkpt lat="45.70677" lon="4.67211">
        <ele>372</ele>
        <time>2025-12-15T15:02:44Z</time>
      </trkpt>
      <trkpt lat="45.7068" lon="4.67211">
        <ele>372.2</ele>
        <time>2025-12-15T15:02:45Z</time>
      </trkpt>
      <trkpt lat="45.70684" lon="4.67211">
        <ele>372.4</ele>
        <time>2025-12-15T15:02:46Z</time>
      </trkpt>
      <trkpt lat="45.70687" lon="4.67211">
        <ele>372.6</ele>
        <time>2025-12-15T15:02:47Z</time>
      </trkpt>
      <trkpt lat="45.7069" lon="4.67209">
        <ele>372.8</ele>
        <time>2025-12-15T15:02:48Z</time>
      </trkpt>
      <trkpt lat="45.70694" lon="4.67208">
        <ele>373.2</ele>
        <time>2025-12-15T15:02:49Z</time>
      </trkpt>
      <trkpt lat="45.70697" lon="4.67208">
        <ele>373.4</ele>
        <time>2025-12-15T15:02:50Z</time>
      </trkpt>
      <trkpt lat="45.707" lon="4.67208">
        <ele>373.6</ele>
        <time>2025-12-15T15:02:51Z</time>
      </trkpt>
      <trkpt lat="45.70702" lon="4.67208">
        <ele>374</ele>
        <time>2025-12-15T15:02:52Z</time>
      </trkpt>
      <trkpt lat="45.70705" lon="4.67207">
        <ele>374.2</ele>
        <time>2025-12-15T15:02:53Z</time>
      </trkpt>
      <trkpt lat="45.70708" lon="4.67207">
        <ele>374.6</ele>
        <time>2025-12-15T15:02:54Z</time>
      </trkpt>
      <trkpt lat="45.70711" lon="4.67207">
        <ele>374.8</ele>
        <time>2025-12-15T15:02:55Z</time>
      </trkpt>
      <trkpt lat="45.70714" lon="4.67208">
        <ele>375.2</ele>
        <time>2025-12-15T15:02:56Z</time>
      </trkpt>
      <trkpt lat="45.70718" lon="4.67208">
        <ele>375.4</ele>
        <time>2025-12-15T15:02:57Z</time>
      </trkpt>
      <trkpt lat="45.70721" lon="4.67208">
        <ele>375.4</ele>
        <time>2025-12-15T15:02:58Z</time>
      </trkpt>
      <trkpt lat="45.70725" lon="4.67208">
        <ele>375.6</ele>
        <time>2025-12-15T15:02:59Z</time>
      </trkpt>
      <trkpt lat="45.70728" lon="4.67208">
        <ele>376</ele>
        <time>2025-12-15T15:03:00Z</time>
      </trkpt>
      <trkpt lat="45.70732" lon="4.67207">
        <ele>376.2</ele>
        <time>2025-12-15T15:03:01Z</time>
      </trkpt>
      <trkpt lat="45.70736" lon="4.67207">
        <ele>376.6</ele>
        <time>2025-12-15T15:03:02Z</time>
      </trkpt>
      <trkpt lat="45.70739" lon="4.67206">
        <ele>377</ele>
        <time>2025-12-15T15:03:03Z</time>
      </trkpt>
      <trkpt lat="45.70743" lon="4.67206">
        <ele>377.2</ele>
        <time>2025-12-15T15:03:04Z</time>
      </trkpt>
      <trkpt lat="45.70747" lon="4.67206">
        <ele>377.4</ele>
        <time>2025-12-15T15:03:05Z</time>
      </trkpt>
      <trkpt lat="45.7075" lon="4.67206">
        <ele>377.6</ele>
        <time>2025-12-15T15:03:06Z</time>
      </trkpt>
      <trkpt lat="45.70754" lon="4.67205">
        <ele>377.8</ele>
        <time>2025-12-15T15:03:07Z</time>
      </trkpt>
      <trkpt lat="45.70758" lon="4.67205">
        <ele>378</ele>
        <time>2025-12-15T15:03:08Z</time>
      </trkpt>
      <trkpt lat="45.70762" lon="4.67204">
        <ele>378</ele>
        <time>2025-12-15T15:03:09Z</time>
      </trkpt>
      <trkpt lat="45.70765" lon="4.67204">
        <ele>378.2</ele>
        <time>2025-12-15T15:03:10Z</time>
      </trkpt>
      <trkpt lat="45.70769" lon="4.67204">
        <ele>378.4</ele>
        <time>2025-12-15T15:03:11Z</time>
      </trkpt>
      <trkpt lat="45.70774" lon="4.67204">
        <ele>378.4</ele>
        <time>2025-12-15T15:03:12Z</time>
      </trkpt>
      <trkpt lat="45.70778" lon="4.67203">
        <ele>378.4</ele>
        <time>2025-12-15T15:03:13Z</time>
      </trkpt>
      <trkpt lat="45.70783" lon="4.67203">
        <ele>378.4</ele>
        <time>2025-12-15T15:03:14Z</time>
      </trkpt>
      <trkpt lat="45.70787" lon="4.67203">
        <ele>378.4</ele>
        <time>2025-12-15T15:03:15Z</time>
      </trkpt>
      <trkpt lat="45.70791" lon="4.67202">
        <ele>378.4</ele>
        <time>2025-12-15T15:03:16Z</time>
      </trkpt>
      <trkpt lat="45.70796" lon="4.67201">
        <ele>378.2</ele>
        <time>2025-12-15T15:03:17Z</time>
      </trkpt>
      <trkpt lat="45.708" lon="4.672">
        <ele>378</ele>
        <time>2025-12-15T15:03:18Z</time>
      </trkpt>
      <trkpt lat="45.70805" lon="4.67199">
        <ele>377.8</ele>
        <time>2025-12-15T15:03:19Z</time>
      </trkpt>
      <trkpt lat="45.7081" lon="4.67197">
        <ele>377.6</ele>
        <time>2025-12-15T15:03:20Z</time>
      </trkpt>
      <trkpt lat="45.70814" lon="4.67197">
        <ele>377.4</ele>
        <time>2025-12-15T15:03:21Z</time>
      </trkpt>
      <trkpt lat="45.70819" lon="4.67196">
        <ele>377.2</ele>
        <time>2025-12-15T15:03:22Z</time>
      </trkpt>
      <trkpt lat="45.70825" lon="4.67195">
        <ele>377.2</ele>
        <time>2025-12-15T15:03:23Z</time>
      </trkpt>
      <trkpt lat="45.70831" lon="4.67195">
        <ele>377</ele>
        <time>2025-12-15T15:03:24Z</time>
      </trkpt>
      <trkpt lat="45.70836" lon="4.67195">
        <ele>376.8</ele>
        <time>2025-12-15T15:03:25Z</time>
      </trkpt>
      <trkpt lat="45.70842" lon="4.67194">
        <ele>376.6</ele>
        <time>2025-12-15T15:03:26Z</time>
      </trkpt>
      <trkpt lat="45.70849" lon="4.67193">
        <ele>376.4</ele>
        <time>2025-12-15T15:03:27Z</time>
      </trkpt>
      <trkpt lat="45.70856" lon="4.67192">
        <ele>376</ele>
        <time>2025-12-15T15:03:28Z</time>
      </trkpt>
      <trkpt lat="45.70864" lon="4.6719">
        <ele>375.6</ele>
        <time>2025-12-15T15:03:29Z</time>
      </trkpt>
      <trkpt lat="45.70872" lon="4.67187">
        <ele>375</ele>
        <time>2025-12-15T15:03:30Z</time>
      </trkpt>
      <trkpt lat="45.7088" lon="4.67185">
        <ele>374.4</ele>
        <time>2025-12-15T15:03:31Z</time>
      </trkpt>
      <trkpt lat="45.70887" lon="4.67183">
        <ele>373.8</ele>
        <time>2025-12-15T15:03:32Z</time>
      </trkpt>
      <trkpt lat="45.70894" lon="4.67182">
        <ele>373.4</ele>
        <time>2025-12-15T15:03:33Z</time>
      </trkpt>
      <trkpt lat="45.70899" lon="4.67183">
        <ele>372.8</ele>
        <time>2025-12-15T15:03:34Z</time>
      </trkpt>
      <trkpt lat="45.70903" lon="4.67188">
        <ele>372.4</ele>
        <time>2025-12-15T15:03:35Z</time>
      </trkpt>
      <trkpt lat="45.70905" lon="4.67193">
        <ele>372.2</ele>
        <time>2025-12-15T15:03:36Z</time>
      </trkpt>
      <trkpt lat="45.70905" lon="4.67199">
        <ele>372</ele>
        <time>2025-12-15T15:03:37Z</time>
      </trkpt>
      <trkpt lat="45.70905" lon="4.67204">
        <ele>372</ele>
        <time>2025-12-15T15:03:38Z</time>
      </trkpt>
      <trkpt lat="45.70905" lon="4.67209">
        <ele>372</ele>
        <time>2025-12-15T15:03:39Z</time>
      </trkpt>
      <trkpt lat="45.70905" lon="4.67214">
        <ele>372</ele>
        <time>2025-12-15T15:03:40Z</time>
      </trkpt>
      <trkpt lat="45.70905" lon="4.67219">
        <ele>372.2</ele>
        <time>2025-12-15T15:03:41Z</time>
      </trkpt>
      <trkpt lat="45.70906" lon="4.67224">
        <ele>372.2</ele>
        <time>2025-12-15T15:03:42Z</time>
      </trkpt>
      <trkpt lat="45.70906" lon="4.67229">
        <ele>372.4</ele>
        <time>2025-12-15T15:03:43Z</time>
      </trkpt>
      <trkpt lat="45.70906" lon="4.67234">
        <ele>372.4</ele>
        <time>2025-12-15T15:03:44Z</time>
      </trkpt>
      <trkpt lat="45.70907" lon="4.67239">
        <ele>372.6</ele>
        <time>2025-12-15T15:03:45Z</time>
      </trkpt>
      <trkpt lat="45.70907" lon="4.67244">
        <ele>372.6</ele>
        <time>2025-12-15T15:03:46Z</time>
      </trkpt>
      <trkpt lat="45.70908" lon="4.67249">
        <ele>372.6</ele>
        <time>2025-12-15T15:03:47Z</time>
      </trkpt>
      <trkpt lat="45.70909" lon="4.67254">
        <ele>372.6</ele>
        <time>2025-12-15T15:03:48Z</time>
      </trkpt>
      <trkpt lat="45.70911" lon="4.6726">
        <ele>372.4</ele>
        <time>2025-12-15T15:03:49Z</time>
      </trkpt>
      <trkpt lat="45.70912" lon="4.67266">
        <ele>372.4</ele>
        <time>2025-12-15T15:03:50Z</time>
      </trkpt>
      <trkpt lat="45.70914" lon="4.67272">
        <ele>372.2</ele>
        <time>2025-12-15T15:03:51Z</time>
      </trkpt>
      <trkpt lat="45.70916" lon="4.67278">
        <ele>371.8</ele>
        <time>2025-12-15T15:03:52Z</time>
      </trkpt>
      <trkpt lat="45.70919" lon="4.67285">
        <ele>371.4</ele>
        <time>2025-12-15T15:03:53Z</time>
      </trkpt>
      <trkpt lat="45.70922" lon="4.67292">
        <ele>370.8</ele>
        <time>2025-12-15T15:03:54Z</time>
      </trkpt>
      <trkpt lat="45.70925" lon="4.67299">
        <ele>370.2</ele>
        <time>2025-12-15T15:03:55Z</time>
      </trkpt>
      <trkpt lat="45.70928" lon="4.67306">
        <ele>369.6</ele>
        <time>2025-12-15T15:03:56Z</time>
      </trkpt>
      <trkpt lat="45.70932" lon="4.67313">
        <ele>369.2</ele>
        <time>2025-12-15T15:03:57Z</time>
      </trkpt>
      <trkpt lat="45.70935" lon="4.67321">
        <ele>368.6</ele>
        <time>2025-12-15T15:03:58Z</time>
      </trkpt>
      <trkpt lat="45.70939" lon="4.67328">
        <ele>368.4</ele>
        <time>2025-12-15T15:03:59Z</time>
      </trkpt>
      <trkpt lat="45.70942" lon="4.67335">
        <ele>368</ele>
        <time>2025-12-15T15:04:00Z</time>
      </trkpt>
      <trkpt lat="45.70945" lon="4.67341">
        <ele>367.8</ele>
        <time>2025-12-15T15:04:01Z</time>
      </trkpt>
      <trkpt lat="45.70949" lon="4.67348">
        <ele>367.8</ele>
        <time>2025-12-15T15:04:02Z</time>
      </trkpt>
      <trkpt lat="45.70952" lon="4.67355">
        <ele>367.6</ele>
        <time>2025-12-15T15:04:03Z</time>
      </trkpt>
      <trkpt lat="45.70955" lon="4.67361">
        <ele>367.4</ele>
        <time>2025-12-15T15:04:04Z</time>
      </trkpt>
      <trkpt lat="45.70958" lon="4.67368">
        <ele>367.4</ele>
        <time>2025-12-15T15:04:05Z</time>
      </trkpt>
      <trkpt lat="45.7096" lon="4.67374">
        <ele>367.4</ele>
        <time>2025-12-15T15:04:06Z</time>
      </trkpt>
      <trkpt lat="45.70962" lon="4.6738">
        <ele>367.4</ele>
        <time>2025-12-15T15:04:07Z</time>
      </trkpt>
      <trkpt lat="45.70963" lon="4.67387">
        <ele>367.6</ele>
        <time>2025-12-15T15:04:08Z</time>
      </trkpt>
      <trkpt lat="45.70964" lon="4.67393">
        <ele>367.6</ele>
        <time>2025-12-15T15:04:09Z</time>
      </trkpt>
      <trkpt lat="45.70965" lon="4.674">
        <ele>367.6</ele>
        <time>2025-12-15T15:04:10Z</time>
      </trkpt>
      <trkpt lat="45.70965" lon="4.67406">
        <ele>367.8</ele>
        <time>2025-12-15T15:04:11Z</time>
      </trkpt>
      <trkpt lat="45.70965" lon="4.67412">
        <ele>368</ele>
        <time>2025-12-15T15:04:12Z</time>
      </trkpt>
      <trkpt lat="45.70965" lon="4.67418">
        <ele>368.2</ele>
        <time>2025-12-15T15:04:13Z</time>
      </trkpt>
      <trkpt lat="45.70964" lon="4.67424">
        <ele>368.4</ele>
        <time>2025-12-15T15:04:14Z</time>
      </trkpt>
      <trkpt lat="45.70963" lon="4.67429">
        <ele>368.6</ele>
        <time>2025-12-15T15:04:15Z</time>
      </trkpt>
      <trkpt lat="45.70963" lon="4.67435">
        <ele>368.8</ele>
        <time>2025-12-15T15:04:16Z</time>
      </trkpt>
      <trkpt lat="45.70962" lon="4.67441">
        <ele>369</ele>
        <time>2025-12-15T15:04:17Z</time>
      </trkpt>
      <trkpt lat="45.70962" lon="4.67446">
        <ele>369.2</ele>
        <time>2025-12-15T15:04:18Z</time>
      </trkpt>
      <trkpt lat="45.70961" lon="4.67452">
        <ele>369.4</ele>
        <time>2025-12-15T15:04:19Z</time>
      </trkpt>
      <trkpt lat="45.70961" lon="4.67458">
        <ele>369.6</ele>
        <time>2025-12-15T15:04:20Z</time>
      </trkpt>
      <trkpt lat="45.7096" lon="4.67463">
        <ele>369.6</ele>
        <time>2025-12-15T15:04:21Z</time>
      </trkpt>
      <trkpt lat="45.70959" lon="4.67469">
        <ele>369.8</ele>
        <time>2025-12-15T15:04:22Z</time>
      </trkpt>
      <trkpt lat="45.70959" lon="4.67474">
        <ele>369.8</ele>
        <time>2025-12-15T15:04:23Z</time>
      </trkpt>
      <trkpt lat="45.70959" lon="4.6748">
        <ele>369.6</ele>
        <time>2025-12-15T15:04:24Z</time>
      </trkpt>
      <trkpt lat="45.70958" lon="4.67486">
        <ele>369.6</ele>
        <time>2025-12-15T15:04:25Z</time>
      </trkpt>
      <trkpt lat="45.70957" lon="4.67491">
        <ele>369.6</ele>
        <time>2025-12-15T15:04:26Z</time>
      </trkpt>
      <trkpt lat="45.70957" lon="4.67497">
        <ele>369.4</ele>
        <time>2025-12-15T15:04:27Z</time>
      </trkpt>
      <trkpt lat="45.70956" lon="4.67501">
        <ele>369.4</ele>
        <time>2025-12-15T15:04:28Z</time>
      </trkpt>
      <trkpt lat="45.70955" lon="4.67505">
        <ele>369.4</ele>
        <time>2025-12-15T15:04:29Z</time>
      </trkpt>
      <trkpt lat="45.70955" lon="4.67509">
        <ele>369.4</ele>
        <time>2025-12-15T15:04:30Z</time>
      </trkpt>
      <trkpt lat="45.70956" lon="4.67514">
        <ele>369.4</ele>
        <time>2025-12-15T15:04:31Z</time>
      </trkpt>
      <trkpt lat="45.70958" lon="4.67518">
        <ele>369.2</ele>
        <time>2025-12-15T15:04:32Z</time>
      </trkpt>
      <trkpt lat="45.70961" lon="4.67522">
        <ele>369.2</ele>
        <time>2025-12-15T15:04:33Z</time>
      </trkpt>
      <trkpt lat="45.70965" lon="4.67525">
        <ele>369</ele>
        <time>2025-12-15T15:04:34Z</time>
      </trkpt>
      <trkpt lat="45.70969" lon="4.67529">
        <ele>368.6</ele>
        <time>2025-12-15T15:04:35Z</time>
      </trkpt>
      <trkpt lat="45.70974" lon="4.67531">
        <ele>368.4</ele>
        <time>2025-12-15T15:04:36Z</time>
      </trkpt>
      <trkpt lat="45.70979" lon="4.67533">
        <ele>367.8</ele>
        <time>2025-12-15T15:04:37Z</time>
      </trkpt>
      <trkpt lat="45.70985" lon="4.67534">
        <ele>367.4</ele>
        <time>2025-12-15T15:04:38Z</time>
      </trkpt>
      <trkpt lat="45.7099" lon="4.67535">
        <ele>367</ele>
        <time>2025-12-15T15:04:39Z</time>
      </trkpt>
      <trkpt lat="45.70995" lon="4.67535">
        <ele>366.6</ele>
        <time>2025-12-15T15:04:40Z</time>
      </trkpt>
      <trkpt lat="45.71" lon="4.67534">
        <ele>366.4</ele>
        <time>2025-12-15T15:04:41Z</time>
      </trkpt>
      <trkpt lat="45.71006" lon="4.67534">
        <ele>366.2</ele>
        <time>2025-12-15T15:04:42Z</time>
      </trkpt>
      <trkpt lat="45.71012" lon="4.67533">
        <ele>365.8</ele>
        <time>2025-12-15T15:04:43Z</time>
      </trkpt>
      <trkpt lat="45.71018" lon="4.67533">
        <ele>365.2</ele>
        <time>2025-12-15T15:04:44Z</time>
      </trkpt>
      <trkpt lat="45.71024" lon="4.67533">
        <ele>364.8</ele>
        <time>2025-12-15T15:04:45Z</time>
      </trkpt>
      <trkpt lat="45.71029" lon="4.67534">
        <ele>364.4</ele>
        <time>2025-12-15T15:04:46Z</time>
      </trkpt>
      <trkpt lat="45.71034" lon="4.67535">
        <ele>364</ele>
        <time>2025-12-15T15:04:47Z</time>
      </trkpt>
      <trkpt lat="45.71038" lon="4.67537">
        <ele>363.6</ele>
        <time>2025-12-15T15:04:48Z</time>
      </trkpt>
      <trkpt lat="45.71041" lon="4.67542">
        <ele>363.4</ele>
        <time>2025-12-15T15:04:49Z</time>
      </trkpt>
      <trkpt lat="45.71044" lon="4.67548">
        <ele>363</ele>
        <time>2025-12-15T15:04:50Z</time>
      </trkpt>
      <trkpt lat="45.71045" lon="4.67556">
        <ele>362.6</ele>
        <time>2025-12-15T15:04:51Z</time>
      </trkpt>
      <trkpt lat="45.71047" lon="4.67563">
        <ele>362</ele>
        <time>2025-12-15T15:04:52Z</time>
      </trkpt>
      <trkpt lat="45.71048" lon="4.67571">
        <ele>361.4</ele>
        <time>2025-12-15T15:04:53Z</time>
      </trkpt>
      <trkpt lat="45.7105" lon="4.67579">
        <ele>360.8</ele>
        <time>2025-12-15T15:04:54Z</time>
      </trkpt>
      <trkpt lat="45.71052" lon="4.67587">
        <ele>360.4</ele>
        <time>2025-12-15T15:04:55Z</time>
      </trkpt>
      <trkpt lat="45.71054" lon="4.67594">
        <ele>359.8</ele>
        <time>2025-12-15T15:04:56Z</time>
      </trkpt>
      <trkpt lat="45.71056" lon="4.676">
        <ele>359.4</ele>
        <time>2025-12-15T15:04:57Z</time>
      </trkpt>
      <trkpt lat="45.71057" lon="4.67605">
        <ele>359.2</ele>
        <time>2025-12-15T15:04:58Z</time>
      </trkpt>
      <trkpt lat="45.71059" lon="4.6761">
        <ele>359</ele>
        <time>2025-12-15T15:04:59Z</time>
      </trkpt>
      <trkpt lat="45.7106" lon="4.67616">
        <ele>358.8</ele>
        <time>2025-12-15T15:05:00Z</time>
      </trkpt>
      <trkpt lat="45.71062" lon="4.67621">
        <ele>358.8</ele>
        <time>2025-12-15T15:05:01Z</time>
      </trkpt>
      <trkpt lat="45.71063" lon="4.67627">
        <ele>358.6</ele>
        <time>2025-12-15T15:05:02Z</time>
      </trkpt>
      <trkpt lat="45.71065" lon="4.67632">
        <ele>358.4</ele>
        <time>2025-12-15T15:05:03Z</time>
      </trkpt>
      <trkpt lat="45.71067" lon="4.67637">
        <ele>358.2</ele>
        <time>2025-12-15T15:05:04Z</time>
      </trkpt>
      <trkpt lat="45.71068" lon="4.67642">
        <ele>358</ele>
        <time>2025-12-15T15:05:05Z</time>
      </trkpt>
      <trkpt lat="45.7107" lon="4.67648">
        <ele>358</ele>
        <time>2025-12-15T15:05:06Z</time>
      </trkpt>
      <trkpt lat="45.71072" lon="4.67653">
        <ele>357.8</ele>
        <time>2025-12-15T15:05:07Z</time>
      </trkpt>
      <trkpt lat="45.71074" lon="4.67657">
        <ele>357.6</ele>
        <time>2025-12-15T15:05:08Z</time>
      </trkpt>
      <trkpt lat="45.71077" lon="4.67662">
        <ele>357.6</ele>
        <time>2025-12-15T15:05:09Z</time>
      </trkpt>
      <trkpt lat="45.7108" lon="4.67665">
        <ele>357.4</ele>
        <time>2025-12-15T15:05:10Z</time>
      </trkpt>
      <trkpt lat="45.71083" lon="4.67667">
        <ele>357.4</ele>
        <time>2025-12-15T15:05:11Z</time>
      </trkpt>
      <trkpt lat="45.71085" lon="4.67667">
        <ele>357.4</ele>
        <time>2025-12-15T15:05:12Z</time>
      </trkpt>
      <trkpt lat="45.71086" lon="4.67665">
        <ele>357.4</ele>
        <time>2025-12-15T15:05:13Z</time>
      </trkpt>
      <trkpt lat="45.71088" lon="4.67664">
        <ele>357.4</ele>
        <time>2025-12-15T15:05:14Z</time>
      </trkpt>
      <trkpt lat="45.71089" lon="4.67663">
        <ele>357.4</ele>
        <time>2025-12-15T15:05:15Z</time>
      </trkpt>
      <trkpt lat="45.71091" lon="4.67662">
        <ele>357.4</ele>
        <time>2025-12-15T15:05:16Z</time>
      </trkpt>
      <trkpt lat="45.71093" lon="4.67661">
        <ele>357.4</ele>
        <time>2025-12-15T15:05:17Z</time>
      </trkpt>
      <trkpt lat="45.71096" lon="4.67659">
        <ele>357.2</ele>
        <time>2025-12-15T15:05:18Z</time>
      </trkpt>
      <trkpt lat="45.71099" lon="4.67656">
        <ele>357</ele>
        <time>2025-12-15T15:05:19Z</time>
      </trkpt>
      <trkpt lat="45.71102" lon="4.67654">
        <ele>356.8</ele>
        <time>2025-12-15T15:05:20Z</time>
      </trkpt>
      <trkpt lat="45.71105" lon="4.67651">
        <ele>356.8</ele>
        <time>2025-12-15T15:05:21Z</time>
      </trkpt>
      <trkpt lat="45.71108" lon="4.67648">
        <ele>356.8</ele>
        <time>2025-12-15T15:05:22Z</time>
      </trkpt>
      <trkpt lat="45.71111" lon="4.67644">
        <ele>356.8</ele>
        <time>2025-12-15T15:05:23Z</time>
      </trkpt>
      <trkpt lat="45.71115" lon="4.67641">
        <ele>356.8</ele>
        <time>2025-12-15T15:05:24Z</time>
      </trkpt>
      <trkpt lat="45.71118" lon="4.67638">
        <ele>356.8</ele>
        <time>2025-12-15T15:05:25Z</time>
      </trkpt>
      <trkpt lat="45.71121" lon="4.67635">
        <ele>356.8</ele>
        <time>2025-12-15T15:05:26Z</time>
      </trkpt>
      <trkpt lat="45.71125" lon="4.67632">
        <ele>356.8</ele>
        <time>2025-12-15T15:05:27Z</time>
      </trkpt>
      <trkpt lat="45.71127" lon="4.6763">
        <ele>356.6</ele>
        <time>2025-12-15T15:05:28Z</time>
      </trkpt>
      <trkpt lat="45.71131" lon="4.67628">
        <ele>356.6</ele>
        <time>2025-12-15T15:05:29Z</time>
      </trkpt>
      <trkpt lat="45.71134" lon="4.67626">
        <ele>356.6</ele>
        <time>2025-12-15T15:05:30Z</time>
      </trkpt>
      <trkpt lat="45.71137" lon="4.67624">
        <ele>356.4</ele>
        <time>2025-12-15T15:05:31Z</time>
      </trkpt>
      <trkpt lat="45.7114" lon="4.67624">
        <ele>356.4</ele>
        <time>2025-12-15T15:05:32Z</time>
      </trkpt>
      <trkpt lat="45.71143" lon="4.67624">
        <ele>356.2</ele>
        <time>2025-12-15T15:05:33Z</time>
      </trkpt>
      <trkpt lat="45.71145" lon="4.67626">
        <ele>356</ele>
        <time>2025-12-15T15:05:34Z</time>
      </trkpt>
      <trkpt lat="45.71147" lon="4.67629">
        <ele>356</ele>
        <time>2025-12-15T15:05:35Z</time>
      </trkpt>
      <trkpt lat="45.71149" lon="4.67632">
        <ele>355.8</ele>
        <time>2025-12-15T15:05:36Z</time>
      </trkpt>
      <trkpt lat="45.71151" lon="4.67637">
        <ele>355.8</ele>
        <time>2025-12-15T15:05:37Z</time>
      </trkpt>
      <trkpt lat="45.71153" lon="4.67642">
        <ele>355.6</ele>
        <time>2025-12-15T15:05:38Z</time>
      </trkpt>
      <trkpt lat="45.71154" lon="4.67647">
        <ele>355.6</ele>
        <time>2025-12-15T15:05:39Z</time>
      </trkpt>
      <trkpt lat="45.71157" lon="4.67652">
        <ele>355.4</ele>
        <time>2025-12-15T15:05:40Z</time>
      </trkpt>
      <trkpt lat="45.71161" lon="4.67654">
        <ele>355</ele>
        <time>2025-12-15T15:05:41Z</time>
      </trkpt>
      <trkpt lat="45.71165" lon="4.67652">
        <ele>354.8</ele>
        <time>2025-12-15T15:05:42Z</time>
      </trkpt>
      <trkpt lat="45.71168" lon="4.67649">
        <ele>354.4</ele>
        <time>2025-12-15T15:05:43Z</time>
      </trkpt>
      <trkpt lat="45.7117" lon="4.67645">
        <ele>354.2</ele>
        <time>2025-12-15T15:05:44Z</time>
      </trkpt>
      <trkpt lat="45.71172" lon="4.67641">
        <ele>354</ele>
        <time>2025-12-15T15:05:45Z</time>
      </trkpt>
      <trkpt lat="45.71174" lon="4.67636">
        <ele>353.6</ele>
        <time>2025-12-15T15:05:46Z</time>
      </trkpt>
      <trkpt lat="45.71177" lon="4.67631">
        <ele>353.6</ele>
        <time>2025-12-15T15:05:47Z</time>
      </trkpt>
      <trkpt lat="45.7118" lon="4.67626">
        <ele>353.4</ele>
        <time>2025-12-15T15:05:48Z</time>
      </trkpt>
      <trkpt lat="45.71182" lon="4.67621">
        <ele>353.4</ele>
        <time>2025-12-15T15:05:49Z</time>
      </trkpt>
      <trkpt lat="45.71185" lon="4.67616">
        <ele>353.4</ele>
        <time>2025-12-15T15:05:50Z</time>
      </trkpt>
      <trkpt lat="45.71188" lon="4.67612">
        <ele>353.4</ele>
        <time>2025-12-15T15:05:51Z</time>
      </trkpt>
      <trkpt lat="45.71191" lon="4.67607">
        <ele>353.4</ele>
        <time>2025-12-15T15:05:52Z</time>
      </trkpt>
      <trkpt lat="45.71195" lon="4.67602">
        <ele>353.4</ele>
        <time>2025-12-15T15:05:53Z</time>
      </trkpt>
      <trkpt lat="45.71198" lon="4.67597">
        <ele>353.2</ele>
        <time>2025-12-15T15:05:54Z</time>
      </trkpt>
      <trkpt lat="45.71202" lon="4.67594">
        <ele>353</ele>
        <time>2025-12-15T15:05:55Z</time>
      </trkpt>
      <trkpt lat="45.71206" lon="4.67593">
        <ele>352.6</ele>
        <time>2025-12-15T15:05:56Z</time>
      </trkpt>
      <trkpt lat="45.71209" lon="4.67594">
        <ele>352.2</ele>
        <time>2025-12-15T15:05:57Z</time>
      </trkpt>
      <trkpt lat="45.71212" lon="4.67597">
        <ele>351.8</ele>
        <time>2025-12-15T15:05:58Z</time>
      </trkpt>
      <trkpt lat="45.71214" lon="4.676">
        <ele>351.6</ele>
        <time>2025-12-15T15:05:59Z</time>
      </trkpt>
      <trkpt lat="45.71216" lon="4.67602">
        <ele>351.6</ele>
        <time>2025-12-15T15:06:00Z</time>
      </trkpt>
      <trkpt lat="45.71218" lon="4.67604">
        <ele>351.4</ele>
        <time>2025-12-15T15:06:01Z</time>
      </trkpt>
      <trkpt lat="45.71219" lon="4.67607">
        <ele>351.2</ele>
        <time>2025-12-15T15:06:02Z</time>
      </trkpt>
      <trkpt lat="45.71222" lon="4.6761">
        <ele>351</ele>
        <time>2025-12-15T15:06:03Z</time>
      </trkpt>
      <trkpt lat="45.71224" lon="4.67613">
        <ele>350.8</ele>
        <time>2025-12-15T15:06:04Z</time>
      </trkpt>
      <trkpt lat="45.71227" lon="4.67617">
        <ele>350.6</ele>
        <time>2025-12-15T15:06:05Z</time>
      </trkpt>
      <trkpt lat="45.7123" lon="4.6762">
        <ele>350.2</ele>
        <time>2025-12-15T15:06:06Z</time>
      </trkpt>
      <trkpt lat="45.71234" lon="4.67623">
        <ele>350</ele>
        <time>2025-12-15T15:06:07Z</time>
      </trkpt>
      <trkpt lat="45.71238" lon="4.67624">
        <ele>349.6</ele>
        <time>2025-12-15T15:06:08Z</time>
      </trkpt>
      <trkpt lat="45.71241" lon="4.67622">
        <ele>349</ele>
        <time>2025-12-15T15:06:09Z</time>
      </trkpt>
      <trkpt lat="45.71243" lon="4.67617">
        <ele>348.6</ele>
        <time>2025-12-15T15:06:10Z</time>
      </trkpt>
      <trkpt lat="45.71243" lon="4.6761">
        <ele>348</ele>
        <time>2025-12-15T15:06:11Z</time>
      </trkpt>
      <trkpt lat="45.71244" lon="4.67603">
        <ele>347.2</ele>
        <time>2025-12-15T15:06:12Z</time>
      </trkpt>
      <trkpt lat="45.71245" lon="4.67597">
        <ele>346.6</ele>
        <time>2025-12-15T15:06:13Z</time>
      </trkpt>
      <trkpt lat="45.71247" lon="4.67591">
        <ele>346</ele>
        <time>2025-12-15T15:06:14Z</time>
      </trkpt>
      <trkpt lat="45.71249" lon="4.67586">
        <ele>345.6</ele>
        <time>2025-12-15T15:06:15Z</time>
      </trkpt>
      <trkpt lat="45.71251" lon="4.67582">
        <ele>345.2</ele>
        <time>2025-12-15T15:06:16Z</time>
      </trkpt>
      <trkpt lat="45.71254" lon="4.6758">
        <ele>345</ele>
        <time>2025-12-15T15:06:17Z</time>
      </trkpt>
      <trkpt lat="45.71258" lon="4.67579">
        <ele>345</ele>
        <time>2025-12-15T15:06:18Z</time>
      </trkpt>
      <trkpt lat="45.71261" lon="4.67581">
        <ele>345.2</ele>
        <time>2025-12-15T15:06:19Z</time>
      </trkpt>
      <trkpt lat="45.71264" lon="4.67584">
        <ele>345.4</ele>
        <time>2025-12-15T15:06:20Z</time>
      </trkpt>
      <trkpt lat="45.71268" lon="4.67588">
        <ele>345.6</ele>
        <time>2025-12-15T15:06:21Z</time>
      </trkpt>
      <trkpt lat="45.71271" lon="4.67592">
        <ele>345.8</ele>
        <time>2025-12-15T15:06:22Z</time>
      </trkpt>
      <trkpt lat="45.71274" lon="4.67596">
        <ele>346</ele>
        <time>2025-12-15T15:06:23Z</time>
      </trkpt>
      <trkpt lat="45.71278" lon="4.67601">
        <ele>346</ele>
        <time>2025-12-15T15:06:24Z</time>
      </trkpt>
      <trkpt lat="45.71281" lon="4.67606">
        <ele>346.2</ele>
        <time>2025-12-15T15:06:25Z</time>
      </trkpt>
      <trkpt lat="45.71284" lon="4.67611">
        <ele>346.2</ele>
        <time>2025-12-15T15:06:26Z</time>
      </trkpt>
      <trkpt lat="45.71287" lon="4.67616">
        <ele>346.2</ele>
        <time>2025-12-15T15:06:27Z</time>
      </trkpt>
      <trkpt lat="45.7129" lon="4.6762">
        <ele>346.2</ele>
        <time>2025-12-15T15:06:28Z</time>
      </trkpt>
      <trkpt lat="45.71293" lon="4.67625">
        <ele>346.2</ele>
        <time>2025-12-15T15:06:29Z</time>
      </trkpt>
      <trkpt lat="45.71295" lon="4.6763">
        <ele>346.2</ele>
        <time>2025-12-15T15:06:30Z</time>
      </trkpt>
      <trkpt lat="45.71298" lon="4.67634">
        <ele>346.2</ele>
        <time>2025-12-15T15:06:31Z</time>
      </trkpt>
      <trkpt lat="45.71301" lon="4.67637">
        <ele>346.2</ele>
        <time>2025-12-15T15:06:32Z</time>
      </trkpt>
      <trkpt lat="45.71303" lon="4.67641">
        <ele>346.4</ele>
        <time>2025-12-15T15:06:33Z</time>
      </trkpt>
      <trkpt lat="45.71305" lon="4.67644">
        <ele>346.6</ele>
        <time>2025-12-15T15:06:34Z</time>
      </trkpt>
      <trkpt lat="45.71307" lon="4.67647">
        <ele>347</ele>
        <time>2025-12-15T15:06:35Z</time>
      </trkpt>
      <trkpt lat="45.71309" lon="4.6765">
        <ele>347.4</ele>
        <time>2025-12-15T15:06:36Z</time>
      </trkpt>
      <trkpt lat="45.71311" lon="4.67652">
        <ele>347.8</ele>
        <time>2025-12-15T15:06:37Z</time>
      </trkpt>
      <trkpt lat="45.71313" lon="4.67655">
        <ele>348.2</ele>
        <time>2025-12-15T15:06:38Z</time>
      </trkpt>
      <trkpt lat="45.71315" lon="4.67658">
        <ele>348.6</ele>
        <time>2025-12-15T15:06:39Z</time>
      </trkpt>
      <trkpt lat="45.71317" lon="4.67661">
        <ele>348.8</ele>
        <time>2025-12-15T15:06:40Z</time>
      </trkpt>
      <trkpt lat="45.71318" lon="4.67664">
        <ele>349</ele>
        <time>2025-12-15T15:06:41Z</time>
      </trkpt>
      <trkpt lat="45.71319" lon="4.67667">
        <ele>349.2</ele>
        <time>2025-12-15T15:06:42Z</time>
      </trkpt>
      <trkpt lat="45.71321" lon="4.67671">
        <ele>349.2</ele>
        <time>2025-12-15T15:06:43Z</time>
      </trkpt>
      <trkpt lat="45.71322" lon="4.67676">
        <ele>349.2</ele>
        <time>2025-12-15T15:06:44Z</time>
      </trkpt>
      <trkpt lat="45.71324" lon="4.67681">
        <ele>349.2</ele>
        <time>2025-12-15T15:06:45Z</time>
      </trkpt>
      <trkpt lat="45.71328" lon="4.67686">
        <ele>349.2</ele>
        <time>2025-12-15T15:06:46Z</time>
      </trkpt>
      <trkpt lat="45.71332" lon="4.6769">
        <ele>349.2</ele>
        <time>2025-12-15T15:06:47Z</time>
      </trkpt>
      <trkpt lat="45.71336" lon="4.67694">
        <ele>349.2</ele>
        <time>2025-12-15T15:06:48Z</time>
      </trkpt>
      <trkpt lat="45.7134" lon="4.67697">
        <ele>349.2</ele>
        <time>2025-12-15T15:06:49Z</time>
      </trkpt>
      <trkpt lat="45.71344" lon="4.67698">
        <ele>349</ele>
        <time>2025-12-15T15:06:50Z</time>
      </trkpt>
      <trkpt lat="45.71347" lon="4.67697">
        <ele>348.8</ele>
        <time>2025-12-15T15:06:51Z</time>
      </trkpt>
      <trkpt lat="45.71351" lon="4.67695">
        <ele>348.8</ele>
        <time>2025-12-15T15:06:52Z</time>
      </trkpt>
      <trkpt lat="45.71354" lon="4.67695">
        <ele>348.8</ele>
        <time>2025-12-15T15:06:53Z</time>
      </trkpt>
      <trkpt lat="45.71356" lon="4.67695">
        <ele>348.8</ele>
        <time>2025-12-15T15:06:54Z</time>
      </trkpt>
      <trkpt lat="45.71358" lon="4.67697">
        <ele>349</ele>
        <time>2025-12-15T15:06:55Z</time>
      </trkpt>
      <trkpt lat="45.71361" lon="4.677">
        <ele>349</ele>
        <time>2025-12-15T15:06:56Z</time>
      </trkpt>
      <trkpt lat="45.71363" lon="4.67705">
        <ele>349</ele>
        <time>2025-12-15T15:06:57Z</time>
      </trkpt>
      <trkpt lat="45.71366" lon="4.6771">
        <ele>349</ele>
        <time>2025-12-15T15:06:58Z</time>
      </trkpt>
      <trkpt lat="45.71368" lon="4.67715">
        <ele>349</ele>
        <time>2025-12-15T15:06:59Z</time>
      </trkpt>
      <trkpt lat="45.71371" lon="4.6772">
        <ele>349</ele>
        <time>2025-12-15T15:07:00Z</time>
      </trkpt>
      <trkpt lat="45.71374" lon="4.67725">
        <ele>348.8</ele>
        <time>2025-12-15T15:07:01Z</time>
      </trkpt>
      <trkpt lat="45.71376" lon="4.67731">
        <ele>348.8</ele>
        <time>2025-12-15T15:07:02Z</time>
      </trkpt>
      <trkpt lat="45.71379" lon="4.67736">
        <ele>348.8</ele>
        <time>2025-12-15T15:07:03Z</time>
      </trkpt>
      <trkpt lat="45.71382" lon="4.67741">
        <ele>349</ele>
        <time>2025-12-15T15:07:04Z</time>
      </trkpt>
      <trkpt lat="45.71385" lon="4.67747">
        <ele>349</ele>
        <time>2025-12-15T15:07:05Z</time>
      </trkpt>
      <trkpt lat="45.71388" lon="4.67753">
        <ele>349.2</ele>
        <time>2025-12-15T15:07:06Z</time>
      </trkpt>
      <trkpt lat="45.7139" lon="4.67758">
        <ele>349.2</ele>
        <time>2025-12-15T15:07:07Z</time>
      </trkpt>
      <trkpt lat="45.71393" lon="4.67763">
        <ele>349.2</ele>
        <time>2025-12-15T15:07:08Z</time>
      </trkpt>
      <trkpt lat="45.71396" lon="4.67768">
        <ele>349.2</ele>
        <time>2025-12-15T15:07:09Z</time>
      </trkpt>
      <trkpt lat="45.71398" lon="4.67774">
        <ele>349</ele>
        <time>2025-12-15T15:07:10Z</time>
      </trkpt>
      <trkpt lat="45.714" lon="4.6778">
        <ele>349</ele>
        <time>2025-12-15T15:07:11Z</time>
      </trkpt>
      <trkpt lat="45.71403" lon="4.67786">
        <ele>349</ele>
        <time>2025-12-15T15:07:12Z</time>
      </trkpt>
      <trkpt lat="45.71406" lon="4.67792">
        <ele>349</ele>
        <time>2025-12-15T15:07:13Z</time>
      </trkpt>
      <trkpt lat="45.71409" lon="4.67798">
        <ele>348.8</ele>
        <time>2025-12-15T15:07:14Z</time>
      </trkpt>
      <trkpt lat="45.71412" lon="4.67805">
        <ele>348.6</ele>
        <time>2025-12-15T15:07:15Z</time>
      </trkpt>
      <trkpt lat="45.71415" lon="4.67811">
        <ele>348.4</ele>
        <time>2025-12-15T15:07:16Z</time>
      </trkpt>
      <trkpt lat="45.71418" lon="4.67818">
        <ele>348.2</ele>
        <time>2025-12-15T15:07:17Z</time>
      </trkpt>
      <trkpt lat="45.71421" lon="4.67825">
        <ele>347.8</ele>
        <time>2025-12-15T15:07:18Z</time>
      </trkpt>
      <trkpt lat="45.71425" lon="4.67832">
        <ele>347.6</ele>
        <time>2025-12-15T15:07:19Z</time>
      </trkpt>
      <trkpt lat="45.71429" lon="4.6784">
        <ele>347.2</ele>
        <time>2025-12-15T15:07:20Z</time>
      </trkpt>
      <trkpt lat="45.71433" lon="4.67847">
        <ele>346.8</ele>
        <time>2025-12-15T15:07:21Z</time>
      </trkpt>
      <trkpt lat="45.71436" lon="4.67856">
        <ele>346.2</ele>
        <time>2025-12-15T15:07:22Z</time>
      </trkpt>
      <trkpt lat="45.7144" lon="4.67864">
        <ele>345.8</ele>
        <time>2025-12-15T15:07:23Z</time>
      </trkpt>
      <trkpt lat="45.71444" lon="4.67872">
        <ele>345.4</ele>
        <time>2025-12-15T15:07:24Z</time>
      </trkpt>
      <trkpt lat="45.71448" lon="4.67881">
        <ele>345</ele>
        <time>2025-12-15T15:07:25Z</time>
      </trkpt>
      <trkpt lat="45.71451" lon="4.6789">
        <ele>344.6</ele>
        <time>2025-12-15T15:07:26Z</time>
      </trkpt>
      <trkpt lat="45.71454" lon="4.679">
        <ele>344</ele>
        <time>2025-12-15T15:07:27Z</time>
      </trkpt>
      <trkpt lat="45.71457" lon="4.67909">
        <ele>343.6</ele>
        <time>2025-12-15T15:07:28Z</time>
      </trkpt>
      <trkpt lat="45.7146" lon="4.67919">
        <ele>343.2</ele>
        <time>2025-12-15T15:07:29Z</time>
      </trkpt>
      <trkpt lat="45.71464" lon="4.67929">
        <ele>342.6</ele>
        <time>2025-12-15T15:07:30Z</time>
      </trkpt>
      <trkpt lat="45.71467" lon="4.67939">
        <ele>342.2</ele>
        <time>2025-12-15T15:07:31Z</time>
      </trkpt>
      <trkpt lat="45.7147" lon="4.67949">
        <ele>341.6</ele>
        <time>2025-12-15T15:07:32Z</time>
      </trkpt>
      <trkpt lat="45.71473" lon="4.6796">
        <ele>341.2</ele>
        <time>2025-12-15T15:07:33Z</time>
      </trkpt>
      <trkpt lat="45.71476" lon="4.6797">
        <ele>340.8</ele>
        <time>2025-12-15T15:07:34Z</time>
      </trkpt>
      <trkpt lat="45.71479" lon="4.67981">
        <ele>340.2</ele>
        <time>2025-12-15T15:07:35Z</time>
      </trkpt>
      <trkpt lat="45.71482" lon="4.67991">
        <ele>339.8</ele>
        <time>2025-12-15T15:07:36Z</time>
      </trkpt>
      <trkpt lat="45.71486" lon="4.68002">
        <ele>339.6</ele>
        <time>2025-12-15T15:07:37Z</time>
      </trkpt>
      <trkpt lat="45.71489" lon="4.68012">
        <ele>339.2</ele>
        <time>2025-12-15T15:07:38Z</time>
      </trkpt>
      <trkpt lat="45.71492" lon="4.68023">
        <ele>338.8</ele>
        <time>2025-12-15T15:07:39Z</time>
      </trkpt>
      <trkpt lat="45.71495" lon="4.68033">
        <ele>338.4</ele>
        <time>2025-12-15T15:07:40Z</time>
      </trkpt>
      <trkpt lat="45.71498" lon="4.68044">
        <ele>338</ele>
        <time>2025-12-15T15:07:41Z</time>
      </trkpt>
      <trkpt lat="45.715" lon="4.68054">
        <ele>337.8</ele>
        <time>2025-12-15T15:07:42Z</time>
      </trkpt>
      <trkpt lat="45.71503" lon="4.68065">
        <ele>337.4</ele>
        <time>2025-12-15T15:07:43Z</time>
      </trkpt>
      <trkpt lat="45.71506" lon="4.68076">
        <ele>337.2</ele>
        <time>2025-12-15T15:07:44Z</time>
      </trkpt>
      <trkpt lat="45.71508" lon="4.68088">
        <ele>336.8</ele>
        <time>2025-12-15T15:07:45Z</time>
      </trkpt>
      <trkpt lat="45.71509" lon="4.68099">
        <ele>336.4</ele>
        <time>2025-12-15T15:07:46Z</time>
      </trkpt>
      <trkpt lat="45.7151" lon="4.6811">
        <ele>336</ele>
        <time>2025-12-15T15:07:47Z</time>
      </trkpt>
      <trkpt lat="45.71511" lon="4.68122">
        <ele>335.4</ele>
        <time>2025-12-15T15:07:48Z</time>
      </trkpt>
      <trkpt lat="45.71512" lon="4.68134">
        <ele>334.8</ele>
        <time>2025-12-15T15:07:49Z</time>
      </trkpt>
      <trkpt lat="45.71513" lon="4.68146">
        <ele>334.2</ele>
        <time>2025-12-15T15:07:50Z</time>
      </trkpt>
      <trkpt lat="45.71514" lon="4.68158">
        <ele>333.2</ele>
        <time>2025-12-15T15:07:51Z</time>
      </trkpt>
      <trkpt lat="45.71515" lon="4.68171">
        <ele>332.4</ele>
        <time>2025-12-15T15:07:52Z</time>
      </trkpt>
      <trkpt lat="45.71516" lon="4.68183">
        <ele>331.8</ele>
        <time>2025-12-15T15:07:53Z</time>
      </trkpt>
      <trkpt lat="45.71519" lon="4.68196">
        <ele>331.2</ele>
        <time>2025-12-15T15:07:54Z</time>
      </trkpt>
      <trkpt lat="45.71522" lon="4.68207">
        <ele>330.6</ele>
        <time>2025-12-15T15:07:55Z</time>
      </trkpt>
      <trkpt lat="45.71527" lon="4.68217">
        <ele>330.2</ele>
        <time>2025-12-15T15:07:56Z</time>
      </trkpt>
      <trkpt lat="45.71531" lon="4.68227">
        <ele>330</ele>
        <time>2025-12-15T15:07:57Z</time>
      </trkpt>
      <trkpt lat="45.71537" lon="4.68235">
        <ele>329.8</ele>
        <time>2025-12-15T15:07:58Z</time>
      </trkpt>
      <trkpt lat="45.71542" lon="4.68243">
        <ele>329.8</ele>
        <time>2025-12-15T15:07:59Z</time>
      </trkpt>
      <trkpt lat="45.71548" lon="4.6825">
        <ele>330</ele>
        <time>2025-12-15T15:08:00Z</time>
      </trkpt>
      <trkpt lat="45.71555" lon="4.68255">
        <ele>330.2</ele>
        <time>2025-12-15T15:08:01Z</time>
      </trkpt>
      <trkpt lat="45.71562" lon="4.6826">
        <ele>330.2</ele>
        <time>2025-12-15T15:08:02Z</time>
      </trkpt>
      <trkpt lat="45.71568" lon="4.68266">
        <ele>330.2</ele>
        <time>2025-12-15T15:08:03Z</time>
      </trkpt>
      <trkpt lat="45.71575" lon="4.68271">
        <ele>330</ele>
        <time>2025-12-15T15:08:04Z</time>
      </trkpt>
      <trkpt lat="45.71581" lon="4.68278">
        <ele>329.6</ele>
        <time>2025-12-15T15:08:05Z</time>
      </trkpt>
      <trkpt lat="45.71588" lon="4.68285">
        <ele>328.8</ele>
        <time>2025-12-15T15:08:06Z</time>
      </trkpt>
      <trkpt lat="45.71595" lon="4.68293">
        <ele>328</ele>
        <time>2025-12-15T15:08:07Z</time>
      </trkpt>
      <trkpt lat="45.71602" lon="4.68301">
        <ele>327.2</ele>
        <time>2025-12-15T15:08:08Z</time>
      </trkpt>
      <trkpt lat="45.7161" lon="4.6831">
        <ele>326.2</ele>
        <time>2025-12-15T15:08:09Z</time>
      </trkpt>
      <trkpt lat="45.71617" lon="4.6832">
        <ele>325.2</ele>
        <time>2025-12-15T15:08:10Z</time>
      </trkpt>
      <trkpt lat="45.71625" lon="4.6833">
        <ele>324.2</ele>
        <time>2025-12-15T15:08:11Z</time>
      </trkpt>
      <trkpt lat="45.71633" lon="4.6834">
        <ele>323.2</ele>
        <time>2025-12-15T15:08:12Z</time>
      </trkpt>
      <trkpt lat="45.7164" lon="4.68349">
        <ele>322.2</ele>
        <time>2025-12-15T15:08:13Z</time>
      </trkpt>
      <trkpt lat="45.71648" lon="4.68359">
        <ele>321.6</ele>
        <time>2025-12-15T15:08:14Z</time>
      </trkpt>
      <trkpt lat="45.71656" lon="4.68369">
        <ele>321</ele>
        <time>2025-12-15T15:08:15Z</time>
      </trkpt>
      <trkpt lat="45.71663" lon="4.68379">
        <ele>320.8</ele>
        <time>2025-12-15T15:08:16Z</time>
      </trkpt>
      <trkpt lat="45.71671" lon="4.68389">
        <ele>320.4</ele>
        <time>2025-12-15T15:08:17Z</time>
      </trkpt>
      <trkpt lat="45.71678" lon="4.68398">
        <ele>320.2</ele>
        <time>2025-12-15T15:08:18Z</time>
      </trkpt>
      <trkpt lat="45.71685" lon="4.68407">
        <ele>320</ele>
        <time>2025-12-15T15:08:19Z</time>
      </trkpt>
      <trkpt lat="45.71692" lon="4.68416">
        <ele>319.8</ele>
        <time>2025-12-15T15:08:20Z</time>
      </trkpt>
      <trkpt lat="45.71699" lon="4.68425">
        <ele>319.6</ele>
        <time>2025-12-15T15:08:21Z</time>
      </trkpt>
      <trkpt lat="45.71706" lon="4.68434">
        <ele>319.6</ele>
        <time>2025-12-15T15:08:22Z</time>
      </trkpt>
      <trkpt lat="45.71712" lon="4.68442">
        <ele>319.4</ele>
        <time>2025-12-15T15:08:23Z</time>
      </trkpt>
      <trkpt lat="45.71719" lon="4.6845">
        <ele>319.4</ele>
        <time>2025-12-15T15:08:24Z</time>
      </trkpt>
      <trkpt lat="45.71725" lon="4.68459">
        <ele>319.6</ele>
        <time>2025-12-15T15:08:25Z</time>
      </trkpt>
      <trkpt lat="45.71731" lon="4.68467">
        <ele>319.6</ele>
        <time>2025-12-15T15:08:26Z</time>
      </trkpt>
      <trkpt lat="45.71737" lon="4.68475">
        <ele>319.8</ele>
        <time>2025-12-15T15:08:27Z</time>
      </trkpt>
      <trkpt lat="45.71743" lon="4.68483">
        <ele>319.8</ele>
        <time>2025-12-15T15:08:28Z</time>
      </trkpt>
      <trkpt lat="45.71749" lon="4.68491">
        <ele>319.8</ele>
        <time>2025-12-15T15:08:29Z</time>
      </trkpt>
      <trkpt lat="45.71755" lon="4.685">
        <ele>319.8</ele>
        <time>2025-12-15T15:08:30Z</time>
      </trkpt>
      <trkpt lat="45.71761" lon="4.68508">
        <ele>319.4</ele>
        <time>2025-12-15T15:08:31Z</time>
      </trkpt>
      <trkpt lat="45.71765" lon="4.68516">
        <ele>319.2</ele>
        <time>2025-12-15T15:08:32Z</time>
      </trkpt>
      <trkpt lat="45.7177" lon="4.68525">
        <ele>319</ele>
        <time>2025-12-15T15:08:33Z</time>
      </trkpt>
      <trkpt lat="45.71774" lon="4.68533">
        <ele>318.8</ele>
        <time>2025-12-15T15:08:34Z</time>
      </trkpt>
      <trkpt lat="45.71777" lon="4.68542">
        <ele>318.8</ele>
        <time>2025-12-15T15:08:35Z</time>
      </trkpt>
      <trkpt lat="45.71781" lon="4.6855">
        <ele>319</ele>
        <time>2025-12-15T15:08:36Z</time>
      </trkpt>
      <trkpt lat="45.71784" lon="4.68558">
        <ele>319.2</ele>
        <time>2025-12-15T15:08:37Z</time>
      </trkpt>
      <trkpt lat="45.71787" lon="4.68566">
        <ele>319.4</ele>
        <time>2025-12-15T15:08:38Z</time>
      </trkpt>
      <trkpt lat="45.7179" lon="4.68573">
        <ele>319.8</ele>
        <time>2025-12-15T15:08:39Z</time>
      </trkpt>
      <trkpt lat="45.71793" lon="4.6858">
        <ele>320.2</ele>
        <time>2025-12-15T15:08:40Z</time>
      </trkpt>
      <trkpt lat="45.71795" lon="4.68587">
        <ele>320.6</ele>
        <time>2025-12-15T15:08:41Z</time>
      </trkpt>
      <trkpt lat="45.71797" lon="4.68593">
        <ele>321</ele>
        <time>2025-12-15T15:08:42Z</time>
      </trkpt>
      <trkpt lat="45.71799" lon="4.68599">
        <ele>321.4</ele>
        <time>2025-12-15T15:08:43Z</time>
      </trkpt>
      <trkpt lat="45.71802" lon="4.68604">
        <ele>321.8</ele>
        <time>2025-12-15T15:08:44Z</time>
      </trkpt>
      <trkpt lat="45.71803" lon="4.68609">
        <ele>322</ele>
        <time>2025-12-15T15:08:45Z</time>
      </trkpt>
      <trkpt lat="45.71805" lon="4.68614">
        <ele>322.4</ele>
        <time>2025-12-15T15:08:46Z</time>
      </trkpt>
      <trkpt lat="45.71807" lon="4.68619">
        <ele>322.8</ele>
        <time>2025-12-15T15:08:47Z</time>
      </trkpt>
      <trkpt lat="45.71809" lon="4.68624">
        <ele>323.2</ele>
        <time>2025-12-15T15:08:48Z</time>
      </trkpt>
      <trkpt lat="45.7181" lon="4.68628">
        <ele>323.4</ele>
        <time>2025-12-15T15:08:49Z</time>
      </trkpt>
      <trkpt lat="45.71811" lon="4.68633">
        <ele>323.8</ele>
        <time>2025-12-15T15:08:50Z</time>
      </trkpt>
      <trkpt lat="45.71812" lon="4.68637">
        <ele>324.2</ele>
        <time>2025-12-15T15:08:51Z</time>
      </trkpt>
      <trkpt lat="45.71812" lon="4.68641">
        <ele>324.6</ele>
        <time>2025-12-15T15:08:52Z</time>
      </trkpt>
      <trkpt lat="45.71812" lon="4.68645">
        <ele>324.8</ele>
        <time>2025-12-15T15:08:53Z</time>
      </trkpt>
      <trkpt lat="45.71812" lon="4.6865">
        <ele>325.2</ele>
        <time>2025-12-15T15:08:54Z</time>
      </trkpt>
      <trkpt lat="45.71812" lon="4.68655">
        <ele>325.2</ele>
        <time>2025-12-15T15:08:55Z</time>
      </trkpt>
      <trkpt lat="45.71811" lon="4.6866">
        <ele>325.2</ele>
        <time>2025-12-15T15:08:56Z</time>
      </trkpt>
      <trkpt lat="45.71809" lon="4.68667">
        <ele>325</ele>
        <time>2025-12-15T15:08:57Z</time>
      </trkpt>
      <trkpt lat="45.71807" lon="4.68673">
        <ele>325</ele>
        <time>2025-12-15T15:08:58Z</time>
      </trkpt>
      <trkpt lat="45.71806" lon="4.68679">
        <ele>324.8</ele>
        <time>2025-12-15T15:08:59Z</time>
      </trkpt>
      <trkpt lat="45.71804" lon="4.68684">
        <ele>325</ele>
        <time>2025-12-15T15:09:00Z</time>
      </trkpt>
      <trkpt lat="45.71803" lon="4.68689">
        <ele>325.2</ele>
        <time>2025-12-15T15:09:01Z</time>
      </trkpt>
      <trkpt lat="45.71802" lon="4.68694">
        <ele>325.4</ele>
        <time>2025-12-15T15:09:02Z</time>
      </trkpt>
      <trkpt lat="45.71802" lon="4.68699">
        <ele>325.6</ele>
        <time>2025-12-15T15:09:03Z</time>
      </trkpt>
      <trkpt lat="45.71801" lon="4.68703">
        <ele>326</ele>
        <time>2025-12-15T15:09:04Z</time>
      </trkpt>
      <trkpt lat="45.71801" lon="4.68707">
        <ele>326.2</ele>
        <time>2025-12-15T15:09:05Z</time>
      </trkpt>
      <trkpt lat="45.718" lon="4.6871">
        <ele>326.4</ele>
        <time>2025-12-15T15:09:06Z</time>
      </trkpt>
      <trkpt lat="45.71799" lon="4.68712">
        <ele>326.6</ele>
        <time>2025-12-15T15:09:07Z</time>
      </trkpt>
      <trkpt lat="45.71796" lon="4.68713">
        <ele>326.6</ele>
        <time>2025-12-15T15:09:08Z</time>
      </trkpt>
      <trkpt lat="45.71794" lon="4.68714">
        <ele>326.4</ele>
        <time>2025-12-15T15:09:09Z</time>
      </trkpt>
      <trkpt lat="45.71791" lon="4.68716">
        <ele>326.2</ele>
        <time>2025-12-15T15:09:10Z</time>
      </trkpt>
      <trkpt lat="45.71789" lon="4.68718">
        <ele>325.8</ele>
        <time>2025-12-15T15:09:11Z</time>
      </trkpt>
      <trkpt lat="45.71788" lon="4.68721">
        <ele>325.4</ele>
        <time>2025-12-15T15:09:12Z</time>
      </trkpt>
      <trkpt lat="45.71786" lon="4.68724">
        <ele>325.2</ele>
        <time>2025-12-15T15:09:13Z</time>
      </trkpt>
      <trkpt lat="45.71785" lon="4.68726">
        <ele>324.8</ele>
        <time>2025-12-15T15:09:14Z</time>
      </trkpt>
      <trkpt lat="45.71784" lon="4.68729">
        <ele>324.6</ele>
        <time>2025-12-15T15:09:15Z</time>
      </trkpt>
      <trkpt lat="45.71782" lon="4.68732">
        <ele>324.6</ele>
        <time>2025-12-15T15:09:16Z</time>
      </trkpt>
      <trkpt lat="45.71781" lon="4.68735">
        <ele>324.2</ele>
        <time>2025-12-15T15:09:17Z</time>
      </trkpt>
      <trkpt lat="45.71779" lon="4.6874">
        <ele>323.6</ele>
        <time>2025-12-15T15:09:18Z</time>
      </trkpt>
      <trkpt lat="45.71777" lon="4.68745">
        <ele>323</ele>
        <time>2025-12-15T15:09:19Z</time>
      </trkpt>
      <trkpt lat="45.71774" lon="4.68751">
        <ele>322.4</ele>
        <time>2025-12-15T15:09:20Z</time>
      </trkpt>
      <trkpt lat="45.71771" lon="4.68757">
        <ele>321.6</ele>
        <time>2025-12-15T15:09:21Z</time>
      </trkpt>
      <trkpt lat="45.71767" lon="4.68764">
        <ele>320.8</ele>
        <time>2025-12-15T15:09:22Z</time>
      </trkpt>
      <trkpt lat="45.71763" lon="4.68771">
        <ele>320.2</ele>
        <time>2025-12-15T15:09:23Z</time>
      </trkpt>
      <trkpt lat="45.71759" lon="4.68779">
        <ele>319.6</ele>
        <time>2025-12-15T15:09:24Z</time>
      </trkpt>
      <trkpt lat="45.71756" lon="4.68786">
        <ele>319.2</ele>
        <time>2025-12-15T15:09:25Z</time>
      </trkpt>
      <trkpt lat="45.71752" lon="4.68793">
        <ele>318.6</ele>
        <time>2025-12-15T15:09:26Z</time>
      </trkpt>
      <trkpt lat="45.71748" lon="4.688">
        <ele>318.4</ele>
        <time>2025-12-15T15:09:27Z</time>
      </trkpt>
      <trkpt lat="45.71745" lon="4.68808">
        <ele>318.2</ele>
        <time>2025-12-15T15:09:28Z</time>
      </trkpt>
      <trkpt lat="45.71741" lon="4.68815">
        <ele>318.4</ele>
        <time>2025-12-15T15:09:29Z</time>
      </trkpt>
      <trkpt lat="45.71737" lon="4.68822">
        <ele>318.4</ele>
        <time>2025-12-15T15:09:30Z</time>
      </trkpt>
      <trkpt lat="45.71733" lon="4.68829">
        <ele>318.6</ele>
        <time>2025-12-15T15:09:31Z</time>
      </trkpt>
      <trkpt lat="45.7173" lon="4.68836">
        <ele>318.8</ele>
        <time>2025-12-15T15:09:32Z</time>
      </trkpt>
      <trkpt lat="45.71726" lon="4.68843">
        <ele>318.6</ele>
        <time>2025-12-15T15:09:33Z</time>
      </trkpt>
      <trkpt lat="45.71722" lon="4.6885">
        <ele>318.4</ele>
        <time>2025-12-15T15:09:34Z</time>
      </trkpt>
      <trkpt lat="45.71719" lon="4.68856">
        <ele>318.4</ele>
        <time>2025-12-15T15:09:35Z</time>
      </trkpt>
      <trkpt lat="45.71715" lon="4.68863">
        <ele>318.4</ele>
        <time>2025-12-15T15:09:36Z</time>
      </trkpt>
      <trkpt lat="45.71711" lon="4.68869">
        <ele>318.2</ele>
        <time>2025-12-15T15:09:37Z</time>
      </trkpt>
      <trkpt lat="45.71707" lon="4.68876">
        <ele>318.4</ele>
        <time>2025-12-15T15:09:38Z</time>
      </trkpt>
      <trkpt lat="45.71703" lon="4.68882">
        <ele>318.6</ele>
        <time>2025-12-15T15:09:39Z</time>
      </trkpt>
      <trkpt lat="45.71699" lon="4.68888">
        <ele>318.6</ele>
        <time>2025-12-15T15:09:40Z</time>
      </trkpt>
      <trkpt lat="45.71696" lon="4.68895">
        <ele>318.8</ele>
        <time>2025-12-15T15:09:41Z</time>
      </trkpt>
      <trkpt lat="45.71692" lon="4.68901">
        <ele>319</ele>
        <time>2025-12-15T15:09:42Z</time>
      </trkpt>
      <trkpt lat="45.71689" lon="4.68907">
        <ele>319.4</ele>
        <time>2025-12-15T15:09:43Z</time>
      </trkpt>
      <trkpt lat="45.71685" lon="4.68914">
        <ele>319.6</ele>
        <time>2025-12-15T15:09:44Z</time>
      </trkpt>
      <trkpt lat="45.71682" lon="4.6892">
        <ele>320</ele>
        <time>2025-12-15T15:09:45Z</time>
      </trkpt>
      <trkpt lat="45.71679" lon="4.68926">
        <ele>320.2</ele>
        <time>2025-12-15T15:09:46Z</time>
      </trkpt>
      <trkpt lat="45.71676" lon="4.68932">
        <ele>320.6</ele>
        <time>2025-12-15T15:09:47Z</time>
      </trkpt>
      <trkpt lat="45.71673" lon="4.68938">
        <ele>320.8</ele>
        <time>2025-12-15T15:09:48Z</time>
      </trkpt>
      <trkpt lat="45.7167" lon="4.68944">
        <ele>321</ele>
        <time>2025-12-15T15:09:49Z</time>
      </trkpt>
      <trkpt lat="45.71667" lon="4.6895">
        <ele>321</ele>
        <time>2025-12-15T15:09:50Z</time>
      </trkpt>
      <trkpt lat="45.71664" lon="4.68956">
        <ele>321</ele>
        <time>2025-12-15T15:09:51Z</time>
      </trkpt>
      <trkpt lat="45.71661" lon="4.68961">
        <ele>321</ele>
        <time>2025-12-15T15:09:52Z</time>
      </trkpt>
      <trkpt lat="45.71659" lon="4.68967">
        <ele>321</ele>
        <time>2025-12-15T15:09:53Z</time>
      </trkpt>
      <trkpt lat="45.71656" lon="4.68972">
        <ele>321.2</ele>
        <time>2025-12-15T15:09:54Z</time>
      </trkpt>
      <trkpt lat="45.71654" lon="4.68978">
        <ele>321.2</ele>
        <time>2025-12-15T15:09:55Z</time>
      </trkpt>
      <trkpt lat="45.71651" lon="4.68983">
        <ele>321.2</ele>
        <time>2025-12-15T15:09:56Z</time>
      </trkpt>
      <trkpt lat="45.71648" lon="4.68989">
        <ele>321.2</ele>
        <time>2025-12-15T15:09:57Z</time>
      </trkpt>
      <trkpt lat="45.71645" lon="4.68994">
        <ele>321.2</ele>
        <time>2025-12-15T15:09:58Z</time>
      </trkpt>
      <trkpt lat="45.71642" lon="4.69">
        <ele>321.4</ele>
        <time>2025-12-15T15:09:59Z</time>
      </trkpt>
      <trkpt lat="45.71639" lon="4.69005">
        <ele>321.6</ele>
        <time>2025-12-15T15:10:00Z</time>
      </trkpt>
      <trkpt lat="45.71636" lon="4.6901">
        <ele>321.8</ele>
        <time>2025-12-15T15:10:01Z</time>
      </trkpt>
      <trkpt lat="45.71634" lon="4.69015">
        <ele>322</ele>
        <time>2025-12-15T15:10:02Z</time>
      </trkpt>
      <trkpt lat="45.71631" lon="4.6902">
        <ele>322</ele>
        <time>2025-12-15T15:10:03Z</time>
      </trkpt>
      <trkpt lat="45.71629" lon="4.69025">
        <ele>322</ele>
        <time>2025-12-15T15:10:04Z</time>
      </trkpt>
      <trkpt lat="45.71627" lon="4.6903">
        <ele>322</ele>
        <time>2025-12-15T15:10:05Z</time>
      </trkpt>
      <trkpt lat="45.71625" lon="4.69036">
        <ele>322</ele>
        <time>2025-12-15T15:10:06Z</time>
      </trkpt>
      <trkpt lat="45.71623" lon="4.6904">
        <ele>322</ele>
        <time>2025-12-15T15:10:07Z</time>
      </trkpt>
      <trkpt lat="45.71621" lon="4.69045">
        <ele>321.8</ele>
        <time>2025-12-15T15:10:08Z</time>
      </trkpt>
      <trkpt lat="45.71618" lon="4.6905">
        <ele>321.8</ele>
        <time>2025-12-15T15:10:09Z</time>
      </trkpt>
      <trkpt lat="45.71616" lon="4.69055">
        <ele>321.6</ele>
        <time>2025-12-15T15:10:10Z</time>
      </trkpt>
      <trkpt lat="45.71614" lon="4.6906">
        <ele>321.6</ele>
        <time>2025-12-15T15:10:11Z</time>
      </trkpt>
      <trkpt lat="45.71611" lon="4.69066">
        <ele>321.6</ele>
        <time>2025-12-15T15:10:12Z</time>
      </trkpt>
      <trkpt lat="45.71609" lon="4.69071">
        <ele>321.6</ele>
        <time>2025-12-15T15:10:13Z</time>
      </trkpt>
      <trkpt lat="45.71606" lon="4.69076">
        <ele>321.4</ele>
        <time>2025-12-15T15:10:14Z</time>
      </trkpt>
      <trkpt lat="45.71604" lon="4.69081">
        <ele>321.4</ele>
        <time>2025-12-15T15:10:15Z</time>
      </trkpt>
      <trkpt lat="45.71601" lon="4.69086">
        <ele>321.2</ele>
        <time>2025-12-15T15:10:16Z</time>
      </trkpt>
      <trkpt lat="45.716" lon="4.69091">
        <ele>321.2</ele>
        <time>2025-12-15T15:10:17Z</time>
      </trkpt>
      <trkpt lat="45.71599" lon="4.69096">
        <ele>321.2</ele>
        <time>2025-12-15T15:10:18Z</time>
      </trkpt>
      <trkpt lat="45.71598" lon="4.691">
        <ele>321.2</ele>
        <time>2025-12-15T15:10:19Z</time>
      </trkpt>
      <trkpt lat="45.71597" lon="4.69104">
        <ele>321.4</ele>
        <time>2025-12-15T15:10:20Z</time>
      </trkpt>
      <trkpt lat="45.71595" lon="4.69108">
        <ele>321.4</ele>
        <time>2025-12-15T15:10:21Z</time>
      </trkpt>
      <trkpt lat="45.71593" lon="4.69112">
        <ele>321.4</ele>
        <time>2025-12-15T15:10:22Z</time>
      </trkpt>
      <trkpt lat="45.71591" lon="4.69117">
        <ele>321.2</ele>
        <time>2025-12-15T15:10:23Z</time>
      </trkpt>
      <trkpt lat="45.71588" lon="4.69121">
        <ele>321</ele>
        <time>2025-12-15T15:10:24Z</time>
      </trkpt>
      <trkpt lat="45.71586" lon="4.69126">
        <ele>320.8</ele>
        <time>2025-12-15T15:10:25Z</time>
      </trkpt>
      <trkpt lat="45.71584" lon="4.69131">
        <ele>320.2</ele>
        <time>2025-12-15T15:10:26Z</time>
      </trkpt>
      <trkpt lat="45.71581" lon="4.69137">
        <ele>319.8</ele>
        <time>2025-12-15T15:10:27Z</time>
      </trkpt>
      <trkpt lat="45.71579" lon="4.69143">
        <ele>319.6</ele>
        <time>2025-12-15T15:10:28Z</time>
      </trkpt>
      <trkpt lat="45.71576" lon="4.69149">
        <ele>319.4</ele>
        <time>2025-12-15T15:10:29Z</time>
      </trkpt>
      <trkpt lat="45.71573" lon="4.69155">
        <ele>319.2</ele>
        <time>2025-12-15T15:10:30Z</time>
      </trkpt>
      <trkpt lat="45.7157" lon="4.69161">
        <ele>319</ele>
        <time>2025-12-15T15:10:31Z</time>
      </trkpt>
      <trkpt lat="45.71567" lon="4.69168">
        <ele>319</ele>
        <time>2025-12-15T15:10:32Z</time>
      </trkpt>
      <trkpt lat="45.71563" lon="4.69174">
        <ele>318.8</ele>
        <time>2025-12-15T15:10:33Z</time>
      </trkpt>
      <trkpt lat="45.7156" lon="4.6918">
        <ele>318.4</ele>
        <time>2025-12-15T15:10:34Z</time>
      </trkpt>
      <trkpt lat="45.71556" lon="4.69187">
        <ele>318.4</ele>
        <time>2025-12-15T15:10:35Z</time>
      </trkpt>
      <trkpt lat="45.71552" lon="4.69193">
        <ele>318.4</ele>
        <time>2025-12-15T15:10:36Z</time>
      </trkpt>
      <trkpt lat="45.71549" lon="4.69199">
        <ele>318.2</ele>
        <time>2025-12-15T15:10:37Z</time>
      </trkpt>
      <trkpt lat="45.71545" lon="4.69206">
        <ele>318.2</ele>
        <time>2025-12-15T15:10:38Z</time>
      </trkpt>
      <trkpt lat="45.71542" lon="4.69213">
        <ele>318.2</ele>
        <time>2025-12-15T15:10:39Z</time>
      </trkpt>
      <trkpt lat="45.71539" lon="4.69219">
        <ele>318</ele>
        <time>2025-12-15T15:10:40Z</time>
      </trkpt>
      <trkpt lat="45.71535" lon="4.69226">
        <ele>318</ele>
        <time>2025-12-15T15:10:41Z</time>
      </trkpt>
      <trkpt lat="45.71532" lon="4.69233">
        <ele>317.8</ele>
        <time>2025-12-15T15:10:42Z</time>
      </trkpt>
      <trkpt lat="45.71528" lon="4.6924">
        <ele>317.8</ele>
        <time>2025-12-15T15:10:43Z</time>
      </trkpt>
      <trkpt lat="45.71525" lon="4.69247">
        <ele>317.6</ele>
        <time>2025-12-15T15:10:44Z</time>
      </trkpt>
      <trkpt lat="45.71521" lon="4.69254">
        <ele>317.8</ele>
        <time>2025-12-15T15:10:45Z</time>
      </trkpt>
      <trkpt lat="45.71518" lon="4.69261">
        <ele>317.8</ele>
        <time>2025-12-15T15:10:46Z</time>
      </trkpt>
      <trkpt lat="45.71514" lon="4.69268">
        <ele>317.8</ele>
        <time>2025-12-15T15:10:47Z</time>
      </trkpt>
      <trkpt lat="45.71511" lon="4.69274">
        <ele>318</ele>
        <time>2025-12-15T15:10:48Z</time>
      </trkpt>
      <trkpt lat="45.71508" lon="4.69281">
        <ele>318</ele>
        <time>2025-12-15T15:10:49Z</time>
      </trkpt>
      <trkpt lat="45.71504" lon="4.69288">
        <ele>318</ele>
        <time>2025-12-15T15:10:50Z</time>
      </trkpt>
      <trkpt lat="45.71501" lon="4.69295">
        <ele>318</ele>
        <time>2025-12-15T15:10:51Z</time>
      </trkpt>
      <trkpt lat="45.71498" lon="4.69302">
        <ele>318</ele>
        <time>2025-12-15T15:10:52Z</time>
      </trkpt>
      <trkpt lat="45.71495" lon="4.69307">
        <ele>317.8</ele>
        <time>2025-12-15T15:10:53Z</time>
      </trkpt>
      <trkpt lat="45.71492" lon="4.69312">
        <ele>317.8</ele>
        <time>2025-12-15T15:10:54Z</time>
      </trkpt>
      <trkpt lat="45.7149" lon="4.69315">
        <ele>317.8</ele>
        <time>2025-12-15T15:10:55Z</time>
      </trkpt>
      <trkpt lat="45.71489" lon="4.69316">
        <ele>318</ele>
        <time>2025-12-15T15:10:56Z</time>
      </trkpt>
      <trkpt lat="45.71488" lon="4.69317">
        <ele>318</ele>
        <time>2025-12-15T15:10:57Z</time>
      </trkpt>
      <trkpt lat="45.71486" lon="4.69319">
        <ele>318.2</ele>
        <time>2025-12-15T15:10:58Z</time>
      </trkpt>
      <trkpt lat="45.71484" lon="4.69322">
        <ele>318.2</ele>
        <time>2025-12-15T15:10:59Z</time>
      </trkpt>
      <trkpt lat="45.71482" lon="4.69327">
        <ele>318.2</ele>
        <time>2025-12-15T15:11:00Z</time>
      </trkpt>
      <trkpt lat="45.7148" lon="4.69332">
        <ele>318.2</ele>
        <time>2025-12-15T15:11:01Z</time>
      </trkpt>
      <trkpt lat="45.71478" lon="4.69337">
        <ele>318</ele>
        <time>2025-12-15T15:11:02Z</time>
      </trkpt>
      <trkpt lat="45.71475" lon="4.69342">
        <ele>317.8</ele>
        <time>2025-12-15T15:11:03Z</time>
      </trkpt>
      <trkpt lat="45.71472" lon="4.69347">
        <ele>317.6</ele>
        <time>2025-12-15T15:11:04Z</time>
      </trkpt>
      <trkpt lat="45.71468" lon="4.69352">
        <ele>317.4</ele>
        <time>2025-12-15T15:11:05Z</time>
      </trkpt>
      <trkpt lat="45.71464" lon="4.69357">
        <ele>317.4</ele>
        <time>2025-12-15T15:11:06Z</time>
      </trkpt>
      <trkpt lat="45.71461" lon="4.69362">
        <ele>317.4</ele>
        <time>2025-12-15T15:11:07Z</time>
      </trkpt>
      <trkpt lat="45.71458" lon="4.69367">
        <ele>317.4</ele>
        <time>2025-12-15T15:11:08Z</time>
      </trkpt>
      <trkpt lat="45.71455" lon="4.69372">
        <ele>317.6</ele>
        <time>2025-12-15T15:11:09Z</time>
      </trkpt>
      <trkpt lat="45.71452" lon="4.69377">
        <ele>317.8</ele>
        <time>2025-12-15T15:11:10Z</time>
      </trkpt>
      <trkpt lat="45.7145" lon="4.69382">
        <ele>317.8</ele>
        <time>2025-12-15T15:11:11Z</time>
      </trkpt>
      <trkpt lat="45.71447" lon="4.69386">
        <ele>317.8</ele>
        <time>2025-12-15T15:11:12Z</time>
      </trkpt>
      <trkpt lat="45.71444" lon="4.69391">
        <ele>317.6</ele>
        <time>2025-12-15T15:11:13Z</time>
      </trkpt>
      <trkpt lat="45.71441" lon="4.69396">
        <ele>317.4</ele>
        <time>2025-12-15T15:11:14Z</time>
      </trkpt>
      <trkpt lat="45.71438" lon="4.69401">
        <ele>317.2</ele>
        <time>2025-12-15T15:11:15Z</time>
      </trkpt>
      <trkpt lat="45.71434" lon="4.69407">
        <ele>316.8</ele>
        <time>2025-12-15T15:11:16Z</time>
      </trkpt>
      <trkpt lat="45.71431" lon="4.69412">
        <ele>316.4</ele>
        <time>2025-12-15T15:11:17Z</time>
      </trkpt>
      <trkpt lat="45.71427" lon="4.69418">
        <ele>316.2</ele>
        <time>2025-12-15T15:11:18Z</time>
      </trkpt>
      <trkpt lat="45.71424" lon="4.69423">
        <ele>315.8</ele>
        <time>2025-12-15T15:11:19Z</time>
      </trkpt>
      <trkpt lat="45.7142" lon="4.69429">
        <ele>315.8</ele>
        <time>2025-12-15T15:11:20Z</time>
      </trkpt>
      <trkpt lat="45.71416" lon="4.69435">
        <ele>315.6</ele>
        <time>2025-12-15T15:11:21Z</time>
      </trkpt>
      <trkpt lat="45.71413" lon="4.69441">
        <ele>315.6</ele>
        <time>2025-12-15T15:11:22Z</time>
      </trkpt>
      <trkpt lat="45.71409" lon="4.69448">
        <ele>315.6</ele>
        <time>2025-12-15T15:11:23Z</time>
      </trkpt>
      <trkpt lat="45.71406" lon="4.69454">
        <ele>315.6</ele>
        <time>2025-12-15T15:11:24Z</time>
      </trkpt>
      <trkpt lat="45.71404" lon="4.6946">
        <ele>315.6</ele>
        <time>2025-12-15T15:11:25Z</time>
      </trkpt>
      <trkpt lat="45.714" lon="4.69467">
        <ele>315.8</ele>
        <time>2025-12-15T15:11:26Z</time>
      </trkpt>
      <trkpt lat="45.71397" lon="4.69473">
        <ele>315.8</ele>
        <time>2025-12-15T15:11:27Z</time>
      </trkpt>
      <trkpt lat="45.71395" lon="4.6948">
        <ele>315.8</ele>
        <time>2025-12-15T15:11:28Z</time>
      </trkpt>
      <trkpt lat="45.71392" lon="4.69486">
        <ele>315.8</ele>
        <time>2025-12-15T15:11:29Z</time>
      </trkpt>
      <trkpt lat="45.71388" lon="4.69493">
        <ele>315.8</ele>
        <time>2025-12-15T15:11:30Z</time>
      </trkpt>
      <trkpt lat="45.71385" lon="4.69499">
        <ele>316</ele>
        <time>2025-12-15T15:11:31Z</time>
      </trkpt>
      <trkpt lat="45.71382" lon="4.69506">
        <ele>316</ele>
        <time>2025-12-15T15:11:32Z</time>
      </trkpt>
      <trkpt lat="45.71379" lon="4.69513">
        <ele>316</ele>
        <time>2025-12-15T15:11:33Z</time>
      </trkpt>
      <trkpt lat="45.71375" lon="4.6952">
        <ele>316</ele>
        <time>2025-12-15T15:11:34Z</time>
      </trkpt>
      <trkpt lat="45.71372" lon="4.69527">
        <ele>315.8</ele>
        <time>2025-12-15T15:11:35Z</time>
      </trkpt>
      <trkpt lat="45.71369" lon="4.69535">
        <ele>315.6</ele>
        <time>2025-12-15T15:11:36Z</time>
      </trkpt>
      <trkpt lat="45.71365" lon="4.69542">
        <ele>315.2</ele>
        <time>2025-12-15T15:11:37Z</time>
      </trkpt>
      <trkpt lat="45.71361" lon="4.69549">
        <ele>315</ele>
        <time>2025-12-15T15:11:38Z</time>
      </trkpt>
      <trkpt lat="45.71358" lon="4.69557">
        <ele>314.6</ele>
        <time>2025-12-15T15:11:39Z</time>
      </trkpt>
      <trkpt lat="45.71354" lon="4.69564">
        <ele>314.2</ele>
        <time>2025-12-15T15:11:40Z</time>
      </trkpt>
      <trkpt lat="45.71351" lon="4.69571">
        <ele>314.2</ele>
        <time>2025-12-15T15:11:41Z</time>
      </trkpt>
      <trkpt lat="45.71347" lon="4.69578">
        <ele>314</ele>
        <time>2025-12-15T15:11:42Z</time>
      </trkpt>
      <trkpt lat="45.71344" lon="4.69585">
        <ele>313.8</ele>
        <time>2025-12-15T15:11:43Z</time>
      </trkpt>
      <trkpt lat="45.71341" lon="4.69592">
        <ele>313.6</ele>
        <time>2025-12-15T15:11:44Z</time>
      </trkpt>
      <trkpt lat="45.71337" lon="4.69599">
        <ele>313.6</ele>
        <time>2025-12-15T15:11:45Z</time>
      </trkpt>
      <trkpt lat="45.71334" lon="4.69605">
        <ele>313.4</ele>
        <time>2025-12-15T15:11:46Z</time>
      </trkpt>
      <trkpt lat="45.71331" lon="4.69612">
        <ele>313.4</ele>
        <time>2025-12-15T15:11:47Z</time>
      </trkpt>
      <trkpt lat="45.71328" lon="4.69618">
        <ele>313.4</ele>
        <time>2025-12-15T15:11:48Z</time>
      </trkpt>
      <trkpt lat="45.71325" lon="4.69624">
        <ele>313.4</ele>
        <time>2025-12-15T15:11:49Z</time>
      </trkpt>
      <trkpt lat="45.71322" lon="4.69631">
        <ele>313.6</ele>
        <time>2025-12-15T15:11:50Z</time>
      </trkpt>
      <trkpt lat="45.71319" lon="4.69637">
        <ele>313.8</ele>
        <time>2025-12-15T15:11:51Z</time>
      </trkpt>
      <trkpt lat="45.71316" lon="4.69644">
        <ele>314.2</ele>
        <time>2025-12-15T15:11:52Z</time>
      </trkpt>
      <trkpt lat="45.71313" lon="4.6965">
        <ele>314.4</ele>
        <time>2025-12-15T15:11:53Z</time>
      </trkpt>
      <trkpt lat="45.7131" lon="4.69657">
        <ele>314.6</ele>
        <time>2025-12-15T15:11:54Z</time>
      </trkpt>
      <trkpt lat="45.71307" lon="4.69663">
        <ele>314.6</ele>
        <time>2025-12-15T15:11:55Z</time>
      </trkpt>
      <trkpt lat="45.71303" lon="4.6967">
        <ele>314.6</ele>
        <time>2025-12-15T15:11:56Z</time>
      </trkpt>
      <trkpt lat="45.713" lon="4.69677">
        <ele>314.4</ele>
        <time>2025-12-15T15:11:57Z</time>
      </trkpt>
      <trkpt lat="45.71297" lon="4.69684">
        <ele>314</ele>
        <time>2025-12-15T15:11:58Z</time>
      </trkpt>
      <trkpt lat="45.71294" lon="4.6969">
        <ele>314</ele>
        <time>2025-12-15T15:11:59Z</time>
      </trkpt>
      <trkpt lat="45.71291" lon="4.69697">
        <ele>313.8</ele>
        <time>2025-12-15T15:12:00Z</time>
      </trkpt>
      <trkpt lat="45.71287" lon="4.69704">
        <ele>313.8</ele>
        <time>2025-12-15T15:12:01Z</time>
      </trkpt>
      <trkpt lat="45.71283" lon="4.69711">
        <ele>313.8</ele>
        <time>2025-12-15T15:12:02Z</time>
      </trkpt>
      <trkpt lat="45.7128" lon="4.69718">
        <ele>313.8</ele>
        <time>2025-12-15T15:12:03Z</time>
      </trkpt>
      <trkpt lat="45.71276" lon="4.69725">
        <ele>313.8</ele>
        <time>2025-12-15T15:12:04Z</time>
      </trkpt>
      <trkpt lat="45.71273" lon="4.69732">
        <ele>313.8</ele>
        <time>2025-12-15T15:12:05Z</time>
      </trkpt>
      <trkpt lat="45.71269" lon="4.69739">
        <ele>313.8</ele>
        <time>2025-12-15T15:12:06Z</time>
      </trkpt>
      <trkpt lat="45.71266" lon="4.69746">
        <ele>313.8</ele>
        <time>2025-12-15T15:12:07Z</time>
      </trkpt>
      <trkpt lat="45.71262" lon="4.69753">
        <ele>313.8</ele>
        <time>2025-12-15T15:12:08Z</time>
      </trkpt>
      <trkpt lat="45.71259" lon="4.6976">
        <ele>313.6</ele>
        <time>2025-12-15T15:12:09Z</time>
      </trkpt>
      <trkpt lat="45.71256" lon="4.69767">
        <ele>313.4</ele>
        <time>2025-12-15T15:12:10Z</time>
      </trkpt>
      <trkpt lat="45.71253" lon="4.69774">
        <ele>313.4</ele>
        <time>2025-12-15T15:12:11Z</time>
      </trkpt>
      <trkpt lat="45.7125" lon="4.69781">
        <ele>313.2</ele>
        <time>2025-12-15T15:12:12Z</time>
      </trkpt>
      <trkpt lat="45.71246" lon="4.69788">
        <ele>313.2</ele>
        <time>2025-12-15T15:12:13Z</time>
      </trkpt>
      <trkpt lat="45.71243" lon="4.69795">
        <ele>312.8</ele>
        <time>2025-12-15T15:12:14Z</time>
      </trkpt>
      <trkpt lat="45.7124" lon="4.69801">
        <ele>312.6</ele>
        <time>2025-12-15T15:12:15Z</time>
      </trkpt>
      <trkpt lat="45.71237" lon="4.69808">
        <ele>312.4</ele>
        <time>2025-12-15T15:12:16Z</time>
      </trkpt>
      <trkpt lat="45.71234" lon="4.69815">
        <ele>312.2</ele>
        <time>2025-12-15T15:12:17Z</time>
      </trkpt>
      <trkpt lat="45.71231" lon="4.69822">
        <ele>312</ele>
        <time>2025-12-15T15:12:18Z</time>
      </trkpt>
      <trkpt lat="45.71228" lon="4.69828">
        <ele>311.8</ele>
        <time>2025-12-15T15:12:19Z</time>
      </trkpt>
      <trkpt lat="45.71225" lon="4.69835">
        <ele>311.8</ele>
        <time>2025-12-15T15:12:20Z</time>
      </trkpt>
      <trkpt lat="45.71221" lon="4.69842">
        <ele>312</ele>
        <time>2025-12-15T15:12:21Z</time>
      </trkpt>
      <trkpt lat="45.71218" lon="4.69849">
        <ele>312.2</ele>
        <time>2025-12-15T15:12:22Z</time>
      </trkpt>
      <trkpt lat="45.71215" lon="4.69856">
        <ele>312.4</ele>
        <time>2025-12-15T15:12:23Z</time>
      </trkpt>
      <trkpt lat="45.71212" lon="4.69862">
        <ele>312.6</ele>
        <time>2025-12-15T15:12:24Z</time>
      </trkpt>
      <trkpt lat="45.71208" lon="4.69869">
        <ele>312.6</ele>
        <time>2025-12-15T15:12:25Z</time>
      </trkpt>
      <trkpt lat="45.71205" lon="4.69875">
        <ele>312.6</ele>
        <time>2025-12-15T15:12:26Z</time>
      </trkpt>
      <trkpt lat="45.71201" lon="4.69882">
        <ele>312.6</ele>
        <time>2025-12-15T15:12:27Z</time>
      </trkpt>
      <trkpt lat="45.71197" lon="4.69888">
        <ele>312.4</ele>
        <time>2025-12-15T15:12:28Z</time>
      </trkpt>
      <trkpt lat="45.71192" lon="4.69895">
        <ele>312.4</ele>
        <time>2025-12-15T15:12:29Z</time>
      </trkpt>
      <trkpt lat="45.71188" lon="4.69901">
        <ele>312.2</ele>
        <time>2025-12-15T15:12:30Z</time>
      </trkpt>
      <trkpt lat="45.71185" lon="4.69907">
        <ele>312.2</ele>
        <time>2025-12-15T15:12:31Z</time>
      </trkpt>
      <trkpt lat="45.71181" lon="4.69913">
        <ele>312.2</ele>
        <time>2025-12-15T15:12:32Z</time>
      </trkpt>
      <trkpt lat="45.71177" lon="4.6992">
        <ele>312</ele>
        <time>2025-12-15T15:12:33Z</time>
      </trkpt>
      <trkpt lat="45.71173" lon="4.69926">
        <ele>312</ele>
        <time>2025-12-15T15:12:34Z</time>
      </trkpt>
      <trkpt lat="45.71169" lon="4.69932">
        <ele>311.8</ele>
        <time>2025-12-15T15:12:35Z</time>
      </trkpt>
      <trkpt lat="45.71165" lon="4.69938">
        <ele>311.6</ele>
        <time>2025-12-15T15:12:36Z</time>
      </trkpt>
      <trkpt lat="45.7116" lon="4.69944">
        <ele>311.4</ele>
        <time>2025-12-15T15:12:37Z</time>
      </trkpt>
      <trkpt lat="45.71156" lon="4.6995">
        <ele>311.2</ele>
        <time>2025-12-15T15:12:38Z</time>
      </trkpt>
      <trkpt lat="45.71152" lon="4.69956">
        <ele>311.2</ele>
        <time>2025-12-15T15:12:39Z</time>
      </trkpt>
      <trkpt lat="45.71148" lon="4.69962">
        <ele>311</ele>
        <time>2025-12-15T15:12:40Z</time>
      </trkpt>
      <trkpt lat="45.71144" lon="4.69968">
        <ele>311</ele>
        <time>2025-12-15T15:12:41Z</time>
      </trkpt>
      <trkpt lat="45.7114" lon="4.69974">
        <ele>311</ele>
        <time>2025-12-15T15:12:42Z</time>
      </trkpt>
      <trkpt lat="45.71136" lon="4.6998">
        <ele>311</ele>
        <time>2025-12-15T15:12:43Z</time>
      </trkpt>
      <trkpt lat="45.71132" lon="4.69986">
        <ele>311</ele>
        <time>2025-12-15T15:12:44Z</time>
      </trkpt>
      <trkpt lat="45.71129" lon="4.69992">
        <ele>310.8</ele>
        <time>2025-12-15T15:12:45Z</time>
      </trkpt>
      <trkpt lat="45.71124" lon="4.69998">
        <ele>310.8</ele>
        <time>2025-12-15T15:12:46Z</time>
      </trkpt>
      <trkpt lat="45.7112" lon="4.70004">
        <ele>310.6</ele>
        <time>2025-12-15T15:12:47Z</time>
      </trkpt>
      <trkpt lat="45.71116" lon="4.7001">
        <ele>310.4</ele>
        <time>2025-12-15T15:12:48Z</time>
      </trkpt>
      <trkpt lat="45.71112" lon="4.70016">
        <ele>310.2</ele>
        <time>2025-12-15T15:12:49Z</time>
      </trkpt>
      <trkpt lat="45.71109" lon="4.70023">
        <ele>310</ele>
        <time>2025-12-15T15:12:50Z</time>
      </trkpt>
      <trkpt lat="45.71105" lon="4.70029">
        <ele>310</ele>
        <time>2025-12-15T15:12:51Z</time>
      </trkpt>
      <trkpt lat="45.71101" lon="4.70035">
        <ele>310</ele>
        <time>2025-12-15T15:12:52Z</time>
      </trkpt>
      <trkpt lat="45.71097" lon="4.70041">
        <ele>310</ele>
        <time>2025-12-15T15:12:53Z</time>
      </trkpt>
      <trkpt lat="45.71093" lon="4.70047">
        <ele>310</ele>
        <time>2025-12-15T15:12:54Z</time>
      </trkpt>
      <trkpt lat="45.71089" lon="4.70053">
        <ele>310</ele>
        <time>2025-12-15T15:12:55Z</time>
      </trkpt>
      <trkpt lat="45.71086" lon="4.7006">
        <ele>310</ele>
        <time>2025-12-15T15:12:56Z</time>
      </trkpt>
      <trkpt lat="45.71082" lon="4.70066">
        <ele>310</ele>
        <time>2025-12-15T15:12:57Z</time>
      </trkpt>
      <trkpt lat="45.71078" lon="4.70072">
        <ele>310.2</ele>
        <time>2025-12-15T15:12:58Z</time>
      </trkpt>
      <trkpt lat="45.71075" lon="4.70078">
        <ele>310.4</ele>
        <time>2025-12-15T15:12:59Z</time>
      </trkpt>
      <trkpt lat="45.71071" lon="4.70084">
        <ele>310.6</ele>
        <time>2025-12-15T15:13:00Z</time>
      </trkpt>
      <trkpt lat="45.71068" lon="4.7009">
        <ele>310.8</ele>
        <time>2025-12-15T15:13:01Z</time>
      </trkpt>
      <trkpt lat="45.71065" lon="4.70097">
        <ele>311</ele>
        <time>2025-12-15T15:13:02Z</time>
      </trkpt>
      <trkpt lat="45.71061" lon="4.70103">
        <ele>311.2</ele>
        <time>2025-12-15T15:13:03Z</time>
      </trkpt>
      <trkpt lat="45.71057" lon="4.7011">
        <ele>311.4</ele>
        <time>2025-12-15T15:13:04Z</time>
      </trkpt>
      <trkpt lat="45.71054" lon="4.70116">
        <ele>311.6</ele>
        <time>2025-12-15T15:13:05Z</time>
      </trkpt>
      <trkpt lat="45.71051" lon="4.70123">
        <ele>311.6</ele>
        <time>2025-12-15T15:13:06Z</time>
      </trkpt>
      <trkpt lat="45.71048" lon="4.7013">
        <ele>311.8</ele>
        <time>2025-12-15T15:13:07Z</time>
      </trkpt>
      <trkpt lat="45.71044" lon="4.70136">
        <ele>311.8</ele>
        <time>2025-12-15T15:13:08Z</time>
      </trkpt>
      <trkpt lat="45.71041" lon="4.70142">
        <ele>311.8</ele>
        <time>2025-12-15T15:13:09Z</time>
      </trkpt>
      <trkpt lat="45.71038" lon="4.70149">
        <ele>311.8</ele>
        <time>2025-12-15T15:13:10Z</time>
      </trkpt>
      <trkpt lat="45.71035" lon="4.70155">
        <ele>311.8</ele>
        <time>2025-12-15T15:13:11Z</time>
      </trkpt>
      <trkpt lat="45.71032" lon="4.70162">
        <ele>311.8</ele>
        <time>2025-12-15T15:13:12Z</time>
      </trkpt>
      <trkpt lat="45.71029" lon="4.70168">
        <ele>311.8</ele>
        <time>2025-12-15T15:13:13Z</time>
      </trkpt>
      <trkpt lat="45.71026" lon="4.70175">
        <ele>311.8</ele>
        <time>2025-12-15T15:13:14Z</time>
      </trkpt>
      <trkpt lat="45.71023" lon="4.70181">
        <ele>311.8</ele>
        <time>2025-12-15T15:13:15Z</time>
      </trkpt>
      <trkpt lat="45.7102" lon="4.70187">
        <ele>312</ele>
        <time>2025-12-15T15:13:16Z</time>
      </trkpt>
      <trkpt lat="45.71017" lon="4.70193">
        <ele>312.2</ele>
        <time>2025-12-15T15:13:17Z</time>
      </trkpt>
      <trkpt lat="45.71014" lon="4.70199">
        <ele>312.2</ele>
        <time>2025-12-15T15:13:18Z</time>
      </trkpt>
      <trkpt lat="45.71011" lon="4.70205">
        <ele>312.2</ele>
        <time>2025-12-15T15:13:19Z</time>
      </trkpt>
      <trkpt lat="45.71008" lon="4.70212">
        <ele>312.2</ele>
        <time>2025-12-15T15:13:20Z</time>
      </trkpt>
      <trkpt lat="45.71005" lon="4.70218">
        <ele>312.2</ele>
        <time>2025-12-15T15:13:21Z</time>
      </trkpt>
      <trkpt lat="45.71003" lon="4.70224">
        <ele>312.2</ele>
        <time>2025-12-15T15:13:22Z</time>
      </trkpt>
      <trkpt lat="45.70999" lon="4.70231">
        <ele>312</ele>
        <time>2025-12-15T15:13:23Z</time>
      </trkpt>
      <trkpt lat="45.70996" lon="4.70237">
        <ele>312.2</ele>
        <time>2025-12-15T15:13:24Z</time>
      </trkpt>
      <trkpt lat="45.70994" lon="4.70243">
        <ele>312.2</ele>
        <time>2025-12-15T15:13:25Z</time>
      </trkpt>
      <trkpt lat="45.70991" lon="4.70249">
        <ele>312.2</ele>
        <time>2025-12-15T15:13:26Z</time>
      </trkpt>
      <trkpt lat="45.70988" lon="4.70256">
        <ele>312.2</ele>
        <time>2025-12-15T15:13:27Z</time>
      </trkpt>
      <trkpt lat="45.70986" lon="4.70262">
        <ele>312.2</ele>
        <time>2025-12-15T15:13:28Z</time>
      </trkpt>
      <trkpt lat="45.70983" lon="4.70267">
        <ele>312.2</ele>
        <time>2025-12-15T15:13:29Z</time>
      </trkpt>
      <trkpt lat="45.7098" lon="4.70273">
        <ele>312.2</ele>
        <time>2025-12-15T15:13:30Z</time>
      </trkpt>
      <trkpt lat="45.70977" lon="4.70279">
        <ele>312.2</ele>
        <time>2025-12-15T15:13:31Z</time>
      </trkpt>
      <trkpt lat="45.70975" lon="4.70284">
        <ele>312</ele>
        <time>2025-12-15T15:13:32Z</time>
      </trkpt>
      <trkpt lat="45.70972" lon="4.7029">
        <ele>312</ele>
        <time>2025-12-15T15:13:33Z</time>
      </trkpt>
      <trkpt lat="45.70969" lon="4.70296">
        <ele>311.8</ele>
        <time>2025-12-15T15:13:34Z</time>
      </trkpt>
      <trkpt lat="45.70967" lon="4.70302">
        <ele>311.8</ele>
        <time>2025-12-15T15:13:35Z</time>
      </trkpt>
      <trkpt lat="45.70964" lon="4.70307">
        <ele>311.8</ele>
        <time>2025-12-15T15:13:36Z</time>
      </trkpt>
      <trkpt lat="45.70961" lon="4.70313">
        <ele>311.8</ele>
        <time>2025-12-15T15:13:37Z</time>
      </trkpt>
      <trkpt lat="45.70958" lon="4.70319">
        <ele>311.8</ele>
        <time>2025-12-15T15:13:38Z</time>
      </trkpt>
      <trkpt lat="45.70956" lon="4.70325">
        <ele>312</ele>
        <time>2025-12-15T15:13:39Z</time>
      </trkpt>
      <trkpt lat="45.70953" lon="4.70331">
        <ele>312.2</ele>
        <time>2025-12-15T15:13:40Z</time>
      </trkpt>
      <trkpt lat="45.7095" lon="4.70336">
        <ele>312.2</ele>
        <time>2025-12-15T15:13:41Z</time>
      </trkpt>
      <trkpt lat="45.70948" lon="4.70341">
        <ele>312.2</ele>
        <time>2025-12-15T15:13:42Z</time>
      </trkpt>
      <trkpt lat="45.70945" lon="4.70346">
        <ele>312.2</ele>
        <time>2025-12-15T15:13:43Z</time>
      </trkpt>
      <trkpt lat="45.70943" lon="4.70351">
        <ele>312.2</ele>
        <time>2025-12-15T15:13:44Z</time>
      </trkpt>
      <trkpt lat="45.7094" lon="4.70356">
        <ele>312.2</ele>
        <time>2025-12-15T15:13:45Z</time>
      </trkpt>
      <trkpt lat="45.70938" lon="4.70362">
        <ele>312.2</ele>
        <time>2025-12-15T15:13:46Z</time>
      </trkpt>
      <trkpt lat="45.70936" lon="4.70367">
        <ele>312.4</ele>
        <time>2025-12-15T15:13:47Z</time>
      </trkpt>
      <trkpt lat="45.70933" lon="4.70372">
        <ele>312.4</ele>
        <time>2025-12-15T15:13:48Z</time>
      </trkpt>
      <trkpt lat="45.70931" lon="4.70377">
        <ele>312.4</ele>
        <time>2025-12-15T15:13:49Z</time>
      </trkpt>
      <trkpt lat="45.70928" lon="4.70381">
        <ele>312.6</ele>
        <time>2025-12-15T15:13:50Z</time>
      </trkpt>
      <trkpt lat="45.70925" lon="4.70384">
        <ele>312.8</ele>
        <time>2025-12-15T15:13:51Z</time>
      </trkpt>
      <trkpt lat="45.70923" lon="4.70386">
        <ele>313</ele>
        <time>2025-12-15T15:13:52Z</time>
      </trkpt>
      <trkpt lat="45.70921" lon="4.70387">
        <ele>313.4</ele>
        <time>2025-12-15T15:13:53Z</time>
      </trkpt>
      <trkpt lat="45.70919" lon="4.70389">
        <ele>313.8</ele>
        <time>2025-12-15T15:13:54Z</time>
      </trkpt>
      <trkpt lat="45.70917" lon="4.70391">
        <ele>314.2</ele>
        <time>2025-12-15T15:13:55Z</time>
      </trkpt>
      <trkpt lat="45.70917" lon="4.70396">
        <ele>314.6</ele>
        <time>2025-12-15T15:13:56Z</time>
      </trkpt>
      <trkpt lat="45.70917" lon="4.70401">
        <ele>314.8</ele>
        <time>2025-12-15T15:13:57Z</time>
      </trkpt>
      <trkpt lat="45.70918" lon="4.70407">
        <ele>314.8</ele>
        <time>2025-12-15T15:13:58Z</time>
      </trkpt>
      <trkpt lat="45.70919" lon="4.70413">
        <ele>314.8</ele>
        <time>2025-12-15T15:13:59Z</time>
      </trkpt>
      <trkpt lat="45.70919" lon="4.70419">
        <ele>314.6</ele>
        <time>2025-12-15T15:14:00Z</time>
      </trkpt>
      <trkpt lat="45.70918" lon="4.70424">
        <ele>314.8</ele>
        <time>2025-12-15T15:14:01Z</time>
      </trkpt>
      <trkpt lat="45.70915" lon="4.70429">
        <ele>315</ele>
        <time>2025-12-15T15:14:02Z</time>
      </trkpt>
      <trkpt lat="45.70913" lon="4.70434">
        <ele>315.2</ele>
        <time>2025-12-15T15:14:03Z</time>
      </trkpt>
      <trkpt lat="45.7091" lon="4.70439">
        <ele>315.6</ele>
        <time>2025-12-15T15:14:04Z</time>
      </trkpt>
      <trkpt lat="45.70907" lon="4.70443">
        <ele>315.8</ele>
        <time>2025-12-15T15:14:05Z</time>
      </trkpt>
      <trkpt lat="45.70904" lon="4.70448">
        <ele>316</ele>
        <time>2025-12-15T15:14:06Z</time>
      </trkpt>
      <trkpt lat="45.70901" lon="4.70452">
        <ele>316.2</ele>
        <time>2025-12-15T15:14:07Z</time>
      </trkpt>
      <trkpt lat="45.70898" lon="4.70457">
        <ele>316.2</ele>
        <time>2025-12-15T15:14:08Z</time>
      </trkpt>
      <trkpt lat="45.70895" lon="4.70461">
        <ele>316.2</ele>
        <time>2025-12-15T15:14:09Z</time>
      </trkpt>
      <trkpt lat="45.70892" lon="4.70465">
        <ele>316.2</ele>
        <time>2025-12-15T15:14:10Z</time>
      </trkpt>
      <trkpt lat="45.70888" lon="4.70468">
        <ele>316.4</ele>
        <time>2025-12-15T15:14:11Z</time>
      </trkpt>
      <trkpt lat="45.70884" lon="4.7047">
        <ele>316.4</ele>
        <time>2025-12-15T15:14:12Z</time>
      </trkpt>
      <trkpt lat="45.70879" lon="4.7047">
        <ele>316.4</ele>
        <time>2025-12-15T15:14:13Z</time>
      </trkpt>
      <trkpt lat="45.70875" lon="4.70468">
        <ele>316.4</ele>
        <time>2025-12-15T15:14:14Z</time>
      </trkpt>
      <trkpt lat="45.70871" lon="4.70464">
        <ele>316.4</ele>
        <time>2025-12-15T15:14:15Z</time>
      </trkpt>
      <trkpt lat="45.70867" lon="4.7046">
        <ele>316.4</ele>
        <time>2025-12-15T15:14:16Z</time>
      </trkpt>
      <trkpt lat="45.70863" lon="4.70456">
        <ele>316.4</ele>
        <time>2025-12-15T15:14:17Z</time>
      </trkpt>
      <trkpt lat="45.70859" lon="4.70452">
        <ele>316.4</ele>
        <time>2025-12-15T15:14:18Z</time>
      </trkpt>
      <trkpt lat="45.70855" lon="4.70448">
        <ele>316.4</ele>
        <time>2025-12-15T15:14:19Z</time>
      </trkpt>
      <trkpt lat="45.70851" lon="4.70444">
        <ele>316.4</ele>
        <time>2025-12-15T15:14:20Z</time>
      </trkpt>
      <trkpt lat="45.70847" lon="4.7044">
        <ele>316.6</ele>
        <time>2025-12-15T15:14:21Z</time>
      </trkpt>
      <trkpt lat="45.70844" lon="4.70436">
        <ele>316.6</ele>
        <time>2025-12-15T15:14:22Z</time>
      </trkpt>
      <trkpt lat="45.7084" lon="4.70432">
        <ele>316.6</ele>
        <time>2025-12-15T15:14:23Z</time>
      </trkpt>
      <trkpt lat="45.70837" lon="4.70428">
        <ele>316.4</ele>
        <time>2025-12-15T15:14:24Z</time>
      </trkpt>
      <trkpt lat="45.70833" lon="4.70424">
        <ele>316.2</ele>
        <time>2025-12-15T15:14:25Z</time>
      </trkpt>
      <trkpt lat="45.7083" lon="4.7042">
        <ele>316</ele>
        <time>2025-12-15T15:14:26Z</time>
      </trkpt>
      <trkpt lat="45.70826" lon="4.70417">
        <ele>316</ele>
        <time>2025-12-15T15:14:27Z</time>
      </trkpt>
      <trkpt lat="45.70822" lon="4.70414">
        <ele>316</ele>
        <time>2025-12-15T15:14:28Z</time>
      </trkpt>
      <trkpt lat="45.70817" lon="4.70413">
        <ele>316</ele>
        <time>2025-12-15T15:14:29Z</time>
      </trkpt>
      <trkpt lat="45.70813" lon="4.70415">
        <ele>316</ele>
        <time>2025-12-15T15:14:30Z</time>
      </trkpt>
      <trkpt lat="45.7081" lon="4.70419">
        <ele>316</ele>
        <time>2025-12-15T15:14:31Z</time>
      </trkpt>
      <trkpt lat="45.70808" lon="4.70425">
        <ele>316.2</ele>
        <time>2025-12-15T15:14:32Z</time>
      </trkpt>
      <trkpt lat="45.70807" lon="4.70431">
        <ele>316.4</ele>
        <time>2025-12-15T15:14:33Z</time>
      </trkpt>
      <trkpt lat="45.70806" lon="4.70436">
        <ele>316.6</ele>
        <time>2025-12-15T15:14:34Z</time>
      </trkpt>
      <trkpt lat="45.70805" lon="4.70441">
        <ele>317</ele>
        <time>2025-12-15T15:14:35Z</time>
      </trkpt>
      <trkpt lat="45.70805" lon="4.70446">
        <ele>317.2</ele>
        <time>2025-12-15T15:14:36Z</time>
      </trkpt>
      <trkpt lat="45.70804" lon="4.70451">
        <ele>317.4</ele>
        <time>2025-12-15T15:14:37Z</time>
      </trkpt>
      <trkpt lat="45.70803" lon="4.70455">
        <ele>317.6</ele>
        <time>2025-12-15T15:14:38Z</time>
      </trkpt>
      <trkpt lat="45.70802" lon="4.7046">
        <ele>317.8</ele>
        <time>2025-12-15T15:14:39Z</time>
      </trkpt>
      <trkpt lat="45.70802" lon="4.70464">
        <ele>317.8</ele>
        <time>2025-12-15T15:14:40Z</time>
      </trkpt>
      <trkpt lat="45.70801" lon="4.70468">
        <ele>317.8</ele>
        <time>2025-12-15T15:14:41Z</time>
      </trkpt>
      <trkpt lat="45.708" lon="4.70473">
        <ele>318</ele>
        <time>2025-12-15T15:14:42Z</time>
      </trkpt>
      <trkpt lat="45.70799" lon="4.70479">
        <ele>318</ele>
        <time>2025-12-15T15:14:43Z</time>
      </trkpt>
      <trkpt lat="45.70798" lon="4.70484">
        <ele>318</ele>
        <time>2025-12-15T15:14:44Z</time>
      </trkpt>
      <trkpt lat="45.70797" lon="4.7049">
        <ele>318</ele>
        <time>2025-12-15T15:14:45Z</time>
      </trkpt>
      <trkpt lat="45.70795" lon="4.70496">
        <ele>318.2</ele>
        <time>2025-12-15T15:14:46Z</time>
      </trkpt>
      <trkpt lat="45.70794" lon="4.70501">
        <ele>318.2</ele>
        <time>2025-12-15T15:14:47Z</time>
      </trkpt>
      <trkpt lat="45.70793" lon="4.70506">
        <ele>318.2</ele>
        <time>2025-12-15T15:14:48Z</time>
      </trkpt>
      <trkpt lat="45.70791" lon="4.70512">
        <ele>318.2</ele>
        <time>2025-12-15T15:14:49Z</time>
      </trkpt>
      <trkpt lat="45.7079" lon="4.70518">
        <ele>318.2</ele>
        <time>2025-12-15T15:14:50Z</time>
      </trkpt>
      <trkpt lat="45.70788" lon="4.70524">
        <ele>318</ele>
        <time>2025-12-15T15:14:51Z</time>
      </trkpt>
      <trkpt lat="45.70787" lon="4.7053">
        <ele>318</ele>
        <time>2025-12-15T15:14:52Z</time>
      </trkpt>
      <trkpt lat="45.70785" lon="4.70536">
        <ele>318</ele>
        <time>2025-12-15T15:14:53Z</time>
      </trkpt>
      <trkpt lat="45.70783" lon="4.70542">
        <ele>317.8</ele>
        <time>2025-12-15T15:14:54Z</time>
      </trkpt>
      <trkpt lat="45.70781" lon="4.70548">
        <ele>317.8</ele>
        <time>2025-12-15T15:14:55Z</time>
      </trkpt>
      <trkpt lat="45.70779" lon="4.70554">
        <ele>317.6</ele>
        <time>2025-12-15T15:14:56Z</time>
      </trkpt>
      <trkpt lat="45.70776" lon="4.7056">
        <ele>317.4</ele>
        <time>2025-12-15T15:14:57Z</time>
      </trkpt>
      <trkpt lat="45.70774" lon="4.70566">
        <ele>317.2</ele>
        <time>2025-12-15T15:14:58Z</time>
      </trkpt>
      <trkpt lat="45.70771" lon="4.70572">
        <ele>317</ele>
        <time>2025-12-15T15:14:59Z</time>
      </trkpt>
      <trkpt lat="45.70768" lon="4.70578">
        <ele>316.8</ele>
        <time>2025-12-15T15:15:00Z</time>
      </trkpt>
      <trkpt lat="45.70765" lon="4.70584">
        <ele>316.6</ele>
        <time>2025-12-15T15:15:01Z</time>
      </trkpt>
      <trkpt lat="45.70762" lon="4.7059">
        <ele>316.4</ele>
        <time>2025-12-15T15:15:02Z</time>
      </trkpt>
      <trkpt lat="45.70759" lon="4.70596">
        <ele>316.2</ele>
        <time>2025-12-15T15:15:03Z</time>
      </trkpt>
      <trkpt lat="45.70756" lon="4.70602">
        <ele>316.2</ele>
        <time>2025-12-15T15:15:04Z</time>
      </trkpt>
      <trkpt lat="45.70753" lon="4.70608">
        <ele>316</ele>
        <time>2025-12-15T15:15:05Z</time>
      </trkpt>
      <trkpt lat="45.70749" lon="4.70613">
        <ele>315.8</ele>
        <time>2025-12-15T15:15:06Z</time>
      </trkpt>
      <trkpt lat="45.70746" lon="4.70619">
        <ele>315.6</ele>
        <time>2025-12-15T15:15:07Z</time>
      </trkpt>
      <trkpt lat="45.70743" lon="4.70624">
        <ele>315.4</ele>
        <time>2025-12-15T15:15:08Z</time>
      </trkpt>
      <trkpt lat="45.70739" lon="4.7063">
        <ele>315.2</ele>
        <time>2025-12-15T15:15:09Z</time>
      </trkpt>
      <trkpt lat="45.70735" lon="4.70636">
        <ele>315</ele>
        <time>2025-12-15T15:15:10Z</time>
      </trkpt>
      <trkpt lat="45.70731" lon="4.70642">
        <ele>314.8</ele>
        <time>2025-12-15T15:15:11Z</time>
      </trkpt>
      <trkpt lat="45.70728" lon="4.70648">
        <ele>314.6</ele>
        <time>2025-12-15T15:15:12Z</time>
      </trkpt>
      <trkpt lat="45.70724" lon="4.70655">
        <ele>314.4</ele>
        <time>2025-12-15T15:15:13Z</time>
      </trkpt>
      <trkpt lat="45.70721" lon="4.70662">
        <ele>314.2</ele>
        <time>2025-12-15T15:15:14Z</time>
      </trkpt>
      <trkpt lat="45.70718" lon="4.70669">
        <ele>314</ele>
        <time>2025-12-15T15:15:15Z</time>
      </trkpt>
      <trkpt lat="45.70714" lon="4.70678">
        <ele>313.6</ele>
        <time>2025-12-15T15:15:16Z</time>
      </trkpt>
      <trkpt lat="45.70709" lon="4.70686">
        <ele>313.2</ele>
        <time>2025-12-15T15:15:17Z</time>
      </trkpt>
      <trkpt lat="45.70704" lon="4.70693">
        <ele>312.4</ele>
        <time>2025-12-15T15:15:18Z</time>
      </trkpt>
      <trkpt lat="45.70699" lon="4.70701">
        <ele>311.6</ele>
        <time>2025-12-15T15:15:19Z</time>
      </trkpt>
      <trkpt lat="45.70693" lon="4.70708">
        <ele>310.8</ele>
        <time>2025-12-15T15:15:20Z</time>
      </trkpt>
      <trkpt lat="45.70688" lon="4.70715">
        <ele>310.2</ele>
        <time>2025-12-15T15:15:21Z</time>
      </trkpt>
      <trkpt lat="45.70683" lon="4.70722">
        <ele>309.8</ele>
        <time>2025-12-15T15:15:22Z</time>
      </trkpt>
      <trkpt lat="45.70677" lon="4.70729">
        <ele>309.4</ele>
        <time>2025-12-15T15:15:23Z</time>
      </trkpt>
      <trkpt lat="45.70672" lon="4.70735">
        <ele>309.4</ele>
        <time>2025-12-15T15:15:24Z</time>
      </trkpt>
      <trkpt lat="45.70667" lon="4.70741">
        <ele>309.4</ele>
        <time>2025-12-15T15:15:25Z</time>
      </trkpt>
      <trkpt lat="45.70662" lon="4.70747">
        <ele>309.2</ele>
        <time>2025-12-15T15:15:26Z</time>
      </trkpt>
      <trkpt lat="45.70656" lon="4.70754">
        <ele>309.2</ele>
        <time>2025-12-15T15:15:27Z</time>
      </trkpt>
      <trkpt lat="45.70651" lon="4.7076">
        <ele>309</ele>
        <time>2025-12-15T15:15:28Z</time>
      </trkpt>
      <trkpt lat="45.70646" lon="4.70768">
        <ele>308.8</ele>
        <time>2025-12-15T15:15:29Z</time>
      </trkpt>
      <trkpt lat="45.70642" lon="4.70775">
        <ele>308.4</ele>
        <time>2025-12-15T15:15:30Z</time>
      </trkpt>
      <trkpt lat="45.70638" lon="4.70782">
        <ele>308</ele>
        <time>2025-12-15T15:15:31Z</time>
      </trkpt>
      <trkpt lat="45.70634" lon="4.70789">
        <ele>307.4</ele>
        <time>2025-12-15T15:15:32Z</time>
      </trkpt>
      <trkpt lat="45.70629" lon="4.70795">
        <ele>307</ele>
        <time>2025-12-15T15:15:33Z</time>
      </trkpt>
      <trkpt lat="45.70625" lon="4.70801">
        <ele>306.6</ele>
        <time>2025-12-15T15:15:34Z</time>
      </trkpt>
      <trkpt lat="45.70621" lon="4.70808">
        <ele>306.4</ele>
        <time>2025-12-15T15:15:35Z</time>
      </trkpt>
      <trkpt lat="45.70616" lon="4.70814">
        <ele>306.2</ele>
        <time>2025-12-15T15:15:36Z</time>
      </trkpt>
      <trkpt lat="45.70612" lon="4.7082">
        <ele>306.2</ele>
        <time>2025-12-15T15:15:37Z</time>
      </trkpt>
      <trkpt lat="45.70608" lon="4.70826">
        <ele>306.2</ele>
        <time>2025-12-15T15:15:38Z</time>
      </trkpt>
      <trkpt lat="45.70604" lon="4.70832">
        <ele>306</ele>
        <time>2025-12-15T15:15:39Z</time>
      </trkpt>
      <trkpt lat="45.70599" lon="4.70838">
        <ele>305.8</ele>
        <time>2025-12-15T15:15:40Z</time>
      </trkpt>
      <trkpt lat="45.70595" lon="4.70844">
        <ele>305.6</ele>
        <time>2025-12-15T15:15:41Z</time>
      </trkpt>
      <trkpt lat="45.70591" lon="4.7085">
        <ele>305.4</ele>
        <time>2025-12-15T15:15:42Z</time>
      </trkpt>
      <trkpt lat="45.70587" lon="4.70856">
        <ele>305.4</ele>
        <time>2025-12-15T15:15:43Z</time>
      </trkpt>
      <trkpt lat="45.70583" lon="4.70862">
        <ele>305.2</ele>
        <time>2025-12-15T15:15:44Z</time>
      </trkpt>
      <trkpt lat="45.70579" lon="4.70867">
        <ele>305.2</ele>
        <time>2025-12-15T15:15:45Z</time>
      </trkpt>
      <trkpt lat="45.70575" lon="4.70873">
        <ele>305.2</ele>
        <time>2025-12-15T15:15:46Z</time>
      </trkpt>
      <trkpt lat="45.70571" lon="4.70879">
        <ele>305.2</ele>
        <time>2025-12-15T15:15:47Z</time>
      </trkpt>
      <trkpt lat="45.70567" lon="4.70884">
        <ele>305.2</ele>
        <time>2025-12-15T15:15:48Z</time>
      </trkpt>
      <trkpt lat="45.70563" lon="4.70889">
        <ele>305</ele>
        <time>2025-12-15T15:15:49Z</time>
      </trkpt>
      <trkpt lat="45.7056" lon="4.70896">
        <ele>305</ele>
        <time>2025-12-15T15:15:50Z</time>
      </trkpt>
      <trkpt lat="45.70557" lon="4.70902">
        <ele>305</ele>
        <time>2025-12-15T15:15:51Z</time>
      </trkpt>
      <trkpt lat="45.70554" lon="4.70909">
        <ele>305.2</ele>
        <time>2025-12-15T15:15:52Z</time>
      </trkpt>
      <trkpt lat="45.70552" lon="4.70917">
        <ele>305.6</ele>
        <time>2025-12-15T15:15:53Z</time>
      </trkpt>
      <trkpt lat="45.7055" lon="4.70925">
        <ele>306</ele>
        <time>2025-12-15T15:15:54Z</time>
      </trkpt>
      <trkpt lat="45.70549" lon="4.70934">
        <ele>306.4</ele>
        <time>2025-12-15T15:15:55Z</time>
      </trkpt>
      <trkpt lat="45.70548" lon="4.70942">
        <ele>306.4</ele>
        <time>2025-12-15T15:15:56Z</time>
      </trkpt>
      <trkpt lat="45.70547" lon="4.70951">
        <ele>306.4</ele>
        <time>2025-12-15T15:15:57Z</time>
      </trkpt>
      <trkpt lat="45.70546" lon="4.70959">
        <ele>306.4</ele>
        <time>2025-12-15T15:15:58Z</time>
      </trkpt>
      <trkpt lat="45.70545" lon="4.70967">
        <ele>306.2</ele>
        <time>2025-12-15T15:15:59Z</time>
      </trkpt>
      <trkpt lat="45.70544" lon="4.70975">
        <ele>306.2</ele>
        <time>2025-12-15T15:16:00Z</time>
      </trkpt>
      <trkpt lat="45.70543" lon="4.70983">
        <ele>306.2</ele>
        <time>2025-12-15T15:16:01Z</time>
      </trkpt>
      <trkpt lat="45.70543" lon="4.70991">
        <ele>306.2</ele>
        <time>2025-12-15T15:16:02Z</time>
      </trkpt>
      <trkpt lat="45.70542" lon="4.71">
        <ele>306.2</ele>
        <time>2025-12-15T15:16:03Z</time>
      </trkpt>
      <trkpt lat="45.70541" lon="4.71008">
        <ele>306.2</ele>
        <time>2025-12-15T15:16:04Z</time>
      </trkpt>
      <trkpt lat="45.7054" lon="4.71016">
        <ele>306.4</ele>
        <time>2025-12-15T15:16:05Z</time>
      </trkpt>
      <trkpt lat="45.7054" lon="4.71024">
        <ele>306.4</ele>
        <time>2025-12-15T15:16:06Z</time>
      </trkpt>
      <trkpt lat="45.70539" lon="4.71032">
        <ele>306.6</ele>
        <time>2025-12-15T15:16:07Z</time>
      </trkpt>
      <trkpt lat="45.70539" lon="4.71039">
        <ele>306.6</ele>
        <time>2025-12-15T15:16:08Z</time>
      </trkpt>
      <trkpt lat="45.70539" lon="4.71047">
        <ele>306.8</ele>
        <time>2025-12-15T15:16:09Z</time>
      </trkpt>
      <trkpt lat="45.7054" lon="4.71055">
        <ele>307</ele>
        <time>2025-12-15T15:16:10Z</time>
      </trkpt>
      <trkpt lat="45.70541" lon="4.71063">
        <ele>307</ele>
        <time>2025-12-15T15:16:11Z</time>
      </trkpt>
      <trkpt lat="45.70542" lon="4.71071">
        <ele>307.2</ele>
        <time>2025-12-15T15:16:12Z</time>
      </trkpt>
      <trkpt lat="45.70543" lon="4.7108">
        <ele>307.2</ele>
        <time>2025-12-15T15:16:13Z</time>
      </trkpt>
      <trkpt lat="45.70545" lon="4.71088">
        <ele>307.2</ele>
        <time>2025-12-15T15:16:14Z</time>
      </trkpt>
      <trkpt lat="45.70546" lon="4.71097">
        <ele>307.2</ele>
        <time>2025-12-15T15:16:15Z</time>
      </trkpt>
      <trkpt lat="45.70547" lon="4.71105">
        <ele>307.2</ele>
        <time>2025-12-15T15:16:16Z</time>
      </trkpt>
      <trkpt lat="45.70548" lon="4.71114">
        <ele>307.2</ele>
        <time>2025-12-15T15:16:17Z</time>
      </trkpt>
      <trkpt lat="45.70548" lon="4.71123">
        <ele>307.4</ele>
        <time>2025-12-15T15:16:18Z</time>
      </trkpt>
      <trkpt lat="45.70548" lon="4.71131">
        <ele>307.6</ele>
        <time>2025-12-15T15:16:19Z</time>
      </trkpt>
      <trkpt lat="45.70547" lon="4.7114">
        <ele>307.6</ele>
        <time>2025-12-15T15:16:20Z</time>
      </trkpt>
      <trkpt lat="45.70546" lon="4.71148">
        <ele>307.8</ele>
        <time>2025-12-15T15:16:21Z</time>
      </trkpt>
      <trkpt lat="45.70544" lon="4.71156">
        <ele>308</ele>
        <time>2025-12-15T15:16:22Z</time>
      </trkpt>
      <trkpt lat="45.70543" lon="4.71165">
        <ele>308.2</ele>
        <time>2025-12-15T15:16:23Z</time>
      </trkpt>
      <trkpt lat="45.70542" lon="4.71173">
        <ele>308.6</ele>
        <time>2025-12-15T15:16:24Z</time>
      </trkpt>
      <trkpt lat="45.70541" lon="4.71182">
        <ele>308.8</ele>
        <time>2025-12-15T15:16:25Z</time>
      </trkpt>
      <trkpt lat="45.70539" lon="4.7119">
        <ele>309</ele>
        <time>2025-12-15T15:16:26Z</time>
      </trkpt>
      <trkpt lat="45.70538" lon="4.71198">
        <ele>309.2</ele>
        <time>2025-12-15T15:16:27Z</time>
      </trkpt>
      <trkpt lat="45.70536" lon="4.71206">
        <ele>309.4</ele>
        <time>2025-12-15T15:16:28Z</time>
      </trkpt>
      <trkpt lat="45.70535" lon="4.71214">
        <ele>309.4</ele>
        <time>2025-12-15T15:16:29Z</time>
      </trkpt>
      <trkpt lat="45.70533" lon="4.71222">
        <ele>309.6</ele>
        <time>2025-12-15T15:16:30Z</time>
      </trkpt>
      <trkpt lat="45.70532" lon="4.71229">
        <ele>309.6</ele>
        <time>2025-12-15T15:16:31Z</time>
      </trkpt>
      <trkpt lat="45.7053" lon="4.71236">
        <ele>310</ele>
        <time>2025-12-15T15:16:32Z</time>
      </trkpt>
      <trkpt lat="45.70528" lon="4.71243">
        <ele>310.2</ele>
        <time>2025-12-15T15:16:33Z</time>
      </trkpt>
      <trkpt lat="45.70526" lon="4.7125">
        <ele>310.4</ele>
        <time>2025-12-15T15:16:34Z</time>
      </trkpt>
      <trkpt lat="45.70524" lon="4.71257">
        <ele>310.6</ele>
        <time>2025-12-15T15:16:35Z</time>
      </trkpt>
      <trkpt lat="45.70522" lon="4.71263">
        <ele>310.8</ele>
        <time>2025-12-15T15:16:36Z</time>
      </trkpt>
      <trkpt lat="45.7052" lon="4.7127">
        <ele>310.8</ele>
        <time>2025-12-15T15:16:37Z</time>
      </trkpt>
      <trkpt lat="45.70518" lon="4.71277">
        <ele>311</ele>
        <time>2025-12-15T15:16:38Z</time>
      </trkpt>
      <trkpt lat="45.70516" lon="4.71283">
        <ele>311</ele>
        <time>2025-12-15T15:16:39Z</time>
      </trkpt>
      <trkpt lat="45.70514" lon="4.7129">
        <ele>311.2</ele>
        <time>2025-12-15T15:16:40Z</time>
      </trkpt>
      <trkpt lat="45.70512" lon="4.71296">
        <ele>311.4</ele>
        <time>2025-12-15T15:16:41Z</time>
      </trkpt>
      <trkpt lat="45.7051" lon="4.71302">
        <ele>311.6</ele>
        <time>2025-12-15T15:16:42Z</time>
      </trkpt>
      <trkpt lat="45.70508" lon="4.71308">
        <ele>312</ele>
        <time>2025-12-15T15:16:43Z</time>
      </trkpt>
      <trkpt lat="45.70507" lon="4.71313">
        <ele>312.2</ele>
        <time>2025-12-15T15:16:44Z</time>
      </trkpt>
      <trkpt lat="45.70505" lon="4.71319">
        <ele>312.2</ele>
        <time>2025-12-15T15:16:45Z</time>
      </trkpt>
      <trkpt lat="45.70503" lon="4.71325">
        <ele>312.4</ele>
        <time>2025-12-15T15:16:46Z</time>
      </trkpt>
      <trkpt lat="45.70501" lon="4.71331">
        <ele>312.4</ele>
        <time>2025-12-15T15:16:47Z</time>
      </trkpt>
      <trkpt lat="45.70499" lon="4.71337">
        <ele>312.4</ele>
        <time>2025-12-15T15:16:48Z</time>
      </trkpt>
      <trkpt lat="45.70497" lon="4.71342">
        <ele>312.6</ele>
        <time>2025-12-15T15:16:49Z</time>
      </trkpt>
      <trkpt lat="45.70495" lon="4.71347">
        <ele>312.6</ele>
        <time>2025-12-15T15:16:50Z</time>
      </trkpt>
      <trkpt lat="45.70492" lon="4.71351">
        <ele>312.8</ele>
        <time>2025-12-15T15:16:51Z</time>
      </trkpt>
      <trkpt lat="45.7049" lon="4.71356">
        <ele>313.2</ele>
        <time>2025-12-15T15:16:52Z</time>
      </trkpt>
      <trkpt lat="45.70487" lon="4.7136">
        <ele>313.4</ele>
        <time>2025-12-15T15:16:53Z</time>
      </trkpt>
      <trkpt lat="45.70485" lon="4.71365">
        <ele>313.8</ele>
        <time>2025-12-15T15:16:54Z</time>
      </trkpt>
      <trkpt lat="45.70483" lon="4.7137">
        <ele>314.2</ele>
        <time>2025-12-15T15:16:55Z</time>
      </trkpt>
      <trkpt lat="45.70482" lon="4.71376">
        <ele>314.6</ele>
        <time>2025-12-15T15:16:56Z</time>
      </trkpt>
      <trkpt lat="45.7048" lon="4.71381">
        <ele>315</ele>
        <time>2025-12-15T15:16:57Z</time>
      </trkpt>
      <trkpt lat="45.70479" lon="4.71387">
        <ele>315.4</ele>
        <time>2025-12-15T15:16:58Z</time>
      </trkpt>
      <trkpt lat="45.70477" lon="4.71392">
        <ele>315.8</ele>
        <time>2025-12-15T15:16:59Z</time>
      </trkpt>
      <trkpt lat="45.70475" lon="4.71397">
        <ele>316</ele>
        <time>2025-12-15T15:17:00Z</time>
      </trkpt>
      <trkpt lat="45.70473" lon="4.71402">
        <ele>316.4</ele>
        <time>2025-12-15T15:17:01Z</time>
      </trkpt>
      <trkpt lat="45.70471" lon="4.71407">
        <ele>316.6</ele>
        <time>2025-12-15T15:17:02Z</time>
      </trkpt>
      <trkpt lat="45.70469" lon="4.71413">
        <ele>317</ele>
        <time>2025-12-15T15:17:03Z</time>
      </trkpt>
      <trkpt lat="45.70468" lon="4.71419">
        <ele>317.2</ele>
        <time>2025-12-15T15:17:04Z</time>
      </trkpt>
      <trkpt lat="45.70466" lon="4.71425">
        <ele>317.6</ele>
        <time>2025-12-15T15:17:05Z</time>
      </trkpt>
      <trkpt lat="45.70464" lon="4.71431">
        <ele>318</ele>
        <time>2025-12-15T15:17:06Z</time>
      </trkpt>
      <trkpt lat="45.70462" lon="4.71437">
        <ele>318.4</ele>
        <time>2025-12-15T15:17:07Z</time>
      </trkpt>
      <trkpt lat="45.70461" lon="4.71444">
        <ele>318.6</ele>
        <time>2025-12-15T15:17:08Z</time>
      </trkpt>
      <trkpt lat="45.70459" lon="4.7145">
        <ele>319</ele>
        <time>2025-12-15T15:17:09Z</time>
      </trkpt>
      <trkpt lat="45.70457" lon="4.71456">
        <ele>319</ele>
        <time>2025-12-15T15:17:10Z</time>
      </trkpt>
      <trkpt lat="45.70455" lon="4.71462">
        <ele>319</ele>
        <time>2025-12-15T15:17:11Z</time>
      </trkpt>
      <trkpt lat="45.70454" lon="4.71469">
        <ele>319</ele>
        <time>2025-12-15T15:17:12Z</time>
      </trkpt>
      <trkpt lat="45.70452" lon="4.71476">
        <ele>319</ele>
        <time>2025-12-15T15:17:13Z</time>
      </trkpt>
      <trkpt lat="45.7045" lon="4.71482">
        <ele>319.2</ele>
        <time>2025-12-15T15:17:14Z</time>
      </trkpt>
      <trkpt lat="45.70448" lon="4.71488">
        <ele>319.2</ele>
        <time>2025-12-15T15:17:15Z</time>
      </trkpt>
      <trkpt lat="45.70447" lon="4.71495">
        <ele>319.4</ele>
        <time>2025-12-15T15:17:16Z</time>
      </trkpt>
      <trkpt lat="45.70445" lon="4.71501">
        <ele>319.4</ele>
        <time>2025-12-15T15:17:17Z</time>
      </trkpt>
      <trkpt lat="45.70444" lon="4.71508">
        <ele>319.6</ele>
        <time>2025-12-15T15:17:18Z</time>
      </trkpt>
      <trkpt lat="45.70442" lon="4.71515">
        <ele>319.8</ele>
        <time>2025-12-15T15:17:19Z</time>
      </trkpt>
      <trkpt lat="45.7044" lon="4.71521">
        <ele>319.8</ele>
        <time>2025-12-15T15:17:20Z</time>
      </trkpt>
      <trkpt lat="45.70438" lon="4.71528">
        <ele>320</ele>
        <time>2025-12-15T15:17:21Z</time>
      </trkpt>
      <trkpt lat="45.70436" lon="4.71534">
        <ele>320</ele>
        <time>2025-12-15T15:17:22Z</time>
      </trkpt>
      <trkpt lat="45.70435" lon="4.71541">
        <ele>320.2</ele>
        <time>2025-12-15T15:17:23Z</time>
      </trkpt>
      <trkpt lat="45.70433" lon="4.71548">
        <ele>320.4</ele>
        <time>2025-12-15T15:17:24Z</time>
      </trkpt>
      <trkpt lat="45.70432" lon="4.71555">
        <ele>320.4</ele>
        <time>2025-12-15T15:17:25Z</time>
      </trkpt>
      <trkpt lat="45.7043" lon="4.71561">
        <ele>320.4</ele>
        <time>2025-12-15T15:17:26Z</time>
      </trkpt>
      <trkpt lat="45.70429" lon="4.71568">
        <ele>320.6</ele>
        <time>2025-12-15T15:17:27Z</time>
      </trkpt>
      <trkpt lat="45.70427" lon="4.71575">
        <ele>320.6</ele>
        <time>2025-12-15T15:17:28Z</time>
      </trkpt>
      <trkpt lat="45.70426" lon="4.71582">
        <ele>320.8</ele>
        <time>2025-12-15T15:17:29Z</time>
      </trkpt>
      <trkpt lat="45.70425" lon="4.71589">
        <ele>321</ele>
        <time>2025-12-15T15:17:30Z</time>
      </trkpt>
      <trkpt lat="45.70424" lon="4.71596">
        <ele>321.2</ele>
        <time>2025-12-15T15:17:31Z</time>
      </trkpt>
      <trkpt lat="45.70424" lon="4.71603">
        <ele>321.6</ele>
        <time>2025-12-15T15:17:32Z</time>
      </trkpt>
      <trkpt lat="45.70422" lon="4.7161">
        <ele>321.6</ele>
        <time>2025-12-15T15:17:33Z</time>
      </trkpt>
      <trkpt lat="45.70422" lon="4.71618">
        <ele>321.8</ele>
        <time>2025-12-15T15:17:34Z</time>
      </trkpt>
      <trkpt lat="45.70421" lon="4.71625">
        <ele>321.8</ele>
        <time>2025-12-15T15:17:35Z</time>
      </trkpt>
      <trkpt lat="45.7042" lon="4.71633">
        <ele>321.8</ele>
        <time>2025-12-15T15:17:36Z</time>
      </trkpt>
      <trkpt lat="45.7042" lon="4.7164">
        <ele>321.8</ele>
        <time>2025-12-15T15:17:37Z</time>
      </trkpt>
      <trkpt lat="45.70419" lon="4.71648">
        <ele>322</ele>
        <time>2025-12-15T15:17:38Z</time>
      </trkpt>
      <trkpt lat="45.70418" lon="4.71656">
        <ele>322</ele>
        <time>2025-12-15T15:17:39Z</time>
      </trkpt>
      <trkpt lat="45.70418" lon="4.71664">
        <ele>322.2</ele>
        <time>2025-12-15T15:17:40Z</time>
      </trkpt>
      <trkpt lat="45.70418" lon="4.71672">
        <ele>322.2</ele>
        <time>2025-12-15T15:17:41Z</time>
      </trkpt>
      <trkpt lat="45.70417" lon="4.7168">
        <ele>322.2</ele>
        <time>2025-12-15T15:17:42Z</time>
      </trkpt>
      <trkpt lat="45.70417" lon="4.71688">
        <ele>322.4</ele>
        <time>2025-12-15T15:17:43Z</time>
      </trkpt>
      <trkpt lat="45.70416" lon="4.71696">
        <ele>322.4</ele>
        <time>2025-12-15T15:17:44Z</time>
      </trkpt>
      <trkpt lat="45.70415" lon="4.71705">
        <ele>322.4</ele>
        <time>2025-12-15T15:17:45Z</time>
      </trkpt>
      <trkpt lat="45.70414" lon="4.71713">
        <ele>322.2</ele>
        <time>2025-12-15T15:17:46Z</time>
      </trkpt>
      <trkpt lat="45.70412" lon="4.71721">
        <ele>322.2</ele>
        <time>2025-12-15T15:17:47Z</time>
      </trkpt>
      <trkpt lat="45.70412" lon="4.7173">
        <ele>322</ele>
        <time>2025-12-15T15:17:48Z</time>
      </trkpt>
      <trkpt lat="45.70411" lon="4.71738">
        <ele>322</ele>
        <time>2025-12-15T15:17:49Z</time>
      </trkpt>
      <trkpt lat="45.7041" lon="4.71747">
        <ele>321.8</ele>
        <time>2025-12-15T15:17:50Z</time>
      </trkpt>
      <trkpt lat="45.7041" lon="4.71756">
        <ele>321.8</ele>
        <time>2025-12-15T15:17:51Z</time>
      </trkpt>
      <trkpt lat="45.70409" lon="4.71765">
        <ele>321.6</ele>
        <time>2025-12-15T15:17:52Z</time>
      </trkpt>
      <trkpt lat="45.70409" lon="4.71774">
        <ele>321.4</ele>
        <time>2025-12-15T15:17:53Z</time>
      </trkpt>
      <trkpt lat="45.70408" lon="4.71783">
        <ele>321.2</ele>
        <time>2025-12-15T15:17:54Z</time>
      </trkpt>
      <trkpt lat="45.70407" lon="4.71792">
        <ele>320.8</ele>
        <time>2025-12-15T15:17:55Z</time>
      </trkpt>
      <trkpt lat="45.70406" lon="4.71802">
        <ele>320.4</ele>
        <time>2025-12-15T15:17:56Z</time>
      </trkpt>
      <trkpt lat="45.70405" lon="4.71811">
        <ele>320</ele>
        <time>2025-12-15T15:17:57Z</time>
      </trkpt>
      <trkpt lat="45.70404" lon="4.71821">
        <ele>319.6</ele>
        <time>2025-12-15T15:17:58Z</time>
      </trkpt>
      <trkpt lat="45.70403" lon="4.7183">
        <ele>319</ele>
        <time>2025-12-15T15:17:59Z</time>
      </trkpt>
      <trkpt lat="45.70401" lon="4.7184">
        <ele>318.2</ele>
        <time>2025-12-15T15:18:00Z</time>
      </trkpt>
      <trkpt lat="45.704" lon="4.71849">
        <ele>317.6</ele>
        <time>2025-12-15T15:18:01Z</time>
      </trkpt>
      <trkpt lat="45.70399" lon="4.71859">
        <ele>317</ele>
        <time>2025-12-15T15:18:02Z</time>
      </trkpt>
      <trkpt lat="45.70399" lon="4.71869">
        <ele>316.6</ele>
        <time>2025-12-15T15:18:03Z</time>
      </trkpt>
      <trkpt lat="45.70399" lon="4.71879">
        <ele>316.2</ele>
        <time>2025-12-15T15:18:04Z</time>
      </trkpt>
      <trkpt lat="45.70398" lon="4.71889">
        <ele>316.2</ele>
        <time>2025-12-15T15:18:05Z</time>
      </trkpt>
      <trkpt lat="45.70397" lon="4.71899">
        <ele>316</ele>
        <time>2025-12-15T15:18:06Z</time>
      </trkpt>
      <trkpt lat="45.70396" lon="4.71909">
        <ele>315.8</ele>
        <time>2025-12-15T15:18:07Z</time>
      </trkpt>
      <trkpt lat="45.70395" lon="4.71918">
        <ele>315.6</ele>
        <time>2025-12-15T15:18:08Z</time>
      </trkpt>
      <trkpt lat="45.70395" lon="4.71928">
        <ele>315.4</ele>
        <time>2025-12-15T15:18:09Z</time>
      </trkpt>
      <trkpt lat="45.70394" lon="4.71938">
        <ele>315.4</ele>
        <time>2025-12-15T15:18:10Z</time>
      </trkpt>
      <trkpt lat="45.70393" lon="4.71947">
        <ele>315.4</ele>
        <time>2025-12-15T15:18:11Z</time>
      </trkpt>
      <trkpt lat="45.70393" lon="4.71958">
        <ele>315.2</ele>
        <time>2025-12-15T15:18:12Z</time>
      </trkpt>
      <trkpt lat="45.70391" lon="4.71967">
        <ele>315.2</ele>
        <time>2025-12-15T15:18:13Z</time>
      </trkpt>
      <trkpt lat="45.7039" lon="4.71977">
        <ele>315</ele>
        <time>2025-12-15T15:18:14Z</time>
      </trkpt>
      <trkpt lat="45.70388" lon="4.71986">
        <ele>314.6</ele>
        <time>2025-12-15T15:18:15Z</time>
      </trkpt>
      <trkpt lat="45.70386" lon="4.71996">
        <ele>314.4</ele>
        <time>2025-12-15T15:18:16Z</time>
      </trkpt>
      <trkpt lat="45.70384" lon="4.72005">
        <ele>314.4</ele>
        <time>2025-12-15T15:18:17Z</time>
      </trkpt>
      <trkpt lat="45.70382" lon="4.72014">
        <ele>314.2</ele>
        <time>2025-12-15T15:18:18Z</time>
      </trkpt>
      <trkpt lat="45.7038" lon="4.72023">
        <ele>314</ele>
        <time>2025-12-15T15:18:19Z</time>
      </trkpt>
      <trkpt lat="45.70378" lon="4.72033">
        <ele>313.8</ele>
        <time>2025-12-15T15:18:20Z</time>
      </trkpt>
      <trkpt lat="45.70376" lon="4.72042">
        <ele>313.4</ele>
        <time>2025-12-15T15:18:21Z</time>
      </trkpt>
      <trkpt lat="45.70374" lon="4.72051">
        <ele>313.2</ele>
        <time>2025-12-15T15:18:22Z</time>
      </trkpt>
      <trkpt lat="45.70373" lon="4.7206">
        <ele>313</ele>
        <time>2025-12-15T15:18:23Z</time>
      </trkpt>
      <trkpt lat="45.70373" lon="4.7207">
        <ele>312.8</ele>
        <time>2025-12-15T15:18:24Z</time>
      </trkpt>
      <trkpt lat="45.70373" lon="4.72079">
        <ele>312.8</ele>
        <time>2025-12-15T15:18:25Z</time>
      </trkpt>
      <trkpt lat="45.70372" lon="4.72088">
        <ele>313</ele>
        <time>2025-12-15T15:18:26Z</time>
      </trkpt>
      <trkpt lat="45.70372" lon="4.72097">
        <ele>313</ele>
        <time>2025-12-15T15:18:27Z</time>
      </trkpt>
      <trkpt lat="45.70372" lon="4.72106">
        <ele>313.2</ele>
        <time>2025-12-15T15:18:28Z</time>
      </trkpt>
      <trkpt lat="45.70371" lon="4.72115">
        <ele>313.4</ele>
        <time>2025-12-15T15:18:29Z</time>
      </trkpt>
      <trkpt lat="45.70371" lon="4.72123">
        <ele>313.4</ele>
        <time>2025-12-15T15:18:30Z</time>
      </trkpt>
      <trkpt lat="45.7037" lon="4.72132">
        <ele>313.4</ele>
        <time>2025-12-15T15:18:31Z</time>
      </trkpt>
      <trkpt lat="45.7037" lon="4.72141">
        <ele>313.4</ele>
        <time>2025-12-15T15:18:32Z</time>
      </trkpt>
      <trkpt lat="45.70371" lon="4.7215">
        <ele>313.4</ele>
        <time>2025-12-15T15:18:33Z</time>
      </trkpt>
      <trkpt lat="45.70371" lon="4.72159">
        <ele>313.4</ele>
        <time>2025-12-15T15:18:34Z</time>
      </trkpt>
      <trkpt lat="45.7037" lon="4.72167">
        <ele>313.4</ele>
        <time>2025-12-15T15:18:35Z</time>
      </trkpt>
      <trkpt lat="45.7037" lon="4.72176">
        <ele>313.4</ele>
        <time>2025-12-15T15:18:36Z</time>
      </trkpt>
      <trkpt lat="45.70369" lon="4.72184">
        <ele>313.4</ele>
        <time>2025-12-15T15:18:37Z</time>
      </trkpt>
      <trkpt lat="45.70369" lon="4.72193">
        <ele>313.4</ele>
        <time>2025-12-15T15:18:38Z</time>
      </trkpt>
      <trkpt lat="45.7037" lon="4.72201">
        <ele>313.4</ele>
        <time>2025-12-15T15:18:39Z</time>
      </trkpt>
      <trkpt lat="45.7037" lon="4.72209">
        <ele>313.4</ele>
        <time>2025-12-15T15:18:40Z</time>
      </trkpt>
      <trkpt lat="45.70371" lon="4.72217">
        <ele>313.6</ele>
        <time>2025-12-15T15:18:41Z</time>
      </trkpt>
      <trkpt lat="45.70371" lon="4.72226">
        <ele>313.6</ele>
        <time>2025-12-15T15:18:42Z</time>
      </trkpt>
      <trkpt lat="45.70371" lon="4.72234">
        <ele>313.8</ele>
        <time>2025-12-15T15:18:43Z</time>
      </trkpt>
      <trkpt lat="45.70371" lon="4.72242">
        <ele>314</ele>
        <time>2025-12-15T15:18:44Z</time>
      </trkpt>
      <trkpt lat="45.70371" lon="4.72251">
        <ele>313.8</ele>
        <time>2025-12-15T15:18:45Z</time>
      </trkpt>
      <trkpt lat="45.70371" lon="4.7226">
        <ele>313.8</ele>
        <time>2025-12-15T15:18:46Z</time>
      </trkpt>
      <trkpt lat="45.70371" lon="4.72268">
        <ele>313.6</ele>
        <time>2025-12-15T15:18:47Z</time>
      </trkpt>
      <trkpt lat="45.70371" lon="4.72277">
        <ele>313.4</ele>
        <time>2025-12-15T15:18:48Z</time>
      </trkpt>
      <trkpt lat="45.70371" lon="4.72286">
        <ele>313.2</ele>
        <time>2025-12-15T15:18:49Z</time>
      </trkpt>
      <trkpt lat="45.70371" lon="4.72295">
        <ele>313.2</ele>
        <time>2025-12-15T15:18:50Z</time>
      </trkpt>
      <trkpt lat="45.70371" lon="4.72303">
        <ele>313</ele>
        <time>2025-12-15T15:18:51Z</time>
      </trkpt>
      <trkpt lat="45.70372" lon="4.72312">
        <ele>313</ele>
        <time>2025-12-15T15:18:52Z</time>
      </trkpt>
      <trkpt lat="45.70372" lon="4.7232">
        <ele>312.8</ele>
        <time>2025-12-15T15:18:53Z</time>
      </trkpt>
      <trkpt lat="45.70372" lon="4.72329">
        <ele>312.8</ele>
        <time>2025-12-15T15:18:54Z</time>
      </trkpt>
      <trkpt lat="45.70373" lon="4.72338">
        <ele>312.8</ele>
        <time>2025-12-15T15:18:55Z</time>
      </trkpt>
      <trkpt lat="45.70373" lon="4.72346">
        <ele>313</ele>
        <time>2025-12-15T15:18:56Z</time>
      </trkpt>
      <trkpt lat="45.70374" lon="4.72355">
        <ele>313</ele>
        <time>2025-12-15T15:18:57Z</time>
      </trkpt>
      <trkpt lat="45.70375" lon="4.72364">
        <ele>313</ele>
        <time>2025-12-15T15:18:58Z</time>
      </trkpt>
      <trkpt lat="45.70376" lon="4.72372">
        <ele>313</ele>
        <time>2025-12-15T15:18:59Z</time>
      </trkpt>
      <trkpt lat="45.70377" lon="4.72381">
        <ele>313</ele>
        <time>2025-12-15T15:19:00Z</time>
      </trkpt>
      <trkpt lat="45.70378" lon="4.7239">
        <ele>313</ele>
        <time>2025-12-15T15:19:01Z</time>
      </trkpt>
      <trkpt lat="45.70379" lon="4.72398">
        <ele>313</ele>
        <time>2025-12-15T15:19:02Z</time>
      </trkpt>
      <trkpt lat="45.7038" lon="4.72407">
        <ele>312.8</ele>
        <time>2025-12-15T15:19:03Z</time>
      </trkpt>
      <trkpt lat="45.70381" lon="4.72416">
        <ele>312.8</ele>
        <time>2025-12-15T15:19:04Z</time>
      </trkpt>
      <trkpt lat="45.70383" lon="4.72425">
        <ele>312.6</ele>
        <time>2025-12-15T15:19:05Z</time>
      </trkpt>
      <trkpt lat="45.70384" lon="4.72434">
        <ele>312.4</ele>
        <time>2025-12-15T15:19:06Z</time>
      </trkpt>
      <trkpt lat="45.70386" lon="4.72443">
        <ele>312.4</ele>
        <time>2025-12-15T15:19:07Z</time>
      </trkpt>
      <trkpt lat="45.70387" lon="4.72452">
        <ele>312.2</ele>
        <time>2025-12-15T15:19:08Z</time>
      </trkpt>
      <trkpt lat="45.70389" lon="4.7246">
        <ele>312</ele>
        <time>2025-12-15T15:19:09Z</time>
      </trkpt>
      <trkpt lat="45.70391" lon="4.72469">
        <ele>312</ele>
        <time>2025-12-15T15:19:10Z</time>
      </trkpt>
      <trkpt lat="45.70392" lon="4.72477">
        <ele>312</ele>
        <time>2025-12-15T15:19:11Z</time>
      </trkpt>
      <trkpt lat="45.70392" lon="4.72486">
        <ele>312</ele>
        <time>2025-12-15T15:19:12Z</time>
      </trkpt>
      <trkpt lat="45.70394" lon="4.72495">
        <ele>311.8</ele>
        <time>2025-12-15T15:19:13Z</time>
      </trkpt>
      <trkpt lat="45.70395" lon="4.72504">
        <ele>311.8</ele>
        <time>2025-12-15T15:19:14Z</time>
      </trkpt>
      <trkpt lat="45.70396" lon="4.72513">
        <ele>311.8</ele>
        <time>2025-12-15T15:19:15Z</time>
      </trkpt>
      <trkpt lat="45.70398" lon="4.72522">
        <ele>311.6</ele>
        <time>2025-12-15T15:19:16Z</time>
      </trkpt>
      <trkpt lat="45.70399" lon="4.72531">
        <ele>311.4</ele>
        <time>2025-12-15T15:19:17Z</time>
      </trkpt>
      <trkpt lat="45.70401" lon="4.7254">
        <ele>311.4</ele>
        <time>2025-12-15T15:19:18Z</time>
      </trkpt>
      <trkpt lat="45.70403" lon="4.72549">
        <ele>311.2</ele>
        <time>2025-12-15T15:19:19Z</time>
      </trkpt>
      <trkpt lat="45.70404" lon="4.72558">
        <ele>311</ele>
        <time>2025-12-15T15:19:20Z</time>
      </trkpt>
      <trkpt lat="45.70406" lon="4.72568">
        <ele>310.8</ele>
        <time>2025-12-15T15:19:21Z</time>
      </trkpt>
      <trkpt lat="45.70407" lon="4.72577">
        <ele>310.8</ele>
        <time>2025-12-15T15:19:22Z</time>
      </trkpt>
      <trkpt lat="45.70409" lon="4.72587">
        <ele>310.8</ele>
        <time>2025-12-15T15:19:23Z</time>
      </trkpt>
      <trkpt lat="45.70411" lon="4.72596">
        <ele>310.8</ele>
        <time>2025-12-15T15:19:24Z</time>
      </trkpt>
      <trkpt lat="45.70413" lon="4.72605">
        <ele>310.6</ele>
        <time>2025-12-15T15:19:25Z</time>
      </trkpt>
      <trkpt lat="45.70414" lon="4.72614">
        <ele>310.4</ele>
        <time>2025-12-15T15:19:26Z</time>
      </trkpt>
      <trkpt lat="45.70416" lon="4.72624">
        <ele>310.2</ele>
        <time>2025-12-15T15:19:27Z</time>
      </trkpt>
      <trkpt lat="45.70417" lon="4.72633">
        <ele>310</ele>
        <time>2025-12-15T15:19:28Z</time>
      </trkpt>
      <trkpt lat="45.70419" lon="4.72642">
        <ele>309.8</ele>
        <time>2025-12-15T15:19:29Z</time>
      </trkpt>
      <trkpt lat="45.7042" lon="4.72651">
        <ele>309.6</ele>
        <time>2025-12-15T15:19:30Z</time>
      </trkpt>
      <trkpt lat="45.70421" lon="4.72661">
        <ele>309.4</ele>
        <time>2025-12-15T15:19:31Z</time>
      </trkpt>
      <trkpt lat="45.70423" lon="4.7267">
        <ele>309.2</ele>
        <time>2025-12-15T15:19:32Z</time>
      </trkpt>
      <trkpt lat="45.70424" lon="4.72679">
        <ele>309</ele>
        <time>2025-12-15T15:19:33Z</time>
      </trkpt>
      <trkpt lat="45.70426" lon="4.72688">
        <ele>308.8</ele>
        <time>2025-12-15T15:19:34Z</time>
      </trkpt>
      <trkpt lat="45.70427" lon="4.72697">
        <ele>308.8</ele>
        <time>2025-12-15T15:19:35Z</time>
      </trkpt>
      <trkpt lat="45.70429" lon="4.72707">
        <ele>308.8</ele>
        <time>2025-12-15T15:19:36Z</time>
      </trkpt>
      <trkpt lat="45.7043" lon="4.72716">
        <ele>308.6</ele>
        <time>2025-12-15T15:19:37Z</time>
      </trkpt>
      <trkpt lat="45.70432" lon="4.72725">
        <ele>308.6</ele>
        <time>2025-12-15T15:19:38Z</time>
      </trkpt>
      <trkpt lat="45.70434" lon="4.72734">
        <ele>308.4</ele>
        <time>2025-12-15T15:19:39Z</time>
      </trkpt>
      <trkpt lat="45.70435" lon="4.72743">
        <ele>308.2</ele>
        <time>2025-12-15T15:19:40Z</time>
      </trkpt>
      <trkpt lat="45.70437" lon="4.72753">
        <ele>308.2</ele>
        <time>2025-12-15T15:19:41Z</time>
      </trkpt>
      <trkpt lat="45.70438" lon="4.72761">
        <ele>308.2</ele>
        <time>2025-12-15T15:19:42Z</time>
      </trkpt>
      <trkpt lat="45.70439" lon="4.7277">
        <ele>308</ele>
        <time>2025-12-15T15:19:43Z</time>
      </trkpt>
      <trkpt lat="45.7044" lon="4.7278">
        <ele>308</ele>
        <time>2025-12-15T15:19:44Z</time>
      </trkpt>
      <trkpt lat="45.7044" lon="4.72788">
        <ele>307.8</ele>
        <time>2025-12-15T15:19:45Z</time>
      </trkpt>
      <trkpt lat="45.7044" lon="4.72797">
        <ele>307.8</ele>
        <time>2025-12-15T15:19:46Z</time>
      </trkpt>
      <trkpt lat="45.70439" lon="4.72806">
        <ele>307.8</ele>
        <time>2025-12-15T15:19:47Z</time>
      </trkpt>
      <trkpt lat="45.70437" lon="4.72815">
        <ele>307.6</ele>
        <time>2025-12-15T15:19:48Z</time>
      </trkpt>
      <trkpt lat="45.70435" lon="4.72823">
        <ele>307.6</ele>
        <time>2025-12-15T15:19:49Z</time>
      </trkpt>
      <trkpt lat="45.70432" lon="4.72831">
        <ele>307.4</ele>
        <time>2025-12-15T15:19:50Z</time>
      </trkpt>
      <trkpt lat="45.70429" lon="4.72838">
        <ele>307.2</ele>
        <time>2025-12-15T15:19:51Z</time>
      </trkpt>
      <trkpt lat="45.70426" lon="4.72845">
        <ele>307.2</ele>
        <time>2025-12-15T15:19:52Z</time>
      </trkpt>
      <trkpt lat="45.70423" lon="4.72852">
        <ele>307.2</ele>
        <time>2025-12-15T15:19:53Z</time>
      </trkpt>
      <trkpt lat="45.70419" lon="4.72859">
        <ele>307</ele>
        <time>2025-12-15T15:19:54Z</time>
      </trkpt>
      <trkpt lat="45.70416" lon="4.72866">
        <ele>306.8</ele>
        <time>2025-12-15T15:19:55Z</time>
      </trkpt>
      <trkpt lat="45.70413" lon="4.72872">
        <ele>306.4</ele>
        <time>2025-12-15T15:19:56Z</time>
      </trkpt>
      <trkpt lat="45.70409" lon="4.72878">
        <ele>306.2</ele>
        <time>2025-12-15T15:19:57Z</time>
      </trkpt>
      <trkpt lat="45.70406" lon="4.72884">
        <ele>306</ele>
        <time>2025-12-15T15:19:58Z</time>
      </trkpt>
      <trkpt lat="45.70403" lon="4.7289">
        <ele>306</ele>
        <time>2025-12-15T15:19:59Z</time>
      </trkpt>
      <trkpt lat="45.704" lon="4.72896">
        <ele>306.2</ele>
        <time>2025-12-15T15:20:00Z</time>
      </trkpt>
      <trkpt lat="45.70397" lon="4.72902">
        <ele>306.2</ele>
        <time>2025-12-15T15:20:01Z</time>
      </trkpt>
      <trkpt lat="45.70394" lon="4.72908">
        <ele>306.2</ele>
        <time>2025-12-15T15:20:02Z</time>
      </trkpt>
      <trkpt lat="45.70391" lon="4.72914">
        <ele>306.2</ele>
        <time>2025-12-15T15:20:03Z</time>
      </trkpt>
      <trkpt lat="45.70388" lon="4.72921">
        <ele>306.4</ele>
        <time>2025-12-15T15:20:04Z</time>
      </trkpt>
      <trkpt lat="45.70385" lon="4.72927">
        <ele>306.4</ele>
        <time>2025-12-15T15:20:05Z</time>
      </trkpt>
      <trkpt lat="45.70382" lon="4.72933">
        <ele>306.6</ele>
        <time>2025-12-15T15:20:06Z</time>
      </trkpt>
      <trkpt lat="45.70379" lon="4.72939">
        <ele>306.6</ele>
        <time>2025-12-15T15:20:07Z</time>
      </trkpt>
      <trkpt lat="45.70376" lon="4.72945">
        <ele>306.8</ele>
        <time>2025-12-15T15:20:08Z</time>
      </trkpt>
      <trkpt lat="45.70373" lon="4.72951">
        <ele>306.8</ele>
        <time>2025-12-15T15:20:09Z</time>
      </trkpt>
      <trkpt lat="45.70369" lon="4.72958">
        <ele>307</ele>
        <time>2025-12-15T15:20:10Z</time>
      </trkpt>
      <trkpt lat="45.70366" lon="4.72964">
        <ele>307.2</ele>
        <time>2025-12-15T15:20:11Z</time>
      </trkpt>
      <trkpt lat="45.70364" lon="4.72971">
        <ele>307.6</ele>
        <time>2025-12-15T15:20:12Z</time>
      </trkpt>
      <trkpt lat="45.70361" lon="4.72978">
        <ele>307.8</ele>
        <time>2025-12-15T15:20:13Z</time>
      </trkpt>
      <trkpt lat="45.70358" lon="4.72985">
        <ele>308</ele>
        <time>2025-12-15T15:20:14Z</time>
      </trkpt>
      <trkpt lat="45.70355" lon="4.72992">
        <ele>308</ele>
        <time>2025-12-15T15:20:15Z</time>
      </trkpt>
      <trkpt lat="45.70352" lon="4.72999">
        <ele>308</ele>
        <time>2025-12-15T15:20:16Z</time>
      </trkpt>
      <trkpt lat="45.70349" lon="4.73006">
        <ele>308</ele>
        <time>2025-12-15T15:20:17Z</time>
      </trkpt>
      <trkpt lat="45.70346" lon="4.73013">
        <ele>308</ele>
        <time>2025-12-15T15:20:18Z</time>
      </trkpt>
      <trkpt lat="45.70344" lon="4.7302">
        <ele>308</ele>
        <time>2025-12-15T15:20:19Z</time>
      </trkpt>
      <trkpt lat="45.70341" lon="4.73027">
        <ele>308</ele>
        <time>2025-12-15T15:20:20Z</time>
      </trkpt>
      <trkpt lat="45.70339" lon="4.73034">
        <ele>308.2</ele>
        <time>2025-12-15T15:20:21Z</time>
      </trkpt>
      <trkpt lat="45.70337" lon="4.7304">
        <ele>308.2</ele>
        <time>2025-12-15T15:20:22Z</time>
      </trkpt>
      <trkpt lat="45.70335" lon="4.73047">
        <ele>308.4</ele>
        <time>2025-12-15T15:20:23Z</time>
      </trkpt>
      <trkpt lat="45.70334" lon="4.73053">
        <ele>308.4</ele>
        <time>2025-12-15T15:20:24Z</time>
      </trkpt>
      <trkpt lat="45.70332" lon="4.73059">
        <ele>308.4</ele>
        <time>2025-12-15T15:20:25Z</time>
      </trkpt>
      <trkpt lat="45.70331" lon="4.73065">
        <ele>308.4</ele>
        <time>2025-12-15T15:20:26Z</time>
      </trkpt>
      <trkpt lat="45.70329" lon="4.7307">
        <ele>308.4</ele>
        <time>2025-12-15T15:20:27Z</time>
      </trkpt>
      <trkpt lat="45.70327" lon="4.73075">
        <ele>308.2</ele>
        <time>2025-12-15T15:20:28Z</time>
      </trkpt>
      <trkpt lat="45.70325" lon="4.73079">
        <ele>308.2</ele>
        <time>2025-12-15T15:20:29Z</time>
      </trkpt>
      <trkpt lat="45.70323" lon="4.73083">
        <ele>308.4</ele>
        <time>2025-12-15T15:20:30Z</time>
      </trkpt>
      <trkpt lat="45.70321" lon="4.73086">
        <ele>308.4</ele>
        <time>2025-12-15T15:20:31Z</time>
      </trkpt>
      <trkpt lat="45.7032" lon="4.73088">
        <ele>308.6</ele>
        <time>2025-12-15T15:20:32Z</time>
      </trkpt>
      <trkpt lat="45.70321" lon="4.7309">
        <ele>308.6</ele>
        <time>2025-12-15T15:20:33Z</time>
      </trkpt>
      <trkpt lat="45.70321" lon="4.73091">
        <ele>308.8</ele>
        <time>2025-12-15T15:20:34Z</time>
      </trkpt>
      <trkpt lat="45.70321" lon="4.73091">
        <ele>309</ele>
        <time>2025-12-15T15:20:35Z</time>
      </trkpt>
      <trkpt lat="45.70321" lon="4.73091">
        <ele>309.2</ele>
        <time>2025-12-15T15:20:36Z</time>
      </trkpt>
      <trkpt lat="45.70321" lon="4.73091">
        <ele>309.4</ele>
        <time>2025-12-15T15:20:37Z</time>
      </trkpt>
      <trkpt lat="45.70321" lon="4.73091">
        <ele>309.4</ele>
        <time>2025-12-15T15:20:38Z</time>
      </trkpt>
      <trkpt lat="45.70321" lon="4.73091">
        <ele>309.6</ele>
        <time>2025-12-15T15:20:39Z</time>
      </trkpt>
      <trkpt lat="45.70321" lon="4.73091">
        <ele>309.6</ele>
        <time>2025-12-15T15:20:40Z</time>
      </trkpt>
      <trkpt lat="45.70321" lon="4.73091">
        <ele>309.6</ele>
        <time>2025-12-15T15:20:41Z</time>
      </trkpt>
      <trkpt lat="45.70321" lon="4.73091">
        <ele>309.8</ele>
        <time>2025-12-15T15:20:42Z</time>
      </trkpt>
      <trkpt lat="45.70321" lon="4.73091">
        <ele>309.8</ele>
        <time>2025-12-15T15:20:43Z</time>
      </trkpt>
      <trkpt lat="45.70321" lon="4.73091">
        <ele>309.8</ele>
        <time>2025-12-15T15:20:44Z</time>
      </trkpt>
      <trkpt lat="45.70321" lon="4.73091">
        <ele>309.8</ele>
        <time>2025-12-15T15:20:45Z</time>
      </trkpt>
      <trkpt lat="45.70321" lon="4.73091">
        <ele>310</ele>
        <time>2025-12-15T15:20:46Z</time>
      </trkpt>
      <trkpt lat="45.70321" lon="4.73091">
        <ele>310</ele>
        <time>2025-12-15T15:20:47Z</time>
      </trkpt>
      <trkpt lat="45.70321" lon="4.73091">
        <ele>310.2</ele>
        <time>2025-12-15T15:20:48Z</time>
      </trkpt>
      <trkpt lat="45.70321" lon="4.73091">
        <ele>310.2</ele>
        <time>2025-12-15T15:20:49Z</time>
      </trkpt>
      <trkpt lat="45.70321" lon="4.73091">
        <ele>310.2</ele>
        <time>2025-12-15T15:20:50Z</time>
      </trkpt>
      <trkpt lat="45.70321" lon="4.73091">
        <ele>310.2</ele>
        <time>2025-12-15T15:20:51Z</time>
      </trkpt>
      <trkpt lat="45.70321" lon="4.73091">
        <ele>310.2</ele>
        <time>2025-12-15T15:20:52Z</time>
      </trkpt>
      <trkpt lat="45.70321" lon="4.73091">
        <ele>310.2</ele>
        <time>2025-12-15T15:20:53Z</time>
      </trkpt>
      <trkpt lat="45.70321" lon="4.73091">
        <ele>310.2</ele>
        <time>2025-12-15T15:20:54Z</time>
      </trkpt>
      <trkpt lat="45.70321" lon="4.73091">
        <ele>310</ele>
        <time>2025-12-15T15:20:55Z</time>
      </trkpt>
      <trkpt lat="45.70321" lon="4.73091">
        <ele>310</ele>
        <time>2025-12-15T15:20:56Z</time>
      </trkpt>
      <trkpt lat="45.70321" lon="4.73091">
        <ele>310</ele>
        <time>2025-12-15T15:20:57Z</time>
      </trkpt>
      <trkpt lat="45.70321" lon="4.73091">
        <ele>310</ele>
        <time>2025-12-15T15:20:58Z</time>
      </trkpt>
      <trkpt lat="45.70321" lon="4.73091">
        <ele>310</ele>
        <time>2025-12-15T15:20:59Z</time>
      </trkpt>
      <trkpt lat="45.70321" lon="4.73091">
        <ele>310</ele>
        <time>2025-12-15T15:21:00Z</time>
      </trkpt>
      <trkpt lat="45.70321" lon="4.73091">
        <ele>310</ele>
        <time>2025-12-15T15:21:01Z</time>
      </trkpt>
      <trkpt lat="45.70321" lon="4.73091">
        <ele>310</ele>
        <time>2025-12-15T15:21:02Z</time>
      </trkpt>
      <trkpt lat="45.70321" lon="4.73091">
        <ele>309.8</ele>
        <time>2025-12-15T15:21:03Z</time>
      </trkpt>
      <trkpt lat="45.70321" lon="4.73091">
        <ele>309.8</ele>
        <time>2025-12-15T15:21:04Z</time>
      </trkpt>
      <trkpt lat="45.70321" lon="4.73091">
        <ele>309.6</ele>
        <time>2025-12-15T15:21:05Z</time>
      </trkpt>
      <trkpt lat="45.70321" lon="4.73091">
        <ele>309.6</ele>
        <time>2025-12-15T15:21:06Z</time>
      </trkpt>
      <trkpt lat="45.70321" lon="4.73091">
        <ele>309.6</ele>
        <time>2025-12-15T15:21:07Z</time>
      </trkpt>
      <trkpt lat="45.70321" lon="4.73091">
        <ele>309.8</ele>
        <time>2025-12-15T15:21:08Z</time>
      </trkpt>
      <trkpt lat="45.70321" lon="4.73091">
        <ele>309.8</ele>
        <time>2025-12-15T15:21:09Z</time>
      </trkpt>
      <trkpt lat="45.70321" lon="4.73091">
        <ele>309.8</ele>
        <time>2025-12-15T15:21:10Z</time>
      </trkpt>
      <trkpt lat="45.70321" lon="4.73091">
        <ele>309.8</ele>
        <time>2025-12-15T15:21:11Z</time>
      </trkpt>
      <trkpt lat="45.70321" lon="4.73091">
        <ele>309.6</ele>
        <time>2025-12-15T15:21:12Z</time>
      </trkpt>
      <trkpt lat="45.70321" lon="4.73091">
        <ele>309.6</ele>
        <time>2025-12-15T15:21:13Z</time>
      </trkpt>
      <trkpt lat="45.70321" lon="4.73091">
        <ele>309.4</ele>
        <time>2025-12-15T15:21:14Z</time>
      </trkpt>
      <trkpt lat="45.70321" lon="4.73091">
        <ele>309.4</ele>
        <time>2025-12-15T15:21:15Z</time>
      </trkpt>
      <trkpt lat="45.70321" lon="4.73091">
        <ele>309.4</ele>
        <time>2025-12-15T15:21:16Z</time>
      </trkpt>
      <trkpt lat="45.70321" lon="4.73091">
        <ele>309.2</ele>
        <time>2025-12-15T15:21:17Z</time>
      </trkpt>
      <trkpt lat="45.70321" lon="4.73091">
        <ele>309.2</ele>
        <time>2025-12-15T15:21:18Z</time>
      </trkpt>
      <trkpt lat="45.70321" lon="4.73091">
        <ele>309.2</ele>
        <time>2025-12-15T15:21:19Z</time>
      </trkpt>
      <trkpt lat="45.70321" lon="4.73091">
        <ele>309.2</ele>
        <time>2025-12-15T15:21:20Z</time>
      </trkpt>
      <trkpt lat="45.70321" lon="4.73091">
        <ele>309</ele>
        <time>2025-12-15T15:21:21Z</time>
      </trkpt>
      <trkpt lat="45.70321" lon="4.73091">
        <ele>309</ele>
        <time>2025-12-15T15:21:22Z</time>
      </trkpt>
      <trkpt lat="45.70321" lon="4.73091">
        <ele>309.2</ele>
        <time>2025-12-15T15:21:23Z</time>
      </trkpt>
      <trkpt lat="45.70321" lon="4.73091">
        <ele>309.2</ele>
        <time>2025-12-15T15:21:24Z</time>
      </trkpt>
      <trkpt lat="45.70321" lon="4.73091">
        <ele>309.2</ele>
        <time>2025-12-15T15:21:25Z</time>
      </trkpt>
      <trkpt lat="45.70321" lon="4.73091">
        <ele>309.2</ele>
        <time>2025-12-15T15:21:26Z</time>
      </trkpt>
      <trkpt lat="45.70321" lon="4.73091">
        <ele>309.2</ele>
        <time>2025-12-15T15:21:27Z</time>
      </trkpt>
      <trkpt lat="45.70321" lon="4.73091">
        <ele>309</ele>
        <time>2025-12-15T15:21:28Z</time>
      </trkpt>
      <trkpt lat="45.70321" lon="4.73091">
        <ele>309</ele>
        <time>2025-12-15T15:21:29Z</time>
      </trkpt>
      <trkpt lat="45.70321" lon="4.73091">
        <ele>309</ele>
        <time>2025-12-15T15:21:30Z</time>
      </trkpt>
      <trkpt lat="45.70321" lon="4.73091">
        <ele>309</ele>
        <time>2025-12-15T15:21:31Z</time>
      </trkpt>
      <trkpt lat="45.70321" lon="4.73091">
        <ele>309</ele>
        <time>2025-12-15T15:21:32Z</time>
      </trkpt>
      <trkpt lat="45.70321" lon="4.73091">
        <ele>309</ele>
        <time>2025-12-15T15:21:33Z</time>
      </trkpt>
      <trkpt lat="45.70321" lon="4.73091">
        <ele>309</ele>
        <time>2025-12-15T15:21:34Z</time>
      </trkpt>
      <trkpt lat="45.70321" lon="4.73091">
        <ele>309</ele>
        <time>2025-12-15T15:21:35Z</time>
      </trkpt>
      <trkpt lat="45.70321" lon="4.73091">
        <ele>309</ele>
        <time>2025-12-15T15:21:36Z</time>
      </trkpt>
      <trkpt lat="45.70321" lon="4.73091">
        <ele>309</ele>
        <time>2025-12-15T15:21:37Z</time>
      </trkpt>
      <trkpt lat="45.70321" lon="4.73091">
        <ele>309</ele>
        <time>2025-12-15T15:21:38Z</time>
      </trkpt>
      <trkpt lat="45.70321" lon="4.73091">
        <ele>309</ele>
        <time>2025-12-15T15:21:39Z</time>
      </trkpt>
      <trkpt lat="45.70321" lon="4.73091">
        <ele>309</ele>
        <time>2025-12-15T15:21:40Z</time>
      </trkpt>
      <trkpt lat="45.70321" lon="4.73091">
        <ele>309</ele>
        <time>2025-12-15T15:21:41Z</time>
      </trkpt>
      <trkpt lat="45.70321" lon="4.73091">
        <ele>309</ele>
        <time>2025-12-15T15:21:42Z</time>
      </trkpt>
      <trkpt lat="45.70321" lon="4.73091">
        <ele>309.2</ele>
        <time>2025-12-15T15:21:43Z</time>
      </trkpt>
      <trkpt lat="45.70321" lon="4.73091">
        <ele>309.2</ele>
        <time>2025-12-15T15:21:44Z</time>
      </trkpt>
      <trkpt lat="45.70321" lon="4.73091">
        <ele>309.4</ele>
        <time>2025-12-15T15:21:45Z</time>
      </trkpt>
      <trkpt lat="45.70321" lon="4.73091">
        <ele>309.4</ele>
        <time>2025-12-15T15:21:46Z</time>
      </trkpt>
      <trkpt lat="45.70321" lon="4.73091">
        <ele>309.4</ele>
        <time>2025-12-15T15:21:47Z</time>
      </trkpt>
      <trkpt lat="45.70321" lon="4.73091">
        <ele>309.4</ele>
        <time>2025-12-15T15:21:48Z</time>
      </trkpt>
      <trkpt lat="45.70321" lon="4.73091">
        <ele>309.2</ele>
        <time>2025-12-15T15:21:49Z</time>
      </trkpt>
      <trkpt lat="45.70321" lon="4.73091">
        <ele>309.2</ele>
        <time>2025-12-15T15:21:50Z</time>
      </trkpt>
      <trkpt lat="45.70321" lon="4.73091">
        <ele>309.2</ele>
        <time>2025-12-15T15:21:51Z</time>
      </trkpt>
      <trkpt lat="45.70321" lon="4.73091">
        <ele>309.2</ele>
        <time>2025-12-15T15:21:52Z</time>
      </trkpt>
      <trkpt lat="45.70321" lon="4.73091">
        <ele>309.2</ele>
        <time>2025-12-15T15:21:53Z</time>
      </trkpt>
      <trkpt lat="45.70321" lon="4.73091">
        <ele>309.2</ele>
        <time>2025-12-15T15:21:54Z</time>
      </trkpt>
      <trkpt lat="45.70321" lon="4.73091">
        <ele>309.2</ele>
        <time>2025-12-15T15:21:55Z</time>
      </trkpt>
      <trkpt lat="45.70321" lon="4.73091">
        <ele>309.2</ele>
        <time>2025-12-15T15:21:56Z</time>
      </trkpt>
      <trkpt lat="45.70321" lon="4.73091">
        <ele>309.2</ele>
        <time>2025-12-15T15:21:57Z</time>
      </trkpt>
      <trkpt lat="45.70321" lon="4.73091">
        <ele>309.2</ele>
        <time>2025-12-15T15:21:58Z</time>
      </trkpt>
      <trkpt lat="45.70321" lon="4.73091">
        <ele>309.2</ele>
        <time>2025-12-15T15:21:59Z</time>
      </trkpt>
      <trkpt lat="45.70321" lon="4.73091">
        <ele>309.2</ele>
        <time>2025-12-15T15:22:00Z</time>
      </trkpt>
      <trkpt lat="45.70321" lon="4.73091">
        <ele>309.2</ele>
        <time>2025-12-15T15:22:01Z</time>
      </trkpt>
      <trkpt lat="45.70321" lon="4.73091">
        <ele>309.2</ele>
        <time>2025-12-15T15:22:02Z</time>
      </trkpt>
      <trkpt lat="45.70321" lon="4.73091">
        <ele>309.2</ele>
        <time>2025-12-15T15:22:03Z</time>
      </trkpt>
      <trkpt lat="45.70321" lon="4.73091">
        <ele>309</ele>
        <time>2025-12-15T15:22:04Z</time>
      </trkpt>
      <trkpt lat="45.70321" lon="4.73091">
        <ele>309</ele>
        <time>2025-12-15T15:22:05Z</time>
      </trkpt>
      <trkpt lat="45.70321" lon="4.73091">
        <ele>309</ele>
        <time>2025-12-15T15:22:06Z</time>
      </trkpt>
      <trkpt lat="45.70321" lon="4.73091">
        <ele>309.2</ele>
        <time>2025-12-15T15:22:07Z</time>
      </trkpt>
      <trkpt lat="45.70321" lon="4.73091">
        <ele>309.2</ele>
        <time>2025-12-15T15:22:08Z</time>
      </trkpt>
      <trkpt lat="45.70321" lon="4.73091">
        <ele>309.2</ele>
        <time>2025-12-15T15:22:09Z</time>
      </trkpt>
      <trkpt lat="45.70321" lon="4.73091">
        <ele>309.4</ele>
        <time>2025-12-15T15:22:10Z</time>
      </trkpt>
      <trkpt lat="45.70321" lon="4.73091">
        <ele>309.4</ele>
        <time>2025-12-15T15:22:11Z</time>
      </trkpt>
      <trkpt lat="45.70321" lon="4.73091">
        <ele>309.4</ele>
        <time>2025-12-15T15:22:12Z</time>
      </trkpt>
      <trkpt lat="45.70321" lon="4.73091">
        <ele>309.4</ele>
        <time>2025-12-15T15:22:13Z</time>
      </trkpt>
      <trkpt lat="45.70321" lon="4.73091">
        <ele>309.4</ele>
        <time>2025-12-15T15:22:14Z</time>
      </trkpt>
      <trkpt lat="45.70321" lon="4.73091">
        <ele>309.4</ele>
        <time>2025-12-15T15:22:15Z</time>
      </trkpt>
      <trkpt lat="45.70321" lon="4.73091">
        <ele>309.4</ele>
        <time>2025-12-15T15:22:16Z</time>
      </trkpt>
      <trkpt lat="45.70321" lon="4.73091">
        <ele>309.4</ele>
        <time>2025-12-15T15:22:17Z</time>
      </trkpt>
      <trkpt lat="45.70321" lon="4.73091">
        <ele>309.2</ele>
        <time>2025-12-15T15:22:18Z</time>
      </trkpt>
      <trkpt lat="45.70321" lon="4.73091">
        <ele>309.2</ele>
        <time>2025-12-15T15:22:19Z</time>
      </trkpt>
      <trkpt lat="45.70321" lon="4.73091">
        <ele>309.2</ele>
        <time>2025-12-15T15:22:20Z</time>
      </trkpt>
      <trkpt lat="45.70321" lon="4.73091">
        <ele>309.2</ele>
        <time>2025-12-15T15:22:21Z</time>
      </trkpt>
      <trkpt lat="45.70321" lon="4.73091">
        <ele>309.4</ele>
        <time>2025-12-15T15:22:22Z</time>
      </trkpt>
      <trkpt lat="45.70321" lon="4.73091">
        <ele>309.6</ele>
        <time>2025-12-15T15:22:23Z</time>
      </trkpt>
      <trkpt lat="45.70321" lon="4.73091">
        <ele>309.6</ele>
        <time>2025-12-15T15:22:24Z</time>
      </trkpt>
      <trkpt lat="45.70321" lon="4.73091">
        <ele>309.8</ele>
        <time>2025-12-15T15:22:25Z</time>
      </trkpt>
      <trkpt lat="45.70321" lon="4.73091">
        <ele>309.8</ele>
        <time>2025-12-15T15:22:26Z</time>
      </trkpt>
      <trkpt lat="45.70321" lon="4.73091">
        <ele>309.6</ele>
        <time>2025-12-15T15:22:27Z</time>
      </trkpt>
      <trkpt lat="45.70321" lon="4.73091">
        <ele>309.4</ele>
        <time>2025-12-15T15:22:28Z</time>
      </trkpt>
      <trkpt lat="45.70321" lon="4.73091">
        <ele>309.4</ele>
        <time>2025-12-15T15:22:29Z</time>
      </trkpt>
      <trkpt lat="45.70321" lon="4.73091">
        <ele>309.2</ele>
        <time>2025-12-15T15:22:30Z</time>
      </trkpt>
      <trkpt lat="45.70321" lon="4.73091">
        <ele>309.2</ele>
        <time>2025-12-15T15:22:31Z</time>
      </trkpt>
      <trkpt lat="45.70321" lon="4.73091">
        <ele>309.2</ele>
        <time>2025-12-15T15:22:32Z</time>
      </trkpt>
      <trkpt lat="45.70321" lon="4.73091">
        <ele>309</ele>
        <time>2025-12-15T15:22:33Z</time>
      </trkpt>
      <trkpt lat="45.70321" lon="4.73091">
        <ele>309</ele>
        <time>2025-12-15T15:22:34Z</time>
      </trkpt>
      <trkpt lat="45.70321" lon="4.73091">
        <ele>309</ele>
        <time>2025-12-15T15:22:35Z</time>
      </trkpt>
      <trkpt lat="45.70321" lon="4.73091">
        <ele>309</ele>
        <time>2025-12-15T15:22:36Z</time>
      </trkpt>
      <trkpt lat="45.70321" lon="4.73091">
        <ele>309</ele>
        <time>2025-12-15T15:22:37Z</time>
      </trkpt>
      <trkpt lat="45.70321" lon="4.73091">
        <ele>309</ele>
        <time>2025-12-15T15:22:38Z</time>
      </trkpt>
      <trkpt lat="45.70321" lon="4.73091">
        <ele>309</ele>
        <time>2025-12-15T15:22:39Z</time>
      </trkpt>
      <trkpt lat="45.70321" lon="4.73091">
        <ele>309</ele>
        <time>2025-12-15T15:22:40Z</time>
      </trkpt>
      <trkpt lat="45.70321" lon="4.73091">
        <ele>309</ele>
        <time>2025-12-15T15:22:41Z</time>
      </trkpt>
      <trkpt lat="45.70321" lon="4.73091">
        <ele>309</ele>
        <time>2025-12-15T15:22:42Z</time>
      </trkpt>
      <trkpt lat="45.70321" lon="4.73091">
        <ele>309</ele>
        <time>2025-12-15T15:22:43Z</time>
      </trkpt>
      <trkpt lat="45.70321" lon="4.73091">
        <ele>309</ele>
        <time>2025-12-15T15:22:44Z</time>
      </trkpt>
      <trkpt lat="45.70321" lon="4.73091">
        <ele>309</ele>
        <time>2025-12-15T15:22:45Z</time>
      </trkpt>
      <trkpt lat="45.70321" lon="4.73091">
        <ele>309</ele>
        <time>2025-12-15T15:22:46Z</time>
      </trkpt>
      <trkpt lat="45.70321" lon="4.73091">
        <ele>309</ele>
        <time>2025-12-15T15:22:47Z</time>
      </trkpt>
      <trkpt lat="45.70321" lon="4.73091">
        <ele>309</ele>
        <time>2025-12-15T15:22:48Z</time>
      </trkpt>
      <trkpt lat="45.70321" lon="4.73091">
        <ele>309</ele>
        <time>2025-12-15T15:22:49Z</time>
      </trkpt>
      <trkpt lat="45.70321" lon="4.73091">
        <ele>309</ele>
        <time>2025-12-15T15:22:50Z</time>
      </trkpt>
      <trkpt lat="45.70321" lon="4.73091">
        <ele>309</ele>
        <time>2025-12-15T15:22:51Z</time>
      </trkpt>
      <trkpt lat="45.70321" lon="4.73091">
        <ele>309</ele>
        <time>2025-12-15T15:22:52Z</time>
      </trkpt>
      <trkpt lat="45.70321" lon="4.73091">
        <ele>309</ele>
        <time>2025-12-15T15:22:53Z</time>
      </trkpt>
      <trkpt lat="45.70321" lon="4.73091">
        <ele>309</ele>
        <time>2025-12-15T15:22:54Z</time>
      </trkpt>
      <trkpt lat="45.70321" lon="4.73091">
        <ele>309</ele>
        <time>2025-12-15T15:22:55Z</time>
      </trkpt>
      <trkpt lat="45.70321" lon="4.73091">
        <ele>309</ele>
        <time>2025-12-15T15:22:56Z</time>
      </trkpt>
      <trkpt lat="45.70321" lon="4.73091">
        <ele>309</ele>
        <time>2025-12-15T15:22:57Z</time>
      </trkpt>
      <trkpt lat="45.70321" lon="4.73091">
        <ele>309</ele>
        <time>2025-12-15T15:22:58Z</time>
      </trkpt>
      <trkpt lat="45.70321" lon="4.73091">
        <ele>309</ele>
        <time>2025-12-15T15:22:59Z</time>
      </trkpt>
      <trkpt lat="45.70321" lon="4.73091">
        <ele>309</ele>
        <time>2025-12-15T15:23:00Z</time>
      </trkpt>
      <trkpt lat="45.70321" lon="4.73091">
        <ele>309</ele>
        <time>2025-12-15T15:23:01Z</time>
      </trkpt>
      <trkpt lat="45.70321" lon="4.73091">
        <ele>309</ele>
        <time>2025-12-15T15:23:02Z</time>
      </trkpt>
      <trkpt lat="45.70321" lon="4.73091">
        <ele>309</ele>
        <time>2025-12-15T15:23:03Z</time>
      </trkpt>
      <trkpt lat="45.70321" lon="4.73091">
        <ele>309</ele>
        <time>2025-12-15T15:23:04Z</time>
      </trkpt>
      <trkpt lat="45.70321" lon="4.73091">
        <ele>309</ele>
        <time>2025-12-15T15:23:05Z</time>
      </trkpt>
      <trkpt lat="45.70321" lon="4.73091">
        <ele>309</ele>
        <time>2025-12-15T15:23:06Z</time>
      </trkpt>
      <trkpt lat="45.70321" lon="4.73091">
        <ele>309</ele>
        <time>2025-12-15T15:23:07Z</time>
      </trkpt>
      <trkpt lat="45.70321" lon="4.73091">
        <ele>309</ele>
        <time>2025-12-15T15:23:08Z</time>
      </trkpt>
      <trkpt lat="45.70321" lon="4.73091">
        <ele>309</ele>
        <time>2025-12-15T15:23:09Z</time>
      </trkpt>
      <trkpt lat="45.70321" lon="4.73091">
        <ele>309</ele>
        <time>2025-12-15T15:23:10Z</time>
      </trkpt>
      <trkpt lat="45.70321" lon="4.73091">
        <ele>309</ele>
        <time>2025-12-15T15:23:11Z</time>
      </trkpt>
      <trkpt lat="45.70321" lon="4.73091">
        <ele>309</ele>
        <time>2025-12-15T15:23:12Z</time>
      </trkpt>
      <trkpt lat="45.70321" lon="4.73091">
        <ele>309</ele>
        <time>2025-12-15T15:23:13Z</time>
      </trkpt>
      <trkpt lat="45.70321" lon="4.73091">
        <ele>309</ele>
        <time>2025-12-15T15:23:14Z</time>
      </trkpt>
      <trkpt lat="45.70321" lon="4.73091">
        <ele>309</ele>
        <time>2025-12-15T15:23:15Z</time>
      </trkpt>
      <trkpt lat="45.70321" lon="4.73091">
        <ele>309</ele>
        <time>2025-12-15T15:23:16Z</time>
      </trkpt>
      <trkpt lat="45.70321" lon="4.73091">
        <ele>309</ele>
        <time>2025-12-15T15:23:17Z</time>
      </trkpt>
      <trkpt lat="45.70321" lon="4.73091">
        <ele>309</ele>
        <time>2025-12-15T15:23:18Z</time>
      </trkpt>
      <trkpt lat="45.70321" lon="4.73091">
        <ele>309</ele>
        <time>2025-12-15T15:23:19Z</time>
      </trkpt>
      <trkpt lat="45.70321" lon="4.73091">
        <ele>309</ele>
        <time>2025-12-15T15:23:20Z</time>
      </trkpt>
      <trkpt lat="45.70321" lon="4.73091">
        <ele>309</ele>
        <time>2025-12-15T15:23:21Z</time>
      </trkpt>
      <trkpt lat="45.70321" lon="4.73091">
        <ele>309</ele>
        <time>2025-12-15T15:23:22Z</time>
      </trkpt>
      <trkpt lat="45.70321" lon="4.73091">
        <ele>309</ele>
        <time>2025-12-15T15:23:23Z</time>
      </trkpt>
      <trkpt lat="45.70321" lon="4.73091">
        <ele>309</ele>
        <time>2025-12-15T15:23:24Z</time>
      </trkpt>
      <trkpt lat="45.70321" lon="4.73091">
        <ele>309</ele>
        <time>2025-12-15T15:23:25Z</time>
      </trkpt>
      <trkpt lat="45.70321" lon="4.73091">
        <ele>309</ele>
        <time>2025-12-15T15:23:26Z</time>
      </trkpt>
      <trkpt lat="45.70321" lon="4.73091">
        <ele>309</ele>
        <time>2025-12-15T15:23:27Z</time>
      </trkpt>
      <trkpt lat="45.70321" lon="4.73091">
        <ele>309</ele>
        <time>2025-12-15T15:23:28Z</time>
      </trkpt>
      <trkpt lat="45.70321" lon="4.73091">
        <ele>309</ele>
        <time>2025-12-15T15:23:29Z</time>
      </trkpt>
      <trkpt lat="45.70321" lon="4.73091">
        <ele>309</ele>
        <time>2025-12-15T15:23:30Z</time>
      </trkpt>
      <trkpt lat="45.70321" lon="4.73091">
        <ele>309</ele>
        <time>2025-12-15T15:23:31Z</time>
      </trkpt>
      <trkpt lat="45.70321" lon="4.73091">
        <ele>309</ele>
        <time>2025-12-15T15:23:32Z</time>
      </trkpt>
      <trkpt lat="45.70321" lon="4.73091">
        <ele>309</ele>
        <time>2025-12-15T15:23:33Z</time>
      </trkpt>
      <trkpt lat="45.70321" lon="4.73091">
        <ele>309</ele>
        <time>2025-12-15T15:23:34Z</time>
      </trkpt>
      <trkpt lat="45.70321" lon="4.73091">
        <ele>309</ele>
        <time>2025-12-15T15:23:35Z</time>
      </trkpt>
      <trkpt lat="45.70321" lon="4.73091">
        <ele>309</ele>
        <time>2025-12-15T15:23:36Z</time>
      </trkpt>
      <trkpt lat="45.70321" lon="4.73091">
        <ele>309</ele>
        <time>2025-12-15T15:23:37Z</time>
      </trkpt>
      <trkpt lat="45.70321" lon="4.73091">
        <ele>309</ele>
        <time>2025-12-15T15:23:38Z</time>
      </trkpt>
      <trkpt lat="45.70321" lon="4.73091">
        <ele>309</ele>
        <time>2025-12-15T15:23:39Z</time>
      </trkpt>
      <trkpt lat="45.70321" lon="4.73091">
        <ele>309</ele>
        <time>2025-12-15T15:23:40Z</time>
      </trkpt>
      <trkpt lat="45.70321" lon="4.73091">
        <ele>309</ele>
        <time>2025-12-15T15:23:41Z</time>
      </trkpt>
      <trkpt lat="45.70321" lon="4.73091">
        <ele>309</ele>
        <time>2025-12-15T15:23:42Z</time>
      </trkpt>
      <trkpt lat="45.70321" lon="4.73091">
        <ele>309</ele>
        <time>2025-12-15T15:23:43Z</time>
      </trkpt>
      <trkpt lat="45.70321" lon="4.73091">
        <ele>309</ele>
        <time>2025-12-15T15:23:44Z</time>
      </trkpt>
      <trkpt lat="45.70321" lon="4.73091">
        <ele>309</ele>
        <time>2025-12-15T15:23:45Z</time>
      </trkpt>
      <trkpt lat="45.70321" lon="4.73091">
        <ele>309</ele>
        <time>2025-12-15T15:23:46Z</time>
      </trkpt>
      <trkpt lat="45.70321" lon="4.73091">
        <ele>309</ele>
        <time>2025-12-15T15:23:47Z</time>
      </trkpt>
      <trkpt lat="45.70321" lon="4.73091">
        <ele>309</ele>
        <time>2025-12-15T15:23:48Z</time>
      </trkpt>
      <trkpt lat="45.70321" lon="4.73091">
        <ele>309</ele>
        <time>2025-12-15T15:23:49Z</time>
      </trkpt>
      <trkpt lat="45.70321" lon="4.73091">
        <ele>309</ele>
        <time>2025-12-15T15:23:50Z</time>
      </trkpt>
      <trkpt lat="45.70321" lon="4.73091">
        <ele>309</ele>
        <time>2025-12-15T15:23:51Z</time>
      </trkpt>
      <trkpt lat="45.70321" lon="4.73091">
        <ele>309</ele>
        <time>2025-12-15T15:23:52Z</time>
      </trkpt>
      <trkpt lat="45.70321" lon="4.73091">
        <ele>309</ele>
        <time>2025-12-15T15:23:53Z</time>
      </trkpt>
      <trkpt lat="45.70321" lon="4.73091">
        <ele>309</ele>
        <time>2025-12-15T15:23:54Z</time>
      </trkpt>
      <trkpt lat="45.70321" lon="4.73091">
        <ele>309</ele>
        <time>2025-12-15T15:23:55Z</time>
      </trkpt>
      <trkpt lat="45.70321" lon="4.73091">
        <ele>309</ele>
        <time>2025-12-15T15:23:56Z</time>
      </trkpt>
      <trkpt lat="45.70321" lon="4.73091">
        <ele>309</ele>
        <time>2025-12-15T15:23:57Z</time>
      </trkpt>
      <trkpt lat="45.70321" lon="4.73091">
        <ele>309</ele>
        <time>2025-12-15T15:23:58Z</time>
      </trkpt>
      <trkpt lat="45.70321" lon="4.73091">
        <ele>309</ele>
        <time>2025-12-15T15:23:59Z</time>
      </trkpt>
      <trkpt lat="45.70321" lon="4.73091">
        <ele>309</ele>
        <time>2025-12-15T15:24:00Z</time>
      </trkpt>
      <trkpt lat="45.70321" lon="4.73091">
        <ele>309</ele>
        <time>2025-12-15T15:24:01Z</time>
      </trkpt>
      <trkpt lat="45.70321" lon="4.73091">
        <ele>309</ele>
        <time>2025-12-15T15:24:02Z</time>
      </trkpt>
      <trkpt lat="45.70321" lon="4.73091">
        <ele>309</ele>
        <time>2025-12-15T15:24:03Z</time>
      </trkpt>
      <trkpt lat="45.70321" lon="4.73091">
        <ele>309</ele>
        <time>2025-12-15T15:24:04Z</time>
      </trkpt>
      <trkpt lat="45.70321" lon="4.73091">
        <ele>309</ele>
        <time>2025-12-15T15:24:05Z</time>
      </trkpt>
      <trkpt lat="45.70321" lon="4.73091">
        <ele>309</ele>
        <time>2025-12-15T15:24:06Z</time>
      </trkpt>
      <trkpt lat="45.70321" lon="4.73091">
        <ele>309</ele>
        <time>2025-12-15T15:24:07Z</time>
      </trkpt>
      <trkpt lat="45.70321" lon="4.73091">
        <ele>309</ele>
        <time>2025-12-15T15:24:08Z</time>
      </trkpt>
      <trkpt lat="45.70321" lon="4.73091">
        <ele>309</ele>
        <time>2025-12-15T15:24:09Z</time>
      </trkpt>
      <trkpt lat="45.70321" lon="4.73091">
        <ele>309</ele>
        <time>2025-12-15T15:24:10Z</time>
      </trkpt>
      <trkpt lat="45.70321" lon="4.73091">
        <ele>309</ele>
        <time>2025-12-15T15:24:11Z</time>
      </trkpt>
      <trkpt lat="45.70321" lon="4.73091">
        <ele>309</ele>
        <time>2025-12-15T15:24:12Z</time>
      </trkpt>
      <trkpt lat="45.70321" lon="4.73091">
        <ele>309</ele>
        <time>2025-12-15T15:24:13Z</time>
      </trkpt>
      <trkpt lat="45.70322" lon="4.73092">
        <ele>309</ele>
        <time>2025-12-15T15:24:14Z</time>
      </trkpt>
      <trkpt lat="45.70323" lon="4.73093">
        <ele>309</ele>
        <time>2025-12-15T15:24:15Z</time>
      </trkpt>
      <trkpt lat="45.70323" lon="4.73094">
        <ele>309</ele>
        <time>2025-12-15T15:24:16Z</time>
      </trkpt>
      <trkpt lat="45.70324" lon="4.73095">
        <ele>308.8</ele>
        <time>2025-12-15T15:24:17Z</time>
      </trkpt>
      <trkpt lat="45.70325" lon="4.73096">
        <ele>308.8</ele>
        <time>2025-12-15T15:24:18Z</time>
      </trkpt>
      <trkpt lat="45.70326" lon="4.73098">
        <ele>308.8</ele>
        <time>2025-12-15T15:24:19Z</time>
      </trkpt>
      <trkpt lat="45.70328" lon="4.73099">
        <ele>308.8</ele>
        <time>2025-12-15T15:24:20Z</time>
      </trkpt>
      <trkpt lat="45.7033" lon="4.73101">
        <ele>308.8</ele>
        <time>2025-12-15T15:24:21Z</time>
      </trkpt>
      <trkpt lat="45.70333" lon="4.73103">
        <ele>308.8</ele>
        <time>2025-12-15T15:24:22Z</time>
      </trkpt>
      <trkpt lat="45.70336" lon="4.73106">
        <ele>308.8</ele>
        <time>2025-12-15T15:24:23Z</time>
      </trkpt>
      <trkpt lat="45.7034" lon="4.73109">
        <ele>308.6</ele>
        <time>2025-12-15T15:24:24Z</time>
      </trkpt>
      <trkpt lat="45.70344" lon="4.73112">
        <ele>308.6</ele>
        <time>2025-12-15T15:24:25Z</time>
      </trkpt>
      <trkpt lat="45.70347" lon="4.73116">
        <ele>308.4</ele>
        <time>2025-12-15T15:24:26Z</time>
      </trkpt>
      <trkpt lat="45.70351" lon="4.73121">
        <ele>308.4</ele>
        <time>2025-12-15T15:24:27Z</time>
      </trkpt>
      <trkpt lat="45.70355" lon="4.73126">
        <ele>308.4</ele>
        <time>2025-12-15T15:24:28Z</time>
      </trkpt>
      <trkpt lat="45.70358" lon="4.73131">
        <ele>308.4</ele>
        <time>2025-12-15T15:24:29Z</time>
      </trkpt>
      <trkpt lat="45.70363" lon="4.73136">
        <ele>308.2</ele>
        <time>2025-12-15T15:24:30Z</time>
      </trkpt>
      <trkpt lat="45.70367" lon="4.73141">
        <ele>308.2</ele>
        <time>2025-12-15T15:24:31Z</time>
      </trkpt>
      <trkpt lat="45.70371" lon="4.73146">
        <ele>308</ele>
        <time>2025-12-15T15:24:32Z</time>
      </trkpt>
      <trkpt lat="45.70375" lon="4.73151">
        <ele>308</ele>
        <time>2025-12-15T15:24:33Z</time>
      </trkpt>
      <trkpt lat="45.7038" lon="4.73156">
        <ele>308</ele>
        <time>2025-12-15T15:24:34Z</time>
      </trkpt>
      <trkpt lat="45.70385" lon="4.7316">
        <ele>308</ele>
        <time>2025-12-15T15:24:35Z</time>
      </trkpt>
      <trkpt lat="45.7039" lon="4.73164">
        <ele>308</ele>
        <time>2025-12-15T15:24:36Z</time>
      </trkpt>
      <trkpt lat="45.70395" lon="4.73168">
        <ele>307.8</ele>
        <time>2025-12-15T15:24:37Z</time>
      </trkpt>
      <trkpt lat="45.704" lon="4.73172">
        <ele>307.8</ele>
        <time>2025-12-15T15:24:38Z</time>
      </trkpt>
      <trkpt lat="45.70406" lon="4.73176">
        <ele>307.8</ele>
        <time>2025-12-15T15:24:39Z</time>
      </trkpt>
      <trkpt lat="45.70411" lon="4.73179">
        <ele>307.8</ele>
        <time>2025-12-15T15:24:40Z</time>
      </trkpt>
      <trkpt lat="45.70417" lon="4.73183">
        <ele>307.8</ele>
        <time>2025-12-15T15:24:41Z</time>
      </trkpt>
      <trkpt lat="45.70422" lon="4.73187">
        <ele>308</ele>
        <time>2025-12-15T15:24:42Z</time>
      </trkpt>
      <trkpt lat="45.70428" lon="4.7319">
        <ele>308</ele>
        <time>2025-12-15T15:24:43Z</time>
      </trkpt>
      <trkpt lat="45.70433" lon="4.73194">
        <ele>308</ele>
        <time>2025-12-15T15:24:44Z</time>
      </trkpt>
      <trkpt lat="45.70438" lon="4.73198">
        <ele>307.8</ele>
        <time>2025-12-15T15:24:45Z</time>
      </trkpt>
      <trkpt lat="45.70444" lon="4.73201">
        <ele>307.8</ele>
        <time>2025-12-15T15:24:46Z</time>
      </trkpt>
      <trkpt lat="45.70449" lon="4.73205">
        <ele>307.6</ele>
        <time>2025-12-15T15:24:47Z</time>
      </trkpt>
      <trkpt lat="45.70455" lon="4.73209">
        <ele>307.6</ele>
        <time>2025-12-15T15:24:48Z</time>
      </trkpt>
      <trkpt lat="45.7046" lon="4.73213">
        <ele>307.6</ele>
        <time>2025-12-15T15:24:49Z</time>
      </trkpt>
      <trkpt lat="45.70466" lon="4.73217">
        <ele>307.6</ele>
        <time>2025-12-15T15:24:50Z</time>
      </trkpt>
      <trkpt lat="45.70471" lon="4.73221">
        <ele>307.4</ele>
        <time>2025-12-15T15:24:51Z</time>
      </trkpt>
      <trkpt lat="45.70477" lon="4.73225">
        <ele>307.4</ele>
        <time>2025-12-15T15:24:52Z</time>
      </trkpt>
      <trkpt lat="45.70482" lon="4.73228">
        <ele>307.4</ele>
        <time>2025-12-15T15:24:53Z</time>
      </trkpt>
      <trkpt lat="45.70487" lon="4.73232">
        <ele>307.4</ele>
        <time>2025-12-15T15:24:54Z</time>
      </trkpt>
      <trkpt lat="45.70493" lon="4.73235">
        <ele>307.4</ele>
        <time>2025-12-15T15:24:55Z</time>
      </trkpt>
      <trkpt lat="45.70498" lon="4.73239">
        <ele>307.2</ele>
        <time>2025-12-15T15:24:56Z</time>
      </trkpt>
      <trkpt lat="45.70504" lon="4.73243">
        <ele>307.2</ele>
        <time>2025-12-15T15:24:57Z</time>
      </trkpt>
      <trkpt lat="45.7051" lon="4.73247">
        <ele>307.2</ele>
        <time>2025-12-15T15:24:58Z</time>
      </trkpt>
      <trkpt lat="45.70515" lon="4.73251">
        <ele>307</ele>
        <time>2025-12-15T15:24:59Z</time>
      </trkpt>
      <trkpt lat="45.70521" lon="4.73255">
        <ele>307</ele>
        <time>2025-12-15T15:25:00Z</time>
      </trkpt>
      <trkpt lat="45.70526" lon="4.73258">
        <ele>307.2</ele>
        <time>2025-12-15T15:25:01Z</time>
      </trkpt>
      <trkpt lat="45.70532" lon="4.73263">
        <ele>307</ele>
        <time>2025-12-15T15:25:02Z</time>
      </trkpt>
      <trkpt lat="45.70537" lon="4.73266">
        <ele>307</ele>
        <time>2025-12-15T15:25:03Z</time>
      </trkpt>
      <trkpt lat="45.70542" lon="4.7327">
        <ele>307</ele>
        <time>2025-12-15T15:25:04Z</time>
      </trkpt>
      <trkpt lat="45.70548" lon="4.73275">
        <ele>307</ele>
        <time>2025-12-15T15:25:05Z</time>
      </trkpt>
      <trkpt lat="45.70553" lon="4.73279">
        <ele>307</ele>
        <time>2025-12-15T15:25:06Z</time>
      </trkpt>
      <trkpt lat="45.70557" lon="4.73284">
        <ele>307</ele>
        <time>2025-12-15T15:25:07Z</time>
      </trkpt>
      <trkpt lat="45.70562" lon="4.73288">
        <ele>307</ele>
        <time>2025-12-15T15:25:08Z</time>
      </trkpt>
      <trkpt lat="45.70567" lon="4.73293">
        <ele>307</ele>
        <time>2025-12-15T15:25:09Z</time>
      </trkpt>
      <trkpt lat="45.70572" lon="4.73298">
        <ele>307</ele>
        <time>2025-12-15T15:25:10Z</time>
      </trkpt>
      <trkpt lat="45.70576" lon="4.73304">
        <ele>307</ele>
        <time>2025-12-15T15:25:11Z</time>
      </trkpt>
      <trkpt lat="45.70581" lon="4.7331">
        <ele>307</ele>
        <time>2025-12-15T15:25:12Z</time>
      </trkpt>
      <trkpt lat="45.70585" lon="4.73316">
        <ele>307</ele>
        <time>2025-12-15T15:25:13Z</time>
      </trkpt>
      <trkpt lat="45.70589" lon="4.73321">
        <ele>307</ele>
        <time>2025-12-15T15:25:14Z</time>
      </trkpt>
      <trkpt lat="45.70594" lon="4.73327">
        <ele>307</ele>
        <time>2025-12-15T15:25:15Z</time>
      </trkpt>
      <trkpt lat="45.70598" lon="4.73332">
        <ele>307</ele>
        <time>2025-12-15T15:25:16Z</time>
      </trkpt>
      <trkpt lat="45.70601" lon="4.73338">
        <ele>307</ele>
        <time>2025-12-15T15:25:17Z</time>
      </trkpt>
      <trkpt lat="45.70605" lon="4.73344">
        <ele>307</ele>
        <time>2025-12-15T15:25:18Z</time>
      </trkpt>
      <trkpt lat="45.70609" lon="4.7335">
        <ele>307</ele>
        <time>2025-12-15T15:25:19Z</time>
      </trkpt>
      <trkpt lat="45.70613" lon="4.73356">
        <ele>307</ele>
        <time>2025-12-15T15:25:20Z</time>
      </trkpt>
      <trkpt lat="45.70616" lon="4.73362">
        <ele>307</ele>
        <time>2025-12-15T15:25:21Z</time>
      </trkpt>
      <trkpt lat="45.7062" lon="4.73367">
        <ele>307.2</ele>
        <time>2025-12-15T15:25:22Z</time>
      </trkpt>
      <trkpt lat="45.70624" lon="4.73372">
        <ele>307.2</ele>
        <time>2025-12-15T15:25:23Z</time>
      </trkpt>
      <trkpt lat="45.70628" lon="4.73378">
        <ele>307.4</ele>
        <time>2025-12-15T15:25:24Z</time>
      </trkpt>
      <trkpt lat="45.70631" lon="4.73383">
        <ele>307.4</ele>
        <time>2025-12-15T15:25:25Z</time>
      </trkpt>
      <trkpt lat="45.70635" lon="4.73389">
        <ele>307.6</ele>
        <time>2025-12-15T15:25:26Z</time>
      </trkpt>
      <trkpt lat="45.70638" lon="4.73394">
        <ele>307.6</ele>
        <time>2025-12-15T15:25:27Z</time>
      </trkpt>
      <trkpt lat="45.70642" lon="4.73398">
        <ele>307.8</ele>
        <time>2025-12-15T15:25:28Z</time>
      </trkpt>
      <trkpt lat="45.70646" lon="4.73403">
        <ele>307.8</ele>
        <time>2025-12-15T15:25:29Z</time>
      </trkpt>
      <trkpt lat="45.70649" lon="4.73408">
        <ele>308</ele>
        <time>2025-12-15T15:25:30Z</time>
      </trkpt>
      <trkpt lat="45.70653" lon="4.73413">
        <ele>308.2</ele>
        <time>2025-12-15T15:25:31Z</time>
      </trkpt>
      <trkpt lat="45.70656" lon="4.73417">
        <ele>308.2</ele>
        <time>2025-12-15T15:25:32Z</time>
      </trkpt>
      <trkpt lat="45.7066" lon="4.73422">
        <ele>308.4</ele>
        <time>2025-12-15T15:25:33Z</time>
      </trkpt>
      <trkpt lat="45.70663" lon="4.73426">
        <ele>308.6</ele>
        <time>2025-12-15T15:25:34Z</time>
      </trkpt>
      <trkpt lat="45.70666" lon="4.7343">
        <ele>308.8</ele>
        <time>2025-12-15T15:25:35Z</time>
      </trkpt>
      <trkpt lat="45.70669" lon="4.73435">
        <ele>308.8</ele>
        <time>2025-12-15T15:25:36Z</time>
      </trkpt>
      <trkpt lat="45.70673" lon="4.73439">
        <ele>309</ele>
        <time>2025-12-15T15:25:37Z</time>
      </trkpt>
      <trkpt lat="45.70676" lon="4.73444">
        <ele>309</ele>
        <time>2025-12-15T15:25:38Z</time>
      </trkpt>
      <trkpt lat="45.70679" lon="4.73448">
        <ele>309.2</ele>
        <time>2025-12-15T15:25:39Z</time>
      </trkpt>
      <trkpt lat="45.70682" lon="4.73453">
        <ele>309.4</ele>
        <time>2025-12-15T15:25:40Z</time>
      </trkpt>
      <trkpt lat="45.70686" lon="4.73457">
        <ele>309.4</ele>
        <time>2025-12-15T15:25:41Z</time>
      </trkpt>
      <trkpt lat="45.70689" lon="4.73461">
        <ele>309.6</ele>
        <time>2025-12-15T15:25:42Z</time>
      </trkpt>
      <trkpt lat="45.70693" lon="4.73466">
        <ele>309.6</ele>
        <time>2025-12-15T15:25:43Z</time>
      </trkpt>
      <trkpt lat="45.70697" lon="4.73469">
        <ele>309.6</ele>
        <time>2025-12-15T15:25:44Z</time>
      </trkpt>
      <trkpt lat="45.70701" lon="4.73473">
        <ele>309.6</ele>
        <time>2025-12-15T15:25:45Z</time>
      </trkpt>
      <trkpt lat="45.70705" lon="4.73477">
        <ele>309.8</ele>
        <time>2025-12-15T15:25:46Z</time>
      </trkpt>
      <trkpt lat="45.70708" lon="4.7348">
        <ele>309.8</ele>
        <time>2025-12-15T15:25:47Z</time>
      </trkpt>
      <trkpt lat="45.70711" lon="4.73484">
        <ele>309.8</ele>
        <time>2025-12-15T15:25:48Z</time>
      </trkpt>
      <trkpt lat="45.70715" lon="4.73488">
        <ele>310</ele>
        <time>2025-12-15T15:25:49Z</time>
      </trkpt>
      <trkpt lat="45.70718" lon="4.73492">
        <ele>310.2</ele>
        <time>2025-12-15T15:25:50Z</time>
      </trkpt>
      <trkpt lat="45.70722" lon="4.73495">
        <ele>310.2</ele>
        <time>2025-12-15T15:25:51Z</time>
      </trkpt>
      <trkpt lat="45.70726" lon="4.73499">
        <ele>310.4</ele>
        <time>2025-12-15T15:25:52Z</time>
      </trkpt>
      <trkpt lat="45.70729" lon="4.73503">
        <ele>310.4</ele>
        <time>2025-12-15T15:25:53Z</time>
      </trkpt>
      <trkpt lat="45.70733" lon="4.73507">
        <ele>310.6</ele>
        <time>2025-12-15T15:25:54Z</time>
      </trkpt>
      <trkpt lat="45.70737" lon="4.73512">
        <ele>310.8</ele>
        <time>2025-12-15T15:25:55Z</time>
      </trkpt>
      <trkpt lat="45.70741" lon="4.73516">
        <ele>310.8</ele>
        <time>2025-12-15T15:25:56Z</time>
      </trkpt>
      <trkpt lat="45.70745" lon="4.73521">
        <ele>311</ele>
        <time>2025-12-15T15:25:57Z</time>
      </trkpt>
      <trkpt lat="45.70749" lon="4.73525">
        <ele>311</ele>
        <time>2025-12-15T15:25:58Z</time>
      </trkpt>
      <trkpt lat="45.70753" lon="4.73529">
        <ele>311.2</ele>
        <time>2025-12-15T15:25:59Z</time>
      </trkpt>
      <trkpt lat="45.70757" lon="4.73533">
        <ele>311.2</ele>
        <time>2025-12-15T15:26:00Z</time>
      </trkpt>
      <trkpt lat="45.70761" lon="4.73537">
        <ele>311.4</ele>
        <time>2025-12-15T15:26:01Z</time>
      </trkpt>
      <trkpt lat="45.70766" lon="4.7354">
        <ele>311.6</ele>
        <time>2025-12-15T15:26:02Z</time>
      </trkpt>
      <trkpt lat="45.7077" lon="4.73544">
        <ele>311.6</ele>
        <time>2025-12-15T15:26:03Z</time>
      </trkpt>
      <trkpt lat="45.70774" lon="4.73549">
        <ele>311.8</ele>
        <time>2025-12-15T15:26:04Z</time>
      </trkpt>
      <trkpt lat="45.70778" lon="4.73553">
        <ele>311.8</ele>
        <time>2025-12-15T15:26:05Z</time>
      </trkpt>
      <trkpt lat="45.70782" lon="4.73557">
        <ele>311.8</ele>
        <time>2025-12-15T15:26:06Z</time>
      </trkpt>
      <trkpt lat="45.70786" lon="4.73561">
        <ele>311.8</ele>
        <time>2025-12-15T15:26:07Z</time>
      </trkpt>
      <trkpt lat="45.7079" lon="4.73566">
        <ele>311.8</ele>
        <time>2025-12-15T15:26:08Z</time>
      </trkpt>
      <trkpt lat="45.70794" lon="4.7357">
        <ele>311.8</ele>
        <time>2025-12-15T15:26:09Z</time>
      </trkpt>
      <trkpt lat="45.70798" lon="4.73574">
        <ele>311.8</ele>
        <time>2025-12-15T15:26:10Z</time>
      </trkpt>
      <trkpt lat="45.70802" lon="4.73578">
        <ele>311.8</ele>
        <time>2025-12-15T15:26:11Z</time>
      </trkpt>
      <trkpt lat="45.70807" lon="4.73582">
        <ele>312</ele>
        <time>2025-12-15T15:26:12Z</time>
      </trkpt>
      <trkpt lat="45.70811" lon="4.73587">
        <ele>312</ele>
        <time>2025-12-15T15:26:13Z</time>
      </trkpt>
      <trkpt lat="45.70816" lon="4.73592">
        <ele>311.8</ele>
        <time>2025-12-15T15:26:14Z</time>
      </trkpt>
      <trkpt lat="45.7082" lon="4.73596">
        <ele>311.8</ele>
        <time>2025-12-15T15:26:15Z</time>
      </trkpt>
      <trkpt lat="45.70825" lon="4.73601">
        <ele>311.8</ele>
        <time>2025-12-15T15:26:16Z</time>
      </trkpt>
      <trkpt lat="45.7083" lon="4.73605">
        <ele>311.8</ele>
        <time>2025-12-15T15:26:17Z</time>
      </trkpt>
      <trkpt lat="45.70835" lon="4.7361">
        <ele>311.8</ele>
        <time>2025-12-15T15:26:18Z</time>
      </trkpt>
      <trkpt lat="45.7084" lon="4.73614">
        <ele>311.8</ele>
        <time>2025-12-15T15:26:19Z</time>
      </trkpt>
      <trkpt lat="45.70844" lon="4.73619">
        <ele>311.8</ele>
        <time>2025-12-15T15:26:20Z</time>
      </trkpt>
      <trkpt lat="45.70849" lon="4.73624">
        <ele>311.8</ele>
        <time>2025-12-15T15:26:21Z</time>
      </trkpt>
      <trkpt lat="45.70853" lon="4.73629">
        <ele>311.6</ele>
        <time>2025-12-15T15:26:22Z</time>
      </trkpt>
      <trkpt lat="45.70858" lon="4.73634">
        <ele>311.6</ele>
        <time>2025-12-15T15:26:23Z</time>
      </trkpt>
      <trkpt lat="45.70863" lon="4.73639">
        <ele>311.4</ele>
        <time>2025-12-15T15:26:24Z</time>
      </trkpt>
      <trkpt lat="45.70867" lon="4.73644">
        <ele>311.4</ele>
        <time>2025-12-15T15:26:25Z</time>
      </trkpt>
      <trkpt lat="45.70872" lon="4.73649">
        <ele>311.6</ele>
        <time>2025-12-15T15:26:26Z</time>
      </trkpt>
      <trkpt lat="45.70876" lon="4.73655">
        <ele>311.6</ele>
        <time>2025-12-15T15:26:27Z</time>
      </trkpt>
      <trkpt lat="45.70879" lon="4.73662">
        <ele>311.6</ele>
        <time>2025-12-15T15:26:28Z</time>
      </trkpt>
      <trkpt lat="45.70881" lon="4.73669">
        <ele>311.6</ele>
        <time>2025-12-15T15:26:29Z</time>
      </trkpt>
      <trkpt lat="45.70884" lon="4.73676">
        <ele>311.8</ele>
        <time>2025-12-15T15:26:30Z</time>
      </trkpt>
      <trkpt lat="45.70888" lon="4.73681">
        <ele>311.8</ele>
        <time>2025-12-15T15:26:31Z</time>
      </trkpt>
      <trkpt lat="45.70892" lon="4.73685">
        <ele>311.8</ele>
        <time>2025-12-15T15:26:32Z</time>
      </trkpt>
      <trkpt lat="45.70897" lon="4.73689">
        <ele>312</ele>
        <time>2025-12-15T15:26:33Z</time>
      </trkpt>
      <trkpt lat="45.70902" lon="4.73691">
        <ele>312.2</ele>
        <time>2025-12-15T15:26:34Z</time>
      </trkpt>
      <trkpt lat="45.70907" lon="4.73693">
        <ele>312.2</ele>
        <time>2025-12-15T15:26:35Z</time>
      </trkpt>
      <trkpt lat="45.70912" lon="4.73695">
        <ele>312.2</ele>
        <time>2025-12-15T15:26:36Z</time>
      </trkpt>
      <trkpt lat="45.70917" lon="4.73698">
        <ele>312.2</ele>
        <time>2025-12-15T15:26:37Z</time>
      </trkpt>
      <trkpt lat="45.70922" lon="4.73703">
        <ele>312.2</ele>
        <time>2025-12-15T15:26:38Z</time>
      </trkpt>
      <trkpt lat="45.70926" lon="4.73708">
        <ele>312.2</ele>
        <time>2025-12-15T15:26:39Z</time>
      </trkpt>
      <trkpt lat="45.7093" lon="4.73714">
        <ele>312.4</ele>
        <time>2025-12-15T15:26:40Z</time>
      </trkpt>
      <trkpt lat="45.70935" lon="4.73719">
        <ele>312.4</ele>
        <time>2025-12-15T15:26:41Z</time>
      </trkpt>
      <trkpt lat="45.70939" lon="4.73724">
        <ele>312.4</ele>
        <time>2025-12-15T15:26:42Z</time>
      </trkpt>
      <trkpt lat="45.70944" lon="4.73729">
        <ele>312.4</ele>
        <time>2025-12-15T15:26:43Z</time>
      </trkpt>
      <trkpt lat="45.70948" lon="4.73735">
        <ele>312.4</ele>
        <time>2025-12-15T15:26:44Z</time>
      </trkpt>
      <trkpt lat="45.70952" lon="4.73741">
        <ele>312.4</ele>
        <time>2025-12-15T15:26:45Z</time>
      </trkpt>
      <trkpt lat="45.70956" lon="4.73746">
        <ele>312.4</ele>
        <time>2025-12-15T15:26:46Z</time>
      </trkpt>
      <trkpt lat="45.7096" lon="4.73751">
        <ele>312.4</ele>
        <time>2025-12-15T15:26:47Z</time>
      </trkpt>
      <trkpt lat="45.70965" lon="4.73756">
        <ele>312.4</ele>
        <time>2025-12-15T15:26:48Z</time>
      </trkpt>
      <trkpt lat="45.70969" lon="4.73761">
        <ele>312.4</ele>
        <time>2025-12-15T15:26:49Z</time>
      </trkpt>
      <trkpt lat="45.70973" lon="4.73765">
        <ele>312.6</ele>
        <time>2025-12-15T15:26:50Z</time>
      </trkpt>
      <trkpt lat="45.70977" lon="4.7377">
        <ele>312.8</ele>
        <time>2025-12-15T15:26:51Z</time>
      </trkpt>
      <trkpt lat="45.70981" lon="4.73775">
        <ele>313</ele>
        <time>2025-12-15T15:26:52Z</time>
      </trkpt>
      <trkpt lat="45.70985" lon="4.7378">
        <ele>313</ele>
        <time>2025-12-15T15:26:53Z</time>
      </trkpt>
      <trkpt lat="45.70989" lon="4.73785">
        <ele>313.2</ele>
        <time>2025-12-15T15:26:54Z</time>
      </trkpt>
      <trkpt lat="45.70994" lon="4.73791">
        <ele>313.4</ele>
        <time>2025-12-15T15:26:55Z</time>
      </trkpt>
      <trkpt lat="45.70998" lon="4.73795">
        <ele>313.6</ele>
        <time>2025-12-15T15:26:56Z</time>
      </trkpt>
      <trkpt lat="45.71002" lon="4.738">
        <ele>313.8</ele>
        <time>2025-12-15T15:26:57Z</time>
      </trkpt>
      <trkpt lat="45.71007" lon="4.73805">
        <ele>314</ele>
        <time>2025-12-15T15:26:58Z</time>
      </trkpt>
      <trkpt lat="45.71011" lon="4.7381">
        <ele>314.2</ele>
        <time>2025-12-15T15:26:59Z</time>
      </trkpt>
      <trkpt lat="45.71016" lon="4.73815">
        <ele>314.4</ele>
        <time>2025-12-15T15:27:00Z</time>
      </trkpt>
      <trkpt lat="45.7102" lon="4.73819">
        <ele>314.4</ele>
        <time>2025-12-15T15:27:01Z</time>
      </trkpt>
      <trkpt lat="45.71025" lon="4.73824">
        <ele>314.6</ele>
        <time>2025-12-15T15:27:02Z</time>
      </trkpt>
      <trkpt lat="45.71029" lon="4.73829">
        <ele>314.8</ele>
        <time>2025-12-15T15:27:03Z</time>
      </trkpt>
      <trkpt lat="45.71034" lon="4.73834">
        <ele>314.8</ele>
        <time>2025-12-15T15:27:04Z</time>
      </trkpt>
      <trkpt lat="45.71038" lon="4.73839">
        <ele>314.8</ele>
        <time>2025-12-15T15:27:05Z</time>
      </trkpt>
      <trkpt lat="45.71043" lon="4.73844">
        <ele>315</ele>
        <time>2025-12-15T15:27:06Z</time>
      </trkpt>
      <trkpt lat="45.71047" lon="4.73849">
        <ele>315</ele>
        <time>2025-12-15T15:27:07Z</time>
      </trkpt>
      <trkpt lat="45.71052" lon="4.73853">
        <ele>315</ele>
        <time>2025-12-15T15:27:08Z</time>
      </trkpt>
      <trkpt lat="45.71056" lon="4.73858">
        <ele>315</ele>
        <time>2025-12-15T15:27:09Z</time>
      </trkpt>
      <trkpt lat="45.71061" lon="4.73862">
        <ele>315</ele>
        <time>2025-12-15T15:27:10Z</time>
      </trkpt>
      <trkpt lat="45.71066" lon="4.73866">
        <ele>315.2</ele>
        <time>2025-12-15T15:27:11Z</time>
      </trkpt>
      <trkpt lat="45.7107" lon="4.73869">
        <ele>315.2</ele>
        <time>2025-12-15T15:27:12Z</time>
      </trkpt>
      <trkpt lat="45.71075" lon="4.73874">
        <ele>315.4</ele>
        <time>2025-12-15T15:27:13Z</time>
      </trkpt>
      <trkpt lat="45.71079" lon="4.73878">
        <ele>315.6</ele>
        <time>2025-12-15T15:27:14Z</time>
      </trkpt>
      <trkpt lat="45.71083" lon="4.73883">
        <ele>315.8</ele>
        <time>2025-12-15T15:27:15Z</time>
      </trkpt>
      <trkpt lat="45.71087" lon="4.73889">
        <ele>316.2</ele>
        <time>2025-12-15T15:27:16Z</time>
      </trkpt>
      <trkpt lat="45.7109" lon="4.73895">
        <ele>316.4</ele>
        <time>2025-12-15T15:27:17Z</time>
      </trkpt>
      <trkpt lat="45.71094" lon="4.73901">
        <ele>316.6</ele>
        <time>2025-12-15T15:27:18Z</time>
      </trkpt>
      <trkpt lat="45.71098" lon="4.73906">
        <ele>316.8</ele>
        <time>2025-12-15T15:27:19Z</time>
      </trkpt>
      <trkpt lat="45.71103" lon="4.7391">
        <ele>316.8</ele>
        <time>2025-12-15T15:27:20Z</time>
      </trkpt>
      <trkpt lat="45.71109" lon="4.73912">
        <ele>316.8</ele>
        <time>2025-12-15T15:27:21Z</time>
      </trkpt>
      <trkpt lat="45.71115" lon="4.73913">
        <ele>317</ele>
        <time>2025-12-15T15:27:22Z</time>
      </trkpt>
      <trkpt lat="45.7112" lon="4.73915">
        <ele>317</ele>
        <time>2025-12-15T15:27:23Z</time>
      </trkpt>
      <trkpt lat="45.71126" lon="4.73918">
        <ele>317.2</ele>
        <time>2025-12-15T15:27:24Z</time>
      </trkpt>
      <trkpt lat="45.71131" lon="4.73923">
        <ele>317.4</ele>
        <time>2025-12-15T15:27:25Z</time>
      </trkpt>
      <trkpt lat="45.71136" lon="4.73928">
        <ele>317.6</ele>
        <time>2025-12-15T15:27:26Z</time>
      </trkpt>
      <trkpt lat="45.71141" lon="4.73933">
        <ele>317.8</ele>
        <time>2025-12-15T15:27:27Z</time>
      </trkpt>
      <trkpt lat="45.71145" lon="4.73938">
        <ele>318</ele>
        <time>2025-12-15T15:27:28Z</time>
      </trkpt>
      <trkpt lat="45.7115" lon="4.73942">
        <ele>318.2</ele>
        <time>2025-12-15T15:27:29Z</time>
      </trkpt>
      <trkpt lat="45.71155" lon="4.73946">
        <ele>318.4</ele>
        <time>2025-12-15T15:27:30Z</time>
      </trkpt>
      <trkpt lat="45.7116" lon="4.7395">
        <ele>318.6</ele>
        <time>2025-12-15T15:27:31Z</time>
      </trkpt>
      <trkpt lat="45.71165" lon="4.73955">
        <ele>318.6</ele>
        <time>2025-12-15T15:27:32Z</time>
      </trkpt>
      <trkpt lat="45.7117" lon="4.7396">
        <ele>318.6</ele>
        <time>2025-12-15T15:27:33Z</time>
      </trkpt>
      <trkpt lat="45.71172" lon="4.73967">
        <ele>318.8</ele>
        <time>2025-12-15T15:27:34Z</time>
      </trkpt>
      <trkpt lat="45.71174" lon="4.73975">
        <ele>318.8</ele>
        <time>2025-12-15T15:27:35Z</time>
      </trkpt>
      <trkpt lat="45.71173" lon="4.73983">
        <ele>319</ele>
        <time>2025-12-15T15:27:36Z</time>
      </trkpt>
      <trkpt lat="45.71172" lon="4.73991">
        <ele>319</ele>
        <time>2025-12-15T15:27:37Z</time>
      </trkpt>
      <trkpt lat="45.7117" lon="4.73999">
        <ele>319.2</ele>
        <time>2025-12-15T15:27:38Z</time>
      </trkpt>
      <trkpt lat="45.71169" lon="4.74007">
        <ele>319.2</ele>
        <time>2025-12-15T15:27:39Z</time>
      </trkpt>
      <trkpt lat="45.71168" lon="4.74015">
        <ele>319</ele>
        <time>2025-12-15T15:27:40Z</time>
      </trkpt>
      <trkpt lat="45.71166" lon="4.74023">
        <ele>318.8</ele>
        <time>2025-12-15T15:27:41Z</time>
      </trkpt>
      <trkpt lat="45.71166" lon="4.74031">
        <ele>318.4</ele>
        <time>2025-12-15T15:27:42Z</time>
      </trkpt>
      <trkpt lat="45.71165" lon="4.7404">
        <ele>318</ele>
        <time>2025-12-15T15:27:43Z</time>
      </trkpt>
      <trkpt lat="45.71164" lon="4.74048">
        <ele>317.6</ele>
        <time>2025-12-15T15:27:44Z</time>
      </trkpt>
      <trkpt lat="45.71163" lon="4.74056">
        <ele>317.6</ele>
        <time>2025-12-15T15:27:45Z</time>
      </trkpt>
      <trkpt lat="45.71162" lon="4.74065">
        <ele>317.4</ele>
        <time>2025-12-15T15:27:46Z</time>
      </trkpt>
      <trkpt lat="45.71162" lon="4.74074">
        <ele>317.6</ele>
        <time>2025-12-15T15:27:47Z</time>
      </trkpt>
      <trkpt lat="45.71162" lon="4.74083">
        <ele>317.8</ele>
        <time>2025-12-15T15:27:48Z</time>
      </trkpt>
      <trkpt lat="45.71163" lon="4.74092">
        <ele>318</ele>
        <time>2025-12-15T15:27:49Z</time>
      </trkpt>
      <trkpt lat="45.71164" lon="4.74102">
        <ele>318.2</ele>
        <time>2025-12-15T15:27:50Z</time>
      </trkpt>
      <trkpt lat="45.71165" lon="4.74111">
        <ele>318</ele>
        <time>2025-12-15T15:27:51Z</time>
      </trkpt>
      <trkpt lat="45.71167" lon="4.7412">
        <ele>317.8</ele>
        <time>2025-12-15T15:27:52Z</time>
      </trkpt>
      <trkpt lat="45.71169" lon="4.7413">
        <ele>317.6</ele>
        <time>2025-12-15T15:27:53Z</time>
      </trkpt>
      <trkpt lat="45.71171" lon="4.7414">
        <ele>317.2</ele>
        <time>2025-12-15T15:27:54Z</time>
      </trkpt>
      <trkpt lat="45.71173" lon="4.74149">
        <ele>317</ele>
        <time>2025-12-15T15:27:55Z</time>
      </trkpt>
      <trkpt lat="45.71174" lon="4.74159">
        <ele>316.6</ele>
        <time>2025-12-15T15:27:56Z</time>
      </trkpt>
      <trkpt lat="45.71176" lon="4.74169">
        <ele>316.2</ele>
        <time>2025-12-15T15:27:57Z</time>
      </trkpt>
      <trkpt lat="45.71178" lon="4.74179">
        <ele>316</ele>
        <time>2025-12-15T15:27:58Z</time>
      </trkpt>
      <trkpt lat="45.7118" lon="4.74189">
        <ele>315.6</ele>
        <time>2025-12-15T15:27:59Z</time>
      </trkpt>
      <trkpt lat="45.71182" lon="4.74199">
        <ele>315.4</ele>
        <time>2025-12-15T15:28:00Z</time>
      </trkpt>
      <trkpt lat="45.71183" lon="4.74208">
        <ele>315.2</ele>
        <time>2025-12-15T15:28:01Z</time>
      </trkpt>
      <trkpt lat="45.71184" lon="4.74218">
        <ele>315</ele>
        <time>2025-12-15T15:28:02Z</time>
      </trkpt>
      <trkpt lat="45.71186" lon="4.74227">
        <ele>315</ele>
        <time>2025-12-15T15:28:03Z</time>
      </trkpt>
      <trkpt lat="45.71188" lon="4.74236">
        <ele>314.8</ele>
        <time>2025-12-15T15:28:04Z</time>
      </trkpt>
      <trkpt lat="45.71189" lon="4.74245">
        <ele>314.6</ele>
        <time>2025-12-15T15:28:05Z</time>
      </trkpt>
      <trkpt lat="45.7119" lon="4.74254">
        <ele>314.6</ele>
        <time>2025-12-15T15:28:06Z</time>
      </trkpt>
      <trkpt lat="45.71192" lon="4.74261">
        <ele>314.6</ele>
        <time>2025-12-15T15:28:07Z</time>
      </trkpt>
      <trkpt lat="45.71193" lon="4.74268">
        <ele>314.4</ele>
        <time>2025-12-15T15:28:08Z</time>
      </trkpt>
      <trkpt lat="45.71195" lon="4.74274">
        <ele>314.4</ele>
        <time>2025-12-15T15:28:09Z</time>
      </trkpt>
      <trkpt lat="45.71196" lon="4.74279">
        <ele>314.6</ele>
        <time>2025-12-15T15:28:10Z</time>
      </trkpt>
      <trkpt lat="45.71198" lon="4.74285">
        <ele>314.8</ele>
        <time>2025-12-15T15:28:11Z</time>
      </trkpt>
      <trkpt lat="45.712" lon="4.7429">
        <ele>315</ele>
        <time>2025-12-15T15:28:12Z</time>
      </trkpt>
      <trkpt lat="45.71201" lon="4.74294">
        <ele>315.2</ele>
        <time>2025-12-15T15:28:13Z</time>
      </trkpt>
      <trkpt lat="45.71203" lon="4.74299">
        <ele>315.4</ele>
        <time>2025-12-15T15:28:14Z</time>
      </trkpt>
      <trkpt lat="45.71205" lon="4.74305">
        <ele>315.6</ele>
        <time>2025-12-15T15:28:15Z</time>
      </trkpt>
      <trkpt lat="45.71207" lon="4.7431">
        <ele>315.8</ele>
        <time>2025-12-15T15:28:16Z</time>
      </trkpt>
      <trkpt lat="45.71209" lon="4.74316">
        <ele>315.8</ele>
        <time>2025-12-15T15:28:17Z</time>
      </trkpt>
      <trkpt lat="45.7121" lon="4.74322">
        <ele>315.8</ele>
        <time>2025-12-15T15:28:18Z</time>
      </trkpt>
      <trkpt lat="45.71212" lon="4.74328">
        <ele>315.8</ele>
        <time>2025-12-15T15:28:19Z</time>
      </trkpt>
      <trkpt lat="45.71214" lon="4.74335">
        <ele>315.8</ele>
        <time>2025-12-15T15:28:20Z</time>
      </trkpt>
      <trkpt lat="45.71216" lon="4.74342">
        <ele>315.8</ele>
        <time>2025-12-15T15:28:21Z</time>
      </trkpt>
      <trkpt lat="45.71217" lon="4.74349">
        <ele>315.8</ele>
        <time>2025-12-15T15:28:22Z</time>
      </trkpt>
      <trkpt lat="45.71218" lon="4.74356">
        <ele>315.8</ele>
        <time>2025-12-15T15:28:23Z</time>
      </trkpt>
      <trkpt lat="45.71219" lon="4.74363">
        <ele>315.8</ele>
        <time>2025-12-15T15:28:24Z</time>
      </trkpt>
      <trkpt lat="45.71221" lon="4.74369">
        <ele>315.8</ele>
        <time>2025-12-15T15:28:25Z</time>
      </trkpt>
      <trkpt lat="45.71222" lon="4.74376">
        <ele>316</ele>
        <time>2025-12-15T15:28:26Z</time>
      </trkpt>
      <trkpt lat="45.71223" lon="4.74383">
        <ele>316</ele>
        <time>2025-12-15T15:28:27Z</time>
      </trkpt>
      <trkpt lat="45.71224" lon="4.74389">
        <ele>316.2</ele>
        <time>2025-12-15T15:28:28Z</time>
      </trkpt>
      <trkpt lat="45.71225" lon="4.74395">
        <ele>316.4</ele>
        <time>2025-12-15T15:28:29Z</time>
      </trkpt>
      <trkpt lat="45.71225" lon="4.74402">
        <ele>316.6</ele>
        <time>2025-12-15T15:28:30Z</time>
      </trkpt>
      <trkpt lat="45.71225" lon="4.74408">
        <ele>316.8</ele>
        <time>2025-12-15T15:28:31Z</time>
      </trkpt>
      <trkpt lat="45.71226" lon="4.74415">
        <ele>317</ele>
        <time>2025-12-15T15:28:32Z</time>
      </trkpt>
      <trkpt lat="45.71225" lon="4.74422">
        <ele>317.2</ele>
        <time>2025-12-15T15:28:33Z</time>
      </trkpt>
      <trkpt lat="45.71225" lon="4.7443">
        <ele>317.4</ele>
        <time>2025-12-15T15:28:34Z</time>
      </trkpt>
      <trkpt lat="45.71225" lon="4.74436">
        <ele>317.6</ele>
        <time>2025-12-15T15:28:35Z</time>
      </trkpt>
      <trkpt lat="45.71224" lon="4.74443">
        <ele>317.8</ele>
        <time>2025-12-15T15:28:36Z</time>
      </trkpt>
      <trkpt lat="45.71224" lon="4.74449">
        <ele>318</ele>
        <time>2025-12-15T15:28:37Z</time>
      </trkpt>
      <trkpt lat="45.71224" lon="4.74455">
        <ele>318.2</ele>
        <time>2025-12-15T15:28:38Z</time>
      </trkpt>
      <trkpt lat="45.71223" lon="4.74461">
        <ele>318.6</ele>
        <time>2025-12-15T15:28:39Z</time>
      </trkpt>
      <trkpt lat="45.71223" lon="4.74466">
        <ele>319</ele>
        <time>2025-12-15T15:28:40Z</time>
      </trkpt>
      <trkpt lat="45.71223" lon="4.74471">
        <ele>319.2</ele>
        <time>2025-12-15T15:28:41Z</time>
      </trkpt>
      <trkpt lat="45.71222" lon="4.74477">
        <ele>319.4</ele>
        <time>2025-12-15T15:28:42Z</time>
      </trkpt>
      <trkpt lat="45.71222" lon="4.74483">
        <ele>319.4</ele>
        <time>2025-12-15T15:28:43Z</time>
      </trkpt>
      <trkpt lat="45.71222" lon="4.74489">
        <ele>319.4</ele>
        <time>2025-12-15T15:28:44Z</time>
      </trkpt>
      <trkpt lat="45.71222" lon="4.74495">
        <ele>319.4</ele>
        <time>2025-12-15T15:28:45Z</time>
      </trkpt>
      <trkpt lat="45.71222" lon="4.74502">
        <ele>319.2</ele>
        <time>2025-12-15T15:28:46Z</time>
      </trkpt>
      <trkpt lat="45.7122" lon="4.74509">
        <ele>319.2</ele>
        <time>2025-12-15T15:28:47Z</time>
      </trkpt>
      <trkpt lat="45.71219" lon="4.74516">
        <ele>319.2</ele>
        <time>2025-12-15T15:28:48Z</time>
      </trkpt>
      <trkpt lat="45.71218" lon="4.74523">
        <ele>319.2</ele>
        <time>2025-12-15T15:28:49Z</time>
      </trkpt>
      <trkpt lat="45.71216" lon="4.74529">
        <ele>319.2</ele>
        <time>2025-12-15T15:28:50Z</time>
      </trkpt>
      <trkpt lat="45.71214" lon="4.74536">
        <ele>319.2</ele>
        <time>2025-12-15T15:28:51Z</time>
      </trkpt>
      <trkpt lat="45.71213" lon="4.74542">
        <ele>319</ele>
        <time>2025-12-15T15:28:52Z</time>
      </trkpt>
      <trkpt lat="45.71212" lon="4.74548">
        <ele>318.8</ele>
        <time>2025-12-15T15:28:53Z</time>
      </trkpt>
      <trkpt lat="45.71211" lon="4.74553">
        <ele>318.8</ele>
        <time>2025-12-15T15:28:54Z</time>
      </trkpt>
      <trkpt lat="45.7121" lon="4.74557">
        <ele>318.6</ele>
        <time>2025-12-15T15:28:55Z</time>
      </trkpt>
      <trkpt lat="45.71209" lon="4.74559">
        <ele>318.6</ele>
        <time>2025-12-15T15:28:56Z</time>
      </trkpt>
      <trkpt lat="45.71209" lon="4.7456">
        <ele>318.8</ele>
        <time>2025-12-15T15:28:57Z</time>
      </trkpt>
      <trkpt lat="45.71209" lon="4.7456">
        <ele>318.8</ele>
        <time>2025-12-15T15:28:58Z</time>
      </trkpt>
      <trkpt lat="45.71208" lon="4.74561">
        <ele>319</ele>
        <time>2025-12-15T15:28:59Z</time>
      </trkpt>
      <trkpt lat="45.71208" lon="4.74563">
        <ele>319.2</ele>
        <time>2025-12-15T15:29:00Z</time>
      </trkpt>
      <trkpt lat="45.71208" lon="4.74567">
        <ele>319.4</ele>
        <time>2025-12-15T15:29:01Z</time>
      </trkpt>
      <trkpt lat="45.71207" lon="4.74572">
        <ele>319.4</ele>
        <time>2025-12-15T15:29:02Z</time>
      </trkpt>
      <trkpt lat="45.71206" lon="4.74578">
        <ele>319.4</ele>
        <time>2025-12-15T15:29:03Z</time>
      </trkpt>
      <trkpt lat="45.71205" lon="4.74583">
        <ele>319.2</ele>
        <time>2025-12-15T15:29:04Z</time>
      </trkpt>
      <trkpt lat="45.71205" lon="4.7459">
        <ele>319</ele>
        <time>2025-12-15T15:29:05Z</time>
      </trkpt>
      <trkpt lat="45.71204" lon="4.74597">
        <ele>318.6</ele>
        <time>2025-12-15T15:29:06Z</time>
      </trkpt>
      <trkpt lat="45.71204" lon="4.74604">
        <ele>318.4</ele>
        <time>2025-12-15T15:29:07Z</time>
      </trkpt>
      <trkpt lat="45.71203" lon="4.74612">
        <ele>318.2</ele>
        <time>2025-12-15T15:29:08Z</time>
      </trkpt>
      <trkpt lat="45.71202" lon="4.74619">
        <ele>318</ele>
        <time>2025-12-15T15:29:09Z</time>
      </trkpt>
      <trkpt lat="45.71203" lon="4.74627">
        <ele>317.8</ele>
        <time>2025-12-15T15:29:10Z</time>
      </trkpt>
      <trkpt lat="45.71203" lon="4.74635">
        <ele>317.6</ele>
        <time>2025-12-15T15:29:11Z</time>
      </trkpt>
      <trkpt lat="45.71204" lon="4.74643">
        <ele>317.2</ele>
        <time>2025-12-15T15:29:12Z</time>
      </trkpt>
      <trkpt lat="45.71203" lon="4.7465">
        <ele>317</ele>
        <time>2025-12-15T15:29:13Z</time>
      </trkpt>
      <trkpt lat="45.71203" lon="4.74658">
        <ele>316.8</ele>
        <time>2025-12-15T15:29:14Z</time>
      </trkpt>
      <trkpt lat="45.71203" lon="4.74666">
        <ele>316.6</ele>
        <time>2025-12-15T15:29:15Z</time>
      </trkpt>
      <trkpt lat="45.71202" lon="4.74674">
        <ele>316.6</ele>
        <time>2025-12-15T15:29:16Z</time>
      </trkpt>
      <trkpt lat="45.71202" lon="4.74682">
        <ele>316.4</ele>
        <time>2025-12-15T15:29:17Z</time>
      </trkpt>
      <trkpt lat="45.71201" lon="4.7469">
        <ele>316.4</ele>
        <time>2025-12-15T15:29:18Z</time>
      </trkpt>
      <trkpt lat="45.71199" lon="4.74698">
        <ele>316.2</ele>
        <time>2025-12-15T15:29:19Z</time>
      </trkpt>
      <trkpt lat="45.71199" lon="4.74707">
        <ele>316</ele>
        <time>2025-12-15T15:29:20Z</time>
      </trkpt>
      <trkpt lat="45.71198" lon="4.74715">
        <ele>315.8</ele>
        <time>2025-12-15T15:29:21Z</time>
      </trkpt>
      <trkpt lat="45.71198" lon="4.74723">
        <ele>315.4</ele>
        <time>2025-12-15T15:29:22Z</time>
      </trkpt>
      <trkpt lat="45.71198" lon="4.74732">
        <ele>315</ele>
        <time>2025-12-15T15:29:23Z</time>
      </trkpt>
      <trkpt lat="45.71198" lon="4.7474">
        <ele>314.8</ele>
        <time>2025-12-15T15:29:24Z</time>
      </trkpt>
      <trkpt lat="45.712" lon="4.74747">
        <ele>314.6</ele>
        <time>2025-12-15T15:29:25Z</time>
      </trkpt>
      <trkpt lat="45.71203" lon="4.74754">
        <ele>314.4</ele>
        <time>2025-12-15T15:29:26Z</time>
      </trkpt>
      <trkpt lat="45.71207" lon="4.74762">
        <ele>314.4</ele>
        <time>2025-12-15T15:29:27Z</time>
      </trkpt>
      <trkpt lat="45.71209" lon="4.74769">
        <ele>314.4</ele>
        <time>2025-12-15T15:29:28Z</time>
      </trkpt>
      <trkpt lat="45.71212" lon="4.74777">
        <ele>314.2</ele>
        <time>2025-12-15T15:29:29Z</time>
      </trkpt>
      <trkpt lat="45.71215" lon="4.74785">
        <ele>314.2</ele>
        <time>2025-12-15T15:29:30Z</time>
      </trkpt>
      <trkpt lat="45.71217" lon="4.74794">
        <ele>314.2</ele>
        <time>2025-12-15T15:29:31Z</time>
      </trkpt>
      <trkpt lat="45.71219" lon="4.74802">
        <ele>314.2</ele>
        <time>2025-12-15T15:29:32Z</time>
      </trkpt>
      <trkpt lat="45.71222" lon="4.7481">
        <ele>314.2</ele>
        <time>2025-12-15T15:29:33Z</time>
      </trkpt>
      <trkpt lat="45.71224" lon="4.74819">
        <ele>314.4</ele>
        <time>2025-12-15T15:29:34Z</time>
      </trkpt>
      <trkpt lat="45.71227" lon="4.74827">
        <ele>314.4</ele>
        <time>2025-12-15T15:29:35Z</time>
      </trkpt>
      <trkpt lat="45.71229" lon="4.74836">
        <ele>314.4</ele>
        <time>2025-12-15T15:29:36Z</time>
      </trkpt>
      <trkpt lat="45.71232" lon="4.74845">
        <ele>314.6</ele>
        <time>2025-12-15T15:29:37Z</time>
      </trkpt>
      <trkpt lat="45.71233" lon="4.74853">
        <ele>314.6</ele>
        <time>2025-12-15T15:29:38Z</time>
      </trkpt>
      <trkpt lat="45.71233" lon="4.74862">
        <ele>314.8</ele>
        <time>2025-12-15T15:29:39Z</time>
      </trkpt>
      <trkpt lat="45.71233" lon="4.74871">
        <ele>314.8</ele>
        <time>2025-12-15T15:29:40Z</time>
      </trkpt>
      <trkpt lat="45.71232" lon="4.74879">
        <ele>314.8</ele>
        <time>2025-12-15T15:29:41Z</time>
      </trkpt>
      <trkpt lat="45.71231" lon="4.74887">
        <ele>315</ele>
        <time>2025-12-15T15:29:42Z</time>
      </trkpt>
      <trkpt lat="45.7123" lon="4.74895">
        <ele>315</ele>
        <time>2025-12-15T15:29:43Z</time>
      </trkpt>
      <trkpt lat="45.71229" lon="4.74901">
        <ele>315.2</ele>
        <time>2025-12-15T15:29:44Z</time>
      </trkpt>
      <trkpt lat="45.71228" lon="4.74908">
        <ele>315.4</ele>
        <time>2025-12-15T15:29:45Z</time>
      </trkpt>
      <trkpt lat="45.71227" lon="4.74914">
        <ele>315.8</ele>
        <time>2025-12-15T15:29:46Z</time>
      </trkpt>
      <trkpt lat="45.71225" lon="4.74919">
        <ele>316.2</ele>
        <time>2025-12-15T15:29:47Z</time>
      </trkpt>
      <trkpt lat="45.71222" lon="4.74924">
        <ele>316.6</ele>
        <time>2025-12-15T15:29:48Z</time>
      </trkpt>
      <trkpt lat="45.7122" lon="4.74928">
        <ele>316.8</ele>
        <time>2025-12-15T15:29:49Z</time>
      </trkpt>
      <trkpt lat="45.71217" lon="4.74931">
        <ele>317</ele>
        <time>2025-12-15T15:29:50Z</time>
      </trkpt>
      <trkpt lat="45.71213" lon="4.74933">
        <ele>317</ele>
        <time>2025-12-15T15:29:51Z</time>
      </trkpt>
      <trkpt lat="45.71209" lon="4.74936">
        <ele>317.2</ele>
        <time>2025-12-15T15:29:52Z</time>
      </trkpt>
      <trkpt lat="45.71207" lon="4.74939">
        <ele>317.2</ele>
        <time>2025-12-15T15:29:53Z</time>
      </trkpt>
      <trkpt lat="45.71203" lon="4.74942">
        <ele>317</ele>
        <time>2025-12-15T15:29:54Z</time>
      </trkpt>
      <trkpt lat="45.71199" lon="4.74945">
        <ele>316.8</ele>
        <time>2025-12-15T15:29:55Z</time>
      </trkpt>
      <trkpt lat="45.71194" lon="4.74947">
        <ele>316.6</ele>
        <time>2025-12-15T15:29:56Z</time>
      </trkpt>
      <trkpt lat="45.71188" lon="4.7495">
        <ele>316</ele>
        <time>2025-12-15T15:29:57Z</time>
      </trkpt>
      <trkpt lat="45.71182" lon="4.74952">
        <ele>315.8</ele>
        <time>2025-12-15T15:29:58Z</time>
      </trkpt>
      <trkpt lat="45.71177" lon="4.74955">
        <ele>315.4</ele>
        <time>2025-12-15T15:29:59Z</time>
      </trkpt>
      <trkpt lat="45.71172" lon="4.74958">
        <ele>315.2</ele>
        <time>2025-12-15T15:30:00Z</time>
      </trkpt>
      <trkpt lat="45.71167" lon="4.7496">
        <ele>315</ele>
        <time>2025-12-15T15:30:01Z</time>
      </trkpt>
      <trkpt lat="45.71162" lon="4.74962">
        <ele>315</ele>
        <time>2025-12-15T15:30:02Z</time>
      </trkpt>
      <trkpt lat="45.71157" lon="4.74965">
        <ele>314.8</ele>
        <time>2025-12-15T15:30:03Z</time>
      </trkpt>
      <trkpt lat="45.71152" lon="4.74968">
        <ele>314.6</ele>
        <time>2025-12-15T15:30:04Z</time>
      </trkpt>
      <trkpt lat="45.71146" lon="4.74972">
        <ele>314.2</ele>
        <time>2025-12-15T15:30:05Z</time>
      </trkpt>
      <trkpt lat="45.71142" lon="4.74978">
        <ele>313.8</ele>
        <time>2025-12-15T15:30:06Z</time>
      </trkpt>
      <trkpt lat="45.7114" lon="4.74985">
        <ele>313.2</ele>
        <time>2025-12-15T15:30:07Z</time>
      </trkpt>
      <trkpt lat="45.71139" lon="4.74994">
        <ele>312.8</ele>
        <time>2025-12-15T15:30:08Z</time>
      </trkpt>
      <trkpt lat="45.71138" lon="4.75003">
        <ele>312.6</ele>
        <time>2025-12-15T15:30:09Z</time>
      </trkpt>
      <trkpt lat="45.71136" lon="4.75012">
        <ele>312.2</ele>
        <time>2025-12-15T15:30:10Z</time>
      </trkpt>
      <trkpt lat="45.71134" lon="4.75021">
        <ele>312</ele>
        <time>2025-12-15T15:30:11Z</time>
      </trkpt>
      <trkpt lat="45.71132" lon="4.75031">
        <ele>311.6</ele>
        <time>2025-12-15T15:30:12Z</time>
      </trkpt>
      <trkpt lat="45.7113" lon="4.75041">
        <ele>311</ele>
        <time>2025-12-15T15:30:13Z</time>
      </trkpt>
      <trkpt lat="45.71127" lon="4.75051">
        <ele>310.2</ele>
        <time>2025-12-15T15:30:14Z</time>
      </trkpt>
      <trkpt lat="45.71124" lon="4.75061">
        <ele>309.4</ele>
        <time>2025-12-15T15:30:15Z</time>
      </trkpt>
      <trkpt lat="45.7112" lon="4.7507">
        <ele>308.4</ele>
        <time>2025-12-15T15:30:16Z</time>
      </trkpt>
      <trkpt lat="45.71115" lon="4.75081">
        <ele>307.4</ele>
        <time>2025-12-15T15:30:17Z</time>
      </trkpt>
      <trkpt lat="45.71111" lon="4.75093">
        <ele>306.4</ele>
        <time>2025-12-15T15:30:18Z</time>
      </trkpt>
      <trkpt lat="45.71108" lon="4.75107">
        <ele>305.4</ele>
        <time>2025-12-15T15:30:19Z</time>
      </trkpt>
      <trkpt lat="45.71106" lon="4.75121">
        <ele>304.2</ele>
        <time>2025-12-15T15:30:20Z</time>
      </trkpt>
      <trkpt lat="45.71106" lon="4.75137">
        <ele>302.6</ele>
        <time>2025-12-15T15:30:21Z</time>
      </trkpt>
      <trkpt lat="45.71107" lon="4.75153">
        <ele>301.2</ele>
        <time>2025-12-15T15:30:22Z</time>
      </trkpt>
      <trkpt lat="45.7111" lon="4.75169">
        <ele>299.6</ele>
        <time>2025-12-15T15:30:23Z</time>
      </trkpt>
      <trkpt lat="45.71114" lon="4.75186">
        <ele>298.2</ele>
        <time>2025-12-15T15:30:24Z</time>
      </trkpt>
      <trkpt lat="45.71116" lon="4.75203">
        <ele>297</ele>
        <time>2025-12-15T15:30:25Z</time>
      </trkpt>
      <trkpt lat="45.71117" lon="4.75219">
        <ele>296</ele>
        <time>2025-12-15T15:30:26Z</time>
      </trkpt>
      <trkpt lat="45.71116" lon="4.75234">
        <ele>295.4</ele>
        <time>2025-12-15T15:30:27Z</time>
      </trkpt>
      <trkpt lat="45.71114" lon="4.75248">
        <ele>295</ele>
        <time>2025-12-15T15:30:28Z</time>
      </trkpt>
      <trkpt lat="45.71112" lon="4.75261">
        <ele>295</ele>
        <time>2025-12-15T15:30:29Z</time>
      </trkpt>
      <trkpt lat="45.71108" lon="4.75272">
        <ele>295.4</ele>
        <time>2025-12-15T15:30:30Z</time>
      </trkpt>
      <trkpt lat="45.71104" lon="4.75282">
        <ele>296</ele>
        <time>2025-12-15T15:30:31Z</time>
      </trkpt>
      <trkpt lat="45.711" lon="4.7529">
        <ele>297</ele>
        <time>2025-12-15T15:30:32Z</time>
      </trkpt>
      <trkpt lat="45.71097" lon="4.75297">
        <ele>298</ele>
        <time>2025-12-15T15:30:33Z</time>
      </trkpt>
      <trkpt lat="45.71094" lon="4.75303">
        <ele>299.2</ele>
        <time>2025-12-15T15:30:34Z</time>
      </trkpt>
      <trkpt lat="45.71092" lon="4.75309">
        <ele>300.4</ele>
        <time>2025-12-15T15:30:35Z</time>
      </trkpt>
      <trkpt lat="45.71089" lon="4.75315">
        <ele>301.4</ele>
        <time>2025-12-15T15:30:36Z</time>
      </trkpt>
      <trkpt lat="45.71087" lon="4.7532">
        <ele>302.4</ele>
        <time>2025-12-15T15:30:37Z</time>
      </trkpt>
      <trkpt lat="45.71085" lon="4.75325">
        <ele>303.4</ele>
        <time>2025-12-15T15:30:38Z</time>
      </trkpt>
      <trkpt lat="45.71083" lon="4.7533">
        <ele>304.2</ele>
        <time>2025-12-15T15:30:39Z</time>
      </trkpt>
      <trkpt lat="45.71082" lon="4.75335">
        <ele>304.8</ele>
        <time>2025-12-15T15:30:40Z</time>
      </trkpt>
      <trkpt lat="45.7108" lon="4.7534">
        <ele>305.6</ele>
        <time>2025-12-15T15:30:41Z</time>
      </trkpt>
      <trkpt lat="45.71078" lon="4.75345">
        <ele>306.2</ele>
        <time>2025-12-15T15:30:42Z</time>
      </trkpt>
      <trkpt lat="45.71076" lon="4.75351">
        <ele>306.8</ele>
        <time>2025-12-15T15:30:43Z</time>
      </trkpt>
      <trkpt lat="45.71075" lon="4.75356">
        <ele>307.4</ele>
        <time>2025-12-15T15:30:44Z</time>
      </trkpt>
      <trkpt lat="45.71073" lon="4.75361">
        <ele>308</ele>
        <time>2025-12-15T15:30:45Z</time>
      </trkpt>
      <trkpt lat="45.71072" lon="4.75367">
        <ele>308.8</ele>
        <time>2025-12-15T15:30:46Z</time>
      </trkpt>
      <trkpt lat="45.71071" lon="4.75373">
        <ele>309.4</ele>
        <time>2025-12-15T15:30:47Z</time>
      </trkpt>
      <trkpt lat="45.71069" lon="4.75379">
        <ele>310</ele>
        <time>2025-12-15T15:30:48Z</time>
      </trkpt>
      <trkpt lat="45.71068" lon="4.75385">
        <ele>310.6</ele>
        <time>2025-12-15T15:30:49Z</time>
      </trkpt>
      <trkpt lat="45.71066" lon="4.75391">
        <ele>311</ele>
        <time>2025-12-15T15:30:50Z</time>
      </trkpt>
      <trkpt lat="45.71064" lon="4.75396">
        <ele>311.4</ele>
        <time>2025-12-15T15:30:51Z</time>
      </trkpt>
      <trkpt lat="45.71063" lon="4.75402">
        <ele>311.6</ele>
        <time>2025-12-15T15:30:52Z</time>
      </trkpt>
      <trkpt lat="45.71061" lon="4.75408">
        <ele>311.8</ele>
        <time>2025-12-15T15:30:53Z</time>
      </trkpt>
      <trkpt lat="45.7106" lon="4.75415">
        <ele>312</ele>
        <time>2025-12-15T15:30:54Z</time>
      </trkpt>
      <trkpt lat="45.71059" lon="4.75421">
        <ele>312.4</ele>
        <time>2025-12-15T15:30:55Z</time>
      </trkpt>
      <trkpt lat="45.71058" lon="4.75428">
        <ele>312.4</ele>
        <time>2025-12-15T15:30:56Z</time>
      </trkpt>
      <trkpt lat="45.71056" lon="4.75434">
        <ele>312.6</ele>
        <time>2025-12-15T15:30:57Z</time>
      </trkpt>
      <trkpt lat="45.71056" lon="4.75441">
        <ele>312.8</ele>
        <time>2025-12-15T15:30:58Z</time>
      </trkpt>
      <trkpt lat="45.71056" lon="4.75448">
        <ele>312.8</ele>
        <time>2025-12-15T15:30:59Z</time>
      </trkpt>
      <trkpt lat="45.71055" lon="4.75454">
        <ele>312.6</ele>
        <time>2025-12-15T15:31:00Z</time>
      </trkpt>
      <trkpt lat="45.71055" lon="4.75461">
        <ele>312.4</ele>
        <time>2025-12-15T15:31:01Z</time>
      </trkpt>
      <trkpt lat="45.71055" lon="4.75468">
        <ele>312.2</ele>
        <time>2025-12-15T15:31:02Z</time>
      </trkpt>
      <trkpt lat="45.71054" lon="4.75475">
        <ele>312</ele>
        <time>2025-12-15T15:31:03Z</time>
      </trkpt>
      <trkpt lat="45.71054" lon="4.75482">
        <ele>311.4</ele>
        <time>2025-12-15T15:31:04Z</time>
      </trkpt>
      <trkpt lat="45.71054" lon="4.7549">
        <ele>311.2</ele>
        <time>2025-12-15T15:31:05Z</time>
      </trkpt>
      <trkpt lat="45.71054" lon="4.75497">
        <ele>311</ele>
        <time>2025-12-15T15:31:06Z</time>
      </trkpt>
      <trkpt lat="45.71054" lon="4.75506">
        <ele>310.8</ele>
        <time>2025-12-15T15:31:07Z</time>
      </trkpt>
      <trkpt lat="45.71055" lon="4.75514">
        <ele>310.8</ele>
        <time>2025-12-15T15:31:08Z</time>
      </trkpt>
      <trkpt lat="45.71055" lon="4.75522">
        <ele>311</ele>
        <time>2025-12-15T15:31:09Z</time>
      </trkpt>
      <trkpt lat="45.71056" lon="4.7553">
        <ele>311.2</ele>
        <time>2025-12-15T15:31:10Z</time>
      </trkpt>
      <trkpt lat="45.71058" lon="4.75536">
        <ele>311.4</ele>
        <time>2025-12-15T15:31:11Z</time>
      </trkpt>
      <trkpt lat="45.71061" lon="4.7554">
        <ele>311.6</ele>
        <time>2025-12-15T15:31:12Z</time>
      </trkpt>
      <trkpt lat="45.71065" lon="4.75541">
        <ele>311.8</ele>
        <time>2025-12-15T15:31:13Z</time>
      </trkpt>
      <trkpt lat="45.71069" lon="4.75542">
        <ele>312.2</ele>
        <time>2025-12-15T15:31:14Z</time>
      </trkpt>
      <trkpt lat="45.71072" lon="4.75542">
        <ele>312.6</ele>
        <time>2025-12-15T15:31:15Z</time>
      </trkpt>
      <trkpt lat="45.71076" lon="4.75542">
        <ele>313.2</ele>
        <time>2025-12-15T15:31:16Z</time>
      </trkpt>
      <trkpt lat="45.7108" lon="4.75542">
        <ele>313.6</ele>
        <time>2025-12-15T15:31:17Z</time>
      </trkpt>
      <trkpt lat="45.71083" lon="4.75543">
        <ele>314</ele>
        <time>2025-12-15T15:31:18Z</time>
      </trkpt>
      <trkpt lat="45.71086" lon="4.75544">
        <ele>314.2</ele>
        <time>2025-12-15T15:31:19Z</time>
      </trkpt>
      <trkpt lat="45.71088" lon="4.75544">
        <ele>314.4</ele>
        <time>2025-12-15T15:31:20Z</time>
      </trkpt>
      <trkpt lat="45.71088" lon="4.75545">
        <ele>314.6</ele>
        <time>2025-12-15T15:31:21Z</time>
      </trkpt>
      <trkpt lat="45.71088" lon="4.75545">
        <ele>314.6</ele>
        <time>2025-12-15T15:31:22Z</time>
      </trkpt>
      <trkpt lat="45.71088" lon="4.75545">
        <ele>314.8</ele>
        <time>2025-12-15T15:31:23Z</time>
      </trkpt>
      <trkpt lat="45.71088" lon="4.75545">
        <ele>314.8</ele>
        <time>2025-12-15T15:31:24Z</time>
      </trkpt>
      <trkpt lat="45.71088" lon="4.75545">
        <ele>314.8</ele>
        <time>2025-12-15T15:31:25Z</time>
      </trkpt>
      <trkpt lat="45.71088" lon="4.75545">
        <ele>314.8</ele>
        <time>2025-12-15T15:31:26Z</time>
      </trkpt>
      <trkpt lat="45.71088" lon="4.75545">
        <ele>314.8</ele>
        <time>2025-12-15T15:31:27Z</time>
      </trkpt>
      <trkpt lat="45.71088" lon="4.75545">
        <ele>314.8</ele>
        <time>2025-12-15T15:31:28Z</time>
      </trkpt>
      <trkpt lat="45.71088" lon="4.75545">
        <ele>314.8</ele>
        <time>2025-12-15T15:31:29Z</time>
      </trkpt>
      <trkpt lat="45.71088" lon="4.75545">
        <ele>314.8</ele>
        <time>2025-12-15T15:31:30Z</time>
      </trkpt>
      <trkpt lat="45.71088" lon="4.75545">
        <ele>314.8</ele>
        <time>2025-12-15T15:31:31Z</time>
      </trkpt>
      <trkpt lat="45.71088" lon="4.75545">
        <ele>314.8</ele>
        <time>2025-12-15T15:31:32Z</time>
      </trkpt>
      <trkpt lat="45.71088" lon="4.75545">
        <ele>314.8</ele>
        <time>2025-12-15T15:31:33Z</time>
      </trkpt>
      <trkpt lat="45.71088" lon="4.75545">
        <ele>314.8</ele>
        <time>2025-12-15T15:31:34Z</time>
      </trkpt>
      <trkpt lat="45.71088" lon="4.75545">
        <ele>314.8</ele>
        <time>2025-12-15T15:31:35Z</time>
      </trkpt>
      <trkpt lat="45.71088" lon="4.75545">
        <ele>314.8</ele>
        <time>2025-12-15T15:31:36Z</time>
      </trkpt>
      <trkpt lat="45.71088" lon="4.75545">
        <ele>314.8</ele>
        <time>2025-12-15T15:31:37Z</time>
      </trkpt>
      <trkpt lat="45.71088" lon="4.75545">
        <ele>314.8</ele>
        <time>2025-12-15T15:31:38Z</time>
      </trkpt>
      <trkpt lat="45.71088" lon="4.75545">
        <ele>314.8</ele>
        <time>2025-12-15T15:31:39Z</time>
      </trkpt>
      <trkpt lat="45.71088" lon="4.75545">
        <ele>314.8</ele>
        <time>2025-12-15T15:31:40Z</time>
      </trkpt>
      <trkpt lat="45.71088" lon="4.75545">
        <ele>314.8</ele>
        <time>2025-12-15T15:31:41Z</time>
      </trkpt>
      <trkpt lat="45.71088" lon="4.75545">
        <ele>314.8</ele>
        <time>2025-12-15T15:31:42Z</time>
      </trkpt>
      <trkpt lat="45.71088" lon="4.75545">
        <ele>314.8</ele>
        <time>2025-12-15T15:31:43Z</time>
      </trkpt>
      <trkpt lat="45.71088" lon="4.75545">
        <ele>314.8</ele>
        <time>2025-12-15T15:31:44Z</time>
      </trkpt>
      <trkpt lat="45.71088" lon="4.75545">
        <ele>314.8</ele>
        <time>2025-12-15T15:31:45Z</time>
      </trkpt>
      <trkpt lat="45.71088" lon="4.75545">
        <ele>314.8</ele>
        <time>2025-12-15T15:31:46Z</time>
      </trkpt>
      <trkpt lat="45.71088" lon="4.75545">
        <ele>314.8</ele>
        <time>2025-12-15T15:31:47Z</time>
      </trkpt>
      <trkpt lat="45.71088" lon="4.75545">
        <ele>314.8</ele>
        <time>2025-12-15T15:31:48Z</time>
      </trkpt>
      <trkpt lat="45.71088" lon="4.75545">
        <ele>314.8</ele>
        <time>2025-12-15T15:31:49Z</time>
      </trkpt>
      <trkpt lat="45.71088" lon="4.75545">
        <ele>314.8</ele>
        <time>2025-12-15T15:31:50Z</time>
      </trkpt>
      <trkpt lat="45.71088" lon="4.75545">
        <ele>314.8</ele>
        <time>2025-12-15T15:31:51Z</time>
      </trkpt>
      <trkpt lat="45.71088" lon="4.75545">
        <ele>314.8</ele>
        <time>2025-12-15T15:31:52Z</time>
      </trkpt>
      <trkpt lat="45.71088" lon="4.75545">
        <ele>314.8</ele>
        <time>2025-12-15T15:31:53Z</time>
      </trkpt>
      <trkpt lat="45.71088" lon="4.75545">
        <ele>314.8</ele>
        <time>2025-12-15T15:31:54Z</time>
      </trkpt>
      <trkpt lat="45.71088" lon="4.75545">
        <ele>314.8</ele>
        <time>2025-12-15T15:31:55Z</time>
      </trkpt>
      <trkpt lat="45.71088" lon="4.75545">
        <ele>314.8</ele>
        <time>2025-12-15T15:31:56Z</time>
      </trkpt>
      <trkpt lat="45.71088" lon="4.75545">
        <ele>314.8</ele>
        <time>2025-12-15T15:31:57Z</time>
      </trkpt>
      <trkpt lat="45.71088" lon="4.75545">
        <ele>314.8</ele>
        <time>2025-12-15T15:31:58Z</time>
      </trkpt>
      <trkpt lat="45.71088" lon="4.75545">
        <ele>314.8</ele>
        <time>2025-12-15T15:31:59Z</time>
      </trkpt>
      <trkpt lat="45.71088" lon="4.75545">
        <ele>314.8</ele>
        <time>2025-12-15T15:32:00Z</time>
      </trkpt>
      <trkpt lat="45.71088" lon="4.75545">
        <ele>314.8</ele>
        <time>2025-12-15T15:32:01Z</time>
      </trkpt>
      <trkpt lat="45.71088" lon="4.75545">
        <ele>314.8</ele>
        <time>2025-12-15T15:32:02Z</time>
      </trkpt>
      <trkpt lat="45.71088" lon="4.75545">
        <ele>314.8</ele>
        <time>2025-12-15T15:32:03Z</time>
      </trkpt>
      <trkpt lat="45.71088" lon="4.75545">
        <ele>314.8</ele>
        <time>2025-12-15T15:32:04Z</time>
      </trkpt>
      <trkpt lat="45.71088" lon="4.75545">
        <ele>314.8</ele>
        <time>2025-12-15T15:32:05Z</time>
      </trkpt>
      <trkpt lat="45.71088" lon="4.75545">
        <ele>314.8</ele>
        <time>2025-12-15T15:32:06Z</time>
      </trkpt>
      <trkpt lat="45.71088" lon="4.75545">
        <ele>314.8</ele>
        <time>2025-12-15T15:32:07Z</time>
      </trkpt>
      <trkpt lat="45.71088" lon="4.75545">
        <ele>314.8</ele>
        <time>2025-12-15T15:32:08Z</time>
      </trkpt>
      <trkpt lat="45.71088" lon="4.75545">
        <ele>314.8</ele>
        <time>2025-12-15T15:32:09Z</time>
      </trkpt>
      <trkpt lat="45.71088" lon="4.75545">
        <ele>314.6</ele>
        <time>2025-12-15T15:32:10Z</time>
      </trkpt>
      <trkpt lat="45.71088" lon="4.75545">
        <ele>314.8</ele>
        <time>2025-12-15T15:32:11Z</time>
      </trkpt>
      <trkpt lat="45.71088" lon="4.75545">
        <ele>314.8</ele>
        <time>2025-12-15T15:32:12Z</time>
      </trkpt>
      <trkpt lat="45.71088" lon="4.75545">
        <ele>314.8</ele>
        <time>2025-12-15T15:32:13Z</time>
      </trkpt>
      <trkpt lat="45.71088" lon="4.75545">
        <ele>314.6</ele>
        <time>2025-12-15T15:32:14Z</time>
      </trkpt>
      <trkpt lat="45.71088" lon="4.75545">
        <ele>314.6</ele>
        <time>2025-12-15T15:32:15Z</time>
      </trkpt>
      <trkpt lat="45.71088" lon="4.75545">
        <ele>314.6</ele>
        <time>2025-12-15T15:32:16Z</time>
      </trkpt>
      <trkpt lat="45.71088" lon="4.75545">
        <ele>314.6</ele>
        <time>2025-12-15T15:32:17Z</time>
      </trkpt>
      <trkpt lat="45.71088" lon="4.75545">
        <ele>314.6</ele>
        <time>2025-12-15T15:32:18Z</time>
      </trkpt>
      <trkpt lat="45.71088" lon="4.75545">
        <ele>314.6</ele>
        <time>2025-12-15T15:32:19Z</time>
      </trkpt>
      <trkpt lat="45.71088" lon="4.75545">
        <ele>314.6</ele>
        <time>2025-12-15T15:32:20Z</time>
      </trkpt>
      <trkpt lat="45.71088" lon="4.75545">
        <ele>314.6</ele>
        <time>2025-12-15T15:32:21Z</time>
      </trkpt>
      <trkpt lat="45.71088" lon="4.75545">
        <ele>314.6</ele>
        <time>2025-12-15T15:32:22Z</time>
      </trkpt>
      <trkpt lat="45.71088" lon="4.75545">
        <ele>314.6</ele>
        <time>2025-12-15T15:32:23Z</time>
      </trkpt>
      <trkpt lat="45.71088" lon="4.75545">
        <ele>314.6</ele>
        <time>2025-12-15T15:32:24Z</time>
      </trkpt>
      <trkpt lat="45.71088" lon="4.75545">
        <ele>314.6</ele>
        <time>2025-12-15T15:32:25Z</time>
      </trkpt>
      <trkpt lat="45.71088" lon="4.75545">
        <ele>314.6</ele>
        <time>2025-12-15T15:32:26Z</time>
      </trkpt>
      <trkpt lat="45.71088" lon="4.75545">
        <ele>314.6</ele>
        <time>2025-12-15T15:32:27Z</time>
      </trkpt>
      <trkpt lat="45.71088" lon="4.75545">
        <ele>314.6</ele>
        <time>2025-12-15T15:32:28Z</time>
      </trkpt>
      <trkpt lat="45.71088" lon="4.75545">
        <ele>314.6</ele>
        <time>2025-12-15T15:32:29Z</time>
      </trkpt>
      <trkpt lat="45.71088" lon="4.75545">
        <ele>314.6</ele>
        <time>2025-12-15T15:32:30Z</time>
      </trkpt>
      <trkpt lat="45.71088" lon="4.75545">
        <ele>314.6</ele>
        <time>2025-12-15T15:32:31Z</time>
      </trkpt>
      <trkpt lat="45.71088" lon="4.75545">
        <ele>314.6</ele>
        <time>2025-12-15T15:32:32Z</time>
      </trkpt>
      <trkpt lat="45.71088" lon="4.75545">
        <ele>314.6</ele>
        <time>2025-12-15T15:32:33Z</time>
      </trkpt>
      <trkpt lat="45.71088" lon="4.75545">
        <ele>314.6</ele>
        <time>2025-12-15T15:32:34Z</time>
      </trkpt>
      <trkpt lat="45.71088" lon="4.75545">
        <ele>314.6</ele>
        <time>2025-12-15T15:32:35Z</time>
      </trkpt>
      <trkpt lat="45.71088" lon="4.75545">
        <ele>314.6</ele>
        <time>2025-12-15T15:32:36Z</time>
      </trkpt>
      <trkpt lat="45.71088" lon="4.75545">
        <ele>314.6</ele>
        <time>2025-12-15T15:32:37Z</time>
      </trkpt>
      <trkpt lat="45.71088" lon="4.75545">
        <ele>314.6</ele>
        <time>2025-12-15T15:32:38Z</time>
      </trkpt>
      <trkpt lat="45.71088" lon="4.75545">
        <ele>314.6</ele>
        <time>2025-12-15T15:32:39Z</time>
      </trkpt>
      <trkpt lat="45.71088" lon="4.75545">
        <ele>314.6</ele>
        <time>2025-12-15T15:32:40Z</time>
      </trkpt>
      <trkpt lat="45.71088" lon="4.75545">
        <ele>314.6</ele>
        <time>2025-12-15T15:32:41Z</time>
      </trkpt>
      <trkpt lat="45.71088" lon="4.75545">
        <ele>314.6</ele>
        <time>2025-12-15T15:32:42Z</time>
      </trkpt>
      <trkpt lat="45.71088" lon="4.75545">
        <ele>314.6</ele>
        <time>2025-12-15T15:32:43Z</time>
      </trkpt>
      <trkpt lat="45.71088" lon="4.75545">
        <ele>314.6</ele>
        <time>2025-12-15T15:32:44Z</time>
      </trkpt>
      <trkpt lat="45.71088" lon="4.75545">
        <ele>314.6</ele>
        <time>2025-12-15T15:32:45Z</time>
      </trkpt>
      <trkpt lat="45.71088" lon="4.75545">
        <ele>314.6</ele>
        <time>2025-12-15T15:32:46Z</time>
      </trkpt>
      <trkpt lat="45.71088" lon="4.75545">
        <ele>314.6</ele>
        <time>2025-12-15T15:32:47Z</time>
      </trkpt>
      <trkpt lat="45.71088" lon="4.75545">
        <ele>314.6</ele>
        <time>2025-12-15T15:32:48Z</time>
      </trkpt>
      <trkpt lat="45.71088" lon="4.75545">
        <ele>314.6</ele>
        <time>2025-12-15T15:32:49Z</time>
      </trkpt>
      <trkpt lat="45.71088" lon="4.75545">
        <ele>314.6</ele>
        <time>2025-12-15T15:32:50Z</time>
      </trkpt>
      <trkpt lat="45.71088" lon="4.75545">
        <ele>314.6</ele>
        <time>2025-12-15T15:32:51Z</time>
      </trkpt>
      <trkpt lat="45.71088" lon="4.75545">
        <ele>314.6</ele>
        <time>2025-12-15T15:32:52Z</time>
      </trkpt>
      <trkpt lat="45.71088" lon="4.75545">
        <ele>314.6</ele>
        <time>2025-12-15T15:32:53Z</time>
      </trkpt>
      <trkpt lat="45.71088" lon="4.75545">
        <ele>314.6</ele>
        <time>2025-12-15T15:32:54Z</time>
      </trkpt>
      <trkpt lat="45.71088" lon="4.75545">
        <ele>314.6</ele>
        <time>2025-12-15T15:32:55Z</time>
      </trkpt>
      <trkpt lat="45.71088" lon="4.75545">
        <ele>314.6</ele>
        <time>2025-12-15T15:32:56Z</time>
      </trkpt>
      <trkpt lat="45.71088" lon="4.75545">
        <ele>314.6</ele>
        <time>2025-12-15T15:32:57Z</time>
      </trkpt>
      <trkpt lat="45.71088" lon="4.75545">
        <ele>314.6</ele>
        <time>2025-12-15T15:32:58Z</time>
      </trkpt>
      <trkpt lat="45.71088" lon="4.75545">
        <ele>314.6</ele>
        <time>2025-12-15T15:32:59Z</time>
      </trkpt>
      <trkpt lat="45.71088" lon="4.75545">
        <ele>314.6</ele>
        <time>2025-12-15T15:33:00Z</time>
      </trkpt>
      <trkpt lat="45.71088" lon="4.75545">
        <ele>314.6</ele>
        <time>2025-12-15T15:33:01Z</time>
      </trkpt>
      <trkpt lat="45.71088" lon="4.75545">
        <ele>314.6</ele>
        <time>2025-12-15T15:33:02Z</time>
      </trkpt>
      <trkpt lat="45.71088" lon="4.75545">
        <ele>314.6</ele>
        <time>2025-12-15T15:33:03Z</time>
      </trkpt>
      <trkpt lat="45.71088" lon="4.75545">
        <ele>314.6</ele>
        <time>2025-12-15T15:33:04Z</time>
      </trkpt>
      <trkpt lat="45.71088" lon="4.75545">
        <ele>314.6</ele>
        <time>2025-12-15T15:33:05Z</time>
      </trkpt>
      <trkpt lat="45.71088" lon="4.75545">
        <ele>314.6</ele>
        <time>2025-12-15T15:33:06Z</time>
      </trkpt>
      <trkpt lat="45.71088" lon="4.75545">
        <ele>314.6</ele>
        <time>2025-12-15T15:33:07Z</time>
      </trkpt>
      <trkpt lat="45.71088" lon="4.75545">
        <ele>314.6</ele>
        <time>2025-12-15T15:33:08Z</time>
      </trkpt>
      <trkpt lat="45.71088" lon="4.75545">
        <ele>314.6</ele>
        <time>2025-12-15T15:33:09Z</time>
      </trkpt>
      <trkpt lat="45.71088" lon="4.75545">
        <ele>314.6</ele>
        <time>2025-12-15T15:33:10Z</time>
      </trkpt>
      <trkpt lat="45.71088" lon="4.75545">
        <ele>314.6</ele>
        <time>2025-12-15T15:33:11Z</time>
      </trkpt>
      <trkpt lat="45.71088" lon="4.75545">
        <ele>314.6</ele>
        <time>2025-12-15T15:33:12Z</time>
      </trkpt>
      <trkpt lat="45.71088" lon="4.75545">
        <ele>314.6</ele>
        <time>2025-12-15T15:33:13Z</time>
      </trkpt>
      <trkpt lat="45.71088" lon="4.75545">
        <ele>314.6</ele>
        <time>2025-12-15T15:33:14Z</time>
      </trkpt>
      <trkpt lat="45.71088" lon="4.75545">
        <ele>314.6</ele>
        <time>2025-12-15T15:33:15Z</time>
      </trkpt>
      <trkpt lat="45.71088" lon="4.75545">
        <ele>314.6</ele>
        <time>2025-12-15T15:33:16Z</time>
      </trkpt>
      <trkpt lat="45.71088" lon="4.75545">
        <ele>314.6</ele>
        <time>2025-12-15T15:33:17Z</time>
      </trkpt>
      <trkpt lat="45.71088" lon="4.75545">
        <ele>314.6</ele>
        <time>2025-12-15T15:33:18Z</time>
      </trkpt>
      <trkpt lat="45.71088" lon="4.75545">
        <ele>314.6</ele>
        <time>2025-12-15T15:33:19Z</time>
      </trkpt>
      <trkpt lat="45.71088" lon="4.75545">
        <ele>314.6</ele>
        <time>2025-12-15T15:33:20Z</time>
      </trkpt>
      <trkpt lat="45.71088" lon="4.75545">
        <ele>314.6</ele>
        <time>2025-12-15T15:33:21Z</time>
      </trkpt>
      <trkpt lat="45.71088" lon="4.75545">
        <ele>314.6</ele>
        <time>2025-12-15T15:33:22Z</time>
      </trkpt>
      <trkpt lat="45.71088" lon="4.75545">
        <ele>314.6</ele>
        <time>2025-12-15T15:33:23Z</time>
      </trkpt>
      <trkpt lat="45.71088" lon="4.75545">
        <ele>314.6</ele>
        <time>2025-12-15T15:33:24Z</time>
      </trkpt>
      <trkpt lat="45.71088" lon="4.75545">
        <ele>314.6</ele>
        <time>2025-12-15T15:33:25Z</time>
      </trkpt>
      <trkpt lat="45.71088" lon="4.75545">
        <ele>314.6</ele>
        <time>2025-12-15T15:33:26Z</time>
      </trkpt>
      <trkpt lat="45.71088" lon="4.75545">
        <ele>314.6</ele>
        <time>2025-12-15T15:33:27Z</time>
      </trkpt>
      <trkpt lat="45.71088" lon="4.75545">
        <ele>314.6</ele>
        <time>2025-12-15T15:33:28Z</time>
      </trkpt>
      <trkpt lat="45.71088" lon="4.75545">
        <ele>314.6</ele>
        <time>2025-12-15T15:33:29Z</time>
      </trkpt>
      <trkpt lat="45.71088" lon="4.75545">
        <ele>314.6</ele>
        <time>2025-12-15T15:33:30Z</time>
      </trkpt>
      <trkpt lat="45.71088" lon="4.75545">
        <ele>314.6</ele>
        <time>2025-12-15T15:33:31Z</time>
      </trkpt>
      <trkpt lat="45.71088" lon="4.75545">
        <ele>314.6</ele>
        <time>2025-12-15T15:33:32Z</time>
      </trkpt>
      <trkpt lat="45.71088" lon="4.75545">
        <ele>314.6</ele>
        <time>2025-12-15T15:33:33Z</time>
      </trkpt>
      <trkpt lat="45.71088" lon="4.75545">
        <ele>314.6</ele>
        <time>2025-12-15T15:33:34Z</time>
      </trkpt>
      <trkpt lat="45.71088" lon="4.75545">
        <ele>314.6</ele>
        <time>2025-12-15T15:33:35Z</time>
      </trkpt>
      <trkpt lat="45.71088" lon="4.75545">
        <ele>314.6</ele>
        <time>2025-12-15T15:33:36Z</time>
      </trkpt>
      <trkpt lat="45.71088" lon="4.75545">
        <ele>314.6</ele>
        <time>2025-12-15T15:33:37Z</time>
      </trkpt>
      <trkpt lat="45.71088" lon="4.75545">
        <ele>314.6</ele>
        <time>2025-12-15T15:33:38Z</time>
      </trkpt>
      <trkpt lat="45.71088" lon="4.75545">
        <ele>314.6</ele>
        <time>2025-12-15T15:33:39Z</time>
      </trkpt>
      <trkpt lat="45.71088" lon="4.75545">
        <ele>314.6</ele>
        <time>2025-12-15T15:33:40Z</time>
      </trkpt>
      <trkpt lat="45.71088" lon="4.75545">
        <ele>314.6</ele>
        <time>2025-12-15T15:33:41Z</time>
      </trkpt>
      <trkpt lat="45.71088" lon="4.75545">
        <ele>314.6</ele>
        <time>2025-12-15T15:33:42Z</time>
      </trkpt>
      <trkpt lat="45.71088" lon="4.75545">
        <ele>314.6</ele>
        <time>2025-12-15T15:33:43Z</time>
      </trkpt>
      <trkpt lat="45.71088" lon="4.75545">
        <ele>314.6</ele>
        <time>2025-12-15T15:33:44Z</time>
      </trkpt>
      <trkpt lat="45.71088" lon="4.75545">
        <ele>314.6</ele>
        <time>2025-12-15T15:33:45Z</time>
      </trkpt>
      <trkpt lat="45.71088" lon="4.75545">
        <ele>314.6</ele>
        <time>2025-12-15T15:33:46Z</time>
      </trkpt>
      <trkpt lat="45.71088" lon="4.75545">
        <ele>314.6</ele>
        <time>2025-12-15T15:33:47Z</time>
      </trkpt>
      <trkpt lat="45.71088" lon="4.75545">
        <ele>314.6</ele>
        <time>2025-12-15T15:33:48Z</time>
      </trkpt>
      <trkpt lat="45.71088" lon="4.75545">
        <ele>314.6</ele>
        <time>2025-12-15T15:33:49Z</time>
      </trkpt>
      <trkpt lat="45.71088" lon="4.75545">
        <ele>314.6</ele>
        <time>2025-12-15T15:33:50Z</time>
      </trkpt>
      <trkpt lat="45.71088" lon="4.75545">
        <ele>314.6</ele>
        <time>2025-12-15T15:33:51Z</time>
      </trkpt>
      <trkpt lat="45.71088" lon="4.75545">
        <ele>314.6</ele>
        <time>2025-12-15T15:33:52Z</time>
      </trkpt>
      <trkpt lat="45.71088" lon="4.75545">
        <ele>314.6</ele>
        <time>2025-12-15T15:33:53Z</time>
      </trkpt>
      <trkpt lat="45.71088" lon="4.75545">
        <ele>314.6</ele>
        <time>2025-12-15T15:33:54Z</time>
      </trkpt>
      <trkpt lat="45.71088" lon="4.75545">
        <ele>314.6</ele>
        <time>2025-12-15T15:33:55Z</time>
      </trkpt>
      <trkpt lat="45.71088" lon="4.75545">
        <ele>314.6</ele>
        <time>2025-12-15T15:33:56Z</time>
      </trkpt>
      <trkpt lat="45.71088" lon="4.75545">
        <ele>314.6</ele>
        <time>2025-12-15T15:33:57Z</time>
      </trkpt>
      <trkpt lat="45.71088" lon="4.75545">
        <ele>314.6</ele>
        <time>2025-12-15T15:33:58Z</time>
      </trkpt>
      <trkpt lat="45.71088" lon="4.75545">
        <ele>314.6</ele>
        <time>2025-12-15T15:33:59Z</time>
      </trkpt>
      <trkpt lat="45.71088" lon="4.75545">
        <ele>314.6</ele>
        <time>2025-12-15T15:34:00Z</time>
      </trkpt>
      <trkpt lat="45.71088" lon="4.75545">
        <ele>314.6</ele>
        <time>2025-12-15T15:34:01Z</time>
      </trkpt>
      <trkpt lat="45.71088" lon="4.75545">
        <ele>314.6</ele>
        <time>2025-12-15T15:34:02Z</time>
      </trkpt>
      <trkpt lat="45.71088" lon="4.75545">
        <ele>314.6</ele>
        <time>2025-12-15T15:34:03Z</time>
      </trkpt>
      <trkpt lat="45.71088" lon="4.75545">
        <ele>314.6</ele>
        <time>2025-12-15T15:34:04Z</time>
      </trkpt>
      <trkpt lat="45.71088" lon="4.75545">
        <ele>314.6</ele>
        <time>2025-12-15T15:34:05Z</time>
      </trkpt>
      <trkpt lat="45.71088" lon="4.75545">
        <ele>314.6</ele>
        <time>2025-12-15T15:34:06Z</time>
      </trkpt>
      <trkpt lat="45.71088" lon="4.75545">
        <ele>314.6</ele>
        <time>2025-12-15T15:34:07Z</time>
      </trkpt>
      <trkpt lat="45.71088" lon="4.75545">
        <ele>314.6</ele>
        <time>2025-12-15T15:34:08Z</time>
      </trkpt>
      <trkpt lat="45.71088" lon="4.75545">
        <ele>314.6</ele>
        <time>2025-12-15T15:34:09Z</time>
      </trkpt>
      <trkpt lat="45.71088" lon="4.75545">
        <ele>314.6</ele>
        <time>2025-12-15T15:34:10Z</time>
      </trkpt>
      <trkpt lat="45.71088" lon="4.75545">
        <ele>314.6</ele>
        <time>2025-12-15T15:34:11Z</time>
      </trkpt>
      <trkpt lat="45.71088" lon="4.75545">
        <ele>314.6</ele>
        <time>2025-12-15T15:34:12Z</time>
      </trkpt>
      <trkpt lat="45.71088" lon="4.75545">
        <ele>314.6</ele>
        <time>2025-12-15T15:34:13Z</time>
      </trkpt>
      <trkpt lat="45.71088" lon="4.75545">
        <ele>314.6</ele>
        <time>2025-12-15T15:34:14Z</time>
      </trkpt>
      <trkpt lat="45.71088" lon="4.75545">
        <ele>314.6</ele>
        <time>2025-12-15T15:34:15Z</time>
      </trkpt>
      <trkpt lat="45.71088" lon="4.75545">
        <ele>314.6</ele>
        <time>2025-12-15T15:34:16Z</time>
      </trkpt>
      <trkpt lat="45.71088" lon="4.75545">
        <ele>314.6</ele>
        <time>2025-12-15T15:34:17Z</time>
      </trkpt>
      <trkpt lat="45.71088" lon="4.75545">
        <ele>314.6</ele>
        <time>2025-12-15T15:34:18Z</time>
      </trkpt>
      <trkpt lat="45.71088" lon="4.75545">
        <ele>314.6</ele>
        <time>2025-12-15T15:34:19Z</time>
      </trkpt>
      <trkpt lat="45.71088" lon="4.75545">
        <ele>314.6</ele>
        <time>2025-12-15T15:34:20Z</time>
      </trkpt>
      <trkpt lat="45.71088" lon="4.75545">
        <ele>314.6</ele>
        <time>2025-12-15T15:34:21Z</time>
      </trkpt>
      <trkpt lat="45.71088" lon="4.75545">
        <ele>314.6</ele>
        <time>2025-12-15T15:34:22Z</time>
      </trkpt>
      <trkpt lat="45.71088" lon="4.75545">
        <ele>314.6</ele>
        <time>2025-12-15T15:34:23Z</time>
      </trkpt>
      <trkpt lat="45.71088" lon="4.75545">
        <ele>314.6</ele>
        <time>2025-12-15T15:34:24Z</time>
      </trkpt>
      <trkpt lat="45.71088" lon="4.75545">
        <ele>314.6</ele>
        <time>2025-12-15T15:34:25Z</time>
      </trkpt>
      <trkpt lat="45.71088" lon="4.75545">
        <ele>314.6</ele>
        <time>2025-12-15T15:34:26Z</time>
      </trkpt>
      <trkpt lat="45.71088" lon="4.75545">
        <ele>314.6</ele>
        <time>2025-12-15T15:34:27Z</time>
      </trkpt>
      <trkpt lat="45.71088" lon="4.75545">
        <ele>314.6</ele>
        <time>2025-12-15T15:34:28Z</time>
      </trkpt>
      <trkpt lat="45.71088" lon="4.75545">
        <ele>314.6</ele>
        <time>2025-12-15T15:34:29Z</time>
      </trkpt>
      <trkpt lat="45.71088" lon="4.75545">
        <ele>314.6</ele>
        <time>2025-12-15T15:34:30Z</time>
      </trkpt>
      <trkpt lat="45.71088" lon="4.75545">
        <ele>314.6</ele>
        <time>2025-12-15T15:34:31Z</time>
      </trkpt>
      <trkpt lat="45.71088" lon="4.75545">
        <ele>314.6</ele>
        <time>2025-12-15T15:34:32Z</time>
      </trkpt>
      <trkpt lat="45.71088" lon="4.75545">
        <ele>314.6</ele>
        <time>2025-12-15T15:34:33Z</time>
      </trkpt>
      <trkpt lat="45.71088" lon="4.75545">
        <ele>314.6</ele>
        <time>2025-12-15T15:34:34Z</time>
      </trkpt>
      <trkpt lat="45.71088" lon="4.75545">
        <ele>314.6</ele>
        <time>2025-12-15T15:34:35Z</time>
      </trkpt>
      <trkpt lat="45.71088" lon="4.75545">
        <ele>314.6</ele>
        <time>2025-12-15T15:34:36Z</time>
      </trkpt>
      <trkpt lat="45.71088" lon="4.75545">
        <ele>314.6</ele>
        <time>2025-12-15T15:34:37Z</time>
      </trkpt>
      <trkpt lat="45.71088" lon="4.75545">
        <ele>314.6</ele>
        <time>2025-12-15T15:34:38Z</time>
      </trkpt>
      <trkpt lat="45.71088" lon="4.75545">
        <ele>314.6</ele>
        <time>2025-12-15T15:34:39Z</time>
      </trkpt>
      <trkpt lat="45.71088" lon="4.75545">
        <ele>314.6</ele>
        <time>2025-12-15T15:34:40Z</time>
      </trkpt>
      <trkpt lat="45.71088" lon="4.75545">
        <ele>314.6</ele>
        <time>2025-12-15T15:34:41Z</time>
      </trkpt>
      <trkpt lat="45.71088" lon="4.75545">
        <ele>314.6</ele>
        <time>2025-12-15T15:34:42Z</time>
      </trkpt>
      <trkpt lat="45.71088" lon="4.75545">
        <ele>314.6</ele>
        <time>2025-12-15T15:34:43Z</time>
      </trkpt>
      <trkpt lat="45.71088" lon="4.75545">
        <ele>314.6</ele>
        <time>2025-12-15T15:34:44Z</time>
      </trkpt>
      <trkpt lat="45.71088" lon="4.75545">
        <ele>314.6</ele>
        <time>2025-12-15T15:34:45Z</time>
      </trkpt>
      <trkpt lat="45.71088" lon="4.75545">
        <ele>314.6</ele>
        <time>2025-12-15T15:34:46Z</time>
      </trkpt>
      <trkpt lat="45.71088" lon="4.75545">
        <ele>314.6</ele>
        <time>2025-12-15T15:34:47Z</time>
      </trkpt>
      <trkpt lat="45.71088" lon="4.75545">
        <ele>314.6</ele>
        <time>2025-12-15T15:34:48Z</time>
      </trkpt>
      <trkpt lat="45.71088" lon="4.75545">
        <ele>314.6</ele>
        <time>2025-12-15T15:34:49Z</time>
      </trkpt>
      <trkpt lat="45.71088" lon="4.75545">
        <ele>314.6</ele>
        <time>2025-12-15T15:34:50Z</time>
      </trkpt>
      <trkpt lat="45.71088" lon="4.75545">
        <ele>314.6</ele>
        <time>2025-12-15T15:34:51Z</time>
      </trkpt>
      <trkpt lat="45.71088" lon="4.75545">
        <ele>314.6</ele>
        <time>2025-12-15T15:34:52Z</time>
      </trkpt>
      <trkpt lat="45.71088" lon="4.75545">
        <ele>314.6</ele>
        <time>2025-12-15T15:34:53Z</time>
      </trkpt>
      <trkpt lat="45.71088" lon="4.75545">
        <ele>314.6</ele>
        <time>2025-12-15T15:34:54Z</time>
      </trkpt>
      <trkpt lat="45.71088" lon="4.75545">
        <ele>314.6</ele>
        <time>2025-12-15T15:34:55Z</time>
      </trkpt>
      <trkpt lat="45.71088" lon="4.75545">
        <ele>314.6</ele>
        <time>2025-12-15T15:34:56Z</time>
      </trkpt>
      <trkpt lat="45.71088" lon="4.75545">
        <ele>314.6</ele>
        <time>2025-12-15T15:34:57Z</time>
      </trkpt>
      <trkpt lat="45.71088" lon="4.75545">
        <ele>314.6</ele>
        <time>2025-12-15T15:34:58Z</time>
      </trkpt>
      <trkpt lat="45.71088" lon="4.75545">
        <ele>314.6</ele>
        <time>2025-12-15T15:34:59Z</time>
      </trkpt>
      <trkpt lat="45.71088" lon="4.75545">
        <ele>314.6</ele>
        <time>2025-12-15T15:35:00Z</time>
      </trkpt>
      <trkpt lat="45.71088" lon="4.75545">
        <ele>314.6</ele>
        <time>2025-12-15T15:35:01Z</time>
      </trkpt>
      <trkpt lat="45.71088" lon="4.75545">
        <ele>314.6</ele>
        <time>2025-12-15T15:35:02Z</time>
      </trkpt>
      <trkpt lat="45.71088" lon="4.75545">
        <ele>314.6</ele>
        <time>2025-12-15T15:35:03Z</time>
      </trkpt>
      <trkpt lat="45.71088" lon="4.75545">
        <ele>314.6</ele>
        <time>2025-12-15T15:35:04Z</time>
      </trkpt>
      <trkpt lat="45.71088" lon="4.75545">
        <ele>314.6</ele>
        <time>2025-12-15T15:35:05Z</time>
      </trkpt>
      <trkpt lat="45.71088" lon="4.75545">
        <ele>314.6</ele>
        <time>2025-12-15T15:35:06Z</time>
      </trkpt>
      <trkpt lat="45.71088" lon="4.75545">
        <ele>314.6</ele>
        <time>2025-12-15T15:35:07Z</time>
      </trkpt>
      <trkpt lat="45.71088" lon="4.75545">
        <ele>314.6</ele>
        <time>2025-12-15T15:35:08Z</time>
      </trkpt>
      <trkpt lat="45.71088" lon="4.75545">
        <ele>314.6</ele>
        <time>2025-12-15T15:35:09Z</time>
      </trkpt>
      <trkpt lat="45.71088" lon="4.75545">
        <ele>314.6</ele>
        <time>2025-12-15T15:35:10Z</time>
      </trkpt>
      <trkpt lat="45.71088" lon="4.75545">
        <ele>314.6</ele>
        <time>2025-12-15T15:35:11Z</time>
      </trkpt>
      <trkpt lat="45.71088" lon="4.75545">
        <ele>314.6</ele>
        <time>2025-12-15T15:35:12Z</time>
      </trkpt>
      <trkpt lat="45.71088" lon="4.75545">
        <ele>314.6</ele>
        <time>2025-12-15T15:35:13Z</time>
      </trkpt>
      <trkpt lat="45.71088" lon="4.75545">
        <ele>314.6</ele>
        <time>2025-12-15T15:35:14Z</time>
      </trkpt>
      <trkpt lat="45.71088" lon="4.75545">
        <ele>314.6</ele>
        <time>2025-12-15T15:35:15Z</time>
      </trkpt>
      <trkpt lat="45.71088" lon="4.75545">
        <ele>314.6</ele>
        <time>2025-12-15T15:35:16Z</time>
      </trkpt>
      <trkpt lat="45.71088" lon="4.75545">
        <ele>314.6</ele>
        <time>2025-12-15T15:35:17Z</time>
      </trkpt>
      <trkpt lat="45.71088" lon="4.75545">
        <ele>314.6</ele>
        <time>2025-12-15T15:35:18Z</time>
      </trkpt>
      <trkpt lat="45.71088" lon="4.75545">
        <ele>314.6</ele>
        <time>2025-12-15T15:35:19Z</time>
      </trkpt>
      <trkpt lat="45.71088" lon="4.75545">
        <ele>314.6</ele>
        <time>2025-12-15T15:35:20Z</time>
      </trkpt>
      <trkpt lat="45.71088" lon="4.75545">
        <ele>314.6</ele>
        <time>2025-12-15T15:35:21Z</time>
      </trkpt>
      <trkpt lat="45.71088" lon="4.75545">
        <ele>314.6</ele>
        <time>2025-12-15T15:35:22Z</time>
      </trkpt>
      <trkpt lat="45.71088" lon="4.75545">
        <ele>314.6</ele>
        <time>2025-12-15T15:35:23Z</time>
      </trkpt>
      <trkpt lat="45.71088" lon="4.75545">
        <ele>314.6</ele>
        <time>2025-12-15T15:35:24Z</time>
      </trkpt>
      <trkpt lat="45.71088" lon="4.75545">
        <ele>314.6</ele>
        <time>2025-12-15T15:35:25Z</time>
      </trkpt>
      <trkpt lat="45.71088" lon="4.75545">
        <ele>314.6</ele>
        <time>2025-12-15T15:35:26Z</time>
      </trkpt>
      <trkpt lat="45.71088" lon="4.75545">
        <ele>314.6</ele>
        <time>2025-12-15T15:35:27Z</time>
      </trkpt>
      <trkpt lat="45.71088" lon="4.75545">
        <ele>314.6</ele>
        <time>2025-12-15T15:35:28Z</time>
      </trkpt>
      <trkpt lat="45.71088" lon="4.75545">
        <ele>314.6</ele>
        <time>2025-12-15T15:35:29Z</time>
      </trkpt>
      <trkpt lat="45.71088" lon="4.75545">
        <ele>314.6</ele>
        <time>2025-12-15T15:35:30Z</time>
      </trkpt>
      <trkpt lat="45.71088" lon="4.75545">
        <ele>314.6</ele>
        <time>2025-12-15T15:35:31Z</time>
      </trkpt>
      <trkpt lat="45.71088" lon="4.75545">
        <ele>314.6</ele>
        <time>2025-12-15T15:35:32Z</time>
      </trkpt>
      <trkpt lat="45.71088" lon="4.75545">
        <ele>314.6</ele>
        <time>2025-12-15T15:35:33Z</time>
      </trkpt>
      <trkpt lat="45.71088" lon="4.75545">
        <ele>314.6</ele>
        <time>2025-12-15T15:35:34Z</time>
      </trkpt>
      <trkpt lat="45.71088" lon="4.75545">
        <ele>314.6</ele>
        <time>2025-12-15T15:35:35Z</time>
      </trkpt>
      <trkpt lat="45.71088" lon="4.75545">
        <ele>314.6</ele>
        <time>2025-12-15T15:35:36Z</time>
      </trkpt>
      <trkpt lat="45.71088" lon="4.75545">
        <ele>314.6</ele>
        <time>2025-12-15T15:35:37Z</time>
      </trkpt>
      <trkpt lat="45.71088" lon="4.75545">
        <ele>314.6</ele>
        <time>2025-12-15T15:35:38Z</time>
      </trkpt>
      <trkpt lat="45.71088" lon="4.75545">
        <ele>314.6</ele>
        <time>2025-12-15T15:35:39Z</time>
      </trkpt>
      <trkpt lat="45.71088" lon="4.75545">
        <ele>314.6</ele>
        <time>2025-12-15T15:35:40Z</time>
      </trkpt>
      <trkpt lat="45.71088" lon="4.75545">
        <ele>314.6</ele>
        <time>2025-12-15T15:35:41Z</time>
      </trkpt>
      <trkpt lat="45.71088" lon="4.75545">
        <ele>314.6</ele>
        <time>2025-12-15T15:35:42Z</time>
      </trkpt>
      <trkpt lat="45.71088" lon="4.75545">
        <ele>314.6</ele>
        <time>2025-12-15T15:35:43Z</time>
      </trkpt>
      <trkpt lat="45.71088" lon="4.75545">
        <ele>314.6</ele>
        <time>2025-12-15T15:35:44Z</time>
      </trkpt>
      <trkpt lat="45.71088" lon="4.75545">
        <ele>314.6</ele>
        <time>2025-12-15T15:35:45Z</time>
      </trkpt>
      <trkpt lat="45.71088" lon="4.75545">
        <ele>314.6</ele>
        <time>2025-12-15T15:35:46Z</time>
      </trkpt>
      <trkpt lat="45.71088" lon="4.75545">
        <ele>314.6</ele>
        <time>2025-12-15T15:35:47Z</time>
      </trkpt>
      <trkpt lat="45.71088" lon="4.75545">
        <ele>314.6</ele>
        <time>2025-12-15T15:35:48Z</time>
      </trkpt>
      <trkpt lat="45.71088" lon="4.75545">
        <ele>314.6</ele>
        <time>2025-12-15T15:35:49Z</time>
      </trkpt>
      <trkpt lat="45.71088" lon="4.75545">
        <ele>314.6</ele>
        <time>2025-12-15T15:35:50Z</time>
      </trkpt>
      <trkpt lat="45.71088" lon="4.75545">
        <ele>314.6</ele>
        <time>2025-12-15T15:35:51Z</time>
      </trkpt>
      <trkpt lat="45.71088" lon="4.75545">
        <ele>314.6</ele>
        <time>2025-12-15T15:35:52Z</time>
      </trkpt>
      <trkpt lat="45.71088" lon="4.75545">
        <ele>314.6</ele>
        <time>2025-12-15T15:35:53Z</time>
      </trkpt>
      <trkpt lat="45.71088" lon="4.75545">
        <ele>314.6</ele>
        <time>2025-12-15T15:35:54Z</time>
      </trkpt>
      <trkpt lat="45.71088" lon="4.75545">
        <ele>314.6</ele>
        <time>2025-12-15T15:35:55Z</time>
      </trkpt>
      <trkpt lat="45.71088" lon="4.75545">
        <ele>314.6</ele>
        <time>2025-12-15T15:35:56Z</time>
      </trkpt>
      <trkpt lat="45.71088" lon="4.75545">
        <ele>314.6</ele>
        <time>2025-12-15T15:35:57Z</time>
      </trkpt>
      <trkpt lat="45.71088" lon="4.75545">
        <ele>314.6</ele>
        <time>2025-12-15T15:35:58Z</time>
      </trkpt>
      <trkpt lat="45.71088" lon="4.75545">
        <ele>314.6</ele>
        <time>2025-12-15T15:35:59Z</time>
      </trkpt>
      <trkpt lat="45.71088" lon="4.75545">
        <ele>314.6</ele>
        <time>2025-12-15T15:36:00Z</time>
      </trkpt>
      <trkpt lat="45.71088" lon="4.75545">
        <ele>314.6</ele>
        <time>2025-12-15T15:36:01Z</time>
      </trkpt>
      <trkpt lat="45.71088" lon="4.75545">
        <ele>314.6</ele>
        <time>2025-12-15T15:36:02Z</time>
      </trkpt>
      <trkpt lat="45.71088" lon="4.75545">
        <ele>314.6</ele>
        <time>2025-12-15T15:36:03Z</time>
      </trkpt>
      <trkpt lat="45.71088" lon="4.75545">
        <ele>314.6</ele>
        <time>2025-12-15T15:36:04Z</time>
      </trkpt>
      <trkpt lat="45.71088" lon="4.75545">
        <ele>314.6</ele>
        <time>2025-12-15T15:36:05Z</time>
      </trkpt>
      <trkpt lat="45.71088" lon="4.75545">
        <ele>314.6</ele>
        <time>2025-12-15T15:36:06Z</time>
      </trkpt>
      <trkpt lat="45.71088" lon="4.75545">
        <ele>314.6</ele>
        <time>2025-12-15T15:36:07Z</time>
      </trkpt>
      <trkpt lat="45.71088" lon="4.75545">
        <ele>314.6</ele>
        <time>2025-12-15T15:36:08Z</time>
      </trkpt>
      <trkpt lat="45.71088" lon="4.75545">
        <ele>314.6</ele>
        <time>2025-12-15T15:36:09Z</time>
      </trkpt>
      <trkpt lat="45.71088" lon="4.75545">
        <ele>314.6</ele>
        <time>2025-12-15T15:36:10Z</time>
      </trkpt>
      <trkpt lat="45.71088" lon="4.75545">
        <ele>314.6</ele>
        <time>2025-12-15T15:36:11Z</time>
      </trkpt>
      <trkpt lat="45.71088" lon="4.75545">
        <ele>314.6</ele>
        <time>2025-12-15T15:36:12Z</time>
      </trkpt>
      <trkpt lat="45.71088" lon="4.75545">
        <ele>314.6</ele>
        <time>2025-12-15T15:36:13Z</time>
      </trkpt>
      <trkpt lat="45.71088" lon="4.75545">
        <ele>314.6</ele>
        <time>2025-12-15T15:36:14Z</time>
      </trkpt>
      <trkpt lat="45.71088" lon="4.75545">
        <ele>314.6</ele>
        <time>2025-12-15T15:36:15Z</time>
      </trkpt>
      <trkpt lat="45.71088" lon="4.75545">
        <ele>314.6</ele>
        <time>2025-12-15T15:36:16Z</time>
      </trkpt>
      <trkpt lat="45.71088" lon="4.75545">
        <ele>314.6</ele>
        <time>2025-12-15T15:36:17Z</time>
      </trkpt>
      <trkpt lat="45.71088" lon="4.75545">
        <ele>314.6</ele>
        <time>2025-12-15T15:36:18Z</time>
      </trkpt>
      <trkpt lat="45.71088" lon="4.75545">
        <ele>314.6</ele>
        <time>2025-12-15T15:36:19Z</time>
      </trkpt>
      <trkpt lat="45.71088" lon="4.75545">
        <ele>314.6</ele>
        <time>2025-12-15T15:36:20Z</time>
      </trkpt>
      <trkpt lat="45.71088" lon="4.75545">
        <ele>314.6</ele>
        <time>2025-12-15T15:36:21Z</time>
      </trkpt>
      <trkpt lat="45.71088" lon="4.75545">
        <ele>314.6</ele>
        <time>2025-12-15T15:36:22Z</time>
      </trkpt>
      <trkpt lat="45.71088" lon="4.75545">
        <ele>314.6</ele>
        <time>2025-12-15T15:36:23Z</time>
      </trkpt>
      <trkpt lat="45.71088" lon="4.75545">
        <ele>314.6</ele>
        <time>2025-12-15T15:36:24Z</time>
      </trkpt>
      <trkpt lat="45.71088" lon="4.75545">
        <ele>314.6</ele>
        <time>2025-12-15T15:36:25Z</time>
      </trkpt>
      <trkpt lat="45.71088" lon="4.75545">
        <ele>314.6</ele>
        <time>2025-12-15T15:36:26Z</time>
      </trkpt>
      <trkpt lat="45.71088" lon="4.75545">
        <ele>314.6</ele>
        <time>2025-12-15T15:36:27Z</time>
      </trkpt>
      <trkpt lat="45.71088" lon="4.75545">
        <ele>314.6</ele>
        <time>2025-12-15T15:36:28Z</time>
      </trkpt>
      <trkpt lat="45.71088" lon="4.75545">
        <ele>314.6</ele>
        <time>2025-12-15T15:36:29Z</time>
      </trkpt>
      <trkpt lat="45.71088" lon="4.75545">
        <ele>314.6</ele>
        <time>2025-12-15T15:36:30Z</time>
      </trkpt>
      <trkpt lat="45.71088" lon="4.75545">
        <ele>314.6</ele>
        <time>2025-12-15T15:36:31Z</time>
      </trkpt>
      <trkpt lat="45.71088" lon="4.75545">
        <ele>314.6</ele>
        <time>2025-12-15T15:36:32Z</time>
      </trkpt>
      <trkpt lat="45.71088" lon="4.75545">
        <ele>314.6</ele>
        <time>2025-12-15T15:36:33Z</time>
      </trkpt>
      <trkpt lat="45.71088" lon="4.75545">
        <ele>314.6</ele>
        <time>2025-12-15T15:36:34Z</time>
      </trkpt>
      <trkpt lat="45.71088" lon="4.75545">
        <ele>314.6</ele>
        <time>2025-12-15T15:36:35Z</time>
      </trkpt>
      <trkpt lat="45.71088" lon="4.75545">
        <ele>314.6</ele>
        <time>2025-12-15T15:36:36Z</time>
      </trkpt>
      <trkpt lat="45.71088" lon="4.75545">
        <ele>314.6</ele>
        <time>2025-12-15T15:36:37Z</time>
      </trkpt>
      <trkpt lat="45.71088" lon="4.75545">
        <ele>314.6</ele>
        <time>2025-12-15T15:36:38Z</time>
      </trkpt>
      <trkpt lat="45.71088" lon="4.75545">
        <ele>314.6</ele>
        <time>2025-12-15T15:36:39Z</time>
      </trkpt>
      <trkpt lat="45.71088" lon="4.75545">
        <ele>314.6</ele>
        <time>2025-12-15T15:36:40Z</time>
      </trkpt>
      <trkpt lat="45.71088" lon="4.75545">
        <ele>314.6</ele>
        <time>2025-12-15T15:36:41Z</time>
      </trkpt>
      <trkpt lat="45.71088" lon="4.75545">
        <ele>314.6</ele>
        <time>2025-12-15T15:36:42Z</time>
      </trkpt>
      <trkpt lat="45.71088" lon="4.75545">
        <ele>314.6</ele>
        <time>2025-12-15T15:36:43Z</time>
      </trkpt>
      <trkpt lat="45.71088" lon="4.75545">
        <ele>314.6</ele>
        <time>2025-12-15T15:36:44Z</time>
      </trkpt>
      <trkpt lat="45.71088" lon="4.75545">
        <ele>314.6</ele>
        <time>2025-12-15T15:36:45Z</time>
      </trkpt>
      <trkpt lat="45.71088" lon="4.75545">
        <ele>314.6</ele>
        <time>2025-12-15T15:36:46Z</time>
      </trkpt>
      <trkpt lat="45.71088" lon="4.75545">
        <ele>314.6</ele>
        <time>2025-12-15T15:36:47Z</time>
      </trkpt>
      <trkpt lat="45.71088" lon="4.75545">
        <ele>314.6</ele>
        <time>2025-12-15T15:36:48Z</time>
      </trkpt>
      <trkpt lat="45.71088" lon="4.75545">
        <ele>314.6</ele>
        <time>2025-12-15T15:36:49Z</time>
      </trkpt>
      <trkpt lat="45.71088" lon="4.75545">
        <ele>314.6</ele>
        <time>2025-12-15T15:36:50Z</time>
      </trkpt>
      <trkpt lat="45.71088" lon="4.75545">
        <ele>314.6</ele>
        <time>2025-12-15T15:36:51Z</time>
      </trkpt>
      <trkpt lat="45.71088" lon="4.75545">
        <ele>314.6</ele>
        <time>2025-12-15T15:36:52Z</time>
      </trkpt>
      <trkpt lat="45.71088" lon="4.75545">
        <ele>314.6</ele>
        <time>2025-12-15T15:36:53Z</time>
      </trkpt>
      <trkpt lat="45.71088" lon="4.75545">
        <ele>314.6</ele>
        <time>2025-12-15T15:36:54Z</time>
      </trkpt>
      <trkpt lat="45.71088" lon="4.75545">
        <ele>314.6</ele>
        <time>2025-12-15T15:36:55Z</time>
      </trkpt>
      <trkpt lat="45.71088" lon="4.75545">
        <ele>314.6</ele>
        <time>2025-12-15T15:36:56Z</time>
      </trkpt>
      <trkpt lat="45.71088" lon="4.75545">
        <ele>314.6</ele>
        <time>2025-12-15T15:36:57Z</time>
      </trkpt>
      <trkpt lat="45.71088" lon="4.75545">
        <ele>314.6</ele>
        <time>2025-12-15T15:36:58Z</time>
      </trkpt>
      <trkpt lat="45.71088" lon="4.75545">
        <ele>314.6</ele>
        <time>2025-12-15T15:36:59Z</time>
      </trkpt>
      <trkpt lat="45.71088" lon="4.75545">
        <ele>314.6</ele>
        <time>2025-12-15T15:37:00Z</time>
      </trkpt>
      <trkpt lat="45.71088" lon="4.75545">
        <ele>314.6</ele>
        <time>2025-12-15T15:37:01Z</time>
      </trkpt>
      <trkpt lat="45.71088" lon="4.75545">
        <ele>314.6</ele>
        <time>2025-12-15T15:37:02Z</time>
      </trkpt>
      <trkpt lat="45.71088" lon="4.75545">
        <ele>314.6</ele>
        <time>2025-12-15T15:37:03Z</time>
      </trkpt>
      <trkpt lat="45.71088" lon="4.75545">
        <ele>314.6</ele>
        <time>2025-12-15T15:37:04Z</time>
      </trkpt>
      <trkpt lat="45.71088" lon="4.75545">
        <ele>314.6</ele>
        <time>2025-12-15T15:37:05Z</time>
      </trkpt>
      <trkpt lat="45.71088" lon="4.75545">
        <ele>314.6</ele>
        <time>2025-12-15T15:37:06Z</time>
      </trkpt>
      <trkpt lat="45.71088" lon="4.75545">
        <ele>314.6</ele>
        <time>2025-12-15T15:37:07Z</time>
      </trkpt>
      <trkpt lat="45.71088" lon="4.75545">
        <ele>314.6</ele>
        <time>2025-12-15T15:37:08Z</time>
      </trkpt>
      <trkpt lat="45.71087" lon="4.75544">
        <ele>314.6</ele>
        <time>2025-12-15T15:37:09Z</time>
      </trkpt>
      <trkpt lat="45.71086" lon="4.75543">
        <ele>314.6</ele>
        <time>2025-12-15T15:37:10Z</time>
      </trkpt>
      <trkpt lat="45.71085" lon="4.75543">
        <ele>314.6</ele>
        <time>2025-12-15T15:37:11Z</time>
      </trkpt>
      <trkpt lat="45.71084" lon="4.75543">
        <ele>314.6</ele>
        <time>2025-12-15T15:37:12Z</time>
      </trkpt>
      <trkpt lat="45.71083" lon="4.75542">
        <ele>314.6</ele>
        <time>2025-12-15T15:37:13Z</time>
      </trkpt>
      <trkpt lat="45.71083" lon="4.75542">
        <ele>314.6</ele>
        <time>2025-12-15T15:37:14Z</time>
      </trkpt>
      <trkpt lat="45.71083" lon="4.75542">
        <ele>314.6</ele>
        <time>2025-12-15T15:37:15Z</time>
      </trkpt>
      <trkpt lat="45.71083" lon="4.75542">
        <ele>314.6</ele>
        <time>2025-12-15T15:37:16Z</time>
      </trkpt>
      <trkpt lat="45.71083" lon="4.75542">
        <ele>314.6</ele>
        <time>2025-12-15T15:37:17Z</time>
      </trkpt>
      <trkpt lat="45.71082" lon="4.75542">
        <ele>314.8</ele>
        <time>2025-12-15T15:37:18Z</time>
      </trkpt>
      <trkpt lat="45.7108" lon="4.75541">
        <ele>314.8</ele>
        <time>2025-12-15T15:37:19Z</time>
      </trkpt>
      <trkpt lat="45.71079" lon="4.75541">
        <ele>314.8</ele>
        <time>2025-12-15T15:37:20Z</time>
      </trkpt>
      <trkpt lat="45.71078" lon="4.7554">
        <ele>314.8</ele>
        <time>2025-12-15T15:37:21Z</time>
      </trkpt>
      <trkpt lat="45.71078" lon="4.7554">
        <ele>314.6</ele>
        <time>2025-12-15T15:37:22Z</time>
      </trkpt>
      <trkpt lat="45.71078" lon="4.7554">
        <ele>314.4</ele>
        <time>2025-12-15T15:37:23Z</time>
      </trkpt>
      <trkpt lat="45.71078" lon="4.7554">
        <ele>314.4</ele>
        <time>2025-12-15T15:37:24Z</time>
      </trkpt>
      <trkpt lat="45.71078" lon="4.7554">
        <ele>314.4</ele>
        <time>2025-12-15T15:37:25Z</time>
      </trkpt>
      <trkpt lat="45.71078" lon="4.7554">
        <ele>314.2</ele>
        <time>2025-12-15T15:37:26Z</time>
      </trkpt>
      <trkpt lat="45.71078" lon="4.7554">
        <ele>314.4</ele>
        <time>2025-12-15T15:37:27Z</time>
      </trkpt>
      <trkpt lat="45.71078" lon="4.7554">
        <ele>314.4</ele>
        <time>2025-12-15T15:37:28Z</time>
      </trkpt>
      <trkpt lat="45.71078" lon="4.7554">
        <ele>314.6</ele>
        <time>2025-12-15T15:37:29Z</time>
      </trkpt>
      <trkpt lat="45.71078" lon="4.7554">
        <ele>314.6</ele>
        <time>2025-12-15T15:37:30Z</time>
      </trkpt>
      <trkpt lat="45.71078" lon="4.7554">
        <ele>314.6</ele>
        <time>2025-12-15T15:37:31Z</time>
      </trkpt>
      <trkpt lat="45.71078" lon="4.7554">
        <ele>314.6</ele>
        <time>2025-12-15T15:37:32Z</time>
      </trkpt>
      <trkpt lat="45.71078" lon="4.7554">
        <ele>314.4</ele>
        <time>2025-12-15T15:37:33Z</time>
      </trkpt>
      <trkpt lat="45.71078" lon="4.7554">
        <ele>314.4</ele>
        <time>2025-12-15T15:37:34Z</time>
      </trkpt>
      <trkpt lat="45.71078" lon="4.7554">
        <ele>314.2</ele>
        <time>2025-12-15T15:37:35Z</time>
      </trkpt>
      <trkpt lat="45.71078" lon="4.7554">
        <ele>314.2</ele>
        <time>2025-12-15T15:37:36Z</time>
      </trkpt>
      <trkpt lat="45.71078" lon="4.7554">
        <ele>314.2</ele>
        <time>2025-12-15T15:37:37Z</time>
      </trkpt>
      <trkpt lat="45.71078" lon="4.7554">
        <ele>314.2</ele>
        <time>2025-12-15T15:37:38Z</time>
      </trkpt>
      <trkpt lat="45.71078" lon="4.7554">
        <ele>314.4</ele>
        <time>2025-12-15T15:37:39Z</time>
      </trkpt>
      <trkpt lat="45.71078" lon="4.7554">
        <ele>314.4</ele>
        <time>2025-12-15T15:37:40Z</time>
      </trkpt>
      <trkpt lat="45.71078" lon="4.7554">
        <ele>314.4</ele>
        <time>2025-12-15T15:37:41Z</time>
      </trkpt>
      <trkpt lat="45.71078" lon="4.7554">
        <ele>314.4</ele>
        <time>2025-12-15T15:37:42Z</time>
      </trkpt>
      <trkpt lat="45.71078" lon="4.7554">
        <ele>314.4</ele>
        <time>2025-12-15T15:37:43Z</time>
      </trkpt>
      <trkpt lat="45.71078" lon="4.7554">
        <ele>314.4</ele>
        <time>2025-12-15T15:37:44Z</time>
      </trkpt>
      <trkpt lat="45.71078" lon="4.7554">
        <ele>314.4</ele>
        <time>2025-12-15T15:37:45Z</time>
      </trkpt>
      <trkpt lat="45.71078" lon="4.7554">
        <ele>314.4</ele>
        <time>2025-12-15T15:37:46Z</time>
      </trkpt>
      <trkpt lat="45.71078" lon="4.7554">
        <ele>314.4</ele>
        <time>2025-12-15T15:37:47Z</time>
      </trkpt>
      <trkpt lat="45.71078" lon="4.7554">
        <ele>314.4</ele>
        <time>2025-12-15T15:37:48Z</time>
      </trkpt>
      <trkpt lat="45.71078" lon="4.7554">
        <ele>314.4</ele>
        <time>2025-12-15T15:37:49Z</time>
      </trkpt>
      <trkpt lat="45.71078" lon="4.7554">
        <ele>314.4</ele>
        <time>2025-12-15T15:37:50Z</time>
      </trkpt>
      <trkpt lat="45.71078" lon="4.7554">
        <ele>314.4</ele>
        <time>2025-12-15T15:37:51Z</time>
      </trkpt>
      <trkpt lat="45.71078" lon="4.7554">
        <ele>314.4</ele>
        <time>2025-12-15T15:37:52Z</time>
      </trkpt>
      <trkpt lat="45.71078" lon="4.7554">
        <ele>314.4</ele>
        <time>2025-12-15T15:37:53Z</time>
      </trkpt>
      <trkpt lat="45.71078" lon="4.7554">
        <ele>314.4</ele>
        <time>2025-12-15T15:37:54Z</time>
      </trkpt>
      <trkpt lat="45.71078" lon="4.7554">
        <ele>314.4</ele>
        <time>2025-12-15T15:37:55Z</time>
      </trkpt>
      <trkpt lat="45.71078" lon="4.7554">
        <ele>314.4</ele>
        <time>2025-12-15T15:37:56Z</time>
      </trkpt>
      <trkpt lat="45.71078" lon="4.7554">
        <ele>314.4</ele>
        <time>2025-12-15T15:37:57Z</time>
      </trkpt>
      <trkpt lat="45.71078" lon="4.7554">
        <ele>314.4</ele>
        <time>2025-12-15T15:37:58Z</time>
      </trkpt>
      <trkpt lat="45.71078" lon="4.7554">
        <ele>314.4</ele>
        <time>2025-12-15T15:37:59Z</time>
      </trkpt>
      <trkpt lat="45.71078" lon="4.7554">
        <ele>314.4</ele>
        <time>2025-12-15T15:38:00Z</time>
      </trkpt>
      <trkpt lat="45.71078" lon="4.7554">
        <ele>314.4</ele>
        <time>2025-12-15T15:38:01Z</time>
      </trkpt>
      <trkpt lat="45.71078" lon="4.7554">
        <ele>314.4</ele>
        <time>2025-12-15T15:38:02Z</time>
      </trkpt>
      <trkpt lat="45.71078" lon="4.7554">
        <ele>314.4</ele>
        <time>2025-12-15T15:38:03Z</time>
      </trkpt>
      <trkpt lat="45.71078" lon="4.7554">
        <ele>314.4</ele>
        <time>2025-12-15T15:38:04Z</time>
      </trkpt>
      <trkpt lat="45.71078" lon="4.7554">
        <ele>314.4</ele>
        <time>2025-12-15T15:38:05Z</time>
      </trkpt>
      <trkpt lat="45.71078" lon="4.7554">
        <ele>314.4</ele>
        <time>2025-12-15T15:38:06Z</time>
      </trkpt>
      <trkpt lat="45.71078" lon="4.7554">
        <ele>314.4</ele>
        <time>2025-12-15T15:38:07Z</time>
      </trkpt>
      <trkpt lat="45.71078" lon="4.7554">
        <ele>314.2</ele>
        <time>2025-12-15T15:38:08Z</time>
      </trkpt>
      <trkpt lat="45.71078" lon="4.7554">
        <ele>314.2</ele>
        <time>2025-12-15T15:38:09Z</time>
      </trkpt>
      <trkpt lat="45.71078" lon="4.7554">
        <ele>314.2</ele>
        <time>2025-12-15T15:38:10Z</time>
      </trkpt>
      <trkpt lat="45.71078" lon="4.7554">
        <ele>314.2</ele>
        <time>2025-12-15T15:38:11Z</time>
      </trkpt>
      <trkpt lat="45.71078" lon="4.7554">
        <ele>314.2</ele>
        <time>2025-12-15T15:38:12Z</time>
      </trkpt>
      <trkpt lat="45.71078" lon="4.7554">
        <ele>314.2</ele>
        <time>2025-12-15T15:38:13Z</time>
      </trkpt>
      <trkpt lat="45.71078" lon="4.7554">
        <ele>314.4</ele>
        <time>2025-12-15T15:38:14Z</time>
      </trkpt>
      <trkpt lat="45.71078" lon="4.7554">
        <ele>314.6</ele>
        <time>2025-12-15T15:38:15Z</time>
      </trkpt>
      <trkpt lat="45.71078" lon="4.7554">
        <ele>314.6</ele>
        <time>2025-12-15T15:38:16Z</time>
      </trkpt>
      <trkpt lat="45.71078" lon="4.7554">
        <ele>314.6</ele>
        <time>2025-12-15T15:38:17Z</time>
      </trkpt>
      <trkpt lat="45.71078" lon="4.7554">
        <ele>314.6</ele>
        <time>2025-12-15T15:38:18Z</time>
      </trkpt>
      <trkpt lat="45.71078" lon="4.7554">
        <ele>314.6</ele>
        <time>2025-12-15T15:38:19Z</time>
      </trkpt>
      <trkpt lat="45.71078" lon="4.7554">
        <ele>314.6</ele>
        <time>2025-12-15T15:38:20Z</time>
      </trkpt>
      <trkpt lat="45.71078" lon="4.7554">
        <ele>314.6</ele>
        <time>2025-12-15T15:38:21Z</time>
      </trkpt>
      <trkpt lat="45.71078" lon="4.7554">
        <ele>314.6</ele>
        <time>2025-12-15T15:38:22Z</time>
      </trkpt>
      <trkpt lat="45.71078" lon="4.7554">
        <ele>314.6</ele>
        <time>2025-12-15T15:38:23Z</time>
      </trkpt>
      <trkpt lat="45.71078" lon="4.7554">
        <ele>314.6</ele>
        <time>2025-12-15T15:38:24Z</time>
      </trkpt>
      <trkpt lat="45.71078" lon="4.7554">
        <ele>314.6</ele>
        <time>2025-12-15T15:38:25Z</time>
      </trkpt>
      <trkpt lat="45.71078" lon="4.7554">
        <ele>314.6</ele>
        <time>2025-12-15T15:38:26Z</time>
      </trkpt>
      <trkpt lat="45.71078" lon="4.7554">
        <ele>314.6</ele>
        <time>2025-12-15T15:38:27Z</time>
      </trkpt>
      <trkpt lat="45.71078" lon="4.7554">
        <ele>314.6</ele>
        <time>2025-12-15T15:38:28Z</time>
      </trkpt>
      <trkpt lat="45.71078" lon="4.7554">
        <ele>314.6</ele>
        <time>2025-12-15T15:38:29Z</time>
      </trkpt>
      <trkpt lat="45.71078" lon="4.7554">
        <ele>314.6</ele>
        <time>2025-12-15T15:38:30Z</time>
      </trkpt>
      <trkpt lat="45.71078" lon="4.7554">
        <ele>314.6</ele>
        <time>2025-12-15T15:38:31Z</time>
      </trkpt>
      <trkpt lat="45.71078" lon="4.7554">
        <ele>314.6</ele>
        <time>2025-12-15T15:38:32Z</time>
      </trkpt>
      <trkpt lat="45.71078" lon="4.7554">
        <ele>314.6</ele>
        <time>2025-12-15T15:38:33Z</time>
      </trkpt>
      <trkpt lat="45.71078" lon="4.7554">
        <ele>314.6</ele>
        <time>2025-12-15T15:38:34Z</time>
      </trkpt>
      <trkpt lat="45.71078" lon="4.7554">
        <ele>314.6</ele>
        <time>2025-12-15T15:38:35Z</time>
      </trkpt>
      <trkpt lat="45.71078" lon="4.7554">
        <ele>314.6</ele>
        <time>2025-12-15T15:38:36Z</time>
      </trkpt>
      <trkpt lat="45.71078" lon="4.7554">
        <ele>314.6</ele>
        <time>2025-12-15T15:38:37Z</time>
      </trkpt>
      <trkpt lat="45.71078" lon="4.7554">
        <ele>314.6</ele>
        <time>2025-12-15T15:38:38Z</time>
      </trkpt>
      <trkpt lat="45.71078" lon="4.7554">
        <ele>314.6</ele>
        <time>2025-12-15T15:38:39Z</time>
      </trkpt>
      <trkpt lat="45.71078" lon="4.7554">
        <ele>314.6</ele>
        <time>2025-12-15T15:38:40Z</time>
      </trkpt>
      <trkpt lat="45.71078" lon="4.7554">
        <ele>314.6</ele>
        <time>2025-12-15T15:38:41Z</time>
      </trkpt>
      <trkpt lat="45.71078" lon="4.7554">
        <ele>314.6</ele>
        <time>2025-12-15T15:38:42Z</time>
      </trkpt>
      <trkpt lat="45.71078" lon="4.7554">
        <ele>314.6</ele>
        <time>2025-12-15T15:38:43Z</time>
      </trkpt>
      <trkpt lat="45.71078" lon="4.7554">
        <ele>314.6</ele>
        <time>2025-12-15T15:38:44Z</time>
      </trkpt>
      <trkpt lat="45.71078" lon="4.7554">
        <ele>314.6</ele>
        <time>2025-12-15T15:38:45Z</time>
      </trkpt>
      <trkpt lat="45.71078" lon="4.7554">
        <ele>314.6</ele>
        <time>2025-12-15T15:38:46Z</time>
      </trkpt>
      <trkpt lat="45.71078" lon="4.7554">
        <ele>314.6</ele>
        <time>2025-12-15T15:38:47Z</time>
      </trkpt>
      <trkpt lat="45.71078" lon="4.7554">
        <ele>314.6</ele>
        <time>2025-12-15T15:38:48Z</time>
      </trkpt>
      <trkpt lat="45.71078" lon="4.7554">
        <ele>314.6</ele>
        <time>2025-12-15T15:38:49Z</time>
      </trkpt>
      <trkpt lat="45.71078" lon="4.7554">
        <ele>314.6</ele>
        <time>2025-12-15T15:38:50Z</time>
      </trkpt>
      <trkpt lat="45.71078" lon="4.7554">
        <ele>314.6</ele>
        <time>2025-12-15T15:38:51Z</time>
      </trkpt>
      <trkpt lat="45.71078" lon="4.7554">
        <ele>314.6</ele>
        <time>2025-12-15T15:38:52Z</time>
      </trkpt>
      <trkpt lat="45.71078" lon="4.7554">
        <ele>314.6</ele>
        <time>2025-12-15T15:38:53Z</time>
      </trkpt>
      <trkpt lat="45.71078" lon="4.7554">
        <ele>314.6</ele>
        <time>2025-12-15T15:38:54Z</time>
      </trkpt>
      <trkpt lat="45.71078" lon="4.7554">
        <ele>314.6</ele>
        <time>2025-12-15T15:38:55Z</time>
      </trkpt>
      <trkpt lat="45.71078" lon="4.7554">
        <ele>314.6</ele>
        <time>2025-12-15T15:38:56Z</time>
      </trkpt>
      <trkpt lat="45.71078" lon="4.7554">
        <ele>314.6</ele>
        <time>2025-12-15T15:38:57Z</time>
      </trkpt>
      <trkpt lat="45.71078" lon="4.7554">
        <ele>314.6</ele>
        <time>2025-12-15T15:38:58Z</time>
      </trkpt>
      <trkpt lat="45.71078" lon="4.7554">
        <ele>314.6</ele>
        <time>2025-12-15T15:38:59Z</time>
      </trkpt>
      <trkpt lat="45.71078" lon="4.7554">
        <ele>314.6</ele>
        <time>2025-12-15T15:39:00Z</time>
      </trkpt>
      <trkpt lat="45.71078" lon="4.7554">
        <ele>314.6</ele>
        <time>2025-12-15T15:39:01Z</time>
      </trkpt>
      <trkpt lat="45.71078" lon="4.7554">
        <ele>314.6</ele>
        <time>2025-12-15T15:39:02Z</time>
      </trkpt>
      <trkpt lat="45.71078" lon="4.7554">
        <ele>314.6</ele>
        <time>2025-12-15T15:39:03Z</time>
      </trkpt>
      <trkpt lat="45.71078" lon="4.7554">
        <ele>314.6</ele>
        <time>2025-12-15T15:39:04Z</time>
      </trkpt>
      <trkpt lat="45.71078" lon="4.7554">
        <ele>314.6</ele>
        <time>2025-12-15T15:39:05Z</time>
      </trkpt>
      <trkpt lat="45.71078" lon="4.7554">
        <ele>314.6</ele>
        <time>2025-12-15T15:39:06Z</time>
      </trkpt>
      <trkpt lat="45.71078" lon="4.7554">
        <ele>314.6</ele>
        <time>2025-12-15T15:39:07Z</time>
      </trkpt>
      <trkpt lat="45.71078" lon="4.7554">
        <ele>314.6</ele>
        <time>2025-12-15T15:39:08Z</time>
      </trkpt>
      <trkpt lat="45.71078" lon="4.7554">
        <ele>314.6</ele>
        <time>2025-12-15T15:39:09Z</time>
      </trkpt>
      <trkpt lat="45.71078" lon="4.7554">
        <ele>314.6</ele>
        <time>2025-12-15T15:39:10Z</time>
      </trkpt>
      <trkpt lat="45.71078" lon="4.7554">
        <ele>314.6</ele>
        <time>2025-12-15T15:39:11Z</time>
      </trkpt>
      <trkpt lat="45.71078" lon="4.7554">
        <ele>314.6</ele>
        <time>2025-12-15T15:39:12Z</time>
      </trkpt>
      <trkpt lat="45.71078" lon="4.7554">
        <ele>314.6</ele>
        <time>2025-12-15T15:39:13Z</time>
      </trkpt>
      <trkpt lat="45.71078" lon="4.7554">
        <ele>314.6</ele>
        <time>2025-12-15T15:39:14Z</time>
      </trkpt>
      <trkpt lat="45.71078" lon="4.7554">
        <ele>314.6</ele>
        <time>2025-12-15T15:39:15Z</time>
      </trkpt>
      <trkpt lat="45.71078" lon="4.7554">
        <ele>314.6</ele>
        <time>2025-12-15T15:39:16Z</time>
      </trkpt>
      <trkpt lat="45.71078" lon="4.7554">
        <ele>314.6</ele>
        <time>2025-12-15T15:39:17Z</time>
      </trkpt>
      <trkpt lat="45.71078" lon="4.7554">
        <ele>314.6</ele>
        <time>2025-12-15T15:39:18Z</time>
      </trkpt>
      <trkpt lat="45.71078" lon="4.7554">
        <ele>314.6</ele>
        <time>2025-12-15T15:39:19Z</time>
      </trkpt>
      <trkpt lat="45.71078" lon="4.7554">
        <ele>314.6</ele>
        <time>2025-12-15T15:39:20Z</time>
      </trkpt>
      <trkpt lat="45.71078" lon="4.7554">
        <ele>314.6</ele>
        <time>2025-12-15T15:39:21Z</time>
      </trkpt>
      <trkpt lat="45.71078" lon="4.7554">
        <ele>314.6</ele>
        <time>2025-12-15T15:39:22Z</time>
      </trkpt>
      <trkpt lat="45.71078" lon="4.7554">
        <ele>314.6</ele>
        <time>2025-12-15T15:39:23Z</time>
      </trkpt>
      <trkpt lat="45.71078" lon="4.7554">
        <ele>314.6</ele>
        <time>2025-12-15T15:39:24Z</time>
      </trkpt>
      <trkpt lat="45.71078" lon="4.7554">
        <ele>314.6</ele>
        <time>2025-12-15T15:39:25Z</time>
      </trkpt>
      <trkpt lat="45.71078" lon="4.7554">
        <ele>314.6</ele>
        <time>2025-12-15T15:39:26Z</time>
      </trkpt>
      <trkpt lat="45.71078" lon="4.7554">
        <ele>314.6</ele>
        <time>2025-12-15T15:39:27Z</time>
      </trkpt>
      <trkpt lat="45.71078" lon="4.7554">
        <ele>314.6</ele>
        <time>2025-12-15T15:39:28Z</time>
      </trkpt>
      <trkpt lat="45.71078" lon="4.7554">
        <ele>314.6</ele>
        <time>2025-12-15T15:39:29Z</time>
      </trkpt>
      <trkpt lat="45.71078" lon="4.7554">
        <ele>314.6</ele>
        <time>2025-12-15T15:39:30Z</time>
      </trkpt>
      <trkpt lat="45.71078" lon="4.7554">
        <ele>314.6</ele>
        <time>2025-12-15T15:39:31Z</time>
      </trkpt>
      <trkpt lat="45.71078" lon="4.7554">
        <ele>314.6</ele>
        <time>2025-12-15T15:39:32Z</time>
      </trkpt>
      <trkpt lat="45.71078" lon="4.7554">
        <ele>314.6</ele>
        <time>2025-12-15T15:39:33Z</time>
      </trkpt>
      <trkpt lat="45.71078" lon="4.7554">
        <ele>314.6</ele>
        <time>2025-12-15T15:39:34Z</time>
      </trkpt>
      <trkpt lat="45.71078" lon="4.7554">
        <ele>314.6</ele>
        <time>2025-12-15T15:39:35Z</time>
      </trkpt>
      <trkpt lat="45.71078" lon="4.7554">
        <ele>314.6</ele>
        <time>2025-12-15T15:39:36Z</time>
      </trkpt>
      <trkpt lat="45.71078" lon="4.7554">
        <ele>314.6</ele>
        <time>2025-12-15T15:39:37Z</time>
      </trkpt>
      <trkpt lat="45.71078" lon="4.7554">
        <ele>314.6</ele>
        <time>2025-12-15T15:39:38Z</time>
      </trkpt>
      <trkpt lat="45.71078" lon="4.7554">
        <ele>314.6</ele>
        <time>2025-12-15T15:39:39Z</time>
      </trkpt>
      <trkpt lat="45.71078" lon="4.7554">
        <ele>314.6</ele>
        <time>2025-12-15T15:39:40Z</time>
      </trkpt>
      <trkpt lat="45.71078" lon="4.7554">
        <ele>314.6</ele>
        <time>2025-12-15T15:39:41Z</time>
      </trkpt>
      <trkpt lat="45.71078" lon="4.7554">
        <ele>314.6</ele>
        <time>2025-12-15T15:39:42Z</time>
      </trkpt>
      <trkpt lat="45.71078" lon="4.7554">
        <ele>314.6</ele>
        <time>2025-12-15T15:39:43Z</time>
      </trkpt>
      <trkpt lat="45.71078" lon="4.7554">
        <ele>314.6</ele>
        <time>2025-12-15T15:39:44Z</time>
      </trkpt>
      <trkpt lat="45.71078" lon="4.7554">
        <ele>314.6</ele>
        <time>2025-12-15T15:39:45Z</time>
      </trkpt>
      <trkpt lat="45.71078" lon="4.7554">
        <ele>314.6</ele>
        <time>2025-12-15T15:39:46Z</time>
      </trkpt>
      <trkpt lat="45.71078" lon="4.7554">
        <ele>314.6</ele>
        <time>2025-12-15T15:39:47Z</time>
      </trkpt>
      <trkpt lat="45.71078" lon="4.7554">
        <ele>314.6</ele>
        <time>2025-12-15T15:39:48Z</time>
      </trkpt>
      <trkpt lat="45.71078" lon="4.7554">
        <ele>314.6</ele>
        <time>2025-12-15T15:39:49Z</time>
      </trkpt>
      <trkpt lat="45.71078" lon="4.7554">
        <ele>314.6</ele>
        <time>2025-12-15T15:39:50Z</time>
      </trkpt>
      <trkpt lat="45.71078" lon="4.7554">
        <ele>314.6</ele>
        <time>2025-12-15T15:39:51Z</time>
      </trkpt>
      <trkpt lat="45.71078" lon="4.7554">
        <ele>314.6</ele>
        <time>2025-12-15T15:39:52Z</time>
      </trkpt>
      <trkpt lat="45.71078" lon="4.7554">
        <ele>314.6</ele>
        <time>2025-12-15T15:39:53Z</time>
      </trkpt>
      <trkpt lat="45.71078" lon="4.7554">
        <ele>314.6</ele>
        <time>2025-12-15T15:39:54Z</time>
      </trkpt>
      <trkpt lat="45.71078" lon="4.7554">
        <ele>314.6</ele>
        <time>2025-12-15T15:39:55Z</time>
      </trkpt>
      <trkpt lat="45.71078" lon="4.7554">
        <ele>314.6</ele>
        <time>2025-12-15T15:39:56Z</time>
      </trkpt>
      <trkpt lat="45.71078" lon="4.7554">
        <ele>314.6</ele>
        <time>2025-12-15T15:39:57Z</time>
      </trkpt>
      <trkpt lat="45.71078" lon="4.7554">
        <ele>314.6</ele>
        <time>2025-12-15T15:39:58Z</time>
      </trkpt>
      <trkpt lat="45.71078" lon="4.7554">
        <ele>314.6</ele>
        <time>2025-12-15T15:39:59Z</time>
      </trkpt>
      <trkpt lat="45.71078" lon="4.7554">
        <ele>314.6</ele>
        <time>2025-12-15T15:40:00Z</time>
      </trkpt>
      <trkpt lat="45.71078" lon="4.7554">
        <ele>314.6</ele>
        <time>2025-12-15T15:40:01Z</time>
      </trkpt>
      <trkpt lat="45.71078" lon="4.7554">
        <ele>314.6</ele>
        <time>2025-12-15T15:40:02Z</time>
      </trkpt>
      <trkpt lat="45.71078" lon="4.7554">
        <ele>314.6</ele>
        <time>2025-12-15T15:40:03Z</time>
      </trkpt>
      <trkpt lat="45.71078" lon="4.7554">
        <ele>314.6</ele>
        <time>2025-12-15T15:40:04Z</time>
      </trkpt>
      <trkpt lat="45.71078" lon="4.7554">
        <ele>314.6</ele>
        <time>2025-12-15T15:40:05Z</time>
      </trkpt>
      <trkpt lat="45.71078" lon="4.7554">
        <ele>314.6</ele>
        <time>2025-12-15T15:40:06Z</time>
      </trkpt>
      <trkpt lat="45.71078" lon="4.7554">
        <ele>314.6</ele>
        <time>2025-12-15T15:40:07Z</time>
      </trkpt>
      <trkpt lat="45.71078" lon="4.7554">
        <ele>314.6</ele>
        <time>2025-12-15T15:40:08Z</time>
      </trkpt>
      <trkpt lat="45.71078" lon="4.7554">
        <ele>314.6</ele>
        <time>2025-12-15T15:40:09Z</time>
      </trkpt>
      <trkpt lat="45.71078" lon="4.7554">
        <ele>314.6</ele>
        <time>2025-12-15T15:40:10Z</time>
      </trkpt>
      <trkpt lat="45.71078" lon="4.7554">
        <ele>314.6</ele>
        <time>2025-12-15T15:40:11Z</time>
      </trkpt>
      <trkpt lat="45.71078" lon="4.7554">
        <ele>314.6</ele>
        <time>2025-12-15T15:40:12Z</time>
      </trkpt>
      <trkpt lat="45.71078" lon="4.7554">
        <ele>314.6</ele>
        <time>2025-12-15T15:40:13Z</time>
      </trkpt>
      <trkpt lat="45.71078" lon="4.7554">
        <ele>314.6</ele>
        <time>2025-12-15T15:40:14Z</time>
      </trkpt>
      <trkpt lat="45.71078" lon="4.7554">
        <ele>314.6</ele>
        <time>2025-12-15T15:40:15Z</time>
      </trkpt>
      <trkpt lat="45.71078" lon="4.7554">
        <ele>314.6</ele>
        <time>2025-12-15T15:40:16Z</time>
      </trkpt>
      <trkpt lat="45.71078" lon="4.7554">
        <ele>314.6</ele>
        <time>2025-12-15T15:40:17Z</time>
      </trkpt>
      <trkpt lat="45.71078" lon="4.7554">
        <ele>314.6</ele>
        <time>2025-12-15T15:40:18Z</time>
      </trkpt>
      <trkpt lat="45.71078" lon="4.7554">
        <ele>314.6</ele>
        <time>2025-12-15T15:40:19Z</time>
      </trkpt>
      <trkpt lat="45.71078" lon="4.7554">
        <ele>314.6</ele>
        <time>2025-12-15T15:40:20Z</time>
      </trkpt>
      <trkpt lat="45.71078" lon="4.7554">
        <ele>314.6</ele>
        <time>2025-12-15T15:40:21Z</time>
      </trkpt>
      <trkpt lat="45.71078" lon="4.7554">
        <ele>314.6</ele>
        <time>2025-12-15T15:40:22Z</time>
      </trkpt>
      <trkpt lat="45.71078" lon="4.7554">
        <ele>314.6</ele>
        <time>2025-12-15T15:40:23Z</time>
      </trkpt>
      <trkpt lat="45.71078" lon="4.7554">
        <ele>314.6</ele>
        <time>2025-12-15T15:40:24Z</time>
      </trkpt>
      <trkpt lat="45.71078" lon="4.7554">
        <ele>314.6</ele>
        <time>2025-12-15T15:40:25Z</time>
      </trkpt>
      <trkpt lat="45.71078" lon="4.7554">
        <ele>314.6</ele>
        <time>2025-12-15T15:40:26Z</time>
      </trkpt>
      <trkpt lat="45.71078" lon="4.7554">
        <ele>314.6</ele>
        <time>2025-12-15T15:40:27Z</time>
      </trkpt>
      <trkpt lat="45.71078" lon="4.7554">
        <ele>314.6</ele>
        <time>2025-12-15T15:40:28Z</time>
      </trkpt>
      <trkpt lat="45.71078" lon="4.7554">
        <ele>314.6</ele>
        <time>2025-12-15T15:40:29Z</time>
      </trkpt>
      <trkpt lat="45.71078" lon="4.7554">
        <ele>314.6</ele>
        <time>2025-12-15T15:40:30Z</time>
      </trkpt>
      <trkpt lat="45.71078" lon="4.7554">
        <ele>314.6</ele>
        <time>2025-12-15T15:40:31Z</time>
      </trkpt>
      <trkpt lat="45.71078" lon="4.7554">
        <ele>314.6</ele>
        <time>2025-12-15T15:40:32Z</time>
      </trkpt>
      <trkpt lat="45.71078" lon="4.7554">
        <ele>314.6</ele>
        <time>2025-12-15T15:40:33Z</time>
      </trkpt>
      <trkpt lat="45.71078" lon="4.7554">
        <ele>314.6</ele>
        <time>2025-12-15T15:40:34Z</time>
      </trkpt>
      <trkpt lat="45.71078" lon="4.7554">
        <ele>314.6</ele>
        <time>2025-12-15T15:40:35Z</time>
      </trkpt>
      <trkpt lat="45.71078" lon="4.7554">
        <ele>314.6</ele>
        <time>2025-12-15T15:40:36Z</time>
      </trkpt>
      <trkpt lat="45.71078" lon="4.7554">
        <ele>314.6</ele>
        <time>2025-12-15T15:40:37Z</time>
      </trkpt>
      <trkpt lat="45.71078" lon="4.7554">
        <ele>314.6</ele>
        <time>2025-12-15T15:40:38Z</time>
      </trkpt>
      <trkpt lat="45.71078" lon="4.7554">
        <ele>314.6</ele>
        <time>2025-12-15T15:40:39Z</time>
      </trkpt>
      <trkpt lat="45.71078" lon="4.7554">
        <ele>314.6</ele>
        <time>2025-12-15T15:40:40Z</time>
      </trkpt>
      <trkpt lat="45.71078" lon="4.7554">
        <ele>314.6</ele>
        <time>2025-12-15T15:40:41Z</time>
      </trkpt>
      <trkpt lat="45.71078" lon="4.7554">
        <ele>314.6</ele>
        <time>2025-12-15T15:40:42Z</time>
      </trkpt>
      <trkpt lat="45.71078" lon="4.7554">
        <ele>314.6</ele>
        <time>2025-12-15T15:40:43Z</time>
      </trkpt>
      <trkpt lat="45.71078" lon="4.7554">
        <ele>314.6</ele>
        <time>2025-12-15T15:40:44Z</time>
      </trkpt>
      <trkpt lat="45.71078" lon="4.7554">
        <ele>314.6</ele>
        <time>2025-12-15T15:40:45Z</time>
      </trkpt>
      <trkpt lat="45.71078" lon="4.7554">
        <ele>314.6</ele>
        <time>2025-12-15T15:40:46Z</time>
      </trkpt>
      <trkpt lat="45.71078" lon="4.7554">
        <ele>314.6</ele>
        <time>2025-12-15T15:40:47Z</time>
      </trkpt>
      <trkpt lat="45.71078" lon="4.7554">
        <ele>314.6</ele>
        <time>2025-12-15T15:40:48Z</time>
      </trkpt>
      <trkpt lat="45.71078" lon="4.7554">
        <ele>314.6</ele>
        <time>2025-12-15T15:40:49Z</time>
      </trkpt>
      <trkpt lat="45.71078" lon="4.7554">
        <ele>314.6</ele>
        <time>2025-12-15T15:40:50Z</time>
      </trkpt>
      <trkpt lat="45.71078" lon="4.7554">
        <ele>314.6</ele>
        <time>2025-12-15T15:40:51Z</time>
      </trkpt>
      <trkpt lat="45.71078" lon="4.7554">
        <ele>314.6</ele>
        <time>2025-12-15T15:40:52Z</time>
      </trkpt>
      <trkpt lat="45.71078" lon="4.7554">
        <ele>314.6</ele>
        <time>2025-12-15T15:40:53Z</time>
      </trkpt>
      <trkpt lat="45.71078" lon="4.7554">
        <ele>314.6</ele>
        <time>2025-12-15T15:40:54Z</time>
      </trkpt>
      <trkpt lat="45.71078" lon="4.7554">
        <ele>314.6</ele>
        <time>2025-12-15T15:40:55Z</time>
      </trkpt>
      <trkpt lat="45.71078" lon="4.7554">
        <ele>314.6</ele>
        <time>2025-12-15T15:40:56Z</time>
      </trkpt>
      <trkpt lat="45.71078" lon="4.7554">
        <ele>314.6</ele>
        <time>2025-12-15T15:40:57Z</time>
      </trkpt>
      <trkpt lat="45.71078" lon="4.7554">
        <ele>314.6</ele>
        <time>2025-12-15T15:40:58Z</time>
      </trkpt>
      <trkpt lat="45.71078" lon="4.7554">
        <ele>314.6</ele>
        <time>2025-12-15T15:40:59Z</time>
      </trkpt>
      <trkpt lat="45.71078" lon="4.7554">
        <ele>314.6</ele>
        <time>2025-12-15T15:41:00Z</time>
      </trkpt>
      <trkpt lat="45.71078" lon="4.7554">
        <ele>314.6</ele>
        <time>2025-12-15T15:41:01Z</time>
      </trkpt>
      <trkpt lat="45.71078" lon="4.7554">
        <ele>314.6</ele>
        <time>2025-12-15T15:41:02Z</time>
      </trkpt>
      <trkpt lat="45.71078" lon="4.7554">
        <ele>314.6</ele>
        <time>2025-12-15T15:41:03Z</time>
      </trkpt>
      <trkpt lat="45.71078" lon="4.7554">
        <ele>314.6</ele>
        <time>2025-12-15T15:41:04Z</time>
      </trkpt>
      <trkpt lat="45.71078" lon="4.7554">
        <ele>314.6</ele>
        <time>2025-12-15T15:41:05Z</time>
      </trkpt>
      <trkpt lat="45.71078" lon="4.7554">
        <ele>314.6</ele>
        <time>2025-12-15T15:41:06Z</time>
      </trkpt>
      <trkpt lat="45.71078" lon="4.7554">
        <ele>314.6</ele>
        <time>2025-12-15T15:41:07Z</time>
      </trkpt>
      <trkpt lat="45.71078" lon="4.7554">
        <ele>314.6</ele>
        <time>2025-12-15T15:41:08Z</time>
      </trkpt>
      <trkpt lat="45.71078" lon="4.7554">
        <ele>314.6</ele>
        <time>2025-12-15T15:41:09Z</time>
      </trkpt>
      <trkpt lat="45.71078" lon="4.7554">
        <ele>314.6</ele>
        <time>2025-12-15T15:41:10Z</time>
      </trkpt>
      <trkpt lat="45.71078" lon="4.7554">
        <ele>314.6</ele>
        <time>2025-12-15T15:41:11Z</time>
      </trkpt>
      <trkpt lat="45.71078" lon="4.7554">
        <ele>314.6</ele>
        <time>2025-12-15T15:41:12Z</time>
      </trkpt>
      <trkpt lat="45.71078" lon="4.7554">
        <ele>314.6</ele>
        <time>2025-12-15T15:41:13Z</time>
      </trkpt>
      <trkpt lat="45.71078" lon="4.7554">
        <ele>314.6</ele>
        <time>2025-12-15T15:41:14Z</time>
      </trkpt>
      <trkpt lat="45.71078" lon="4.7554">
        <ele>314.6</ele>
        <time>2025-12-15T15:41:15Z</time>
      </trkpt>
      <trkpt lat="45.71078" lon="4.7554">
        <ele>314.6</ele>
        <time>2025-12-15T15:41:16Z</time>
      </trkpt>
      <trkpt lat="45.71078" lon="4.7554">
        <ele>314.6</ele>
        <time>2025-12-15T15:41:17Z</time>
      </trkpt>
      <trkpt lat="45.71078" lon="4.7554">
        <ele>314.6</ele>
        <time>2025-12-15T15:41:18Z</time>
      </trkpt>
      <trkpt lat="45.71078" lon="4.7554">
        <ele>314.6</ele>
        <time>2025-12-15T15:41:19Z</time>
      </trkpt>
      <trkpt lat="45.71078" lon="4.7554">
        <ele>314.6</ele>
        <time>2025-12-15T15:41:20Z</time>
      </trkpt>
      <trkpt lat="45.71078" lon="4.7554">
        <ele>314.6</ele>
        <time>2025-12-15T15:41:21Z</time>
      </trkpt>
      <trkpt lat="45.71078" lon="4.7554">
        <ele>314.6</ele>
        <time>2025-12-15T15:41:22Z</time>
      </trkpt>
      <trkpt lat="45.71078" lon="4.7554">
        <ele>314.6</ele>
        <time>2025-12-15T15:41:23Z</time>
      </trkpt>
      <trkpt lat="45.71078" lon="4.7554">
        <ele>314.6</ele>
        <time>2025-12-15T15:41:24Z</time>
      </trkpt>
      <trkpt lat="45.71078" lon="4.7554">
        <ele>314.6</ele>
        <time>2025-12-15T15:41:25Z</time>
      </trkpt>
      <trkpt lat="45.71078" lon="4.7554">
        <ele>314.6</ele>
        <time>2025-12-15T15:41:26Z</time>
      </trkpt>
      <trkpt lat="45.71078" lon="4.7554">
        <ele>314.6</ele>
        <time>2025-12-15T15:41:27Z</time>
      </trkpt>
      <trkpt lat="45.71078" lon="4.7554">
        <ele>314.6</ele>
        <time>2025-12-15T15:41:28Z</time>
      </trkpt>
      <trkpt lat="45.71078" lon="4.7554">
        <ele>314.6</ele>
        <time>2025-12-15T15:41:29Z</time>
      </trkpt>
      <trkpt lat="45.71078" lon="4.7554">
        <ele>314.6</ele>
        <time>2025-12-15T15:41:30Z</time>
      </trkpt>
      <trkpt lat="45.71078" lon="4.7554">
        <ele>314.6</ele>
        <time>2025-12-15T15:41:31Z</time>
      </trkpt>
      <trkpt lat="45.71078" lon="4.7554">
        <ele>314.6</ele>
        <time>2025-12-15T15:41:32Z</time>
      </trkpt>
      <trkpt lat="45.71078" lon="4.7554">
        <ele>314.6</ele>
        <time>2025-12-15T15:41:33Z</time>
      </trkpt>
      <trkpt lat="45.71078" lon="4.7554">
        <ele>314.6</ele>
        <time>2025-12-15T15:41:34Z</time>
      </trkpt>
      <trkpt lat="45.71078" lon="4.7554">
        <ele>314.6</ele>
        <time>2025-12-15T15:41:35Z</time>
      </trkpt>
      <trkpt lat="45.71078" lon="4.7554">
        <ele>314.6</ele>
        <time>2025-12-15T15:41:36Z</time>
      </trkpt>
      <trkpt lat="45.71078" lon="4.7554">
        <ele>314.6</ele>
        <time>2025-12-15T15:41:37Z</time>
      </trkpt>
      <trkpt lat="45.71078" lon="4.7554">
        <ele>314.6</ele>
        <time>2025-12-15T15:41:38Z</time>
      </trkpt>
      <trkpt lat="45.71078" lon="4.7554">
        <ele>314.6</ele>
        <time>2025-12-15T15:41:39Z</time>
      </trkpt>
      <trkpt lat="45.71078" lon="4.7554">
        <ele>314.6</ele>
        <time>2025-12-15T15:41:40Z</time>
      </trkpt>
      <trkpt lat="45.71078" lon="4.7554">
        <ele>314.6</ele>
        <time>2025-12-15T15:41:41Z</time>
      </trkpt>
      <trkpt lat="45.71078" lon="4.7554">
        <ele>314.6</ele>
        <time>2025-12-15T15:41:42Z</time>
      </trkpt>
      <trkpt lat="45.71078" lon="4.7554">
        <ele>314.6</ele>
        <time>2025-12-15T15:41:43Z</time>
      </trkpt>
      <trkpt lat="45.71078" lon="4.7554">
        <ele>314.6</ele>
        <time>2025-12-15T15:41:44Z</time>
      </trkpt>
      <trkpt lat="45.71078" lon="4.7554">
        <ele>314.6</ele>
        <time>2025-12-15T15:41:45Z</time>
      </trkpt>
      <trkpt lat="45.71078" lon="4.7554">
        <ele>314.6</ele>
        <time>2025-12-15T15:41:46Z</time>
      </trkpt>
      <trkpt lat="45.71078" lon="4.7554">
        <ele>314.6</ele>
        <time>2025-12-15T15:41:47Z</time>
      </trkpt>
      <trkpt lat="45.71078" lon="4.7554">
        <ele>314.6</ele>
        <time>2025-12-15T15:41:48Z</time>
      </trkpt>
      <trkpt lat="45.71078" lon="4.7554">
        <ele>314.6</ele>
        <time>2025-12-15T15:41:49Z</time>
      </trkpt>
      <trkpt lat="45.71078" lon="4.7554">
        <ele>314.6</ele>
        <time>2025-12-15T15:41:50Z</time>
      </trkpt>
      <trkpt lat="45.71078" lon="4.7554">
        <ele>314.6</ele>
        <time>2025-12-15T15:41:51Z</time>
      </trkpt>
      <trkpt lat="45.71078" lon="4.7554">
        <ele>314.6</ele>
        <time>2025-12-15T15:41:52Z</time>
      </trkpt>
      <trkpt lat="45.71078" lon="4.7554">
        <ele>314.6</ele>
        <time>2025-12-15T15:41:53Z</time>
      </trkpt>
      <trkpt lat="45.71078" lon="4.7554">
        <ele>314.6</ele>
        <time>2025-12-15T15:41:54Z</time>
      </trkpt>
      <trkpt lat="45.71078" lon="4.7554">
        <ele>314.6</ele>
        <time>2025-12-15T15:41:55Z</time>
      </trkpt>
      <trkpt lat="45.71078" lon="4.7554">
        <ele>314.6</ele>
        <time>2025-12-15T15:41:56Z</time>
      </trkpt>
      <trkpt lat="45.71078" lon="4.7554">
        <ele>314.6</ele>
        <time>2025-12-15T15:41:57Z</time>
      </trkpt>
      <trkpt lat="45.71078" lon="4.7554">
        <ele>314.6</ele>
        <time>2025-12-15T15:41:58Z</time>
      </trkpt>
      <trkpt lat="45.71078" lon="4.7554">
        <ele>314.6</ele>
        <time>2025-12-15T15:41:59Z</time>
      </trkpt>
      <trkpt lat="45.71078" lon="4.7554">
        <ele>314.6</ele>
        <time>2025-12-15T15:42:00Z</time>
      </trkpt>
      <trkpt lat="45.71078" lon="4.7554">
        <ele>314.6</ele>
        <time>2025-12-15T15:42:01Z</time>
      </trkpt>
      <trkpt lat="45.71078" lon="4.7554">
        <ele>314.6</ele>
        <time>2025-12-15T15:42:02Z</time>
      </trkpt>
      <trkpt lat="45.71078" lon="4.7554">
        <ele>314.6</ele>
        <time>2025-12-15T15:42:03Z</time>
      </trkpt>
      <trkpt lat="45.71078" lon="4.7554">
        <ele>314.6</ele>
        <time>2025-12-15T15:42:04Z</time>
      </trkpt>
      <trkpt lat="45.71078" lon="4.7554">
        <ele>314.6</ele>
        <time>2025-12-15T15:42:05Z</time>
      </trkpt>
      <trkpt lat="45.71078" lon="4.7554">
        <ele>314.6</ele>
        <time>2025-12-15T15:42:06Z</time>
      </trkpt>
      <trkpt lat="45.71078" lon="4.7554">
        <ele>314.6</ele>
        <time>2025-12-15T15:42:07Z</time>
      </trkpt>
      <trkpt lat="45.71078" lon="4.7554">
        <ele>314.6</ele>
        <time>2025-12-15T15:42:08Z</time>
      </trkpt>
      <trkpt lat="45.71078" lon="4.7554">
        <ele>314.6</ele>
        <time>2025-12-15T15:42:09Z</time>
      </trkpt>
      <trkpt lat="45.71078" lon="4.7554">
        <ele>314.6</ele>
        <time>2025-12-15T15:42:10Z</time>
      </trkpt>
      <trkpt lat="45.71078" lon="4.7554">
        <ele>314.6</ele>
        <time>2025-12-15T15:42:11Z</time>
      </trkpt>
      <trkpt lat="45.71078" lon="4.7554">
        <ele>314.6</ele>
        <time>2025-12-15T15:42:12Z</time>
      </trkpt>
      <trkpt lat="45.71078" lon="4.7554">
        <ele>314.6</ele>
        <time>2025-12-15T15:42:13Z</time>
      </trkpt>
      <trkpt lat="45.71078" lon="4.7554">
        <ele>314.6</ele>
        <time>2025-12-15T15:42:14Z</time>
      </trkpt>
      <trkpt lat="45.71078" lon="4.7554">
        <ele>314.6</ele>
        <time>2025-12-15T15:42:15Z</time>
      </trkpt>
      <trkpt lat="45.71078" lon="4.7554">
        <ele>314.6</ele>
        <time>2025-12-15T15:42:16Z</time>
      </trkpt>
      <trkpt lat="45.71078" lon="4.7554">
        <ele>314.6</ele>
        <time>2025-12-15T15:42:17Z</time>
      </trkpt>
      <trkpt lat="45.71078" lon="4.7554">
        <ele>314.6</ele>
        <time>2025-12-15T15:42:18Z</time>
      </trkpt>
      <trkpt lat="45.71078" lon="4.7554">
        <ele>314.6</ele>
        <time>2025-12-15T15:42:19Z</time>
      </trkpt>
      <trkpt lat="45.71078" lon="4.7554">
        <ele>314.6</ele>
        <time>2025-12-15T15:42:20Z</time>
      </trkpt>
      <trkpt lat="45.71078" lon="4.7554">
        <ele>314.6</ele>
        <time>2025-12-15T15:42:21Z</time>
      </trkpt>
      <trkpt lat="45.71078" lon="4.7554">
        <ele>314.6</ele>
        <time>2025-12-15T15:42:22Z</time>
      </trkpt>
      <trkpt lat="45.71078" lon="4.7554">
        <ele>314.6</ele>
        <time>2025-12-15T15:42:23Z</time>
      </trkpt>
      <trkpt lat="45.71078" lon="4.7554">
        <ele>314.6</ele>
        <time>2025-12-15T15:42:24Z</time>
      </trkpt>
      <trkpt lat="45.71078" lon="4.7554">
        <ele>314.6</ele>
        <time>2025-12-15T15:42:25Z</time>
      </trkpt>
      <trkpt lat="45.71078" lon="4.7554">
        <ele>314.6</ele>
        <time>2025-12-15T15:42:26Z</time>
      </trkpt>
      <trkpt lat="45.71078" lon="4.7554">
        <ele>314.6</ele>
        <time>2025-12-15T15:42:27Z</time>
      </trkpt>
      <trkpt lat="45.71078" lon="4.7554">
        <ele>314.6</ele>
        <time>2025-12-15T15:42:28Z</time>
      </trkpt>
      <trkpt lat="45.71078" lon="4.7554">
        <ele>314.6</ele>
        <time>2025-12-15T15:42:29Z</time>
      </trkpt>
      <trkpt lat="45.71078" lon="4.7554">
        <ele>314.6</ele>
        <time>2025-12-15T15:42:30Z</time>
      </trkpt>
      <trkpt lat="45.71078" lon="4.7554">
        <ele>314.6</ele>
        <time>2025-12-15T15:42:31Z</time>
      </trkpt>
      <trkpt lat="45.71078" lon="4.7554">
        <ele>314.6</ele>
        <time>2025-12-15T15:42:32Z</time>
      </trkpt>
      <trkpt lat="45.71078" lon="4.7554">
        <ele>314.6</ele>
        <time>2025-12-15T15:42:33Z</time>
      </trkpt>
      <trkpt lat="45.71078" lon="4.7554">
        <ele>314.6</ele>
        <time>2025-12-15T15:42:34Z</time>
      </trkpt>
      <trkpt lat="45.71078" lon="4.7554">
        <ele>314.6</ele>
        <time>2025-12-15T15:42:35Z</time>
      </trkpt>
      <trkpt lat="45.71078" lon="4.7554">
        <ele>314.6</ele>
        <time>2025-12-15T15:42:36Z</time>
      </trkpt>
      <trkpt lat="45.71078" lon="4.7554">
        <ele>314.6</ele>
        <time>2025-12-15T15:42:37Z</time>
      </trkpt>
      <trkpt lat="45.71078" lon="4.7554">
        <ele>314.6</ele>
        <time>2025-12-15T15:42:38Z</time>
      </trkpt>
      <trkpt lat="45.71078" lon="4.7554">
        <ele>314.6</ele>
        <time>2025-12-15T15:42:39Z</time>
      </trkpt>
      <trkpt lat="45.71078" lon="4.7554">
        <ele>314.6</ele>
        <time>2025-12-15T15:42:40Z</time>
      </trkpt>
      <trkpt lat="45.71078" lon="4.7554">
        <ele>314.6</ele>
        <time>2025-12-15T15:42:41Z</time>
      </trkpt>
      <trkpt lat="45.71078" lon="4.7554">
        <ele>314.6</ele>
        <time>2025-12-15T15:42:42Z</time>
      </trkpt>
      <trkpt lat="45.71078" lon="4.7554">
        <ele>314.6</ele>
        <time>2025-12-15T15:42:43Z</time>
      </trkpt>
      <trkpt lat="45.71078" lon="4.7554">
        <ele>314.6</ele>
        <time>2025-12-15T15:42:44Z</time>
      </trkpt>
      <trkpt lat="45.71078" lon="4.7554">
        <ele>314.6</ele>
        <time>2025-12-15T15:42:45Z</time>
      </trkpt>
      <trkpt lat="45.71078" lon="4.7554">
        <ele>314.6</ele>
        <time>2025-12-15T15:42:46Z</time>
      </trkpt>
      <trkpt lat="45.71078" lon="4.7554">
        <ele>314.6</ele>
        <time>2025-12-15T15:42:47Z</time>
      </trkpt>
      <trkpt lat="45.71078" lon="4.7554">
        <ele>314.6</ele>
        <time>2025-12-15T15:42:48Z</time>
      </trkpt>
      <trkpt lat="45.71078" lon="4.7554">
        <ele>314.6</ele>
        <time>2025-12-15T15:42:49Z</time>
      </trkpt>
      <trkpt lat="45.71078" lon="4.7554">
        <ele>314.6</ele>
        <time>2025-12-15T15:42:50Z</time>
      </trkpt>
      <trkpt lat="45.71078" lon="4.7554">
        <ele>314.6</ele>
        <time>2025-12-15T15:42:51Z</time>
      </trkpt>
      <trkpt lat="45.71078" lon="4.7554">
        <ele>314.6</ele>
        <time>2025-12-15T15:42:52Z</time>
      </trkpt>
      <trkpt lat="45.71078" lon="4.7554">
        <ele>314.6</ele>
        <time>2025-12-15T15:42:53Z</time>
      </trkpt>
      <trkpt lat="45.71078" lon="4.7554">
        <ele>314.6</ele>
        <time>2025-12-15T15:42:54Z</time>
      </trkpt>
      <trkpt lat="45.71078" lon="4.7554">
        <ele>314.6</ele>
        <time>2025-12-15T15:42:55Z</time>
      </trkpt>
      <trkpt lat="45.71078" lon="4.7554">
        <ele>314.6</ele>
        <time>2025-12-15T15:42:56Z</time>
      </trkpt>
      <trkpt lat="45.71078" lon="4.7554">
        <ele>314.6</ele>
        <time>2025-12-15T15:42:57Z</time>
      </trkpt>
      <trkpt lat="45.71078" lon="4.7554">
        <ele>314.6</ele>
        <time>2025-12-15T15:42:58Z</time>
      </trkpt>
      <trkpt lat="45.71078" lon="4.7554">
        <ele>314.6</ele>
        <time>2025-12-15T15:42:59Z</time>
      </trkpt>
      <trkpt lat="45.71078" lon="4.7554">
        <ele>314.6</ele>
        <time>2025-12-15T15:43:00Z</time>
      </trkpt>
      <trkpt lat="45.71078" lon="4.7554">
        <ele>314.6</ele>
        <time>2025-12-15T15:43:01Z</time>
      </trkpt>
      <trkpt lat="45.71078" lon="4.7554">
        <ele>314.6</ele>
        <time>2025-12-15T15:43:02Z</time>
      </trkpt>
      <trkpt lat="45.71078" lon="4.7554">
        <ele>314.6</ele>
        <time>2025-12-15T15:43:03Z</time>
      </trkpt>
      <trkpt lat="45.71078" lon="4.7554">
        <ele>314.6</ele>
        <time>2025-12-15T15:43:04Z</time>
      </trkpt>
      <trkpt lat="45.71078" lon="4.7554">
        <ele>314.6</ele>
        <time>2025-12-15T15:43:05Z</time>
      </trkpt>
      <trkpt lat="45.71078" lon="4.7554">
        <ele>314.6</ele>
        <time>2025-12-15T15:43:06Z</time>
      </trkpt>
      <trkpt lat="45.71078" lon="4.7554">
        <ele>314.6</ele>
        <time>2025-12-15T15:43:07Z</time>
      </trkpt>
      <trkpt lat="45.71078" lon="4.7554">
        <ele>314.6</ele>
        <time>2025-12-15T15:43:08Z</time>
      </trkpt>
      <trkpt lat="45.71078" lon="4.7554">
        <ele>314.6</ele>
        <time>2025-12-15T15:43:09Z</time>
      </trkpt>
      <trkpt lat="45.71078" lon="4.7554">
        <ele>314.6</ele>
        <time>2025-12-15T15:43:10Z</time>
      </trkpt>
      <trkpt lat="45.71078" lon="4.7554">
        <ele>314.6</ele>
        <time>2025-12-15T15:43:11Z</time>
      </trkpt>
      <trkpt lat="45.71078" lon="4.7554">
        <ele>314.6</ele>
        <time>2025-12-15T15:43:12Z</time>
      </trkpt>
      <trkpt lat="45.71078" lon="4.7554">
        <ele>314.6</ele>
        <time>2025-12-15T15:43:13Z</time>
      </trkpt>
      <trkpt lat="45.71078" lon="4.7554">
        <ele>314.6</ele>
        <time>2025-12-15T15:43:14Z</time>
      </trkpt>
      <trkpt lat="45.71078" lon="4.7554">
        <ele>314.6</ele>
        <time>2025-12-15T15:43:15Z</time>
      </trkpt>
      <trkpt lat="45.71078" lon="4.7554">
        <ele>314.6</ele>
        <time>2025-12-15T15:43:16Z</time>
      </trkpt>
      <trkpt lat="45.71078" lon="4.7554">
        <ele>314.6</ele>
        <time>2025-12-15T15:43:17Z</time>
      </trkpt>
      <trkpt lat="45.71078" lon="4.7554">
        <ele>314.6</ele>
        <time>2025-12-15T15:43:18Z</time>
      </trkpt>
      <trkpt lat="45.71078" lon="4.7554">
        <ele>314.6</ele>
        <time>2025-12-15T15:43:19Z</time>
      </trkpt>
      <trkpt lat="45.71078" lon="4.7554">
        <ele>314.6</ele>
        <time>2025-12-15T15:43:20Z</time>
      </trkpt>
      <trkpt lat="45.71078" lon="4.7554">
        <ele>314.6</ele>
        <time>2025-12-15T15:43:21Z</time>
      </trkpt>
      <trkpt lat="45.71078" lon="4.7554">
        <ele>314.6</ele>
        <time>2025-12-15T15:43:22Z</time>
      </trkpt>
      <trkpt lat="45.71078" lon="4.7554">
        <ele>314.6</ele>
        <time>2025-12-15T15:43:23Z</time>
      </trkpt>
      <trkpt lat="45.71078" lon="4.7554">
        <ele>314.6</ele>
        <time>2025-12-15T15:43:24Z</time>
      </trkpt>
      <trkpt lat="45.71078" lon="4.7554">
        <ele>314.6</ele>
        <time>2025-12-15T15:43:25Z</time>
      </trkpt>
      <trkpt lat="45.71078" lon="4.7554">
        <ele>314.6</ele>
        <time>2025-12-15T15:43:26Z</time>
      </trkpt>
      <trkpt lat="45.71078" lon="4.7554">
        <ele>314.6</ele>
        <time>2025-12-15T15:43:27Z</time>
      </trkpt>
      <trkpt lat="45.71078" lon="4.7554">
        <ele>314.6</ele>
        <time>2025-12-15T15:43:28Z</time>
      </trkpt>
      <trkpt lat="45.71078" lon="4.7554">
        <ele>314.6</ele>
        <time>2025-12-15T15:43:29Z</time>
      </trkpt>
      <trkpt lat="45.71078" lon="4.7554">
        <ele>314.6</ele>
        <time>2025-12-15T15:43:30Z</time>
      </trkpt>
      <trkpt lat="45.71078" lon="4.7554">
        <ele>314.6</ele>
        <time>2025-12-15T15:43:31Z</time>
      </trkpt>
      <trkpt lat="45.71078" lon="4.7554">
        <ele>314.6</ele>
        <time>2025-12-15T15:43:32Z</time>
      </trkpt>
      <trkpt lat="45.71078" lon="4.7554">
        <ele>314.6</ele>
        <time>2025-12-15T15:43:33Z</time>
      </trkpt>
      <trkpt lat="45.71078" lon="4.7554">
        <ele>314.6</ele>
        <time>2025-12-15T15:43:34Z</time>
      </trkpt>
      <trkpt lat="45.71078" lon="4.7554">
        <ele>314.6</ele>
        <time>2025-12-15T15:43:35Z</time>
      </trkpt>
      <trkpt lat="45.71078" lon="4.7554">
        <ele>314.6</ele>
        <time>2025-12-15T15:43:36Z</time>
      </trkpt>
      <trkpt lat="45.71078" lon="4.7554">
        <ele>314.6</ele>
        <time>2025-12-15T15:43:37Z</time>
      </trkpt>
      <trkpt lat="45.71078" lon="4.7554">
        <ele>314.6</ele>
        <time>2025-12-15T15:43:38Z</time>
      </trkpt>
      <trkpt lat="45.71078" lon="4.7554">
        <ele>314.6</ele>
        <time>2025-12-15T15:43:39Z</time>
      </trkpt>
      <trkpt lat="45.71078" lon="4.7554">
        <ele>314.6</ele>
        <time>2025-12-15T15:43:40Z</time>
      </trkpt>
      <trkpt lat="45.71078" lon="4.7554">
        <ele>314.6</ele>
        <time>2025-12-15T15:43:41Z</time>
      </trkpt>
      <trkpt lat="45.71078" lon="4.7554">
        <ele>314.6</ele>
        <time>2025-12-15T15:43:42Z</time>
      </trkpt>
      <trkpt lat="45.71078" lon="4.7554">
        <ele>314.6</ele>
        <time>2025-12-15T15:43:43Z</time>
      </trkpt>
      <trkpt lat="45.71077" lon="4.7554">
        <ele>314.6</ele>
        <time>2025-12-15T15:43:44Z</time>
      </trkpt>
      <trkpt lat="45.71076" lon="4.7554">
        <ele>314.6</ele>
        <time>2025-12-15T15:43:45Z</time>
      </trkpt>
      <trkpt lat="45.71076" lon="4.7554">
        <ele>314.6</ele>
        <time>2025-12-15T15:43:46Z</time>
      </trkpt>
      <trkpt lat="45.71076" lon="4.7554">
        <ele>314.6</ele>
        <time>2025-12-15T15:43:47Z</time>
      </trkpt>
      <trkpt lat="45.71076" lon="4.7554">
        <ele>314.6</ele>
        <time>2025-12-15T15:43:48Z</time>
      </trkpt>
      <trkpt lat="45.71076" lon="4.7554">
        <ele>314.6</ele>
        <time>2025-12-15T15:43:49Z</time>
      </trkpt>
      <trkpt lat="45.71076" lon="4.7554">
        <ele>314.6</ele>
        <time>2025-12-15T15:43:50Z</time>
      </trkpt>
      <trkpt lat="45.71076" lon="4.7554">
        <ele>314.6</ele>
        <time>2025-12-15T15:43:51Z</time>
      </trkpt>
      <trkpt lat="45.71076" lon="4.7554">
        <ele>314.6</ele>
        <time>2025-12-15T15:43:52Z</time>
      </trkpt>
      <trkpt lat="45.71076" lon="4.7554">
        <ele>314.6</ele>
        <time>2025-12-15T15:43:53Z</time>
      </trkpt>
      <trkpt lat="45.71076" lon="4.7554">
        <ele>314.6</ele>
        <time>2025-12-15T15:43:54Z</time>
      </trkpt>
      <trkpt lat="45.71074" lon="4.7554">
        <ele>314.6</ele>
        <time>2025-12-15T15:43:55Z</time>
      </trkpt>
      <trkpt lat="45.71072" lon="4.7554">
        <ele>314.6</ele>
        <time>2025-12-15T15:43:56Z</time>
      </trkpt>
      <trkpt lat="45.71069" lon="4.75539">
        <ele>315.2</ele>
        <time>2025-12-15T15:43:57Z</time>
      </trkpt>
      <trkpt lat="45.71065" lon="4.75538">
        <ele>315</ele>
        <time>2025-12-15T15:43:58Z</time>
      </trkpt>
      <trkpt lat="45.71061" lon="4.75535">
        <ele>314.6</ele>
        <time>2025-12-15T15:43:59Z</time>
      </trkpt>
      <trkpt lat="45.71058" lon="4.75531">
        <ele>314.2</ele>
        <time>2025-12-15T15:44:00Z</time>
      </trkpt>
      <trkpt lat="45.71057" lon="4.75525">
        <ele>314</ele>
        <time>2025-12-15T15:44:01Z</time>
      </trkpt>
      <trkpt lat="45.71057" lon="4.75519">
        <ele>313.6</ele>
        <time>2025-12-15T15:44:02Z</time>
      </trkpt>
      <trkpt lat="45.71058" lon="4.75512">
        <ele>313.4</ele>
        <time>2025-12-15T15:44:03Z</time>
      </trkpt>
      <trkpt lat="45.71058" lon="4.75504">
        <ele>313.2</ele>
        <time>2025-12-15T15:44:04Z</time>
      </trkpt>
      <trkpt lat="45.71058" lon="4.75494">
        <ele>313</ele>
        <time>2025-12-15T15:44:05Z</time>
      </trkpt>
      <trkpt lat="45.71057" lon="4.75486">
        <ele>312.8</ele>
        <time>2025-12-15T15:44:06Z</time>
      </trkpt>
      <trkpt lat="45.71057" lon="4.75477">
        <ele>312.6</ele>
        <time>2025-12-15T15:44:07Z</time>
      </trkpt>
      <trkpt lat="45.71057" lon="4.75467">
        <ele>312.6</ele>
        <time>2025-12-15T15:44:08Z</time>
      </trkpt>
      <trkpt lat="45.71057" lon="4.75459">
        <ele>312.6</ele>
        <time>2025-12-15T15:44:09Z</time>
      </trkpt>
      <trkpt lat="45.71057" lon="4.75452">
        <ele>312.8</ele>
        <time>2025-12-15T15:44:10Z</time>
      </trkpt>
      <trkpt lat="45.71057" lon="4.75449">
        <ele>313</ele>
        <time>2025-12-15T15:44:11Z</time>
      </trkpt>
      <trkpt lat="45.71057" lon="4.75446">
        <ele>313.4</ele>
        <time>2025-12-15T15:44:12Z</time>
      </trkpt>
      <trkpt lat="45.71056" lon="4.75445">
        <ele>313.6</ele>
        <time>2025-12-15T15:44:13Z</time>
      </trkpt>
      <trkpt lat="45.71054" lon="4.75445">
        <ele>314</ele>
        <time>2025-12-15T15:44:14Z</time>
      </trkpt>
      <trkpt lat="45.71053" lon="4.75448">
        <ele>314.2</ele>
        <time>2025-12-15T15:44:15Z</time>
      </trkpt>
      <trkpt lat="45.71053" lon="4.75451">
        <ele>314.2</ele>
        <time>2025-12-15T15:44:16Z</time>
      </trkpt>
      <trkpt lat="45.71053" lon="4.75456">
        <ele>314</ele>
        <time>2025-12-15T15:44:17Z</time>
      </trkpt>
      <trkpt lat="45.71053" lon="4.75462">
        <ele>313.8</ele>
        <time>2025-12-15T15:44:18Z</time>
      </trkpt>
      <trkpt lat="45.71053" lon="4.7547">
        <ele>313.4</ele>
        <time>2025-12-15T15:44:19Z</time>
      </trkpt>
      <trkpt lat="45.71053" lon="4.75478">
        <ele>313</ele>
        <time>2025-12-15T15:44:20Z</time>
      </trkpt>
      <trkpt lat="45.71053" lon="4.75487">
        <ele>312.6</ele>
        <time>2025-12-15T15:44:21Z</time>
      </trkpt>
      <trkpt lat="45.71054" lon="4.75497">
        <ele>312.2</ele>
        <time>2025-12-15T15:44:22Z</time>
      </trkpt>
      <trkpt lat="45.71053" lon="4.75507">
        <ele>311.8</ele>
        <time>2025-12-15T15:44:23Z</time>
      </trkpt>
      <trkpt lat="45.71054" lon="4.75515">
        <ele>311.6</ele>
        <time>2025-12-15T15:44:24Z</time>
      </trkpt>
      <trkpt lat="45.71054" lon="4.75524">
        <ele>311.6</ele>
        <time>2025-12-15T15:44:25Z</time>
      </trkpt>
      <trkpt lat="45.71055" lon="4.75531">
        <ele>311.8</ele>
        <time>2025-12-15T15:44:26Z</time>
      </trkpt>
      <trkpt lat="45.71058" lon="4.75537">
        <ele>311.8</ele>
        <time>2025-12-15T15:44:27Z</time>
      </trkpt>
      <trkpt lat="45.71062" lon="4.75539">
        <ele>312.2</ele>
        <time>2025-12-15T15:44:28Z</time>
      </trkpt>
      <trkpt lat="45.71065" lon="4.7554">
        <ele>312.6</ele>
        <time>2025-12-15T15:44:29Z</time>
      </trkpt>
      <trkpt lat="45.71069" lon="4.7554">
        <ele>313</ele>
        <time>2025-12-15T15:44:30Z</time>
      </trkpt>
      <trkpt lat="45.71072" lon="4.7554">
        <ele>313.4</ele>
        <time>2025-12-15T15:44:31Z</time>
      </trkpt>
      <trkpt lat="45.71076" lon="4.7554">
        <ele>313.8</ele>
        <time>2025-12-15T15:44:32Z</time>
      </trkpt>
      <trkpt lat="45.71078" lon="4.7554">
        <ele>314.2</ele>
        <time>2025-12-15T15:44:33Z</time>
      </trkpt>
      <trkpt lat="45.71081" lon="4.7554">
        <ele>314.4</ele>
        <time>2025-12-15T15:44:34Z</time>
      </trkpt>
      <trkpt lat="45.71083" lon="4.75541">
        <ele>314.8</ele>
        <time>2025-12-15T15:44:35Z</time>
      </trkpt>
      <trkpt lat="45.71084" lon="4.75541">
        <ele>315</ele>
        <time>2025-12-15T15:44:36Z</time>
      </trkpt>
      <trkpt lat="45.71085" lon="4.75542">
        <ele>315</ele>
        <time>2025-12-15T15:44:37Z</time>
      </trkpt>
      <trkpt lat="45.71086" lon="4.75543">
        <ele>315.2</ele>
        <time>2025-12-15T15:44:38Z</time>
      </trkpt>
      <trkpt lat="45.71087" lon="4.75543">
        <ele>315.2</ele>
        <time>2025-12-15T15:44:39Z</time>
      </trkpt>
      <trkpt lat="45.71087" lon="4.75543">
        <ele>315.4</ele>
        <time>2025-12-15T15:44:40Z</time>
      </trkpt>
      <trkpt lat="45.71087" lon="4.75543">
        <ele>315.4</ele>
        <time>2025-12-15T15:44:41Z</time>
      </trkpt>
      <trkpt lat="45.71087" lon="4.75544">
        <ele>315.4</ele>
        <time>2025-12-15T15:44:42Z</time>
      </trkpt>
      <trkpt lat="45.71087" lon="4.75544">
        <ele>315.4</ele>
        <time>2025-12-15T15:44:43Z</time>
      </trkpt>
      <trkpt lat="45.71087" lon="4.75544">
        <ele>315.4</ele>
        <time>2025-12-15T15:44:44Z</time>
      </trkpt>
      <trkpt lat="45.71087" lon="4.75544">
        <ele>315.4</ele>
        <time>2025-12-15T15:44:45Z</time>
      </trkpt>
      <trkpt lat="45.71087" lon="4.75544">
        <ele>315.4</ele>
        <time>2025-12-15T15:44:46Z</time>
      </trkpt>
      <trkpt lat="45.71087" lon="4.75544">
        <ele>315.4</ele>
        <time>2025-12-15T15:44:47Z</time>
      </trkpt>
      <trkpt lat="45.71087" lon="4.75544">
        <ele>315.4</ele>
        <time>2025-12-15T15:44:48Z</time>
      </trkpt>
      <trkpt lat="45.71087" lon="4.75544">
        <ele>315.4</ele>
        <time>2025-12-15T15:44:49Z</time>
      </trkpt>
      <trkpt lat="45.71087" lon="4.75544">
        <ele>315.4</ele>
        <time>2025-12-15T15:44:50Z</time>
      </trkpt>
      <trkpt lat="45.71087" lon="4.75544">
        <ele>315.4</ele>
        <time>2025-12-15T15:44:51Z</time>
      </trkpt>
      <trkpt lat="45.71088" lon="4.75544">
        <ele>315.4</ele>
        <time>2025-12-15T15:44:52Z</time>
      </trkpt>
      <trkpt lat="45.71088" lon="4.75544">
        <ele>315.4</ele>
        <time>2025-12-15T15:44:53Z</time>
      </trkpt>
      <trkpt lat="45.71088" lon="4.75544">
        <ele>315.4</ele>
        <time>2025-12-15T15:44:54Z</time>
      </trkpt>
      <trkpt lat="45.71088" lon="4.75544">
        <ele>315.4</ele>
        <time>2025-12-15T15:44:55Z</time>
      </trkpt>
      <trkpt lat="45.71088" lon="4.75544">
        <ele>315.4</ele>
        <time>2025-12-15T15:44:56Z</time>
      </trkpt>
      <trkpt lat="45.71088" lon="4.75544">
        <ele>315.4</ele>
        <time>2025-12-15T15:44:57Z</time>
      </trkpt>
      <trkpt lat="45.71088" lon="4.75544">
        <ele>315.4</ele>
        <time>2025-12-15T15:44:58Z</time>
      </trkpt>
      <trkpt lat="45.71088" lon="4.75544">
        <ele>315.4</ele>
        <time>2025-12-15T15:44:59Z</time>
      </trkpt>
      <trkpt lat="45.71088" lon="4.75544">
        <ele>315.6</ele>
        <time>2025-12-15T15:45:00Z</time>
      </trkpt>
      <trkpt lat="45.71088" lon="4.75544">
        <ele>315.6</ele>
        <time>2025-12-15T15:45:01Z</time>
      </trkpt>
      <trkpt lat="45.71088" lon="4.75544">
        <ele>315.6</ele>
        <time>2025-12-15T15:45:02Z</time>
      </trkpt>
      <trkpt lat="45.71088" lon="4.75544">
        <ele>315.4</ele>
        <time>2025-12-15T15:45:03Z</time>
      </trkpt>
      <trkpt lat="45.71088" lon="4.75544">
        <ele>315.4</ele>
        <time>2025-12-15T15:45:04Z</time>
      </trkpt>
      <trkpt lat="45.71088" lon="4.75544">
        <ele>315.4</ele>
        <time>2025-12-15T15:45:05Z</time>
      </trkpt>
      <trkpt lat="45.71088" lon="4.75544">
        <ele>315.4</ele>
        <time>2025-12-15T15:45:06Z</time>
      </trkpt>
      <trkpt lat="45.71088" lon="4.75544">
        <ele>315.4</ele>
        <time>2025-12-15T15:45:07Z</time>
      </trkpt>
      <trkpt lat="45.71088" lon="4.75544">
        <ele>315.4</ele>
        <time>2025-12-15T15:45:08Z</time>
      </trkpt>
      <trkpt lat="45.71088" lon="4.75544">
        <ele>315.4</ele>
        <time>2025-12-15T15:45:09Z</time>
      </trkpt>
      <trkpt lat="45.71088" lon="4.75544">
        <ele>315.4</ele>
        <time>2025-12-15T15:45:10Z</time>
      </trkpt>
      <trkpt lat="45.71088" lon="4.75544">
        <ele>315.4</ele>
        <time>2025-12-15T15:45:11Z</time>
      </trkpt>
      <trkpt lat="45.71088" lon="4.75544">
        <ele>315.4</ele>
        <time>2025-12-15T15:45:12Z</time>
      </trkpt>
      <trkpt lat="45.71089" lon="4.75544">
        <ele>315.4</ele>
        <time>2025-12-15T15:45:13Z</time>
      </trkpt>
      <trkpt lat="45.71089" lon="4.75544">
        <ele>315.4</ele>
        <time>2025-12-15T15:45:14Z</time>
      </trkpt>
      <trkpt lat="45.71089" lon="4.75544">
        <ele>315.4</ele>
        <time>2025-12-15T15:45:15Z</time>
      </trkpt>
      <trkpt lat="45.71089" lon="4.75544">
        <ele>315.4</ele>
        <time>2025-12-15T15:45:16Z</time>
      </trkpt>
      <trkpt lat="45.71089" lon="4.75544">
        <ele>315.4</ele>
        <time>2025-12-15T15:45:17Z</time>
      </trkpt>
      <trkpt lat="45.71089" lon="4.75544">
        <ele>315.4</ele>
        <time>2025-12-15T15:45:18Z</time>
      </trkpt>
      <trkpt lat="45.71089" lon="4.75544">
        <ele>315.4</ele>
        <time>2025-12-15T15:45:19Z</time>
      </trkpt>
      <trkpt lat="45.71089" lon="4.75544">
        <ele>315.4</ele>
        <time>2025-12-15T15:45:20Z</time>
      </trkpt>
      <trkpt lat="45.71089" lon="4.75544">
        <ele>315.4</ele>
        <time>2025-12-15T15:45:21Z</time>
      </trkpt>
      <trkpt lat="45.71089" lon="4.75544">
        <ele>315.4</ele>
        <time>2025-12-15T15:45:22Z</time>
      </trkpt>
      <trkpt lat="45.71089" lon="4.75544">
        <ele>315.4</ele>
        <time>2025-12-15T15:45:23Z</time>
      </trkpt>
      <trkpt lat="45.71089" lon="4.75544">
        <ele>315.4</ele>
        <time>2025-12-15T15:45:24Z</time>
      </trkpt>
      <trkpt lat="45.71089" lon="4.75544">
        <ele>315.4</ele>
        <time>2025-12-15T15:45:25Z</time>
      </trkpt>
      <trkpt lat="45.71089" lon="4.75544">
        <ele>315.4</ele>
        <time>2025-12-15T15:45:26Z</time>
      </trkpt>
      <trkpt lat="45.71089" lon="4.75544">
        <ele>315.4</ele>
        <time>2025-12-15T15:45:27Z</time>
      </trkpt>
      <trkpt lat="45.71089" lon="4.75544">
        <ele>315.4</ele>
        <time>2025-12-15T15:45:28Z</time>
      </trkpt>
      <trkpt lat="45.71089" lon="4.75544">
        <ele>315.4</ele>
        <time>2025-12-15T15:45:29Z</time>
      </trkpt>
      <trkpt lat="45.71089" lon="4.75544">
        <ele>315.4</ele>
        <time>2025-12-15T15:45:30Z</time>
      </trkpt>
      <trkpt lat="45.71089" lon="4.75544">
        <ele>315.4</ele>
        <time>2025-12-15T15:45:31Z</time>
      </trkpt>
      <trkpt lat="45.71089" lon="4.75544">
        <ele>315.4</ele>
        <time>2025-12-15T15:45:32Z</time>
      </trkpt>
      <trkpt lat="45.71089" lon="4.75544">
        <ele>315.4</ele>
        <time>2025-12-15T15:45:33Z</time>
      </trkpt>
      <trkpt lat="45.71089" lon="4.75544">
        <ele>315.4</ele>
        <time>2025-12-15T15:45:34Z</time>
      </trkpt>
      <trkpt lat="45.71089" lon="4.75544">
        <ele>315.4</ele>
        <time>2025-12-15T15:45:35Z</time>
      </trkpt>
      <trkpt lat="45.71089" lon="4.75544">
        <ele>315.4</ele>
        <time>2025-12-15T15:45:36Z</time>
      </trkpt>
      <trkpt lat="45.71089" lon="4.75544">
        <ele>315.4</ele>
        <time>2025-12-15T15:45:37Z</time>
      </trkpt>
      <trkpt lat="45.71089" lon="4.75544">
        <ele>315.4</ele>
        <time>2025-12-15T15:45:38Z</time>
      </trkpt>
      <trkpt lat="45.71089" lon="4.75544">
        <ele>315.2</ele>
        <time>2025-12-15T15:45:39Z</time>
      </trkpt>
      <trkpt lat="45.71089" lon="4.75544">
        <ele>315.2</ele>
        <time>2025-12-15T15:45:40Z</time>
      </trkpt>
      <trkpt lat="45.71089" lon="4.75544">
        <ele>315.2</ele>
        <time>2025-12-15T15:45:41Z</time>
      </trkpt>
      <trkpt lat="45.71089" lon="4.75544">
        <ele>315.2</ele>
        <time>2025-12-15T15:45:42Z</time>
      </trkpt>
      <trkpt lat="45.71089" lon="4.75544">
        <ele>315.2</ele>
        <time>2025-12-15T15:45:43Z</time>
      </trkpt>
      <trkpt lat="45.71089" lon="4.75544">
        <ele>315.2</ele>
        <time>2025-12-15T15:45:44Z</time>
      </trkpt>
      <trkpt lat="45.71089" lon="4.75544">
        <ele>315.2</ele>
        <time>2025-12-15T15:45:45Z</time>
      </trkpt>
      <trkpt lat="45.71089" lon="4.75544">
        <ele>315.2</ele>
        <time>2025-12-15T15:45:46Z</time>
      </trkpt>
      <trkpt lat="45.71089" lon="4.75544">
        <ele>315.2</ele>
        <time>2025-12-15T15:45:47Z</time>
      </trkpt>
      <trkpt lat="45.71089" lon="4.75544">
        <ele>315.2</ele>
        <time>2025-12-15T15:45:48Z</time>
      </trkpt>
      <trkpt lat="45.71089" lon="4.75544">
        <ele>315.2</ele>
        <time>2025-12-15T15:45:49Z</time>
      </trkpt>
      <trkpt lat="45.71089" lon="4.75544">
        <ele>315.2</ele>
        <time>2025-12-15T15:45:50Z</time>
      </trkpt>
      <trkpt lat="45.71089" lon="4.75544">
        <ele>315.2</ele>
        <time>2025-12-15T15:45:51Z</time>
      </trkpt>
      <trkpt lat="45.71089" lon="4.75544">
        <ele>315.2</ele>
        <time>2025-12-15T15:45:52Z</time>
      </trkpt>
      <trkpt lat="45.71089" lon="4.75544">
        <ele>315.2</ele>
        <time>2025-12-15T15:45:53Z</time>
      </trkpt>
      <trkpt lat="45.71089" lon="4.75544">
        <ele>315.2</ele>
        <time>2025-12-15T15:45:54Z</time>
      </trkpt>
      <trkpt lat="45.71088" lon="4.75544">
        <ele>315.2</ele>
        <time>2025-12-15T15:45:55Z</time>
      </trkpt>
      <trkpt lat="45.71088" lon="4.75544">
        <ele>315.2</ele>
        <time>2025-12-15T15:45:56Z</time>
      </trkpt>
      <trkpt lat="45.71088" lon="4.75544">
        <ele>315.2</ele>
        <time>2025-12-15T15:45:57Z</time>
      </trkpt>
      <trkpt lat="45.71088" lon="4.75544">
        <ele>315.2</ele>
        <time>2025-12-15T15:45:58Z</time>
      </trkpt>
      <trkpt lat="45.71088" lon="4.75544">
        <ele>315.2</ele>
        <time>2025-12-15T15:45:59Z</time>
      </trkpt>
      <trkpt lat="45.71088" lon="4.75544">
        <ele>315.2</ele>
        <time>2025-12-15T15:46:00Z</time>
      </trkpt>
      <trkpt lat="45.71088" lon="4.75544">
        <ele>315.2</ele>
        <time>2025-12-15T15:46:01Z</time>
      </trkpt>
      <trkpt lat="45.71088" lon="4.75544">
        <ele>315.2</ele>
        <time>2025-12-15T15:46:02Z</time>
      </trkpt>
      <trkpt lat="45.71088" lon="4.75544">
        <ele>315.2</ele>
        <time>2025-12-15T15:46:03Z</time>
      </trkpt>
      <trkpt lat="45.71088" lon="4.75544">
        <ele>315.2</ele>
        <time>2025-12-15T15:46:04Z</time>
      </trkpt>
      <trkpt lat="45.71088" lon="4.75544">
        <ele>315.2</ele>
        <time>2025-12-15T15:46:05Z</time>
      </trkpt>
      <trkpt lat="45.71088" lon="4.75544">
        <ele>315.2</ele>
        <time>2025-12-15T15:46:06Z</time>
      </trkpt>
      <trkpt lat="45.71088" lon="4.75544">
        <ele>315.2</ele>
        <time>2025-12-15T15:46:07Z</time>
      </trkpt>
      <trkpt lat="45.71088" lon="4.75544">
        <ele>315.2</ele>
        <time>2025-12-15T15:46:08Z</time>
      </trkpt>
      <trkpt lat="45.71088" lon="4.75544">
        <ele>315.2</ele>
        <time>2025-12-15T15:46:09Z</time>
      </trkpt>
      <trkpt lat="45.71088" lon="4.75544">
        <ele>315.2</ele>
        <time>2025-12-15T15:46:10Z</time>
      </trkpt>
      <trkpt lat="45.71088" lon="4.75544">
        <ele>315.2</ele>
        <time>2025-12-15T15:46:11Z</time>
      </trkpt>
      <trkpt lat="45.71088" lon="4.75544">
        <ele>315.2</ele>
        <time>2025-12-15T15:46:12Z</time>
      </trkpt>
      <trkpt lat="45.71088" lon="4.75544">
        <ele>315.2</ele>
        <time>2025-12-15T15:46:13Z</time>
      </trkpt>
      <trkpt lat="45.71088" lon="4.75544">
        <ele>315.2</ele>
        <time>2025-12-15T15:46:14Z</time>
      </trkpt>
      <trkpt lat="45.71088" lon="4.75544">
        <ele>315.2</ele>
        <time>2025-12-15T15:46:15Z</time>
      </trkpt>
      <trkpt lat="45.71088" lon="4.75544">
        <ele>315.2</ele>
        <time>2025-12-15T15:46:16Z</time>
      </trkpt>
      <trkpt lat="45.71088" lon="4.75544">
        <ele>315.2</ele>
        <time>2025-12-15T15:46:17Z</time>
      </trkpt>
      <trkpt lat="45.71088" lon="4.75544">
        <ele>315.2</ele>
        <time>2025-12-15T15:46:18Z</time>
      </trkpt>
      <trkpt lat="45.71088" lon="4.75544">
        <ele>315.2</ele>
        <time>2025-12-15T15:46:19Z</time>
      </trkpt>
      <trkpt lat="45.71088" lon="4.75544">
        <ele>315.2</ele>
        <time>2025-12-15T15:46:20Z</time>
      </trkpt>
      <trkpt lat="45.71088" lon="4.75544">
        <ele>315.2</ele>
        <time>2025-12-15T15:46:21Z</time>
      </trkpt>
      <trkpt lat="45.71088" lon="4.75544">
        <ele>315.2</ele>
        <time>2025-12-15T15:46:22Z</time>
      </trkpt>
      <trkpt lat="45.71088" lon="4.75544">
        <ele>315.2</ele>
        <time>2025-12-15T15:46:23Z</time>
      </trkpt>
      <trkpt lat="45.71088" lon="4.75545">
        <ele>315.2</ele>
        <time>2025-12-15T15:46:24Z</time>
      </trkpt>
      <trkpt lat="45.71087" lon="4.75545">
        <ele>315.2</ele>
        <time>2025-12-15T15:46:25Z</time>
      </trkpt>
      <trkpt lat="45.71086" lon="4.75545">
        <ele>315.2</ele>
        <time>2025-12-15T15:46:26Z</time>
      </trkpt>
      <trkpt lat="45.71086" lon="4.75545">
        <ele>315.2</ele>
        <time>2025-12-15T15:46:27Z</time>
      </trkpt>
      <trkpt lat="45.71086" lon="4.75545">
        <ele>315.2</ele>
        <time>2025-12-15T15:46:28Z</time>
      </trkpt>
      <trkpt lat="45.71086" lon="4.75545">
        <ele>315.2</ele>
        <time>2025-12-15T15:46:29Z</time>
      </trkpt>
      <trkpt lat="45.71086" lon="4.75545">
        <ele>315.2</ele>
        <time>2025-12-15T15:46:30Z</time>
      </trkpt>
      <trkpt lat="45.71086" lon="4.75545">
        <ele>315.2</ele>
        <time>2025-12-15T15:46:31Z</time>
      </trkpt>
      <trkpt lat="45.71086" lon="4.75545">
        <ele>315.2</ele>
        <time>2025-12-15T15:46:32Z</time>
      </trkpt>
      <trkpt lat="45.71086" lon="4.75545">
        <ele>315.2</ele>
        <time>2025-12-15T15:46:33Z</time>
      </trkpt>
      <trkpt lat="45.71086" lon="4.75545">
        <ele>315.2</ele>
        <time>2025-12-15T15:46:34Z</time>
      </trkpt>
      <trkpt lat="45.71086" lon="4.75545">
        <ele>315.2</ele>
        <time>2025-12-15T15:46:35Z</time>
      </trkpt>
      <trkpt lat="45.71086" lon="4.75545">
        <ele>315.2</ele>
        <time>2025-12-15T15:46:36Z</time>
      </trkpt>
      <trkpt lat="45.71086" lon="4.75545">
        <ele>315.2</ele>
        <time>2025-12-15T15:46:37Z</time>
      </trkpt>
      <trkpt lat="45.71086" lon="4.75545">
        <ele>315.2</ele>
        <time>2025-12-15T15:46:38Z</time>
      </trkpt>
      <trkpt lat="45.71086" lon="4.75545">
        <ele>315.2</ele>
        <time>2025-12-15T15:46:39Z</time>
      </trkpt>
      <trkpt lat="45.71086" lon="4.75545">
        <ele>315.2</ele>
        <time>2025-12-15T15:46:40Z</time>
      </trkpt>
      <trkpt lat="45.71086" lon="4.75545">
        <ele>315.2</ele>
        <time>2025-12-15T15:46:41Z</time>
      </trkpt>
      <trkpt lat="45.71086" lon="4.75545">
        <ele>315.2</ele>
        <time>2025-12-15T15:46:42Z</time>
      </trkpt>
      <trkpt lat="45.71086" lon="4.75545">
        <ele>315.2</ele>
        <time>2025-12-15T15:46:43Z</time>
      </trkpt>
      <trkpt lat="45.71086" lon="4.75545">
        <ele>315.2</ele>
        <time>2025-12-15T15:46:44Z</time>
      </trkpt>
      <trkpt lat="45.71086" lon="4.75545">
        <ele>315.2</ele>
        <time>2025-12-15T15:46:45Z</time>
      </trkpt>
      <trkpt lat="45.71085" lon="4.75545">
        <ele>315.2</ele>
        <time>2025-12-15T15:46:46Z</time>
      </trkpt>
      <trkpt lat="45.71085" lon="4.75545">
        <ele>315.2</ele>
        <time>2025-12-15T15:46:47Z</time>
      </trkpt>
      <trkpt lat="45.71085" lon="4.75545">
        <ele>315.2</ele>
        <time>2025-12-15T15:46:48Z</time>
      </trkpt>
      <trkpt lat="45.71085" lon="4.75545">
        <ele>315.2</ele>
        <time>2025-12-15T15:46:49Z</time>
      </trkpt>
      <trkpt lat="45.71085" lon="4.75545">
        <ele>315.2</ele>
        <time>2025-12-15T15:46:50Z</time>
      </trkpt>
      <trkpt lat="45.71085" lon="4.75545">
        <ele>315.2</ele>
        <time>2025-12-15T15:46:51Z</time>
      </trkpt>
      <trkpt lat="45.71085" lon="4.75545">
        <ele>315.2</ele>
        <time>2025-12-15T15:46:52Z</time>
      </trkpt>
      <trkpt lat="45.71085" lon="4.75545">
        <ele>315.2</ele>
        <time>2025-12-15T15:46:53Z</time>
      </trkpt>
      <trkpt lat="45.71085" lon="4.75545">
        <ele>315.2</ele>
        <time>2025-12-15T15:46:54Z</time>
      </trkpt>
      <trkpt lat="45.71085" lon="4.75545">
        <ele>315.2</ele>
        <time>2025-12-15T15:46:55Z</time>
      </trkpt>
      <trkpt lat="45.71085" lon="4.75545">
        <ele>315.2</ele>
        <time>2025-12-15T15:46:56Z</time>
      </trkpt>
      <trkpt lat="45.71085" lon="4.75545">
        <ele>315.2</ele>
        <time>2025-12-15T15:46:57Z</time>
      </trkpt>
      <trkpt lat="45.71085" lon="4.75545">
        <ele>315.2</ele>
        <time>2025-12-15T15:46:58Z</time>
      </trkpt>
      <trkpt lat="45.71085" lon="4.75545">
        <ele>315.2</ele>
        <time>2025-12-15T15:46:59Z</time>
      </trkpt>
      <trkpt lat="45.71085" lon="4.75546">
        <ele>315.2</ele>
        <time>2025-12-15T15:47:00Z</time>
      </trkpt>
      <trkpt lat="45.71084" lon="4.75546">
        <ele>315.2</ele>
        <time>2025-12-15T15:47:01Z</time>
      </trkpt>
      <trkpt lat="45.71083" lon="4.75546">
        <ele>315.2</ele>
        <time>2025-12-15T15:47:02Z</time>
      </trkpt>
      <trkpt lat="45.71083" lon="4.75546">
        <ele>315.2</ele>
        <time>2025-12-15T15:47:03Z</time>
      </trkpt>
      <trkpt lat="45.71083" lon="4.75546">
        <ele>315.2</ele>
        <time>2025-12-15T15:47:04Z</time>
      </trkpt>
      <trkpt lat="45.71083" lon="4.75546">
        <ele>315.2</ele>
        <time>2025-12-15T15:47:05Z</time>
      </trkpt>
      <trkpt lat="45.71083" lon="4.75546">
        <ele>315.2</ele>
        <time>2025-12-15T15:47:06Z</time>
      </trkpt>
      <trkpt lat="45.71083" lon="4.75546">
        <ele>315.2</ele>
        <time>2025-12-15T15:47:07Z</time>
      </trkpt>
      <trkpt lat="45.71083" lon="4.75546">
        <ele>315.2</ele>
        <time>2025-12-15T15:47:08Z</time>
      </trkpt>
      <trkpt lat="45.71083" lon="4.75546">
        <ele>315.2</ele>
        <time>2025-12-15T15:47:09Z</time>
      </trkpt>
      <trkpt lat="45.71083" lon="4.75546">
        <ele>315.2</ele>
        <time>2025-12-15T15:47:10Z</time>
      </trkpt>
      <trkpt lat="45.71083" lon="4.75546">
        <ele>315.2</ele>
        <time>2025-12-15T15:47:11Z</time>
      </trkpt>
      <trkpt lat="45.71083" lon="4.75546">
        <ele>315.2</ele>
        <time>2025-12-15T15:47:12Z</time>
      </trkpt>
      <trkpt lat="45.71083" lon="4.75546">
        <ele>315.2</ele>
        <time>2025-12-15T15:47:13Z</time>
      </trkpt>
      <trkpt lat="45.71083" lon="4.75546">
        <ele>315.2</ele>
        <time>2025-12-15T15:47:14Z</time>
      </trkpt>
      <trkpt lat="45.71083" lon="4.75546">
        <ele>315.2</ele>
        <time>2025-12-15T15:47:15Z</time>
      </trkpt>
      <trkpt lat="45.71083" lon="4.75546">
        <ele>315.2</ele>
        <time>2025-12-15T15:47:16Z</time>
      </trkpt>
      <trkpt lat="45.71083" lon="4.75546">
        <ele>315.2</ele>
        <time>2025-12-15T15:47:17Z</time>
      </trkpt>
      <trkpt lat="45.71083" lon="4.75546">
        <ele>315.2</ele>
        <time>2025-12-15T15:47:18Z</time>
      </trkpt>
      <trkpt lat="45.71083" lon="4.75546">
        <ele>315.2</ele>
        <time>2025-12-15T15:47:19Z</time>
      </trkpt>
      <trkpt lat="45.71083" lon="4.75546">
        <ele>315.2</ele>
        <time>2025-12-15T15:47:20Z</time>
      </trkpt>
      <trkpt lat="45.71083" lon="4.75546">
        <ele>315.2</ele>
        <time>2025-12-15T15:47:21Z</time>
      </trkpt>
      <trkpt lat="45.71083" lon="4.75546">
        <ele>315.2</ele>
        <time>2025-12-15T15:47:22Z</time>
      </trkpt>
      <trkpt lat="45.71083" lon="4.75546">
        <ele>315.2</ele>
        <time>2025-12-15T15:47:23Z</time>
      </trkpt>
      <trkpt lat="45.71083" lon="4.75546">
        <ele>315.2</ele>
        <time>2025-12-15T15:47:24Z</time>
      </trkpt>
      <trkpt lat="45.71083" lon="4.75546">
        <ele>315.2</ele>
        <time>2025-12-15T15:47:25Z</time>
      </trkpt>
      <trkpt lat="45.71083" lon="4.75546">
        <ele>315.2</ele>
        <time>2025-12-15T15:47:26Z</time>
      </trkpt>
      <trkpt lat="45.71083" lon="4.75546">
        <ele>315.2</ele>
        <time>2025-12-15T15:47:27Z</time>
      </trkpt>
      <trkpt lat="45.71083" lon="4.75546">
        <ele>315.2</ele>
        <time>2025-12-15T15:47:28Z</time>
      </trkpt>
      <trkpt lat="45.71083" lon="4.75546">
        <ele>315.2</ele>
        <time>2025-12-15T15:47:29Z</time>
      </trkpt>
      <trkpt lat="45.71082" lon="4.75545">
        <ele>315.2</ele>
        <time>2025-12-15T15:47:30Z</time>
      </trkpt>
      <trkpt lat="45.71082" lon="4.75545">
        <ele>315.2</ele>
        <time>2025-12-15T15:47:31Z</time>
      </trkpt>
      <trkpt lat="45.71082" lon="4.75545">
        <ele>315.4</ele>
        <time>2025-12-15T15:47:32Z</time>
      </trkpt>
      <trkpt lat="45.71082" lon="4.75545">
        <ele>315.4</ele>
        <time>2025-12-15T15:47:33Z</time>
      </trkpt>
    </trkseg>
  </trk>
</gpx>